<?xml version='1.0' encoding='UTF-8'?><gpx version="1.1" creator="JPX - https://github.com/jenetics/jpx" xmlns="http://www.topografix.com/GPX/1/1"><trk><trkseg><trkpt lat="42.53737787980363" lon="12.036719373491554"><ele>544.0</ele><time>2026-03-22T09:26:56.985Z</time></trkpt><trkpt lat="42.537402178991314" lon="12.036824816108432"><ele>544.0</ele><time>2026-03-22T09:28:53.983Z</time></trkpt><trkpt lat="42.53746112801133" lon="12.036912202527663"><ele>544.0</ele><time>2026-03-22T09:28:56.983Z</time></trkpt><trkpt lat="42.537529564785" lon="12.036958423346858"><ele>544.0</ele><time>2026-03-22T09:29:00.982Z</time></trkpt><trkpt lat="42.537613616002815" lon="12.036904500238379"><ele>544.0</ele><time>2026-03-22T09:29:02.982Z</time></trkpt><trkpt lat="42.53766277173477" lon="12.036843762495392"><ele>544.0</ele><time>2026-03-22T09:29:03.982Z</time></trkpt><trkpt lat="42.53772435356897" lon="12.03677434977901"><ele>544.0</ele><time>2026-03-22T09:29:04.982Z</time></trkpt><trkpt lat="42.53778492153952" lon="12.036707197524725"><ele>544.0</ele><time>2026-03-22T09:29:05.982Z</time></trkpt><trkpt lat="42.53785074753899" lon="12.03662500573925"><ele>544.0</ele><time>2026-03-22T09:29:06.982Z</time></trkpt><trkpt lat="42.53790483804468" lon="12.036550110122148"><ele>544.0</ele><time>2026-03-22T09:29:07.982Z</time></trkpt><trkpt lat="42.53796759753104" lon="12.036466355994461"><ele>544.0</ele><time>2026-03-22T09:29:08.982Z</time></trkpt><trkpt lat="42.53803472217659" lon="12.03637863863836"><ele>544.0</ele><time>2026-03-22T09:29:09.982Z</time></trkpt><trkpt lat="42.53809566833867" lon="12.03630352998457"><ele>544.6</ele><time>2026-03-22T09:29:10.982Z</time></trkpt><trkpt lat="42.53815267173914" lon="12.036220920290292"><ele>545.2</ele><time>2026-03-22T09:29:11.982Z</time></trkpt><trkpt lat="42.53821473614643" lon="12.036135596751912"><ele>545.8000000000001</ele><time>2026-03-22T09:29:12.982Z</time></trkpt><trkpt lat="42.53831426514567" lon="12.036003622652114"><ele>546.4</ele><time>2026-03-22T09:29:14.982Z</time></trkpt><trkpt lat="42.538355760248436" lon="12.03593762926177"><ele>547.0</ele><time>2026-03-22T09:29:15.982Z</time></trkpt><trkpt lat="42.538421449201294" lon="12.03583476328254"><ele>547.6666666666667</ele><time>2026-03-22T09:29:16.982Z</time></trkpt><trkpt lat="42.53848316401408" lon="12.035738051444008"><ele>548.3333333333334</ele><time>2026-03-22T09:29:17.982Z</time></trkpt><trkpt lat="42.538549731757" lon="12.035654018491362"><ele>549.0</ele><time>2026-03-22T09:29:18.982Z</time></trkpt><trkpt lat="42.53861106227511" lon="12.035575493332201"><ele>549.6666666666666</ele><time>2026-03-22T09:29:19.982Z</time></trkpt><trkpt lat="42.538682958624" lon="12.035505696655767"><ele>550.3333333333333</ele><time>2026-03-22T09:29:20.982Z</time></trkpt><trkpt lat="42.53876421478827" lon="12.035458947030328"><ele>551.0</ele><time>2026-03-22T09:29:21.982Z</time></trkpt><trkpt lat="42.538853997313744" lon="12.03544527177598"><ele>552.4</ele><time>2026-03-22T09:29:22.982Z</time></trkpt><trkpt lat="42.53895438535935" lon="12.035467064301994"><ele>553.8</ele><time>2026-03-22T09:29:23.982Z</time></trkpt><trkpt lat="42.53905468833726" lon="12.035510074786716"><ele>555.1999999999999</ele><time>2026-03-22T09:29:24.982Z</time></trkpt><trkpt lat="42.53915745693241" lon="12.035543439346403"><ele>556.6</ele><time>2026-03-22T09:29:25.982Z</time></trkpt><trkpt lat="42.53926314006985" lon="12.035580556974903"><ele>558.0</ele><time>2026-03-22T09:29:26.982Z</time></trkpt><trkpt lat="42.53937123425554" lon="12.035616961318537"><ele>558.0</ele><time>2026-03-22T09:29:27.982Z</time></trkpt><trkpt lat="42.5394803915507" lon="12.035646574754962"><ele>558.0</ele><time>2026-03-22T09:29:28.982Z</time></trkpt><trkpt lat="42.53958739698341" lon="12.035681145334514"><ele>558.0</ele><time>2026-03-22T09:29:29.982Z</time></trkpt><trkpt lat="42.539705483588634" lon="12.035717154194908"><ele>558.0</ele><time>2026-03-22T09:29:30.982Z</time></trkpt><trkpt lat="42.53982754265741" lon="12.035751473176429"><ele>558.75</ele><time>2026-03-22T09:29:31.982Z</time></trkpt><trkpt lat="42.53994840217385" lon="12.035780933462807"><ele>559.5</ele><time>2026-03-22T09:29:32.982Z</time></trkpt><trkpt lat="42.54007880810526" lon="12.035795042349068"><ele>560.25</ele><time>2026-03-22T09:29:33.982Z</time></trkpt><trkpt lat="42.540217743985906" lon="12.035812941397628"><ele>561.0</ele><time>2026-03-22T09:29:34.982Z</time></trkpt><trkpt lat="42.54035530513963" lon="12.035832552568882"><ele>559.25</ele><time>2026-03-22T09:29:35.982Z</time></trkpt><trkpt lat="42.540489570628495" lon="12.035848997442342"><ele>557.5</ele><time>2026-03-22T09:29:36.982Z</time></trkpt><trkpt lat="42.54062844511238" lon="12.035870506750644"><ele>555.75</ele><time>2026-03-22T09:29:37.982Z</time></trkpt><trkpt lat="42.540763397218" lon="12.035893504500654"><ele>554.0</ele><time>2026-03-22T09:29:38.982Z</time></trkpt><trkpt lat="42.54089583905148" lon="12.035911504300273"><ele>554.0</ele><time>2026-03-22T09:29:39.982Z</time></trkpt><trkpt lat="42.5410365325872" lon="12.035934666484271"><ele>554.0</ele><time>2026-03-22T09:29:40.982Z</time></trkpt><trkpt lat="42.5411714959368" lon="12.03598848693042"><ele>554.0</ele><time>2026-03-22T09:29:41.982Z</time></trkpt><trkpt lat="42.54130536816337" lon="12.036010541488293"><ele>554.0</ele><time>2026-03-22T09:29:42.982Z</time></trkpt><trkpt lat="42.54142946178211" lon="12.036041740486667"><ele>551.0</ele><time>2026-03-22T09:29:43.982Z</time></trkpt><trkpt lat="42.54154939932664" lon="12.036082421148684"><ele>548.0</ele><time>2026-03-22T09:29:44.982Z</time></trkpt><trkpt lat="42.541666841482915" lon="12.03613002964384"><ele>545.0</ele><time>2026-03-22T09:29:45.982Z</time></trkpt><trkpt lat="42.54178545826863" lon="12.03617704666313"><ele>542.0</ele><time>2026-03-22T09:29:46.981Z</time></trkpt><trkpt lat="42.54189948387249" lon="12.036226707698745"><ele>542.0</ele><time>2026-03-22T09:29:47.981Z</time></trkpt><trkpt lat="42.5420086803755" lon="12.036289876637142"><ele>542.0</ele><time>2026-03-22T09:29:48.981Z</time></trkpt><trkpt lat="42.542130801949035" lon="12.036362387022693"><ele>542.0</ele><time>2026-03-22T09:29:49.981Z</time></trkpt><trkpt lat="42.54224305683497" lon="12.036439638907968"><ele>542.0</ele><time>2026-03-22T09:29:50.981Z</time></trkpt><trkpt lat="42.54235810203922" lon="12.036523522094926"><ele>540.75</ele><time>2026-03-22T09:29:51.981Z</time></trkpt><trkpt lat="42.542495197125334" lon="12.036608254785696"><ele>539.5</ele><time>2026-03-22T09:29:52.981Z</time></trkpt><trkpt lat="42.54261190053064" lon="12.036702090853504"><ele>538.25</ele><time>2026-03-22T09:29:53.981Z</time></trkpt><trkpt lat="42.54271695214034" lon="12.036804921127953"><ele>537.0</ele><time>2026-03-22T09:29:54.981Z</time></trkpt><trkpt lat="42.54280406532876" lon="12.036934875105446"><ele>537.0</ele><time>2026-03-22T09:29:55.981Z</time></trkpt><trkpt lat="42.54287786564086" lon="12.037086420426913"><ele>537.0</ele><time>2026-03-22T09:29:56.981Z</time></trkpt><trkpt lat="42.542931140915286" lon="12.037249635285397"><ele>537.0</ele><time>2026-03-22T09:29:57.981Z</time></trkpt><trkpt lat="42.54298619998081" lon="12.037418092681769"><ele>537.0</ele><time>2026-03-22T09:29:58.981Z</time></trkpt><trkpt lat="42.543044959425316" lon="12.037570501285977"><ele>536.25</ele><time>2026-03-22T09:29:59.981Z</time></trkpt><trkpt lat="42.54311800942649" lon="12.037713117770918"><ele>535.5</ele><time>2026-03-22T09:30:00.981Z</time></trkpt><trkpt lat="42.54320532140023" lon="12.037843998446238"><ele>534.75</ele><time>2026-03-22T09:30:01.981Z</time></trkpt><trkpt lat="42.54331115957377" lon="12.03794414492594"><ele>534.0</ele><time>2026-03-22T09:30:02.981Z</time></trkpt><trkpt lat="42.543426109157444" lon="12.038017659610764"><ele>534.0</ele><time>2026-03-22T09:30:03.981Z</time></trkpt><trkpt lat="42.54355468781966" lon="12.038054961507957"><ele>534.0</ele><time>2026-03-22T09:30:04.981Z</time></trkpt><trkpt lat="42.54368307237024" lon="12.03806292037915"><ele>534.0</ele><time>2026-03-22T09:30:05.981Z</time></trkpt><trkpt lat="42.54379957129357" lon="12.038064815802082"><ele>534.0</ele><time>2026-03-22T09:30:06.981Z</time></trkpt><trkpt lat="42.54389815517248" lon="12.038082107474796"><ele>533.8</ele><time>2026-03-22T09:30:07.981Z</time></trkpt><trkpt lat="42.54398300855937" lon="12.038087459903128"><ele>533.5999999999999</ele><time>2026-03-22T09:30:08.981Z</time></trkpt><trkpt lat="42.54404096364628" lon="12.038175947993263"><ele>533.4</ele><time>2026-03-22T09:30:09.981Z</time></trkpt><trkpt lat="42.544147728768294" lon="12.038003207848476"><ele>533.1999999999999</ele><time>2026-03-22T09:30:10.981Z</time></trkpt><trkpt lat="42.54418995707082" lon="12.037913636974173"><ele>533.0</ele><time>2026-03-22T09:30:11.981Z</time></trkpt><trkpt lat="42.54422742102799" lon="12.037809378616096"><ele>533.0</ele><time>2026-03-22T09:30:12.981Z</time></trkpt><trkpt lat="42.544263534536874" lon="12.037683543642302"><ele>533.0</ele><time>2026-03-22T09:30:13.981Z</time></trkpt><trkpt lat="42.54430135073641" lon="12.037538273842348"><ele>533.0</ele><time>2026-03-22T09:30:14.981Z</time></trkpt><trkpt lat="42.54437418368163" lon="12.037389831793725"><ele>533.0</ele><time>2026-03-22T09:30:15.981Z</time></trkpt><trkpt lat="42.54443756246693" lon="12.03722747287703"><ele>533.5</ele><time>2026-03-22T09:30:16.981Z</time></trkpt><trkpt lat="42.544496964872934" lon="12.037062571986885"><ele>534.0</ele><time>2026-03-22T09:30:17.981Z</time></trkpt><trkpt lat="42.54454913530319" lon="12.036894092110522"><ele>534.5</ele><time>2026-03-22T09:30:18.981Z</time></trkpt><trkpt lat="42.54459590944164" lon="12.03672465203929"><ele>535.0</ele><time>2026-03-22T09:30:19.981Z</time></trkpt><trkpt lat="42.54463991309949" lon="12.036568541633732"><ele>536.5</ele><time>2026-03-22T09:30:20.981Z</time></trkpt><trkpt lat="42.54467051537383" lon="12.036432590368907"><ele>538.0</ele><time>2026-03-22T09:30:21.981Z</time></trkpt><trkpt lat="42.544699149112645" lon="12.036315942012157"><ele>539.5</ele><time>2026-03-22T09:30:22.981Z</time></trkpt><trkpt lat="42.544721774418825" lon="12.036216055483662"><ele>541.0</ele><time>2026-03-22T09:30:23.981Z</time></trkpt><trkpt lat="42.544730488919036" lon="12.03611750538078"><ele>542.5</ele><time>2026-03-22T09:30:24.981Z</time></trkpt><trkpt lat="42.54473752022541" lon="12.036016948268344"><ele>544.0</ele><time>2026-03-22T09:30:25.981Z</time></trkpt><trkpt lat="42.54474305674701" lon="12.035896376351891"><ele>544.5</ele><time>2026-03-22T09:30:26.981Z</time></trkpt><trkpt lat="42.54475055418617" lon="12.035757751853875"><ele>545.0</ele><time>2026-03-22T09:30:27.981Z</time></trkpt><trkpt lat="42.54475613933402" lon="12.035626708478848"><ele>545.5</ele><time>2026-03-22T09:30:28.981Z</time></trkpt><trkpt lat="42.544759589046166" lon="12.035520558082828"><ele>546.0</ele><time>2026-03-22T09:30:29.981Z</time></trkpt><trkpt lat="42.54477410362367" lon="12.035413046346983"><ele>546.5</ele><time>2026-03-22T09:30:30.981Z</time></trkpt><trkpt lat="42.544804705564175" lon="12.035310150786716"><ele>547.0</ele><time>2026-03-22T09:30:31.981Z</time></trkpt><trkpt lat="42.54484834537424" lon="12.03522620487149"><ele>547.0</ele><time>2026-03-22T09:30:32.981Z</time></trkpt><trkpt lat="42.5449098877085" lon="12.035160612013598"><ele>547.0</ele><time>2026-03-22T09:30:33.98Z</time></trkpt><trkpt lat="42.54498767478793" lon="12.035114507504224"><ele>547.0</ele><time>2026-03-22T09:30:34.98Z</time></trkpt><trkpt lat="42.54507965850288" lon="12.035071895076749"><ele>547.0</ele><time>2026-03-22T09:30:35.98Z</time></trkpt><trkpt lat="42.5451763480888" lon="12.035041061179092"><ele>547.0</ele><time>2026-03-22T09:30:36.98Z</time></trkpt><trkpt lat="42.54527751441118" lon="12.035006642583825"><ele>548.8000000000001</ele><time>2026-03-22T09:30:37.98Z</time></trkpt><trkpt lat="42.545376134002616" lon="12.034966662480963"><ele>550.6</ele><time>2026-03-22T09:30:38.98Z</time></trkpt><trkpt lat="42.545480056196844" lon="12.034923049351288"><ele>552.4000000000001</ele><time>2026-03-22T09:30:39.98Z</time></trkpt><trkpt lat="42.54558552448192" lon="12.034875011372986"><ele>554.2</ele><time>2026-03-22T09:30:40.98Z</time></trkpt><trkpt lat="42.545688012366824" lon="12.034828517654848"><ele>556.0</ele><time>2026-03-22T09:30:41.98Z</time></trkpt><trkpt lat="42.545779408521106" lon="12.034790255643273"><ele>556.2857142857142</ele><time>2026-03-22T09:30:42.98Z</time></trkpt><trkpt lat="42.545862483001734" lon="12.034753394909096"><ele>556.5714285714286</ele><time>2026-03-22T09:30:43.98Z</time></trkpt><trkpt lat="42.545936125088126" lon="12.034722570580524"><ele>556.8571428571429</ele><time>2026-03-22T09:30:44.98Z</time></trkpt><trkpt lat="42.546005071582584" lon="12.034693497313762"><ele>557.1428571428571</ele><time>2026-03-22T09:30:45.98Z</time></trkpt><trkpt lat="42.54606871702469" lon="12.03465771360312"><ele>557.4285714285714</ele><time>2026-03-22T09:30:46.98Z</time></trkpt><trkpt lat="42.54613316065418" lon="12.034618084835374"><ele>557.7142857142857</ele><time>2026-03-22T09:30:47.98Z</time></trkpt><trkpt lat="42.54620267997653" lon="12.03460165871713"><ele>558.0</ele><time>2026-03-22T09:30:48.98Z</time></trkpt><trkpt lat="42.54627753391922" lon="12.034566471475697"><ele>557.1999999999999</ele><time>2026-03-22T09:30:49.98Z</time></trkpt><trkpt lat="42.54634886052137" lon="12.034532363456254"><ele>556.4</ele><time>2026-03-22T09:30:50.98Z</time></trkpt><trkpt lat="42.54643820089201" lon="12.034489526543963"><ele>555.5999999999999</ele><time>2026-03-22T09:30:51.98Z</time></trkpt><trkpt lat="42.54652908054098" lon="12.034446178026203"><ele>554.8</ele><time>2026-03-22T09:30:52.98Z</time></trkpt><trkpt lat="42.546632354377614" lon="12.034391775018216"><ele>554.0</ele><time>2026-03-22T09:30:53.98Z</time></trkpt><trkpt lat="42.54674075503736" lon="12.034330758870208"><ele>554.0</ele><time>2026-03-22T09:30:54.98Z</time></trkpt><trkpt lat="42.5468528842218" lon="12.034262925360302"><ele>554.0</ele><time>2026-03-22T09:30:55.98Z</time></trkpt><trkpt lat="42.54696271431507" lon="12.0341907228041"><ele>554.0</ele><time>2026-03-22T09:30:56.98Z</time></trkpt><trkpt lat="42.54706667337109" lon="12.034115746789732"><ele>554.0</ele><time>2026-03-22T09:30:57.98Z</time></trkpt><trkpt lat="42.547170804632486" lon="12.034039749076502"><ele>554.75</ele><time>2026-03-22T09:30:58.98Z</time></trkpt><trkpt lat="42.54727251203267" lon="12.033964721972977"><ele>555.5</ele><time>2026-03-22T09:30:59.98Z</time></trkpt><trkpt lat="42.5473728396105" lon="12.033888588358485"><ele>556.25</ele><time>2026-03-22T09:31:00.98Z</time></trkpt><trkpt lat="42.54746878922067" lon="12.033809371814966"><ele>557.0</ele><time>2026-03-22T09:31:01.98Z</time></trkpt><trkpt lat="42.54756402109823" lon="12.033740097853899"><ele>557.0</ele><time>2026-03-22T09:31:02.98Z</time></trkpt><trkpt lat="42.547655405507314" lon="12.033665261200278"><ele>557.0</ele><time>2026-03-22T09:31:03.98Z</time></trkpt><trkpt lat="42.547745201580184" lon="12.03359460407793"><ele>557.0</ele><time>2026-03-22T09:31:04.98Z</time></trkpt><trkpt lat="42.547830471769096" lon="12.033518831956934"><ele>557.0</ele><time>2026-03-22T09:31:05.98Z</time></trkpt><trkpt lat="42.54791712473309" lon="12.033441816513438"><ele>557.0</ele><time>2026-03-22T09:31:06.98Z</time></trkpt><trkpt lat="42.547999566915216" lon="12.033350115599351"><ele>556.8000000000001</ele><time>2026-03-22T09:31:07.98Z</time></trkpt><trkpt lat="42.548076628540834" lon="12.03325680618085"><ele>556.6</ele><time>2026-03-22T09:31:08.98Z</time></trkpt><trkpt lat="42.548152505303946" lon="12.033150428576832"><ele>556.4000000000001</ele><time>2026-03-22T09:31:09.98Z</time></trkpt><trkpt lat="42.54822881376302" lon="12.03303389624155"><ele>556.2</ele><time>2026-03-22T09:31:10.98Z</time></trkpt><trkpt lat="42.54830507527344" lon="12.03291983820095"><ele>556.0</ele><time>2026-03-22T09:31:11.98Z</time></trkpt><trkpt lat="42.54838591968597" lon="12.032800942126446"><ele>556.0</ele><time>2026-03-22T09:31:12.98Z</time></trkpt><trkpt lat="42.54846173774952" lon="12.032673147208044"><ele>556.0</ele><time>2026-03-22T09:31:13.98Z</time></trkpt><trkpt lat="42.54854134927776" lon="12.032544135231785"><ele>556.0</ele><time>2026-03-22T09:31:14.98Z</time></trkpt><trkpt lat="42.54861611492278" lon="12.032405559374888"><ele>556.0</ele><time>2026-03-22T09:31:15.98Z</time></trkpt><trkpt lat="42.54868111849125" lon="12.032261124709732"><ele>554.25</ele><time>2026-03-22T09:31:16.98Z</time></trkpt><trkpt lat="42.54874119649834" lon="12.032112992465077"><ele>552.5</ele><time>2026-03-22T09:31:17.98Z</time></trkpt><trkpt lat="42.548798447234816" lon="12.031959285283236"><ele>550.75</ele><time>2026-03-22T09:31:18.98Z</time></trkpt><trkpt lat="42.548852912940866" lon="12.031808706667974"><ele>549.0</ele><time>2026-03-22T09:31:19.98Z</time></trkpt><trkpt lat="42.54890672601467" lon="12.031656559072212"><ele>546.0</ele><time>2026-03-22T09:31:20.98Z</time></trkpt><trkpt lat="42.54895143185159" lon="12.031500571698075"><ele>543.0</ele><time>2026-03-22T09:31:21.979Z</time></trkpt><trkpt lat="42.548984429124005" lon="12.031340796132215"><ele>540.0</ele><time>2026-03-22T09:31:22.979Z</time></trkpt><trkpt lat="42.54900550357805" lon="12.03117725497607"><ele>537.0</ele><time>2026-03-22T09:31:23.979Z</time></trkpt><trkpt lat="42.54901887737605" lon="12.031011384104216"><ele>537.0</ele><time>2026-03-22T09:31:24.979Z</time></trkpt><trkpt lat="42.549015358231294" lon="12.0308454832467"><ele>537.0</ele><time>2026-03-22T09:31:25.979Z</time></trkpt><trkpt lat="42.54900284829603" lon="12.030688231400475"><ele>537.0</ele><time>2026-03-22T09:31:26.979Z</time></trkpt><trkpt lat="42.54898433689856" lon="12.030550381532095"><ele>537.0</ele><time>2026-03-22T09:31:27.979Z</time></trkpt><trkpt lat="42.54897506616715" lon="12.030447939854103"><ele>537.0</ele><time>2026-03-22T09:31:28.979Z</time></trkpt><trkpt lat="42.548966500313384" lon="12.03035013348906"><ele>536.3333333333334</ele><time>2026-03-22T09:31:29.979Z</time></trkpt><trkpt lat="42.54895714188167" lon="12.030259466973853"><ele>535.6666666666666</ele><time>2026-03-22T09:31:30.979Z</time></trkpt><trkpt lat="42.548952116523765" lon="12.03017254779805"><ele>535.0</ele><time>2026-03-22T09:31:31.979Z</time></trkpt><trkpt lat="42.54895287281742" lon="12.030021107692363"><ele>534.3333333333333</ele><time>2026-03-22T09:31:33.979Z</time></trkpt><trkpt lat="42.548968322736755" lon="12.029880747560274"><ele>533.6666666666666</ele><time>2026-03-22T09:31:35.979Z</time></trkpt><trkpt lat="42.548977679649255" lon="12.029785136188654"><ele>533.0</ele><time>2026-03-22T09:31:36.979Z</time></trkpt><trkpt lat="42.5490637043759" lon="12.029724108308843"><ele>532.6666666666666</ele><time>2026-03-22T09:31:37.979Z</time></trkpt><trkpt lat="42.54912553148705" lon="12.029654817243117"><ele>532.3333333333333</ele><time>2026-03-22T09:31:38.979Z</time></trkpt><trkpt lat="42.54919610096471" lon="12.029582917612805"><ele>532.0</ele><time>2026-03-22T09:31:39.979Z</time></trkpt><trkpt lat="42.54927386856058" lon="12.029521571764587"><ele>531.6666666666666</ele><time>2026-03-22T09:31:40.979Z</time></trkpt><trkpt lat="42.54935301513647" lon="12.029458030531107"><ele>531.3333333333334</ele><time>2026-03-22T09:31:41.979Z</time></trkpt><trkpt lat="42.5494269046653" lon="12.029390631779073"><ele>531.0</ele><time>2026-03-22T09:31:42.979Z</time></trkpt><trkpt lat="42.549510750225096" lon="12.029337642007967"><ele>531.0</ele><time>2026-03-22T09:31:43.979Z</time></trkpt><trkpt lat="42.54958578252391" lon="12.02926801267885"><ele>531.0</ele><time>2026-03-22T09:31:44.979Z</time></trkpt><trkpt lat="42.54966795591075" lon="12.029191519893798"><ele>531.0</ele><time>2026-03-22T09:31:45.979Z</time></trkpt><trkpt lat="42.54976005880588" lon="12.029113051033482"><ele>531.0</ele><time>2026-03-22T09:31:46.979Z</time></trkpt><trkpt lat="42.54985995885665" lon="12.02902598995185"><ele>531.0</ele><time>2026-03-22T09:31:47.979Z</time></trkpt><trkpt lat="42.549964384148076" lon="12.028938586164388"><ele>531.0</ele><time>2026-03-22T09:31:48.979Z</time></trkpt><trkpt lat="42.55007982014011" lon="12.02885133398527"><ele>531.0</ele><time>2026-03-22T09:31:49.979Z</time></trkpt><trkpt lat="42.55019745947459" lon="12.028764091836273"><ele>531.0</ele><time>2026-03-22T09:31:50.979Z</time></trkpt><trkpt lat="42.55031793693977" lon="12.02868382188356"><ele>531.0</ele><time>2026-03-22T09:31:51.979Z</time></trkpt><trkpt lat="42.55043190260048" lon="12.028604969969312"><ele>531.0</ele><time>2026-03-22T09:31:52.979Z</time></trkpt><trkpt lat="42.55053806026941" lon="12.028522003255992"><ele>531.0</ele><time>2026-03-22T09:31:53.979Z</time></trkpt><trkpt lat="42.550629182435735" lon="12.028427850892614"><ele>531.0</ele><time>2026-03-22T09:31:54.979Z</time></trkpt><trkpt lat="42.550699382114566" lon="12.028314086233376"><ele>531.0</ele><time>2026-03-22T09:31:55.979Z</time></trkpt><trkpt lat="42.550740356693105" lon="12.028187519238005"><ele>531.0</ele><time>2026-03-22T09:31:56.979Z</time></trkpt><trkpt lat="42.55074595566576" lon="12.028048517915883"><ele>531.6</ele><time>2026-03-22T09:31:57.979Z</time></trkpt><trkpt lat="42.550717853649765" lon="12.027910977403279"><ele>532.2</ele><time>2026-03-22T09:31:58.979Z</time></trkpt><trkpt lat="42.550666013131845" lon="12.027786529375526"><ele>532.8</ele><time>2026-03-22T09:31:59.979Z</time></trkpt><trkpt lat="42.550603023616915" lon="12.027659042789995"><ele>533.4</ele><time>2026-03-22T09:32:00.979Z</time></trkpt><trkpt lat="42.55054089522113" lon="12.027520126643562"><ele>534.0</ele><time>2026-03-22T09:32:01.979Z</time></trkpt><trkpt lat="42.55048151178011" lon="12.027368981811653"><ele>534.5</ele><time>2026-03-22T09:32:02.979Z</time></trkpt><trkpt lat="42.55042268870593" lon="12.027205168862652"><ele>535.0</ele><time>2026-03-22T09:32:03.979Z</time></trkpt><trkpt lat="42.55038700432248" lon="12.027027142157559"><ele>535.5</ele><time>2026-03-22T09:32:04.979Z</time></trkpt><trkpt lat="42.55037602633261" lon="12.026834199422764"><ele>536.0</ele><time>2026-03-22T09:32:05.979Z</time></trkpt><trkpt lat="42.55037751823213" lon="12.026632739847363"><ele>537.0</ele><time>2026-03-22T09:32:06.979Z</time></trkpt><trkpt lat="42.55037787962064" lon="12.026430263920236"><ele>538.0</ele><time>2026-03-22T09:32:07.979Z</time></trkpt><trkpt lat="42.55038082742318" lon="12.026223241133536"><ele>539.0</ele><time>2026-03-22T09:32:08.979Z</time></trkpt><trkpt lat="42.55038841575045" lon="12.026017366825092"><ele>539.0</ele><time>2026-03-22T09:32:09.978Z</time></trkpt><trkpt lat="42.5503982476282" lon="12.025812089405502"><ele>539.0</ele><time>2026-03-22T09:32:10.978Z</time></trkpt><trkpt lat="42.550405650650426" lon="12.025611592373066"><ele>539.0</ele><time>2026-03-22T09:32:11.978Z</time></trkpt><trkpt lat="42.55042595709712" lon="12.025419222956943"><ele>539.0</ele><time>2026-03-22T09:32:12.978Z</time></trkpt><trkpt lat="42.550455225870905" lon="12.025234428614871"><ele>537.75</ele><time>2026-03-22T09:32:13.978Z</time></trkpt><trkpt lat="42.55051422409918" lon="12.02506865860837"><ele>536.5</ele><time>2026-03-22T09:32:14.978Z</time></trkpt><trkpt lat="42.55060374572784" lon="12.024939741652053"><ele>535.25</ele><time>2026-03-22T09:32:15.978Z</time></trkpt><trkpt lat="42.55071761081052" lon="12.02484223775581"><ele>534.0</ele><time>2026-03-22T09:32:16.978Z</time></trkpt><trkpt lat="42.55084166353573" lon="12.024750722138736"><ele>533.3333333333334</ele><time>2026-03-22T09:32:17.978Z</time></trkpt><trkpt lat="42.550971726913936" lon="12.024643423169689"><ele>532.6666666666667</ele><time>2026-03-22T09:32:18.978Z</time></trkpt><trkpt lat="42.55109952299563" lon="12.024526679811819"><ele>532.0</ele><time>2026-03-22T09:32:19.978Z</time></trkpt><trkpt lat="42.55122277913458" lon="12.02440013112392"><ele>532.0</ele><time>2026-03-22T09:32:20.978Z</time></trkpt><trkpt lat="42.55133245235689" lon="12.024248843529385"><ele>532.0</ele><time>2026-03-22T09:32:21.978Z</time></trkpt><trkpt lat="42.55143775042816" lon="12.02408748109347"><ele>532.0</ele><time>2026-03-22T09:32:22.978Z</time></trkpt><trkpt lat="42.55153334164656" lon="12.023910722042991"><ele>531.3333333333334</ele><time>2026-03-22T09:32:23.978Z</time></trkpt><trkpt lat="42.55162678588236" lon="12.023734638028055"><ele>530.6666666666666</ele><time>2026-03-22T09:32:24.978Z</time></trkpt><trkpt lat="42.55172387567297" lon="12.0235561053494"><ele>530.0</ele><time>2026-03-22T09:32:25.978Z</time></trkpt><trkpt lat="42.55181895447876" lon="12.023377749946931"><ele>529.0</ele><time>2026-03-22T09:32:26.978Z</time></trkpt><trkpt lat="42.55191061604981" lon="12.023197605762098"><ele>528.0</ele><time>2026-03-22T09:32:27.978Z</time></trkpt><trkpt lat="42.55200091407978" lon="12.023017016507724"><ele>527.0</ele><time>2026-03-22T09:32:28.978Z</time></trkpt><trkpt lat="42.55208430559811" lon="12.022833646496718"><ele>531.6666666666666</ele><time>2026-03-22T09:32:29.978Z</time></trkpt><trkpt lat="42.552150076592746" lon="12.022636072559717"><ele>536.3333333333334</ele><time>2026-03-22T09:32:30.978Z</time></trkpt><trkpt lat="42.55219009794021" lon="12.022428214098104"><ele>541.0</ele><time>2026-03-22T09:32:31.978Z</time></trkpt><trkpt lat="42.55220929677302" lon="12.022213005826732"><ele>541.0</ele><time>2026-03-22T09:32:32.978Z</time></trkpt><trkpt lat="42.55220891604129" lon="12.021995196991213"><ele>541.0</ele><time>2026-03-22T09:32:33.978Z</time></trkpt><trkpt lat="42.55220221250927" lon="12.021769536027147"><ele>541.0</ele><time>2026-03-22T09:32:34.978Z</time></trkpt><trkpt lat="42.55220462409485" lon="12.021551913742606"><ele>542.6666666666667</ele><time>2026-03-22T09:32:35.978Z</time></trkpt><trkpt lat="42.55220217355871" lon="12.021336068948973"><ele>544.3333333333334</ele><time>2026-03-22T09:32:36.978Z</time></trkpt><trkpt lat="42.5521872536117" lon="12.021120224738457"><ele>546.0</ele><time>2026-03-22T09:32:37.978Z</time></trkpt><trkpt lat="42.55215368264927" lon="12.020908850705203"><ele>545.3333333333334</ele><time>2026-03-22T09:32:38.978Z</time></trkpt><trkpt lat="42.552096756362005" lon="12.020705030212115"><ele>544.6666666666667</ele><time>2026-03-22T09:32:39.978Z</time></trkpt><trkpt lat="42.55203320059957" lon="12.020509025385332"><ele>544.0</ele><time>2026-03-22T09:32:40.978Z</time></trkpt><trkpt lat="42.55197891790547" lon="12.020321706491794"><ele>536.75</ele><time>2026-03-22T09:32:41.978Z</time></trkpt><trkpt lat="42.55194678235106" lon="12.02013550794285"><ele>529.5</ele><time>2026-03-22T09:32:42.978Z</time></trkpt><trkpt lat="42.551936992294074" lon="12.019952903750408"><ele>522.25</ele><time>2026-03-22T09:32:43.978Z</time></trkpt><trkpt lat="42.55195137420452" lon="12.019771677493212"><ele>515.0</ele><time>2026-03-22T09:32:44.978Z</time></trkpt><trkpt lat="42.55200162234558" lon="12.019614632938948"><ele>519.25</ele><time>2026-03-22T09:32:45.978Z</time></trkpt><trkpt lat="42.55208622861269" lon="12.019494767317397"><ele>523.5</ele><time>2026-03-22T09:32:46.978Z</time></trkpt><trkpt lat="42.55219366922693" lon="12.019404900705139"><ele>527.75</ele><time>2026-03-22T09:32:47.978Z</time></trkpt><trkpt lat="42.55231120751626" lon="12.019321694339935"><ele>532.0</ele><time>2026-03-22T09:32:48.978Z</time></trkpt><trkpt lat="42.55242859235769" lon="12.019217587074618"><ele>529.75</ele><time>2026-03-22T09:32:49.978Z</time></trkpt><trkpt lat="42.55252944059172" lon="12.019075849321569"><ele>527.5</ele><time>2026-03-22T09:32:50.978Z</time></trkpt><trkpt lat="42.55261342170586" lon="12.018909841568055"><ele>525.25</ele><time>2026-03-22T09:32:51.978Z</time></trkpt><trkpt lat="42.552668395188284" lon="12.018715634637001"><ele>523.0</ele><time>2026-03-22T09:32:52.978Z</time></trkpt><trkpt lat="42.552694539088115" lon="12.01850161787473"><ele>523.6666666666667</ele><time>2026-03-22T09:32:53.978Z</time></trkpt><trkpt lat="42.55268696004801" lon="12.018286105290938"><ele>524.3333333333334</ele><time>2026-03-22T09:32:54.978Z</time></trkpt><trkpt lat="42.55264744315028" lon="12.018066893942617"><ele>525.0</ele><time>2026-03-22T09:32:55.978Z</time></trkpt><trkpt lat="42.55259312700678" lon="12.017847465591352"><ele>525.0</ele><time>2026-03-22T09:32:56.977Z</time></trkpt><trkpt lat="42.55254511522075" lon="12.017634612309804"><ele>525.0</ele><time>2026-03-22T09:32:57.977Z</time></trkpt><trkpt lat="42.552493687222494" lon="12.017447532093518"><ele>525.0</ele><time>2026-03-22T09:32:58.977Z</time></trkpt><trkpt lat="42.55244892695548" lon="12.017254573497995"><ele>525.0</ele><time>2026-03-22T09:32:59.977Z</time></trkpt><trkpt lat="42.552413118615235" lon="12.017070786457998"><ele>525.0</ele><time>2026-03-22T09:33:00.977Z</time></trkpt><trkpt lat="42.55241641061442" lon="12.016895603905695"><ele>525.0</ele><time>2026-03-22T09:33:01.977Z</time></trkpt><trkpt lat="42.552457411543905" lon="12.016727117697165"><ele>525.0</ele><time>2026-03-22T09:33:02.977Z</time></trkpt><trkpt lat="42.55253214087086" lon="12.016578698493559"><ele>521.3333333333334</ele><time>2026-03-22T09:33:03.977Z</time></trkpt><trkpt lat="42.552622907606505" lon="12.016426060329145"><ele>517.6666666666667</ele><time>2026-03-22T09:33:04.977Z</time></trkpt><trkpt lat="42.552706584702236" lon="12.016258908850396"><ele>514.0</ele><time>2026-03-22T09:33:05.977Z</time></trkpt><trkpt lat="42.55277100612327" lon="12.016065121397125"><ele>514.0</ele><time>2026-03-22T09:33:06.977Z</time></trkpt><trkpt lat="42.55282115280043" lon="12.015865025738819"><ele>514.0</ele><time>2026-03-22T09:33:07.977Z</time></trkpt><trkpt lat="42.552865516162285" lon="12.01565084003131"><ele>514.0</ele><time>2026-03-22T09:33:08.977Z</time></trkpt><trkpt lat="42.552909926395465" lon="12.015451733553627"><ele>520.5</ele><time>2026-03-22T09:33:09.977Z</time></trkpt><trkpt lat="42.55295909267002" lon="12.015259033494"><ele>527.0</ele><time>2026-03-22T09:33:10.977Z</time></trkpt><trkpt lat="42.553003797500786" lon="12.015070398930433"><ele>533.5</ele><time>2026-03-22T09:33:11.977Z</time></trkpt><trkpt lat="42.55303907497424" lon="12.01488852531044"><ele>540.0</ele><time>2026-03-22T09:33:12.977Z</time></trkpt><trkpt lat="42.55306242081292" lon="12.01469746463245"><ele>540.25</ele><time>2026-03-22T09:33:13.977Z</time></trkpt><trkpt lat="42.55305860593811" lon="12.014506140221112"><ele>540.5</ele><time>2026-03-22T09:33:14.977Z</time></trkpt><trkpt lat="42.55302768322587" lon="12.014322442350023"><ele>540.75</ele><time>2026-03-22T09:33:15.977Z</time></trkpt><trkpt lat="42.552981026667936" lon="12.01415472430089"><ele>541.0</ele><time>2026-03-22T09:33:16.977Z</time></trkpt><trkpt lat="42.55293103033762" lon="12.013994078508196"><ele>539.5</ele><time>2026-03-22T09:33:17.977Z</time></trkpt><trkpt lat="42.55288690142768" lon="12.01383109474827"><ele>538.0</ele><time>2026-03-22T09:33:18.977Z</time></trkpt><trkpt lat="42.55285289241391" lon="12.013659118257197"><ele>536.5</ele><time>2026-03-22T09:33:19.977Z</time></trkpt><trkpt lat="42.5528392420524" lon="12.013479949564001"><ele>535.0</ele><time>2026-03-22T09:33:20.977Z</time></trkpt><trkpt lat="42.552851170974684" lon="12.013300842003895"><ele>533.0</ele><time>2026-03-22T09:33:21.977Z</time></trkpt><trkpt lat="42.55289669482358" lon="12.013127559915901"><ele>531.0</ele><time>2026-03-22T09:33:22.977Z</time></trkpt><trkpt lat="42.552964854056235" lon="12.012961225481074"><ele>529.0</ele><time>2026-03-22T09:33:23.977Z</time></trkpt><trkpt lat="42.55303791501526" lon="12.012791522333199"><ele>527.0</ele><time>2026-03-22T09:33:24.977Z</time></trkpt><trkpt lat="42.55310582738625" lon="12.012616829039793"><ele>526.0</ele><time>2026-03-22T09:33:25.977Z</time></trkpt><trkpt lat="42.55316689594291" lon="12.01243764505008"><ele>525.0</ele><time>2026-03-22T09:33:26.977Z</time></trkpt><trkpt lat="42.5532257926986" lon="12.012252686283755"><ele>524.0</ele><time>2026-03-22T09:33:27.977Z</time></trkpt><trkpt lat="42.55327101231513" lon="12.01205629963695"><ele>523.0</ele><time>2026-03-22T09:33:28.977Z</time></trkpt><trkpt lat="42.553305580905864" lon="12.011861030006557"><ele>523.0</ele><time>2026-03-22T09:33:29.977Z</time></trkpt><trkpt lat="42.553342922539244" lon="12.01166976699338"><ele>523.0</ele><time>2026-03-22T09:33:30.977Z</time></trkpt><trkpt lat="42.5533823477298" lon="12.011477434676467"><ele>523.0</ele><time>2026-03-22T09:33:31.977Z</time></trkpt><trkpt lat="42.55342737279241" lon="12.011288403011303"><ele>523.0</ele><time>2026-03-22T09:33:32.977Z</time></trkpt><trkpt lat="42.553489370669396" lon="12.011111051737311"><ele>522.0</ele><time>2026-03-22T09:33:33.977Z</time></trkpt><trkpt lat="42.55356680313901" lon="12.010953517676029"><ele>521.0</ele><time>2026-03-22T09:33:34.977Z</time></trkpt><trkpt lat="42.553661599221776" lon="12.010810229858166"><ele>520.0</ele><time>2026-03-22T09:33:35.977Z</time></trkpt><trkpt lat="42.55376456372306" lon="12.010678508992882"><ele>519.0</ele><time>2026-03-22T09:33:36.977Z</time></trkpt><trkpt lat="42.55386409848302" lon="12.010539332221654"><ele>519.0</ele><time>2026-03-22T09:33:37.977Z</time></trkpt><trkpt lat="42.553955875796476" lon="12.010380973287615"><ele>519.0</ele><time>2026-03-22T09:33:38.977Z</time></trkpt><trkpt lat="42.55403273646251" lon="12.01021719242653"><ele>519.0</ele><time>2026-03-22T09:33:39.977Z</time></trkpt><trkpt lat="42.55408826341703" lon="12.010038075685275"><ele>519.0</ele><time>2026-03-22T09:33:40.977Z</time></trkpt><trkpt lat="42.55413217069755" lon="12.009850538275746"><ele>518.25</ele><time>2026-03-22T09:33:41.977Z</time></trkpt><trkpt lat="42.554160739089276" lon="12.009665159305616"><ele>517.5</ele><time>2026-03-22T09:33:42.977Z</time></trkpt><trkpt lat="42.554195462236414" lon="12.009477626759821"><ele>516.75</ele><time>2026-03-22T09:33:43.977Z</time></trkpt><trkpt lat="42.55423596498791" lon="12.009286319752565"><ele>516.0</ele><time>2026-03-22T09:33:44.976Z</time></trkpt><trkpt lat="42.55426564094888" lon="12.009084577320346"><ele>516.0</ele><time>2026-03-22T09:33:45.976Z</time></trkpt><trkpt lat="42.554281911685266" lon="12.008879790670745"><ele>516.0</ele><time>2026-03-22T09:33:46.976Z</time></trkpt><trkpt lat="42.554287347679264" lon="12.008673773610786"><ele>516.0</ele><time>2026-03-22T09:33:47.976Z</time></trkpt><trkpt lat="42.554285816599" lon="12.00846641518456"><ele>515.3333333333334</ele><time>2026-03-22T09:33:48.976Z</time></trkpt><trkpt lat="42.55428242933031" lon="12.008257080144022"><ele>514.6666666666667</ele><time>2026-03-22T09:33:49.976Z</time></trkpt><trkpt lat="42.554280713804054" lon="12.008055994318049"><ele>514.0</ele><time>2026-03-22T09:33:50.976Z</time></trkpt><trkpt lat="42.55428296637119" lon="12.007849038450004"><ele>514.0</ele><time>2026-03-22T09:33:51.976Z</time></trkpt><trkpt lat="42.554270379136575" lon="12.007644891939217"><ele>514.0</ele><time>2026-03-22T09:33:52.976Z</time></trkpt><trkpt lat="42.55423421076854" lon="12.007441070317233"><ele>514.0</ele><time>2026-03-22T09:33:53.976Z</time></trkpt><trkpt lat="42.5541811651872" lon="12.007244671906172"><ele>515.3333333333334</ele><time>2026-03-22T09:33:54.976Z</time></trkpt><trkpt lat="42.55411434486001" lon="12.007050568032712"><ele>516.6666666666666</ele><time>2026-03-22T09:33:55.976Z</time></trkpt><trkpt lat="42.55404231632702" lon="12.006859946543091"><ele>518.0</ele><time>2026-03-22T09:33:56.976Z</time></trkpt><trkpt lat="42.55397604558806" lon="12.006671179326894"><ele>518.3333333333333</ele><time>2026-03-22T09:33:57.976Z</time></trkpt><trkpt lat="42.553909758272574" lon="12.006481993037562"><ele>518.6666666666666</ele><time>2026-03-22T09:33:58.976Z</time></trkpt><trkpt lat="42.553839189998634" lon="12.006297203762163"><ele>519.0</ele><time>2026-03-22T09:33:59.976Z</time></trkpt><trkpt lat="42.553765809911326" lon="12.006110737076416"><ele>514.0</ele><time>2026-03-22T09:34:00.976Z</time></trkpt><trkpt lat="42.5536871279722" lon="12.005931057267516"><ele>509.0</ele><time>2026-03-22T09:34:01.976Z</time></trkpt><trkpt lat="42.5536276403052" lon="12.005763628495929"><ele>504.0</ele><time>2026-03-22T09:34:02.976Z</time></trkpt><trkpt lat="42.55359087761495" lon="12.00561646765628"><ele>499.0</ele><time>2026-03-22T09:34:03.976Z</time></trkpt><trkpt lat="42.553589858847445" lon="12.005468459082104"><ele>498.79999999999995</ele><time>2026-03-22T09:34:04.976Z</time></trkpt><trkpt lat="42.55363499591285" lon="12.00533759311362"><ele>498.59999999999997</ele><time>2026-03-22T09:34:05.976Z</time></trkpt><trkpt lat="42.55371451446716" lon="12.00524532498902"><ele>498.4</ele><time>2026-03-22T09:34:06.976Z</time></trkpt><trkpt lat="42.55381168521694" lon="12.00519242651864"><ele>498.2</ele><time>2026-03-22T09:34:07.976Z</time></trkpt><trkpt lat="42.55391900141207" lon="12.005202152908199"><ele>498.0</ele><time>2026-03-22T09:34:08.976Z</time></trkpt><trkpt lat="42.5540385956139" lon="12.005262673725062"><ele>499.75</ele><time>2026-03-22T09:34:09.976Z</time></trkpt><trkpt lat="42.55416152845459" lon="12.005350325193971"><ele>501.5</ele><time>2026-03-22T09:34:10.976Z</time></trkpt><trkpt lat="42.55428623773458" lon="12.005433522679358"><ele>503.25</ele><time>2026-03-22T09:34:11.976Z</time></trkpt><trkpt lat="42.5544108964991" lon="12.005519335669522"><ele>505.0</ele><time>2026-03-22T09:34:12.976Z</time></trkpt><trkpt lat="42.55453390734702" lon="12.005600179297389"><ele>501.0</ele><time>2026-03-22T09:34:13.976Z</time></trkpt><trkpt lat="42.55466027856713" lon="12.005659844134083"><ele>497.0</ele><time>2026-03-22T09:34:14.976Z</time></trkpt><trkpt lat="42.55478703955406" lon="12.005709698616238"><ele>493.0</ele><time>2026-03-22T09:34:15.976Z</time></trkpt><trkpt lat="42.554919437928014" lon="12.005752147264703"><ele>489.0</ele><time>2026-03-22T09:34:16.976Z</time></trkpt><trkpt lat="42.555059057198584" lon="12.005768418881942"><ele>489.0</ele><time>2026-03-22T09:34:17.976Z</time></trkpt><trkpt lat="42.555207914977245" lon="12.005760797037096"><ele>489.0</ele><time>2026-03-22T09:34:18.976Z</time></trkpt><trkpt lat="42.555362838735256" lon="12.005738516572336"><ele>489.0</ele><time>2026-03-22T09:34:19.976Z</time></trkpt><trkpt lat="42.555525394921354" lon="12.005678989331688"><ele>488.66666666666663</ele><time>2026-03-22T09:34:20.976Z</time></trkpt><trkpt lat="42.55570076203185" lon="12.005585511913946"><ele>488.3333333333333</ele><time>2026-03-22T09:34:21.976Z</time></trkpt><trkpt lat="42.55588054194587" lon="12.005450277235191"><ele>488.0</ele><time>2026-03-22T09:34:22.976Z</time></trkpt><trkpt lat="42.5560678444276" lon="12.005281840723802"><ele>486.3333333333333</ele><time>2026-03-22T09:34:23.976Z</time></trkpt><trkpt lat="42.55625481213896" lon="12.005152070711077"><ele>484.66666666666663</ele><time>2026-03-22T09:34:24.976Z</time></trkpt><trkpt lat="42.556424521006726" lon="12.005014010547956"><ele>483.0</ele><time>2026-03-22T09:34:25.976Z</time></trkpt><trkpt lat="42.55657996161234" lon="12.004895801642899"><ele>483.0</ele><time>2026-03-22T09:34:26.976Z</time></trkpt><trkpt lat="42.55674613132095" lon="12.004808509905187"><ele>483.0</ele><time>2026-03-22T09:34:27.976Z</time></trkpt><trkpt lat="42.55694204241853" lon="12.004784236071279"><ele>483.0</ele><time>2026-03-22T09:34:28.976Z</time></trkpt><trkpt lat="42.557130106595814" lon="12.004803101606178"><ele>481.33333333333337</ele><time>2026-03-22T09:34:29.976Z</time></trkpt><trkpt lat="42.55731531201719" lon="12.00484318573392"><ele>479.6666666666667</ele><time>2026-03-22T09:34:30.976Z</time></trkpt><trkpt lat="42.55750832329771" lon="12.004913293046"><ele>478.0</ele><time>2026-03-22T09:34:31.976Z</time></trkpt><trkpt lat="42.557708722668984" lon="12.005024000556075"><ele>480.0</ele><time>2026-03-22T09:34:32.975Z</time></trkpt><trkpt lat="42.55791799302355" lon="12.005166598233897"><ele>482.0</ele><time>2026-03-22T09:34:33.975Z</time></trkpt><trkpt lat="42.55814179977292" lon="12.005332396188978"><ele>482.0</ele><time>2026-03-22T09:34:34.975Z</time></trkpt><trkpt lat="42.558366450770286" lon="12.005508636104247"><ele>482.0</ele><time>2026-03-22T09:34:35.975Z</time></trkpt><trkpt lat="42.558552284931984" lon="12.005744624882842"><ele>480.0</ele><time>2026-03-22T09:34:36.975Z</time></trkpt><trkpt lat="42.5586731305389" lon="12.006002645349108"><ele>478.0</ele><time>2026-03-22T09:34:37.975Z</time></trkpt><trkpt lat="42.55877053603198" lon="12.006301096305855"><ele>478.0</ele><time>2026-03-22T09:34:38.975Z</time></trkpt><trkpt lat="42.55893445783338" lon="12.006582707948013"><ele>478.0</ele><time>2026-03-22T09:34:39.975Z</time></trkpt><trkpt lat="42.559132740084955" lon="12.0067510006764"><ele>478.0</ele><time>2026-03-22T09:34:40.975Z</time></trkpt><trkpt lat="42.55891771476744" lon="12.006563985939781"><ele>478.0</ele><time>2026-03-22T09:34:41.975Z</time></trkpt><trkpt lat="42.55905229069506" lon="12.006673815587353"><ele>478.0</ele><time>2026-03-22T09:34:42.975Z</time></trkpt><trkpt lat="42.55917803097597" lon="12.006768561793404"><ele>480.0</ele><time>2026-03-22T09:34:43.975Z</time></trkpt><trkpt lat="42.559331793346196" lon="12.006787968595233"><ele>482.0</ele><time>2026-03-22T09:34:44.975Z</time></trkpt><trkpt lat="42.55947735192973" lon="12.006740928760987"><ele>484.0</ele><time>2026-03-22T09:34:45.975Z</time></trkpt><trkpt lat="42.55961268724829" lon="12.006627698307504"><ele>480.0</ele><time>2026-03-22T09:34:46.975Z</time></trkpt><trkpt lat="42.55973917822811" lon="12.006468261252827"><ele>476.0</ele><time>2026-03-22T09:34:47.998Z</time></trkpt><trkpt lat="42.559867307019466" lon="12.00630007906169"><ele>472.0</ele><time>2026-03-22T09:34:48.998Z</time></trkpt><trkpt lat="42.560007966715624" lon="12.006164926359094"><ele>472.0</ele><time>2026-03-22T09:34:49.998Z</time></trkpt><trkpt lat="42.560161347402655" lon="12.00608804606013"><ele>472.0</ele><time>2026-03-22T09:34:50.998Z</time></trkpt><trkpt lat="42.56032081538369" lon="12.006123930328435"><ele>472.0</ele><time>2026-03-22T09:34:51.998Z</time></trkpt><trkpt lat="42.560501397862254" lon="12.00616569350303"><ele>471.33333333333337</ele><time>2026-03-22T09:34:52.998Z</time></trkpt><trkpt lat="42.560700452028385" lon="12.006214921393555"><ele>470.66666666666663</ele><time>2026-03-22T09:34:53.998Z</time></trkpt><trkpt lat="42.56090686993076" lon="12.006266006131215"><ele>470.0</ele><time>2026-03-22T09:34:54.998Z</time></trkpt><trkpt lat="42.561123727069045" lon="12.006319720233813"><ele>468.3333333333333</ele><time>2026-03-22T09:34:55.998Z</time></trkpt><trkpt lat="42.5613408863471" lon="12.006373823976032"><ele>466.66666666666663</ele><time>2026-03-22T09:34:56.998Z</time></trkpt><trkpt lat="42.56155783653942" lon="12.006427960643231"><ele>465.0</ele><time>2026-03-22T09:34:57.998Z</time></trkpt><trkpt lat="42.56178627613973" lon="12.006484963423453"><ele>465.0</ele><time>2026-03-22T09:34:58.998Z</time></trkpt><trkpt lat="42.56201713179685" lon="12.006542263148853"><ele>465.0</ele><time>2026-03-22T09:34:59.998Z</time></trkpt><trkpt lat="42.56225322651069" lon="12.006600942599109"><ele>465.5</ele><time>2026-03-22T09:35:00.998Z</time></trkpt><trkpt lat="42.56249199810961" lon="12.006660289031021"><ele>466.0</ele><time>2026-03-22T09:35:01.998Z</time></trkpt><trkpt lat="42.56272912823286" lon="12.006719225786311"><ele>465.0</ele><time>2026-03-22T09:35:02.998Z</time></trkpt><trkpt lat="42.56297379560025" lon="12.006780891813504"><ele>464.0</ele><time>2026-03-22T09:35:03.998Z</time></trkpt><trkpt lat="42.56321989522902" lon="12.006840328684177"><ele>464.0</ele><time>2026-03-22T09:35:04.998Z</time></trkpt><trkpt lat="42.56347526926116" lon="12.006894685139164"><ele>464.0</ele><time>2026-03-22T09:35:05.998Z</time></trkpt><trkpt lat="42.56371060835277" lon="12.006953066740817"><ele>461.0</ele><time>2026-03-22T09:35:06.998Z</time></trkpt><trkpt lat="42.563947118656" lon="12.007010212703639"><ele>458.0</ele><time>2026-03-22T09:35:07.998Z</time></trkpt><trkpt lat="42.56418120495885" lon="12.007063592859199"><ele>458.0</ele><time>2026-03-22T09:35:08.998Z</time></trkpt><trkpt lat="42.564410120613545" lon="12.00712057303046"><ele>458.0</ele><time>2026-03-22T09:35:09.998Z</time></trkpt><trkpt lat="42.56463456227972" lon="12.007179698341629"><ele>458.0</ele><time>2026-03-22T09:35:10.998Z</time></trkpt><trkpt lat="42.56486238878677" lon="12.00723033323345"><ele>458.0</ele><time>2026-03-22T09:35:11.998Z</time></trkpt><trkpt lat="42.56508137356934" lon="12.007280924769564"><ele>458.0</ele><time>2026-03-22T09:35:12.998Z</time></trkpt><trkpt lat="42.56529903085493" lon="12.007339542676153"><ele>458.0</ele><time>2026-03-22T09:35:13.998Z</time></trkpt><trkpt lat="42.565512389041125" lon="12.007400985350843"><ele>458.0</ele><time>2026-03-22T09:35:14.998Z</time></trkpt><trkpt lat="42.56570588710735" lon="12.007482171646421"><ele>455.0</ele><time>2026-03-22T09:35:15.998Z</time></trkpt><trkpt lat="42.56586902237941" lon="12.00762271143811"><ele>452.0</ele><time>2026-03-22T09:35:16.998Z</time></trkpt><trkpt lat="42.566018427358884" lon="12.007806921425406"><ele>449.0</ele><time>2026-03-22T09:35:17.998Z</time></trkpt><trkpt lat="42.5661590220398" lon="12.008022044588985"><ele>446.66666666666663</ele><time>2026-03-22T09:35:18.998Z</time></trkpt><trkpt lat="42.56628843614318" lon="12.008226177751206"><ele>444.33333333333337</ele><time>2026-03-22T09:35:19.997Z</time></trkpt><trkpt lat="42.56643349138018" lon="12.00844172460104"><ele>442.0</ele><time>2026-03-22T09:35:20.997Z</time></trkpt><trkpt lat="42.56656730237002" lon="12.00866983951689"><ele>442.0</ele><time>2026-03-22T09:35:21.997Z</time></trkpt><trkpt lat="42.56669846026557" lon="12.008881128154496"><ele>442.0</ele><time>2026-03-22T09:35:22.997Z</time></trkpt><trkpt lat="42.56683651998248" lon="12.009078506004087"><ele>442.0</ele><time>2026-03-22T09:35:23.997Z</time></trkpt><trkpt lat="42.56697415274016" lon="12.009270644551917"><ele>440.33333333333337</ele><time>2026-03-22T09:35:24.997Z</time></trkpt><trkpt lat="42.56710603424205" lon="12.009444876625178"><ele>438.66666666666663</ele><time>2026-03-22T09:35:25.997Z</time></trkpt><trkpt lat="42.56723135770487" lon="12.009610444570676"><ele>437.0</ele><time>2026-03-22T09:35:26.997Z</time></trkpt><trkpt lat="42.56734731490695" lon="12.009753005879467"><ele>437.0</ele><time>2026-03-22T09:35:27.997Z</time></trkpt><trkpt lat="42.567692804775" lon="12.009550441878288"><ele>437.0</ele><time>2026-03-22T09:35:28.997Z</time></trkpt><trkpt lat="42.567902363683835" lon="12.00952538140146"><ele>435.5</ele><time>2026-03-22T09:35:29.997Z</time></trkpt><trkpt lat="42.56813083951243" lon="12.00947010472633"><ele>434.0</ele><time>2026-03-22T09:35:30.997Z</time></trkpt><trkpt lat="42.56836825706339" lon="12.009427258388099"><ele>434.0</ele><time>2026-03-22T09:35:31.999Z</time></trkpt><trkpt lat="42.56859792769089" lon="12.009405476127858"><ele>434.0</ele><time>2026-03-22T09:35:33Z</time></trkpt><trkpt lat="42.56882990735666" lon="12.009375510935042"><ele>428.5</ele><time>2026-03-22T09:35:34Z</time></trkpt><trkpt lat="42.569066880503236" lon="12.009333475688502"><ele>423.0</ele><time>2026-03-22T09:35:34.999Z</time></trkpt><trkpt lat="42.56930340919633" lon="12.00929813922877"><ele>422.5</ele><time>2026-03-22T09:35:35.999Z</time></trkpt><trkpt lat="42.56954314955419" lon="12.009267941436525"><ele>422.0</ele><time>2026-03-22T09:35:36.999Z</time></trkpt><trkpt lat="42.56978375191124" lon="12.009241240114013"><ele>422.0</ele><time>2026-03-22T09:35:37.999Z</time></trkpt><trkpt lat="42.57002061566672" lon="12.009215062980315"><ele>422.0</ele><time>2026-03-22T09:35:38.999Z</time></trkpt><trkpt lat="42.57025572345674" lon="12.009200565213787"><ele>422.5</ele><time>2026-03-22T09:35:39.999Z</time></trkpt><trkpt lat="42.570493205892454" lon="12.009212027743905"><ele>423.0</ele><time>2026-03-22T09:35:40.999Z</time></trkpt><trkpt lat="42.57072238528039" lon="12.009263644670519"><ele>423.0</ele><time>2026-03-22T09:35:41.999Z</time></trkpt><trkpt lat="42.57094915191258" lon="12.009330131771783"><ele>423.0</ele><time>2026-03-22T09:35:42.999Z</time></trkpt><trkpt lat="42.57118501930307" lon="12.009392753932357"><ele>423.0</ele><time>2026-03-22T09:35:43.999Z</time></trkpt><trkpt lat="42.57142636873095" lon="12.009443143989934"><ele>423.0</ele><time>2026-03-22T09:35:44.999Z</time></trkpt><trkpt lat="42.57166391241914" lon="12.0095036246357"><ele>423.0</ele><time>2026-03-22T09:35:45.999Z</time></trkpt><trkpt lat="42.571904972274645" lon="12.00956723237182"><ele>423.0</ele><time>2026-03-22T09:35:46.999Z</time></trkpt><trkpt lat="42.572138859137645" lon="12.009621236475084"><ele>423.0</ele><time>2026-03-22T09:35:47.999Z</time></trkpt><trkpt lat="42.57237292594127" lon="12.009670213578275"><ele>423.0</ele><time>2026-03-22T09:35:48.999Z</time></trkpt><trkpt lat="42.572605225738805" lon="12.009724547534988"><ele>423.0</ele><time>2026-03-22T09:35:49.999Z</time></trkpt><trkpt lat="42.572837292732686" lon="12.009780792905792"><ele>423.0</ele><time>2026-03-22T09:35:50.999Z</time></trkpt><trkpt lat="42.573067710408445" lon="12.009834603177069"><ele>424.5</ele><time>2026-03-22T09:35:51.999Z</time></trkpt><trkpt lat="42.57330044103348" lon="12.009882064579061"><ele>426.0</ele><time>2026-03-22T09:35:52.999Z</time></trkpt><trkpt lat="42.57353367463855" lon="12.009919401119477"><ele>427.0</ele><time>2026-03-22T09:35:53.999Z</time></trkpt><trkpt lat="42.57376766253002" lon="12.009942002160175"><ele>428.0</ele><time>2026-03-22T09:35:54.999Z</time></trkpt><trkpt lat="42.57400346505374" lon="12.00996298258025"><ele>428.0</ele><time>2026-03-22T09:35:55.999Z</time></trkpt><trkpt lat="42.57424575021787" lon="12.009984169311103"><ele>428.0</ele><time>2026-03-22T09:35:56.999Z</time></trkpt><trkpt lat="42.574489982002525" lon="12.010011766074722"><ele>426.0</ele><time>2026-03-22T09:35:57.999Z</time></trkpt><trkpt lat="42.57473311843816" lon="12.010032671071443"><ele>424.0</ele><time>2026-03-22T09:35:58.999Z</time></trkpt><trkpt lat="42.57497795863914" lon="12.010055293840074"><ele>424.0</ele><time>2026-03-22T09:35:59.999Z</time></trkpt><trkpt lat="42.57522876644617" lon="12.010075299976945"><ele>424.0</ele><time>2026-03-22T09:36:00.999Z</time></trkpt><trkpt lat="42.57548016506665" lon="12.010100753205112"><ele>423.5</ele><time>2026-03-22T09:36:01.999Z</time></trkpt><trkpt lat="42.57573320621273" lon="12.01012168170792"><ele>423.0</ele><time>2026-03-22T09:36:02.999Z</time></trkpt><trkpt lat="42.575988068925255" lon="12.010141558320873"><ele>422.5</ele><time>2026-03-22T09:36:03.998Z</time></trkpt><trkpt lat="42.5762454749116" lon="12.01016652520153"><ele>422.0</ele><time>2026-03-22T09:36:04.998Z</time></trkpt><trkpt lat="42.57650200159199" lon="12.010193315670168"><ele>422.0</ele><time>2026-03-22T09:36:05.998Z</time></trkpt><trkpt lat="42.57676084570353" lon="12.01021618280609"><ele>422.0</ele><time>2026-03-22T09:36:06.998Z</time></trkpt><trkpt lat="42.57702379655182" lon="12.010238182063745"><ele>423.0</ele><time>2026-03-22T09:36:07.998Z</time></trkpt><trkpt lat="42.577285232849064" lon="12.010263474715066"><ele>424.0</ele><time>2026-03-22T09:36:08.998Z</time></trkpt><trkpt lat="42.57754479426654" lon="12.01028494888771"><ele>424.0</ele><time>2026-03-22T09:36:09.998Z</time></trkpt><trkpt lat="42.57780575549877" lon="12.010310168520915"><ele>424.0</ele><time>2026-03-22T09:36:10.998Z</time></trkpt><trkpt lat="42.57805944119539" lon="12.010337441599226"><ele>424.0</ele><time>2026-03-22T09:36:11.998Z</time></trkpt><trkpt lat="42.578304051483144" lon="12.010361281881856"><ele>424.0</ele><time>2026-03-22T09:36:12.998Z</time></trkpt><trkpt lat="42.57852940864051" lon="12.010375629840954"><ele>421.0</ele><time>2026-03-22T09:36:13.998Z</time></trkpt><trkpt lat="42.57874895499252" lon="12.010399613180441"><ele>418.0</ele><time>2026-03-22T09:36:14.998Z</time></trkpt><trkpt lat="42.57895612166082" lon="12.010427040099623"><ele>415.0</ele><time>2026-03-22T09:36:15.998Z</time></trkpt><trkpt lat="42.57914011792928" lon="12.010446603460727"><ele>415.0</ele><time>2026-03-22T09:36:16.998Z</time></trkpt><trkpt lat="42.5793128908458" lon="12.01044469544341"><ele>415.0</ele><time>2026-03-22T09:36:17.998Z</time></trkpt><trkpt lat="42.57947879023211" lon="12.010401224095574"><ele>415.0</ele><time>2026-03-22T09:36:18.998Z</time></trkpt><trkpt lat="42.579632790604876" lon="12.010286727675094"><ele>414.33333333333337</ele><time>2026-03-22T09:36:19.998Z</time></trkpt><trkpt lat="42.57977295580072" lon="12.010112760142604"><ele>413.66666666666663</ele><time>2026-03-22T09:36:20.998Z</time></trkpt><trkpt lat="42.579905515749495" lon="12.009894513652414"><ele>413.0</ele><time>2026-03-22T09:36:21.998Z</time></trkpt><trkpt lat="42.58003463930401" lon="12.009658521677066"><ele>412.3333333333333</ele><time>2026-03-22T09:36:22.998Z</time></trkpt><trkpt lat="42.58018174350876" lon="12.009442961854925"><ele>411.66666666666663</ele><time>2026-03-22T09:36:23.998Z</time></trkpt><trkpt lat="42.580342191952106" lon="12.009232102419585"><ele>411.0</ele><time>2026-03-22T09:36:24.998Z</time></trkpt><trkpt lat="42.58049063729877" lon="12.009026461939406"><ele>410.0</ele><time>2026-03-22T09:36:25.998Z</time></trkpt><trkpt lat="42.58062532220846" lon="12.00882803114353"><ele>409.0</ele><time>2026-03-22T09:36:26.998Z</time></trkpt><trkpt lat="42.58075221408487" lon="12.00863262186896"><ele>408.0</ele><time>2026-03-22T09:36:27.998Z</time></trkpt><trkpt lat="42.58088796031317" lon="12.00848191119895"><ele>408.0</ele><time>2026-03-22T09:36:28.998Z</time></trkpt><trkpt lat="42.581034600312805" lon="12.008350543510048"><ele>408.0</ele><time>2026-03-22T09:36:29.998Z</time></trkpt><trkpt lat="42.58120214758489" lon="12.008286665434886"><ele>408.0</ele><time>2026-03-22T09:36:30.998Z</time></trkpt><trkpt lat="42.58138784737199" lon="12.008264154399944"><ele>404.66666666666663</ele><time>2026-03-22T09:36:31.998Z</time></trkpt><trkpt lat="42.5815892597215" lon="12.008305433196968"><ele>401.3333333333333</ele><time>2026-03-22T09:36:32.998Z</time></trkpt><trkpt lat="42.58178887334266" lon="12.008295094452667"><ele>398.0</ele><time>2026-03-22T09:36:33.998Z</time></trkpt><trkpt lat="42.5819791741018" lon="12.00822971891083"><ele>399.66666666666663</ele><time>2026-03-22T09:36:34.998Z</time></trkpt><trkpt lat="42.58215328611347" lon="12.008136753245266"><ele>401.33333333333337</ele><time>2026-03-22T09:36:35.998Z</time></trkpt><trkpt lat="42.582310735422496" lon="12.007982043223608"><ele>403.0</ele><time>2026-03-22T09:36:36.998Z</time></trkpt><trkpt lat="42.58245982827326" lon="12.007800083483406"><ele>403.0</ele><time>2026-03-22T09:36:37.998Z</time></trkpt><trkpt lat="42.58261184466141" lon="12.007613905292333"><ele>403.0</ele><time>2026-03-22T09:36:38.998Z</time></trkpt><trkpt lat="42.58277715048242" lon="12.007432838623904"><ele>403.0</ele><time>2026-03-22T09:36:39.998Z</time></trkpt><trkpt lat="42.58294514311423" lon="12.007254703574509"><ele>402.33333333333337</ele><time>2026-03-22T09:36:40.998Z</time></trkpt><trkpt lat="42.58311680020327" lon="12.007069281711008"><ele>401.66666666666663</ele><time>2026-03-22T09:36:41.998Z</time></trkpt><trkpt lat="42.58327858676715" lon="12.006881723910887"><ele>401.0</ele><time>2026-03-22T09:36:42.998Z</time></trkpt><trkpt lat="42.583426048967546" lon="12.006682559999986"><ele>401.0</ele><time>2026-03-22T09:36:43.998Z</time></trkpt><trkpt lat="42.58355481455976" lon="12.006457877718379"><ele>401.0</ele><time>2026-03-22T09:36:44.998Z</time></trkpt><trkpt lat="42.58366984884418" lon="12.006227443950872"><ele>401.0</ele><time>2026-03-22T09:36:45.998Z</time></trkpt><trkpt lat="42.58380017720002" lon="12.006016425807438"><ele>401.0</ele><time>2026-03-22T09:36:46.998Z</time></trkpt><trkpt lat="42.5839682686752" lon="12.005856415866317"><ele>401.0</ele><time>2026-03-22T09:36:47.998Z</time></trkpt><trkpt lat="42.58415869472008" lon="12.00571491701108"><ele>401.0</ele><time>2026-03-22T09:36:48.998Z</time></trkpt><trkpt lat="42.58435392125894" lon="12.005573176806921"><ele>400.3333333333333</ele><time>2026-03-22T09:36:49.998Z</time></trkpt><trkpt lat="42.584543392735775" lon="12.005407812789283"><ele>399.66666666666663</ele><time>2026-03-22T09:36:50.997Z</time></trkpt><trkpt lat="42.584746937180675" lon="12.005282196074504"><ele>399.0</ele><time>2026-03-22T09:36:51.997Z</time></trkpt><trkpt lat="42.58493770576247" lon="12.005140704749918"><ele>399.0</ele><time>2026-03-22T09:36:52.997Z</time></trkpt><trkpt lat="42.58511363509915" lon="12.005004254707107"><ele>399.0</ele><time>2026-03-22T09:36:53.997Z</time></trkpt><trkpt lat="42.58528609633572" lon="12.004897318551476"><ele>399.0</ele><time>2026-03-22T09:36:54.997Z</time></trkpt><trkpt lat="42.58544196285849" lon="12.004779889053571"><ele>399.66666666666663</ele><time>2026-03-22T09:36:55.997Z</time></trkpt><trkpt lat="42.585581280264044" lon="12.004641390536591"><ele>400.3333333333333</ele><time>2026-03-22T09:36:56.997Z</time></trkpt><trkpt lat="42.58568355277979" lon="12.004477578315754"><ele>401.0</ele><time>2026-03-22T09:36:57.997Z</time></trkpt><trkpt lat="42.585748955964526" lon="12.004283913330566"><ele>401.3333333333333</ele><time>2026-03-22T09:36:58.997Z</time></trkpt><trkpt lat="42.58574585718547" lon="12.004076056297391"><ele>401.66666666666663</ele><time>2026-03-22T09:36:59.997Z</time></trkpt><trkpt lat="42.58572090139833" lon="12.003867351188411"><ele>402.0</ele><time>2026-03-22T09:37:00.997Z</time></trkpt><trkpt lat="42.58564793261241" lon="12.003665958821877"><ele>402.0</ele><time>2026-03-22T09:37:01.997Z</time></trkpt><trkpt lat="42.58549414416559" lon="12.003484698416825"><ele>402.0</ele><time>2026-03-22T09:37:02.997Z</time></trkpt><trkpt lat="42.585349406206845" lon="12.003328705704838"><ele>402.0</ele><time>2026-03-22T09:37:03.997Z</time></trkpt><trkpt lat="42.58524165467053" lon="12.003163197453421"><ele>399.0</ele><time>2026-03-22T09:37:04.997Z</time></trkpt><trkpt lat="42.585153601917405" lon="12.002988231185247"><ele>396.0</ele><time>2026-03-22T09:37:05.997Z</time></trkpt><trkpt lat="42.58511143363188" lon="12.002804138978826"><ele>393.0</ele><time>2026-03-22T09:37:06.997Z</time></trkpt><trkpt lat="42.58509914477092" lon="12.002611179175679"><ele>390.0</ele><time>2026-03-22T09:37:07.997Z</time></trkpt><trkpt lat="42.58516695934949" lon="12.00246004017838"><ele>389.0</ele><time>2026-03-22T09:37:08.997Z</time></trkpt><trkpt lat="42.585261903714716" lon="12.002363476252862"><ele>388.0</ele><time>2026-03-22T09:37:09.997Z</time></trkpt><trkpt lat="42.58536466140957" lon="12.00229281760441"><ele>387.0</ele><time>2026-03-22T09:37:10.997Z</time></trkpt><trkpt lat="42.58552873239507" lon="12.002230688870162"><ele>386.0</ele><time>2026-03-22T09:37:11.997Z</time></trkpt><trkpt lat="42.58571065135168" lon="12.002168457627917"><ele>386.0</ele><time>2026-03-22T09:37:12.997Z</time></trkpt><trkpt lat="42.585902706981145" lon="12.002085374170868"><ele>386.0</ele><time>2026-03-22T09:37:13.997Z</time></trkpt><trkpt lat="42.58611830943002" lon="12.00203499433137"><ele>386.0</ele><time>2026-03-22T09:37:14.997Z</time></trkpt><trkpt lat="42.58632461744925" lon="12.00196080560824"><ele>387.0</ele><time>2026-03-22T09:37:15.997Z</time></trkpt><trkpt lat="42.586528094990754" lon="12.00189120802308"><ele>388.0</ele><time>2026-03-22T09:37:16.997Z</time></trkpt><trkpt lat="42.58673528277527" lon="12.001846886869851"><ele>389.0</ele><time>2026-03-22T09:37:17.997Z</time></trkpt><trkpt lat="42.586961778316265" lon="12.001835707373404"><ele>388.0</ele><time>2026-03-22T09:37:18.997Z</time></trkpt><trkpt lat="42.58718418757573" lon="12.001837243430712"><ele>387.0</ele><time>2026-03-22T09:37:19.997Z</time></trkpt><trkpt lat="42.587408053813206" lon="12.001856667148317"><ele>386.0</ele><time>2026-03-22T09:37:20.997Z</time></trkpt><trkpt lat="42.58762932592773" lon="12.00188310721328"><ele>386.0</ele><time>2026-03-22T09:37:21.997Z</time></trkpt><trkpt lat="42.58785103651405" lon="12.001849424232292"><ele>386.0</ele><time>2026-03-22T09:37:22.997Z</time></trkpt><trkpt lat="42.58806563093493" lon="12.001751592598835"><ele>386.0</ele><time>2026-03-22T09:37:23.997Z</time></trkpt><trkpt lat="42.5882772010887" lon="12.001680248549537"><ele>383.3333333333333</ele><time>2026-03-22T09:37:24.997Z</time></trkpt><trkpt lat="42.58849300054514" lon="12.001607885585162"><ele>380.66666666666663</ele><time>2026-03-22T09:37:25.997Z</time></trkpt><trkpt lat="42.588709760773305" lon="12.001527713346658"><ele>378.0</ele><time>2026-03-22T09:37:26.997Z</time></trkpt><trkpt lat="42.588926623141646" lon="12.001456540516013"><ele>378.0</ele><time>2026-03-22T09:37:27.997Z</time></trkpt><trkpt lat="42.58913890233117" lon="12.001375966819063"><ele>378.0</ele><time>2026-03-22T09:37:28.997Z</time></trkpt><trkpt lat="42.58935174567355" lon="12.001280077449426"><ele>378.0</ele><time>2026-03-22T09:37:29.997Z</time></trkpt><trkpt lat="42.5895513897979" lon="12.00115814593555"><ele>378.6666666666667</ele><time>2026-03-22T09:37:30.997Z</time></trkpt><trkpt lat="42.58974155362479" lon="12.001014325737692"><ele>379.33333333333337</ele><time>2026-03-22T09:37:31.997Z</time></trkpt><trkpt lat="42.58993647073847" lon="12.000874402035485"><ele>380.0</ele><time>2026-03-22T09:37:32.997Z</time></trkpt><trkpt lat="42.590138554406316" lon="12.00075995199472"><ele>377.6666666666667</ele><time>2026-03-22T09:37:33.997Z</time></trkpt><trkpt lat="42.590331582697004" lon="12.000685932456008"><ele>375.3333333333333</ele><time>2026-03-22T09:37:34.997Z</time></trkpt><trkpt lat="42.59055571448307" lon="12.000653824983909"><ele>373.0</ele><time>2026-03-22T09:37:35.997Z</time></trkpt><trkpt lat="42.590795483111776" lon="12.000688676783975"><ele>373.0</ele><time>2026-03-22T09:37:36.997Z</time></trkpt><trkpt lat="42.59108434576215" lon="12.000768156184876"><ele>373.0</ele><time>2026-03-22T09:37:38Z</time></trkpt><trkpt lat="42.591173831352826" lon="12.00073761728946"><ele>373.0</ele><time>2026-03-22T09:37:38.999Z</time></trkpt><trkpt lat="42.59139704381222" lon="12.000776956939424"><ele>375.0</ele><time>2026-03-22T09:37:39.999Z</time></trkpt><trkpt lat="42.591624241602624" lon="12.000813670386167"><ele>377.0</ele><time>2026-03-22T09:37:41Z</time></trkpt><trkpt lat="42.591852843408255" lon="12.000843168100168"><ele>374.0</ele><time>2026-03-22T09:37:42Z</time></trkpt><trkpt lat="42.592081853555825" lon="12.000843859638387"><ele>371.0</ele><time>2026-03-22T09:37:43Z</time></trkpt><trkpt lat="42.59231283140545" lon="12.000799182416962"><ele>365.0</ele><time>2026-03-22T09:37:44Z</time></trkpt><trkpt lat="42.592541589648455" lon="12.000762453891564"><ele>359.0</ele><time>2026-03-22T09:37:44.999Z</time></trkpt><trkpt lat="42.59277232654343" lon="12.00071027176581"><ele>357.5</ele><time>2026-03-22T09:37:45.999Z</time></trkpt><trkpt lat="42.593003059205515" lon="12.000657604141104"><ele>356.0</ele><time>2026-03-22T09:37:47Z</time></trkpt><trkpt lat="42.59323130353055" lon="12.00060997337201"><ele>356.0</ele><time>2026-03-22T09:37:47.999Z</time></trkpt><trkpt lat="42.59345800516009" lon="12.000576550049288"><ele>356.0</ele><time>2026-03-22T09:37:48.999Z</time></trkpt><trkpt lat="42.59368476725293" lon="12.000560509763044"><ele>355.0</ele><time>2026-03-22T09:37:49.999Z</time></trkpt><trkpt lat="42.593914461184646" lon="12.00054821232983"><ele>354.0</ele><time>2026-03-22T09:37:50.999Z</time></trkpt><trkpt lat="42.59413905999867" lon="12.000527094486502"><ele>354.0</ele><time>2026-03-22T09:37:51.999Z</time></trkpt><trkpt lat="42.594376924178064" lon="12.000506848853616"><ele>354.0</ele><time>2026-03-22T09:37:52.999Z</time></trkpt><trkpt lat="42.5946127533699" lon="12.00048704220926"><ele>353.0</ele><time>2026-03-22T09:37:53.999Z</time></trkpt><trkpt lat="42.594849619008805" lon="12.000458059398197"><ele>352.0</ele><time>2026-03-22T09:37:54.999Z</time></trkpt><trkpt lat="42.59508544194508" lon="12.000405932587418"><ele>352.0</ele><time>2026-03-22T09:37:55.999Z</time></trkpt><trkpt lat="42.5953122993984" lon="12.000303047651705"><ele>352.0</ele><time>2026-03-22T09:37:56.999Z</time></trkpt><trkpt lat="42.595527160397985" lon="12.000165506722992"><ele>351.5</ele><time>2026-03-22T09:37:57.999Z</time></trkpt><trkpt lat="42.59573756685127" lon="12.000003387172018"><ele>351.0</ele><time>2026-03-22T09:37:58.999Z</time></trkpt><trkpt lat="42.595955661079984" lon="11.999849631502833"><ele>351.0</ele><time>2026-03-22T09:37:59.999Z</time></trkpt><trkpt lat="42.596168671903946" lon="11.999699012012572"><ele>351.0</ele><time>2026-03-22T09:38:00.999Z</time></trkpt><trkpt lat="42.59638709416404" lon="11.999576645692644"><ele>351.0</ele><time>2026-03-22T09:38:01.999Z</time></trkpt><trkpt lat="42.596613013243925" lon="11.999490475528832"><ele>351.0</ele><time>2026-03-22T09:38:02.999Z</time></trkpt><trkpt lat="42.59684894325707" lon="11.999458304293103"><ele>350.0</ele><time>2026-03-22T09:38:03.999Z</time></trkpt><trkpt lat="42.5970795958094" lon="11.999472807996943"><ele>349.0</ele><time>2026-03-22T09:38:04.999Z</time></trkpt><trkpt lat="42.59732641498354" lon="11.9994851324306"><ele>349.0</ele><time>2026-03-22T09:38:05.999Z</time></trkpt><trkpt lat="42.59758804219599" lon="11.99956319382284"><ele>349.0</ele><time>2026-03-22T09:38:06.999Z</time></trkpt><trkpt lat="42.59786349242977" lon="11.999624742785347"><ele>348.5</ele><time>2026-03-22T09:38:07.999Z</time></trkpt><trkpt lat="42.59811761962865" lon="11.99965010966583"><ele>348.0</ele><time>2026-03-22T09:38:08.999Z</time></trkpt><trkpt lat="42.598352155280736" lon="11.999587386344112"><ele>348.0</ele><time>2026-03-22T09:38:09.999Z</time></trkpt><trkpt lat="42.598537996119084" lon="11.999508280563646"><ele>348.0</ele><time>2026-03-22T09:38:10.999Z</time></trkpt><trkpt lat="42.59874276863662" lon="11.99935760315969"><ele>348.0</ele><time>2026-03-22T09:38:11.999Z</time></trkpt><trkpt lat="42.59894348779565" lon="11.999184101657807"><ele>342.5</ele><time>2026-03-22T09:38:12.999Z</time></trkpt><trkpt lat="42.5991408573918" lon="11.999005102016513"><ele>337.0</ele><time>2026-03-22T09:38:13.999Z</time></trkpt><trkpt lat="42.599353555800704" lon="11.998877800697386"><ele>337.5</ele><time>2026-03-22T09:38:14.999Z</time></trkpt><trkpt lat="42.599556827381726" lon="11.998723103993523"><ele>338.0</ele><time>2026-03-22T09:38:15.999Z</time></trkpt><trkpt lat="42.599772607291236" lon="11.99861138389944"><ele>338.0</ele><time>2026-03-22T09:38:16.999Z</time></trkpt><trkpt lat="42.600003811227175" lon="11.998564881680458"><ele>338.0</ele><time>2026-03-22T09:38:17.999Z</time></trkpt><trkpt lat="42.60022099551662" lon="11.998516670575393"><ele>338.6666666666667</ele><time>2026-03-22T09:38:18.999Z</time></trkpt><trkpt lat="42.600438145889264" lon="11.99845299487776"><ele>339.3333333333333</ele><time>2026-03-22T09:38:19.999Z</time></trkpt><trkpt lat="42.60066154106188" lon="11.998417014022346"><ele>340.0</ele><time>2026-03-22T09:38:20.999Z</time></trkpt><trkpt lat="42.600890619285416" lon="11.99837639900565"><ele>334.5</ele><time>2026-03-22T09:38:21.999Z</time></trkpt><trkpt lat="42.601114908175695" lon="11.998329980955097"><ele>329.0</ele><time>2026-03-22T09:38:22.999Z</time></trkpt><trkpt lat="42.60134846869816" lon="11.998285052442071"><ele>329.0</ele><time>2026-03-22T09:38:23.999Z</time></trkpt><trkpt lat="42.601591844012496" lon="11.998285499971846"><ele>329.0</ele><time>2026-03-22T09:38:24.999Z</time></trkpt><trkpt lat="42.60182306837264" lon="11.998242065546867"><ele>328.5</ele><time>2026-03-22T09:38:25.999Z</time></trkpt><trkpt lat="42.60205503691368" lon="11.998203428912198"><ele>328.0</ele><time>2026-03-22T09:38:26.999Z</time></trkpt><trkpt lat="42.6022721775916" lon="11.998164862587622"><ele>328.0</ele><time>2026-03-22T09:38:27.999Z</time></trkpt><trkpt lat="42.602487317375896" lon="11.99813275447272"><ele>328.0</ele><time>2026-03-22T09:38:28.998Z</time></trkpt><trkpt lat="42.602694061041234" lon="11.998089064752149"><ele>328.0</ele><time>2026-03-22T09:38:29.998Z</time></trkpt><trkpt lat="42.60290057389373" lon="11.998009226802925"><ele>329.0</ele><time>2026-03-22T09:38:30.998Z</time></trkpt><trkpt lat="42.603091399108685" lon="11.99787511813532"><ele>330.0</ele><time>2026-03-22T09:38:31.998Z</time></trkpt><trkpt lat="42.603275550688366" lon="11.997696639252798"><ele>331.0</ele><time>2026-03-22T09:38:32.998Z</time></trkpt><trkpt lat="42.60346423708649" lon="11.997515444097955"><ele>325.5</ele><time>2026-03-22T09:38:33.998Z</time></trkpt><trkpt lat="42.60365229253237" lon="11.99733879756083"><ele>320.0</ele><time>2026-03-22T09:38:34.998Z</time></trkpt><trkpt lat="42.60383932610003" lon="11.9971647931459"><ele>319.33333333333337</ele><time>2026-03-22T09:38:35.998Z</time></trkpt><trkpt lat="42.60402221808018" lon="11.99700168126303"><ele>318.6666666666667</ele><time>2026-03-22T09:38:36.998Z</time></trkpt><trkpt lat="42.60420664445341" lon="11.996852459435345"><ele>318.0</ele><time>2026-03-22T09:38:37.998Z</time></trkpt><trkpt lat="42.60438048614229" lon="11.996691482938743"><ele>317.3333333333333</ele><time>2026-03-22T09:38:38.998Z</time></trkpt><trkpt lat="42.60454404437728" lon="11.996552018210144"><ele>316.66666666666663</ele><time>2026-03-22T09:38:39.998Z</time></trkpt><trkpt lat="42.6047213866124" lon="11.996460786390028"><ele>316.0</ele><time>2026-03-22T09:38:40.998Z</time></trkpt><trkpt lat="42.60490637128202" lon="11.996404973001686"><ele>316.0</ele><time>2026-03-22T09:38:41.998Z</time></trkpt><trkpt lat="42.60510779870043" lon="11.996423881167097"><ele>316.0</ele><time>2026-03-22T09:38:42.998Z</time></trkpt><trkpt lat="42.605311338694584" lon="11.996461743505932"><ele>316.0</ele><time>2026-03-22T09:38:43.998Z</time></trkpt><trkpt lat="42.605531599044554" lon="11.996487663992347"><ele>315.0</ele><time>2026-03-22T09:38:44.998Z</time></trkpt><trkpt lat="42.60575214228788" lon="11.996501928534062"><ele>314.0</ele><time>2026-03-22T09:38:45.998Z</time></trkpt><trkpt lat="42.60597842285805" lon="11.996515167356064"><ele>313.0</ele><time>2026-03-22T09:38:46.998Z</time></trkpt><trkpt lat="42.60620576339785" lon="11.99653909668253"><ele>312.5</ele><time>2026-03-22T09:38:47.998Z</time></trkpt><trkpt lat="42.60643354505265" lon="11.996559601571636"><ele>312.0</ele><time>2026-03-22T09:38:48.998Z</time></trkpt><trkpt lat="42.60665762932197" lon="11.9965739272093"><ele>312.0</ele><time>2026-03-22T09:38:49.998Z</time></trkpt><trkpt lat="42.60688410470131" lon="11.996588395435415"><ele>312.0</ele><time>2026-03-22T09:38:50.998Z</time></trkpt><trkpt lat="42.60711080856424" lon="11.996611563305368"><ele>312.0</ele><time>2026-03-22T09:38:51.998Z</time></trkpt><trkpt lat="42.607341491348365" lon="11.99663272236927"><ele>312.0</ele><time>2026-03-22T09:38:52.998Z</time></trkpt><trkpt lat="42.60756611220699" lon="11.996654342538438"><ele>314.0</ele><time>2026-03-22T09:38:53.998Z</time></trkpt><trkpt lat="42.60779193247561" lon="11.99667770130373"><ele>316.0</ele><time>2026-03-22T09:38:54.998Z</time></trkpt><trkpt lat="42.60801432207545" lon="11.996701329123125"><ele>316.0</ele><time>2026-03-22T09:38:55.998Z</time></trkpt><trkpt lat="42.608243380504966" lon="11.996718407385472"><ele>316.0</ele><time>2026-03-22T09:38:56.998Z</time></trkpt><trkpt lat="42.60846618477013" lon="11.996747499500914"><ele>317.66666666666663</ele><time>2026-03-22T09:38:57.998Z</time></trkpt><trkpt lat="42.608685257469006" lon="11.996769862437473"><ele>319.3333333333333</ele><time>2026-03-22T09:38:58.998Z</time></trkpt><trkpt lat="42.60890480605214" lon="11.996792220184657"><ele>321.0</ele><time>2026-03-22T09:38:59.998Z</time></trkpt><trkpt lat="42.609125245653175" lon="11.996810386334813"><ele>321.0</ele><time>2026-03-22T09:39:00.998Z</time></trkpt><trkpt lat="42.60935317038682" lon="11.99682883405464"><ele>321.0</ele><time>2026-03-22T09:39:01.998Z</time></trkpt><trkpt lat="42.609579583894735" lon="11.996825995364613"><ele>325.3333333333333</ele><time>2026-03-22T09:39:02.998Z</time></trkpt><trkpt lat="42.609801975875115" lon="11.996823041544896"><ele>329.66666666666663</ele><time>2026-03-22T09:39:03.998Z</time></trkpt><trkpt lat="42.61002099668514" lon="11.99681324657827"><ele>334.0</ele><time>2026-03-22T09:39:04.998Z</time></trkpt><trkpt lat="42.610241238513524" lon="11.996811181465747"><ele>333.0</ele><time>2026-03-22T09:39:05.998Z</time></trkpt><trkpt lat="42.610459078314" lon="11.996801228699997"><ele>332.0</ele><time>2026-03-22T09:39:06.998Z</time></trkpt><trkpt lat="42.6106738714904" lon="11.996794547045376"><ele>331.0</ele><time>2026-03-22T09:39:07.998Z</time></trkpt><trkpt lat="42.61088637023235" lon="11.996811334061446"><ele>331.0</ele><time>2026-03-22T09:39:08.998Z</time></trkpt><trkpt lat="42.61109717106484" lon="11.996864045843456"><ele>331.0</ele><time>2026-03-22T09:39:09.998Z</time></trkpt><trkpt lat="42.611302867221774" lon="11.996969808511372"><ele>331.0</ele><time>2026-03-22T09:39:10.998Z</time></trkpt><trkpt lat="42.61149915204908" lon="11.997097657375923"><ele>328.3333333333333</ele><time>2026-03-22T09:39:11.998Z</time></trkpt><trkpt lat="42.611696797227786" lon="11.997213853567274"><ele>325.6666666666667</ele><time>2026-03-22T09:39:12.998Z</time></trkpt><trkpt lat="42.61190018164166" lon="11.997318052644415"><ele>323.0</ele><time>2026-03-22T09:39:13.998Z</time></trkpt><trkpt lat="42.612106617539474" lon="11.99742119194846"><ele>329.0</ele><time>2026-03-22T09:39:14.998Z</time></trkpt><trkpt lat="42.61231613602067" lon="11.997515929743802"><ele>335.0</ele><time>2026-03-22T09:39:15.997Z</time></trkpt><trkpt lat="42.6125354396201" lon="11.997574494084084"><ele>341.0</ele><time>2026-03-22T09:39:16.997Z</time></trkpt><trkpt lat="42.612760416376354" lon="11.997596453822355"><ele>340.5</ele><time>2026-03-22T09:39:17.997Z</time></trkpt><trkpt lat="42.61298566423017" lon="11.997577385897731"><ele>340.0</ele><time>2026-03-22T09:39:18.997Z</time></trkpt><trkpt lat="42.61320788127203" lon="11.997526515199509"><ele>327.0</ele><time>2026-03-22T09:39:19.997Z</time></trkpt><trkpt lat="42.613433459047286" lon="11.997461834615965"><ele>314.0</ele><time>2026-03-22T09:39:20.997Z</time></trkpt><trkpt lat="42.613652936327824" lon="11.997370140822605"><ele>318.5</ele><time>2026-03-22T09:39:21.997Z</time></trkpt><trkpt lat="42.6138660000297" lon="11.997275818023038"><ele>323.0</ele><time>2026-03-22T09:39:22.997Z</time></trkpt><trkpt lat="42.614077503479685" lon="11.997163879727294"><ele>323.0</ele><time>2026-03-22T09:39:23.997Z</time></trkpt><trkpt lat="42.614277772649096" lon="11.99703268753203"><ele>323.0</ele><time>2026-03-22T09:39:24.997Z</time></trkpt><trkpt lat="42.61447353002999" lon="11.996894636733218"><ele>323.0</ele><time>2026-03-22T09:39:25.997Z</time></trkpt><trkpt lat="42.614671097401704" lon="11.996764826990205"><ele>320.33333333333337</ele><time>2026-03-22T09:39:26.997Z</time></trkpt><trkpt lat="42.61485469742284" lon="11.996604540287029"><ele>317.6666666666667</ele><time>2026-03-22T09:39:27.997Z</time></trkpt><trkpt lat="42.61502458174546" lon="11.99641969867244"><ele>315.0</ele><time>2026-03-22T09:39:28.997Z</time></trkpt><trkpt lat="42.61518002240638" lon="11.996239852080887"><ele>315.0</ele><time>2026-03-22T09:39:29.997Z</time></trkpt><trkpt lat="42.61531960581754" lon="11.996065165873704"><ele>315.0</ele><time>2026-03-22T09:39:30.997Z</time></trkpt><trkpt lat="42.61543954434665" lon="11.995920167658204"><ele>315.0</ele><time>2026-03-22T09:39:31.997Z</time></trkpt><trkpt lat="42.615574237191744" lon="11.995859864396099"><ele>316.5</ele><time>2026-03-22T09:39:32.997Z</time></trkpt><trkpt lat="42.61571556227483" lon="11.995847166527327"><ele>318.0</ele><time>2026-03-22T09:39:33.997Z</time></trkpt><trkpt lat="42.61584214779217" lon="11.995915611617521"><ele>319.5</ele><time>2026-03-22T09:39:34.997Z</time></trkpt><trkpt lat="42.615957691600215" lon="11.996058402882237"><ele>321.0</ele><time>2026-03-22T09:39:35.997Z</time></trkpt><trkpt lat="42.616109030837386" lon="11.996195765447144"><ele>318.3333333333333</ele><time>2026-03-22T09:39:36.997Z</time></trkpt><trkpt lat="42.616280376074755" lon="11.996324624787803"><ele>315.66666666666663</ele><time>2026-03-22T09:39:37.997Z</time></trkpt><trkpt lat="42.61646116991897" lon="11.996433694629214"><ele>313.0</ele><time>2026-03-22T09:39:38.997Z</time></trkpt><trkpt lat="42.61663794228138" lon="11.996546943928452"><ele>313.0</ele><time>2026-03-22T09:39:39.997Z</time></trkpt><trkpt lat="42.61681347575297" lon="11.996658801224607"><ele>313.0</ele><time>2026-03-22T09:39:40.997Z</time></trkpt><trkpt lat="42.61700853543277" lon="11.996727355044357"><ele>313.0</ele><time>2026-03-22T09:39:41.997Z</time></trkpt><trkpt lat="42.617209374352754" lon="11.996777161105587"><ele>314.0</ele><time>2026-03-22T09:39:42.997Z</time></trkpt><trkpt lat="42.61742075799054" lon="11.996825999311817"><ele>315.0</ele><time>2026-03-22T09:39:44Z</time></trkpt><trkpt lat="42.617624892546154" lon="11.996884534381543"><ele>316.0</ele><time>2026-03-22T09:39:44.999Z</time></trkpt><trkpt lat="42.617831282140344" lon="11.996941241057451"><ele>316.0</ele><time>2026-03-22T09:39:45.999Z</time></trkpt><trkpt lat="42.6180434061742" lon="11.996991053842777"><ele>316.0</ele><time>2026-03-22T09:39:46.999Z</time></trkpt><trkpt lat="42.618251108903785" lon="11.997047126600188"><ele>316.0</ele><time>2026-03-22T09:39:48Z</time></trkpt><trkpt lat="42.61847117305669" lon="11.997095100539111"><ele>316.0</ele><time>2026-03-22T09:39:49Z</time></trkpt><trkpt lat="42.61868918722034" lon="11.997154478942"><ele>316.0</ele><time>2026-03-22T09:39:49.999Z</time></trkpt><trkpt lat="42.61889790294717" lon="11.997226212494125"><ele>316.0</ele><time>2026-03-22T09:39:50.999Z</time></trkpt><trkpt lat="42.6191078123817" lon="11.997328814174402"><ele>316.0</ele><time>2026-03-22T09:39:51.999Z</time></trkpt><trkpt lat="42.61930420530382" lon="11.997463000237275"><ele>316.0</ele><time>2026-03-22T09:39:53Z</time></trkpt><trkpt lat="42.619490330113464" lon="11.99762058315746"><ele>316.0</ele><time>2026-03-22T09:39:54Z</time></trkpt><trkpt lat="42.619672830707074" lon="11.997784277448662"><ele>318.3333333333333</ele><time>2026-03-22T09:39:55Z</time></trkpt><trkpt lat="42.61985270829541" lon="11.997933338828027"><ele>320.6666666666667</ele><time>2026-03-22T09:39:56Z</time></trkpt><trkpt lat="42.62003845835789" lon="11.998040832556333"><ele>323.0</ele><time>2026-03-22T09:39:57Z</time></trkpt><trkpt lat="42.62024535558254" lon="11.998107692414186"><ele>321.6666666666667</ele><time>2026-03-22T09:39:58Z</time></trkpt><trkpt lat="42.62046550410832" lon="11.998126575440155"><ele>320.3333333333333</ele><time>2026-03-22T09:39:59Z</time></trkpt><trkpt lat="42.62068452120962" lon="11.998119416373106"><ele>319.0</ele><time>2026-03-22T09:40:00Z</time></trkpt><trkpt lat="42.62090597933045" lon="11.998126670908338"><ele>319.0</ele><time>2026-03-22T09:40:01Z</time></trkpt><trkpt lat="42.62112882030623" lon="11.99815009332925"><ele>319.0</ele><time>2026-03-22T09:40:02Z</time></trkpt><trkpt lat="42.62135150384187" lon="11.99817709044176"><ele>319.0</ele><time>2026-03-22T09:40:03Z</time></trkpt><trkpt lat="42.62156961113492" lon="11.998191280047472"><ele>318.66666666666663</ele><time>2026-03-22T09:40:04Z</time></trkpt><trkpt lat="42.62179122011604" lon="11.998199317186344"><ele>318.3333333333333</ele><time>2026-03-22T09:40:05Z</time></trkpt><trkpt lat="42.621996651350536" lon="11.998235078024335"><ele>318.0</ele><time>2026-03-22T09:40:06Z</time></trkpt><trkpt lat="42.62218681326593" lon="11.998258047660794"><ele>317.6666666666667</ele><time>2026-03-22T09:40:07Z</time></trkpt><trkpt lat="42.622370425070706" lon="11.998275221494062"><ele>317.33333333333337</ele><time>2026-03-22T09:40:08Z</time></trkpt><trkpt lat="42.622540444081004" lon="11.998366426248909"><ele>317.0</ele><time>2026-03-22T09:40:09Z</time></trkpt><trkpt lat="42.622695606103434" lon="11.998496202628687"><ele>317.6666666666667</ele><time>2026-03-22T09:40:10Z</time></trkpt><trkpt lat="42.622811531900325" lon="11.998704499663518"><ele>318.3333333333333</ele><time>2026-03-22T09:40:11Z</time></trkpt><trkpt lat="42.622957865644466" lon="11.998898905740093"><ele>319.0</ele><time>2026-03-22T09:40:12Z</time></trkpt><trkpt lat="42.62310947349562" lon="11.999070887909147"><ele>321.0</ele><time>2026-03-22T09:40:13Z</time></trkpt><trkpt lat="42.6232918453512" lon="11.999196256979474"><ele>323.0</ele><time>2026-03-22T09:40:14Z</time></trkpt><trkpt lat="42.62347661058813" lon="11.999306829717506"><ele>325.0</ele><time>2026-03-22T09:40:15Z</time></trkpt><trkpt lat="42.623676631158894" lon="11.99937576857504"><ele>325.0</ele><time>2026-03-22T09:40:16Z</time></trkpt><trkpt lat="42.62387854988293" lon="11.999417745466259"><ele>325.0</ele><time>2026-03-22T09:40:17Z</time></trkpt><trkpt lat="42.624086482115814" lon="11.99942534711466"><ele>325.0</ele><time>2026-03-22T09:40:18Z</time></trkpt><trkpt lat="42.624293548510394" lon="11.999414802825944"><ele>328.0</ele><time>2026-03-22T09:40:19Z</time></trkpt><trkpt lat="42.624511668448385" lon="11.999404922833426"><ele>331.0</ele><time>2026-03-22T09:40:20Z</time></trkpt><trkpt lat="42.624746381192146" lon="11.999390207000566"><ele>331.0</ele><time>2026-03-22T09:40:21Z</time></trkpt><trkpt lat="42.62498038155571" lon="11.999391829433225"><ele>331.0</ele><time>2026-03-22T09:40:22Z</time></trkpt><trkpt lat="42.6252090569227" lon="11.999388152776108"><ele>337.0</ele><time>2026-03-22T09:40:22.999Z</time></trkpt><trkpt lat="42.62543697803627" lon="11.999367172769116"><ele>343.0</ele><time>2026-03-22T09:40:23.999Z</time></trkpt><trkpt lat="42.62567053675458" lon="11.999354991598961"><ele>343.0</ele><time>2026-03-22T09:40:24.999Z</time></trkpt><trkpt lat="42.62590188898892" lon="11.999349380838387"><ele>343.0</ele><time>2026-03-22T09:40:25.999Z</time></trkpt><trkpt lat="42.62612758147223" lon="11.999346586668274"><ele>348.0</ele><time>2026-03-22T09:40:26.999Z</time></trkpt><trkpt lat="42.626354762666466" lon="11.99933650306478"><ele>353.0</ele><time>2026-03-22T09:40:27.999Z</time></trkpt><trkpt lat="42.62657839672236" lon="11.999302454946914"><ele>353.0</ele><time>2026-03-22T09:40:28.999Z</time></trkpt><trkpt lat="42.62680254323163" lon="11.999229934936626"><ele>353.0</ele><time>2026-03-22T09:40:29.999Z</time></trkpt><trkpt lat="42.62703022987062" lon="11.999144872366369"><ele>340.0</ele><time>2026-03-22T09:40:30.999Z</time></trkpt><trkpt lat="42.62725222135127" lon="11.99906458303586"><ele>327.0</ele><time>2026-03-22T09:40:31.999Z</time></trkpt><trkpt lat="42.62747378208349" lon="11.998983416503393"><ele>327.0</ele><time>2026-03-22T09:40:32.999Z</time></trkpt><trkpt lat="42.62769133654794" lon="11.9988921086967"><ele>327.0</ele><time>2026-03-22T09:40:33.999Z</time></trkpt><trkpt lat="42.62790988965155" lon="11.998795420283695"><ele>330.0</ele><time>2026-03-22T09:40:34.999Z</time></trkpt><trkpt lat="42.62812406212624" lon="11.998696809746356"><ele>333.0</ele><time>2026-03-22T09:40:35.999Z</time></trkpt><trkpt lat="42.628338086150805" lon="11.998600598441193"><ele>333.0</ele><time>2026-03-22T09:40:36.999Z</time></trkpt><trkpt lat="42.62854724003727" lon="11.998534863077513"><ele>333.0</ele><time>2026-03-22T09:40:37.999Z</time></trkpt><trkpt lat="42.62874699480966" lon="11.998474731076227"><ele>333.0</ele><time>2026-03-22T09:40:38.999Z</time></trkpt><trkpt lat="42.62895611404407" lon="11.99843906062043"><ele>335.6666666666667</ele><time>2026-03-22T09:40:39.999Z</time></trkpt><trkpt lat="42.629165748336405" lon="11.99839957575396"><ele>338.33333333333337</ele><time>2026-03-22T09:40:40.999Z</time></trkpt><trkpt lat="42.62937220315585" lon="11.99836359591603"><ele>341.0</ele><time>2026-03-22T09:40:41.999Z</time></trkpt><trkpt lat="42.62958145121103" lon="11.998340005011798"><ele>336.0</ele><time>2026-03-22T09:40:42.999Z</time></trkpt><trkpt lat="42.629800255484646" lon="11.998330205035682"><ele>331.0</ele><time>2026-03-22T09:40:43.999Z</time></trkpt><trkpt lat="42.630023593685245" lon="11.99831270310899"><ele>326.0</ele><time>2026-03-22T09:40:44.999Z</time></trkpt><trkpt lat="42.63025840338915" lon="11.998242568473335"><ele>330.33333333333337</ele><time>2026-03-22T09:40:45.999Z</time></trkpt><trkpt lat="42.63044748241231" lon="11.998130753657406"><ele>334.6666666666667</ele><time>2026-03-22T09:40:46.999Z</time></trkpt><trkpt lat="42.630640795562826" lon="11.998052132095374"><ele>339.0</ele><time>2026-03-22T09:40:47.999Z</time></trkpt><trkpt lat="42.63084089014792" lon="11.997960018936558"><ele>339.0</ele><time>2026-03-22T09:40:48.999Z</time></trkpt><trkpt lat="42.63103533560653" lon="11.997852704886796"><ele>339.0</ele><time>2026-03-22T09:40:49.999Z</time></trkpt><trkpt lat="42.631230076291686" lon="11.997727865644533"><ele>339.0</ele><time>2026-03-22T09:40:50.999Z</time></trkpt><trkpt lat="42.63142362769067" lon="11.997603290619006"><ele>339.3333333333333</ele><time>2026-03-22T09:40:51.999Z</time></trkpt><trkpt lat="42.63161271971238" lon="11.997483294182564"><ele>339.66666666666663</ele><time>2026-03-22T09:40:52.999Z</time></trkpt><trkpt lat="42.63179731858444" lon="11.997370114851638"><ele>340.0</ele><time>2026-03-22T09:40:53.999Z</time></trkpt><trkpt lat="42.6319774736845" lon="11.997267572281356"><ele>340.0</ele><time>2026-03-22T09:40:54.999Z</time></trkpt><trkpt lat="42.632148982585086" lon="11.997164810598704"><ele>340.0</ele><time>2026-03-22T09:40:55.999Z</time></trkpt><trkpt lat="42.63231684966098" lon="11.997068205307595"><ele>340.0</ele><time>2026-03-22T09:40:56.999Z</time></trkpt><trkpt lat="42.632484188282604" lon="11.996973815555357"><ele>340.0</ele><time>2026-03-22T09:40:57.999Z</time></trkpt><trkpt lat="42.63265354708839" lon="11.996878740273937"><ele>340.0</ele><time>2026-03-22T09:40:58.999Z</time></trkpt><trkpt lat="42.63281419075245" lon="11.99676455958588"><ele>340.0</ele><time>2026-03-22T09:40:59.999Z</time></trkpt><trkpt lat="42.632962981488355" lon="11.996641672387382"><ele>336.66666666666663</ele><time>2026-03-22T09:41:00.999Z</time></trkpt><trkpt lat="42.633105355763746" lon="11.996519224069322"><ele>333.3333333333333</ele><time>2026-03-22T09:41:01.999Z</time></trkpt><trkpt lat="42.63324346156744" lon="11.9964006210072"><ele>330.0</ele><time>2026-03-22T09:41:02.999Z</time></trkpt><trkpt lat="42.63337553935578" lon="11.99628753920651"><ele>330.0</ele><time>2026-03-22T09:41:03.999Z</time></trkpt><trkpt lat="42.6335001158978" lon="11.996176994549579"><ele>330.0</ele><time>2026-03-22T09:41:04.999Z</time></trkpt><trkpt lat="42.63362152556489" lon="11.996070841842265"><ele>330.0</ele><time>2026-03-22T09:41:05.999Z</time></trkpt><trkpt lat="42.63373937838783" lon="11.995970844186475"><ele>330.0</ele><time>2026-03-22T09:41:06.999Z</time></trkpt><trkpt lat="42.63385136537606" lon="11.995868626118716"><ele>327.0</ele><time>2026-03-22T09:41:07.999Z</time></trkpt><trkpt lat="42.63395755001741" lon="11.995774675040371"><ele>324.0</ele><time>2026-03-22T09:41:08.999Z</time></trkpt><trkpt lat="42.63406222232655" lon="11.995688385163731"><ele>321.0</ele><time>2026-03-22T09:41:09.999Z</time></trkpt><trkpt lat="42.63416065721929" lon="11.995611013285691"><ele>318.0</ele><time>2026-03-22T09:41:10.998Z</time></trkpt><trkpt lat="42.63425592789913" lon="11.99553499217798"><ele>318.0</ele><time>2026-03-22T09:41:11.998Z</time></trkpt><trkpt lat="42.634340074242026" lon="11.995467666967212"><ele>318.0</ele><time>2026-03-22T09:41:12.998Z</time></trkpt><trkpt lat="42.6344171786548" lon="11.995406374777232"><ele>318.0</ele><time>2026-03-22T09:41:13.998Z</time></trkpt><trkpt lat="42.634490631660896" lon="11.995353668161739"><ele>318.0</ele><time>2026-03-22T09:41:14.998Z</time></trkpt><trkpt lat="42.63456589785826" lon="11.995300076627851"><ele>318.0</ele><time>2026-03-22T09:41:15.998Z</time></trkpt><trkpt lat="42.6346580057882" lon="11.995240576664033"><ele>318.75</ele><time>2026-03-22T09:41:16.998Z</time></trkpt><trkpt lat="42.634780362770535" lon="11.99517262024001"><ele>319.5</ele><time>2026-03-22T09:41:17.998Z</time></trkpt><trkpt lat="42.63492607592499" lon="11.995128058800352"><ele>320.25</ele><time>2026-03-22T09:41:18.998Z</time></trkpt><trkpt lat="42.63508687894355" lon="11.99508827849657"><ele>321.0</ele><time>2026-03-22T09:41:19.998Z</time></trkpt><trkpt lat="42.63526667771254" lon="11.995044614989496"><ele>318.6666666666667</ele><time>2026-03-22T09:41:20.998Z</time></trkpt><trkpt lat="42.63544869919114" lon="11.994995251337576"><ele>316.33333333333337</ele><time>2026-03-22T09:41:21.998Z</time></trkpt><trkpt lat="42.6356314024578" lon="11.9949422311294"><ele>314.0</ele><time>2026-03-22T09:41:22.998Z</time></trkpt><trkpt lat="42.63582300291302" lon="11.994879308278525"><ele>314.0</ele><time>2026-03-22T09:41:23.998Z</time></trkpt><trkpt lat="42.636010169066374" lon="11.994823417840516"><ele>314.0</ele><time>2026-03-22T09:41:24.998Z</time></trkpt><trkpt lat="42.636201442552114" lon="11.994756147387555"><ele>314.0</ele><time>2026-03-22T09:41:25.998Z</time></trkpt><trkpt lat="42.636388731541395" lon="11.994678336318227"><ele>315.6666666666667</ele><time>2026-03-22T09:41:26.998Z</time></trkpt><trkpt lat="42.636574419298874" lon="11.994573494595398"><ele>317.3333333333333</ele><time>2026-03-22T09:41:27.998Z</time></trkpt><trkpt lat="42.636756494899295" lon="11.994449798104036"><ele>319.0</ele><time>2026-03-22T09:41:28.998Z</time></trkpt><trkpt lat="42.63692759662999" lon="11.99430823880737"><ele>318.3333333333333</ele><time>2026-03-22T09:41:29.998Z</time></trkpt><trkpt lat="42.63709985180034" lon="11.994153731167389"><ele>317.6666666666667</ele><time>2026-03-22T09:41:30.998Z</time></trkpt><trkpt lat="42.63726674765752" lon="11.993996383132652"><ele>317.0</ele><time>2026-03-22T09:41:31.998Z</time></trkpt><trkpt lat="42.63743926095499" lon="11.993853406154916"><ele>317.0</ele><time>2026-03-22T09:41:32.998Z</time></trkpt><trkpt lat="42.63761026310091" lon="11.99370241243998"><ele>317.0</ele><time>2026-03-22T09:41:33.998Z</time></trkpt><trkpt lat="42.637775668773266" lon="11.99354732853243"><ele>317.0</ele><time>2026-03-22T09:41:34.998Z</time></trkpt><trkpt lat="42.63794085253492" lon="11.993400764247147"><ele>317.6666666666667</ele><time>2026-03-22T09:41:35.998Z</time></trkpt><trkpt lat="42.63810278442677" lon="11.99326686187322"><ele>318.3333333333333</ele><time>2026-03-22T09:41:36.998Z</time></trkpt><trkpt lat="42.63826265672528" lon="11.993155719694611"><ele>319.0</ele><time>2026-03-22T09:41:37.998Z</time></trkpt><trkpt lat="42.63842004234594" lon="11.993045121395422"><ele>319.0</ele><time>2026-03-22T09:41:38.998Z</time></trkpt><trkpt lat="42.63856797719855" lon="11.992907892760773"><ele>319.0</ele><time>2026-03-22T09:41:39.998Z</time></trkpt><trkpt lat="42.638699940920105" lon="11.99274711569444"><ele>319.0</ele><time>2026-03-22T09:41:40.998Z</time></trkpt><trkpt lat="42.638828941371344" lon="11.99258624965467"><ele>320.3333333333333</ele><time>2026-03-22T09:41:41.998Z</time></trkpt><trkpt lat="42.638949764360156" lon="11.992417535895305"><ele>321.6666666666667</ele><time>2026-03-22T09:41:42.998Z</time></trkpt><trkpt lat="42.639070375833484" lon="11.99227443147991"><ele>323.0</ele><time>2026-03-22T09:41:43.998Z</time></trkpt><trkpt lat="42.63918806798771" lon="11.992134337230324"><ele>323.0</ele><time>2026-03-22T09:41:44.998Z</time></trkpt><trkpt lat="42.639297776024186" lon="11.991999631933236"><ele>323.0</ele><time>2026-03-22T09:41:45.998Z</time></trkpt><trkpt lat="42.639401858657536" lon="11.991867525115174"><ele>323.0</ele><time>2026-03-22T09:41:46.998Z</time></trkpt><trkpt lat="42.63950125453424" lon="11.991742968701276"><ele>323.0</ele><time>2026-03-22T09:41:47.998Z</time></trkpt><trkpt lat="42.63960395328933" lon="11.991626899468619"><ele>322.25</ele><time>2026-03-22T09:41:48.998Z</time></trkpt><trkpt lat="42.639706763674766" lon="11.99153365992116"><ele>321.5</ele><time>2026-03-22T09:41:50Z</time></trkpt><trkpt lat="42.63980712235643" lon="11.99143580226849"><ele>320.75</ele><time>2026-03-22T09:41:51Z</time></trkpt><trkpt lat="42.63991678880844" lon="11.99134038962118"><ele>320.0</ele><time>2026-03-22T09:41:52Z</time></trkpt><trkpt lat="42.6400327705493" lon="11.991245559079049"><ele>320.0</ele><time>2026-03-22T09:41:52.999Z</time></trkpt><trkpt lat="42.64013990173888" lon="11.991153774018844"><ele>320.0</ele><time>2026-03-22T09:41:53.999Z</time></trkpt><trkpt lat="42.640248761899606" lon="11.99106280924197"><ele>320.0</ele><time>2026-03-22T09:41:54.999Z</time></trkpt><trkpt lat="42.64035587526386" lon="11.990969858974516"><ele>320.0</ele><time>2026-03-22T09:41:56Z</time></trkpt><trkpt lat="42.64046568382636" lon="11.990888261160597"><ele>320.0</ele><time>2026-03-22T09:41:56.999Z</time></trkpt><trkpt lat="42.64057514159802" lon="11.990800981650517"><ele>320.0</ele><time>2026-03-22T09:41:57.999Z</time></trkpt><trkpt lat="42.64068401740375" lon="11.990711152381882"><ele>320.0</ele><time>2026-03-22T09:41:59Z</time></trkpt><trkpt lat="42.64079235676166" lon="11.990624491144196"><ele>320.0</ele><time>2026-03-22T09:42:00Z</time></trkpt><trkpt lat="42.64089790658244" lon="11.990539782941848"><ele>320.0</ele><time>2026-03-22T09:42:01Z</time></trkpt><trkpt lat="42.64099895432997" lon="11.990451583153911"><ele>320.0</ele><time>2026-03-22T09:42:02Z</time></trkpt><trkpt lat="42.641100912381596" lon="11.990362210927428"><ele>320.0</ele><time>2026-03-22T09:42:03Z</time></trkpt><trkpt lat="42.641196637905225" lon="11.990260341983713"><ele>320.0</ele><time>2026-03-22T09:42:04Z</time></trkpt><trkpt lat="42.64128909914495" lon="11.990151203474614"><ele>320.0</ele><time>2026-03-22T09:42:05Z</time></trkpt><trkpt lat="42.64136665769183" lon="11.99002504071624"><ele>320.0</ele><time>2026-03-22T09:42:06Z</time></trkpt><trkpt lat="42.6414421246546" lon="11.989893103773445"><ele>320.0</ele><time>2026-03-22T09:42:07Z</time></trkpt><trkpt lat="42.64151926544244" lon="11.989756996874574"><ele>320.0</ele><time>2026-03-22T09:42:08Z</time></trkpt><trkpt lat="42.64160076921514" lon="11.989619429692187"><ele>320.0</ele><time>2026-03-22T09:42:09Z</time></trkpt><trkpt lat="42.64168629320115" lon="11.989474105232286"><ele>320.0</ele><time>2026-03-22T09:42:10Z</time></trkpt><trkpt lat="42.64176945069148" lon="11.98932782166797"><ele>320.0</ele><time>2026-03-22T09:42:11Z</time></trkpt><trkpt lat="42.64185641689756" lon="11.989185317486045"><ele>320.0</ele><time>2026-03-22T09:42:12Z</time></trkpt><trkpt lat="42.64194087138499" lon="11.989039278114467"><ele>319.75</ele><time>2026-03-22T09:42:13Z</time></trkpt><trkpt lat="42.6420190701609" lon="11.988896696439966"><ele>319.5</ele><time>2026-03-22T09:42:14Z</time></trkpt><trkpt lat="42.642101539752694" lon="11.98875256776696"><ele>319.25</ele><time>2026-03-22T09:42:15Z</time></trkpt><trkpt lat="42.642189684238986" lon="11.988615065521572"><ele>319.0</ele><time>2026-03-22T09:42:16Z</time></trkpt><trkpt lat="42.64229011839604" lon="11.988488449339055"><ele>319.0</ele><time>2026-03-22T09:42:17Z</time></trkpt><trkpt lat="42.64239583734204" lon="11.988369998489476"><ele>319.0</ele><time>2026-03-22T09:42:18Z</time></trkpt><trkpt lat="42.642505057567064" lon="11.988257276541871"><ele>319.0</ele><time>2026-03-22T09:42:19Z</time></trkpt><trkpt lat="42.64261257974912" lon="11.98814519743084"><ele>319.0</ele><time>2026-03-22T09:42:20Z</time></trkpt><trkpt lat="42.64272109432772" lon="11.988026623539712"><ele>319.5</ele><time>2026-03-22T09:42:21Z</time></trkpt><trkpt lat="42.64283036270091" lon="11.987906670905456"><ele>320.0</ele><time>2026-03-22T09:42:22Z</time></trkpt><trkpt lat="42.6429396059844" lon="11.987789025817278"><ele>320.5</ele><time>2026-03-22T09:42:23Z</time></trkpt><trkpt lat="42.643049202984734" lon="11.98767360655618"><ele>321.0</ele><time>2026-03-22T09:42:24Z</time></trkpt><trkpt lat="42.643157948478326" lon="11.987558451539657"><ele>320.25</ele><time>2026-03-22T09:42:25Z</time></trkpt><trkpt lat="42.643267992025" lon="11.987442108999106"><ele>319.5</ele><time>2026-03-22T09:42:26Z</time></trkpt><trkpt lat="42.64337700543967" lon="11.98732623172022"><ele>318.75</ele><time>2026-03-22T09:42:27Z</time></trkpt><trkpt lat="42.64348270024682" lon="11.987222360434684"><ele>318.0</ele><time>2026-03-22T09:42:28Z</time></trkpt><trkpt lat="42.64357978340433" lon="11.987118234542299"><ele>319.2</ele><time>2026-03-22T09:42:29Z</time></trkpt><trkpt lat="42.64367202482383" lon="11.987021808765945"><ele>320.4</ele><time>2026-03-22T09:42:30Z</time></trkpt><trkpt lat="42.64375273537839" lon="11.986932637472107"><ele>321.59999999999997</ele><time>2026-03-22T09:42:31Z</time></trkpt><trkpt lat="42.64381564841143" lon="11.98685297129663"><ele>322.8</ele><time>2026-03-22T09:42:31.999Z</time></trkpt><trkpt lat="42.64386813245911" lon="11.986785203199428"><ele>324.0</ele><time>2026-03-22T09:42:32.999Z</time></trkpt><trkpt lat="42.64395241894159" lon="11.986725200445168"><ele>323.2</ele><time>2026-03-22T09:42:34.999Z</time></trkpt><trkpt lat="42.644029505433814" lon="11.98664669988984"><ele>322.4</ele><time>2026-03-22T09:42:54.999Z</time></trkpt><trkpt lat="42.644118775319384" lon="11.986518410782029"><ele>321.6</ele><time>2026-03-22T09:42:56.999Z</time></trkpt><trkpt lat="42.64416714256016" lon="11.986430537594744"><ele>320.8</ele><time>2026-03-22T09:42:57.999Z</time></trkpt><trkpt lat="42.64420968529966" lon="11.986315970524474"><ele>320.0</ele><time>2026-03-22T09:42:58.999Z</time></trkpt><trkpt lat="42.64424449947523" lon="11.986189762007125"><ele>320.0</ele><time>2026-03-22T09:42:59.999Z</time></trkpt><trkpt lat="42.6442718113606" lon="11.986074411310021"><ele>320.0</ele><time>2026-03-22T09:43:00.999Z</time></trkpt><trkpt lat="42.64430033048733" lon="11.985964162080993"><ele>320.0</ele><time>2026-03-22T09:43:01.999Z</time></trkpt><trkpt lat="42.64433718646001" lon="11.985870745932708"><ele>320.0</ele><time>2026-03-22T09:43:02.999Z</time></trkpt><trkpt lat="42.644368803389625" lon="11.985782688038686"><ele>320.0</ele><time>2026-03-22T09:43:03.999Z</time></trkpt><trkpt lat="42.644391277913954" lon="11.985692870621056"><ele>320.0</ele><time>2026-03-22T09:43:04.999Z</time></trkpt><trkpt lat="42.64443078025175" lon="11.985618536618434"><ele>321.0</ele><time>2026-03-22T09:43:05.999Z</time></trkpt><trkpt lat="42.644516960834096" lon="11.98550137804821"><ele>322.0</ele><time>2026-03-22T09:43:07.999Z</time></trkpt><trkpt lat="42.64456708809247" lon="11.985430185867475"><ele>323.0</ele><time>2026-03-22T09:43:08.999Z</time></trkpt><trkpt lat="42.644625118166815" lon="11.985358722651466"><ele>324.0</ele><time>2026-03-22T09:43:09.999Z</time></trkpt><trkpt lat="42.64467961776215" lon="11.985296471275099"><ele>325.0</ele><time>2026-03-22T09:43:10.999Z</time></trkpt><trkpt lat="42.644734923272814" lon="11.985229158215605"><ele>326.0</ele><time>2026-03-22T09:43:11.999Z</time></trkpt><trkpt lat="42.64479338562389" lon="11.985161159870254"><ele>326.0</ele><time>2026-03-22T09:43:12.999Z</time></trkpt><trkpt lat="42.6448516248157" lon="11.985095089748448"><ele>326.0</ele><time>2026-03-22T09:43:13.999Z</time></trkpt><trkpt lat="42.644903444598654" lon="11.985026904409326"><ele>326.0</ele><time>2026-03-22T09:43:14.999Z</time></trkpt><trkpt lat="42.644950093048934" lon="11.984963563051558"><ele>326.0</ele><time>2026-03-22T09:43:15.999Z</time></trkpt><trkpt lat="42.6449980556699" lon="11.98490503860845"><ele>326.0</ele><time>2026-03-22T09:43:16.999Z</time></trkpt><trkpt lat="42.64503936252456" lon="11.984839892646974"><ele>326.0</ele><time>2026-03-22T09:43:17.999Z</time></trkpt><trkpt lat="42.645101250260275" lon="11.98470203077726"><ele>326.8</ele><time>2026-03-22T09:43:19.998Z</time></trkpt><trkpt lat="42.64512676587949" lon="11.984609488515625"><ele>327.6</ele><time>2026-03-22T09:43:20.998Z</time></trkpt><trkpt lat="42.645164827132625" lon="11.984506902683792"><ele>328.4</ele><time>2026-03-22T09:43:21.998Z</time></trkpt><trkpt lat="42.645222855345054" lon="11.98440134533397"><ele>329.2</ele><time>2026-03-22T09:43:22.998Z</time></trkpt><trkpt lat="42.645288658370035" lon="11.984300369067691"><ele>330.0</ele><time>2026-03-22T09:43:23.998Z</time></trkpt><trkpt lat="42.64535755494598" lon="11.984187108954162"><ele>327.5</ele><time>2026-03-22T09:43:24.998Z</time></trkpt><trkpt lat="42.64543626629299" lon="11.984081235806135"><ele>325.0</ele><time>2026-03-22T09:43:25.998Z</time></trkpt><trkpt lat="42.64551507785247" lon="11.983970463912796"><ele>322.5</ele><time>2026-03-22T09:43:26.998Z</time></trkpt><trkpt lat="42.64559741906944" lon="11.983854483770422"><ele>320.0</ele><time>2026-03-22T09:43:27.998Z</time></trkpt><trkpt lat="42.645680706430646" lon="11.983733563226512"><ele>320.0</ele><time>2026-03-22T09:43:28.998Z</time></trkpt><trkpt lat="42.64576351911919" lon="11.98360692582461"><ele>320.0</ele><time>2026-03-22T09:43:29.998Z</time></trkpt><trkpt lat="42.645853081895275" lon="11.983475224055297"><ele>320.0</ele><time>2026-03-22T09:43:30.998Z</time></trkpt><trkpt lat="42.64594419167696" lon="11.983345956490805"><ele>320.0</ele><time>2026-03-22T09:43:31.998Z</time></trkpt><trkpt lat="42.646041030161214" lon="11.983210141507838"><ele>320.25</ele><time>2026-03-22T09:43:32.998Z</time></trkpt><trkpt lat="42.64613632013624" lon="11.983077008737355"><ele>320.5</ele><time>2026-03-22T09:43:33.998Z</time></trkpt><trkpt lat="42.646228722078014" lon="11.982960693248044"><ele>320.75</ele><time>2026-03-22T09:43:34.998Z</time></trkpt><trkpt lat="42.646307352797365" lon="11.982855420487027"><ele>321.0</ele><time>2026-03-22T09:43:35.998Z</time></trkpt><trkpt lat="42.64637265387229" lon="11.982746114986927"><ele>321.0</ele><time>2026-03-22T09:43:36.998Z</time></trkpt><trkpt lat="42.646425669230894" lon="11.98263002489005"><ele>321.0</ele><time>2026-03-22T09:43:37.998Z</time></trkpt><trkpt lat="42.64647824972885" lon="11.982504631667702"><ele>321.0</ele><time>2026-03-22T09:43:38.998Z</time></trkpt><trkpt lat="42.646529945058745" lon="11.982364042509841"><ele>321.0</ele><time>2026-03-22T09:43:39.998Z</time></trkpt><trkpt lat="42.646579320996636" lon="11.982205816437096"><ele>321.0</ele><time>2026-03-22T09:43:40.998Z</time></trkpt><trkpt lat="42.64662238766475" lon="11.982047643559435"><ele>320.75</ele><time>2026-03-22T09:43:41.998Z</time></trkpt><trkpt lat="42.64666115625963" lon="11.981880501059125"><ele>320.5</ele><time>2026-03-22T09:43:42.998Z</time></trkpt><trkpt lat="42.64670136932462" lon="11.981705365046329"><ele>320.25</ele><time>2026-03-22T09:43:43.998Z</time></trkpt><trkpt lat="42.64674283555638" lon="11.981526371582268"><ele>320.0</ele><time>2026-03-22T09:43:44.998Z</time></trkpt><trkpt lat="42.64678945393237" lon="11.98134256015043"><ele>320.25</ele><time>2026-03-22T09:43:45.998Z</time></trkpt><trkpt lat="42.646838149237" lon="11.981156840683239"><ele>320.5</ele><time>2026-03-22T09:43:46.998Z</time></trkpt><trkpt lat="42.646884516520494" lon="11.980967826754908"><ele>320.75</ele><time>2026-03-22T09:43:47.998Z</time></trkpt><trkpt lat="42.64692874493281" lon="11.980777421128751"><ele>321.0</ele><time>2026-03-22T09:43:48.998Z</time></trkpt><trkpt lat="42.646983269719044" lon="11.980594575711601"><ele>321.0</ele><time>2026-03-22T09:43:49.998Z</time></trkpt><trkpt lat="42.64703710332467" lon="11.980404750005757"><ele>321.0</ele><time>2026-03-22T09:43:50.998Z</time></trkpt><trkpt lat="42.64708853362003" lon="11.98020762820603"><ele>321.0</ele><time>2026-03-22T09:43:51.998Z</time></trkpt><trkpt lat="42.64713697256059" lon="11.980012586707703"><ele>320.3333333333333</ele><time>2026-03-22T09:43:52.998Z</time></trkpt><trkpt lat="42.64718530362291" lon="11.979807230726284"><ele>319.66666666666663</ele><time>2026-03-22T09:43:53.998Z</time></trkpt><trkpt lat="42.647238605192825" lon="11.97959926264097"><ele>319.0</ele><time>2026-03-22T09:43:54.998Z</time></trkpt><trkpt lat="42.64729473280565" lon="11.979384162213195"><ele>317.3333333333333</ele><time>2026-03-22T09:43:56Z</time></trkpt><trkpt lat="42.647355659062775" lon="11.97916040894062"><ele>315.6666666666667</ele><time>2026-03-22T09:43:57Z</time></trkpt><trkpt lat="42.647419232948806" lon="11.97892711972647"><ele>314.0</ele><time>2026-03-22T09:43:58Z</time></trkpt><trkpt lat="42.64748394120247" lon="11.978686497254891"><ele>314.0</ele><time>2026-03-22T09:43:59Z</time></trkpt><trkpt lat="42.64754864894147" lon="11.978440318185992"><ele>314.0</ele><time>2026-03-22T09:44:00Z</time></trkpt><trkpt lat="42.647609664334475" lon="11.97819821365678"><ele>314.0</ele><time>2026-03-22T09:44:01Z</time></trkpt><trkpt lat="42.64766900296016" lon="11.977950665053331"><ele>313.6666666666667</ele><time>2026-03-22T09:44:02Z</time></trkpt><trkpt lat="42.647731112149785" lon="11.977707448044804"><ele>313.3333333333333</ele><time>2026-03-22T09:44:02.999Z</time></trkpt><trkpt lat="42.64779314028091" lon="11.977460320893373"><ele>313.0</ele><time>2026-03-22T09:44:03.999Z</time></trkpt><trkpt lat="42.64785518239651" lon="11.977212003674483"><ele>313.0</ele><time>2026-03-22T09:44:05Z</time></trkpt><trkpt lat="42.64791701109562" lon="11.97696877156822"><ele>313.0</ele><time>2026-03-22T09:44:06Z</time></trkpt><trkpt lat="42.647977571189024" lon="11.976727424237934"><ele>313.0</ele><time>2026-03-22T09:44:07Z</time></trkpt><trkpt lat="42.64803951025362" lon="11.976489559175405"><ele>312.3333333333333</ele><time>2026-03-22T09:44:08Z</time></trkpt><trkpt lat="42.64809740670055" lon="11.976254628001374"><ele>311.6666666666667</ele><time>2026-03-22T09:44:09Z</time></trkpt><trkpt lat="42.648157067552376" lon="11.976018665642263"><ele>311.0</ele><time>2026-03-22T09:44:10Z</time></trkpt><trkpt lat="42.648220644644745" lon="11.975783711582581"><ele>310.33333333333337</ele><time>2026-03-22T09:44:11Z</time></trkpt><trkpt lat="42.64827919237964" lon="11.97554593513465"><ele>309.6666666666667</ele><time>2026-03-22T09:44:12Z</time></trkpt><trkpt lat="42.64834019780301" lon="11.97530560668614"><ele>309.0</ele><time>2026-03-22T09:44:13Z</time></trkpt><trkpt lat="42.64839858211339" lon="11.975065011633287"><ele>308.6666666666667</ele><time>2026-03-22T09:44:14Z</time></trkpt><trkpt lat="42.64845638041593" lon="11.974818883043941"><ele>308.33333333333337</ele><time>2026-03-22T09:44:15Z</time></trkpt><trkpt lat="42.648509072601044" lon="11.974570526516437"><ele>308.0</ele><time>2026-03-22T09:44:16Z</time></trkpt><trkpt lat="42.64856556853983" lon="11.974322678762448"><ele>308.0</ele><time>2026-03-22T09:44:17Z</time></trkpt><trkpt lat="42.64862343998351" lon="11.974071641079767"><ele>308.0</ele><time>2026-03-22T09:44:18Z</time></trkpt><trkpt lat="42.64868415225545" lon="11.973820654523417"><ele>308.0</ele><time>2026-03-22T09:44:19Z</time></trkpt><trkpt lat="42.6487354745188" lon="11.97356625182405"><ele>307.6666666666667</ele><time>2026-03-22T09:44:20Z</time></trkpt><trkpt lat="42.648785453610124" lon="11.973305459459509"><ele>307.3333333333333</ele><time>2026-03-22T09:44:21Z</time></trkpt><trkpt lat="42.64884176734448" lon="11.973042714354968"><ele>307.0</ele><time>2026-03-22T09:44:22Z</time></trkpt><trkpt lat="42.648902326957" lon="11.972789402498615"><ele>307.0</ele><time>2026-03-22T09:44:23Z</time></trkpt><trkpt lat="42.648957853306364" lon="11.972532713003314"><ele>307.0</ele><time>2026-03-22T09:44:24Z</time></trkpt><trkpt lat="42.64901633980445" lon="11.972274594941899"><ele>307.0</ele><time>2026-03-22T09:44:25Z</time></trkpt><trkpt lat="42.64907591589961" lon="11.972015240203438"><ele>306.66666666666663</ele><time>2026-03-22T09:44:26Z</time></trkpt><trkpt lat="42.64913876064104" lon="11.971756396143014"><ele>306.3333333333333</ele><time>2026-03-22T09:44:27Z</time></trkpt><trkpt lat="42.64920276903844" lon="11.971492784644342"><ele>306.0</ele><time>2026-03-22T09:44:28Z</time></trkpt><trkpt lat="42.64926956363055" lon="11.971230298525542"><ele>306.0</ele><time>2026-03-22T09:44:29Z</time></trkpt><trkpt lat="42.649339030001734" lon="11.9709654696969"><ele>306.0</ele><time>2026-03-22T09:44:30Z</time></trkpt><trkpt lat="42.64940849155478" lon="11.970695367201044"><ele>306.0</ele><time>2026-03-22T09:44:31Z</time></trkpt><trkpt lat="42.64947261053535" lon="11.970424448920191"><ele>306.0</ele><time>2026-03-22T09:44:32Z</time></trkpt><trkpt lat="42.649539645493384" lon="11.970156976683093"><ele>306.0</ele><time>2026-03-22T09:44:33Z</time></trkpt><trkpt lat="42.649604321678616" lon="11.969894691468982"><ele>306.0</ele><time>2026-03-22T09:44:34Z</time></trkpt><trkpt lat="42.649671790682014" lon="11.96963612921397"><ele>306.0</ele><time>2026-03-22T09:44:35Z</time></trkpt><trkpt lat="42.64973450065633" lon="11.96937914891568"><ele>306.0</ele><time>2026-03-22T09:44:36Z</time></trkpt><trkpt lat="42.64979804465649" lon="11.96912320022229"><ele>306.0</ele><time>2026-03-22T09:44:37Z</time></trkpt><trkpt lat="42.64985921043849" lon="11.968867444130954"><ele>306.3333333333333</ele><time>2026-03-22T09:44:38Z</time></trkpt><trkpt lat="42.64992020380085" lon="11.968610788114189"><ele>306.66666666666663</ele><time>2026-03-22T09:44:39Z</time></trkpt><trkpt lat="42.64997359319841" lon="11.96835007465664"><ele>307.0</ele><time>2026-03-22T09:44:40Z</time></trkpt><trkpt lat="42.650025151658646" lon="11.96808895627319"><ele>307.0</ele><time>2026-03-22T09:44:40.999Z</time></trkpt><trkpt lat="42.65007395948811" lon="11.96782718578411"><ele>307.0</ele><time>2026-03-22T09:44:41.999Z</time></trkpt><trkpt lat="42.65012222546101" lon="11.96756681706243"><ele>307.0</ele><time>2026-03-22T09:44:42.999Z</time></trkpt><trkpt lat="42.65017016615087" lon="11.967305458948703"><ele>307.0</ele><time>2026-03-22T09:44:43.999Z</time></trkpt><trkpt lat="42.650216801090664" lon="11.96704235643652"><ele>307.0</ele><time>2026-03-22T09:44:44.999Z</time></trkpt><trkpt lat="42.650262842333206" lon="11.966778504950836"><ele>307.0</ele><time>2026-03-22T09:44:45.999Z</time></trkpt><trkpt lat="42.65030906987275" lon="11.966516016120895"><ele>307.0</ele><time>2026-03-22T09:44:46.999Z</time></trkpt><trkpt lat="42.65035106540586" lon="11.966252045159303"><ele>307.0</ele><time>2026-03-22T09:44:47.999Z</time></trkpt><trkpt lat="42.65039255314361" lon="11.965993114136731"><ele>307.0</ele><time>2026-03-22T09:44:48.999Z</time></trkpt><trkpt lat="42.650429439158444" lon="11.965733843199942"><ele>307.0</ele><time>2026-03-22T09:44:49.999Z</time></trkpt><trkpt lat="42.650467514557306" lon="11.965475562862009"><ele>307.0</ele><time>2026-03-22T09:44:50.999Z</time></trkpt><trkpt lat="42.650497916136814" lon="11.965213419301618"><ele>307.0</ele><time>2026-03-22T09:44:51.999Z</time></trkpt><trkpt lat="42.65053041898193" lon="11.964955783678713"><ele>307.0</ele><time>2026-03-22T09:44:52.999Z</time></trkpt><trkpt lat="42.65056386593576" lon="11.96469791395423"><ele>307.0</ele><time>2026-03-22T09:44:53.999Z</time></trkpt><trkpt lat="42.65059875525456" lon="11.964438856743202"><ele>307.0</ele><time>2026-03-22T09:44:54.999Z</time></trkpt><trkpt lat="42.65063546672436" lon="11.964177998133287"><ele>307.0</ele><time>2026-03-22T09:44:55.999Z</time></trkpt><trkpt lat="42.65066999305277" lon="11.963914263748643"><ele>307.0</ele><time>2026-03-22T09:44:56.999Z</time></trkpt><trkpt lat="42.650700713817606" lon="11.963645752798032"><ele>307.0</ele><time>2026-03-22T09:44:57.999Z</time></trkpt><trkpt lat="42.65073387513511" lon="11.96337874035794"><ele>306.66666666666663</ele><time>2026-03-22T09:44:58.999Z</time></trkpt><trkpt lat="42.65076906817524" lon="11.963106772845222"><ele>306.3333333333333</ele><time>2026-03-22T09:44:59.999Z</time></trkpt><trkpt lat="42.6508040489425" lon="11.962833834954644"><ele>306.0</ele><time>2026-03-22T09:45:00.999Z</time></trkpt><trkpt lat="42.65084049124929" lon="11.96256296100217"><ele>306.3333333333333</ele><time>2026-03-22T09:45:01.999Z</time></trkpt><trkpt lat="42.650875046087315" lon="11.962294323163798"><ele>306.66666666666663</ele><time>2026-03-22T09:45:02.999Z</time></trkpt><trkpt lat="42.65090927637935" lon="11.962022986024262"><ele>307.0</ele><time>2026-03-22T09:45:03.999Z</time></trkpt><trkpt lat="42.650941044929105" lon="11.96175013139036"><ele>307.3333333333333</ele><time>2026-03-22T09:45:04.999Z</time></trkpt><trkpt lat="42.650970861865765" lon="11.961475968034481"><ele>307.6666666666667</ele><time>2026-03-22T09:45:05.999Z</time></trkpt><trkpt lat="42.65100137288388" lon="11.961197696331444"><ele>308.0</ele><time>2026-03-22T09:45:06.999Z</time></trkpt><trkpt lat="42.651034204354765" lon="11.960928331540876"><ele>307.6666666666667</ele><time>2026-03-22T09:45:07.999Z</time></trkpt><trkpt lat="42.651067801837286" lon="11.960658316711513"><ele>307.3333333333333</ele><time>2026-03-22T09:45:08.999Z</time></trkpt><trkpt lat="42.65110430337262" lon="11.960387513778102"><ele>307.0</ele><time>2026-03-22T09:45:09.999Z</time></trkpt><trkpt lat="42.65114116836282" lon="11.960111555094182"><ele>307.0</ele><time>2026-03-22T09:45:10.999Z</time></trkpt><trkpt lat="42.651175683821755" lon="11.959833827176821"><ele>307.0</ele><time>2026-03-22T09:45:11.999Z</time></trkpt><trkpt lat="42.651209432585226" lon="11.959551106487815"><ele>307.0</ele><time>2026-03-22T09:45:12.999Z</time></trkpt><trkpt lat="42.65123741478137" lon="11.959271030008221"><ele>306.66666666666663</ele><time>2026-03-22T09:45:13.999Z</time></trkpt><trkpt lat="42.65128355023547" lon="11.959004223883081"><ele>306.3333333333333</ele><time>2026-03-22T09:45:14.999Z</time></trkpt><trkpt lat="42.651319357094195" lon="11.958744369981781"><ele>306.0</ele><time>2026-03-22T09:45:15.999Z</time></trkpt><trkpt lat="42.6513411644652" lon="11.95847980734854"><ele>305.6666666666667</ele><time>2026-03-22T09:45:16.999Z</time></trkpt><trkpt lat="42.65138910356023" lon="11.958219134645093"><ele>305.33333333333337</ele><time>2026-03-22T09:45:17.999Z</time></trkpt><trkpt lat="42.6514241488681" lon="11.957964612103101"><ele>305.0</ele><time>2026-03-22T09:45:18.999Z</time></trkpt><trkpt lat="42.651463786871396" lon="11.957676734264728"><ele>305.6666666666667</ele><time>2026-03-22T09:45:19.999Z</time></trkpt><trkpt lat="42.65150202745333" lon="11.957399005405877"><ele>306.3333333333333</ele><time>2026-03-22T09:45:20.999Z</time></trkpt><trkpt lat="42.651541330957926" lon="11.957113556905453"><ele>307.0</ele><time>2026-03-22T09:45:21.999Z</time></trkpt><trkpt lat="42.65158271674479" lon="11.956813086207708"><ele>307.5</ele><time>2026-03-22T09:45:22.999Z</time></trkpt><trkpt lat="42.651628688094846" lon="11.956472184225417"><ele>308.0</ele><time>2026-03-22T09:45:23.999Z</time></trkpt><trkpt lat="42.651713354476726" lon="11.95588507590815"><ele>308.5</ele><time>2026-03-22T09:45:24.999Z</time></trkpt><trkpt lat="42.65175632440072" lon="11.9555581962329"><ele>309.0</ele><time>2026-03-22T09:45:25.999Z</time></trkpt><trkpt lat="42.65179733790965" lon="11.955207938947094"><ele>308.0</ele><time>2026-03-22T09:45:26.999Z</time></trkpt><trkpt lat="42.65183232490255" lon="11.954839084956948"><ele>307.0</ele><time>2026-03-22T09:45:27.999Z</time></trkpt><trkpt lat="42.65188271712872" lon="11.954460998339535"><ele>307.0</ele><time>2026-03-22T09:45:28.998Z</time></trkpt><trkpt lat="42.65193574422742" lon="11.954100054204705"><ele>307.0</ele><time>2026-03-22T09:45:29.998Z</time></trkpt><trkpt lat="42.65198893025456" lon="11.953751126432932"><ele>307.0</ele><time>2026-03-22T09:45:30.998Z</time></trkpt><trkpt lat="42.65203948218372" lon="11.953400177983166"><ele>307.0</ele><time>2026-03-22T09:45:31.998Z</time></trkpt><trkpt lat="42.652091646305095" lon="11.953044429372857"><ele>307.0</ele><time>2026-03-22T09:45:32.998Z</time></trkpt><trkpt lat="42.65212981788216" lon="11.952678111476658"><ele>307.0</ele><time>2026-03-22T09:45:33.998Z</time></trkpt><trkpt lat="42.652165526756875" lon="11.952309284354119"><ele>307.0</ele><time>2026-03-22T09:45:34.998Z</time></trkpt><trkpt lat="42.652200549062755" lon="11.951940379458371"><ele>307.0</ele><time>2026-03-22T09:45:35.998Z</time></trkpt><trkpt lat="42.65223120873173" lon="11.951569055277496"><ele>307.0</ele><time>2026-03-22T09:45:36.998Z</time></trkpt><trkpt lat="42.652258341780154" lon="11.951191283227955"><ele>307.0</ele><time>2026-03-22T09:45:37.998Z</time></trkpt><trkpt lat="42.652290589845286" lon="11.950817411216104"><ele>307.0</ele><time>2026-03-22T09:45:38.998Z</time></trkpt><trkpt lat="42.65232242262956" lon="11.950441331008033"><ele>307.0</ele><time>2026-03-22T09:45:39.998Z</time></trkpt><trkpt lat="42.65235638811908" lon="11.95007593358632"><ele>306.5</ele><time>2026-03-22T09:45:40.998Z</time></trkpt><trkpt lat="42.65238553857742" lon="11.949712590371025"><ele>306.0</ele><time>2026-03-22T09:45:41.998Z</time></trkpt><trkpt lat="42.65241549984814" lon="11.949357854673995"><ele>306.0</ele><time>2026-03-22T09:45:42.998Z</time></trkpt><trkpt lat="42.65243263055561" lon="11.949004830882068"><ele>306.0</ele><time>2026-03-22T09:45:43.998Z</time></trkpt><trkpt lat="42.65245981027546" lon="11.948651331107433"><ele>305.5</ele><time>2026-03-22T09:45:44.998Z</time></trkpt><trkpt lat="42.652489077540736" lon="11.948292856154723"><ele>305.0</ele><time>2026-03-22T09:45:45.998Z</time></trkpt><trkpt lat="42.65251620686814" lon="11.947928852862688"><ele>305.0</ele><time>2026-03-22T09:45:46.998Z</time></trkpt><trkpt lat="42.65253954864289" lon="11.94756794512062"><ele>305.0</ele><time>2026-03-22T09:45:47.998Z</time></trkpt><trkpt lat="42.65256124420526" lon="11.947213001589997"><ele>305.0</ele><time>2026-03-22T09:45:48.998Z</time></trkpt><trkpt lat="42.652572906082305" lon="11.946864544553064"><ele>305.0</ele><time>2026-03-22T09:45:49.998Z</time></trkpt><trkpt lat="42.65258585248425" lon="11.946542420933552"><ele>305.5</ele><time>2026-03-22T09:45:50.998Z</time></trkpt><trkpt lat="42.65261229139842" lon="11.946235778925924"><ele>306.0</ele><time>2026-03-22T09:45:51.998Z</time></trkpt><trkpt lat="42.65265760765595" lon="11.945939228622436"><ele>306.3333333333333</ele><time>2026-03-22T09:45:52.998Z</time></trkpt><trkpt lat="42.65274600505999" lon="11.945667405597547"><ele>306.66666666666663</ele><time>2026-03-22T09:45:53.998Z</time></trkpt><trkpt lat="42.652856997273986" lon="11.945395869422681"><ele>307.0</ele><time>2026-03-22T09:45:54.998Z</time></trkpt><trkpt lat="42.65296162305405" lon="11.945107485646353"><ele>307.0</ele><time>2026-03-22T09:45:55.998Z</time></trkpt><trkpt lat="42.65309153328795" lon="11.944821571745575"><ele>307.0</ele><time>2026-03-22T09:45:56.998Z</time></trkpt><trkpt lat="42.6532157061021" lon="11.94452604567981"><ele>307.0</ele><time>2026-03-22T09:45:57.998Z</time></trkpt><trkpt lat="42.65333763303547" lon="11.944224653874416"><ele>307.0</ele><time>2026-03-22T09:45:58.998Z</time></trkpt><trkpt lat="42.65345577489159" lon="11.943924558564582"><ele>307.0</ele><time>2026-03-22T09:45:59.998Z</time></trkpt><trkpt lat="42.653571491990554" lon="11.9436375089677"><ele>307.0</ele><time>2026-03-22T09:46:00.998Z</time></trkpt><trkpt lat="42.65368791463801" lon="11.943352995562217"><ele>307.0</ele><time>2026-03-22T09:46:02Z</time></trkpt><trkpt lat="42.65380346988841" lon="11.943073328961695"><ele>307.0</ele><time>2026-03-22T09:46:03Z</time></trkpt><trkpt lat="42.6539182373459" lon="11.942789441388678"><ele>306.0</ele><time>2026-03-22T09:46:04Z</time></trkpt><trkpt lat="42.65405174188671" lon="11.94252311635547"><ele>305.0</ele><time>2026-03-22T09:46:04.999Z</time></trkpt><trkpt lat="42.65416303736704" lon="11.942223795917569"><ele>305.0</ele><time>2026-03-22T09:46:06Z</time></trkpt><trkpt lat="42.654276598487534" lon="11.941929992461416"><ele>305.0</ele><time>2026-03-22T09:46:07Z</time></trkpt><trkpt lat="42.654390232315116" lon="11.941628835535486"><ele>306.0</ele><time>2026-03-22T09:46:07.999Z</time></trkpt><trkpt lat="42.65450762895053" lon="11.941328468894296"><ele>307.0</ele><time>2026-03-22T09:46:09Z</time></trkpt><trkpt lat="42.65462539504976" lon="11.941026882114961"><ele>307.0</ele><time>2026-03-22T09:46:10Z</time></trkpt><trkpt lat="42.654742958137184" lon="11.940721680685082"><ele>307.0</ele><time>2026-03-22T09:46:11Z</time></trkpt><trkpt lat="42.654859704413084" lon="11.940419040921094"><ele>307.0</ele><time>2026-03-22T09:46:12Z</time></trkpt><trkpt lat="42.65497590669279" lon="11.940113686631781"><ele>307.0</ele><time>2026-03-22T09:46:13Z</time></trkpt><trkpt lat="42.65509575417607" lon="11.93981158381986"><ele>308.0</ele><time>2026-03-22T09:46:13.999Z</time></trkpt><trkpt lat="42.655205472424704" lon="11.939515052565367"><ele>309.0</ele><time>2026-03-22T09:46:15Z</time></trkpt><trkpt lat="42.65531533599678" lon="11.939239952403806"><ele>309.3333333333333</ele><time>2026-03-22T09:46:15.999Z</time></trkpt><trkpt lat="42.65541841572588" lon="11.938980453611165"><ele>309.66666666666663</ele><time>2026-03-22T09:46:16.999Z</time></trkpt><trkpt lat="42.65551571488239" lon="11.938728313153115"><ele>310.0</ele><time>2026-03-22T09:46:17.999Z</time></trkpt><trkpt lat="42.6556165074113" lon="11.938487024166331"><ele>309.66666666666663</ele><time>2026-03-22T09:46:18.999Z</time></trkpt><trkpt lat="42.655709762010574" lon="11.938245993942603"><ele>309.3333333333333</ele><time>2026-03-22T09:46:19.999Z</time></trkpt><trkpt lat="42.65580882650206" lon="11.938000675548926"><ele>309.0</ele><time>2026-03-22T09:46:20.999Z</time></trkpt><trkpt lat="42.655912304038274" lon="11.937752899522755"><ele>309.6666666666667</ele><time>2026-03-22T09:46:21.999Z</time></trkpt><trkpt lat="42.656016337454666" lon="11.937502884504342"><ele>310.33333333333337</ele><time>2026-03-22T09:46:22.999Z</time></trkpt><trkpt lat="42.656120110735685" lon="11.937248839083116"><ele>311.0</ele><time>2026-03-22T09:46:23.999Z</time></trkpt><trkpt lat="42.65622613095606" lon="11.936990624014454"><ele>311.0</ele><time>2026-03-22T09:46:24.999Z</time></trkpt><trkpt lat="42.65633437654782" lon="11.936725095508665"><ele>311.0</ele><time>2026-03-22T09:46:25.999Z</time></trkpt><trkpt lat="42.65642653728057" lon="11.936452629794516"><ele>311.0</ele><time>2026-03-22T09:46:26.999Z</time></trkpt><trkpt lat="42.65648601362481" lon="11.936166448705821"><ele>311.5</ele><time>2026-03-22T09:46:27.999Z</time></trkpt><trkpt lat="42.65651602078379" lon="11.93585827131857"><ele>312.0</ele><time>2026-03-22T09:46:28.999Z</time></trkpt><trkpt lat="42.65654640633974" lon="11.935554568109197"><ele>312.0</ele><time>2026-03-22T09:46:29.999Z</time></trkpt><trkpt lat="42.65656674963096" lon="11.935240372098804"><ele>312.0</ele><time>2026-03-22T09:46:30.999Z</time></trkpt><trkpt lat="42.65658558764046" lon="11.934913930755647"><ele>311.5</ele><time>2026-03-22T09:46:31.999Z</time></trkpt><trkpt lat="42.65660764152096" lon="11.934592040169207"><ele>311.0</ele><time>2026-03-22T09:46:32.999Z</time></trkpt><trkpt lat="42.65662555919708" lon="11.93426628266771"><ele>311.0</ele><time>2026-03-22T09:46:33.999Z</time></trkpt><trkpt lat="42.65663940878536" lon="11.933939984695177"><ele>311.0</ele><time>2026-03-22T09:46:34.999Z</time></trkpt><trkpt lat="42.65665493997998" lon="11.933612162990043"><ele>311.5</ele><time>2026-03-22T09:46:35.999Z</time></trkpt><trkpt lat="42.65666745325975" lon="11.933286496501617"><ele>312.0</ele><time>2026-03-22T09:46:36.999Z</time></trkpt><trkpt lat="42.656676253390664" lon="11.932954732111765"><ele>312.0</ele><time>2026-03-22T09:46:37.999Z</time></trkpt><trkpt lat="42.656672329680866" lon="11.93261855154844"><ele>312.0</ele><time>2026-03-22T09:46:38.999Z</time></trkpt><trkpt lat="42.65665192966981" lon="11.932279442204713"><ele>312.0</ele><time>2026-03-22T09:46:39.999Z</time></trkpt><trkpt lat="42.65661319659144" lon="11.93193243283337"><ele>312.0</ele><time>2026-03-22T09:46:40.999Z</time></trkpt><trkpt lat="42.65658018877658" lon="11.931584059999958"><ele>311.0</ele><time>2026-03-22T09:46:41.999Z</time></trkpt><trkpt lat="42.65655310777058" lon="11.931230520127318"><ele>310.0</ele><time>2026-03-22T09:46:42.999Z</time></trkpt><trkpt lat="42.65653811192796" lon="11.930870979977977"><ele>309.5</ele><time>2026-03-22T09:46:43.999Z</time></trkpt><trkpt lat="42.65652696581239" lon="11.930510946179135"><ele>309.0</ele><time>2026-03-22T09:46:44.999Z</time></trkpt><trkpt lat="42.656527003645294" lon="11.930166476685441"><ele>309.5</ele><time>2026-03-22T09:46:45.999Z</time></trkpt><trkpt lat="42.656533312903065" lon="11.929828052530613"><ele>310.0</ele><time>2026-03-22T09:46:46.999Z</time></trkpt><trkpt lat="42.65653830188466" lon="11.929497542606633"><ele>311.0</ele><time>2026-03-22T09:46:47.999Z</time></trkpt><trkpt lat="42.65652996743328" lon="11.92917197573053"><ele>312.0</ele><time>2026-03-22T09:46:48.999Z</time></trkpt><trkpt lat="42.656521325976385" lon="11.92885163429796"><ele>312.0</ele><time>2026-03-22T09:46:49.999Z</time></trkpt><trkpt lat="42.65649764172597" lon="11.928539768804642"><ele>312.0</ele><time>2026-03-22T09:46:50.999Z</time></trkpt><trkpt lat="42.656466703650544" lon="11.928219157114633"><ele>312.0</ele><time>2026-03-22T09:46:51.999Z</time></trkpt><trkpt lat="42.656439879138766" lon="11.927890618154855"><ele>312.0</ele><time>2026-03-22T09:46:52.999Z</time></trkpt><trkpt lat="42.65641651649613" lon="11.92755893839244"><ele>312.0</ele><time>2026-03-22T09:46:53.999Z</time></trkpt><trkpt lat="42.65639075383244" lon="11.927236521455157"><ele>312.0</ele><time>2026-03-22T09:46:54.999Z</time></trkpt><trkpt lat="42.65637021248801" lon="11.926920734170372"><ele>311.5</ele><time>2026-03-22T09:46:55.999Z</time></trkpt><trkpt lat="42.656353606533656" lon="11.926611152976003"><ele>311.0</ele><time>2026-03-22T09:46:56.999Z</time></trkpt><trkpt lat="42.656340598832045" lon="11.926303180196088"><ele>311.0</ele><time>2026-03-22T09:46:57.999Z</time></trkpt><trkpt lat="42.65632997460078" lon="11.925999521735736"><ele>311.0</ele><time>2026-03-22T09:46:58.999Z</time></trkpt><trkpt lat="42.65631929512139" lon="11.925696538864154"><ele>311.0</ele><time>2026-03-22T09:46:59.999Z</time></trkpt><trkpt lat="42.65630625026243" lon="11.925384025991795"><ele>311.0</ele><time>2026-03-22T09:47:00.999Z</time></trkpt><trkpt lat="42.65629990386321" lon="11.92506794129104"><ele>311.0</ele><time>2026-03-22T09:47:01.999Z</time></trkpt><trkpt lat="42.65629679770572" lon="11.92475473217423"><ele>311.0</ele><time>2026-03-22T09:47:02.999Z</time></trkpt><trkpt lat="42.65630151749534" lon="11.924440111264806"><ele>311.0</ele><time>2026-03-22T09:47:03.998Z</time></trkpt><trkpt lat="42.65631488515025" lon="11.924131011771717"><ele>311.5</ele><time>2026-03-22T09:47:04.998Z</time></trkpt><trkpt lat="42.65631037335624" lon="11.923819179889067"><ele>312.0</ele><time>2026-03-22T09:47:05.998Z</time></trkpt><trkpt lat="42.6562891626887" lon="11.923519787843865"><ele>311.6666666666667</ele><time>2026-03-22T09:47:06.998Z</time></trkpt><trkpt lat="42.65625611898304" lon="11.923219129658534"><ele>311.33333333333337</ele><time>2026-03-22T09:47:07.998Z</time></trkpt><trkpt lat="42.65620258241169" lon="11.922927545151074"><ele>311.0</ele><time>2026-03-22T09:47:08.998Z</time></trkpt><trkpt lat="42.65613620911932" lon="11.922633314409447"><ele>310.5</ele><time>2026-03-22T09:47:09.998Z</time></trkpt><trkpt lat="42.65606266110111" lon="11.922335064943603"><ele>310.0</ele><time>2026-03-22T09:47:10.998Z</time></trkpt><trkpt lat="42.65598499962631" lon="11.922028231569747"><ele>310.0</ele><time>2026-03-22T09:47:11.998Z</time></trkpt><trkpt lat="42.65591628130669" lon="11.92171406794515"><ele>310.0</ele><time>2026-03-22T09:47:12.998Z</time></trkpt><trkpt lat="42.65585890007626" lon="11.92140026066435"><ele>310.0</ele><time>2026-03-22T09:47:13.998Z</time></trkpt><trkpt lat="42.655808645184294" lon="11.921080453441181"><ele>310.0</ele><time>2026-03-22T09:47:14.998Z</time></trkpt><trkpt lat="42.65575925647719" lon="11.920770095558696"><ele>309.0</ele><time>2026-03-22T09:47:15.998Z</time></trkpt><trkpt lat="42.65570869680839" lon="11.920453556289205"><ele>308.0</ele><time>2026-03-22T09:47:16.998Z</time></trkpt><trkpt lat="42.6556602826719" lon="11.920132247598945"><ele>308.5</ele><time>2026-03-22T09:47:17.998Z</time></trkpt><trkpt lat="42.655616631267165" lon="11.91980492665528"><ele>309.0</ele><time>2026-03-22T09:47:18.998Z</time></trkpt><trkpt lat="42.655583475910056" lon="11.919480137123008"><ele>309.5</ele><time>2026-03-22T09:47:19.998Z</time></trkpt><trkpt lat="42.655550942773964" lon="11.919153406406569"><ele>310.0</ele><time>2026-03-22T09:47:20.998Z</time></trkpt><trkpt lat="42.65553126549166" lon="11.918822952669574"><ele>310.0</ele><time>2026-03-22T09:47:21.998Z</time></trkpt><trkpt lat="42.65552782342141" lon="11.918501028818515"><ele>310.0</ele><time>2026-03-22T09:47:22.998Z</time></trkpt><trkpt lat="42.65554828205668" lon="11.918177852346835"><ele>310.0</ele><time>2026-03-22T09:47:23.998Z</time></trkpt><trkpt lat="42.65559264172126" lon="11.917850422155091"><ele>310.0</ele><time>2026-03-22T09:47:24.998Z</time></trkpt><trkpt lat="42.655662616889266" lon="11.917540043057542"><ele>310.0</ele><time>2026-03-22T09:47:25.998Z</time></trkpt><trkpt lat="42.655722439088464" lon="11.917224426211627"><ele>310.0</ele><time>2026-03-22T09:47:26.998Z</time></trkpt><trkpt lat="42.65579298509517" lon="11.916905799272532"><ele>310.0</ele><time>2026-03-22T09:47:27.998Z</time></trkpt><trkpt lat="42.655876153188004" lon="11.916593222697085"><ele>310.0</ele><time>2026-03-22T09:47:28.998Z</time></trkpt><trkpt lat="42.6559613061049" lon="11.916286904937111"><ele>310.0</ele><time>2026-03-22T09:47:29.998Z</time></trkpt><trkpt lat="42.65604396691272" lon="11.915976091510638"><ele>310.0</ele><time>2026-03-22T09:47:30.998Z</time></trkpt><trkpt lat="42.656126853661924" lon="11.915673591362676"><ele>312.0</ele><time>2026-03-22T09:47:31.998Z</time></trkpt><trkpt lat="42.656212353914874" lon="11.915375886699751"><ele>314.0</ele><time>2026-03-22T09:47:32.998Z</time></trkpt><trkpt lat="42.65630373858675" lon="11.915081852856456"><ele>314.0</ele><time>2026-03-22T09:47:33.998Z</time></trkpt><trkpt lat="42.65639989875555" lon="11.914790233971543"><ele>314.0</ele><time>2026-03-22T09:47:34.998Z</time></trkpt><trkpt lat="42.656515282149236" lon="11.914509507286384"><ele>314.0</ele><time>2026-03-22T09:47:35.998Z</time></trkpt><trkpt lat="42.65664423080751" lon="11.914233153332034"><ele>314.0</ele><time>2026-03-22T09:47:36.998Z</time></trkpt><trkpt lat="42.65677460405764" lon="11.913959204950093"><ele>314.0</ele><time>2026-03-22T09:47:37.998Z</time></trkpt><trkpt lat="42.65690170505038" lon="11.913683616838107"><ele>314.0</ele><time>2026-03-22T09:47:38.998Z</time></trkpt><trkpt lat="42.65703179741533" lon="11.913418143329405"><ele>315.5</ele><time>2026-03-22T09:47:39.998Z</time></trkpt><trkpt lat="42.65716138041145" lon="11.913155098234279"><ele>317.0</ele><time>2026-03-22T09:47:40.998Z</time></trkpt><trkpt lat="42.657286887731146" lon="11.912901214924752"><ele>317.0</ele><time>2026-03-22T09:47:41.998Z</time></trkpt><trkpt lat="42.65740831577049" lon="11.91264840745655"><ele>317.0</ele><time>2026-03-22T09:47:42.998Z</time></trkpt><trkpt lat="42.65752758723452" lon="11.912407648907504"><ele>317.0</ele><time>2026-03-22T09:47:43.998Z</time></trkpt><trkpt lat="42.65763792544122" lon="11.912165546349984"><ele>316.33333333333337</ele><time>2026-03-22T09:47:44.998Z</time></trkpt><trkpt lat="42.657740471815416" lon="11.911930056728556"><ele>315.6666666666667</ele><time>2026-03-22T09:47:45.998Z</time></trkpt><trkpt lat="42.65782999477325" lon="11.911700648939016"><ele>315.0</ele><time>2026-03-22T09:47:46.998Z</time></trkpt><trkpt lat="42.65790867660883" lon="11.911456798831068"><ele>315.0</ele><time>2026-03-22T09:47:47.998Z</time></trkpt><trkpt lat="42.65798689956307" lon="11.911218184842376"><ele>315.0</ele><time>2026-03-22T09:47:48.998Z</time></trkpt><trkpt lat="42.658081008733305" lon="11.910997266245017"><ele>315.0</ele><time>2026-03-22T09:47:49.998Z</time></trkpt><trkpt lat="42.658193373177035" lon="11.91078927663242"><ele>314.3333333333333</ele><time>2026-03-22T09:47:50.997Z</time></trkpt><trkpt lat="42.65831976172506" lon="11.910594032137707"><ele>313.66666666666663</ele><time>2026-03-22T09:47:51.997Z</time></trkpt><trkpt lat="42.658450698369705" lon="11.91043299259841"><ele>313.0</ele><time>2026-03-22T09:47:52.997Z</time></trkpt><trkpt lat="42.65856982360681" lon="11.910267211572915"><ele>313.3333333333333</ele><time>2026-03-22T09:47:53.997Z</time></trkpt><trkpt lat="42.65867867698786" lon="11.910099678002057"><ele>313.6666666666667</ele><time>2026-03-22T09:47:54.997Z</time></trkpt><trkpt lat="42.658773762319726" lon="11.909919142313031"><ele>314.0</ele><time>2026-03-22T09:47:55.997Z</time></trkpt><trkpt lat="42.658868239273204" lon="11.909745311882691"><ele>314.0</ele><time>2026-03-22T09:47:56.997Z</time></trkpt><trkpt lat="42.658989448916394" lon="11.909601149022635"><ele>314.0</ele><time>2026-03-22T09:47:57.997Z</time></trkpt><trkpt lat="42.65913094094072" lon="11.909481437977023"><ele>314.0</ele><time>2026-03-22T09:47:58.997Z</time></trkpt><trkpt lat="42.65927948563795" lon="11.909388830058425"><ele>314.0</ele><time>2026-03-22T09:47:59.997Z</time></trkpt><trkpt lat="42.659454650847906" lon="11.90931893748493"><ele>314.0</ele><time>2026-03-22T09:48:00.997Z</time></trkpt><trkpt lat="42.6596441320196" lon="11.909258654482782"><ele>314.0</ele><time>2026-03-22T09:48:01.997Z</time></trkpt><trkpt lat="42.659848639111345" lon="11.909183310609807"><ele>314.0</ele><time>2026-03-22T09:48:02.997Z</time></trkpt><trkpt lat="42.66004524902927" lon="11.909099194286581"><ele>314.0</ele><time>2026-03-22T09:48:03.997Z</time></trkpt><trkpt lat="42.660246004219935" lon="11.909014241220955"><ele>314.0</ele><time>2026-03-22T09:48:04.997Z</time></trkpt><trkpt lat="42.66045814401478" lon="11.908932873199966"><ele>316.33333333333337</ele><time>2026-03-22T09:48:05.997Z</time></trkpt><trkpt lat="42.660666024572095" lon="11.908834229997055"><ele>318.6666666666667</ele><time>2026-03-22T09:48:06.997Z</time></trkpt><trkpt lat="42.660872653680094" lon="11.908747913178017"><ele>321.0</ele><time>2026-03-22T09:48:07.999Z</time></trkpt><trkpt lat="42.6610715346469" lon="11.908661584299265"><ele>322.6666666666667</ele><time>2026-03-22T09:48:09Z</time></trkpt><trkpt lat="42.66126020690328" lon="11.908579611497744"><ele>324.33333333333337</ele><time>2026-03-22T09:48:10Z</time></trkpt><trkpt lat="42.661456117528544" lon="11.90853782687836"><ele>326.0</ele><time>2026-03-22T09:48:10.999Z</time></trkpt><trkpt lat="42.66166065202255" lon="11.908531999165225"><ele>326.0</ele><time>2026-03-22T09:48:12Z</time></trkpt><trkpt lat="42.6618684051331" lon="11.90854817052745"><ele>326.0</ele><time>2026-03-22T09:48:13Z</time></trkpt><trkpt lat="42.66206834693881" lon="11.908566331586396"><ele>326.0</ele><time>2026-03-22T09:48:14Z</time></trkpt><trkpt lat="42.662267093118146" lon="11.90859707346966"><ele>327.33333333333337</ele><time>2026-03-22T09:48:15Z</time></trkpt><trkpt lat="42.6624637097937" lon="11.908623636840105"><ele>328.6666666666667</ele><time>2026-03-22T09:48:16Z</time></trkpt><trkpt lat="42.6626634767837" lon="11.90867461359783"><ele>330.0</ele><time>2026-03-22T09:48:17Z</time></trkpt><trkpt lat="42.6628789140839" lon="11.908719267555023"><ele>331.5</ele><time>2026-03-22T09:48:18Z</time></trkpt><trkpt lat="42.6631731144426" lon="11.908805982195439"><ele>333.0</ele><time>2026-03-22T09:48:19Z</time></trkpt><trkpt lat="42.66341443631976" lon="11.908857990780707"><ele>334.0</ele><time>2026-03-22T09:48:19.999Z</time></trkpt><trkpt lat="42.66365524990119" lon="11.908848136187155"><ele>335.0</ele><time>2026-03-22T09:48:20.999Z</time></trkpt><trkpt lat="42.663888463231814" lon="11.908778758031728"><ele>335.0</ele><time>2026-03-22T09:48:21.999Z</time></trkpt><trkpt lat="42.66409930099067" lon="11.908687146742515"><ele>335.0</ele><time>2026-03-22T09:48:22.999Z</time></trkpt><trkpt lat="42.66429459604591" lon="11.908606761894628"><ele>335.0</ele><time>2026-03-22T09:48:23.999Z</time></trkpt><trkpt lat="42.66449626395337" lon="11.908513781319279"><ele>332.33333333333337</ele><time>2026-03-22T09:48:24.999Z</time></trkpt><trkpt lat="42.66467898929042" lon="11.908444450034343"><ele>329.6666666666667</ele><time>2026-03-22T09:48:25.999Z</time></trkpt><trkpt lat="42.66484429661468" lon="11.908407676941087"><ele>327.0</ele><time>2026-03-22T09:48:26.999Z</time></trkpt><trkpt lat="42.66499533817305" lon="11.908405642926118"><ele>333.3333333333333</ele><time>2026-03-22T09:48:27.999Z</time></trkpt><trkpt lat="42.66515576475084" lon="11.908452111204117"><ele>339.66666666666663</ele><time>2026-03-22T09:48:28.999Z</time></trkpt><trkpt lat="42.66530757691211" lon="11.908531480917917"><ele>346.0</ele><time>2026-03-22T09:48:29.999Z</time></trkpt><trkpt lat="42.66550741078593" lon="11.908623103597963"><ele>347.66666666666663</ele><time>2026-03-22T09:48:30.999Z</time></trkpt><trkpt lat="42.66574816697801" lon="11.908689431135482"><ele>349.3333333333333</ele><time>2026-03-22T09:48:31.999Z</time></trkpt><trkpt lat="42.665949534113935" lon="11.90872026518896"><ele>351.0</ele><time>2026-03-22T09:48:32.999Z</time></trkpt><trkpt lat="42.66613366320705" lon="11.908742300662079"><ele>351.3333333333333</ele><time>2026-03-22T09:48:33.999Z</time></trkpt><trkpt lat="42.66630328489735" lon="11.908760701352275"><ele>351.66666666666663</ele><time>2026-03-22T09:48:34.999Z</time></trkpt><trkpt lat="42.666481992065684" lon="11.908783605127189"><ele>352.0</ele><time>2026-03-22T09:48:35.999Z</time></trkpt><trkpt lat="42.666628103573295" lon="11.908777473832306"><ele>352.0</ele><time>2026-03-22T09:48:36.999Z</time></trkpt><trkpt lat="42.666779600667084" lon="11.908779284030775"><ele>352.0</ele><time>2026-03-22T09:48:37.999Z</time></trkpt><trkpt lat="42.666935172450415" lon="11.908794739088732"><ele>352.0</ele><time>2026-03-22T09:48:38.999Z</time></trkpt><trkpt lat="42.667083938533196" lon="11.908812280142548"><ele>351.75</ele><time>2026-03-22T09:48:39.999Z</time></trkpt><trkpt lat="42.667227950056514" lon="11.908825723667897"><ele>351.5</ele><time>2026-03-22T09:48:40.999Z</time></trkpt><trkpt lat="42.667368963672914" lon="11.90883785339592"><ele>351.25</ele><time>2026-03-22T09:48:41.999Z</time></trkpt><trkpt lat="42.6674921591652" lon="11.908837959482545"><ele>351.0</ele><time>2026-03-22T09:48:42.999Z</time></trkpt><trkpt lat="42.667610709033134" lon="11.90886009218332"><ele>351.0</ele><time>2026-03-22T09:48:43.999Z</time></trkpt><trkpt lat="42.6677210791001" lon="11.908911336422017"><ele>351.0</ele><time>2026-03-22T09:48:44.999Z</time></trkpt><trkpt lat="42.66782888789319" lon="11.908990077961603"><ele>351.0</ele><time>2026-03-22T09:48:45.999Z</time></trkpt><trkpt lat="42.667935434112124" lon="11.909086062415925"><ele>351.0</ele><time>2026-03-22T09:48:46.999Z</time></trkpt><trkpt lat="42.66803019914458" lon="11.90919662974076"><ele>351.25</ele><time>2026-03-22T09:48:47.999Z</time></trkpt><trkpt lat="42.66810224943645" lon="11.909314181951578"><ele>351.5</ele><time>2026-03-22T09:48:48.999Z</time></trkpt><trkpt lat="42.66816536705988" lon="11.909442092922747"><ele>351.75</ele><time>2026-03-22T09:48:49.999Z</time></trkpt><trkpt lat="42.668217091797494" lon="11.909584425448305"><ele>352.0</ele><time>2026-03-22T09:48:50.999Z</time></trkpt><trkpt lat="42.668247164700425" lon="11.909748718880317"><ele>352.0</ele><time>2026-03-22T09:48:51.999Z</time></trkpt><trkpt lat="42.668269251111774" lon="11.909920290306776"><ele>352.0</ele><time>2026-03-22T09:48:52.999Z</time></trkpt><trkpt lat="42.66828605607306" lon="11.910110118543132"><ele>352.0</ele><time>2026-03-22T09:48:53.999Z</time></trkpt><trkpt lat="42.668314776609975" lon="11.910317327837634"><ele>352.0</ele><time>2026-03-22T09:48:54.999Z</time></trkpt><trkpt lat="42.6683519054919" lon="11.910510118903082"><ele>353.5</ele><time>2026-03-22T09:48:55.999Z</time></trkpt><trkpt lat="42.66839649530979" lon="11.910690482964572"><ele>355.0</ele><time>2026-03-22T09:48:56.999Z</time></trkpt><trkpt lat="42.668450618212304" lon="11.9108668479203"><ele>356.5</ele><time>2026-03-22T09:48:57.999Z</time></trkpt><trkpt lat="42.668504994289286" lon="11.911043770819564"><ele>358.0</ele><time>2026-03-22T09:48:58.999Z</time></trkpt><trkpt lat="42.66856945425952" lon="11.911212217396896"><ele>357.25</ele><time>2026-03-22T09:48:59.999Z</time></trkpt><trkpt lat="42.66864087504459" lon="11.911376911953782"><ele>356.5</ele><time>2026-03-22T09:49:00.999Z</time></trkpt><trkpt lat="42.668710331613106" lon="11.911533051825273"><ele>355.75</ele><time>2026-03-22T09:49:01.999Z</time></trkpt><trkpt lat="42.66876908952172" lon="11.911686149711267"><ele>355.0</ele><time>2026-03-22T09:49:02.998Z</time></trkpt><trkpt lat="42.6688242115896" lon="11.911853278307722"><ele>355.0</ele><time>2026-03-22T09:49:03.998Z</time></trkpt><trkpt lat="42.66887590930935" lon="11.912037311147877"><ele>355.0</ele><time>2026-03-22T09:49:04.998Z</time></trkpt><trkpt lat="42.66891699474632" lon="11.912223398648072"><ele>355.0</ele><time>2026-03-22T09:49:05.998Z</time></trkpt><trkpt lat="42.668946307196805" lon="11.912406987858786"><ele>355.0</ele><time>2026-03-22T09:49:06.998Z</time></trkpt><trkpt lat="42.668976100022775" lon="11.912584419855735"><ele>356.5</ele><time>2026-03-22T09:49:07.998Z</time></trkpt><trkpt lat="42.66900440677281" lon="11.912764587501327"><ele>358.0</ele><time>2026-03-22T09:49:08.998Z</time></trkpt><trkpt lat="42.66902674896762" lon="11.912946159234032"><ele>359.5</ele><time>2026-03-22T09:49:09.998Z</time></trkpt><trkpt lat="42.669047999287486" lon="11.913125939170795"><ele>361.0</ele><time>2026-03-22T09:49:10.998Z</time></trkpt><trkpt lat="42.66906433600621" lon="11.913295133055133"><ele>362.0</ele><time>2026-03-22T09:49:11.998Z</time></trkpt><trkpt lat="42.669070691133676" lon="11.91345980182547"><ele>363.0</ele><time>2026-03-22T09:49:12.998Z</time></trkpt><trkpt lat="42.66906223040095" lon="11.913634760753679"><ele>364.0</ele><time>2026-03-22T09:49:13.998Z</time></trkpt><trkpt lat="42.66903078587933" lon="11.91381470170227"><ele>365.0</ele><time>2026-03-22T09:49:14.998Z</time></trkpt><trkpt lat="42.668996283667035" lon="11.914000900209166"><ele>365.0</ele><time>2026-03-22T09:49:15.998Z</time></trkpt><trkpt lat="42.668967980143805" lon="11.91419453313591"><ele>365.0</ele><time>2026-03-22T09:49:16.998Z</time></trkpt><trkpt lat="42.668941592534644" lon="11.914385907460384"><ele>365.0</ele><time>2026-03-22T09:49:17.998Z</time></trkpt><trkpt lat="42.668909911342936" lon="11.914576704738463"><ele>365.0</ele><time>2026-03-22T09:49:18.998Z</time></trkpt><trkpt lat="42.66888437935745" lon="11.91475694993817"><ele>365.5</ele><time>2026-03-22T09:49:19.998Z</time></trkpt><trkpt lat="42.66886651450673" lon="11.91493939993118"><ele>366.0</ele><time>2026-03-22T09:49:20.998Z</time></trkpt><trkpt lat="42.66885257574839" lon="11.915130016327641"><ele>366.5</ele><time>2026-03-22T09:49:21.998Z</time></trkpt><trkpt lat="42.66885993903932" lon="11.915325507530738"><ele>367.0</ele><time>2026-03-22T09:49:22.998Z</time></trkpt><trkpt lat="42.66889134687755" lon="11.915528819616275"><ele>369.0</ele><time>2026-03-22T09:49:23.998Z</time></trkpt><trkpt lat="42.668920748563174" lon="11.915758475591472"><ele>371.0</ele><time>2026-03-22T09:49:24.998Z</time></trkpt><trkpt lat="42.668976591660645" lon="11.916042448802209"><ele>373.0</ele><time>2026-03-22T09:49:25.998Z</time></trkpt><trkpt lat="42.66904169966252" lon="11.916356917671921"><ele>373.0</ele><time>2026-03-22T09:49:26.998Z</time></trkpt><trkpt lat="42.66911284485443" lon="11.916645488402285"><ele>373.0</ele><time>2026-03-22T09:49:27.998Z</time></trkpt><trkpt lat="42.6691979642772" lon="11.916917421570671"><ele>373.0</ele><time>2026-03-22T09:49:28.998Z</time></trkpt><trkpt lat="42.669303766211435" lon="11.917174516704678"><ele>373.3333333333333</ele><time>2026-03-22T09:49:29.998Z</time></trkpt><trkpt lat="42.66942700391902" lon="11.917414448046157"><ele>373.6666666666667</ele><time>2026-03-22T09:49:30.998Z</time></trkpt><trkpt lat="42.669563967365825" lon="11.917640983397584"><ele>374.0</ele><time>2026-03-22T09:49:31.998Z</time></trkpt><trkpt lat="42.66971053912615" lon="11.917846474524037"><ele>375.0</ele><time>2026-03-22T09:49:32.998Z</time></trkpt><trkpt lat="42.669874286224854" lon="11.918020202007988"><ele>376.0</ele><time>2026-03-22T09:49:33.998Z</time></trkpt><trkpt lat="42.67003569559755" lon="11.918191403226972"><ele>377.0</ele><time>2026-03-22T09:49:34.998Z</time></trkpt><trkpt lat="42.670206642885624" lon="11.91833816561924"><ele>378.6666666666667</ele><time>2026-03-22T09:49:35.998Z</time></trkpt><trkpt lat="42.67038802804211" lon="11.918456852695405"><ele>380.3333333333333</ele><time>2026-03-22T09:49:36.998Z</time></trkpt><trkpt lat="42.67057673476159" lon="11.918553549845171"><ele>382.0</ele><time>2026-03-22T09:49:37.998Z</time></trkpt><trkpt lat="42.67076111713899" lon="11.918648077005042"><ele>382.0</ele><time>2026-03-22T09:49:38.998Z</time></trkpt><trkpt lat="42.67095830191993" lon="11.918715130051995"><ele>382.0</ele><time>2026-03-22T09:49:39.998Z</time></trkpt><trkpt lat="42.67116041722102" lon="11.918756333167842"><ele>382.0</ele><time>2026-03-22T09:49:40.998Z</time></trkpt><trkpt lat="42.67136485717423" lon="11.918773596218271"><ele>381.3333333333333</ele><time>2026-03-22T09:49:41.998Z</time></trkpt><trkpt lat="42.671575939694925" lon="11.918773026884608"><ele>380.6666666666667</ele><time>2026-03-22T09:49:42.998Z</time></trkpt><trkpt lat="42.67179443713319" lon="11.918768710370955"><ele>380.0</ele><time>2026-03-22T09:49:43.998Z</time></trkpt><trkpt lat="42.67201255962683" lon="11.918768460535093"><ele>378.33333333333337</ele><time>2026-03-22T09:49:44.998Z</time></trkpt><trkpt lat="42.67223246474876" lon="11.918764067971255"><ele>376.6666666666667</ele><time>2026-03-22T09:49:45.998Z</time></trkpt><trkpt lat="42.672455077382686" lon="11.918752762828552"><ele>375.0</ele><time>2026-03-22T09:49:46.998Z</time></trkpt><trkpt lat="42.672677132116185" lon="11.918746478692603"><ele>376.0</ele><time>2026-03-22T09:49:47.998Z</time></trkpt><trkpt lat="42.67288994063426" lon="11.918750194774848"><ele>377.0</ele><time>2026-03-22T09:49:48.998Z</time></trkpt><trkpt lat="42.67310053944073" lon="11.918741746357998"><ele>378.0</ele><time>2026-03-22T09:49:49.997Z</time></trkpt><trkpt lat="42.67330444517598" lon="11.918734765563581"><ele>378.0</ele><time>2026-03-22T09:49:50.997Z</time></trkpt><trkpt lat="42.67349489116597" lon="11.91872835335263"><ele>378.0</ele><time>2026-03-22T09:49:51.997Z</time></trkpt><trkpt lat="42.67368401165013" lon="11.918722321179073"><ele>378.0</ele><time>2026-03-22T09:49:52.997Z</time></trkpt><trkpt lat="42.673869952903495" lon="11.918710733690714"><ele>380.0</ele><time>2026-03-22T09:49:53.997Z</time></trkpt><trkpt lat="42.67405187361973" lon="11.91870068248499"><ele>382.0</ele><time>2026-03-22T09:49:54.997Z</time></trkpt><trkpt lat="42.67422668259393" lon="11.918688137596305"><ele>384.0</ele><time>2026-03-22T09:49:55.997Z</time></trkpt><trkpt lat="42.67440223577724" lon="11.918674765646559"><ele>385.66666666666663</ele><time>2026-03-22T09:49:56.997Z</time></trkpt><trkpt lat="42.67458791342086" lon="11.918667588480732"><ele>387.3333333333333</ele><time>2026-03-22T09:49:57.997Z</time></trkpt><trkpt lat="42.67476709716763" lon="11.918662031855957"><ele>389.0</ele><time>2026-03-22T09:49:58.997Z</time></trkpt><trkpt lat="42.67494800734499" lon="11.918667005798964"><ele>389.0</ele><time>2026-03-22T09:49:59.997Z</time></trkpt><trkpt lat="42.675134170786855" lon="11.918675396626366"><ele>389.0</ele><time>2026-03-22T09:50:00.997Z</time></trkpt><trkpt lat="42.67530695794276" lon="11.918666551573313"><ele>389.0</ele><time>2026-03-22T09:50:01.997Z</time></trkpt><trkpt lat="42.6754813149858" lon="11.918659742735633"><ele>390.66666666666663</ele><time>2026-03-22T09:50:02.997Z</time></trkpt><trkpt lat="42.675662401924896" lon="11.918651260470245"><ele>392.33333333333337</ele><time>2026-03-22T09:50:03.997Z</time></trkpt><trkpt lat="42.67585179017356" lon="11.918642403716635"><ele>394.0</ele><time>2026-03-22T09:50:04.997Z</time></trkpt><trkpt lat="42.67603598858971" lon="11.91862915552902"><ele>395.6666666666667</ele><time>2026-03-22T09:50:05.997Z</time></trkpt><trkpt lat="42.676217428524865" lon="11.91861856999404"><ele>397.33333333333337</ele><time>2026-03-22T09:50:06.997Z</time></trkpt><trkpt lat="42.67640461558129" lon="11.918613417178781"><ele>399.0</ele><time>2026-03-22T09:50:07.997Z</time></trkpt><trkpt lat="42.676587676043724" lon="11.918608363714759"><ele>399.0</ele><time>2026-03-22T09:50:08.997Z</time></trkpt><trkpt lat="42.67676942662996" lon="11.918605822759028"><ele>399.0</ele><time>2026-03-22T09:50:09.997Z</time></trkpt><trkpt lat="42.67695009706307" lon="11.918599834313229"><ele>399.0</ele><time>2026-03-22T09:50:10.997Z</time></trkpt><trkpt lat="42.677130658667" lon="11.918593332053662"><ele>400.0</ele><time>2026-03-22T09:50:11.997Z</time></trkpt><trkpt lat="42.67731591526088" lon="11.918587119382746"><ele>401.0</ele><time>2026-03-22T09:50:12.997Z</time></trkpt><trkpt lat="42.677502184200854" lon="11.918575950218907"><ele>402.0</ele><time>2026-03-22T09:50:14Z</time></trkpt><trkpt lat="42.67768912198814" lon="11.918564767656745"><ele>403.66666666666663</ele><time>2026-03-22T09:50:14.999Z</time></trkpt><trkpt lat="42.677875860877975" lon="11.918555950496431"><ele>405.3333333333333</ele><time>2026-03-22T09:50:15.999Z</time></trkpt><trkpt lat="42.67805959068918" lon="11.918552234930658"><ele>407.0</ele><time>2026-03-22T09:50:17Z</time></trkpt><trkpt lat="42.67823841505086" lon="11.918550803133355"><ele>407.0</ele><time>2026-03-22T09:50:18Z</time></trkpt><trkpt lat="42.678418463251305" lon="11.918544217330501"><ele>407.0</ele><time>2026-03-22T09:50:19Z</time></trkpt><trkpt lat="42.67859355580825" lon="11.918525117173191"><ele>407.0</ele><time>2026-03-22T09:50:20Z</time></trkpt><trkpt lat="42.67876427251606" lon="11.918497498203296"><ele>409.3333333333333</ele><time>2026-03-22T09:50:21Z</time></trkpt><trkpt lat="42.67893901799521" lon="11.918459729718302"><ele>411.66666666666663</ele><time>2026-03-22T09:50:22Z</time></trkpt><trkpt lat="42.67911263363793" lon="11.918405979993386"><ele>414.0</ele><time>2026-03-22T09:50:23Z</time></trkpt><trkpt lat="42.67928353198198" lon="11.918329501856586"><ele>418.0</ele><time>2026-03-22T09:50:23.999Z</time></trkpt><trkpt lat="42.679445286780556" lon="11.918238227997351"><ele>422.0</ele><time>2026-03-22T09:50:24.999Z</time></trkpt><trkpt lat="42.67959568389503" lon="11.918127961192845"><ele>426.0</ele><time>2026-03-22T09:50:26Z</time></trkpt><trkpt lat="42.679742628465114" lon="11.91799477858198"><ele>426.0</ele><time>2026-03-22T09:50:27Z</time></trkpt><trkpt lat="42.6798758749058" lon="11.91784709147507"><ele>426.0</ele><time>2026-03-22T09:50:28Z</time></trkpt><trkpt lat="42.6800002880724" lon="11.917682195789636"><ele>426.0</ele><time>2026-03-22T09:50:29Z</time></trkpt><trkpt lat="42.68012129562383" lon="11.917502750564243"><ele>425.0</ele><time>2026-03-22T09:50:30Z</time></trkpt><trkpt lat="42.68023062168439" lon="11.91730530962678"><ele>424.0</ele><time>2026-03-22T09:50:31Z</time></trkpt><trkpt lat="42.680327231858186" lon="11.91709372931592"><ele>423.0</ele><time>2026-03-22T09:50:32Z</time></trkpt><trkpt lat="42.68042456622592" lon="11.916884764712506"><ele>427.0</ele><time>2026-03-22T09:50:33Z</time></trkpt><trkpt lat="42.68053736304888" lon="11.916691199881477"><ele>431.0</ele><time>2026-03-22T09:50:34Z</time></trkpt><trkpt lat="42.68066506905081" lon="11.91652557033093"><ele>435.0</ele><time>2026-03-22T09:50:35Z</time></trkpt><trkpt lat="42.68081530491007" lon="11.9163901907569"><ele>435.0</ele><time>2026-03-22T09:50:36Z</time></trkpt><trkpt lat="42.68097778259789" lon="11.916282014214083"><ele>435.0</ele><time>2026-03-22T09:50:37Z</time></trkpt><trkpt lat="42.68115134394367" lon="11.91621324088701"><ele>435.0</ele><time>2026-03-22T09:50:38Z</time></trkpt><trkpt lat="42.681337959533614" lon="11.916176929886701"><ele>437.66666666666663</ele><time>2026-03-22T09:50:39Z</time></trkpt><trkpt lat="42.68153226035406" lon="11.916177221218287"><ele>440.3333333333333</ele><time>2026-03-22T09:50:40Z</time></trkpt><trkpt lat="42.68171766415718" lon="11.916222520765"><ele>443.0</ele><time>2026-03-22T09:50:41Z</time></trkpt><trkpt lat="42.68190049604415" lon="11.916306144145171"><ele>443.0</ele><time>2026-03-22T09:50:42Z</time></trkpt><trkpt lat="42.68208854211112" lon="11.916418863033838"><ele>443.0</ele><time>2026-03-22T09:50:43Z</time></trkpt><trkpt lat="42.68226942156494" lon="11.916527046311908"><ele>443.0</ele><time>2026-03-22T09:50:44Z</time></trkpt><trkpt lat="42.682419412476236" lon="11.916645113477683"><ele>443.66666666666663</ele><time>2026-03-22T09:50:45Z</time></trkpt><trkpt lat="42.682582015657" lon="11.916745977137843"><ele>444.33333333333337</ele><time>2026-03-22T09:50:46Z</time></trkpt><trkpt lat="42.682748120232084" lon="11.91681806198262"><ele>445.0</ele><time>2026-03-22T09:50:47Z</time></trkpt><trkpt lat="42.682916040571094" lon="11.916921796052211"><ele>445.0</ele><time>2026-03-22T09:50:48Z</time></trkpt><trkpt lat="42.68309309609276" lon="11.916970253373977"><ele>445.0</ele><time>2026-03-22T09:50:49Z</time></trkpt><trkpt lat="42.68326110863226" lon="11.916982612061435"><ele>445.0</ele><time>2026-03-22T09:50:50Z</time></trkpt><trkpt lat="42.68341865387077" lon="11.916914651947328"><ele>445.0</ele><time>2026-03-22T09:50:51Z</time></trkpt><trkpt lat="42.68355618096155" lon="11.916831631938434"><ele>445.0</ele><time>2026-03-22T09:50:52Z</time></trkpt><trkpt lat="42.68367838316119" lon="11.916701139379109"><ele>445.0</ele><time>2026-03-22T09:50:53Z</time></trkpt><trkpt lat="42.683794302430776" lon="11.916540564571036"><ele>446.33333333333337</ele><time>2026-03-22T09:50:54Z</time></trkpt><trkpt lat="42.68391192354457" lon="11.916355630461558"><ele>447.66666666666663</ele><time>2026-03-22T09:50:55Z</time></trkpt><trkpt lat="42.68403185650815" lon="11.916182429881436"><ele>449.0</ele><time>2026-03-22T09:50:56Z</time></trkpt><trkpt lat="42.684151152796986" lon="11.91600695884941"><ele>449.0</ele><time>2026-03-22T09:50:57Z</time></trkpt><trkpt lat="42.684275205483665" lon="11.915829154924975"><ele>449.0</ele><time>2026-03-22T09:50:58Z</time></trkpt><trkpt lat="42.684395752919166" lon="11.915642605003198"><ele>449.0</ele><time>2026-03-22T09:50:59Z</time></trkpt><trkpt lat="42.6845148884228" lon="11.915443250779155"><ele>454.0</ele><time>2026-03-22T09:51:00Z</time></trkpt><trkpt lat="42.68463788016351" lon="11.915248813986672"><ele>459.0</ele><time>2026-03-22T09:51:01Z</time></trkpt><trkpt lat="42.68474642043289" lon="11.91504604708554"><ele>464.0</ele><time>2026-03-22T09:51:02Z</time></trkpt><trkpt lat="42.68484538384702" lon="11.914842829542739"><ele>464.0</ele><time>2026-03-22T09:51:03Z</time></trkpt><trkpt lat="42.684915085688665" lon="11.914620266440796"><ele>464.0</ele><time>2026-03-22T09:51:03.999Z</time></trkpt><trkpt lat="42.684956342847116" lon="11.914385813050869"><ele>464.0</ele><time>2026-03-22T09:51:04.999Z</time></trkpt><trkpt lat="42.68497088220691" lon="11.914142848205731"><ele>466.3333333333333</ele><time>2026-03-22T09:51:05.999Z</time></trkpt><trkpt lat="42.684963009174226" lon="11.913900572288306"><ele>468.66666666666663</ele><time>2026-03-22T09:51:06.999Z</time></trkpt><trkpt lat="42.684934202889224" lon="11.913663015469208"><ele>471.0</ele><time>2026-03-22T09:51:07.999Z</time></trkpt><trkpt lat="42.68489176858521" lon="11.913424019083058"><ele>473.33333333333337</ele><time>2026-03-22T09:51:08.999Z</time></trkpt><trkpt lat="42.684845367028394" lon="11.913180020131112"><ele>475.6666666666667</ele><time>2026-03-22T09:51:09.999Z</time></trkpt><trkpt lat="42.68480879395989" lon="11.912928922874817"><ele>478.0</ele><time>2026-03-22T09:51:10.999Z</time></trkpt><trkpt lat="42.68477321950923" lon="11.912683769541546"><ele>479.6666666666667</ele><time>2026-03-22T09:51:11.999Z</time></trkpt><trkpt lat="42.684729043269094" lon="11.912439588292102"><ele>481.33333333333337</ele><time>2026-03-22T09:51:12.999Z</time></trkpt><trkpt lat="42.68468071654689" lon="11.912207452380937"><ele>483.0</ele><time>2026-03-22T09:51:13.999Z</time></trkpt><trkpt lat="42.684646826857325" lon="11.911964071926613"><ele>484.0</ele><time>2026-03-22T09:51:14.999Z</time></trkpt><trkpt lat="42.68463293998756" lon="11.911715056962006"><ele>485.0</ele><time>2026-03-22T09:51:15.999Z</time></trkpt><trkpt lat="42.684618234549085" lon="11.9114699353685"><ele>486.0</ele><time>2026-03-22T09:51:16.999Z</time></trkpt><trkpt lat="42.68460932884785" lon="11.911230329193163"><ele>486.0</ele><time>2026-03-22T09:51:17.999Z</time></trkpt><trkpt lat="42.68461545422168" lon="11.910993337947327"><ele>486.0</ele><time>2026-03-22T09:51:18.999Z</time></trkpt><trkpt lat="42.684616119263126" lon="11.910760666316332"><ele>486.0</ele><time>2026-03-22T09:51:19.999Z</time></trkpt><trkpt lat="42.68460786409027" lon="11.91053504819655"><ele>486.33333333333337</ele><time>2026-03-22T09:51:20.999Z</time></trkpt><trkpt lat="42.684586826895426" lon="11.910319813116988"><ele>486.6666666666667</ele><time>2026-03-22T09:51:21.999Z</time></trkpt><trkpt lat="42.68454612866967" lon="11.91010902635088"><ele>487.0</ele><time>2026-03-22T09:51:22.999Z</time></trkpt><trkpt lat="42.6844944537262" lon="11.909902398612655"><ele>485.6666666666667</ele><time>2026-03-22T09:51:23.999Z</time></trkpt><trkpt lat="42.684433347715434" lon="11.909693912480877"><ele>484.33333333333337</ele><time>2026-03-22T09:51:24.999Z</time></trkpt><trkpt lat="42.68437084531985" lon="11.909479520985167"><ele>483.0</ele><time>2026-03-22T09:51:25.999Z</time></trkpt><trkpt lat="42.68430442959616" lon="11.909268536256283"><ele>480.33333333333337</ele><time>2026-03-22T09:51:26.999Z</time></trkpt><trkpt lat="42.684237387596795" lon="11.90905892303596"><ele>477.6666666666667</ele><time>2026-03-22T09:51:27.999Z</time></trkpt><trkpt lat="42.68416498611463" lon="11.908841855778103"><ele>475.0</ele><time>2026-03-22T09:51:28.999Z</time></trkpt><trkpt lat="42.68410366616842" lon="11.908613107454078"><ele>477.6666666666667</ele><time>2026-03-22T09:51:29.999Z</time></trkpt><trkpt lat="42.68406793417397" lon="11.908388747992976"><ele>480.33333333333337</ele><time>2026-03-22T09:51:30.999Z</time></trkpt><trkpt lat="42.6840593412097" lon="11.908159143087126"><ele>483.0</ele><time>2026-03-22T09:51:31.999Z</time></trkpt><trkpt lat="42.6840888130293" lon="11.907941364680225"><ele>483.0</ele><time>2026-03-22T09:51:32.999Z</time></trkpt><trkpt lat="42.68414297816777" lon="11.90775856452483"><ele>483.0</ele><time>2026-03-22T09:51:33.999Z</time></trkpt><trkpt lat="42.68422376942443" lon="11.907604510300587"><ele>483.0</ele><time>2026-03-22T09:51:34.999Z</time></trkpt><trkpt lat="42.6843222850729" lon="11.90747973313701"><ele>483.0</ele><time>2026-03-22T09:51:35.999Z</time></trkpt><trkpt lat="42.68442121168998" lon="11.907369958629513"><ele>485.2</ele><time>2026-03-22T09:51:36.999Z</time></trkpt><trkpt lat="42.68451311701642" lon="11.90727753438977"><ele>487.4</ele><time>2026-03-22T09:51:37.999Z</time></trkpt><trkpt lat="42.684600830376795" lon="11.907207375826882"><ele>489.59999999999997</ele><time>2026-03-22T09:51:38.999Z</time></trkpt><trkpt lat="42.68467633177949" lon="11.90714944983425"><ele>491.79999999999995</ele><time>2026-03-22T09:51:39.999Z</time></trkpt><trkpt lat="42.684745163064576" lon="11.907096891541384"><ele>494.0</ele><time>2026-03-22T09:51:40.999Z</time></trkpt><trkpt lat="42.684804473655355" lon="11.907051096383642"><ele>494.0</ele><time>2026-03-22T09:51:41.999Z</time></trkpt><trkpt lat="42.684906510081206" lon="11.906977598550892"><ele>494.0</ele><time>2026-03-22T09:51:43.999Z</time></trkpt><trkpt lat="42.68498244278843" lon="11.906923613826608"><ele>494.0</ele><time>2026-03-22T09:51:45.999Z</time></trkpt><trkpt lat="42.68505098986284" lon="11.906876382422267"><ele>494.0</ele><time>2026-03-22T09:51:47.999Z</time></trkpt><trkpt lat="42.68511861085693" lon="11.906828815455341"><ele>494.0</ele><time>2026-03-22T09:51:49.999Z</time></trkpt><trkpt lat="42.68521207042644" lon="11.906744838608722"><ele>494.2</ele><time>2026-03-22T09:51:51.998Z</time></trkpt><trkpt lat="42.68532697615394" lon="11.906657351467313"><ele>494.4</ele><time>2026-03-22T09:51:53.998Z</time></trkpt><trkpt lat="42.68539213891123" lon="11.906604659310474"><ele>494.6</ele><time>2026-03-22T09:51:54.998Z</time></trkpt><trkpt lat="42.68546682889454" lon="11.906564667467386"><ele>494.8</ele><time>2026-03-22T09:51:55.998Z</time></trkpt><trkpt lat="42.68554469093721" lon="11.906510619540338"><ele>495.0</ele><time>2026-03-22T09:51:56.998Z</time></trkpt><trkpt lat="42.685625263463265" lon="11.906449117334429"><ele>495.0</ele><time>2026-03-22T09:51:57.998Z</time></trkpt><trkpt lat="42.68571259844912" lon="11.906392060253648"><ele>495.0</ele><time>2026-03-22T09:51:58.998Z</time></trkpt><trkpt lat="42.68579347475186" lon="11.906336763947188"><ele>495.0</ele><time>2026-03-22T09:51:59.998Z</time></trkpt><trkpt lat="42.685866828119835" lon="11.906283484974104"><ele>495.0</ele><time>2026-03-22T09:52:00.998Z</time></trkpt><trkpt lat="42.68593626222685" lon="11.906234498101972"><ele>495.0</ele><time>2026-03-22T09:52:01.998Z</time></trkpt><trkpt lat="42.68600123320224" lon="11.906191638181598"><ele>495.0</ele><time>2026-03-22T09:52:02.998Z</time></trkpt><trkpt lat="42.68605658984914" lon="11.906144853586339"><ele>495.1666666666667</ele><time>2026-03-22T09:52:03.998Z</time></trkpt><trkpt lat="42.68611572782994" lon="11.906104368320912"><ele>495.33333333333337</ele><time>2026-03-22T09:52:04.998Z</time></trkpt><trkpt lat="42.68617669274267" lon="11.906063246783336"><ele>495.5</ele><time>2026-03-22T09:52:05.998Z</time></trkpt><trkpt lat="42.68628507521327" lon="11.905988347363081"><ele>495.6666666666667</ele><time>2026-03-22T09:52:07.998Z</time></trkpt><trkpt lat="42.686347582492" lon="11.905942211268439"><ele>495.83333333333337</ele><time>2026-03-22T09:52:08.998Z</time></trkpt><trkpt lat="42.68641892785885" lon="11.905891943990028"><ele>496.0</ele><time>2026-03-22T09:52:09.998Z</time></trkpt><trkpt lat="42.68649293770182" lon="11.905833530555567"><ele>495.6</ele><time>2026-03-22T09:52:10.998Z</time></trkpt><trkpt lat="42.686570149057545" lon="11.905763490647319"><ele>495.20000000000005</ele><time>2026-03-22T09:52:11.998Z</time></trkpt><trkpt lat="42.68666712893975" lon="11.90571193661948"><ele>494.79999999999995</ele><time>2026-03-22T09:52:12.998Z</time></trkpt><trkpt lat="42.68676762571593" lon="11.905639224742208"><ele>494.4</ele><time>2026-03-22T09:52:13.998Z</time></trkpt><trkpt lat="42.68687870680863" lon="11.90556162358233"><ele>494.0</ele><time>2026-03-22T09:52:14.998Z</time></trkpt><trkpt lat="42.68699740835742" lon="11.905477999608463"><ele>493.25</ele><time>2026-03-22T09:52:15.998Z</time></trkpt><trkpt lat="42.68712039156904" lon="11.905391096295762"><ele>492.5</ele><time>2026-03-22T09:52:16.998Z</time></trkpt><trkpt lat="42.68724921116559" lon="11.90530006712387"><ele>491.75</ele><time>2026-03-22T09:52:17.998Z</time></trkpt><trkpt lat="42.68736437996696" lon="11.905157791594545"><ele>491.0</ele><time>2026-03-22T09:52:18.998Z</time></trkpt><trkpt lat="42.687498258665045" lon="11.905063590515656"><ele>489.66666666666663</ele><time>2026-03-22T09:52:20Z</time></trkpt><trkpt lat="42.687635095775725" lon="11.904967363463657"><ele>488.33333333333337</ele><time>2026-03-22T09:52:21Z</time></trkpt><trkpt lat="42.68777003231987" lon="11.904873583943292"><ele>487.0</ele><time>2026-03-22T09:52:22Z</time></trkpt><trkpt lat="42.68792415633915" lon="11.904820054927379"><ele>487.0</ele><time>2026-03-22T09:52:23Z</time></trkpt><trkpt lat="42.688060886293464" lon="11.904720784954447"><ele>487.0</ele><time>2026-03-22T09:52:24Z</time></trkpt><trkpt lat="42.68819823808169" lon="11.904621344235874"><ele>487.0</ele><time>2026-03-22T09:52:25Z</time></trkpt><trkpt lat="42.6883396929261" lon="11.90452150544882"><ele>487.0</ele><time>2026-03-22T09:52:26Z</time></trkpt><trkpt lat="42.68848436190968" lon="11.904419221216752"><ele>487.0</ele><time>2026-03-22T09:52:27Z</time></trkpt><trkpt lat="42.68863573834746" lon="11.904312196215477"><ele>487.0</ele><time>2026-03-22T09:52:28Z</time></trkpt><trkpt lat="42.68877266215356" lon="11.904219766727618"><ele>485.0</ele><time>2026-03-22T09:52:29Z</time></trkpt><trkpt lat="42.68894797078733" lon="11.904134052218081"><ele>483.0</ele><time>2026-03-22T09:52:30Z</time></trkpt><trkpt lat="42.689118049292865" lon="11.904102019221357"><ele>481.0</ele><time>2026-03-22T09:52:31Z</time></trkpt><trkpt lat="42.68930530257235" lon="11.904106580236485"><ele>479.6666666666667</ele><time>2026-03-22T09:52:32Z</time></trkpt><trkpt lat="42.689493438784865" lon="11.90412059458255"><ele>478.33333333333337</ele><time>2026-03-22T09:52:33Z</time></trkpt><trkpt lat="42.689691506636976" lon="11.904126872219168"><ele>477.0</ele><time>2026-03-22T09:52:34Z</time></trkpt><trkpt lat="42.68988658530002" lon="11.904103378735826"><ele>477.0</ele><time>2026-03-22T09:52:35Z</time></trkpt><trkpt lat="42.69007136063828" lon="11.904007541253735"><ele>477.0</ele><time>2026-03-22T09:52:36Z</time></trkpt><trkpt lat="42.690265918450265" lon="11.903908448418003"><ele>477.0</ele><time>2026-03-22T09:52:37Z</time></trkpt><trkpt lat="42.69047728168444" lon="11.90379906878905"><ele>475.0</ele><time>2026-03-22T09:52:38Z</time></trkpt><trkpt lat="42.69068163523827" lon="11.903692291876643"><ele>473.0</ele><time>2026-03-22T09:52:39Z</time></trkpt><trkpt lat="42.690884537423635" lon="11.90358177470325"><ele>471.0</ele><time>2026-03-22T09:52:40Z</time></trkpt><trkpt lat="42.69108353558621" lon="11.903473884149365"><ele>471.33333333333337</ele><time>2026-03-22T09:52:41Z</time></trkpt><trkpt lat="42.691302228193294" lon="11.903420491297165"><ele>471.6666666666667</ele><time>2026-03-22T09:52:42Z</time></trkpt><trkpt lat="42.691515673869596" lon="11.903364231750652"><ele>472.0</ele><time>2026-03-22T09:52:43Z</time></trkpt><trkpt lat="42.69173191878203" lon="11.90331912823986"><ele>470.6666666666667</ele><time>2026-03-22T09:52:43.999Z</time></trkpt><trkpt lat="42.69194772594614" lon="11.90327662391287"><ele>469.33333333333337</ele><time>2026-03-22T09:52:44.999Z</time></trkpt><trkpt lat="42.69216285032188" lon="11.903232863641373"><ele>468.0</ele><time>2026-03-22T09:52:45.999Z</time></trkpt><trkpt lat="42.692376829485134" lon="11.903189611802206"><ele>468.0</ele><time>2026-03-22T09:52:46.999Z</time></trkpt><trkpt lat="42.692588701111404" lon="11.903149035941256"><ele>468.0</ele><time>2026-03-22T09:52:47.999Z</time></trkpt><trkpt lat="42.692799952723476" lon="11.903107836454812"><ele>468.0</ele><time>2026-03-22T09:52:48.999Z</time></trkpt><trkpt lat="42.69301192556847" lon="11.903066881797455"><ele>467.66666666666663</ele><time>2026-03-22T09:52:49.999Z</time></trkpt><trkpt lat="42.69322496247428" lon="11.903025376093783"><ele>467.3333333333333</ele><time>2026-03-22T09:52:50.998Z</time></trkpt><trkpt lat="42.69342332798811" lon="11.902974814408818"><ele>467.0</ele><time>2026-03-22T09:52:51.998Z</time></trkpt><trkpt lat="42.6936073081016" lon="11.902959703251591"><ele>466.66666666666663</ele><time>2026-03-22T09:52:52.998Z</time></trkpt><trkpt lat="42.69376035002032" lon="11.902930695401881"><ele>466.33333333333337</ele><time>2026-03-22T09:52:53.998Z</time></trkpt><trkpt lat="42.69390921190582" lon="11.9029024798649"><ele>466.0</ele><time>2026-03-22T09:52:54.997Z</time></trkpt><trkpt lat="42.69406036750811" lon="11.902873829562445"><ele>466.0</ele><time>2026-03-22T09:52:55.997Z</time></trkpt><trkpt lat="42.69421756591262" lon="11.902844033874915"><ele>466.0</ele><time>2026-03-22T09:52:56.997Z</time></trkpt><trkpt lat="42.694381765288824" lon="11.902812911218868"><ele>466.0</ele><time>2026-03-22T09:52:57.997Z</time></trkpt><trkpt lat="42.69458689836603" lon="11.902773136097737"><ele>465.33333333333337</ele><time>2026-03-22T09:52:58.997Z</time></trkpt><trkpt lat="42.694765646327966" lon="11.90273687848143"><ele>464.66666666666663</ele><time>2026-03-22T09:52:59.997Z</time></trkpt><trkpt lat="42.69493335961287" lon="11.902708897281968"><ele>464.0</ele><time>2026-03-22T09:53:00.996Z</time></trkpt><trkpt lat="42.69507383693301" lon="11.902687321166923"><ele>464.0</ele><time>2026-03-22T09:53:01.996Z</time></trkpt><trkpt lat="42.695217573805365" lon="11.902674004185114"><ele>464.0</ele><time>2026-03-22T09:53:02.996Z</time></trkpt><trkpt lat="42.695820392786224" lon="11.90265975694208"><ele>464.0</ele><time>2026-03-22T09:53:03.996Z</time></trkpt><trkpt lat="42.695999339305345" lon="11.902659574000603"><ele>464.0</ele><time>2026-03-22T09:53:04.996Z</time></trkpt><trkpt lat="42.69618031874904" lon="11.902642022488346"><ele>464.0</ele><time>2026-03-22T09:53:05.996Z</time></trkpt><trkpt lat="42.696357167682805" lon="11.90263975217628"><ele>463.66666666666663</ele><time>2026-03-22T09:53:06.996Z</time></trkpt><trkpt lat="42.696525755380755" lon="11.902628603876353"><ele>463.33333333333337</ele><time>2026-03-22T09:53:07.996Z</time></trkpt><trkpt lat="42.69668289468748" lon="11.902608809919847"><ele>463.0</ele><time>2026-03-22T09:53:08.996Z</time></trkpt><trkpt lat="42.69683717349199" lon="11.902578074905426"><ele>462.0</ele><time>2026-03-22T09:53:09.995Z</time></trkpt><trkpt lat="42.696991408866644" lon="11.902527114117715"><ele>461.0</ele><time>2026-03-22T09:53:10.995Z</time></trkpt><trkpt lat="42.69714651680971" lon="11.902458511939136"><ele>460.0</ele><time>2026-03-22T09:53:11.995Z</time></trkpt><trkpt lat="42.69729855267702" lon="11.902387007515717"><ele>460.0</ele><time>2026-03-22T09:53:12.995Z</time></trkpt><trkpt lat="42.69745337889194" lon="11.902325613789122"><ele>460.0</ele><time>2026-03-22T09:53:13.995Z</time></trkpt><trkpt lat="42.69760672218" lon="11.902249101694649"><ele>460.0</ele><time>2026-03-22T09:53:14.995Z</time></trkpt><trkpt lat="42.6977646714037" lon="11.902168495592777"><ele>461.33333333333337</ele><time>2026-03-22T09:53:15.995Z</time></trkpt><trkpt lat="42.697927709800716" lon="11.902097905886462"><ele>462.66666666666663</ele><time>2026-03-22T09:53:16.995Z</time></trkpt><trkpt lat="42.69809683849903" lon="11.902023512933638"><ele>464.0</ele><time>2026-03-22T09:53:17.995Z</time></trkpt><trkpt lat="42.69826773899557" lon="11.90193790384397"><ele>464.0</ele><time>2026-03-22T09:53:18.995Z</time></trkpt><trkpt lat="42.69844258998443" lon="11.901880478824712"><ele>464.0</ele><time>2026-03-22T09:53:19.995Z</time></trkpt><trkpt lat="42.69860948223155" lon="11.901828266140186"><ele>464.0</ele><time>2026-03-22T09:53:20.995Z</time></trkpt><trkpt lat="42.69877619378632" lon="11.90178344103884"><ele>463.66666666666663</ele><time>2026-03-22T09:53:21.995Z</time></trkpt><trkpt lat="42.69894818325365" lon="11.901756271720803"><ele>463.33333333333337</ele><time>2026-03-22T09:53:22.995Z</time></trkpt><trkpt lat="42.69912718784608" lon="11.901723985855599"><ele>463.0</ele><time>2026-03-22T09:53:23.995Z</time></trkpt><trkpt lat="42.69931844655445" lon="11.901679766527073"><ele>460.0</ele><time>2026-03-22T09:53:24.994Z</time></trkpt><trkpt lat="42.6995267062675" lon="11.90161240234151"><ele>457.0</ele><time>2026-03-22T09:53:25.994Z</time></trkpt><trkpt lat="42.69977527113742" lon="11.901517487726034"><ele>457.0</ele><time>2026-03-22T09:53:26.994Z</time></trkpt><trkpt lat="42.700004631991" lon="11.90143502918649"><ele>457.0</ele><time>2026-03-22T09:53:27.994Z</time></trkpt><trkpt lat="42.70023307371057" lon="11.901355297257401"><ele>456.5</ele><time>2026-03-22T09:53:28.994Z</time></trkpt><trkpt lat="42.700456850160954" lon="11.901285358185106"><ele>456.0</ele><time>2026-03-22T09:53:29.994Z</time></trkpt><trkpt lat="42.70068335439487" lon="11.901220135700473"><ele>456.0</ele><time>2026-03-22T09:53:30.994Z</time></trkpt><trkpt lat="42.700915996675164" lon="11.901164604391761"><ele>456.0</ele><time>2026-03-22T09:53:31.994Z</time></trkpt><trkpt lat="42.70115296384753" lon="11.90111956117018"><ele>456.0</ele><time>2026-03-22T09:53:32.994Z</time></trkpt><trkpt lat="42.70139193997809" lon="11.901089048643623"><ele>456.0</ele><time>2026-03-22T09:53:33.994Z</time></trkpt><trkpt lat="42.70163322970493" lon="11.901070442094607"><ele>456.0</ele><time>2026-03-22T09:53:34.994Z</time></trkpt><trkpt lat="42.70187541798031" lon="11.901058450382521"><ele>456.0</ele><time>2026-03-22T09:53:35.994Z</time></trkpt><trkpt lat="42.702115539551635" lon="11.901059021474127"><ele>455.5</ele><time>2026-03-22T09:53:36.994Z</time></trkpt><trkpt lat="42.7023548222306" lon="11.901069461180679"><ele>455.0</ele><time>2026-03-22T09:53:37.994Z</time></trkpt><trkpt lat="42.70258646472221" lon="11.901081685084543"><ele>455.3333333333333</ele><time>2026-03-22T09:53:38.994Z</time></trkpt><trkpt lat="42.70281653657918" lon="11.90108664651789"><ele>455.66666666666663</ele><time>2026-03-22T09:53:39.994Z</time></trkpt><trkpt lat="42.70302718261346" lon="11.90107389428828"><ele>456.0</ele><time>2026-03-22T09:53:40.994Z</time></trkpt><trkpt lat="42.703228242225755" lon="11.90105517991214"><ele>456.0</ele><time>2026-03-22T09:53:41.994Z</time></trkpt><trkpt lat="42.70343262230601" lon="11.901034063378054"><ele>456.0</ele><time>2026-03-22T09:53:42.994Z</time></trkpt><trkpt lat="42.70364625201843" lon="11.900992682596454"><ele>456.0</ele><time>2026-03-22T09:53:43.994Z</time></trkpt><trkpt lat="42.70387238177381" lon="11.900912385023423"><ele>455.0</ele><time>2026-03-22T09:53:44.994Z</time></trkpt><trkpt lat="42.704102392511494" lon="11.900817089881725"><ele>454.0</ele><time>2026-03-22T09:53:45.994Z</time></trkpt><trkpt lat="42.704330718009984" lon="11.90071705527533"><ele>452.5</ele><time>2026-03-22T09:53:46.994Z</time></trkpt><trkpt lat="42.704552697728836" lon="11.900620107944098"><ele>451.0</ele><time>2026-03-22T09:53:47.994Z</time></trkpt><trkpt lat="42.70478158247876" lon="11.900533474944952"><ele>451.0</ele><time>2026-03-22T09:53:48.994Z</time></trkpt><trkpt lat="42.705016283790755" lon="11.900454851210434"><ele>451.0</ele><time>2026-03-22T09:53:49.994Z</time></trkpt><trkpt lat="42.70524645069978" lon="11.90040376516071"><ele>450.5</ele><time>2026-03-22T09:53:50.994Z</time></trkpt><trkpt lat="42.705477716893554" lon="11.90036311245981"><ele>450.0</ele><time>2026-03-22T09:53:51.994Z</time></trkpt><trkpt lat="42.70570808484959" lon="11.900318639430001"><ele>450.0</ele><time>2026-03-22T09:53:52.993Z</time></trkpt><trkpt lat="42.70594540349395" lon="11.900266579146932"><ele>450.0</ele><time>2026-03-22T09:53:53.993Z</time></trkpt><trkpt lat="42.70618052828821" lon="11.900208671644464"><ele>449.5</ele><time>2026-03-22T09:53:54.993Z</time></trkpt><trkpt lat="42.70641522284109" lon="11.90015486112608"><ele>449.0</ele><time>2026-03-22T09:53:55.993Z</time></trkpt><trkpt lat="42.7066479437538" lon="11.90010466345641"><ele>449.0</ele><time>2026-03-22T09:53:56.993Z</time></trkpt><trkpt lat="42.70687936446145" lon="11.900052413071323"><ele>449.0</ele><time>2026-03-22T09:53:57.993Z</time></trkpt><trkpt lat="42.70710884448716" lon="11.899994417849276"><ele>449.0</ele><time>2026-03-22T09:53:58.993Z</time></trkpt><trkpt lat="42.70733753654606" lon="11.899917807607405"><ele>449.0</ele><time>2026-03-22T09:53:59.993Z</time></trkpt><trkpt lat="42.707562564387146" lon="11.89983035297713"><ele>448.5</ele><time>2026-03-22T09:54:00.993Z</time></trkpt><trkpt lat="42.70778452011533" lon="11.899718374407552"><ele>448.0</ele><time>2026-03-22T09:54:01.993Z</time></trkpt><trkpt lat="42.70800470697572" lon="11.899591284317749"><ele>448.0</ele><time>2026-03-22T09:54:02.993Z</time></trkpt><trkpt lat="42.70822908540098" lon="11.899455528026234"><ele>448.0</ele><time>2026-03-22T09:54:03.993Z</time></trkpt><trkpt lat="42.70845193369217" lon="11.899321856775499"><ele>448.5</ele><time>2026-03-22T09:54:04.993Z</time></trkpt><trkpt lat="42.70867789401375" lon="11.899192971952427"><ele>449.0</ele><time>2026-03-22T09:54:05.993Z</time></trkpt><trkpt lat="42.70890278582491" lon="11.899064480261735"><ele>449.0</ele><time>2026-03-22T09:54:06.993Z</time></trkpt><trkpt lat="42.70913280160776" lon="11.898931303497342"><ele>449.0</ele><time>2026-03-22T09:54:07.993Z</time></trkpt><trkpt lat="42.709361152928395" lon="11.898794433280894"><ele>447.5</ele><time>2026-03-22T09:54:08.993Z</time></trkpt><trkpt lat="42.709595261076124" lon="11.898658000385645"><ele>446.0</ele><time>2026-03-22T09:54:09.993Z</time></trkpt><trkpt lat="42.709828225303106" lon="11.898520949989404"><ele>446.5</ele><time>2026-03-22T09:54:10.993Z</time></trkpt><trkpt lat="42.71005654715309" lon="11.898385501436683"><ele>447.0</ele><time>2026-03-22T09:54:11.993Z</time></trkpt><trkpt lat="42.71029331554512" lon="11.898266481768"><ele>446.0</ele><time>2026-03-22T09:54:12.993Z</time></trkpt><trkpt lat="42.71052917675252" lon="11.898158965792094"><ele>445.0</ele><time>2026-03-22T09:54:13.993Z</time></trkpt><trkpt lat="42.71076366076507" lon="11.898054585773599"><ele>445.0</ele><time>2026-03-22T09:54:14.993Z</time></trkpt><trkpt lat="42.710997637756655" lon="11.897949993982856"><ele>445.0</ele><time>2026-03-22T09:54:15.993Z</time></trkpt><trkpt lat="42.71123446838794" lon="11.897843283112602"><ele>445.0</ele><time>2026-03-22T09:54:16.993Z</time></trkpt><trkpt lat="42.71146090262482" lon="11.89773032628462"><ele>445.0</ele><time>2026-03-22T09:54:17.993Z</time></trkpt><trkpt lat="42.71168702073818" lon="11.897610064655202"><ele>445.5</ele><time>2026-03-22T09:54:18.993Z</time></trkpt><trkpt lat="42.7119072993103" lon="11.897489609324662"><ele>446.0</ele><time>2026-03-22T09:54:19.993Z</time></trkpt><trkpt lat="42.71212468429778" lon="11.897369430685862"><ele>446.0</ele><time>2026-03-22T09:54:20.993Z</time></trkpt><trkpt lat="42.71233588559794" lon="11.897249958267183"><ele>446.0</ele><time>2026-03-22T09:54:21.993Z</time></trkpt><trkpt lat="42.71254658244383" lon="11.897133529029727"><ele>447.0</ele><time>2026-03-22T09:54:22.993Z</time></trkpt><trkpt lat="42.71275682005345" lon="11.897019002833265"><ele>448.0</ele><time>2026-03-22T09:54:23.993Z</time></trkpt><trkpt lat="42.71296047989134" lon="11.896908202626602"><ele>449.0</ele><time>2026-03-22T09:54:24.993Z</time></trkpt><trkpt lat="42.713165304249834" lon="11.896797491806032"><ele>448.66666666666663</ele><time>2026-03-22T09:54:25.995Z</time></trkpt><trkpt lat="42.71335787889741" lon="11.896689725373927"><ele>448.33333333333337</ele><time>2026-03-22T09:54:26.995Z</time></trkpt><trkpt lat="42.7135401679507" lon="11.896592345438435"><ele>448.0</ele><time>2026-03-22T09:54:27.995Z</time></trkpt><trkpt lat="42.71371985499466" lon="11.896490790635616"><ele>448.0</ele><time>2026-03-22T09:54:28.995Z</time></trkpt><trkpt lat="42.713900212803985" lon="11.896387140937177"><ele>448.0</ele><time>2026-03-22T09:54:29.995Z</time></trkpt><trkpt lat="42.71407972060807" lon="11.896276268499227"><ele>448.0</ele><time>2026-03-22T09:54:30.995Z</time></trkpt><trkpt lat="42.71425923265223" lon="11.89616511795728"><ele>448.33333333333337</ele><time>2026-03-22T09:54:31.995Z</time></trkpt><trkpt lat="42.7144427712315" lon="11.896054735232346"><ele>448.66666666666663</ele><time>2026-03-22T09:54:32.995Z</time></trkpt><trkpt lat="42.71462371381784" lon="11.895941925858214"><ele>449.0</ele><time>2026-03-22T09:54:33.995Z</time></trkpt><trkpt lat="42.71480455967072" lon="11.895830079497859"><ele>448.0</ele><time>2026-03-22T09:54:34.996Z</time></trkpt><trkpt lat="42.71498147091977" lon="11.895717340832434"><ele>447.0</ele><time>2026-03-22T09:54:35.995Z</time></trkpt><trkpt lat="42.71517016081218" lon="11.895613067871805"><ele>446.0</ele><time>2026-03-22T09:54:36.995Z</time></trkpt><trkpt lat="42.71536890264488" lon="11.895521822759392"><ele>446.0</ele><time>2026-03-22T09:54:37.995Z</time></trkpt><trkpt lat="42.71556536337053" lon="11.895435717367132"><ele>446.0</ele><time>2026-03-22T09:54:38.995Z</time></trkpt><trkpt lat="42.715760496517035" lon="11.895347792381788"><ele>446.0</ele><time>2026-03-22T09:54:39.995Z</time></trkpt><trkpt lat="42.71597057975569" lon="11.895265809321359"><ele>446.0</ele><time>2026-03-22T09:54:40.995Z</time></trkpt><trkpt lat="42.71618339426216" lon="11.895186099225405"><ele>446.0</ele><time>2026-03-22T09:54:41.995Z</time></trkpt><trkpt lat="42.716388047239334" lon="11.895098919247157"><ele>446.0</ele><time>2026-03-22T09:54:42.995Z</time></trkpt><trkpt lat="42.71659844702428" lon="11.89501367424314"><ele>445.66666666666663</ele><time>2026-03-22T09:54:43.995Z</time></trkpt><trkpt lat="42.716809524847434" lon="11.89492568176403"><ele>445.33333333333337</ele><time>2026-03-22T09:54:44.995Z</time></trkpt><trkpt lat="42.71702085166453" lon="11.894836269803905"><ele>445.0</ele><time>2026-03-22T09:54:45.995Z</time></trkpt><trkpt lat="42.71723634597133" lon="11.894751319798466"><ele>445.0</ele><time>2026-03-22T09:54:46.995Z</time></trkpt><trkpt lat="42.71744595383073" lon="11.89465927199917"><ele>445.0</ele><time>2026-03-22T09:54:47.995Z</time></trkpt><trkpt lat="42.71766092239926" lon="11.894573541419097"><ele>445.0</ele><time>2026-03-22T09:54:48.995Z</time></trkpt><trkpt lat="42.71787259531116" lon="11.894488570583974"><ele>445.0</ele><time>2026-03-22T09:54:49.995Z</time></trkpt><trkpt lat="42.71808487966068" lon="11.894402841161645"><ele>445.0</ele><time>2026-03-22T09:54:50.995Z</time></trkpt><trkpt lat="42.7182971128692" lon="11.89432083408707"><ele>445.0</ele><time>2026-03-22T09:54:51.995Z</time></trkpt><trkpt lat="42.71850697889735" lon="11.89423895424633"><ele>444.6666666666667</ele><time>2026-03-22T09:54:52.995Z</time></trkpt><trkpt lat="42.71871385423437" lon="11.894152945713888"><ele>444.33333333333337</ele><time>2026-03-22T09:54:53.995Z</time></trkpt><trkpt lat="42.718921287318096" lon="11.89405655399869"><ele>444.0</ele><time>2026-03-22T09:54:54.995Z</time></trkpt><trkpt lat="42.719119287366404" lon="11.893942192272473"><ele>444.0</ele><time>2026-03-22T09:54:55.995Z</time></trkpt><trkpt lat="42.71931735346788" lon="11.893809085547746"><ele>444.0</ele><time>2026-03-22T09:54:56.995Z</time></trkpt><trkpt lat="42.71950329586388" lon="11.893648640380063"><ele>444.0</ele><time>2026-03-22T09:54:57.995Z</time></trkpt><trkpt lat="42.719691636165805" lon="11.893489024163692"><ele>444.5</ele><time>2026-03-22T09:54:58.995Z</time></trkpt><trkpt lat="42.71988697167679" lon="11.893338314515857"><ele>445.0</ele><time>2026-03-22T09:54:59.995Z</time></trkpt><trkpt lat="42.72008325286409" lon="11.893187887242991"><ele>446.33333333333337</ele><time>2026-03-22T09:55:00.995Z</time></trkpt><trkpt lat="42.72027478166937" lon="11.893049227316789"><ele>447.66666666666663</ele><time>2026-03-22T09:55:01.995Z</time></trkpt><trkpt lat="42.720462750908396" lon="11.892914093768395"><ele>449.0</ele><time>2026-03-22T09:55:02.995Z</time></trkpt><trkpt lat="42.72065528976183" lon="11.892792976143888"><ele>449.0</ele><time>2026-03-22T09:55:03.995Z</time></trkpt><trkpt lat="42.72085020558624" lon="11.892678816686704"><ele>449.0</ele><time>2026-03-22T09:55:04.994Z</time></trkpt><trkpt lat="42.72105800845154" lon="11.892575983285669"><ele>449.0</ele><time>2026-03-22T09:55:05.994Z</time></trkpt><trkpt lat="42.72126858107588" lon="11.892466162800217"><ele>447.66666666666663</ele><time>2026-03-22T09:55:06.994Z</time></trkpt><trkpt lat="42.72147328626332" lon="11.892365520177455"><ele>446.33333333333337</ele><time>2026-03-22T09:55:07.994Z</time></trkpt><trkpt lat="42.72168078512034" lon="11.892258476897924"><ele>445.0</ele><time>2026-03-22T09:55:08.994Z</time></trkpt><trkpt lat="42.72188474306551" lon="11.892154552872746"><ele>445.0</ele><time>2026-03-22T09:55:09.994Z</time></trkpt><trkpt lat="42.72208809877219" lon="11.892053982100967"><ele>445.0</ele><time>2026-03-22T09:55:10.994Z</time></trkpt><trkpt lat="42.72229493424634" lon="11.89194891697091"><ele>445.0</ele><time>2026-03-22T09:55:11.994Z</time></trkpt><trkpt lat="42.72250278459377" lon="11.891847196353526"><ele>444.6666666666667</ele><time>2026-03-22T09:55:12.994Z</time></trkpt><trkpt lat="42.72271186658796" lon="11.891740070922447"><ele>444.33333333333337</ele><time>2026-03-22T09:55:13.994Z</time></trkpt><trkpt lat="42.722919571824065" lon="11.891629884277865"><ele>444.0</ele><time>2026-03-22T09:55:14.994Z</time></trkpt><trkpt lat="42.72312332379563" lon="11.891525891869485"><ele>443.33333333333337</ele><time>2026-03-22T09:55:15.994Z</time></trkpt><trkpt lat="42.72333138747361" lon="11.89141990006554"><ele>442.6666666666667</ele><time>2026-03-22T09:55:16.994Z</time></trkpt><trkpt lat="42.72353459177283" lon="11.891301880628768"><ele>442.0</ele><time>2026-03-22T09:55:17.994Z</time></trkpt><trkpt lat="42.72373649643302" lon="11.891184635759627"><ele>442.0</ele><time>2026-03-22T09:55:18.994Z</time></trkpt><trkpt lat="42.72393662372976" lon="11.891062204321527"><ele>442.0</ele><time>2026-03-22T09:55:19.994Z</time></trkpt><trkpt lat="42.724141927512356" lon="11.890932931633401"><ele>442.0</ele><time>2026-03-22T09:55:20.994Z</time></trkpt><trkpt lat="42.72434953902008" lon="11.890808596359447"><ele>442.0</ele><time>2026-03-22T09:55:21.994Z</time></trkpt><trkpt lat="42.724558511973086" lon="11.890667763400593"><ele>442.0</ele><time>2026-03-22T09:55:22.994Z</time></trkpt><trkpt lat="42.72476046700974" lon="11.890505314136186"><ele>442.0</ele><time>2026-03-22T09:55:23.994Z</time></trkpt><trkpt lat="42.724951968090814" lon="11.890319032332712"><ele>442.0</ele><time>2026-03-22T09:55:24.994Z</time></trkpt><trkpt lat="42.72514150926575" lon="11.890121592584444"><ele>442.0</ele><time>2026-03-22T09:55:25.994Z</time></trkpt><trkpt lat="42.725322869517726" lon="11.889911095847038"><ele>442.0</ele><time>2026-03-22T09:55:26.994Z</time></trkpt><trkpt lat="42.72550742913324" lon="11.889695711366498"><ele>442.0</ele><time>2026-03-22T09:55:27.994Z</time></trkpt><trkpt lat="42.725681851213615" lon="11.889462027179182"><ele>442.0</ele><time>2026-03-22T09:55:28.994Z</time></trkpt><trkpt lat="42.725848918014975" lon="11.889215764316132"><ele>442.0</ele><time>2026-03-22T09:55:29.994Z</time></trkpt><trkpt lat="42.726007459294294" lon="11.888955538012066"><ele>442.0</ele><time>2026-03-22T09:55:30.994Z</time></trkpt><trkpt lat="42.7261728165676" lon="11.888706765354563"><ele>442.0</ele><time>2026-03-22T09:55:31.994Z</time></trkpt><trkpt lat="42.726348335946035" lon="11.88846446634483"><ele>442.0</ele><time>2026-03-22T09:55:32.994Z</time></trkpt><trkpt lat="42.7265293077264" lon="11.888226622285377"><ele>441.5</ele><time>2026-03-22T09:55:33.994Z</time></trkpt><trkpt lat="42.72671432041559" lon="11.887992996316415"><ele>441.0</ele><time>2026-03-22T09:55:34.994Z</time></trkpt><trkpt lat="42.72691147726851" lon="11.887760903963242"><ele>439.0</ele><time>2026-03-22T09:55:35.994Z</time></trkpt><trkpt lat="42.72710814506786" lon="11.887524594359336"><ele>437.0</ele><time>2026-03-22T09:55:36.994Z</time></trkpt><trkpt lat="42.72729873376757" lon="11.887286532665476"><ele>437.0</ele><time>2026-03-22T09:55:37.994Z</time></trkpt><trkpt lat="42.72749452440699" lon="11.88705729633056"><ele>437.0</ele><time>2026-03-22T09:55:38.994Z</time></trkpt><trkpt lat="42.727677859409546" lon="11.886823446154244"><ele>435.5</ele><time>2026-03-22T09:55:39.994Z</time></trkpt><trkpt lat="42.72786792638148" lon="11.886592828917363"><ele>434.0</ele><time>2026-03-22T09:55:40.994Z</time></trkpt><trkpt lat="42.72805599783032" lon="11.886377377356613"><ele>434.0</ele><time>2026-03-22T09:55:41.994Z</time></trkpt><trkpt lat="42.728248079685656" lon="11.886167688988625"><ele>434.0</ele><time>2026-03-22T09:55:42.994Z</time></trkpt><trkpt lat="42.728421061134476" lon="11.885959030969254"><ele>434.0</ele><time>2026-03-22T09:55:43.994Z</time></trkpt><trkpt lat="42.7285958173117" lon="11.885757364273708"><ele>434.0</ele><time>2026-03-22T09:55:44.994Z</time></trkpt><trkpt lat="42.728758329697335" lon="11.885555668877469"><ele>434.0</ele><time>2026-03-22T09:55:45.994Z</time></trkpt><trkpt lat="42.72892069513238" lon="11.885353539864836"><ele>434.0</ele><time>2026-03-22T09:55:46.994Z</time></trkpt><trkpt lat="42.72909122291299" lon="11.885172561107328"><ele>434.0</ele><time>2026-03-22T09:55:47.993Z</time></trkpt><trkpt lat="42.72927458097229" lon="11.884990527373391"><ele>434.0</ele><time>2026-03-22T09:55:48.993Z</time></trkpt><trkpt lat="42.72947155392238" lon="11.88486185104356"><ele>434.3333333333333</ele><time>2026-03-22T09:55:49.993Z</time></trkpt><trkpt lat="42.729680835037975" lon="11.88476202334647"><ele>434.66666666666663</ele><time>2026-03-22T09:55:50.993Z</time></trkpt><trkpt lat="42.72988691692439" lon="11.88470142301573"><ele>435.0</ele><time>2026-03-22T09:55:51.993Z</time></trkpt><trkpt lat="42.73009635256405" lon="11.884675604713996"><ele>434.33333333333337</ele><time>2026-03-22T09:55:52.993Z</time></trkpt><trkpt lat="42.73030892858935" lon="11.884656762808387"><ele>433.6666666666667</ele><time>2026-03-22T09:55:53.993Z</time></trkpt><trkpt lat="42.7305259019035" lon="11.88462609747328"><ele>433.0</ele><time>2026-03-22T09:55:54.993Z</time></trkpt><trkpt lat="42.73074157292415" lon="11.884563230502506"><ele>433.0</ele><time>2026-03-22T09:55:55.993Z</time></trkpt><trkpt lat="42.73095432110727" lon="11.884493021164465"><ele>433.0</ele><time>2026-03-22T09:55:56.993Z</time></trkpt><trkpt lat="42.73116783987205" lon="11.884434571582489"><ele>433.0</ele><time>2026-03-22T09:55:57.993Z</time></trkpt><trkpt lat="42.731386396594445" lon="11.884390915485005"><ele>432.0</ele><time>2026-03-22T09:55:58.993Z</time></trkpt><trkpt lat="42.731611419014975" lon="11.884370292347294"><ele>431.0</ele><time>2026-03-22T09:55:59.993Z</time></trkpt><trkpt lat="42.73184091813397" lon="11.884362498232424"><ele>430.66666666666663</ele><time>2026-03-22T09:56:00.993Z</time></trkpt><trkpt lat="42.73206625580798" lon="11.884351077212335"><ele>430.33333333333337</ele><time>2026-03-22T09:56:01.993Z</time></trkpt><trkpt lat="42.73228608674758" lon="11.884322421967134"><ele>430.0</ele><time>2026-03-22T09:56:02.993Z</time></trkpt><trkpt lat="42.73250632532476" lon="11.884288788542946"><ele>432.0</ele><time>2026-03-22T09:56:03.993Z</time></trkpt><trkpt lat="42.73272954920636" lon="11.88424695155356"><ele>434.0</ele><time>2026-03-22T09:56:04.993Z</time></trkpt><trkpt lat="42.73295557480763" lon="11.884211617409578"><ele>434.0</ele><time>2026-03-22T09:56:05.993Z</time></trkpt><trkpt lat="42.73318448160833" lon="11.884183331444769"><ele>434.0</ele><time>2026-03-22T09:56:06.993Z</time></trkpt><trkpt lat="42.733412536129784" lon="11.88416419710082"><ele>433.3333333333333</ele><time>2026-03-22T09:56:07.993Z</time></trkpt><trkpt lat="42.733634749899664" lon="11.884155565331303"><ele>432.66666666666663</ele><time>2026-03-22T09:56:08.993Z</time></trkpt><trkpt lat="42.7338548892014" lon="11.884142612747382"><ele>432.0</ele><time>2026-03-22T09:56:09.993Z</time></trkpt><trkpt lat="42.73407300128237" lon="11.884119299881316"><ele>432.0</ele><time>2026-03-22T09:56:10.993Z</time></trkpt><trkpt lat="42.734292481139086" lon="11.884083906789796"><ele>432.0</ele><time>2026-03-22T09:56:11.993Z</time></trkpt><trkpt lat="42.734507190393366" lon="11.884033021981775"><ele>432.0</ele><time>2026-03-22T09:56:12.993Z</time></trkpt><trkpt lat="42.73471845053284" lon="11.883973607832568"><ele>432.0</ele><time>2026-03-22T09:56:13.993Z</time></trkpt><trkpt lat="42.73493095572292" lon="11.883907815097784"><ele>432.0</ele><time>2026-03-22T09:56:14.993Z</time></trkpt><trkpt lat="42.73514364844649" lon="11.883838307273678"><ele>432.0</ele><time>2026-03-22T09:56:15.993Z</time></trkpt><trkpt lat="42.73535555484881" lon="11.883762444075895"><ele>432.33333333333337</ele><time>2026-03-22T09:56:16.993Z</time></trkpt><trkpt lat="42.735569922383284" lon="11.883692718841795"><ele>432.6666666666667</ele><time>2026-03-22T09:56:17.993Z</time></trkpt><trkpt lat="42.73579170738077" lon="11.883653291246473"><ele>433.0</ele><time>2026-03-22T09:56:18.993Z</time></trkpt><trkpt lat="42.736020575965" lon="11.883646022128069"><ele>431.5</ele><time>2026-03-22T09:56:19.993Z</time></trkpt><trkpt lat="42.73625169782391" lon="11.883656427075517"><ele>430.0</ele><time>2026-03-22T09:56:20.993Z</time></trkpt><trkpt lat="42.73648187606905" lon="11.883672733353478"><ele>430.0</ele><time>2026-03-22T09:56:21.993Z</time></trkpt><trkpt lat="42.73669518343106" lon="11.88368415498865"><ele>430.0</ele><time>2026-03-22T09:56:22.993Z</time></trkpt><trkpt lat="42.73690849608321" lon="11.883696029715969"><ele>430.0</ele><time>2026-03-22T09:56:23.993Z</time></trkpt><trkpt lat="42.73711938935721" lon="11.88370678352369"><ele>428.33333333333337</ele><time>2026-03-22T09:56:24.993Z</time></trkpt><trkpt lat="42.737325904623894" lon="11.88370951175825"><ele>426.66666666666663</ele><time>2026-03-22T09:56:25.993Z</time></trkpt><trkpt lat="42.737518858772845" lon="11.883714681944129"><ele>425.0</ele><time>2026-03-22T09:56:26.993Z</time></trkpt><trkpt lat="42.7377105786212" lon="11.88371053880718"><ele>425.0</ele><time>2026-03-22T09:56:27.993Z</time></trkpt><trkpt lat="42.73789116536499" lon="11.883691721303746"><ele>425.0</ele><time>2026-03-22T09:56:28.993Z</time></trkpt><trkpt lat="42.73806788172014" lon="11.883635682353024"><ele>425.0</ele><time>2026-03-22T09:56:29.992Z</time></trkpt><trkpt lat="42.738232933782335" lon="11.883536139009184"><ele>425.3333333333333</ele><time>2026-03-22T09:56:30.992Z</time></trkpt><trkpt lat="42.73839071960025" lon="11.883408906587391"><ele>425.66666666666663</ele><time>2026-03-22T09:56:31.995Z</time></trkpt><trkpt lat="42.73854169622257" lon="11.883258535722325"><ele>426.0</ele><time>2026-03-22T09:56:32.995Z</time></trkpt><trkpt lat="42.73869043418947" lon="11.883090243350955"><ele>426.0</ele><time>2026-03-22T09:56:33.995Z</time></trkpt><trkpt lat="42.73883747791409" lon="11.882918762300932"><ele>426.0</ele><time>2026-03-22T09:56:34.995Z</time></trkpt><trkpt lat="42.738982794246155" lon="11.88274587651983"><ele>426.0</ele><time>2026-03-22T09:56:35.995Z</time></trkpt><trkpt lat="42.73912088598284" lon="11.882569129939272"><ele>422.66666666666663</ele><time>2026-03-22T09:56:36.995Z</time></trkpt><trkpt lat="42.73924799315043" lon="11.882393053761257"><ele>419.3333333333333</ele><time>2026-03-22T09:56:37.995Z</time></trkpt><trkpt lat="42.73936962718452" lon="11.882220752291131"><ele>416.0</ele><time>2026-03-22T09:56:38.994Z</time></trkpt><trkpt lat="42.73948181809849" lon="11.882045389382348"><ele>415.66666666666663</ele><time>2026-03-22T09:56:39.994Z</time></trkpt><trkpt lat="42.73958893835477" lon="11.881869775166907"><ele>415.33333333333337</ele><time>2026-03-22T09:56:40.995Z</time></trkpt><trkpt lat="42.73968789004966" lon="11.88168979459261"><ele>415.0</ele><time>2026-03-22T09:56:41.995Z</time></trkpt><trkpt lat="42.73978104716172" lon="11.881513054107186"><ele>413.33333333333337</ele><time>2026-03-22T09:56:42.995Z</time></trkpt><trkpt lat="42.739869639347866" lon="11.881338254811537"><ele>411.66666666666663</ele><time>2026-03-22T09:56:43.995Z</time></trkpt><trkpt lat="42.739958492207975" lon="11.881172043187968"><ele>410.0</ele><time>2026-03-22T09:56:44.995Z</time></trkpt><trkpt lat="42.740045477616505" lon="11.881004579013085"><ele>409.66666666666663</ele><time>2026-03-22T09:56:45.995Z</time></trkpt><trkpt lat="42.740130754980264" lon="11.880837855342786"><ele>409.33333333333337</ele><time>2026-03-22T09:56:46.995Z</time></trkpt><trkpt lat="42.740215836899715" lon="11.880661473897872"><ele>409.0</ele><time>2026-03-22T09:56:47.995Z</time></trkpt><trkpt lat="42.74029805103208" lon="11.880494253792833"><ele>408.75</ele><time>2026-03-22T09:56:48.995Z</time></trkpt><trkpt lat="42.74037946987486" lon="11.880339065759022"><ele>408.5</ele><time>2026-03-22T09:56:49.995Z</time></trkpt><trkpt lat="42.74046198660163" lon="11.88018555014017"><ele>408.25</ele><time>2026-03-22T09:56:50.995Z</time></trkpt><trkpt lat="42.74054148171182" lon="11.880034423353212"><ele>408.0</ele><time>2026-03-22T09:56:51.995Z</time></trkpt><trkpt lat="42.74061892661769" lon="11.879883694283832"><ele>408.0</ele><time>2026-03-22T09:56:52.995Z</time></trkpt><trkpt lat="42.740686394945705" lon="11.87973515045436"><ele>408.0</ele><time>2026-03-22T09:56:53.995Z</time></trkpt><trkpt lat="42.740756118122654" lon="11.879600583511776"><ele>408.0</ele><time>2026-03-22T09:56:54.995Z</time></trkpt><trkpt lat="42.74081450708284" lon="11.879452819639372"><ele>408.0</ele><time>2026-03-22T09:56:55.995Z</time></trkpt><trkpt lat="42.74086954097125" lon="11.87929670091448"><ele>408.0</ele><time>2026-03-22T09:56:56.995Z</time></trkpt><trkpt lat="42.740927424049744" lon="11.879139736678338"><ele>408.0</ele><time>2026-03-22T09:56:57.995Z</time></trkpt><trkpt lat="42.740986160639416" lon="11.878973530737436"><ele>408.0</ele><time>2026-03-22T09:56:58.995Z</time></trkpt><trkpt lat="42.741038947618264" lon="11.878795640517136"><ele>408.0</ele><time>2026-03-22T09:56:59.995Z</time></trkpt><trkpt lat="42.74107919124859" lon="11.878617478103326"><ele>408.0</ele><time>2026-03-22T09:57:00.995Z</time></trkpt><trkpt lat="42.741108835970095" lon="11.878441944184486"><ele>408.0</ele><time>2026-03-22T09:57:01.995Z</time></trkpt><trkpt lat="42.74114103768616" lon="11.878275743468253"><ele>408.0</ele><time>2026-03-22T09:57:02.995Z</time></trkpt><trkpt lat="42.74116814783385" lon="11.878101708413618"><ele>408.0</ele><time>2026-03-22T09:57:03.995Z</time></trkpt><trkpt lat="42.74119538418038" lon="11.877934030546836"><ele>408.25</ele><time>2026-03-22T09:57:04.995Z</time></trkpt><trkpt lat="42.74122060906412" lon="11.877776402364763"><ele>408.5</ele><time>2026-03-22T09:57:05.995Z</time></trkpt><trkpt lat="42.741249583458966" lon="11.877623276857452"><ele>408.75</ele><time>2026-03-22T09:57:06.995Z</time></trkpt><trkpt lat="42.74127614455994" lon="11.877468282976697"><ele>409.0</ele><time>2026-03-22T09:57:07.995Z</time></trkpt><trkpt lat="42.74130076587833" lon="11.877315407469826"><ele>408.5</ele><time>2026-03-22T09:57:08.995Z</time></trkpt><trkpt lat="42.7413229492174" lon="11.87716251717818"><ele>408.0</ele><time>2026-03-22T09:57:09.995Z</time></trkpt><trkpt lat="42.741349119236794" lon="11.877009254697935"><ele>407.5</ele><time>2026-03-22T09:57:10.995Z</time></trkpt><trkpt lat="42.741375157566125" lon="11.876857557949716"><ele>407.0</ele><time>2026-03-22T09:57:11.995Z</time></trkpt><trkpt lat="42.741401705942394" lon="11.87669933468408"><ele>406.25</ele><time>2026-03-22T09:57:12.995Z</time></trkpt><trkpt lat="42.74142552375752" lon="11.876544659209557"><ele>405.5</ele><time>2026-03-22T09:57:13.995Z</time></trkpt><trkpt lat="42.74144494488606" lon="11.876387506304592"><ele>404.75</ele><time>2026-03-22T09:57:14.995Z</time></trkpt><trkpt lat="42.74146568146933" lon="11.876230527047989"><ele>404.0</ele><time>2026-03-22T09:57:15.995Z</time></trkpt><trkpt lat="42.741488363643064" lon="11.87607420511266"><ele>404.0</ele><time>2026-03-22T09:57:16.995Z</time></trkpt><trkpt lat="42.741518560133045" lon="11.875922469601486"><ele>404.0</ele><time>2026-03-22T09:57:17.994Z</time></trkpt><trkpt lat="42.74154570085209" lon="11.875770917746468"><ele>404.0</ele><time>2026-03-22T09:57:18.994Z</time></trkpt><trkpt lat="42.74157458628299" lon="11.87562037112491"><ele>404.0</ele><time>2026-03-22T09:57:19.994Z</time></trkpt><trkpt lat="42.74160215112579" lon="11.875472514321201"><ele>404.0</ele><time>2026-03-22T09:57:20.994Z</time></trkpt><trkpt lat="42.74162939349153" lon="11.87531507340146"><ele>404.0</ele><time>2026-03-22T09:57:21.994Z</time></trkpt><trkpt lat="42.741654562322175" lon="11.875162468420418"><ele>404.0</ele><time>2026-03-22T09:57:22.994Z</time></trkpt><trkpt lat="42.741677594441" lon="11.875010662159411"><ele>404.0</ele><time>2026-03-22T09:57:23.994Z</time></trkpt><trkpt lat="42.74170165608467" lon="11.874855890986579"><ele>403.5</ele><time>2026-03-22T09:57:24.994Z</time></trkpt><trkpt lat="42.74172860385704" lon="11.874692557171006"><ele>403.0</ele><time>2026-03-22T09:57:25.994Z</time></trkpt><trkpt lat="42.741753983594016" lon="11.874520303067117"><ele>402.5</ele><time>2026-03-22T09:57:26.994Z</time></trkpt><trkpt lat="42.74178082920237" lon="11.874344398123055"><ele>402.0</ele><time>2026-03-22T09:57:27.994Z</time></trkpt><trkpt lat="42.741806757869526" lon="11.874166717058028"><ele>400.75</ele><time>2026-03-22T09:57:28.994Z</time></trkpt><trkpt lat="42.74183335998787" lon="11.873993783075393"><ele>399.5</ele><time>2026-03-22T09:57:29.994Z</time></trkpt><trkpt lat="42.74186339737133" lon="11.873819402878285"><ele>398.25</ele><time>2026-03-22T09:57:30.994Z</time></trkpt><trkpt lat="42.74189218562246" lon="11.873644963363189"><ele>397.0</ele><time>2026-03-22T09:57:31.994Z</time></trkpt><trkpt lat="42.74191898969978" lon="11.873471882116489"><ele>396.75</ele><time>2026-03-22T09:57:32.994Z</time></trkpt><trkpt lat="42.741945676619146" lon="11.87330162669572"><ele>396.5</ele><time>2026-03-22T09:57:33.994Z</time></trkpt><trkpt lat="42.74197279352145" lon="11.873135722159379"><ele>396.25</ele><time>2026-03-22T09:57:34.994Z</time></trkpt><trkpt lat="42.74200099251577" lon="11.87297245547049"><ele>396.0</ele><time>2026-03-22T09:57:35.994Z</time></trkpt><trkpt lat="42.7420263130398" lon="11.872807605712984"><ele>396.0</ele><time>2026-03-22T09:57:36.994Z</time></trkpt><trkpt lat="42.74205160318057" lon="11.872646355793226"><ele>396.0</ele><time>2026-03-22T09:57:37.994Z</time></trkpt><trkpt lat="42.74207358219899" lon="11.872492075454614"><ele>396.0</ele><time>2026-03-22T09:57:38.994Z</time></trkpt><trkpt lat="42.74209801290431" lon="11.872340103329101"><ele>396.0</ele><time>2026-03-22T09:57:39.994Z</time></trkpt><trkpt lat="42.742123418294895" lon="11.872194086841798"><ele>394.5</ele><time>2026-03-22T09:57:40.994Z</time></trkpt><trkpt lat="42.742151926599654" lon="11.87204535169614"><ele>393.0</ele><time>2026-03-22T09:57:41.994Z</time></trkpt><trkpt lat="42.74217990390773" lon="11.871891182353874"><ele>391.5</ele><time>2026-03-22T09:57:42.994Z</time></trkpt><trkpt lat="42.74220997883681" lon="11.87173563683828"><ele>390.0</ele><time>2026-03-22T09:57:43.994Z</time></trkpt><trkpt lat="42.74225504819452" lon="11.871587060620477"><ele>389.0</ele><time>2026-03-22T09:57:44.994Z</time></trkpt><trkpt lat="42.74230815392045" lon="11.871441260109036"><ele>388.0</ele><time>2026-03-22T09:57:45.994Z</time></trkpt><trkpt lat="42.74237340129144" lon="11.871300900542911"><ele>387.0</ele><time>2026-03-22T09:57:46.994Z</time></trkpt><trkpt lat="42.74244039591279" lon="11.871155154363212"><ele>386.0</ele><time>2026-03-22T09:57:47.994Z</time></trkpt><trkpt lat="42.74249953219576" lon="11.871008684559776"><ele>386.6</ele><time>2026-03-22T09:57:48.994Z</time></trkpt><trkpt lat="42.74255394965151" lon="11.870864139746358"><ele>387.20000000000005</ele><time>2026-03-22T09:57:49.994Z</time></trkpt><trkpt lat="42.7425942631356" lon="11.870720395209023"><ele>387.79999999999995</ele><time>2026-03-22T09:57:50.994Z</time></trkpt><trkpt lat="42.74262960855253" lon="11.870584535988952"><ele>388.4</ele><time>2026-03-22T09:57:51.994Z</time></trkpt><trkpt lat="42.74265173255617" lon="11.87045192277391"><ele>389.0</ele><time>2026-03-22T09:57:52.994Z</time></trkpt><trkpt lat="42.742658583850734" lon="11.870327288188529"><ele>389.0</ele><time>2026-03-22T09:57:53.994Z</time></trkpt><trkpt lat="42.74265319651841" lon="11.870195494487026"><ele>389.0</ele><time>2026-03-22T09:57:54.994Z</time></trkpt><trkpt lat="42.74262985891103" lon="11.870057327272574"><ele>389.0</ele><time>2026-03-22T09:57:55.994Z</time></trkpt><trkpt lat="42.74260644142021" lon="11.869909906900464"><ele>389.0</ele><time>2026-03-22T09:57:56.994Z</time></trkpt><trkpt lat="42.74256913930945" lon="11.869754522454874"><ele>389.0</ele><time>2026-03-22T09:57:57.994Z</time></trkpt><trkpt lat="42.7425198961035" lon="11.869596608005336"><ele>389.5</ele><time>2026-03-22T09:57:58.994Z</time></trkpt><trkpt lat="42.742457387236094" lon="11.869442058337428"><ele>390.0</ele><time>2026-03-22T09:57:59.993Z</time></trkpt><trkpt lat="42.74238901088534" lon="11.869280406450388"><ele>390.5</ele><time>2026-03-22T09:58:00.993Z</time></trkpt><trkpt lat="42.742313809152385" lon="11.869113321386207"><ele>391.0</ele><time>2026-03-22T09:58:01.993Z</time></trkpt><trkpt lat="42.74224409039082" lon="11.868951541785671"><ele>391.0</ele><time>2026-03-22T09:58:02.993Z</time></trkpt><trkpt lat="42.74218002377829" lon="11.8687970611461"><ele>391.0</ele><time>2026-03-22T09:58:03.993Z</time></trkpt><trkpt lat="42.74211559825597" lon="11.868644302579998"><ele>391.0</ele><time>2026-03-22T09:58:04.993Z</time></trkpt><trkpt lat="42.742059764863214" lon="11.868492692485775"><ele>391.0</ele><time>2026-03-22T09:58:05.993Z</time></trkpt><trkpt lat="42.74201216970316" lon="11.86833728462453"><ele>390.25</ele><time>2026-03-22T09:58:06.993Z</time></trkpt><trkpt lat="42.74196996383324" lon="11.86817591172112"><ele>389.5</ele><time>2026-03-22T09:58:07.993Z</time></trkpt><trkpt lat="42.74192855792879" lon="11.868012257565368"><ele>388.75</ele><time>2026-03-22T09:58:08.993Z</time></trkpt><trkpt lat="42.74189349479809" lon="11.867850246107931"><ele>388.0</ele><time>2026-03-22T09:58:09.993Z</time></trkpt><trkpt lat="42.74185988765189" lon="11.867690537430835"><ele>387.2</ele><time>2026-03-22T09:58:10.993Z</time></trkpt><trkpt lat="42.74183058823632" lon="11.867539452997878"><ele>386.4</ele><time>2026-03-22T09:58:11.993Z</time></trkpt><trkpt lat="42.741802024180686" lon="11.867388754808195"><ele>385.59999999999997</ele><time>2026-03-22T09:58:12.993Z</time></trkpt><trkpt lat="42.74177838860224" lon="11.867248896724599"><ele>384.79999999999995</ele><time>2026-03-22T09:58:13.993Z</time></trkpt><trkpt lat="42.74174940932479" lon="11.86710674909707"><ele>384.0</ele><time>2026-03-22T09:58:14.993Z</time></trkpt><trkpt lat="42.74172225933746" lon="11.866963230838621"><ele>384.0</ele><time>2026-03-22T09:58:15.993Z</time></trkpt><trkpt lat="42.74169128360361" lon="11.866816371203699"><ele>384.0</ele><time>2026-03-22T09:58:16.993Z</time></trkpt><trkpt lat="42.74166184787229" lon="11.866669413648582"><ele>384.0</ele><time>2026-03-22T09:58:17.993Z</time></trkpt><trkpt lat="42.741634586559776" lon="11.866521396915592"><ele>384.0</ele><time>2026-03-22T09:58:18.993Z</time></trkpt><trkpt lat="42.741597798278406" lon="11.866367965258005"><ele>383.79999999999995</ele><time>2026-03-22T09:58:19.993Z</time></trkpt><trkpt lat="42.74157076743433" lon="11.86621599701476"><ele>383.59999999999997</ele><time>2026-03-22T09:58:20.993Z</time></trkpt><trkpt lat="42.741546929949884" lon="11.866063921152863"><ele>383.4</ele><time>2026-03-22T09:58:21.993Z</time></trkpt><trkpt lat="42.74151912059585" lon="11.865916567158417"><ele>383.2</ele><time>2026-03-22T09:58:22.993Z</time></trkpt><trkpt lat="42.741492795939905" lon="11.865773512782983"><ele>383.0</ele><time>2026-03-22T09:58:23.993Z</time></trkpt><trkpt lat="42.74146229502658" lon="11.865636312961483"><ele>383.4</ele><time>2026-03-22T09:58:24.993Z</time></trkpt><trkpt lat="42.74143159685393" lon="11.865499743928384"><ele>383.79999999999995</ele><time>2026-03-22T09:58:25.993Z</time></trkpt><trkpt lat="42.741405347657285" lon="11.86536567044231"><ele>384.2</ele><time>2026-03-22T09:58:26.993Z</time></trkpt><trkpt lat="42.741385763848854" lon="11.865231007068887"><ele>384.6</ele><time>2026-03-22T09:58:27.993Z</time></trkpt><trkpt lat="42.74137094476506" lon="11.865102596975378"><ele>385.0</ele><time>2026-03-22T09:58:28.993Z</time></trkpt><trkpt lat="42.7413657725879" lon="11.864975249154918"><ele>385.8</ele><time>2026-03-22T09:58:29.993Z</time></trkpt><trkpt lat="42.741373115900295" lon="11.864842006333857"><ele>386.6</ele><time>2026-03-22T09:58:30.993Z</time></trkpt><trkpt lat="42.74139889721005" lon="11.864716678714313"><ele>387.4</ele><time>2026-03-22T09:58:31.993Z</time></trkpt><trkpt lat="42.74145213094602" lon="11.864611877605851"><ele>388.2</ele><time>2026-03-22T09:58:32.993Z</time></trkpt><trkpt lat="42.741525674572046" lon="11.864522497199536"><ele>389.0</ele><time>2026-03-22T09:58:33.993Z</time></trkpt><trkpt lat="42.741624370629694" lon="11.864480446300703"><ele>389.0</ele><time>2026-03-22T09:58:34.993Z</time></trkpt><trkpt lat="42.74172277469585" lon="11.864481675677704"><ele>389.0</ele><time>2026-03-22T09:58:35.993Z</time></trkpt><trkpt lat="42.74182775001128" lon="11.864523831761911"><ele>389.0</ele><time>2026-03-22T09:58:36.993Z</time></trkpt><trkpt lat="42.741926566279595" lon="11.864580309114112"><ele>389.0</ele><time>2026-03-22T09:58:37.994Z</time></trkpt><trkpt lat="42.742020916549386" lon="11.864618752803642"><ele>389.0</ele><time>2026-03-22T09:58:38.995Z</time></trkpt><trkpt lat="42.74210240069482" lon="11.864651571693823"><ele>389.16666666666663</ele><time>2026-03-22T09:58:39.995Z</time></trkpt><trkpt lat="42.74218419820735" lon="11.864669835338653"><ele>389.3333333333333</ele><time>2026-03-22T09:58:40.995Z</time></trkpt><trkpt lat="42.74226450315924" lon="11.864650243932394"><ele>389.5</ele><time>2026-03-22T09:58:41.994Z</time></trkpt><trkpt lat="42.74233827648644" lon="11.864597387902853"><ele>389.66666666666663</ele><time>2026-03-22T09:58:42.994Z</time></trkpt><trkpt lat="42.742391234465124" lon="11.864506036944471"><ele>389.8333333333333</ele><time>2026-03-22T09:58:43.995Z</time></trkpt><trkpt lat="42.74242199414141" lon="11.864395804713919"><ele>390.0</ele><time>2026-03-22T09:58:44.994Z</time></trkpt><trkpt lat="42.74243466779354" lon="11.864271618934792"><ele>392.2</ele><time>2026-03-22T09:58:45.994Z</time></trkpt><trkpt lat="42.74243835072806" lon="11.864149349523997"><ele>394.4</ele><time>2026-03-22T09:58:46.994Z</time></trkpt><trkpt lat="42.74245985773701" lon="11.864027270849453"><ele>396.6</ele><time>2026-03-22T09:58:47.995Z</time></trkpt><trkpt lat="42.74249631974737" lon="11.863905075156406"><ele>398.8</ele><time>2026-03-22T09:58:48.994Z</time></trkpt><trkpt lat="42.7425589035721" lon="11.86381100872677"><ele>401.0</ele><time>2026-03-22T09:58:49.994Z</time></trkpt><trkpt lat="42.74262922634933" lon="11.863746168930533"><ele>399.6</ele><time>2026-03-22T09:58:50.995Z</time></trkpt><trkpt lat="42.742717974984934" lon="11.863701059539085"><ele>398.20000000000005</ele><time>2026-03-22T09:58:51.995Z</time></trkpt><trkpt lat="42.74281581446346" lon="11.863657287378127"><ele>396.79999999999995</ele><time>2026-03-22T09:58:52.995Z</time></trkpt><trkpt lat="42.74290574586722" lon="11.86360148654838"><ele>395.4</ele><time>2026-03-22T09:58:53.995Z</time></trkpt><trkpt lat="42.742992253680534" lon="11.863549030628304"><ele>394.0</ele><time>2026-03-22T09:58:54.995Z</time></trkpt><trkpt lat="42.74307755537692" lon="11.863494570896243"><ele>393.79999999999995</ele><time>2026-03-22T09:58:55.995Z</time></trkpt><trkpt lat="42.74316375690357" lon="11.863444434474292"><ele>393.59999999999997</ele><time>2026-03-22T09:58:56.995Z</time></trkpt><trkpt lat="42.743245586591456" lon="11.863393723563124"><ele>393.4</ele><time>2026-03-22T09:58:57.995Z</time></trkpt><trkpt lat="42.7433289307915" lon="11.863330301686442"><ele>393.2</ele><time>2026-03-22T09:58:58.994Z</time></trkpt><trkpt lat="42.74342053039397" lon="11.863257721221256"><ele>393.0</ele><time>2026-03-22T09:58:59.994Z</time></trkpt><trkpt lat="42.74352665162309" lon="11.863192779654375"><ele>393.25</ele><time>2026-03-22T09:59:00.994Z</time></trkpt><trkpt lat="42.74363775682361" lon="11.863128986071558"><ele>393.5</ele><time>2026-03-22T09:59:01.994Z</time></trkpt><trkpt lat="42.743752554927376" lon="11.863071746277843"><ele>393.75</ele><time>2026-03-22T09:59:02.994Z</time></trkpt><trkpt lat="42.74387794651345" lon="11.863038931233193"><ele>394.0</ele><time>2026-03-22T09:59:03.994Z</time></trkpt><trkpt lat="42.744004247396624" lon="11.86303049948183"><ele>394.0</ele><time>2026-03-22T09:59:04.994Z</time></trkpt><trkpt lat="42.74412883647921" lon="11.86303473783062"><ele>394.0</ele><time>2026-03-22T09:59:05.994Z</time></trkpt><trkpt lat="42.74425265255802" lon="11.863060611372212"><ele>394.0</ele><time>2026-03-22T09:59:06.994Z</time></trkpt><trkpt lat="42.74438404776967" lon="11.863062976825852"><ele>394.0</ele><time>2026-03-22T09:59:07.994Z</time></trkpt><trkpt lat="42.74451369867192" lon="11.863071250488142"><ele>392.5</ele><time>2026-03-22T09:59:08.994Z</time></trkpt><trkpt lat="42.74465051259972" lon="11.863077993780491"><ele>391.0</ele><time>2026-03-22T09:59:09.994Z</time></trkpt><trkpt lat="42.744787075333775" lon="11.863082885939772"><ele>389.5</ele><time>2026-03-22T09:59:10.994Z</time></trkpt><trkpt lat="42.74491853438125" lon="11.863084668508195"><ele>388.0</ele><time>2026-03-22T09:59:11.994Z</time></trkpt><trkpt lat="42.745051509075424" lon="11.863087124741227"><ele>388.0</ele><time>2026-03-22T09:59:12.994Z</time></trkpt><trkpt lat="42.74518585918282" lon="11.863084102154716"><ele>388.0</ele><time>2026-03-22T09:59:13.994Z</time></trkpt><trkpt lat="42.74532675290825" lon="11.86308455816386"><ele>388.0</ele><time>2026-03-22T09:59:14.994Z</time></trkpt><trkpt lat="42.74545992470693" lon="11.86311668467871"><ele>388.0</ele><time>2026-03-22T09:59:15.994Z</time></trkpt><trkpt lat="42.74559493193124" lon="11.863127331776127"><ele>386.0</ele><time>2026-03-22T09:59:16.994Z</time></trkpt><trkpt lat="42.745725897721876" lon="11.863135801226216"><ele>384.0</ele><time>2026-03-22T09:59:17.994Z</time></trkpt><trkpt lat="42.74584896710071" lon="11.863143283600499"><ele>382.0</ele><time>2026-03-22T09:59:18.994Z</time></trkpt><trkpt lat="42.74595823908437" lon="11.863152910172108"><ele>380.0</ele><time>2026-03-22T09:59:19.994Z</time></trkpt><trkpt lat="42.74606494865552" lon="11.863166008525239"><ele>379.4</ele><time>2026-03-22T09:59:20.994Z</time></trkpt><trkpt lat="42.746164771918664" lon="11.863178986438344"><ele>378.8</ele><time>2026-03-22T09:59:21.994Z</time></trkpt><trkpt lat="42.746257051289945" lon="11.863198864963106"><ele>378.20000000000005</ele><time>2026-03-22T09:59:22.994Z</time></trkpt><trkpt lat="42.74633474598107" lon="11.863213099158818"><ele>377.6</ele><time>2026-03-22T09:59:23.994Z</time></trkpt><trkpt lat="42.746405035819464" lon="11.86322270731485"><ele>377.0</ele><time>2026-03-22T09:59:24.994Z</time></trkpt><trkpt lat="42.7465139887422" lon="11.863226676980677"><ele>376.99999999999994</ele><time>2026-03-22T09:59:26.994Z</time></trkpt><trkpt lat="42.74659018566054" lon="11.863209388122991"><ele>377.0</ele><time>2026-03-22T09:59:30.994Z</time></trkpt><trkpt lat="42.74665647064783" lon="11.863208352729107"><ele>377.0</ele><time>2026-03-22T09:59:33.994Z</time></trkpt><trkpt lat="42.746718586868454" lon="11.863244964581527"><ele>377.0</ele><time>2026-03-22T09:59:37.994Z</time></trkpt><trkpt lat="42.746643748616236" lon="11.863227512287985"><ele>377.0</ele><time>2026-03-22T09:59:58.993Z</time></trkpt><trkpt lat="42.746564087927396" lon="11.863231990094661"><ele>376.99999999999994</ele><time>2026-03-22T10:00:01.993Z</time></trkpt><trkpt lat="42.74663138444596" lon="11.863270060195127"><ele>377.0</ele><time>2026-03-22T10:15:42.989Z</time></trkpt><trkpt lat="42.74670154951322" lon="11.863254988349457"><ele>376.99999999999994</ele><time>2026-03-22T10:15:44.989Z</time></trkpt><trkpt lat="42.74679133423288" lon="11.863231841984373"><ele>377.0</ele><time>2026-03-22T10:15:47.989Z</time></trkpt><trkpt lat="42.746881269676706" lon="11.86320797969364"><ele>377.0</ele><time>2026-03-22T10:15:50.989Z</time></trkpt><trkpt lat="42.74694409479473" lon="11.863198822985982"><ele>377.0</ele><time>2026-03-22T10:15:52.989Z</time></trkpt><trkpt lat="42.747009148692584" lon="11.863181765505564"><ele>377.0</ele><time>2026-03-22T10:15:54.989Z</time></trkpt><trkpt lat="42.747074020607315" lon="11.863170516354586"><ele>376.99999999999994</ele><time>2026-03-22T10:15:56.989Z</time></trkpt><trkpt lat="42.74713766748204" lon="11.863152368337886"><ele>377.0</ele><time>2026-03-22T10:15:58.988Z</time></trkpt><trkpt lat="42.74723303065642" lon="11.863136307933754"><ele>373.5</ele><time>2026-03-22T10:16:01.988Z</time></trkpt><trkpt lat="42.74741212000483" lon="11.863114309506127"><ele>370.0</ele><time>2026-03-22T10:16:05.988Z</time></trkpt><trkpt lat="42.747522410041874" lon="11.863089469717087"><ele>366.5</ele><time>2026-03-22T10:16:07.988Z</time></trkpt><trkpt lat="42.74762162345292" lon="11.8630782944679"><ele>363.0</ele><time>2026-03-22T10:16:09.988Z</time></trkpt><trkpt lat="42.74768309698242" lon="11.863057450632017"><ele>361.85714285714283</ele><time>2026-03-22T10:16:10.988Z</time></trkpt><trkpt lat="42.74775628735045" lon="11.863042044531309"><ele>360.7142857142857</ele><time>2026-03-22T10:16:11.988Z</time></trkpt><trkpt lat="42.74781872133834" lon="11.863028213224101"><ele>359.57142857142856</ele><time>2026-03-22T10:16:12.988Z</time></trkpt><trkpt lat="42.747889208303135" lon="11.863011135913437"><ele>358.42857142857144</ele><time>2026-03-22T10:16:13.988Z</time></trkpt><trkpt lat="42.74796506610199" lon="11.862994091634281"><ele>357.2857142857143</ele><time>2026-03-22T10:16:14.988Z</time></trkpt><trkpt lat="42.74803770271665" lon="11.862965258544563"><ele>356.1428571428571</ele><time>2026-03-22T10:16:15.988Z</time></trkpt><trkpt lat="42.748110322448696" lon="11.862949826741627"><ele>355.0</ele><time>2026-03-22T10:16:16.988Z</time></trkpt><trkpt lat="42.74818196626668" lon="11.862932669228213"><ele>355.0</ele><time>2026-03-22T10:16:17.988Z</time></trkpt><trkpt lat="42.7482639573158" lon="11.862918323698308"><ele>355.0</ele><time>2026-03-22T10:16:18.988Z</time></trkpt><trkpt lat="42.74834194273301" lon="11.862908491699233"><ele>355.0</ele><time>2026-03-22T10:16:19.988Z</time></trkpt><trkpt lat="42.748421658561504" lon="11.86288639976959"><ele>355.0</ele><time>2026-03-22T10:16:20.988Z</time></trkpt><trkpt lat="42.74850470526237" lon="11.86287020457366"><ele>355.0</ele><time>2026-03-22T10:16:21.988Z</time></trkpt><trkpt lat="42.74858698079233" lon="11.862850778795297"><ele>355.0</ele><time>2026-03-22T10:16:22.988Z</time></trkpt><trkpt lat="42.7486668346211" lon="11.86283610752385"><ele>355.2</ele><time>2026-03-22T10:16:23.988Z</time></trkpt><trkpt lat="42.74874567627202" lon="11.86282119558066"><ele>355.4</ele><time>2026-03-22T10:16:24.988Z</time></trkpt><trkpt lat="42.74883264584611" lon="11.862802067986829"><ele>355.6</ele><time>2026-03-22T10:16:25.988Z</time></trkpt><trkpt lat="42.74892965768023" lon="11.862780070839126"><ele>355.8</ele><time>2026-03-22T10:16:26.988Z</time></trkpt><trkpt lat="42.74903168636626" lon="11.862763413177975"><ele>356.0</ele><time>2026-03-22T10:16:27.988Z</time></trkpt><trkpt lat="42.74913652695086" lon="11.862743955556278"><ele>356.0</ele><time>2026-03-22T10:16:28.988Z</time></trkpt><trkpt lat="42.7492572254445" lon="11.862710947114"><ele>356.0</ele><time>2026-03-22T10:16:29.988Z</time></trkpt><trkpt lat="42.749388313166435" lon="11.862686116777722"><ele>356.0</ele><time>2026-03-22T10:16:30.988Z</time></trkpt><trkpt lat="42.74952518334899" lon="11.862653508462493"><ele>356.0</ele><time>2026-03-22T10:16:31.988Z</time></trkpt><trkpt lat="42.74968103821314" lon="11.86262713022102"><ele>358.33333333333337</ele><time>2026-03-22T10:16:32.988Z</time></trkpt><trkpt lat="42.74984250225286" lon="11.86260365285698"><ele>360.6666666666667</ele><time>2026-03-22T10:16:33.988Z</time></trkpt><trkpt lat="42.75000714425724" lon="11.862573663839857"><ele>363.0</ele><time>2026-03-22T10:16:34.988Z</time></trkpt><trkpt lat="42.750175996492025" lon="11.862538337961587"><ele>359.6666666666667</ele><time>2026-03-22T10:16:35.988Z</time></trkpt><trkpt lat="42.75035154100036" lon="11.862506620278692"><ele>356.33333333333337</ele><time>2026-03-22T10:16:36.988Z</time></trkpt><trkpt lat="42.75051269848043" lon="11.86250884517007"><ele>353.0</ele><time>2026-03-22T10:16:37.988Z</time></trkpt><trkpt lat="42.75067962743056" lon="11.862510267200564"><ele>353.0</ele><time>2026-03-22T10:16:38.988Z</time></trkpt><trkpt lat="42.7508431545535" lon="11.86250621424042"><ele>353.0</ele><time>2026-03-22T10:16:39.988Z</time></trkpt><trkpt lat="42.751003759848814" lon="11.862497416254474"><ele>353.0</ele><time>2026-03-22T10:16:40.987Z</time></trkpt><trkpt lat="42.75116616733643" lon="11.86249642450373"><ele>349.6666666666667</ele><time>2026-03-22T10:16:41.987Z</time></trkpt><trkpt lat="42.75133060667159" lon="11.86250866759345"><ele>346.3333333333333</ele><time>2026-03-22T10:16:42.987Z</time></trkpt><trkpt lat="42.75149098274891" lon="11.862531589937198"><ele>343.0</ele><time>2026-03-22T10:16:43.987Z</time></trkpt><trkpt lat="42.75164123816182" lon="11.862565305255535"><ele>343.0</ele><time>2026-03-22T10:16:44.987Z</time></trkpt><trkpt lat="42.751774666983735" lon="11.862601789250856"><ele>343.0</ele><time>2026-03-22T10:16:45.987Z</time></trkpt><trkpt lat="42.75189634145324" lon="11.862640513143779"><ele>343.0</ele><time>2026-03-22T10:16:46.987Z</time></trkpt><trkpt lat="42.75200272589185" lon="11.862682737125171"><ele>343.0</ele><time>2026-03-22T10:16:47.987Z</time></trkpt><trkpt lat="42.75209208085779" lon="11.862750966836735"><ele>340.4</ele><time>2026-03-22T10:16:48.987Z</time></trkpt><trkpt lat="42.75215060756347" lon="11.86284717749597"><ele>337.79999999999995</ele><time>2026-03-22T10:16:49.987Z</time></trkpt><trkpt lat="42.752140430165674" lon="11.86297919029566"><ele>335.2</ele><time>2026-03-22T10:16:50.987Z</time></trkpt><trkpt lat="42.75213707870377" lon="11.863093158486281"><ele>332.6</ele><time>2026-03-22T10:16:51.987Z</time></trkpt><trkpt lat="42.75207010083566" lon="11.863191669092648"><ele>330.0</ele><time>2026-03-22T10:16:52.987Z</time></trkpt><trkpt lat="42.751978501594344" lon="11.863252953308173"><ele>329.75</ele><time>2026-03-22T10:16:53.987Z</time></trkpt><trkpt lat="42.75186796386107" lon="11.863262703752932"><ele>329.5</ele><time>2026-03-22T10:16:54.987Z</time></trkpt><trkpt lat="42.75175349784402" lon="11.863244376022887"><ele>329.25</ele><time>2026-03-22T10:16:55.987Z</time></trkpt><trkpt lat="42.75162290623506" lon="11.863240056082367"><ele>329.0</ele><time>2026-03-22T10:16:56.987Z</time></trkpt><trkpt lat="42.751494504783956" lon="11.863246925157032"><ele>329.0</ele><time>2026-03-22T10:16:57.987Z</time></trkpt><trkpt lat="42.751366042787" lon="11.863247100831742"><ele>329.0</ele><time>2026-03-22T10:16:58.987Z</time></trkpt><trkpt lat="42.751234897386134" lon="11.86325827474626"><ele>329.0</ele><time>2026-03-22T10:16:59.987Z</time></trkpt><trkpt lat="42.751103163363545" lon="11.863276535483955"><ele>329.0</ele><time>2026-03-22T10:17:00.987Z</time></trkpt><trkpt lat="42.75097886751942" lon="11.863332317128172"><ele>331.0</ele><time>2026-03-22T10:17:01.987Z</time></trkpt><trkpt lat="42.75084717220466" lon="11.863402947213068"><ele>333.0</ele><time>2026-03-22T10:17:02.987Z</time></trkpt><trkpt lat="42.75071435435753" lon="11.863527551843704"><ele>335.0</ele><time>2026-03-22T10:17:03.987Z</time></trkpt><trkpt lat="42.75056746224077" lon="11.863675009782993"><ele>333.0</ele><time>2026-03-22T10:17:04.987Z</time></trkpt><trkpt lat="42.75041464792987" lon="11.863828412796106"><ele>331.0</ele><time>2026-03-22T10:17:05.987Z</time></trkpt><trkpt lat="42.75026546832408" lon="11.86397531032789"><ele>329.0</ele><time>2026-03-22T10:17:06.987Z</time></trkpt><trkpt lat="42.75012850720773" lon="11.864128469030165"><ele>329.0</ele><time>2026-03-22T10:17:07.987Z</time></trkpt><trkpt lat="42.749965312714835" lon="11.86423377844122"><ele>329.0</ele><time>2026-03-22T10:17:08.987Z</time></trkpt><trkpt lat="42.749842644892425" lon="11.864359183762081"><ele>329.0</ele><time>2026-03-22T10:17:09.987Z</time></trkpt><trkpt lat="42.74974490387143" lon="11.864485918710704"><ele>326.4</ele><time>2026-03-22T10:17:10.987Z</time></trkpt><trkpt lat="42.74968783818561" lon="11.864628519383114"><ele>323.79999999999995</ele><time>2026-03-22T10:17:11.987Z</time></trkpt><trkpt lat="42.74967887230195" lon="11.864761845803896"><ele>321.20000000000005</ele><time>2026-03-22T10:17:12.987Z</time></trkpt><trkpt lat="42.74971374890898" lon="11.864884002151207"><ele>318.6</ele><time>2026-03-22T10:17:13.987Z</time></trkpt><trkpt lat="42.74978801248401" lon="11.864953317859383"><ele>316.0</ele><time>2026-03-22T10:17:14.987Z</time></trkpt><trkpt lat="42.749885772256" lon="11.865023250046702"><ele>316.0</ele><time>2026-03-22T10:17:15.987Z</time></trkpt><trkpt lat="42.75002612409862" lon="11.865003903884425"><ele>316.0</ele><time>2026-03-22T10:17:16.987Z</time></trkpt><trkpt lat="42.750179490249515" lon="11.864974232408523"><ele>316.0</ele><time>2026-03-22T10:17:17.987Z</time></trkpt><trkpt lat="42.75034994252852" lon="11.864943346730618"><ele>313.0</ele><time>2026-03-22T10:17:18.987Z</time></trkpt><trkpt lat="42.75053438164165" lon="11.864899351834715"><ele>310.0</ele><time>2026-03-22T10:17:19.987Z</time></trkpt><trkpt lat="42.75071828259378" lon="11.864858823436599"><ele>307.0</ele><time>2026-03-22T10:17:20.987Z</time></trkpt><trkpt lat="42.75091510481404" lon="11.864807049271729"><ele>304.3333333333333</ele><time>2026-03-22T10:17:21.987Z</time></trkpt><trkpt lat="42.75110465117583" lon="11.864755153903282"><ele>301.6666666666667</ele><time>2026-03-22T10:17:22.986Z</time></trkpt><trkpt lat="42.751295120108914" lon="11.864724045008579"><ele>299.0</ele><time>2026-03-22T10:17:23.986Z</time></trkpt><trkpt lat="42.75147792790738" lon="11.864675635262204"><ele>299.0</ele><time>2026-03-22T10:17:24.986Z</time></trkpt><trkpt lat="42.751659126659675" lon="11.864617626655628"><ele>299.0</ele><time>2026-03-22T10:17:25.986Z</time></trkpt><trkpt lat="42.75184276564055" lon="11.864604148034296"><ele>299.0</ele><time>2026-03-22T10:17:26.986Z</time></trkpt><trkpt lat="42.752023707988336" lon="11.864617792696551"><ele>299.33333333333337</ele><time>2026-03-22T10:17:27.986Z</time></trkpt><trkpt lat="42.75219699145326" lon="11.864674115750823"><ele>299.6666666666667</ele><time>2026-03-22T10:17:28.986Z</time></trkpt><trkpt lat="42.75235559450611" lon="11.864793272960284"><ele>300.0</ele><time>2026-03-22T10:17:29.986Z</time></trkpt><trkpt lat="42.75251676201903" lon="11.864925176669367"><ele>300.0</ele><time>2026-03-22T10:17:30.987Z</time></trkpt><trkpt lat="42.75268127505605" lon="11.86505549502243"><ele>300.0</ele><time>2026-03-22T10:17:31.986Z</time></trkpt><trkpt lat="42.75284188244271" lon="11.86519761458458"><ele>300.0</ele><time>2026-03-22T10:17:32.986Z</time></trkpt><trkpt lat="42.7529933900567" lon="11.86533471910939"><ele>296.6666666666667</ele><time>2026-03-22T10:17:33.986Z</time></trkpt><trkpt lat="42.7531658954223" lon="11.865419966518745"><ele>293.33333333333337</ele><time>2026-03-22T10:17:34.987Z</time></trkpt><trkpt lat="42.7533315243651" lon="11.865448388241926"><ele>290.0</ele><time>2026-03-22T10:17:35.987Z</time></trkpt><trkpt lat="42.75348980790984" lon="11.865477135184678"><ele>290.33333333333337</ele><time>2026-03-22T10:17:36.986Z</time></trkpt><trkpt lat="42.753650695806385" lon="11.865481661382255"><ele>290.6666666666667</ele><time>2026-03-22T10:17:37.987Z</time></trkpt><trkpt lat="42.75381821489835" lon="11.86549732891367"><ele>291.0</ele><time>2026-03-22T10:17:38.987Z</time></trkpt><trkpt lat="42.753987884438864" lon="11.865520198043924"><ele>291.0</ele><time>2026-03-22T10:17:39.986Z</time></trkpt><trkpt lat="42.75416115916106" lon="11.865538539180898"><ele>291.0</ele><time>2026-03-22T10:17:40.987Z</time></trkpt><trkpt lat="42.754333633155085" lon="11.865545840488766"><ele>291.0</ele><time>2026-03-22T10:17:41.987Z</time></trkpt><trkpt lat="42.75448765208693" lon="11.865582188887464"><ele>290.0</ele><time>2026-03-22T10:17:42.986Z</time></trkpt><trkpt lat="42.754652853997236" lon="11.865588226448033"><ele>289.0</ele><time>2026-03-22T10:17:43.986Z</time></trkpt><trkpt lat="42.75482075421197" lon="11.865597719047445"><ele>288.0</ele><time>2026-03-22T10:17:44.986Z</time></trkpt><trkpt lat="42.75499492407183" lon="11.865603285415279"><ele>288.0</ele><time>2026-03-22T10:17:45.986Z</time></trkpt><trkpt lat="42.755171156038344" lon="11.865598709052763"><ele>288.0</ele><time>2026-03-22T10:17:46.986Z</time></trkpt><trkpt lat="42.75535004314272" lon="11.865584267498404"><ele>288.0</ele><time>2026-03-22T10:17:47.986Z</time></trkpt><trkpt lat="42.75553847304337" lon="11.86556929648463"><ele>284.6666666666667</ele><time>2026-03-22T10:17:48.986Z</time></trkpt><trkpt lat="42.75573582023997" lon="11.865577197797553"><ele>281.33333333333337</ele><time>2026-03-22T10:17:49.986Z</time></trkpt><trkpt lat="42.75595012289826" lon="11.86560153511886"><ele>278.0</ele><time>2026-03-22T10:17:50.986Z</time></trkpt><trkpt lat="42.75616973227685" lon="11.865617956086345"><ele>276.33333333333337</ele><time>2026-03-22T10:17:51.986Z</time></trkpt><trkpt lat="42.756379643520596" lon="11.865648511547603"><ele>274.6666666666667</ele><time>2026-03-22T10:17:52.986Z</time></trkpt><trkpt lat="42.756582314083495" lon="11.865679737306102"><ele>273.0</ele><time>2026-03-22T10:17:53.986Z</time></trkpt><trkpt lat="42.75677745536693" lon="11.865692600113183"><ele>269.6666666666667</ele><time>2026-03-22T10:17:54.986Z</time></trkpt><trkpt lat="42.756990826750695" lon="11.865707083215925"><ele>266.33333333333337</ele><time>2026-03-22T10:17:55.986Z</time></trkpt><trkpt lat="42.75719806383431" lon="11.865710575379804"><ele>263.0</ele><time>2026-03-22T10:17:56.986Z</time></trkpt><trkpt lat="42.75740755044646" lon="11.865704745984905"><ele>263.0</ele><time>2026-03-22T10:17:57.986Z</time></trkpt><trkpt lat="42.757592561859624" lon="11.865634547783138"><ele>263.0</ele><time>2026-03-22T10:17:58.986Z</time></trkpt><trkpt lat="42.75774590253675" lon="11.865501903107548"><ele>263.0</ele><time>2026-03-22T10:17:59.986Z</time></trkpt><trkpt lat="42.75784407193837" lon="11.865363280354785"><ele>261.5</ele><time>2026-03-22T10:18:00.986Z</time></trkpt><trkpt lat="42.7579217022852" lon="11.865239927934816"><ele>260.0</ele><time>2026-03-22T10:18:01.986Z</time></trkpt><trkpt lat="42.75800755242382" lon="11.86507147776315"><ele>258.5</ele><time>2026-03-22T10:18:02.986Z</time></trkpt><trkpt lat="42.7580959342155" lon="11.864881576521743"><ele>257.0</ele><time>2026-03-22T10:18:03.986Z</time></trkpt><trkpt lat="42.75819955555248" lon="11.864718516219101"><ele>257.0</ele><time>2026-03-22T10:18:04.986Z</time></trkpt><trkpt lat="42.758352196284896" lon="11.864608538935054"><ele>257.0</ele><time>2026-03-22T10:18:05.986Z</time></trkpt><trkpt lat="42.75850317123882" lon="11.864505251273835"><ele>257.0</ele><time>2026-03-22T10:18:06.986Z</time></trkpt><trkpt lat="42.758676725435755" lon="11.864428008732544"><ele>257.0</ele><time>2026-03-22T10:18:07.986Z</time></trkpt><trkpt lat="42.758865653912345" lon="11.864371471950339"><ele>257.0</ele><time>2026-03-22T10:18:08.986Z</time></trkpt><trkpt lat="42.75904655787538" lon="11.864299894035874"><ele>257.0</ele><time>2026-03-22T10:18:09.986Z</time></trkpt><trkpt lat="42.75923172317202" lon="11.864215493902353"><ele>255.33333333333334</ele><time>2026-03-22T10:18:10.986Z</time></trkpt><trkpt lat="42.75942301461126" lon="11.864120006910348"><ele>253.66666666666669</ele><time>2026-03-22T10:18:11.986Z</time></trkpt><trkpt lat="42.759613627831925" lon="11.864017314432447"><ele>252.0</ele><time>2026-03-22T10:18:12.986Z</time></trkpt><trkpt lat="42.759806360508264" lon="11.863911506951732"><ele>252.0</ele><time>2026-03-22T10:18:13.986Z</time></trkpt><trkpt lat="42.759996037127756" lon="11.863814202940652"><ele>252.0</ele><time>2026-03-22T10:18:14.986Z</time></trkpt><trkpt lat="42.76017698675133" lon="11.863721570012718"><ele>252.0</ele><time>2026-03-22T10:18:15.986Z</time></trkpt><trkpt lat="42.76035167660445" lon="11.863627797711262"><ele>251.66666666666669</ele><time>2026-03-22T10:18:16.985Z</time></trkpt><trkpt lat="42.76050738043882" lon="11.863508125489963"><ele>251.33333333333334</ele><time>2026-03-22T10:18:17.985Z</time></trkpt><trkpt lat="42.76064538132204" lon="11.863360462186028"><ele>251.0</ele><time>2026-03-22T10:18:18.985Z</time></trkpt><trkpt lat="42.760752358829464" lon="11.863183326831557"><ele>251.0</ele><time>2026-03-22T10:18:19.985Z</time></trkpt><trkpt lat="42.760837000625294" lon="11.862978329481328"><ele>251.0</ele><time>2026-03-22T10:18:20.985Z</time></trkpt><trkpt lat="42.76089543957315" lon="11.862749566380305"><ele>251.0</ele><time>2026-03-22T10:18:21.985Z</time></trkpt><trkpt lat="42.760938647580744" lon="11.862496456093112"><ele>251.0</ele><time>2026-03-22T10:18:22.985Z</time></trkpt><trkpt lat="42.76097054352795" lon="11.862236852995352"><ele>251.0</ele><time>2026-03-22T10:18:23.985Z</time></trkpt><trkpt lat="42.761011567850275" lon="11.861983335533868"><ele>251.0</ele><time>2026-03-22T10:18:24.985Z</time></trkpt><trkpt lat="42.76107204244155" lon="11.861708562297602"><ele>250.33333333333334</ele><time>2026-03-22T10:18:25.985Z</time></trkpt><trkpt lat="42.761126334368626" lon="11.861427185935128"><ele>249.66666666666669</ele><time>2026-03-22T10:18:26.985Z</time></trkpt><trkpt lat="42.761178520803234" lon="11.861155415744452"><ele>249.0</ele><time>2026-03-22T10:18:27.985Z</time></trkpt><trkpt lat="42.76119241869267" lon="11.86087617081577"><ele>249.0</ele><time>2026-03-22T10:18:28.985Z</time></trkpt><trkpt lat="42.76124470454548" lon="11.86061401785121"><ele>249.0</ele><time>2026-03-22T10:18:29.985Z</time></trkpt><trkpt lat="42.76130143754087" lon="11.860348951166806"><ele>249.0</ele><time>2026-03-22T10:18:30.985Z</time></trkpt><trkpt lat="42.76134739425244" lon="11.860078122877782"><ele>249.33333333333331</ele><time>2026-03-22T10:18:31.985Z</time></trkpt><trkpt lat="42.76143177519492" lon="11.859823575314483"><ele>249.66666666666666</ele><time>2026-03-22T10:18:32.985Z</time></trkpt><trkpt lat="42.76148101711299" lon="11.859558045793886"><ele>250.0</ele><time>2026-03-22T10:18:33.985Z</time></trkpt><trkpt lat="42.76152898189353" lon="11.859299402987865"><ele>251.0</ele><time>2026-03-22T10:18:34.985Z</time></trkpt><trkpt lat="42.76157802240809" lon="11.8590436110804"><ele>252.0</ele><time>2026-03-22T10:18:35.985Z</time></trkpt><trkpt lat="42.76162960383994" lon="11.858787825892597"><ele>253.0</ele><time>2026-03-22T10:18:36.985Z</time></trkpt><trkpt lat="42.76168986254415" lon="11.858532356333528"><ele>253.33333333333331</ele><time>2026-03-22T10:18:37.985Z</time></trkpt><trkpt lat="42.76176725682707" lon="11.858280005929783"><ele>253.66666666666669</ele><time>2026-03-22T10:18:38.985Z</time></trkpt><trkpt lat="42.761853956071654" lon="11.858043658207018"><ele>254.0</ele><time>2026-03-22T10:18:39.985Z</time></trkpt><trkpt lat="42.76193901482556" lon="11.857826660003484"><ele>252.0</ele><time>2026-03-22T10:18:40.985Z</time></trkpt><trkpt lat="42.76203091904227" lon="11.857598325454207"><ele>250.0</ele><time>2026-03-22T10:18:41.985Z</time></trkpt><trkpt lat="42.762116858257755" lon="11.85736958976441"><ele>248.0</ele><time>2026-03-22T10:18:42.985Z</time></trkpt><trkpt lat="42.76223717037213" lon="11.857164569771767"><ele>248.0</ele><time>2026-03-22T10:18:43.985Z</time></trkpt><trkpt lat="42.762372050733696" lon="11.856976134093603"><ele>248.0</ele><time>2026-03-22T10:18:44.985Z</time></trkpt><trkpt lat="42.76252094491372" lon="11.856806341449003"><ele>248.0</ele><time>2026-03-22T10:18:45.985Z</time></trkpt><trkpt lat="42.76268114695834" lon="11.856656259865138"><ele>247.66666666666669</ele><time>2026-03-22T10:18:46.985Z</time></trkpt><trkpt lat="42.762851259219474" lon="11.856527170516115"><ele>247.33333333333331</ele><time>2026-03-22T10:18:47.985Z</time></trkpt><trkpt lat="42.76303246149385" lon="11.856426727429504"><ele>247.0</ele><time>2026-03-22T10:18:48.985Z</time></trkpt><trkpt lat="42.76322241137255" lon="11.856349990933502"><ele>247.0</ele><time>2026-03-22T10:18:49.985Z</time></trkpt><trkpt lat="42.76342080299403" lon="11.856300445070998"><ele>247.0</ele><time>2026-03-22T10:18:50.985Z</time></trkpt><trkpt lat="42.76361949577114" lon="11.856278351686568"><ele>247.0</ele><time>2026-03-22T10:18:51.985Z</time></trkpt><trkpt lat="42.76381951603875" lon="11.856283666364858"><ele>247.0</ele><time>2026-03-22T10:18:52.985Z</time></trkpt><trkpt lat="42.764026623082096" lon="11.856289969714085"><ele>247.0</ele><time>2026-03-22T10:18:53.985Z</time></trkpt><trkpt lat="42.76423016062893" lon="11.85631627280323"><ele>247.0</ele><time>2026-03-22T10:18:54.985Z</time></trkpt><trkpt lat="42.76442968771618" lon="11.85632131753807"><ele>247.0</ele><time>2026-03-22T10:18:55.985Z</time></trkpt><trkpt lat="42.764627944280114" lon="11.856324723430195"><ele>247.0</ele><time>2026-03-22T10:18:56.985Z</time></trkpt><trkpt lat="42.76483022989329" lon="11.85630342396862"><ele>247.0</ele><time>2026-03-22T10:18:57.985Z</time></trkpt><trkpt lat="42.76503492160494" lon="11.856306289323372"><ele>247.0</ele><time>2026-03-22T10:18:58.984Z</time></trkpt><trkpt lat="42.765244709576365" lon="11.856300532561706"><ele>247.0</ele><time>2026-03-22T10:18:59.984Z</time></trkpt><trkpt lat="42.7654461848185" lon="11.856317095104815"><ele>247.0</ele><time>2026-03-22T10:19:00.984Z</time></trkpt><trkpt lat="42.76561382115956" lon="11.856312640784742"><ele>247.0</ele><time>2026-03-22T10:19:01.984Z</time></trkpt><trkpt lat="42.76574936206954" lon="11.85630348863554"><ele>247.0</ele><time>2026-03-22T10:19:02.984Z</time></trkpt><trkpt lat="42.7658546276512" lon="11.856294423582188"><ele>247.0</ele><time>2026-03-22T10:19:03.984Z</time></trkpt><trkpt lat="42.766283183461645" lon="11.856249439647286"><ele>248.33333333333331</ele><time>2026-03-22T10:19:04.984Z</time></trkpt><trkpt lat="42.76649163226286" lon="11.856223262984043"><ele>249.66666666666669</ele><time>2026-03-22T10:19:05.984Z</time></trkpt><trkpt lat="42.76670122916512" lon="11.856194500122486"><ele>251.0</ele><time>2026-03-22T10:19:06.984Z</time></trkpt><trkpt lat="42.766918435449334" lon="11.856152705182874"><ele>252.0</ele><time>2026-03-22T10:19:07.984Z</time></trkpt><trkpt lat="42.76714555637702" lon="11.856115818573143"><ele>253.0</ele><time>2026-03-22T10:19:08.984Z</time></trkpt><trkpt lat="42.76737608956048" lon="11.856079204132854"><ele>253.0</ele><time>2026-03-22T10:19:09.984Z</time></trkpt><trkpt lat="42.767616510932264" lon="11.85604924466435"><ele>253.0</ele><time>2026-03-22T10:19:10.984Z</time></trkpt><trkpt lat="42.76785698746289" lon="11.85600518124527"><ele>253.0</ele><time>2026-03-22T10:19:11.984Z</time></trkpt><trkpt lat="42.76810044225963" lon="11.855964880816389"><ele>253.0</ele><time>2026-03-22T10:19:12.984Z</time></trkpt><trkpt lat="42.7683457534364" lon="11.855923526386393"><ele>255.5</ele><time>2026-03-22T10:19:13.984Z</time></trkpt><trkpt lat="42.76858731426412" lon="11.855877539174786"><ele>258.0</ele><time>2026-03-22T10:19:14.984Z</time></trkpt><trkpt lat="42.76882262652343" lon="11.855830183014831"><ele>258.0</ele><time>2026-03-22T10:19:15.984Z</time></trkpt><trkpt lat="42.76906804533446" lon="11.855769102515609"><ele>258.0</ele><time>2026-03-22T10:19:16.984Z</time></trkpt><trkpt lat="42.76931960184914" lon="11.855726480646721"><ele>258.5</ele><time>2026-03-22T10:19:17.984Z</time></trkpt><trkpt lat="42.76957100141932" lon="11.855700959501094"><ele>259.0</ele><time>2026-03-22T10:19:18.984Z</time></trkpt><trkpt lat="42.769814879413886" lon="11.855674302852155"><ele>259.0</ele><time>2026-03-22T10:19:19.984Z</time></trkpt><trkpt lat="42.77005078303989" lon="11.855636883467062"><ele>259.0</ele><time>2026-03-22T10:19:20.984Z</time></trkpt><trkpt lat="42.77027106816051" lon="11.855592118626335"><ele>259.66666666666663</ele><time>2026-03-22T10:19:21.984Z</time></trkpt><trkpt lat="42.77047923568827" lon="11.855553023589422"><ele>260.3333333333333</ele><time>2026-03-22T10:19:22.984Z</time></trkpt><trkpt lat="42.770672459801936" lon="11.855506382573347"><ele>261.0</ele><time>2026-03-22T10:19:23.984Z</time></trkpt><trkpt lat="42.77084566668381" lon="11.855425706429724"><ele>261.0</ele><time>2026-03-22T10:19:24.984Z</time></trkpt><trkpt lat="42.77098474237454" lon="11.85528482992674"><ele>261.0</ele><time>2026-03-22T10:19:25.984Z</time></trkpt><trkpt lat="42.77111151017483" lon="11.855110155556796"><ele>261.0</ele><time>2026-03-22T10:19:26.984Z</time></trkpt><trkpt lat="42.771213990069484" lon="11.854908617137568"><ele>262.0</ele><time>2026-03-22T10:19:27.984Z</time></trkpt><trkpt lat="42.77129245279273" lon="11.854668907704447"><ele>263.0</ele><time>2026-03-22T10:19:28.984Z</time></trkpt><trkpt lat="42.77134018526166" lon="11.85442889388583"><ele>264.0</ele><time>2026-03-22T10:19:29.984Z</time></trkpt><trkpt lat="42.77136187748621" lon="11.8541698862077"><ele>264.0</ele><time>2026-03-22T10:19:30.984Z</time></trkpt><trkpt lat="42.771389084413485" lon="11.853887840352893"><ele>264.0</ele><time>2026-03-22T10:19:31.984Z</time></trkpt><trkpt lat="42.77142657446579" lon="11.853608255767409"><ele>264.0</ele><time>2026-03-22T10:19:32.984Z</time></trkpt><trkpt lat="42.77146864544927" lon="11.853332046751307"><ele>263.6666666666667</ele><time>2026-03-22T10:19:33.984Z</time></trkpt><trkpt lat="42.77150436510023" lon="11.853051466632028"><ele>263.33333333333337</ele><time>2026-03-22T10:19:34.984Z</time></trkpt><trkpt lat="42.771540711784155" lon="11.852773080768"><ele>263.0</ele><time>2026-03-22T10:19:35.984Z</time></trkpt><trkpt lat="42.77159369985139" lon="11.852496969709478"><ele>264.0</ele><time>2026-03-22T10:19:36.986Z</time></trkpt><trkpt lat="42.77166905766788" lon="11.852234872441363"><ele>265.0</ele><time>2026-03-22T10:19:37.986Z</time></trkpt><trkpt lat="42.77176617669874" lon="11.851982911275494"><ele>266.0</ele><time>2026-03-22T10:19:38.986Z</time></trkpt><trkpt lat="42.77188336926802" lon="11.851756097092862"><ele>268.33333333333337</ele><time>2026-03-22T10:19:39.986Z</time></trkpt><trkpt lat="42.77203168647108" lon="11.851547596829672"><ele>270.6666666666667</ele><time>2026-03-22T10:19:40.986Z</time></trkpt><trkpt lat="42.77219611030759" lon="11.851343592855246"><ele>273.0</ele><time>2026-03-22T10:19:41.986Z</time></trkpt><trkpt lat="42.772360520467366" lon="11.851135373307567"><ele>272.5</ele><time>2026-03-22T10:19:42.985Z</time></trkpt><trkpt lat="42.772525630400786" lon="11.850916992544896"><ele>272.0</ele><time>2026-03-22T10:19:43.986Z</time></trkpt><trkpt lat="42.77269008602552" lon="11.850692183317078"><ele>272.0</ele><time>2026-03-22T10:19:44.986Z</time></trkpt><trkpt lat="42.77285145623047" lon="11.85046552554723"><ele>272.0</ele><time>2026-03-22T10:19:45.986Z</time></trkpt><trkpt lat="42.77301478153579" lon="11.850244488844995"><ele>269.5</ele><time>2026-03-22T10:19:46.985Z</time></trkpt><trkpt lat="42.77317435765009" lon="11.850022355090058"><ele>267.0</ele><time>2026-03-22T10:19:47.985Z</time></trkpt><trkpt lat="42.77333659552464" lon="11.849795614082495"><ele>267.0</ele><time>2026-03-22T10:19:48.986Z</time></trkpt><trkpt lat="42.77350036153161" lon="11.849576860066367"><ele>267.0</ele><time>2026-03-22T10:19:49.985Z</time></trkpt><trkpt lat="42.77365899324276" lon="11.849353251998888"><ele>268.0</ele><time>2026-03-22T10:19:50.985Z</time></trkpt><trkpt lat="42.77380583813222" lon="11.849150988535833"><ele>269.0</ele><time>2026-03-22T10:19:51.985Z</time></trkpt><trkpt lat="42.77395701682919" lon="11.848946583274591"><ele>270.0</ele><time>2026-03-22T10:19:52.985Z</time></trkpt><trkpt lat="42.77410869202651" lon="11.8487442624026"><ele>270.0</ele><time>2026-03-22T10:19:53.985Z</time></trkpt><trkpt lat="42.77425814429216" lon="11.848534804833251"><ele>270.0</ele><time>2026-03-22T10:19:54.985Z</time></trkpt><trkpt lat="42.774408189379905" lon="11.84832167111661"><ele>270.0</ele><time>2026-03-22T10:19:55.985Z</time></trkpt><trkpt lat="42.774550681037056" lon="11.848108247146687"><ele>270.6666666666667</ele><time>2026-03-22T10:19:56.985Z</time></trkpt><trkpt lat="42.77468822160844" lon="11.847892994218872"><ele>271.33333333333337</ele><time>2026-03-22T10:19:57.985Z</time></trkpt><trkpt lat="42.77481192416269" lon="11.847647878462073"><ele>272.0</ele><time>2026-03-22T10:19:58.985Z</time></trkpt><trkpt lat="42.77491953110848" lon="11.847386634158068"><ele>270.33333333333337</ele><time>2026-03-22T10:19:59.985Z</time></trkpt><trkpt lat="42.775003413674824" lon="11.847111544826344"><ele>268.6666666666667</ele><time>2026-03-22T10:20:00.985Z</time></trkpt><trkpt lat="42.77507282778219" lon="11.84683083417628"><ele>267.0</ele><time>2026-03-22T10:20:01.985Z</time></trkpt><trkpt lat="42.77512252993445" lon="11.84653195365177"><ele>266.5</ele><time>2026-03-22T10:20:02.985Z</time></trkpt><trkpt lat="42.775177859779696" lon="11.846232760373079"><ele>266.0</ele><time>2026-03-22T10:20:03.985Z</time></trkpt><trkpt lat="42.77523613291712" lon="11.845931269266831"><ele>266.0</ele><time>2026-03-22T10:20:04.985Z</time></trkpt><trkpt lat="42.77529749045325" lon="11.845633404851212"><ele>266.0</ele><time>2026-03-22T10:20:05.985Z</time></trkpt><trkpt lat="42.77536531627021" lon="11.845342650175422"><ele>265.5</ele><time>2026-03-22T10:20:06.985Z</time></trkpt><trkpt lat="42.775441044964005" lon="11.845049878702754"><ele>265.0</ele><time>2026-03-22T10:20:07.985Z</time></trkpt><trkpt lat="42.77552594501508" lon="11.844766223372316"><ele>265.0</ele><time>2026-03-22T10:20:08.985Z</time></trkpt><trkpt lat="42.77562135954946" lon="11.844488011716589"><ele>265.0</ele><time>2026-03-22T10:20:09.985Z</time></trkpt><trkpt lat="42.77572562809085" lon="11.844217173915531"><ele>264.0</ele><time>2026-03-22T10:20:10.985Z</time></trkpt><trkpt lat="42.77584411199623" lon="11.843955937032122"><ele>263.0</ele><time>2026-03-22T10:20:11.985Z</time></trkpt><trkpt lat="42.77597464672396" lon="11.843703939274558"><ele>263.5</ele><time>2026-03-22T10:20:12.985Z</time></trkpt><trkpt lat="42.77611402860038" lon="11.843455673064282"><ele>264.0</ele><time>2026-03-22T10:20:13.985Z</time></trkpt><trkpt lat="42.77624429115652" lon="11.843199733667166"><ele>264.0</ele><time>2026-03-22T10:20:14.985Z</time></trkpt><trkpt lat="42.77637266960653" lon="11.842947004045833"><ele>264.0</ele><time>2026-03-22T10:20:15.985Z</time></trkpt><trkpt lat="42.7765060125656" lon="11.842692169247448"><ele>263.5</ele><time>2026-03-22T10:20:16.985Z</time></trkpt><trkpt lat="42.77664128936427" lon="11.84243849576186"><ele>263.0</ele><time>2026-03-22T10:20:17.985Z</time></trkpt><trkpt lat="42.776774047870994" lon="11.842182623818871"><ele>264.5</ele><time>2026-03-22T10:20:18.985Z</time></trkpt><trkpt lat="42.77690518712834" lon="11.841923796075426"><ele>266.0</ele><time>2026-03-22T10:20:19.985Z</time></trkpt><trkpt lat="42.777034987634124" lon="11.841672222332642"><ele>266.0</ele><time>2026-03-22T10:20:20.985Z</time></trkpt><trkpt lat="42.7771625719448" lon="11.841423617322349"><ele>266.0</ele><time>2026-03-22T10:20:21.985Z</time></trkpt><trkpt lat="42.77728914450496" lon="11.841170653362761"><ele>266.0</ele><time>2026-03-22T10:20:22.985Z</time></trkpt><trkpt lat="42.77741258722538" lon="11.840921071444848"><ele>264.5</ele><time>2026-03-22T10:20:23.985Z</time></trkpt><trkpt lat="42.77754341870093" lon="11.840667579290468"><ele>263.0</ele><time>2026-03-22T10:20:24.985Z</time></trkpt><trkpt lat="42.77767952027287" lon="11.840411803798558"><ele>263.0</ele><time>2026-03-22T10:20:25.985Z</time></trkpt><trkpt lat="42.777817014656414" lon="11.840148472875212"><ele>263.0</ele><time>2026-03-22T10:20:26.985Z</time></trkpt><trkpt lat="42.77796223604665" lon="11.839884523738359"><ele>263.0</ele><time>2026-03-22T10:20:27.985Z</time></trkpt><trkpt lat="42.77811097989651" lon="11.839619387122312"><ele>263.0</ele><time>2026-03-22T10:20:28.984Z</time></trkpt><trkpt lat="42.77826029671893" lon="11.839355812583348"><ele>263.5</ele><time>2026-03-22T10:20:29.984Z</time></trkpt><trkpt lat="42.7784144339007" lon="11.83909163182024"><ele>264.0</ele><time>2026-03-22T10:20:30.984Z</time></trkpt><trkpt lat="42.77857354844592" lon="11.83883056331175"><ele>264.0</ele><time>2026-03-22T10:20:31.984Z</time></trkpt><trkpt lat="42.778725864090056" lon="11.838562712075309"><ele>264.0</ele><time>2026-03-22T10:20:32.984Z</time></trkpt><trkpt lat="42.77887941005578" lon="11.838292677951872"><ele>262.0</ele><time>2026-03-22T10:20:33.984Z</time></trkpt><trkpt lat="42.779035120877225" lon="11.838021171479623"><ele>260.0</ele><time>2026-03-22T10:20:34.984Z</time></trkpt><trkpt lat="42.77919543448838" lon="11.837754188518934"><ele>262.5</ele><time>2026-03-22T10:20:35.984Z</time></trkpt><trkpt lat="42.77935432197295" lon="11.837490501095248"><ele>265.0</ele><time>2026-03-22T10:20:36.984Z</time></trkpt><trkpt lat="42.77950631838228" lon="11.837227964976922"><ele>265.0</ele><time>2026-03-22T10:20:37.984Z</time></trkpt><trkpt lat="42.779661043618276" lon="11.836963958209777"><ele>265.0</ele><time>2026-03-22T10:20:38.984Z</time></trkpt><trkpt lat="42.77981351199705" lon="11.836703357828465"><ele>263.5</ele><time>2026-03-22T10:20:39.984Z</time></trkpt><trkpt lat="42.779962759964725" lon="11.83644629162719"><ele>262.0</ele><time>2026-03-22T10:20:40.984Z</time></trkpt><trkpt lat="42.78011418479052" lon="11.83618820991827"><ele>264.0</ele><time>2026-03-22T10:20:41.984Z</time></trkpt><trkpt lat="42.780267316699316" lon="11.835928992873562"><ele>266.0</ele><time>2026-03-22T10:20:42.984Z</time></trkpt><trkpt lat="42.78041714023477" lon="11.835668374888938"><ele>266.0</ele><time>2026-03-22T10:20:43.984Z</time></trkpt><trkpt lat="42.780566782265545" lon="11.835402994334421"><ele>266.0</ele><time>2026-03-22T10:20:44.984Z</time></trkpt><trkpt lat="42.78071116402139" lon="11.835138007240293"><ele>264.5</ele><time>2026-03-22T10:20:45.984Z</time></trkpt><trkpt lat="42.78084834148211" lon="11.834875243790147"><ele>263.0</ele><time>2026-03-22T10:20:46.984Z</time></trkpt><trkpt lat="42.78097559652916" lon="11.834592134244192"><ele>264.0</ele><time>2026-03-22T10:20:47.984Z</time></trkpt><trkpt lat="42.78110172716978" lon="11.834310651952212"><ele>265.0</ele><time>2026-03-22T10:20:48.984Z</time></trkpt><trkpt lat="42.78122236871607" lon="11.834019157388877"><ele>265.0</ele><time>2026-03-22T10:20:49.984Z</time></trkpt><trkpt lat="42.78134096634575" lon="11.833740063205823"><ele>265.0</ele><time>2026-03-22T10:20:50.984Z</time></trkpt><trkpt lat="42.78146294902308" lon="11.833460875769267"><ele>264.5</ele><time>2026-03-22T10:20:51.984Z</time></trkpt><trkpt lat="42.78159767793546" lon="11.833209091375112"><ele>264.0</ele><time>2026-03-22T10:20:52.984Z</time></trkpt><trkpt lat="42.78176200286278" lon="11.832987767290135"><ele>265.0</ele><time>2026-03-22T10:20:53.984Z</time></trkpt><trkpt lat="42.78193791347629" lon="11.832788038196803"><ele>266.0</ele><time>2026-03-22T10:20:54.984Z</time></trkpt><trkpt lat="42.78213952791751" lon="11.832638815770085"><ele>266.0</ele><time>2026-03-22T10:20:55.984Z</time></trkpt><trkpt lat="42.78233991063849" lon="11.832505323948695"><ele>266.0</ele><time>2026-03-22T10:20:56.984Z</time></trkpt><trkpt lat="42.78256811649886" lon="11.83241969398222"><ele>268.5</ele><time>2026-03-22T10:20:57.984Z</time></trkpt><trkpt lat="42.78279132578584" lon="11.83232251261005"><ele>271.0</ele><time>2026-03-22T10:20:58.984Z</time></trkpt><trkpt lat="42.78301942737649" lon="11.832221601430174"><ele>271.0</ele><time>2026-03-22T10:20:59.984Z</time></trkpt><trkpt lat="42.78324264805179" lon="11.832118368983135"><ele>271.0</ele><time>2026-03-22T10:21:00.984Z</time></trkpt><trkpt lat="42.78346123037301" lon="11.832015661116957"><ele>270.0</ele><time>2026-03-22T10:21:01.984Z</time></trkpt><trkpt lat="42.78366409658653" lon="11.831883086202147"><ele>269.0</ele><time>2026-03-22T10:21:02.984Z</time></trkpt><trkpt lat="42.783854497246416" lon="11.83172700226604"><ele>268.0</ele><time>2026-03-22T10:21:03.984Z</time></trkpt><trkpt lat="42.78402784962976" lon="11.83152930856509"><ele>268.0</ele><time>2026-03-22T10:21:04.984Z</time></trkpt><trkpt lat="42.78419200113269" lon="11.831318945043993"><ele>268.0</ele><time>2026-03-22T10:21:05.984Z</time></trkpt><trkpt lat="42.784339194248275" lon="11.831083873276153"><ele>269.0</ele><time>2026-03-22T10:21:06.984Z</time></trkpt><trkpt lat="42.78448463427516" lon="11.830839407707897"><ele>270.0</ele><time>2026-03-22T10:21:07.984Z</time></trkpt><trkpt lat="42.78463157644471" lon="11.830590011704722"><ele>270.0</ele><time>2026-03-22T10:21:08.984Z</time></trkpt><trkpt lat="42.7847899574703" lon="11.830348361078942"><ele>270.0</ele><time>2026-03-22T10:21:09.984Z</time></trkpt><trkpt lat="42.784947374894166" lon="11.830102349567182"><ele>269.5</ele><time>2026-03-22T10:21:10.983Z</time></trkpt><trkpt lat="42.78510480875466" lon="11.829852434480234"><ele>269.0</ele><time>2026-03-22T10:21:11.983Z</time></trkpt><trkpt lat="42.78526052663409" lon="11.829609185938578"><ele>269.0</ele><time>2026-03-22T10:21:12.983Z</time></trkpt><trkpt lat="42.78541448547151" lon="11.829370567327054"><ele>269.0</ele><time>2026-03-22T10:21:13.983Z</time></trkpt><trkpt lat="42.78556320429831" lon="11.829129704606462"><ele>268.6666666666667</ele><time>2026-03-22T10:21:14.983Z</time></trkpt><trkpt lat="42.78570587870708" lon="11.828894590074185"><ele>268.3333333333333</ele><time>2026-03-22T10:21:15.983Z</time></trkpt><trkpt lat="42.785847666186655" lon="11.828670151512204"><ele>268.0</ele><time>2026-03-22T10:21:16.983Z</time></trkpt><trkpt lat="42.785991757445245" lon="11.828441353809657"><ele>270.0</ele><time>2026-03-22T10:21:17.983Z</time></trkpt><trkpt lat="42.78613470566857" lon="11.82821188269296"><ele>272.0</ele><time>2026-03-22T10:21:18.983Z</time></trkpt><trkpt lat="42.786270465136724" lon="11.827971746123998"><ele>274.0</ele><time>2026-03-22T10:21:19.983Z</time></trkpt><trkpt lat="42.78640289555179" lon="11.827717834449098"><ele>271.5</ele><time>2026-03-22T10:21:20.983Z</time></trkpt><trkpt lat="42.786534932958574" lon="11.82745912199488"><ele>269.0</ele><time>2026-03-22T10:21:21.983Z</time></trkpt><trkpt lat="42.78666962614668" lon="11.827209476780547"><ele>269.0</ele><time>2026-03-22T10:21:22.983Z</time></trkpt><trkpt lat="42.786799168888436" lon="11.826962748123137"><ele>269.0</ele><time>2026-03-22T10:21:23.983Z</time></trkpt><trkpt lat="42.78692206260612" lon="11.826729316631063"><ele>269.0</ele><time>2026-03-22T10:21:24.983Z</time></trkpt><trkpt lat="42.78704346743599" lon="11.82649980722846"><ele>270.6666666666667</ele><time>2026-03-22T10:21:25.983Z</time></trkpt><trkpt lat="42.787165239715556" lon="11.826280710309382"><ele>272.3333333333333</ele><time>2026-03-22T10:21:26.983Z</time></trkpt><trkpt lat="42.7872921365821" lon="11.826068785416622"><ele>274.0</ele><time>2026-03-22T10:21:27.983Z</time></trkpt><trkpt lat="42.787426308116274" lon="11.825867605243946"><ele>274.0</ele><time>2026-03-22T10:21:28.983Z</time></trkpt><trkpt lat="42.78756791973372" lon="11.825664359478063"><ele>274.0</ele><time>2026-03-22T10:21:29.983Z</time></trkpt><trkpt lat="42.78770938205614" lon="11.825460977749607"><ele>274.0</ele><time>2026-03-22T10:21:30.983Z</time></trkpt><trkpt lat="42.78786020364704" lon="11.825261769133238"><ele>273.66666666666663</ele><time>2026-03-22T10:21:31.983Z</time></trkpt><trkpt lat="42.78802605318984" lon="11.825072454842335"><ele>273.3333333333333</ele><time>2026-03-22T10:21:32.983Z</time></trkpt><trkpt lat="42.78818713398079" lon="11.824872636430284"><ele>273.0</ele><time>2026-03-22T10:21:33.983Z</time></trkpt><trkpt lat="42.78834784093104" lon="11.824675853909284"><ele>273.0</ele><time>2026-03-22T10:21:34.983Z</time></trkpt><trkpt lat="42.78850068061688" lon="11.824469983901416"><ele>273.0</ele><time>2026-03-22T10:21:35.983Z</time></trkpt><trkpt lat="42.78865821261957" lon="11.824266297328423"><ele>273.0</ele><time>2026-03-22T10:21:36.983Z</time></trkpt><trkpt lat="42.788813146485474" lon="11.82406260326658"><ele>272.6666666666667</ele><time>2026-03-22T10:21:37.983Z</time></trkpt><trkpt lat="42.78897062489865" lon="11.823858916447941"><ele>272.33333333333337</ele><time>2026-03-22T10:21:38.983Z</time></trkpt><trkpt lat="42.78913244208208" lon="11.823658862009049"><ele>272.0</ele><time>2026-03-22T10:21:39.983Z</time></trkpt><trkpt lat="42.78929178181298" lon="11.823458752850406"><ele>273.6666666666667</ele><time>2026-03-22T10:21:40.983Z</time></trkpt><trkpt lat="42.78944929096902" lon="11.823257202414077"><ele>275.3333333333333</ele><time>2026-03-22T10:21:41.983Z</time></trkpt><trkpt lat="42.789606489899846" lon="11.823053402110252"><ele>277.0</ele><time>2026-03-22T10:21:42.985Z</time></trkpt><trkpt lat="42.78976369008761" lon="11.82284266799439"><ele>275.0</ele><time>2026-03-22T10:21:43.985Z</time></trkpt><trkpt lat="42.78992647757638" lon="11.82262708246374"><ele>273.0</ele><time>2026-03-22T10:21:44.985Z</time></trkpt><trkpt lat="42.79008989582664" lon="11.822413394075209"><ele>273.5</ele><time>2026-03-22T10:21:45.985Z</time></trkpt><trkpt lat="42.790248457817576" lon="11.822185225757362"><ele>274.0</ele><time>2026-03-22T10:21:46.985Z</time></trkpt><trkpt lat="42.790411601136846" lon="11.821956900089468"><ele>273.0</ele><time>2026-03-22T10:21:47.985Z</time></trkpt><trkpt lat="42.790573482348286" lon="11.821728840891346"><ele>272.0</ele><time>2026-03-22T10:21:48.985Z</time></trkpt><trkpt lat="42.79073143607013" lon="11.821500980110445"><ele>272.0</ele><time>2026-03-22T10:21:49.985Z</time></trkpt><trkpt lat="42.790888284394065" lon="11.82127352316747"><ele>272.0</ele><time>2026-03-22T10:21:50.985Z</time></trkpt><trkpt lat="42.79105661432024" lon="11.821038524196743"><ele>275.0</ele><time>2026-03-22T10:21:51.986Z</time></trkpt><trkpt lat="42.791237996762135" lon="11.82082215420564"><ele>278.0</ele><time>2026-03-22T10:21:52.985Z</time></trkpt><trkpt lat="42.791440462513954" lon="11.820606016374644"><ele>278.0</ele><time>2026-03-22T10:21:53.985Z</time></trkpt><trkpt lat="42.79164892725712" lon="11.820395847504926"><ele>278.0</ele><time>2026-03-22T10:21:54.986Z</time></trkpt><trkpt lat="42.791867087754305" lon="11.820177150711649"><ele>280.5</ele><time>2026-03-22T10:21:55.986Z</time></trkpt><trkpt lat="42.79208016843012" lon="11.8199592799527"><ele>283.0</ele><time>2026-03-22T10:21:56.986Z</time></trkpt><trkpt lat="42.79229373656474" lon="11.81974605204181"><ele>283.0</ele><time>2026-03-22T10:21:57.986Z</time></trkpt><trkpt lat="42.792504991990754" lon="11.819528307263202"><ele>283.0</ele><time>2026-03-22T10:21:58.986Z</time></trkpt><trkpt lat="42.792711206678526" lon="11.819315948196255"><ele>285.0</ele><time>2026-03-22T10:21:59.986Z</time></trkpt><trkpt lat="42.79291399889902" lon="11.81910923564196"><ele>287.0</ele><time>2026-03-22T10:22:00.985Z</time></trkpt><trkpt lat="42.79311196890475" lon="11.818901632107126"><ele>287.0</ele><time>2026-03-22T10:22:01.985Z</time></trkpt><trkpt lat="42.793303152988884" lon="11.818684547846303"><ele>287.0</ele><time>2026-03-22T10:22:02.985Z</time></trkpt><trkpt lat="42.79348500200009" lon="11.818451872331337"><ele>288.5</ele><time>2026-03-22T10:22:03.985Z</time></trkpt><trkpt lat="42.79365069628842" lon="11.818211913896741"><ele>290.0</ele><time>2026-03-22T10:22:04.985Z</time></trkpt><trkpt lat="42.7938158686893" lon="11.817958328297733"><ele>290.0</ele><time>2026-03-22T10:22:05.985Z</time></trkpt><trkpt lat="42.793978665855" lon="11.817706222898053"><ele>290.0</ele><time>2026-03-22T10:22:06.985Z</time></trkpt><trkpt lat="42.79414099420315" lon="11.817441498062484"><ele>292.5</ele><time>2026-03-22T10:22:07.985Z</time></trkpt><trkpt lat="42.79430769832224" lon="11.817177718048587"><ele>295.0</ele><time>2026-03-22T10:22:08.985Z</time></trkpt><trkpt lat="42.79447787955265" lon="11.816911216857386"><ele>289.5</ele><time>2026-03-22T10:22:09.985Z</time></trkpt><trkpt lat="42.794649882384334" lon="11.816653130188955"><ele>284.0</ele><time>2026-03-22T10:22:10.985Z</time></trkpt><trkpt lat="42.794826070308794" lon="11.816402846105442"><ele>284.0</ele><time>2026-03-22T10:22:11.985Z</time></trkpt><trkpt lat="42.79501130196903" lon="11.816163224016282"><ele>284.0</ele><time>2026-03-22T10:22:12.985Z</time></trkpt><trkpt lat="42.795202096020546" lon="11.81593609496274"><ele>285.0</ele><time>2026-03-22T10:22:13.985Z</time></trkpt><trkpt lat="42.7953839812579" lon="11.815700149166137"><ele>286.0</ele><time>2026-03-22T10:22:14.985Z</time></trkpt><trkpt lat="42.79556689197927" lon="11.815465953069301"><ele>286.0</ele><time>2026-03-22T10:22:15.985Z</time></trkpt><trkpt lat="42.7957705220885" lon="11.815258938019065"><ele>286.0</ele><time>2026-03-22T10:22:16.985Z</time></trkpt><trkpt lat="42.79598412920301" lon="11.815068463601762"><ele>286.5</ele><time>2026-03-22T10:22:17.985Z</time></trkpt><trkpt lat="42.79620237197313" lon="11.814888956678791"><ele>287.0</ele><time>2026-03-22T10:22:18.985Z</time></trkpt><trkpt lat="42.796418439877165" lon="11.814711986491352"><ele>287.0</ele><time>2026-03-22T10:22:19.985Z</time></trkpt><trkpt lat="42.79663413744197" lon="11.814531033145178"><ele>287.0</ele><time>2026-03-22T10:22:20.985Z</time></trkpt><trkpt lat="42.79684222916506" lon="11.814349555720588"><ele>287.0</ele><time>2026-03-22T10:22:21.985Z</time></trkpt><trkpt lat="42.79705094150555" lon="11.814173533086707"><ele>287.0</ele><time>2026-03-22T10:22:22.985Z</time></trkpt><trkpt lat="42.797259573069155" lon="11.81399964978548"><ele>287.0</ele><time>2026-03-22T10:22:23.985Z</time></trkpt><trkpt lat="42.79746197086748" lon="11.813826136308428"><ele>287.0</ele><time>2026-03-22T10:22:24.985Z</time></trkpt><trkpt lat="42.79766123428394" lon="11.813651635218154"><ele>287.0</ele><time>2026-03-22T10:22:25.985Z</time></trkpt><trkpt lat="42.797860252384396" lon="11.813477440358179"><ele>287.0</ele><time>2026-03-22T10:22:26.985Z</time></trkpt><trkpt lat="42.798064355685945" lon="11.813304587093853"><ele>287.0</ele><time>2026-03-22T10:22:27.985Z</time></trkpt><trkpt lat="42.79826851199037" lon="11.813138174426843"><ele>287.0</ele><time>2026-03-22T10:22:28.985Z</time></trkpt><trkpt lat="42.79846836335604" lon="11.812970939849167"><ele>288.0</ele><time>2026-03-22T10:22:29.985Z</time></trkpt><trkpt lat="42.79866918374908" lon="11.812799771304096"><ele>289.0</ele><time>2026-03-22T10:22:30.985Z</time></trkpt><trkpt lat="42.79885739282665" lon="11.812639256862555"><ele>289.0</ele><time>2026-03-22T10:22:31.985Z</time></trkpt><trkpt lat="42.799035657502124" lon="11.812475884617943"><ele>289.0</ele><time>2026-03-22T10:22:32.985Z</time></trkpt><trkpt lat="42.79920591471627" lon="11.812295200147831"><ele>289.0</ele><time>2026-03-22T10:22:33.985Z</time></trkpt><trkpt lat="42.79935258017944" lon="11.812094377892366"><ele>290.0</ele><time>2026-03-22T10:22:34.985Z</time></trkpt><trkpt lat="42.799459309509736" lon="11.811860759891823"><ele>291.0</ele><time>2026-03-22T10:22:35.985Z</time></trkpt><trkpt lat="42.79954535743785" lon="11.81161234194355"><ele>292.0</ele><time>2026-03-22T10:22:36.985Z</time></trkpt><trkpt lat="42.79961978040549" lon="11.811357197647792"><ele>286.66666666666663</ele><time>2026-03-22T10:22:37.985Z</time></trkpt><trkpt lat="42.79970201784416" lon="11.811100675460079"><ele>281.3333333333333</ele><time>2026-03-22T10:22:38.985Z</time></trkpt><trkpt lat="42.79978755217682" lon="11.810840218090247"><ele>276.0</ele><time>2026-03-22T10:22:39.985Z</time></trkpt><trkpt lat="42.79987904895002" lon="11.810577208139875"><ele>276.0</ele><time>2026-03-22T10:22:40.985Z</time></trkpt><trkpt lat="42.79997237108996" lon="11.810303609264416"><ele>276.0</ele><time>2026-03-22T10:22:41.985Z</time></trkpt><trkpt lat="42.800066078031705" lon="11.810013982853311"><ele>276.0</ele><time>2026-03-22T10:22:42.985Z</time></trkpt><trkpt lat="42.8001545892641" lon="11.809783989652024"><ele>276.0</ele><time>2026-03-22T10:22:43.984Z</time></trkpt><trkpt lat="42.800255918945005" lon="11.809494854706562"><ele>276.0</ele><time>2026-03-22T10:22:44.984Z</time></trkpt><trkpt lat="42.800356315316904" lon="11.809208839417"><ele>275.0</ele><time>2026-03-22T10:22:45.984Z</time></trkpt><trkpt lat="42.800454552172404" lon="11.808917093738721"><ele>274.0</ele><time>2026-03-22T10:22:46.984Z</time></trkpt><trkpt lat="42.80055009734591" lon="11.808621587184499"><ele>274.5</ele><time>2026-03-22T10:22:47.984Z</time></trkpt><trkpt lat="42.800644191284256" lon="11.808327487498344"><ele>275.0</ele><time>2026-03-22T10:22:48.984Z</time></trkpt><trkpt lat="42.800744731348544" lon="11.80803359358853"><ele>275.0</ele><time>2026-03-22T10:22:49.984Z</time></trkpt><trkpt lat="42.800857532423144" lon="11.807752996359653"><ele>275.0</ele><time>2026-03-22T10:22:50.984Z</time></trkpt><trkpt lat="42.80099392642507" lon="11.80748941842082"><ele>279.5</ele><time>2026-03-22T10:22:51.984Z</time></trkpt><trkpt lat="42.8011576574348" lon="11.807256956754852"><ele>284.0</ele><time>2026-03-22T10:22:52.984Z</time></trkpt><trkpt lat="42.801336746565084" lon="11.807045597540002"><ele>284.0</ele><time>2026-03-22T10:22:53.984Z</time></trkpt><trkpt lat="42.801529797649245" lon="11.806861458949824"><ele>284.0</ele><time>2026-03-22T10:22:54.984Z</time></trkpt><trkpt lat="42.801735171850446" lon="11.806700974132616"><ele>286.5</ele><time>2026-03-22T10:22:55.984Z</time></trkpt><trkpt lat="42.80194861681589" lon="11.806564808211586"><ele>289.0</ele><time>2026-03-22T10:22:56.984Z</time></trkpt><trkpt lat="42.80216052552734" lon="11.806438500525806"><ele>289.0</ele><time>2026-03-22T10:22:57.984Z</time></trkpt><trkpt lat="42.80236821706619" lon="11.806318182192744"><ele>289.0</ele><time>2026-03-22T10:22:58.984Z</time></trkpt><trkpt lat="42.802576327095345" lon="11.806192937730545"><ele>291.0</ele><time>2026-03-22T10:22:59.984Z</time></trkpt><trkpt lat="42.8027844504843" lon="11.806072148200036"><ele>293.0</ele><time>2026-03-22T10:23:00.984Z</time></trkpt><trkpt lat="42.802992156493524" lon="11.80595374107719"><ele>293.0</ele><time>2026-03-22T10:23:01.984Z</time></trkpt><trkpt lat="42.80320176173078" lon="11.80582612979583"><ele>293.0</ele><time>2026-03-22T10:23:02.984Z</time></trkpt><trkpt lat="42.80341542136977" lon="11.805700616014306"><ele>299.0</ele><time>2026-03-22T10:23:03.984Z</time></trkpt><trkpt lat="42.8036313285295" lon="11.805566507220226"><ele>305.0</ele><time>2026-03-22T10:23:04.984Z</time></trkpt><trkpt lat="42.803843568036086" lon="11.805442731678927"><ele>305.0</ele><time>2026-03-22T10:23:05.984Z</time></trkpt><trkpt lat="42.80407525889163" lon="11.805339488210114"><ele>305.0</ele><time>2026-03-22T10:23:06.984Z</time></trkpt><trkpt lat="42.80428401182973" lon="11.805211760848135"><ele>299.0</ele><time>2026-03-22T10:23:07.984Z</time></trkpt><trkpt lat="42.80449484024125" lon="11.805087955016011"><ele>293.0</ele><time>2026-03-22T10:23:08.984Z</time></trkpt><trkpt lat="42.80470458919936" lon="11.804951687605021"><ele>293.0</ele><time>2026-03-22T10:23:09.984Z</time></trkpt><trkpt lat="42.80492438590327" lon="11.804821577927504"><ele>293.0</ele><time>2026-03-22T10:23:10.984Z</time></trkpt><trkpt lat="42.80514075774897" lon="11.804687439323182"><ele>294.5</ele><time>2026-03-22T10:23:11.984Z</time></trkpt><trkpt lat="42.80536462833188" lon="11.804550113611661"><ele>296.0</ele><time>2026-03-22T10:23:12.984Z</time></trkpt><trkpt lat="42.80558628144303" lon="11.80441793908681"><ele>295.0</ele><time>2026-03-22T10:23:13.984Z</time></trkpt><trkpt lat="42.80580978654406" lon="11.8042807107518"><ele>294.0</ele><time>2026-03-22T10:23:14.984Z</time></trkpt><trkpt lat="42.806037222589865" lon="11.804144187776505"><ele>294.0</ele><time>2026-03-22T10:23:15.984Z</time></trkpt><trkpt lat="42.80626888097726" lon="11.80400784613141"><ele>294.0</ele><time>2026-03-22T10:23:16.984Z</time></trkpt><trkpt lat="42.80650272683692" lon="11.803864281523813"><ele>294.0</ele><time>2026-03-22T10:23:17.984Z</time></trkpt><trkpt lat="42.806738626174486" lon="11.8037221600581"><ele>294.0</ele><time>2026-03-22T10:23:18.984Z</time></trkpt><trkpt lat="42.806977834275095" lon="11.80357877934034"><ele>294.5</ele><time>2026-03-22T10:23:19.984Z</time></trkpt><trkpt lat="42.807221721293296" lon="11.803428637338705"><ele>295.0</ele><time>2026-03-22T10:23:20.984Z</time></trkpt><trkpt lat="42.80745892126414" lon="11.803277767446387"><ele>296.0</ele><time>2026-03-22T10:23:21.984Z</time></trkpt><trkpt lat="42.80770094694406" lon="11.803130161223347"><ele>297.0</ele><time>2026-03-22T10:23:22.984Z</time></trkpt><trkpt lat="42.807939000053594" lon="11.802989166071498"><ele>297.0</ele><time>2026-03-22T10:23:23.984Z</time></trkpt><trkpt lat="42.808176347247596" lon="11.802849585792835"><ele>297.0</ele><time>2026-03-22T10:23:24.984Z</time></trkpt><trkpt lat="42.80841331358099" lon="11.802703114085265"><ele>298.5</ele><time>2026-03-22T10:23:25.983Z</time></trkpt><trkpt lat="42.808645039429415" lon="11.80255672394967"><ele>300.0</ele><time>2026-03-22T10:23:26.983Z</time></trkpt><trkpt lat="42.808880183488036" lon="11.802411419989985"><ele>300.0</ele><time>2026-03-22T10:23:27.983Z</time></trkpt><trkpt lat="42.809117894611546" lon="11.802264976467729"><ele>300.0</ele><time>2026-03-22T10:23:28.983Z</time></trkpt><trkpt lat="42.809349451113135" lon="11.8021203651789"><ele>303.5</ele><time>2026-03-22T10:23:29.983Z</time></trkpt><trkpt lat="42.80957879237532" lon="11.801974688685606"><ele>307.0</ele><time>2026-03-22T10:23:30.983Z</time></trkpt><trkpt lat="42.809805883617564" lon="11.801833020504205"><ele>305.0</ele><time>2026-03-22T10:23:31.983Z</time></trkpt><trkpt lat="42.81003600202354" lon="11.801698404658453"><ele>303.0</ele><time>2026-03-22T10:23:32.983Z</time></trkpt><trkpt lat="42.81026064739097" lon="11.801561306809619"><ele>303.0</ele><time>2026-03-22T10:23:33.983Z</time></trkpt><trkpt lat="42.81048638699239" lon="11.801432157797244"><ele>303.0</ele><time>2026-03-22T10:23:34.983Z</time></trkpt><trkpt lat="42.8107122333665" lon="11.801304429560624"><ele>303.0</ele><time>2026-03-22T10:23:35.983Z</time></trkpt><trkpt lat="42.81093119581225" lon="11.801175817191488"><ele>303.0</ele><time>2026-03-22T10:23:36.983Z</time></trkpt><trkpt lat="42.81115166144598" lon="11.801037354252015"><ele>298.5</ele><time>2026-03-22T10:23:37.983Z</time></trkpt><trkpt lat="42.81136742016378" lon="11.8009033513573"><ele>294.0</ele><time>2026-03-22T10:23:38.983Z</time></trkpt><trkpt lat="42.81158555117202" lon="11.800763667449806"><ele>294.0</ele><time>2026-03-22T10:23:39.983Z</time></trkpt><trkpt lat="42.811811000178714" lon="11.80061794390839"><ele>294.0</ele><time>2026-03-22T10:23:40.983Z</time></trkpt><trkpt lat="42.812030657215594" lon="11.800485950025433"><ele>295.5</ele><time>2026-03-22T10:23:41.983Z</time></trkpt><trkpt lat="42.81225988597492" lon="11.800353279805234"><ele>297.0</ele><time>2026-03-22T10:23:42.983Z</time></trkpt><trkpt lat="42.8124911299516" lon="11.800215225560232"><ele>293.5</ele><time>2026-03-22T10:23:43.983Z</time></trkpt><trkpt lat="42.81272694119297" lon="11.800077556760952"><ele>290.0</ele><time>2026-03-22T10:23:44.983Z</time></trkpt><trkpt lat="42.812965760755766" lon="11.79993410887654"><ele>290.0</ele><time>2026-03-22T10:23:45.983Z</time></trkpt><trkpt lat="42.81320513120614" lon="11.799786316523035"><ele>290.0</ele><time>2026-03-22T10:23:46.983Z</time></trkpt><trkpt lat="42.813444434576084" lon="11.799637350581827"><ele>290.0</ele><time>2026-03-22T10:23:47.984Z</time></trkpt><trkpt lat="42.813691530136865" lon="11.79949073485795"><ele>290.0</ele><time>2026-03-22T10:23:48.985Z</time></trkpt><trkpt lat="42.813940291031685" lon="11.799341032792517"><ele>289.5</ele><time>2026-03-22T10:23:49.985Z</time></trkpt><trkpt lat="42.814188188661404" lon="11.799194277545684"><ele>289.0</ele><time>2026-03-22T10:23:50.985Z</time></trkpt><trkpt lat="42.814434398968565" lon="11.799045900966341"><ele>289.0</ele><time>2026-03-22T10:23:51.985Z</time></trkpt><trkpt lat="42.814681909434974" lon="11.798894706462058"><ele>289.0</ele><time>2026-03-22T10:23:52.984Z</time></trkpt><trkpt lat="42.814928849963124" lon="11.798742369418642"><ele>289.5</ele><time>2026-03-22T10:23:53.985Z</time></trkpt><trkpt lat="42.815180535212264" lon="11.798589276304824"><ele>290.0</ele><time>2026-03-22T10:23:54.985Z</time></trkpt><trkpt lat="42.81543285541149" lon="11.798442145132299"><ele>288.5</ele><time>2026-03-22T10:23:55.985Z</time></trkpt><trkpt lat="42.815687101206606" lon="11.798290832797278"><ele>287.0</ele><time>2026-03-22T10:23:56.984Z</time></trkpt><trkpt lat="42.815940200507015" lon="11.798138388353394"><ele>289.0</ele><time>2026-03-22T10:23:57.985Z</time></trkpt><trkpt lat="42.816195478141594" lon="11.797982645510972"><ele>291.0</ele><time>2026-03-22T10:23:58.985Z</time></trkpt><trkpt lat="42.81644995343194" lon="11.797833848425542"><ele>291.0</ele><time>2026-03-22T10:23:59.985Z</time></trkpt><trkpt lat="42.816699330772295" lon="11.797681830967926"><ele>291.0</ele><time>2026-03-22T10:24:00.984Z</time></trkpt><trkpt lat="42.81694525456919" lon="11.797528840593728"><ele>290.5</ele><time>2026-03-22T10:24:01.984Z</time></trkpt><trkpt lat="42.81718973141899" lon="11.797378006597375"><ele>290.0</ele><time>2026-03-22T10:24:02.984Z</time></trkpt><trkpt lat="42.81742939248776" lon="11.797235971392888"><ele>293.5</ele><time>2026-03-22T10:24:03.984Z</time></trkpt><trkpt lat="42.81766823473005" lon="11.797087116942286"><ele>297.0</ele><time>2026-03-22T10:24:04.984Z</time></trkpt><trkpt lat="42.8178984248429" lon="11.796938315582295"><ele>294.0</ele><time>2026-03-22T10:24:05.984Z</time></trkpt><trkpt lat="42.81811690221421" lon="11.796775308031695"><ele>291.0</ele><time>2026-03-22T10:24:06.984Z</time></trkpt><trkpt lat="42.818328054154925" lon="11.796588234540451"><ele>296.0</ele><time>2026-03-22T10:24:07.984Z</time></trkpt><trkpt lat="42.818531437176524" lon="11.796384535510366"><ele>301.0</ele><time>2026-03-22T10:24:08.984Z</time></trkpt><trkpt lat="42.81872828830305" lon="11.79617507349309"><ele>297.0</ele><time>2026-03-22T10:24:09.984Z</time></trkpt><trkpt lat="42.81891408076344" lon="11.79595055502945"><ele>293.0</ele><time>2026-03-22T10:24:10.984Z</time></trkpt><trkpt lat="42.81908786098389" lon="11.795716293025741"><ele>293.0</ele><time>2026-03-22T10:24:11.984Z</time></trkpt><trkpt lat="42.81925615904899" lon="11.795473687263504"><ele>293.0</ele><time>2026-03-22T10:24:12.984Z</time></trkpt><trkpt lat="42.81941129076848" lon="11.795219959708499"><ele>296.0</ele><time>2026-03-22T10:24:13.984Z</time></trkpt><trkpt lat="42.819554321141936" lon="11.794956540572201"><ele>299.0</ele><time>2026-03-22T10:24:14.984Z</time></trkpt><trkpt lat="42.819694175560095" lon="11.794682689103992"><ele>299.0</ele><time>2026-03-22T10:24:15.984Z</time></trkpt><trkpt lat="42.819838701330966" lon="11.794414025353095"><ele>299.0</ele><time>2026-03-22T10:24:16.984Z</time></trkpt><trkpt lat="42.819988102821696" lon="11.79415278307456"><ele>296.0</ele><time>2026-03-22T10:24:17.984Z</time></trkpt><trkpt lat="42.820131863495064" lon="11.793890203350449"><ele>293.0</ele><time>2026-03-22T10:24:18.984Z</time></trkpt><trkpt lat="42.82027438785307" lon="11.793628833119556"><ele>296.0</ele><time>2026-03-22T10:24:19.983Z</time></trkpt><trkpt lat="42.8204129907512" lon="11.793370935561917"><ele>299.0</ele><time>2026-03-22T10:24:20.982Z</time></trkpt><trkpt lat="42.8205484167892" lon="11.793130796590383"><ele>299.0</ele><time>2026-03-22T10:24:21.981Z</time></trkpt><trkpt lat="42.82068042782305" lon="11.792895119973295"><ele>299.0</ele><time>2026-03-22T10:24:22.98Z</time></trkpt><trkpt lat="42.82080993216901" lon="11.792655482428968"><ele>299.0</ele><time>2026-03-22T10:24:23.979Z</time></trkpt><trkpt lat="42.82094211211848" lon="11.792413300098922"><ele>301.0</ele><time>2026-03-22T10:24:24.979Z</time></trkpt><trkpt lat="42.82107695630415" lon="11.792167973683116"><ele>303.0</ele><time>2026-03-22T10:24:25.978Z</time></trkpt><trkpt lat="42.82121365445035" lon="11.791917771793303"><ele>299.0</ele><time>2026-03-22T10:24:26.977Z</time></trkpt><trkpt lat="42.82134926407975" lon="11.791667412203106"><ele>295.0</ele><time>2026-03-22T10:24:27.976Z</time></trkpt><trkpt lat="42.82148730086412" lon="11.791419609674914"><ele>295.0</ele><time>2026-03-22T10:24:28.976Z</time></trkpt><trkpt lat="42.821629434331626" lon="11.791177597429265"><ele>295.0</ele><time>2026-03-22T10:24:29.975Z</time></trkpt><trkpt lat="42.82176892307227" lon="11.790934431162828"><ele>297.0</ele><time>2026-03-22T10:24:30.975Z</time></trkpt><trkpt lat="42.82190554820058" lon="11.790688441020663"><ele>299.0</ele><time>2026-03-22T10:24:31.974Z</time></trkpt><trkpt lat="42.82203906904424" lon="11.790437300095817"><ele>299.0</ele><time>2026-03-22T10:24:32.974Z</time></trkpt><trkpt lat="42.8221755128071" lon="11.790186367258336"><ele>299.0</ele><time>2026-03-22T10:24:33.973Z</time></trkpt><trkpt lat="42.822314371936336" lon="11.789938109891928"><ele>297.5</ele><time>2026-03-22T10:24:34.973Z</time></trkpt><trkpt lat="42.82245384588098" lon="11.78968549049877"><ele>296.0</ele><time>2026-03-22T10:24:35.972Z</time></trkpt><trkpt lat="42.82259036806668" lon="11.789430994668503"><ele>298.0</ele><time>2026-03-22T10:24:36.972Z</time></trkpt><trkpt lat="42.82272607717338" lon="11.789167970868855"><ele>300.0</ele><time>2026-03-22T10:24:37.972Z</time></trkpt><trkpt lat="42.82285907302529" lon="11.788913480550166"><ele>300.0</ele><time>2026-03-22T10:24:38.971Z</time></trkpt><trkpt lat="42.82298998915161" lon="11.788671475008156"><ele>300.0</ele><time>2026-03-22T10:24:39.971Z</time></trkpt><trkpt lat="42.8231231729306" lon="11.788436014941693"><ele>300.0</ele><time>2026-03-22T10:24:40.971Z</time></trkpt><trkpt lat="42.823246896182305" lon="11.788214216079599"><ele>299.0</ele><time>2026-03-22T10:24:41.97Z</time></trkpt><trkpt lat="42.823361216587024" lon="11.788006249067086"><ele>298.0</ele><time>2026-03-22T10:24:42.97Z</time></trkpt><trkpt lat="42.82347176331097" lon="11.787799414495035"><ele>297.0</ele><time>2026-03-22T10:24:43.97Z</time></trkpt><trkpt lat="42.82358210580793" lon="11.787586094578177"><ele>297.0</ele><time>2026-03-22T10:24:44.97Z</time></trkpt><trkpt lat="42.823702563920534" lon="11.787355230991329"><ele>297.0</ele><time>2026-03-22T10:24:45.969Z</time></trkpt><trkpt lat="42.823835413224664" lon="11.787113498410022"><ele>297.0</ele><time>2026-03-22T10:24:46.969Z</time></trkpt><trkpt lat="42.82397972839827" lon="11.786862504787738"><ele>296.0</ele><time>2026-03-22T10:24:47.969Z</time></trkpt><trkpt lat="42.824123709580164" lon="11.786602844236677"><ele>295.0</ele><time>2026-03-22T10:24:48.969Z</time></trkpt><trkpt lat="42.8242494785742" lon="11.786320246931957"><ele>298.0</ele><time>2026-03-22T10:24:49.969Z</time></trkpt><trkpt lat="42.8243568571327" lon="11.786028487482795"><ele>301.0</ele><time>2026-03-22T10:24:50.968Z</time></trkpt><trkpt lat="42.82444315493022" lon="11.78571334758192"><ele>302.5</ele><time>2026-03-22T10:24:51.968Z</time></trkpt><trkpt lat="42.82451359242311" lon="11.785387985859153"><ele>304.0</ele><time>2026-03-22T10:24:52.968Z</time></trkpt><trkpt lat="42.824571214876386" lon="11.785056675152656"><ele>305.0</ele><time>2026-03-22T10:24:53.968Z</time></trkpt><trkpt lat="42.82461718401026" lon="11.7847454186114"><ele>306.0</ele><time>2026-03-22T10:24:54.968Z</time></trkpt><trkpt lat="42.82465625281346" lon="11.784454309679587"><ele>305.6666666666667</ele><time>2026-03-22T10:24:55.968Z</time></trkpt><trkpt lat="42.824694603155336" lon="11.784184974529701"><ele>305.33333333333337</ele><time>2026-03-22T10:24:56.967Z</time></trkpt><trkpt lat="42.82473798026396" lon="11.783932611705593"><ele>305.0</ele><time>2026-03-22T10:24:57.967Z</time></trkpt><trkpt lat="42.82478677547672" lon="11.783680517822326"><ele>303.6666666666667</ele><time>2026-03-22T10:24:58.967Z</time></trkpt><trkpt lat="42.8248379903642" lon="11.783433724502359"><ele>302.3333333333333</ele><time>2026-03-22T10:24:59.967Z</time></trkpt><trkpt lat="42.82488987583982" lon="11.78318927183722"><ele>301.0</ele><time>2026-03-22T10:25:00.967Z</time></trkpt><trkpt lat="42.824937599490305" lon="11.78294825360116"><ele>301.0</ele><time>2026-03-22T10:25:01.967Z</time></trkpt><trkpt lat="42.82498139969892" lon="11.782705954515894"><ele>301.0</ele><time>2026-03-22T10:25:02.967Z</time></trkpt><trkpt lat="42.825019227065894" lon="11.782461316160246"><ele>301.0</ele><time>2026-03-22T10:25:03.967Z</time></trkpt><trkpt lat="42.82505661409831" lon="11.782221393332954"><ele>299.3333333333333</ele><time>2026-03-22T10:25:04.967Z</time></trkpt><trkpt lat="42.825089444567425" lon="11.781989077025468"><ele>297.6666666666667</ele><time>2026-03-22T10:25:05.967Z</time></trkpt><trkpt lat="42.82511444523438" lon="11.78175410848196"><ele>296.0</ele><time>2026-03-22T10:25:06.966Z</time></trkpt><trkpt lat="42.82513957754891" lon="11.78152199147714"><ele>295.6666666666667</ele><time>2026-03-22T10:25:07.966Z</time></trkpt><trkpt lat="42.8251563409391" lon="11.781292344455146"><ele>295.3333333333333</ele><time>2026-03-22T10:25:08.966Z</time></trkpt><trkpt lat="42.8251672726143" lon="11.7810623539527"><ele>295.0</ele><time>2026-03-22T10:25:09.966Z</time></trkpt><trkpt lat="42.825178166700134" lon="11.7808306725002"><ele>295.0</ele><time>2026-03-22T10:25:10.966Z</time></trkpt><trkpt lat="42.82519115246777" lon="11.78060241713515"><ele>295.0</ele><time>2026-03-22T10:25:11.966Z</time></trkpt><trkpt lat="42.825207006330146" lon="11.780374172901032"><ele>295.0</ele><time>2026-03-22T10:25:12.966Z</time></trkpt><trkpt lat="42.825228384960646" lon="11.78014619476337"><ele>295.0</ele><time>2026-03-22T10:25:13.966Z</time></trkpt><trkpt lat="42.825263740679155" lon="11.779924805650946"><ele>295.0</ele><time>2026-03-22T10:25:14.966Z</time></trkpt><trkpt lat="42.825319546740594" lon="11.779711973768105"><ele>295.0</ele><time>2026-03-22T10:25:15.966Z</time></trkpt><trkpt lat="42.82536695711609" lon="11.779496742432963"><ele>294.66666666666663</ele><time>2026-03-22T10:25:16.966Z</time></trkpt><trkpt lat="42.82539895052333" lon="11.779286874137176"><ele>294.3333333333333</ele><time>2026-03-22T10:25:17.966Z</time></trkpt><trkpt lat="42.8254243349694" lon="11.779087954333706"><ele>294.0</ele><time>2026-03-22T10:25:18.966Z</time></trkpt><trkpt lat="42.82544057999946" lon="11.778889337485962"><ele>294.0</ele><time>2026-03-22T10:25:19.966Z</time></trkpt><trkpt lat="42.82545500373417" lon="11.778688570872957"><ele>294.0</ele><time>2026-03-22T10:25:20.966Z</time></trkpt><trkpt lat="42.82546792942688" lon="11.778487562642201"><ele>294.0</ele><time>2026-03-22T10:25:21.966Z</time></trkpt><trkpt lat="42.82548133935767" lon="11.778289642217421"><ele>294.0</ele><time>2026-03-22T10:25:22.965Z</time></trkpt><trkpt lat="42.825497183446835" lon="11.778093607298207"><ele>293.75</ele><time>2026-03-22T10:25:23.965Z</time></trkpt><trkpt lat="42.82551205338481" lon="11.777902888041046"><ele>293.5</ele><time>2026-03-22T10:25:24.965Z</time></trkpt><trkpt lat="42.82551450915558" lon="11.777717378670133"><ele>293.25</ele><time>2026-03-22T10:25:25.965Z</time></trkpt><trkpt lat="42.82550854723931" lon="11.777529186098352"><ele>293.0</ele><time>2026-03-22T10:25:26.965Z</time></trkpt><trkpt lat="42.825480369945716" lon="11.77734565549794"><ele>293.75</ele><time>2026-03-22T10:25:27.965Z</time></trkpt><trkpt lat="42.82544202184665" lon="11.777169507076882"><ele>294.5</ele><time>2026-03-22T10:25:28.965Z</time></trkpt><trkpt lat="42.825396952135314" lon="11.776997163899573"><ele>295.25</ele><time>2026-03-22T10:25:29.965Z</time></trkpt><trkpt lat="42.82534872607638" lon="11.776833457892359"><ele>296.0</ele><time>2026-03-22T10:25:30.965Z</time></trkpt><trkpt lat="42.82529523460738" lon="11.776673825972859"><ele>296.25</ele><time>2026-03-22T10:25:31.965Z</time></trkpt><trkpt lat="42.825241959103664" lon="11.776504911036294"><ele>296.5</ele><time>2026-03-22T10:25:32.965Z</time></trkpt><trkpt lat="42.825192147520944" lon="11.776328034777608"><ele>296.75</ele><time>2026-03-22T10:25:33.965Z</time></trkpt><trkpt lat="42.825146287991515" lon="11.776147536797895"><ele>297.0</ele><time>2026-03-22T10:25:34.965Z</time></trkpt><trkpt lat="42.82508938582503" lon="11.775967936044035"><ele>297.0</ele><time>2026-03-22T10:25:35.965Z</time></trkpt><trkpt lat="42.82503334295655" lon="11.77578883616568"><ele>297.0</ele><time>2026-03-22T10:25:36.965Z</time></trkpt><trkpt lat="42.82498396535529" lon="11.77560698501723"><ele>297.0</ele><time>2026-03-22T10:25:37.965Z</time></trkpt><trkpt lat="42.82492588161984" lon="11.775426054347172"><ele>297.0</ele><time>2026-03-22T10:25:38.965Z</time></trkpt><trkpt lat="42.82486944719751" lon="11.775243691141325"><ele>297.6666666666667</ele><time>2026-03-22T10:25:39.965Z</time></trkpt><trkpt lat="42.82480953645793" lon="11.775055998105467"><ele>298.33333333333337</ele><time>2026-03-22T10:25:40.965Z</time></trkpt><trkpt lat="42.824756253954305" lon="11.774857897689316"><ele>299.0</ele><time>2026-03-22T10:25:41.965Z</time></trkpt><trkpt lat="42.824695678573846" lon="11.77465847292527"><ele>299.0</ele><time>2026-03-22T10:25:42.965Z</time></trkpt><trkpt lat="42.82463256229471" lon="11.77445793296626"><ele>299.0</ele><time>2026-03-22T10:25:43.965Z</time></trkpt><trkpt lat="42.824567301609974" lon="11.774256782884683"><ele>299.0</ele><time>2026-03-22T10:25:44.965Z</time></trkpt><trkpt lat="42.824504801586016" lon="11.77405154776584"><ele>300.33333333333337</ele><time>2026-03-22T10:25:45.965Z</time></trkpt><trkpt lat="42.8244444149489" lon="11.773842393257576"><ele>301.6666666666667</ele><time>2026-03-22T10:25:46.965Z</time></trkpt><trkpt lat="42.824379256011184" lon="11.773632949490501"><ele>303.0</ele><time>2026-03-22T10:25:47.965Z</time></trkpt><trkpt lat="42.824313984395296" lon="11.77342491329406"><ele>300.6666666666667</ele><time>2026-03-22T10:25:48.965Z</time></trkpt><trkpt lat="42.824245358076524" lon="11.773218330253643"><ele>298.33333333333337</ele><time>2026-03-22T10:25:49.964Z</time></trkpt><trkpt lat="42.824181115822746" lon="11.773007613508087"><ele>296.0</ele><time>2026-03-22T10:25:50.964Z</time></trkpt><trkpt lat="42.824122250184715" lon="11.772795388318768"><ele>296.0</ele><time>2026-03-22T10:25:51.964Z</time></trkpt><trkpt lat="42.82406012400038" lon="11.772583902343793"><ele>296.0</ele><time>2026-03-22T10:25:52.964Z</time></trkpt><trkpt lat="42.8239972018848" lon="11.77237376161197"><ele>296.0</ele><time>2026-03-22T10:25:53.968Z</time></trkpt><trkpt lat="42.82393074284343" lon="11.77216191961153"><ele>296.0</ele><time>2026-03-22T10:25:54.967Z</time></trkpt><trkpt lat="42.82387248911616" lon="11.771951241081842"><ele>296.0</ele><time>2026-03-22T10:25:55.967Z</time></trkpt><trkpt lat="42.82382402269396" lon="11.77173266220671"><ele>296.0</ele><time>2026-03-22T10:25:56.967Z</time></trkpt><trkpt lat="42.8237839527209" lon="11.771508255687158"><ele>296.0</ele><time>2026-03-22T10:25:57.967Z</time></trkpt><trkpt lat="42.823754693165775" lon="11.771280447973348"><ele>296.0</ele><time>2026-03-22T10:25:58.967Z</time></trkpt><trkpt lat="42.823733608398655" lon="11.77104943544446"><ele>296.0</ele><time>2026-03-22T10:25:59.967Z</time></trkpt><trkpt lat="42.82371992962682" lon="11.770815322233382"><ele>296.0</ele><time>2026-03-22T10:26:00.967Z</time></trkpt><trkpt lat="42.82371880034486" lon="11.770577842909107"><ele>296.0</ele><time>2026-03-22T10:26:01.967Z</time></trkpt><trkpt lat="42.823724577843585" lon="11.77034230247806"><ele>296.0</ele><time>2026-03-22T10:26:02.967Z</time></trkpt><trkpt lat="42.82373693743271" lon="11.770105314793401"><ele>297.0</ele><time>2026-03-22T10:26:03.967Z</time></trkpt><trkpt lat="42.82375557713202" lon="11.769863978369571"><ele>298.0</ele><time>2026-03-22T10:26:04.967Z</time></trkpt><trkpt lat="42.82378702667748" lon="11.76962572355065"><ele>299.0</ele><time>2026-03-22T10:26:05.967Z</time></trkpt><trkpt lat="42.82382875988873" lon="11.769389803570112"><ele>299.0</ele><time>2026-03-22T10:26:06.967Z</time></trkpt><trkpt lat="42.823882877817454" lon="11.7691573148491"><ele>299.0</ele><time>2026-03-22T10:26:07.967Z</time></trkpt><trkpt lat="42.82394814447906" lon="11.768925813340058"><ele>299.0</ele><time>2026-03-22T10:26:08.967Z</time></trkpt><trkpt lat="42.82402353303945" lon="11.768694003537137"><ele>299.0</ele><time>2026-03-22T10:26:09.967Z</time></trkpt><trkpt lat="42.82410776145407" lon="11.768460717876359"><ele>299.0</ele><time>2026-03-22T10:26:10.967Z</time></trkpt><trkpt lat="42.82420231108272" lon="11.768229114159613"><ele>299.0</ele><time>2026-03-22T10:26:11.967Z</time></trkpt><trkpt lat="42.82431122548753" lon="11.767998323610685"><ele>299.6666666666667</ele><time>2026-03-22T10:26:12.967Z</time></trkpt><trkpt lat="42.824434706589535" lon="11.767769411300725"><ele>300.3333333333333</ele><time>2026-03-22T10:26:13.967Z</time></trkpt><trkpt lat="42.82456729867531" lon="11.767542949742927"><ele>301.0</ele><time>2026-03-22T10:26:14.967Z</time></trkpt><trkpt lat="42.82472713166186" lon="11.767318273735944"><ele>301.0</ele><time>2026-03-22T10:26:15.967Z</time></trkpt><trkpt lat="42.824897467446604" lon="11.76709246861229"><ele>301.0</ele><time>2026-03-22T10:26:16.967Z</time></trkpt><trkpt lat="42.82506860139082" lon="11.766863827281194"><ele>302.5</ele><time>2026-03-22T10:26:17.967Z</time></trkpt><trkpt lat="42.82524410486789" lon="11.766624192155856"><ele>304.0</ele><time>2026-03-22T10:26:18.967Z</time></trkpt><trkpt lat="42.82542427388936" lon="11.766382448694213"><ele>304.0</ele><time>2026-03-22T10:26:19.967Z</time></trkpt><trkpt lat="42.82560331168268" lon="11.766140004436984"><ele>304.0</ele><time>2026-03-22T10:26:20.967Z</time></trkpt><trkpt lat="42.82578116534735" lon="11.765899200847375"><ele>305.0</ele><time>2026-03-22T10:26:21.967Z</time></trkpt><trkpt lat="42.825961409631574" lon="11.76565937381662"><ele>306.0</ele><time>2026-03-22T10:26:22.967Z</time></trkpt><trkpt lat="42.826142082114394" lon="11.765424593881116"><ele>304.0</ele><time>2026-03-22T10:26:23.967Z</time></trkpt><trkpt lat="42.82632172636829" lon="11.765191513996296"><ele>302.0</ele><time>2026-03-22T10:26:24.967Z</time></trkpt><trkpt lat="42.826503702871875" lon="11.764957771492675"><ele>302.0</ele><time>2026-03-22T10:26:25.966Z</time></trkpt><trkpt lat="42.826683705827115" lon="11.764723539759219"><ele>302.0</ele><time>2026-03-22T10:26:26.966Z</time></trkpt><trkpt lat="42.82686109366563" lon="11.76449043579575"><ele>303.5</ele><time>2026-03-22T10:26:27.966Z</time></trkpt><trkpt lat="42.827039685684035" lon="11.764260628743186"><ele>305.0</ele><time>2026-03-22T10:26:28.966Z</time></trkpt><trkpt lat="42.8272186150581" lon="11.764032768218193"><ele>305.0</ele><time>2026-03-22T10:26:29.966Z</time></trkpt><trkpt lat="42.82739923293312" lon="11.763803967625627"><ele>305.0</ele><time>2026-03-22T10:26:30.966Z</time></trkpt><trkpt lat="42.827579330647865" lon="11.76357316925203"><ele>306.5</ele><time>2026-03-22T10:26:31.966Z</time></trkpt><trkpt lat="42.82775726732605" lon="11.763341038375788"><ele>308.0</ele><time>2026-03-22T10:26:32.966Z</time></trkpt><trkpt lat="42.827938583405114" lon="11.763116847111103"><ele>308.0</ele><time>2026-03-22T10:26:33.966Z</time></trkpt><trkpt lat="42.82812983052911" lon="11.762899390588572"><ele>308.0</ele><time>2026-03-22T10:26:34.966Z</time></trkpt><trkpt lat="42.828333019569364" lon="11.76269956793763"><ele>307.5</ele><time>2026-03-22T10:26:35.966Z</time></trkpt><trkpt lat="42.82854872855389" lon="11.762502400298459"><ele>307.0</ele><time>2026-03-22T10:26:36.966Z</time></trkpt><trkpt lat="42.82876835711996" lon="11.76230368671097"><ele>307.0</ele><time>2026-03-22T10:26:37.966Z</time></trkpt><trkpt lat="42.82898979016257" lon="11.762105398389831"><ele>307.0</ele><time>2026-03-22T10:26:38.966Z</time></trkpt><trkpt lat="42.82921184914962" lon="11.761903890906131"><ele>308.0</ele><time>2026-03-22T10:26:39.966Z</time></trkpt><trkpt lat="42.8294311901495" lon="11.761701667655565"><ele>309.0</ele><time>2026-03-22T10:26:40.966Z</time></trkpt><trkpt lat="42.82965258523536" lon="11.761500331577173"><ele>309.0</ele><time>2026-03-22T10:26:41.966Z</time></trkpt><trkpt lat="42.82987336775182" lon="11.76129782444371"><ele>309.0</ele><time>2026-03-22T10:26:42.966Z</time></trkpt><trkpt lat="42.83009247750781" lon="11.761094084971027"><ele>311.5</ele><time>2026-03-22T10:26:43.966Z</time></trkpt><trkpt lat="42.83031136731106" lon="11.76089494164203"><ele>314.0</ele><time>2026-03-22T10:26:44.966Z</time></trkpt><trkpt lat="42.8305319554616" lon="11.76069751875178"><ele>314.0</ele><time>2026-03-22T10:26:45.966Z</time></trkpt><trkpt lat="42.8307485673125" lon="11.760496573842836"><ele>314.0</ele><time>2026-03-22T10:26:46.966Z</time></trkpt><trkpt lat="42.83096321563826" lon="11.760294752206274"><ele>314.0</ele><time>2026-03-22T10:26:47.966Z</time></trkpt><trkpt lat="42.83117896669026" lon="11.76009675931061"><ele>314.0</ele><time>2026-03-22T10:26:48.966Z</time></trkpt><trkpt lat="42.8313873308587" lon="11.759902742663924"><ele>314.0</ele><time>2026-03-22T10:26:49.966Z</time></trkpt><trkpt lat="42.831594787217746" lon="11.759713067902823"><ele>314.0</ele><time>2026-03-22T10:26:50.966Z</time></trkpt><trkpt lat="42.83180429807333" lon="11.759527456486747"><ele>316.0</ele><time>2026-03-22T10:26:51.966Z</time></trkpt><trkpt lat="42.83201502774362" lon="11.75934306131334"><ele>318.0</ele><time>2026-03-22T10:26:52.966Z</time></trkpt><trkpt lat="42.83222304588202" lon="11.759154963656801"><ele>318.0</ele><time>2026-03-22T10:26:53.966Z</time></trkpt><trkpt lat="42.83243359778747" lon="11.758965340002534"><ele>318.0</ele><time>2026-03-22T10:26:54.966Z</time></trkpt><trkpt lat="42.8326405497471" lon="11.758773076527035"><ele>318.5</ele><time>2026-03-22T10:26:55.966Z</time></trkpt><trkpt lat="42.8328506432203" lon="11.758580037598534"><ele>319.0</ele><time>2026-03-22T10:26:56.966Z</time></trkpt><trkpt lat="42.833065669390386" lon="11.758385377767116"><ele>319.0</ele><time>2026-03-22T10:26:57.966Z</time></trkpt><trkpt lat="42.83327931410096" lon="11.758189940949961"><ele>319.0</ele><time>2026-03-22T10:26:58.966Z</time></trkpt><trkpt lat="42.833490005410134" lon="11.758001626370875"><ele>319.0</ele><time>2026-03-22T10:26:59.965Z</time></trkpt><trkpt lat="42.8336871305491" lon="11.757822449247266"><ele>319.0</ele><time>2026-03-22T10:27:00.965Z</time></trkpt><trkpt lat="42.83386998543525" lon="11.757649556277064"><ele>319.0</ele><time>2026-03-22T10:27:01.965Z</time></trkpt><trkpt lat="42.83404395120407" lon="11.757484614638832"><ele>319.0</ele><time>2026-03-22T10:27:02.965Z</time></trkpt><trkpt lat="42.83421597644826" lon="11.757328544978837"><ele>319.0</ele><time>2026-03-22T10:27:03.965Z</time></trkpt><trkpt lat="42.83439178114396" lon="11.757178645791136"><ele>319.3333333333333</ele><time>2026-03-22T10:27:04.965Z</time></trkpt><trkpt lat="42.83457043624961" lon="11.757039232518967"><ele>319.6666666666667</ele><time>2026-03-22T10:27:05.965Z</time></trkpt><trkpt lat="42.83474867449706" lon="11.756907755056142"><ele>320.0</ele><time>2026-03-22T10:27:06.965Z</time></trkpt><trkpt lat="42.83494914337215" lon="11.756808840694216"><ele>320.5</ele><time>2026-03-22T10:27:07.965Z</time></trkpt><trkpt lat="42.8351699245993" lon="11.756723901943074"><ele>321.0</ele><time>2026-03-22T10:27:08.965Z</time></trkpt><trkpt lat="42.835397001915034" lon="11.756622645943969"><ele>321.0</ele><time>2026-03-22T10:27:09.965Z</time></trkpt><trkpt lat="42.835637339609185" lon="11.756522823187824"><ele>321.0</ele><time>2026-03-22T10:27:10.965Z</time></trkpt><trkpt lat="42.8358917831034" lon="11.756440665155063"><ele>322.5</ele><time>2026-03-22T10:27:11.965Z</time></trkpt><trkpt lat="42.83614669207065" lon="11.756359447536482"><ele>324.0</ele><time>2026-03-22T10:27:12.965Z</time></trkpt><trkpt lat="42.83639456664267" lon="11.756283719059208"><ele>324.0</ele><time>2026-03-22T10:27:13.965Z</time></trkpt><trkpt lat="42.8366210393115" lon="11.756199861696784"><ele>324.0</ele><time>2026-03-22T10:27:14.965Z</time></trkpt><trkpt lat="42.83684121867284" lon="11.756118527922883"><ele>324.6666666666667</ele><time>2026-03-22T10:27:15.965Z</time></trkpt><trkpt lat="42.837050668624016" lon="11.75605110486443"><ele>325.33333333333337</ele><time>2026-03-22T10:27:16.965Z</time></trkpt><trkpt lat="42.83725677933833" lon="11.755978309483726"><ele>326.0</ele><time>2026-03-22T10:27:17.965Z</time></trkpt><trkpt lat="42.83745547909467" lon="11.755898483631793"><ele>325.33333333333337</ele><time>2026-03-22T10:27:18.965Z</time></trkpt><trkpt lat="42.837654457884064" lon="11.755814522876292"><ele>324.6666666666667</ele><time>2026-03-22T10:27:19.965Z</time></trkpt><trkpt lat="42.83785548228217" lon="11.7557118659738"><ele>324.0</ele><time>2026-03-22T10:27:20.965Z</time></trkpt><trkpt lat="42.83804094741485" lon="11.755600284371548"><ele>324.0</ele><time>2026-03-22T10:27:21.965Z</time></trkpt><trkpt lat="42.83821459865515" lon="11.755488950568694"><ele>324.0</ele><time>2026-03-22T10:27:22.965Z</time></trkpt><trkpt lat="42.83835993198434" lon="11.755347757740672"><ele>324.0</ele><time>2026-03-22T10:27:23.965Z</time></trkpt><trkpt lat="42.83853512546167" lon="11.755233848288977"><ele>323.3333333333333</ele><time>2026-03-22T10:27:24.965Z</time></trkpt><trkpt lat="42.83870513772442" lon="11.755119243689283"><ele>322.66666666666663</ele><time>2026-03-22T10:27:25.965Z</time></trkpt><trkpt lat="42.838867644966086" lon="11.75501679308046"><ele>322.0</ele><time>2026-03-22T10:27:26.965Z</time></trkpt><trkpt lat="42.83902572059937" lon="11.754906038354871"><ele>322.0</ele><time>2026-03-22T10:27:27.965Z</time></trkpt><trkpt lat="42.83919521688709" lon="11.754783798071422"><ele>322.0</ele><time>2026-03-22T10:27:28.965Z</time></trkpt><trkpt lat="42.83936401009521" lon="11.754664240859965"><ele>322.0</ele><time>2026-03-22T10:27:29.965Z</time></trkpt><trkpt lat="42.839556782215276" lon="11.754567781167959"><ele>321.66666666666663</ele><time>2026-03-22T10:27:30.965Z</time></trkpt><trkpt lat="42.839762433608946" lon="11.754476214881914"><ele>321.3333333333333</ele><time>2026-03-22T10:27:31.965Z</time></trkpt><trkpt lat="42.83996053254935" lon="11.75437483082345"><ele>321.0</ele><time>2026-03-22T10:27:32.965Z</time></trkpt><trkpt lat="42.840169664991215" lon="11.754291093910792"><ele>321.0</ele><time>2026-03-22T10:27:33.964Z</time></trkpt><trkpt lat="42.84042047394816" lon="11.754231732916885"><ele>321.0</ele><time>2026-03-22T10:27:34.964Z</time></trkpt><trkpt lat="42.84070286919666" lon="11.754223860536124"><ele>321.0</ele><time>2026-03-22T10:27:35.964Z</time></trkpt><trkpt lat="42.84071518079197" lon="11.754013936227551"><ele>321.0</ele><time>2026-03-22T10:27:36.964Z</time></trkpt><trkpt lat="42.8409283480983" lon="11.753979803761936"><ele>321.0</ele><time>2026-03-22T10:27:37.964Z</time></trkpt><trkpt lat="42.84113852710951" lon="11.753966395836935"><ele>321.0</ele><time>2026-03-22T10:27:38.964Z</time></trkpt><trkpt lat="42.84134496738966" lon="11.753968155350915"><ele>321.0</ele><time>2026-03-22T10:27:39.964Z</time></trkpt><trkpt lat="42.84155140079345" lon="11.753966512845967"><ele>321.0</ele><time>2026-03-22T10:27:40.964Z</time></trkpt><trkpt lat="42.8417575524188" lon="11.753960471834862"><ele>321.6666666666667</ele><time>2026-03-22T10:27:41.964Z</time></trkpt><trkpt lat="42.84196532272606" lon="11.753951202572477"><ele>322.33333333333337</ele><time>2026-03-22T10:27:42.964Z</time></trkpt><trkpt lat="42.8421715981233" lon="11.753941567701721"><ele>323.0</ele><time>2026-03-22T10:27:43.964Z</time></trkpt><trkpt lat="42.84237877919919" lon="11.753928881339748"><ele>323.0</ele><time>2026-03-22T10:27:44.964Z</time></trkpt><trkpt lat="42.842592929240034" lon="11.753915566146548"><ele>323.0</ele><time>2026-03-22T10:27:45.964Z</time></trkpt><trkpt lat="42.84280963027401" lon="11.753905551005824"><ele>323.0</ele><time>2026-03-22T10:27:46.964Z</time></trkpt><trkpt lat="42.84302908780701" lon="11.753896580209766"><ele>323.33333333333337</ele><time>2026-03-22T10:27:47.964Z</time></trkpt><trkpt lat="42.84325244510944" lon="11.753887618517238"><ele>323.6666666666667</ele><time>2026-03-22T10:27:48.964Z</time></trkpt><trkpt lat="42.8434758308347" lon="11.753875507206807"><ele>324.0</ele><time>2026-03-22T10:27:49.964Z</time></trkpt><trkpt lat="42.84369873847746" lon="11.75386303702134"><ele>324.3333333333333</ele><time>2026-03-22T10:27:50.964Z</time></trkpt><trkpt lat="42.84392059450145" lon="11.753852571351503"><ele>324.66666666666663</ele><time>2026-03-22T10:27:51.964Z</time></trkpt><trkpt lat="42.84414321568018" lon="11.753845442522463"><ele>325.0</ele><time>2026-03-22T10:27:52.964Z</time></trkpt><trkpt lat="42.844364323436295" lon="11.75383701448507"><ele>325.66666666666663</ele><time>2026-03-22T10:27:53.964Z</time></trkpt><trkpt lat="42.84458287704929" lon="11.753824248243419"><ele>326.3333333333333</ele><time>2026-03-22T10:27:54.964Z</time></trkpt><trkpt lat="42.84479892939147" lon="11.753811028617122"><ele>327.0</ele><time>2026-03-22T10:27:55.964Z</time></trkpt><trkpt lat="42.84501378578537" lon="11.753802848871151"><ele>327.6666666666667</ele><time>2026-03-22T10:27:56.964Z</time></trkpt><trkpt lat="42.84522894400932" lon="11.753795910961763"><ele>328.33333333333337</ele><time>2026-03-22T10:27:57.964Z</time></trkpt><trkpt lat="42.84544284057244" lon="11.753789309706601"><ele>329.0</ele><time>2026-03-22T10:27:58.964Z</time></trkpt><trkpt lat="42.84565604365437" lon="11.753781395734027"><ele>329.0</ele><time>2026-03-22T10:27:59.966Z</time></trkpt><trkpt lat="42.84586823805899" lon="11.753773981497705"><ele>329.0</ele><time>2026-03-22T10:28:00.966Z</time></trkpt><trkpt lat="42.84608601556489" lon="11.753762233000003"><ele>329.0</ele><time>2026-03-22T10:28:01.966Z</time></trkpt><trkpt lat="42.84629942960994" lon="11.753741191628286"><ele>329.33333333333337</ele><time>2026-03-22T10:28:02.966Z</time></trkpt><trkpt lat="42.84650479493966" lon="11.7537235217013"><ele>329.6666666666667</ele><time>2026-03-22T10:28:03.967Z</time></trkpt><trkpt lat="42.846703646547134" lon="11.753700829099104"><ele>330.0</ele><time>2026-03-22T10:28:04.967Z</time></trkpt><trkpt lat="42.84690024291736" lon="11.753659618787603"><ele>330.6666666666667</ele><time>2026-03-22T10:28:05.966Z</time></trkpt><trkpt lat="42.84710448411415" lon="11.75359546768221"><ele>331.33333333333337</ele><time>2026-03-22T10:28:06.966Z</time></trkpt><trkpt lat="42.847316029020895" lon="11.753534520639258"><ele>332.0</ele><time>2026-03-22T10:28:07.966Z</time></trkpt><trkpt lat="42.84753254120856" lon="11.753466101015801"><ele>331.33333333333337</ele><time>2026-03-22T10:28:08.966Z</time></trkpt><trkpt lat="42.84774734364789" lon="11.753396273027539"><ele>330.6666666666667</ele><time>2026-03-22T10:28:09.966Z</time></trkpt><trkpt lat="42.84796226622595" lon="11.753329169781194"><ele>330.0</ele><time>2026-03-22T10:28:10.966Z</time></trkpt><trkpt lat="42.848180395296744" lon="11.75325953423555"><ele>330.0</ele><time>2026-03-22T10:28:11.966Z</time></trkpt><trkpt lat="42.84840096221174" lon="11.753187743029647"><ele>330.0</ele><time>2026-03-22T10:28:12.966Z</time></trkpt><trkpt lat="42.84862615527941" lon="11.753124778784521"><ele>332.0</ele><time>2026-03-22T10:28:13.966Z</time></trkpt><trkpt lat="42.848858021560424" lon="11.753060373680466"><ele>334.0</ele><time>2026-03-22T10:28:14.966Z</time></trkpt><trkpt lat="42.84908678717125" lon="11.752978042381816"><ele>336.5</ele><time>2026-03-22T10:28:15.966Z</time></trkpt><trkpt lat="42.84932444708066" lon="11.752900176435405"><ele>339.0</ele><time>2026-03-22T10:28:16.966Z</time></trkpt><trkpt lat="42.84956362446933" lon="11.752831235024395"><ele>339.0</ele><time>2026-03-22T10:28:17.966Z</time></trkpt><trkpt lat="42.84980356294712" lon="11.752768068173296"><ele>339.0</ele><time>2026-03-22T10:28:18.966Z</time></trkpt><trkpt lat="42.85004361870045" lon="11.752695721112708"><ele>335.5</ele><time>2026-03-22T10:28:19.966Z</time></trkpt><trkpt lat="42.85027951193763" lon="11.752621315695153"><ele>332.0</ele><time>2026-03-22T10:28:20.966Z</time></trkpt><trkpt lat="42.85050664034312" lon="11.75254867383968"><ele>332.0</ele><time>2026-03-22T10:28:21.966Z</time></trkpt><trkpt lat="42.850714826018226" lon="11.752474209977482"><ele>332.0</ele><time>2026-03-22T10:28:22.966Z</time></trkpt><trkpt lat="42.85090976591117" lon="11.75239706999265"><ele>332.0</ele><time>2026-03-22T10:28:23.966Z</time></trkpt><trkpt lat="42.85111105395585" lon="11.752313355278277"><ele>333.33333333333337</ele><time>2026-03-22T10:28:24.965Z</time></trkpt><trkpt lat="42.85131173186954" lon="11.752196868280864"><ele>334.6666666666667</ele><time>2026-03-22T10:28:25.965Z</time></trkpt><trkpt lat="42.85151354215294" lon="11.752069263623648"><ele>336.0</ele><time>2026-03-22T10:28:26.965Z</time></trkpt><trkpt lat="42.851724673204785" lon="11.75193615484878"><ele>338.0</ele><time>2026-03-22T10:28:27.965Z</time></trkpt><trkpt lat="42.85193545389383" lon="11.751810541883225"><ele>340.0</ele><time>2026-03-22T10:28:28.965Z</time></trkpt><trkpt lat="42.85214989357263" lon="11.751685342298057"><ele>340.0</ele><time>2026-03-22T10:28:29.965Z</time></trkpt><trkpt lat="42.852363115246405" lon="11.751563162633873"><ele>340.0</ele><time>2026-03-22T10:28:30.965Z</time></trkpt><trkpt lat="42.85257990620332" lon="11.751440844406941"><ele>344.5</ele><time>2026-03-22T10:28:31.965Z</time></trkpt><trkpt lat="42.8527995191281" lon="11.751320225363335"><ele>349.0</ele><time>2026-03-22T10:28:32.965Z</time></trkpt><trkpt lat="42.853020281466705" lon="11.75120765332558"><ele>349.0</ele><time>2026-03-22T10:28:33.965Z</time></trkpt><trkpt lat="42.853241464660464" lon="11.751104435454412"><ele>349.0</ele><time>2026-03-22T10:28:34.965Z</time></trkpt><trkpt lat="42.85346794887589" lon="11.751004399592825"><ele>346.0</ele><time>2026-03-22T10:28:35.965Z</time></trkpt><trkpt lat="42.853701120410285" lon="11.75089565911457"><ele>343.0</ele><time>2026-03-22T10:28:36.965Z</time></trkpt><trkpt lat="42.853939691405806" lon="11.750785659745429"><ele>343.0</ele><time>2026-03-22T10:28:37.965Z</time></trkpt><trkpt lat="42.85418274907451" lon="11.750677653604404"><ele>343.0</ele><time>2026-03-22T10:28:38.965Z</time></trkpt><trkpt lat="42.85442883519612" lon="11.750589583863873"><ele>346.5</ele><time>2026-03-22T10:28:39.965Z</time></trkpt><trkpt lat="42.85466884278627" lon="11.75049977326727"><ele>350.0</ele><time>2026-03-22T10:28:40.965Z</time></trkpt><trkpt lat="42.85490502573566" lon="11.750398126590317"><ele>352.0</ele><time>2026-03-22T10:28:41.965Z</time></trkpt><trkpt lat="42.85514219294694" lon="11.750296161147153"><ele>354.0</ele><time>2026-03-22T10:28:42.965Z</time></trkpt><trkpt lat="42.85538978079694" lon="11.750199011618777"><ele>347.0</ele><time>2026-03-22T10:28:43.965Z</time></trkpt><trkpt lat="42.855635732009056" lon="11.750114682404687"><ele>340.0</ele><time>2026-03-22T10:28:44.965Z</time></trkpt><trkpt lat="42.85588227812752" lon="11.750043355885177"><ele>343.5</ele><time>2026-03-22T10:28:45.965Z</time></trkpt><trkpt lat="42.85612595300847" lon="11.74997452734005"><ele>347.0</ele><time>2026-03-22T10:28:46.965Z</time></trkpt><trkpt lat="42.85636909317207" lon="11.749898842625644"><ele>347.0</ele><time>2026-03-22T10:28:47.965Z</time></trkpt><trkpt lat="42.85661348786794" lon="11.749817878017772"><ele>347.0</ele><time>2026-03-22T10:28:48.965Z</time></trkpt><trkpt lat="42.85685794474594" lon="11.749734280913763"><ele>350.0</ele><time>2026-03-22T10:28:49.965Z</time></trkpt><trkpt lat="42.85710314361227" lon="11.749654629856183"><ele>353.0</ele><time>2026-03-22T10:28:50.965Z</time></trkpt><trkpt lat="42.85734068729351" lon="11.749571973281382"><ele>353.0</ele><time>2026-03-22T10:28:51.965Z</time></trkpt><trkpt lat="42.857581355362846" lon="11.74946797663628"><ele>353.0</ele><time>2026-03-22T10:28:52.965Z</time></trkpt><trkpt lat="42.85780518299863" lon="11.74932855887342"><ele>348.5</ele><time>2026-03-22T10:28:53.965Z</time></trkpt><trkpt lat="42.858020919001014" lon="11.749162982725693"><ele>344.0</ele><time>2026-03-22T10:28:54.965Z</time></trkpt><trkpt lat="42.85822919297088" lon="11.74897522610297"><ele>344.0</ele><time>2026-03-22T10:28:55.965Z</time></trkpt><trkpt lat="42.858434478370896" lon="11.748763194266735"><ele>344.0</ele><time>2026-03-22T10:28:56.965Z</time></trkpt><trkpt lat="42.85863501181341" lon="11.748547165183407"><ele>344.5</ele><time>2026-03-22T10:28:57.965Z</time></trkpt><trkpt lat="42.85883804588364" lon="11.748339210126732"><ele>345.0</ele><time>2026-03-22T10:28:58.964Z</time></trkpt><trkpt lat="42.859059124366695" lon="11.748170758596867"><ele>345.0</ele><time>2026-03-22T10:28:59.964Z</time></trkpt><trkpt lat="42.85926282371956" lon="11.747970137916006"><ele>345.0</ele><time>2026-03-22T10:29:00.964Z</time></trkpt><trkpt lat="42.859455198969535" lon="11.747771416657342"><ele>346.5</ele><time>2026-03-22T10:29:01.964Z</time></trkpt><trkpt lat="42.8596492719941" lon="11.747579004685788"><ele>348.0</ele><time>2026-03-22T10:29:02.964Z</time></trkpt><trkpt lat="42.85983877339634" lon="11.747387204705877"><ele>348.0</ele><time>2026-03-22T10:29:03.964Z</time></trkpt><trkpt lat="42.8600362739115" lon="11.74719594039295"><ele>348.0</ele><time>2026-03-22T10:29:04.964Z</time></trkpt><trkpt lat="42.86023826863706" lon="11.747016460569824"><ele>350.0</ele><time>2026-03-22T10:29:05.964Z</time></trkpt><trkpt lat="42.860450451277586" lon="11.746864672623005"><ele>352.0</ele><time>2026-03-22T10:29:06.964Z</time></trkpt><trkpt lat="42.8606698236802" lon="11.746728782163549"><ele>352.0</ele><time>2026-03-22T10:29:07.964Z</time></trkpt><trkpt lat="42.86089171227608" lon="11.74660175309274"><ele>352.0</ele><time>2026-03-22T10:29:08.964Z</time></trkpt><trkpt lat="42.86110181927468" lon="11.746467102966912"><ele>355.0</ele><time>2026-03-22T10:29:09.964Z</time></trkpt><trkpt lat="42.86130690094559" lon="11.746321249077944"><ele>358.0</ele><time>2026-03-22T10:29:10.964Z</time></trkpt><trkpt lat="42.86151641089034" lon="11.746178407100127"><ele>354.5</ele><time>2026-03-22T10:29:11.964Z</time></trkpt><trkpt lat="42.861717363255224" lon="11.746041172560274"><ele>351.0</ele><time>2026-03-22T10:29:12.964Z</time></trkpt><trkpt lat="42.86192844935595" lon="11.745916645695367"><ele>351.0</ele><time>2026-03-22T10:29:13.964Z</time></trkpt><trkpt lat="42.86215493371082" lon="11.745815842331396"><ele>351.0</ele><time>2026-03-22T10:29:14.964Z</time></trkpt><trkpt lat="42.862389085205145" lon="11.745737927872105"><ele>354.0</ele><time>2026-03-22T10:29:15.964Z</time></trkpt><trkpt lat="42.86262702779573" lon="11.745669431784231"><ele>357.0</ele><time>2026-03-22T10:29:16.964Z</time></trkpt><trkpt lat="42.86286925859061" lon="11.745591561797823"><ele>357.0</ele><time>2026-03-22T10:29:17.964Z</time></trkpt><trkpt lat="42.863114731861465" lon="11.745513548139927"><ele>357.0</ele><time>2026-03-22T10:29:18.964Z</time></trkpt><trkpt lat="42.86336292591037" lon="11.74543387011687"><ele>359.5</ele><time>2026-03-22T10:29:19.964Z</time></trkpt><trkpt lat="42.86360971736498" lon="11.745356098334797"><ele>362.0</ele><time>2026-03-22T10:29:20.964Z</time></trkpt><trkpt lat="42.86385449767571" lon="11.745270147833544"><ele>359.0</ele><time>2026-03-22T10:29:21.964Z</time></trkpt><trkpt lat="42.86409281111651" lon="11.745156506858843"><ele>356.0</ele><time>2026-03-22T10:29:22.964Z</time></trkpt><trkpt lat="42.86433704770782" lon="11.745023687729862"><ele>356.0</ele><time>2026-03-22T10:29:23.964Z</time></trkpt><trkpt lat="42.864571915765964" lon="11.744893161873701"><ele>356.0</ele><time>2026-03-22T10:29:24.964Z</time></trkpt><trkpt lat="42.86481552767615" lon="11.744762216252205"><ele>356.0</ele><time>2026-03-22T10:29:25.964Z</time></trkpt><trkpt lat="42.865062260905376" lon="11.744642371243756"><ele>356.0</ele><time>2026-03-22T10:29:26.964Z</time></trkpt><trkpt lat="42.865308584590004" lon="11.744526541942983"><ele>355.5</ele><time>2026-03-22T10:29:27.964Z</time></trkpt><trkpt lat="42.865557514056924" lon="11.744427262072666"><ele>355.0</ele><time>2026-03-22T10:29:28.964Z</time></trkpt><trkpt lat="42.865803466492125" lon="11.744339098917624"><ele>356.5</ele><time>2026-03-22T10:29:29.964Z</time></trkpt><trkpt lat="42.86605138988543" lon="11.744246164330667"><ele>358.0</ele><time>2026-03-22T10:29:30.964Z</time></trkpt><trkpt lat="42.866295784721444" lon="11.74414745225645"><ele>358.0</ele><time>2026-03-22T10:29:31.964Z</time></trkpt><trkpt lat="42.866535866347064" lon="11.744035261860406"><ele>358.0</ele><time>2026-03-22T10:29:32.963Z</time></trkpt><trkpt lat="42.866763308148464" lon="11.743903292775167"><ele>360.0</ele><time>2026-03-22T10:29:33.963Z</time></trkpt><trkpt lat="42.866979802682756" lon="11.743741829756333"><ele>362.0</ele><time>2026-03-22T10:29:34.963Z</time></trkpt><trkpt lat="42.86719017382638" lon="11.743565039235339"><ele>361.5</ele><time>2026-03-22T10:29:35.963Z</time></trkpt><trkpt lat="42.867395618141245" lon="11.743373703816825"><ele>361.0</ele><time>2026-03-22T10:29:36.963Z</time></trkpt><trkpt lat="42.86759661215711" lon="11.743182036740983"><ele>365.5</ele><time>2026-03-22T10:29:37.963Z</time></trkpt><trkpt lat="42.86779630239109" lon="11.743003662030572"><ele>370.0</ele><time>2026-03-22T10:29:38.963Z</time></trkpt><trkpt lat="42.86799428864864" lon="11.742831181901261"><ele>364.5</ele><time>2026-03-22T10:29:39.963Z</time></trkpt><trkpt lat="42.86818876306498" lon="11.742672317365075"><ele>359.0</ele><time>2026-03-22T10:29:40.963Z</time></trkpt><trkpt lat="42.868386088262326" lon="11.742526895066437"><ele>361.33333333333337</ele><time>2026-03-22T10:29:41.963Z</time></trkpt><trkpt lat="42.86858582061395" lon="11.742401988451762"><ele>363.6666666666667</ele><time>2026-03-22T10:29:42.963Z</time></trkpt><trkpt lat="42.86879530606962" lon="11.742290753705687"><ele>366.0</ele><time>2026-03-22T10:29:43.963Z</time></trkpt><trkpt lat="42.86901043368244" lon="11.742182668419856"><ele>366.0</ele><time>2026-03-22T10:29:44.963Z</time></trkpt><trkpt lat="42.86921606859929" lon="11.742072832836847"><ele>366.0</ele><time>2026-03-22T10:29:45.963Z</time></trkpt><trkpt lat="42.869415543873544" lon="11.74196527667484"><ele>366.0</ele><time>2026-03-22T10:29:46.963Z</time></trkpt><trkpt lat="42.869610289922164" lon="11.741862536608288"><ele>364.6666666666667</ele><time>2026-03-22T10:29:47.963Z</time></trkpt><trkpt lat="42.869788244554265" lon="11.741767413783528"><ele>363.33333333333337</ele><time>2026-03-22T10:29:48.963Z</time></trkpt><trkpt lat="42.869968495179826" lon="11.741670493293428"><ele>362.0</ele><time>2026-03-22T10:29:49.963Z</time></trkpt><trkpt lat="42.870152593978986" lon="11.741568658023295"><ele>365.33333333333337</ele><time>2026-03-22T10:29:50.963Z</time></trkpt><trkpt lat="42.870324005853924" lon="11.741461859435327"><ele>368.6666666666667</ele><time>2026-03-22T10:29:51.963Z</time></trkpt><trkpt lat="42.87048568935386" lon="11.741378682524584"><ele>372.0</ele><time>2026-03-22T10:29:52.963Z</time></trkpt><trkpt lat="42.870636954004496" lon="11.74132120386447"><ele>372.0</ele><time>2026-03-22T10:29:53.963Z</time></trkpt><trkpt lat="42.870783964957255" lon="11.741282237196334"><ele>372.0</ele><time>2026-03-22T10:29:54.963Z</time></trkpt><trkpt lat="42.87092908857179" lon="11.741237981865892"><ele>372.0</ele><time>2026-03-22T10:29:55.963Z</time></trkpt><trkpt lat="42.87106378777358" lon="11.74118892657521"><ele>372.0</ele><time>2026-03-22T10:29:56.963Z</time></trkpt><trkpt lat="42.87119859651427" lon="11.741132928249476"><ele>370.3333333333333</ele><time>2026-03-22T10:29:57.963Z</time></trkpt><trkpt lat="42.871341705589316" lon="11.741069811080541"><ele>368.66666666666663</ele><time>2026-03-22T10:29:58.963Z</time></trkpt><trkpt lat="42.8714884923514" lon="11.741007747095399"><ele>367.0</ele><time>2026-03-22T10:29:59.963Z</time></trkpt><trkpt lat="42.871640110847565" lon="11.740948502457865"><ele>366.3333333333333</ele><time>2026-03-22T10:30:00.963Z</time></trkpt><trkpt lat="42.871791183209574" lon="11.740890392493084"><ele>365.6666666666667</ele><time>2026-03-22T10:30:01.963Z</time></trkpt><trkpt lat="42.87194320986207" lon="11.740861313183967"><ele>365.0</ele><time>2026-03-22T10:30:02.963Z</time></trkpt><trkpt lat="42.87209156000352" lon="11.740902425112715"><ele>365.0</ele><time>2026-03-22T10:30:03.963Z</time></trkpt><trkpt lat="42.872226247371536" lon="11.740979805461796"><ele>365.0</ele><time>2026-03-22T10:30:04.963Z</time></trkpt><trkpt lat="42.8723712477456" lon="11.74107356719564"><ele>365.0</ele><time>2026-03-22T10:30:05.966Z</time></trkpt><trkpt lat="42.8725257543829" lon="11.741158298296265"><ele>365.6666666666667</ele><time>2026-03-22T10:30:06.966Z</time></trkpt><trkpt lat="42.87267502386205" lon="11.741270064890413"><ele>366.3333333333333</ele><time>2026-03-22T10:30:07.965Z</time></trkpt><trkpt lat="42.872828356311416" lon="11.741367827666771"><ele>367.0</ele><time>2026-03-22T10:30:08.965Z</time></trkpt><trkpt lat="42.87298098036982" lon="11.741467115484367"><ele>367.0</ele><time>2026-03-22T10:30:09.966Z</time></trkpt><trkpt lat="42.873135844920846" lon="11.741578467821746"><ele>367.0</ele><time>2026-03-22T10:30:10.966Z</time></trkpt><trkpt lat="42.873279133853686" lon="11.741712692698412"><ele>367.0</ele><time>2026-03-22T10:30:11.966Z</time></trkpt><trkpt lat="42.87339845962876" lon="11.74188860178938"><ele>368.3333333333333</ele><time>2026-03-22T10:30:12.966Z</time></trkpt><trkpt lat="42.87349428360941" lon="11.742086102707452"><ele>369.6666666666667</ele><time>2026-03-22T10:30:13.965Z</time></trkpt><trkpt lat="42.873579178865974" lon="11.742302720026654"><ele>371.0</ele><time>2026-03-22T10:30:14.965Z</time></trkpt><trkpt lat="42.87366962085768" lon="11.742526217648292"><ele>371.0</ele><time>2026-03-22T10:30:15.965Z</time></trkpt><trkpt lat="42.873762220754955" lon="11.74275068161063"><ele>371.0</ele><time>2026-03-22T10:30:16.965Z</time></trkpt><trkpt lat="42.87384982094277" lon="11.74297992739796"><ele>371.0</ele><time>2026-03-22T10:30:17.966Z</time></trkpt><trkpt lat="42.873927075358296" lon="11.743218840219143"><ele>371.0</ele><time>2026-03-22T10:30:18.965Z</time></trkpt><trkpt lat="42.87399563132119" lon="11.743471858060012"><ele>371.0</ele><time>2026-03-22T10:30:19.965Z</time></trkpt><trkpt lat="42.87406571474377" lon="11.743731655039007"><ele>371.0</ele><time>2026-03-22T10:30:20.965Z</time></trkpt><trkpt lat="42.87413548679581" lon="11.743990218559865"><ele>372.0</ele><time>2026-03-22T10:30:21.965Z</time></trkpt><trkpt lat="42.8742049975187" lon="11.744247813631961"><ele>373.0</ele><time>2026-03-22T10:30:22.965Z</time></trkpt><trkpt lat="42.874274913554736" lon="11.744506117108227"><ele>374.0</ele><time>2026-03-22T10:30:23.965Z</time></trkpt><trkpt lat="42.874345525408806" lon="11.744765975742766"><ele>375.0</ele><time>2026-03-22T10:30:24.965Z</time></trkpt><trkpt lat="42.87441566333292" lon="11.745024090280676"><ele>376.0</ele><time>2026-03-22T10:30:25.965Z</time></trkpt><trkpt lat="42.87448635884478" lon="11.745284256774667"><ele>377.0</ele><time>2026-03-22T10:30:26.965Z</time></trkpt><trkpt lat="42.87455574983172" lon="11.7455396225156"><ele>377.0</ele><time>2026-03-22T10:30:27.965Z</time></trkpt><trkpt lat="42.874625096942616" lon="11.74579482677114"><ele>377.0</ele><time>2026-03-22T10:30:28.965Z</time></trkpt><trkpt lat="42.87469554345723" lon="11.746054758135159"><ele>377.0</ele><time>2026-03-22T10:30:29.965Z</time></trkpt><trkpt lat="42.87476531540308" lon="11.746314038910624"><ele>378.0</ele><time>2026-03-22T10:30:30.965Z</time></trkpt><trkpt lat="42.874835564010574" lon="11.746575091024305"><ele>379.0</ele><time>2026-03-22T10:30:31.965Z</time></trkpt><trkpt lat="42.87490709484515" lon="11.746840908058592"><ele>380.0</ele><time>2026-03-22T10:30:32.965Z</time></trkpt><trkpt lat="42.87497994378468" lon="11.747109099807231"><ele>380.0</ele><time>2026-03-22T10:30:33.965Z</time></trkpt><trkpt lat="42.87505288146069" lon="11.747376656904825"><ele>380.0</ele><time>2026-03-22T10:30:34.965Z</time></trkpt><trkpt lat="42.87512629893195" lon="11.74764597404915"><ele>380.0</ele><time>2026-03-22T10:30:35.965Z</time></trkpt><trkpt lat="42.87519963414928" lon="11.747914989457515"><ele>382.0</ele><time>2026-03-22T10:30:36.965Z</time></trkpt><trkpt lat="42.8752718709932" lon="11.748179975688945"><ele>384.0</ele><time>2026-03-22T10:30:37.965Z</time></trkpt><trkpt lat="42.87534366344322" lon="11.74844409717617"><ele>386.0</ele><time>2026-03-22T10:30:38.965Z</time></trkpt><trkpt lat="42.87541875642137" lon="11.748721599852372"><ele>386.0</ele><time>2026-03-22T10:30:39.965Z</time></trkpt><trkpt lat="42.87549354091726" lon="11.7489979625356"><ele>386.0</ele><time>2026-03-22T10:30:40.965Z</time></trkpt><trkpt lat="42.87556694550476" lon="11.749269225855295"><ele>386.0</ele><time>2026-03-22T10:30:41.965Z</time></trkpt><trkpt lat="42.87564943658901" lon="11.749533996533657"><ele>386.0</ele><time>2026-03-22T10:30:42.965Z</time></trkpt><trkpt lat="42.87569095164209" lon="11.749821078392685"><ele>386.0</ele><time>2026-03-22T10:30:43.965Z</time></trkpt><trkpt lat="42.87574703996893" lon="11.750106452433558"><ele>386.0</ele><time>2026-03-22T10:30:44.965Z</time></trkpt><trkpt lat="42.875805511383014" lon="11.750388565758184"><ele>386.0</ele><time>2026-03-22T10:30:45.965Z</time></trkpt><trkpt lat="42.87586545391555" lon="11.750635599030087"><ele>386.0</ele><time>2026-03-22T10:30:46.965Z</time></trkpt><trkpt lat="42.87592219304816" lon="11.750867467601884"><ele>386.0</ele><time>2026-03-22T10:30:47.965Z</time></trkpt><trkpt lat="42.875961768322085" lon="11.751100270788108"><ele>387.3333333333333</ele><time>2026-03-22T10:30:48.965Z</time></trkpt><trkpt lat="42.8759740768062" lon="11.751314825021408"><ele>388.66666666666663</ele><time>2026-03-22T10:30:49.965Z</time></trkpt><trkpt lat="42.875947443105005" lon="11.75153867846525"><ele>390.0</ele><time>2026-03-22T10:30:50.965Z</time></trkpt><trkpt lat="42.87591180022687" lon="11.751763318872364"><ele>391.33333333333337</ele><time>2026-03-22T10:30:51.965Z</time></trkpt><trkpt lat="42.87587324282443" lon="11.751988697272196"><ele>392.6666666666667</ele><time>2026-03-22T10:30:52.964Z</time></trkpt><trkpt lat="42.875838045711006" lon="11.752219350357343"><ele>394.0</ele><time>2026-03-22T10:30:53.964Z</time></trkpt><trkpt lat="42.87579768318081" lon="11.752462068244046"><ele>395.6666666666667</ele><time>2026-03-22T10:30:54.964Z</time></trkpt><trkpt lat="42.87574906393844" lon="11.752720057946506"><ele>397.33333333333337</ele><time>2026-03-22T10:30:55.964Z</time></trkpt><trkpt lat="42.87571421494392" lon="11.75298088038109"><ele>399.0</ele><time>2026-03-22T10:30:56.964Z</time></trkpt><trkpt lat="42.87567410494217" lon="11.753253256814293"><ele>399.0</ele><time>2026-03-22T10:30:57.964Z</time></trkpt><trkpt lat="42.87563025853036" lon="11.753529332191599"><ele>399.0</ele><time>2026-03-22T10:30:58.964Z</time></trkpt><trkpt lat="42.87558354949832" lon="11.753810297442305"><ele>399.0</ele><time>2026-03-22T10:30:59.964Z</time></trkpt><trkpt lat="42.875521375082805" lon="11.754081744530422"><ele>401.33333333333337</ele><time>2026-03-22T10:31:00.964Z</time></trkpt><trkpt lat="42.875474345532524" lon="11.75435527578602"><ele>403.6666666666667</ele><time>2026-03-22T10:31:01.964Z</time></trkpt><trkpt lat="42.87542749512153" lon="11.754627765160064"><ele>406.0</ele><time>2026-03-22T10:31:02.964Z</time></trkpt><trkpt lat="42.875381714268066" lon="11.75489403378891"><ele>407.0</ele><time>2026-03-22T10:31:03.964Z</time></trkpt><trkpt lat="42.875339313898806" lon="11.75514509144673"><ele>408.0</ele><time>2026-03-22T10:31:04.964Z</time></trkpt><trkpt lat="42.87530445760391" lon="11.755400176255986"><ele>409.0</ele><time>2026-03-22T10:31:05.964Z</time></trkpt><trkpt lat="42.875295728735715" lon="11.755665370730805"><ele>409.6666666666667</ele><time>2026-03-22T10:31:06.964Z</time></trkpt><trkpt lat="42.87531203686809" lon="11.75593523779117"><ele>410.33333333333337</ele><time>2026-03-22T10:31:07.964Z</time></trkpt><trkpt lat="42.875330568856675" lon="11.756188187699458"><ele>411.0</ele><time>2026-03-22T10:31:08.964Z</time></trkpt><trkpt lat="42.87534989392699" lon="11.756421932757522"><ele>411.33333333333337</ele><time>2026-03-22T10:31:09.964Z</time></trkpt><trkpt lat="42.87537929095429" lon="11.756647422598379"><ele>411.6666666666667</ele><time>2026-03-22T10:31:10.964Z</time></trkpt><trkpt lat="42.87542580805192" lon="11.756874039615777"><ele>412.0</ele><time>2026-03-22T10:31:11.964Z</time></trkpt><trkpt lat="42.87548995583383" lon="11.757099051750558"><ele>412.0</ele><time>2026-03-22T10:31:12.964Z</time></trkpt><trkpt lat="42.87555952507698" lon="11.757334548949705"><ele>412.0</ele><time>2026-03-22T10:31:13.964Z</time></trkpt><trkpt lat="42.87563123149382" lon="11.75757243305552"><ele>412.0</ele><time>2026-03-22T10:31:14.964Z</time></trkpt><trkpt lat="42.8757179999586" lon="11.757807982272883"><ele>411.33333333333337</ele><time>2026-03-22T10:31:15.964Z</time></trkpt><trkpt lat="42.87578126799784" lon="11.758070175128024"><ele>410.66666666666663</ele><time>2026-03-22T10:31:16.964Z</time></trkpt><trkpt lat="42.875858700452945" lon="11.758330191037759"><ele>410.0</ele><time>2026-03-22T10:31:17.964Z</time></trkpt><trkpt lat="42.87593746888018" lon="11.758593386202566"><ele>415.3333333333333</ele><time>2026-03-22T10:31:18.964Z</time></trkpt><trkpt lat="42.876014254053175" lon="11.758849254862374"><ele>420.66666666666663</ele><time>2026-03-22T10:31:19.964Z</time></trkpt><trkpt lat="42.87608478613526" lon="11.759084176668317"><ele>426.0</ele><time>2026-03-22T10:31:20.964Z</time></trkpt><trkpt lat="42.876146957104915" lon="11.759298947627753"><ele>427.0</ele><time>2026-03-22T10:31:21.964Z</time></trkpt><trkpt lat="42.87619135465771" lon="11.75950625114793"><ele>428.0</ele><time>2026-03-22T10:31:22.964Z</time></trkpt><trkpt lat="42.876212358681414" lon="11.759713175123794"><ele>429.0</ele><time>2026-03-22T10:31:23.964Z</time></trkpt><trkpt lat="42.87615532594049" lon="11.759920250120839"><ele>429.0</ele><time>2026-03-22T10:31:24.964Z</time></trkpt><trkpt lat="42.876087101616974" lon="11.760115985464425"><ele>429.0</ele><time>2026-03-22T10:31:25.964Z</time></trkpt><trkpt lat="42.87601962686546" lon="11.760311190225998"><ele>429.0</ele><time>2026-03-22T10:31:26.963Z</time></trkpt><trkpt lat="42.875967324388256" lon="11.760505614513827"><ele>430.25</ele><time>2026-03-22T10:31:27.963Z</time></trkpt><trkpt lat="42.87597038612036" lon="11.760738064330775"><ele>431.5</ele><time>2026-03-22T10:31:28.963Z</time></trkpt><trkpt lat="42.8759953028993" lon="11.760942835010923"><ele>432.75</ele><time>2026-03-22T10:31:29.963Z</time></trkpt><trkpt lat="42.87608217799413" lon="11.761053400914234"><ele>434.0</ele><time>2026-03-22T10:31:30.963Z</time></trkpt><trkpt lat="42.87616697891721" lon="11.76112431388152"><ele>434.0</ele><time>2026-03-22T10:31:31.963Z</time></trkpt><trkpt lat="42.8762548001851" lon="11.761127823104033"><ele>434.0</ele><time>2026-03-22T10:31:32.963Z</time></trkpt><trkpt lat="42.876336062581224" lon="11.761121637027632"><ele>434.0</ele><time>2026-03-22T10:31:33.963Z</time></trkpt><trkpt lat="42.87639533374163" lon="11.761082697379294"><ele>434.0</ele><time>2026-03-22T10:31:34.963Z</time></trkpt><trkpt lat="42.8764890984066" lon="11.761011466627536"><ele>434.0</ele><time>2026-03-22T10:31:35.963Z</time></trkpt><trkpt lat="42.876592507701936" lon="11.760879147988177"><ele>434.0</ele><time>2026-03-22T10:31:36.963Z</time></trkpt><trkpt lat="42.87667214028424" lon="11.760674976156743"><ele>434.0</ele><time>2026-03-22T10:31:37.963Z</time></trkpt><trkpt lat="42.87673106038427" lon="11.760462523181024"><ele>434.0</ele><time>2026-03-22T10:31:38.963Z</time></trkpt><trkpt lat="42.876809420893785" lon="11.76025479787901"><ele>437.66666666666663</ele><time>2026-03-22T10:31:39.963Z</time></trkpt><trkpt lat="42.87689192265412" lon="11.760044888422799"><ele>441.33333333333337</ele><time>2026-03-22T10:31:40.963Z</time></trkpt><trkpt lat="42.876993404483926" lon="11.75984980458908"><ele>445.0</ele><time>2026-03-22T10:31:41.963Z</time></trkpt><trkpt lat="42.87711036027674" lon="11.75966259956995"><ele>445.0</ele><time>2026-03-22T10:31:42.963Z</time></trkpt><trkpt lat="42.877221540347755" lon="11.759448137133448"><ele>445.0</ele><time>2026-03-22T10:31:43.963Z</time></trkpt><trkpt lat="42.877337629387505" lon="11.75924354131589"><ele>445.0</ele><time>2026-03-22T10:31:44.963Z</time></trkpt><trkpt lat="42.87744452610973" lon="11.759039689491193"><ele>443.6666666666667</ele><time>2026-03-22T10:31:45.963Z</time></trkpt><trkpt lat="42.87753874447148" lon="11.758829747569955"><ele>442.33333333333337</ele><time>2026-03-22T10:31:46.963Z</time></trkpt><trkpt lat="42.87761353293177" lon="11.758602723612006"><ele>441.0</ele><time>2026-03-22T10:31:47.963Z</time></trkpt><trkpt lat="42.87766856114879" lon="11.758362101463867"><ele>444.66666666666663</ele><time>2026-03-22T10:31:48.963Z</time></trkpt><trkpt lat="42.877715110470504" lon="11.75813625518525"><ele>448.3333333333333</ele><time>2026-03-22T10:31:49.963Z</time></trkpt><trkpt lat="42.87775522859344" lon="11.757920230430647"><ele>452.0</ele><time>2026-03-22T10:31:50.963Z</time></trkpt><trkpt lat="42.877763855277315" lon="11.75771530493637"><ele>452.25</ele><time>2026-03-22T10:31:51.963Z</time></trkpt><trkpt lat="42.87775021881587" lon="11.757523159901027"><ele>452.5</ele><time>2026-03-22T10:31:52.963Z</time></trkpt><trkpt lat="42.87770863274561" lon="11.757329669399985"><ele>452.75</ele><time>2026-03-22T10:31:53.963Z</time></trkpt><trkpt lat="42.87765818936294" lon="11.757150130188283"><ele>453.0</ele><time>2026-03-22T10:31:54.963Z</time></trkpt><trkpt lat="42.87761847709471" lon="11.756983251231704"><ele>451.75</ele><time>2026-03-22T10:31:55.963Z</time></trkpt><trkpt lat="42.87759882034358" lon="11.75681994301916"><ele>450.5</ele><time>2026-03-22T10:31:56.963Z</time></trkpt><trkpt lat="42.87760650781485" lon="11.756670587838812"><ele>449.25</ele><time>2026-03-22T10:31:57.963Z</time></trkpt><trkpt lat="42.87764179755413" lon="11.756525559319284"><ele>448.0</ele><time>2026-03-22T10:31:58.963Z</time></trkpt><trkpt lat="42.87770985419262" lon="11.756390037440267"><ele>450.5</ele><time>2026-03-22T10:31:59.963Z</time></trkpt><trkpt lat="42.87779351421307" lon="11.75625889372501"><ele>453.0</ele><time>2026-03-22T10:32:00.962Z</time></trkpt><trkpt lat="42.877878858369165" lon="11.756123785619412"><ele>455.5</ele><time>2026-03-22T10:32:01.962Z</time></trkpt><trkpt lat="42.87796663279597" lon="11.75597859638819"><ele>458.0</ele><time>2026-03-22T10:32:02.962Z</time></trkpt><trkpt lat="42.87805773378269" lon="11.755822894892791"><ele>458.0</ele><time>2026-03-22T10:32:03.962Z</time></trkpt><trkpt lat="42.87815419195878" lon="11.755660417720328"><ele>458.0</ele><time>2026-03-22T10:32:04.962Z</time></trkpt><trkpt lat="42.87825950798652" lon="11.755501134090709"><ele>458.0</ele><time>2026-03-22T10:32:05.962Z</time></trkpt><trkpt lat="42.87838375523436" lon="11.755344916725363"><ele>459.66666666666663</ele><time>2026-03-22T10:32:06.962Z</time></trkpt><trkpt lat="42.878517276528704" lon="11.755207550556557"><ele>461.33333333333337</ele><time>2026-03-22T10:32:07.962Z</time></trkpt><trkpt lat="42.87865687675502" lon="11.755066085609288"><ele>463.0</ele><time>2026-03-22T10:32:08.962Z</time></trkpt><trkpt lat="42.87880469613439" lon="11.754938179023421"><ele>463.0</ele><time>2026-03-22T10:32:09.962Z</time></trkpt><trkpt lat="42.87895352499857" lon="11.754810728218173"><ele>463.0</ele><time>2026-03-22T10:32:10.964Z</time></trkpt><trkpt lat="42.87909450719618" lon="11.7546757899673"><ele>463.0</ele><time>2026-03-22T10:32:11.964Z</time></trkpt><trkpt lat="42.87922992866171" lon="11.754551649460003"><ele>464.25</ele><time>2026-03-22T10:32:12.964Z</time></trkpt><trkpt lat="42.87937309392469" lon="11.754424913654832"><ele>465.5</ele><time>2026-03-22T10:32:13.964Z</time></trkpt><trkpt lat="42.87950387910232" lon="11.754326145255835"><ele>466.75</ele><time>2026-03-22T10:32:14.964Z</time></trkpt><trkpt lat="42.87961661438749" lon="11.754274195069378"><ele>468.0</ele><time>2026-03-22T10:32:15.964Z</time></trkpt><trkpt lat="42.879730148279606" lon="11.754263677439358"><ele>468.0</ele><time>2026-03-22T10:32:16.965Z</time></trkpt><trkpt lat="42.87983252570818" lon="11.754307845441346"><ele>467.99999999999994</ele><time>2026-03-22T10:32:17.964Z</time></trkpt><trkpt lat="42.87988560985321" lon="11.754432906934861"><ele>467.99999999999994</ele><time>2026-03-22T10:32:18.964Z</time></trkpt><trkpt lat="42.879920385414565" lon="11.754557360879325"><ele>468.0</ele><time>2026-03-22T10:32:19.964Z</time></trkpt><trkpt lat="42.87991735650744" lon="11.754705011864134"><ele>468.0</ele><time>2026-03-22T10:32:20.964Z</time></trkpt><trkpt lat="42.879875907423134" lon="11.754843255984156"><ele>469.75</ele><time>2026-03-22T10:32:21.964Z</time></trkpt><trkpt lat="42.87980566135018" lon="11.754998721247244"><ele>471.5</ele><time>2026-03-22T10:32:22.964Z</time></trkpt><trkpt lat="42.87973546023089" lon="11.755175873405665"><ele>473.25</ele><time>2026-03-22T10:32:23.964Z</time></trkpt><trkpt lat="42.87968371778339" lon="11.755382298625054"><ele>475.0</ele><time>2026-03-22T10:32:24.964Z</time></trkpt><trkpt lat="42.87965673276502" lon="11.755602705425586"><ele>475.75</ele><time>2026-03-22T10:32:25.964Z</time></trkpt><trkpt lat="42.879631676742804" lon="11.75581095668843"><ele>476.5</ele><time>2026-03-22T10:32:26.964Z</time></trkpt><trkpt lat="42.8796093266028" lon="11.755996718209413"><ele>477.25</ele><time>2026-03-22T10:32:27.964Z</time></trkpt><trkpt lat="42.87959535633932" lon="11.756183528394153"><ele>478.0</ele><time>2026-03-22T10:32:28.964Z</time></trkpt><trkpt lat="42.87960941309968" lon="11.756376208951758"><ele>479.25</ele><time>2026-03-22T10:32:29.964Z</time></trkpt><trkpt lat="42.87966357080223" lon="11.756563056753391"><ele>480.5</ele><time>2026-03-22T10:32:30.964Z</time></trkpt><trkpt lat="42.87974576355275" lon="11.756736953598427"><ele>481.75</ele><time>2026-03-22T10:32:31.964Z</time></trkpt><trkpt lat="42.87983081758815" lon="11.756900074856446"><ele>483.0</ele><time>2026-03-22T10:32:32.964Z</time></trkpt><trkpt lat="42.879919966800855" lon="11.757069242095639"><ele>483.0</ele><time>2026-03-22T10:32:33.964Z</time></trkpt><trkpt lat="42.8800092267573" lon="11.757215212607939"><ele>483.0</ele><time>2026-03-22T10:32:34.964Z</time></trkpt><trkpt lat="42.880060418856964" lon="11.757379210240694"><ele>483.0</ele><time>2026-03-22T10:32:35.964Z</time></trkpt><trkpt lat="42.880059940383596" lon="11.757550098091448"><ele>483.0</ele><time>2026-03-22T10:32:36.964Z</time></trkpt><trkpt lat="42.88004201428026" lon="11.75771233384933"><ele>484.5</ele><time>2026-03-22T10:32:37.964Z</time></trkpt><trkpt lat="42.87999782045786" lon="11.757891484491758"><ele>486.0</ele><time>2026-03-22T10:32:38.964Z</time></trkpt><trkpt lat="42.87995013902937" lon="11.758078252585326"><ele>487.5</ele><time>2026-03-22T10:32:39.964Z</time></trkpt><trkpt lat="42.879898330945714" lon="11.75827653287385"><ele>489.0</ele><time>2026-03-22T10:32:40.964Z</time></trkpt><trkpt lat="42.87984931613188" lon="11.75847707624005"><ele>490.0</ele><time>2026-03-22T10:32:41.964Z</time></trkpt><trkpt lat="42.87981823030734" lon="11.75868002413461"><ele>491.0</ele><time>2026-03-22T10:32:42.964Z</time></trkpt><trkpt lat="42.87982248746152" lon="11.758892232111958"><ele>492.0</ele><time>2026-03-22T10:32:43.964Z</time></trkpt><trkpt lat="42.87985185437311" lon="11.759104206489011"><ele>492.0</ele><time>2026-03-22T10:32:44.964Z</time></trkpt><trkpt lat="42.87988287757601" lon="11.759325964870868"><ele>492.0</ele><time>2026-03-22T10:32:45.964Z</time></trkpt><trkpt lat="42.87991639499879" lon="11.759555617233495"><ele>492.0</ele><time>2026-03-22T10:32:46.964Z</time></trkpt><trkpt lat="42.87995082396492" lon="11.759791515252521"><ele>493.66666666666663</ele><time>2026-03-22T10:32:47.964Z</time></trkpt><trkpt lat="42.87998641023721" lon="11.760035342811182"><ele>495.3333333333333</ele><time>2026-03-22T10:32:48.964Z</time></trkpt><trkpt lat="42.88002296343296" lon="11.760285795475465"><ele>497.0</ele><time>2026-03-22T10:32:49.964Z</time></trkpt><trkpt lat="42.880059914552085" lon="11.760536848946492"><ele>498.0</ele><time>2026-03-22T10:32:50.964Z</time></trkpt><trkpt lat="42.88009882349985" lon="11.760793753677941"><ele>499.0</ele><time>2026-03-22T10:32:51.964Z</time></trkpt><trkpt lat="42.88013884719578" lon="11.761042703814079"><ele>500.0</ele><time>2026-03-22T10:32:52.964Z</time></trkpt><trkpt lat="42.88019995969223" lon="11.761297772876771"><ele>504.66666666666663</ele><time>2026-03-22T10:32:53.964Z</time></trkpt><trkpt lat="42.88024218586157" lon="11.761569469959616"><ele>509.33333333333337</ele><time>2026-03-22T10:32:54.964Z</time></trkpt><trkpt lat="42.88027229948066" lon="11.761843713181053"><ele>514.0</ele><time>2026-03-22T10:32:55.963Z</time></trkpt><trkpt lat="42.8803429781682" lon="11.762134530748005"><ele>514.0</ele><time>2026-03-22T10:32:56.963Z</time></trkpt><trkpt lat="42.88041137578901" lon="11.762407663712303"><ele>514.0</ele><time>2026-03-22T10:32:57.963Z</time></trkpt><trkpt lat="42.88048221744389" lon="11.76269724457487"><ele>514.0</ele><time>2026-03-22T10:32:58.963Z</time></trkpt><trkpt lat="42.88054983061053" lon="11.762988619972896"><ele>514.6666666666667</ele><time>2026-03-22T10:32:59.963Z</time></trkpt><trkpt lat="42.88060783390325" lon="11.763285993832861"><ele>515.3333333333334</ele><time>2026-03-22T10:33:00.963Z</time></trkpt><trkpt lat="42.880656339445416" lon="11.763563587141194"><ele>516.0</ele><time>2026-03-22T10:33:01.963Z</time></trkpt><trkpt lat="42.88070421148073" lon="11.763837554850499"><ele>516.6666666666666</ele><time>2026-03-22T10:33:02.963Z</time></trkpt><trkpt lat="42.88074331652199" lon="11.76408094606961"><ele>517.3333333333333</ele><time>2026-03-22T10:33:03.963Z</time></trkpt><trkpt lat="42.88083058741208" lon="11.764316480921481"><ele>518.0</ele><time>2026-03-22T10:33:05.963Z</time></trkpt><trkpt lat="42.88082535788238" lon="11.764540082198595"><ele>518.3333333333333</ele><time>2026-03-22T10:33:06.963Z</time></trkpt><trkpt lat="42.88081576025451" lon="11.764758143561952"><ele>518.6666666666666</ele><time>2026-03-22T10:33:07.963Z</time></trkpt><trkpt lat="42.8807999851729" lon="11.764988731156556"><ele>519.0</ele><time>2026-03-22T10:33:08.963Z</time></trkpt><trkpt lat="42.880788313779554" lon="11.765220775906506"><ele>519.3333333333334</ele><time>2026-03-22T10:33:09.963Z</time></trkpt><trkpt lat="42.88079171895018" lon="11.76544077959019"><ele>519.6666666666667</ele><time>2026-03-22T10:33:10.963Z</time></trkpt><trkpt lat="42.88083217666575" lon="11.765637444349954"><ele>520.0</ele><time>2026-03-22T10:33:11.963Z</time></trkpt><trkpt lat="42.880885898709906" lon="11.765816937223732"><ele>523.0</ele><time>2026-03-22T10:33:12.963Z</time></trkpt><trkpt lat="42.880957247667865" lon="11.765971822280225"><ele>526.0</ele><time>2026-03-22T10:33:13.963Z</time></trkpt><trkpt lat="42.881068434214114" lon="11.766100126505755"><ele>529.0</ele><time>2026-03-22T10:33:14.963Z</time></trkpt><trkpt lat="42.88119271319396" lon="11.766207521677588"><ele>532.0</ele><time>2026-03-22T10:33:15.963Z</time></trkpt><trkpt lat="42.88131914901902" lon="11.766319823239904"><ele>532.0</ele><time>2026-03-22T10:33:16.963Z</time></trkpt><trkpt lat="42.88143355971195" lon="11.766462777768504"><ele>532.0</ele><time>2026-03-22T10:33:17.963Z</time></trkpt><trkpt lat="42.881499307137716" lon="11.766656513782278"><ele>532.0</ele><time>2026-03-22T10:33:18.963Z</time></trkpt><trkpt lat="42.88154400945202" lon="11.766872257584325"><ele>532.0</ele><time>2026-03-22T10:33:19.963Z</time></trkpt><trkpt lat="42.8815867204465" lon="11.767100417160217"><ele>532.0</ele><time>2026-03-22T10:33:20.963Z</time></trkpt><trkpt lat="42.88163553809582" lon="11.767361198131884"><ele>532.0</ele><time>2026-03-22T10:33:21.963Z</time></trkpt><trkpt lat="42.88168451880941" lon="11.767610325322146"><ele>532.0</ele><time>2026-03-22T10:33:22.963Z</time></trkpt><trkpt lat="42.881744779095854" lon="11.767862987543614"><ele>532.0</ele><time>2026-03-22T10:33:23.963Z</time></trkpt><trkpt lat="42.88181138419976" lon="11.768108689807622"><ele>532.0</ele><time>2026-03-22T10:33:24.963Z</time></trkpt><trkpt lat="42.881879320197434" lon="11.768331544377867"><ele>534.3333333333334</ele><time>2026-03-22T10:33:25.963Z</time></trkpt><trkpt lat="42.88195356369463" lon="11.768530239206973"><ele>536.6666666666666</ele><time>2026-03-22T10:33:26.963Z</time></trkpt><trkpt lat="42.88206584763399" lon="11.768681540834804"><ele>539.0</ele><time>2026-03-22T10:33:27.963Z</time></trkpt><trkpt lat="42.88217190754255" lon="11.768810150380585"><ele>539.0</ele><time>2026-03-22T10:33:28.963Z</time></trkpt><trkpt lat="42.88229258561453" lon="11.768887553972787"><ele>539.0</ele><time>2026-03-22T10:33:29.963Z</time></trkpt><trkpt lat="42.88242872173871" lon="11.768883890605967"><ele>539.0</ele><time>2026-03-22T10:33:30.962Z</time></trkpt><trkpt lat="42.8825656375023" lon="11.768843798752556"><ele>539.0</ele><time>2026-03-22T10:33:31.962Z</time></trkpt><trkpt lat="42.88267160313584" lon="11.768746543383163"><ele>542.0</ele><time>2026-03-22T10:33:32.962Z</time></trkpt><trkpt lat="42.882769068877224" lon="11.768627983124118"><ele>545.0</ele><time>2026-03-22T10:33:33.962Z</time></trkpt><trkpt lat="42.882831230935125" lon="11.768462324366462"><ele>548.0</ele><time>2026-03-22T10:33:34.962Z</time></trkpt><trkpt lat="42.88287163199329" lon="11.768270867739913"><ele>551.0</ele><time>2026-03-22T10:33:35.962Z</time></trkpt><trkpt lat="42.8828719279291" lon="11.768074410227634"><ele>551.3333333333333</ele><time>2026-03-22T10:33:36.962Z</time></trkpt><trkpt lat="42.88283559611587" lon="11.767879241213526"><ele>551.6666666666666</ele><time>2026-03-22T10:33:37.962Z</time></trkpt><trkpt lat="42.88277872664371" lon="11.767672895761311"><ele>552.0</ele><time>2026-03-22T10:33:38.962Z</time></trkpt><trkpt lat="42.88271605938904" lon="11.767456735198895"><ele>552.6666666666666</ele><time>2026-03-22T10:33:39.962Z</time></trkpt><trkpt lat="42.88266060849231" lon="11.767204881661696"><ele>553.3333333333333</ele><time>2026-03-22T10:33:40.962Z</time></trkpt><trkpt lat="42.8826275476473" lon="11.76694918200881"><ele>554.0</ele><time>2026-03-22T10:33:41.962Z</time></trkpt><trkpt lat="42.882624958098724" lon="11.76668686122063"><ele>554.6666666666666</ele><time>2026-03-22T10:33:42.962Z</time></trkpt><trkpt lat="42.88266490701076" lon="11.766415573272473"><ele>555.3333333333334</ele><time>2026-03-22T10:33:43.962Z</time></trkpt><trkpt lat="42.882706478533684" lon="11.766143701991084"><ele>556.0</ele><time>2026-03-22T10:33:44.962Z</time></trkpt><trkpt lat="42.88272497027061" lon="11.765881915824021"><ele>556.0</ele><time>2026-03-22T10:33:45.962Z</time></trkpt><trkpt lat="42.88274273288313" lon="11.765639618723453"><ele>556.0</ele><time>2026-03-22T10:33:46.962Z</time></trkpt><trkpt lat="42.88276249455721" lon="11.765413214337075"><ele>556.0</ele><time>2026-03-22T10:33:47.962Z</time></trkpt><trkpt lat="42.88279449705547" lon="11.765216503183135"><ele>556.0</ele><time>2026-03-22T10:33:48.962Z</time></trkpt><trkpt lat="42.88284318200186" lon="11.76506780280528"><ele>556.0</ele><time>2026-03-22T10:33:49.962Z</time></trkpt><trkpt lat="42.88292207230409" lon="11.764960152312009"><ele>556.0</ele><time>2026-03-22T10:33:50.962Z</time></trkpt><trkpt lat="42.88302844996552" lon="11.76490974727739"><ele>556.0</ele><time>2026-03-22T10:33:51.962Z</time></trkpt><trkpt lat="42.883148671764225" lon="11.764957594177563"><ele>556.0</ele><time>2026-03-22T10:33:52.962Z</time></trkpt><trkpt lat="42.88325258957175" lon="11.765023370585627"><ele>556.0</ele><time>2026-03-22T10:33:53.962Z</time></trkpt><trkpt lat="42.88331895121177" lon="11.765132241472875"><ele>556.0</ele><time>2026-03-22T10:33:54.962Z</time></trkpt><trkpt lat="42.88334522566745" lon="11.765262883951513"><ele>556.0</ele><time>2026-03-22T10:33:55.962Z</time></trkpt><trkpt lat="42.883347077671544" lon="11.765408153120767"><ele>556.0</ele><time>2026-03-22T10:33:56.962Z</time></trkpt><trkpt lat="42.883306239852566" lon="11.765560199980145"><ele>556.0</ele><time>2026-03-22T10:33:57.962Z</time></trkpt><trkpt lat="42.883259017786735" lon="11.765757058952428"><ele>556.0</ele><time>2026-03-22T10:33:58.962Z</time></trkpt><trkpt lat="42.88321164448953" lon="11.765956952717483"><ele>556.0</ele><time>2026-03-22T10:33:59.962Z</time></trkpt><trkpt lat="42.883172775465106" lon="11.766158261560737"><ele>556.0</ele><time>2026-03-22T10:34:00.962Z</time></trkpt><trkpt lat="42.88316155814503" lon="11.766363062304082"><ele>556.0</ele><time>2026-03-22T10:34:01.962Z</time></trkpt><trkpt lat="42.88320858011485" lon="11.766551215201556"><ele>556.0</ele><time>2026-03-22T10:34:02.962Z</time></trkpt><trkpt lat="42.883260620016976" lon="11.766729376919374"><ele>556.0</ele><time>2026-03-22T10:34:03.962Z</time></trkpt><trkpt lat="42.88334618766636" lon="11.766891190681852"><ele>559.3333333333334</ele><time>2026-03-22T10:34:04.961Z</time></trkpt><trkpt lat="42.883451268080876" lon="11.767053911247025"><ele>562.6666666666666</ele><time>2026-03-22T10:34:05.961Z</time></trkpt><trkpt lat="42.88355784332522" lon="11.76721232486335"><ele>566.0</ele><time>2026-03-22T10:34:06.961Z</time></trkpt><trkpt lat="42.88365512062256" lon="11.767410546090742"><ele>566.0</ele><time>2026-03-22T10:34:07.961Z</time></trkpt><trkpt lat="42.883765937862925" lon="11.767605869378645"><ele>566.0</ele><time>2026-03-22T10:34:08.961Z</time></trkpt><trkpt lat="42.88387926377553" lon="11.767805614328513"><ele>566.0</ele><time>2026-03-22T10:34:09.961Z</time></trkpt><trkpt lat="42.88398519250264" lon="11.767992321289263"><ele>566.0</ele><time>2026-03-22T10:34:10.961Z</time></trkpt><trkpt lat="42.88408406401287" lon="11.768171283999763"><ele>566.0</ele><time>2026-03-22T10:34:11.961Z</time></trkpt><trkpt lat="42.88416193606061" lon="11.768336064078982"><ele>566.0</ele><time>2026-03-22T10:34:12.961Z</time></trkpt><trkpt lat="42.88420963223001" lon="11.768503395533754"><ele>566.0</ele><time>2026-03-22T10:34:13.961Z</time></trkpt><trkpt lat="42.884208133624185" lon="11.768672936786292"><ele>566.0</ele><time>2026-03-22T10:34:14.961Z</time></trkpt><trkpt lat="42.884190559276824" lon="11.768847124826248"><ele>566.0</ele><time>2026-03-22T10:34:15.961Z</time></trkpt><trkpt lat="42.88415805666925" lon="11.769048506976471"><ele>566.0</ele><time>2026-03-22T10:34:16.963Z</time></trkpt><trkpt lat="42.88413168414859" lon="11.769238193615434"><ele>566.0</ele><time>2026-03-22T10:34:17.963Z</time></trkpt><trkpt lat="42.884125748376555" lon="11.769413826957669"><ele>565.5</ele><time>2026-03-22T10:34:18.963Z</time></trkpt><trkpt lat="42.88416991292766" lon="11.769578677762587"><ele>565.0</ele><time>2026-03-22T10:34:19.964Z</time></trkpt><trkpt lat="42.8842306686536" lon="11.76972576575933"><ele>564.5</ele><time>2026-03-22T10:34:20.964Z</time></trkpt><trkpt lat="42.88432319030999" lon="11.769841650895147"><ele>564.0</ele><time>2026-03-22T10:34:21.963Z</time></trkpt><trkpt lat="42.88443068887776" lon="11.76991871623698"><ele>567.75</ele><time>2026-03-22T10:34:22.964Z</time></trkpt><trkpt lat="42.88455086401785" lon="11.769939390384694"><ele>571.5</ele><time>2026-03-22T10:34:23.963Z</time></trkpt><trkpt lat="42.8846752794723" lon="11.769899753096595"><ele>575.25</ele><time>2026-03-22T10:34:24.963Z</time></trkpt><trkpt lat="42.88478745412744" lon="11.769839766380688"><ele>579.0</ele><time>2026-03-22T10:34:25.964Z</time></trkpt><trkpt lat="42.88487671354109" lon="11.769717704072516"><ele>579.0</ele><time>2026-03-22T10:34:26.964Z</time></trkpt><trkpt lat="42.88491351554063" lon="11.769550231490511"><ele>579.0</ele><time>2026-03-22T10:34:27.964Z</time></trkpt><trkpt lat="42.88493792256772" lon="11.769371357658164"><ele>579.0</ele><time>2026-03-22T10:34:28.963Z</time></trkpt><trkpt lat="42.884960453911745" lon="11.769144968140617"><ele>579.0</ele><time>2026-03-22T10:34:29.963Z</time></trkpt><trkpt lat="42.88497818542159" lon="11.76892069516012"><ele>579.75</ele><time>2026-03-22T10:34:30.963Z</time></trkpt><trkpt lat="42.88500828893742" lon="11.768715651757498"><ele>580.5</ele><time>2026-03-22T10:34:31.963Z</time></trkpt><trkpt lat="42.8850348463009" lon="11.768524927706613"><ele>581.25</ele><time>2026-03-22T10:34:32.963Z</time></trkpt><trkpt lat="42.88505804873967" lon="11.768345476616188"><ele>582.0</ele><time>2026-03-22T10:34:33.963Z</time></trkpt><trkpt lat="42.88508124188017" lon="11.76815873504427"><ele>585.25</ele><time>2026-03-22T10:34:34.963Z</time></trkpt><trkpt lat="42.88510786222962" lon="11.767980239147343"><ele>588.5</ele><time>2026-03-22T10:34:35.963Z</time></trkpt><trkpt lat="42.885144096448435" lon="11.767801526994193"><ele>591.75</ele><time>2026-03-22T10:34:36.963Z</time></trkpt><trkpt lat="42.88519755996635" lon="11.767646186520455"><ele>595.0</ele><time>2026-03-22T10:34:37.963Z</time></trkpt><trkpt lat="42.88527461642879" lon="11.767497130395288"><ele>595.0</ele><time>2026-03-22T10:34:38.963Z</time></trkpt><trkpt lat="42.88535229309016" lon="11.767347694275879"><ele>595.0</ele><time>2026-03-22T10:34:39.963Z</time></trkpt><trkpt lat="42.88543174325409" lon="11.767192151960568"><ele>595.0</ele><time>2026-03-22T10:34:40.963Z</time></trkpt><trkpt lat="42.88549941869186" lon="11.767030471525127"><ele>595.0</ele><time>2026-03-22T10:34:41.963Z</time></trkpt><trkpt lat="42.885574618884995" lon="11.766863767943024"><ele>595.0</ele><time>2026-03-22T10:34:42.963Z</time></trkpt><trkpt lat="42.88564180531644" lon="11.766710786359774"><ele>595.0</ele><time>2026-03-22T10:34:43.963Z</time></trkpt><trkpt lat="42.88570230873656" lon="11.766563633681718"><ele>595.0</ele><time>2026-03-22T10:34:44.963Z</time></trkpt><trkpt lat="42.885748838658344" lon="11.766417612878245"><ele>595.0</ele><time>2026-03-22T10:34:45.963Z</time></trkpt><trkpt lat="42.885772342541415" lon="11.7662466392952"><ele>595.0</ele><time>2026-03-22T10:34:46.963Z</time></trkpt><trkpt lat="42.885776214925116" lon="11.766056409061731"><ele>595.0</ele><time>2026-03-22T10:34:47.963Z</time></trkpt><trkpt lat="42.88575844549662" lon="11.765836842852032"><ele>595.0</ele><time>2026-03-22T10:34:48.963Z</time></trkpt><trkpt lat="42.88573016259269" lon="11.76558486418628"><ele>595.3333333333334</ele><time>2026-03-22T10:34:49.963Z</time></trkpt><trkpt lat="42.88569880182098" lon="11.765312911584308"><ele>595.6666666666666</ele><time>2026-03-22T10:34:50.963Z</time></trkpt><trkpt lat="42.88567180557463" lon="11.765021924795962"><ele>596.0</ele><time>2026-03-22T10:34:51.963Z</time></trkpt><trkpt lat="42.88564377519864" lon="11.764730629672027"><ele>597.6666666666666</ele><time>2026-03-22T10:34:52.963Z</time></trkpt><trkpt lat="42.8856131267889" lon="11.764433168361567"><ele>599.3333333333334</ele><time>2026-03-22T10:34:53.962Z</time></trkpt><trkpt lat="42.88558563174674" lon="11.764152800713926"><ele>601.0</ele><time>2026-03-22T10:34:54.962Z</time></trkpt><trkpt lat="42.885562917706466" lon="11.763895175371543"><ele>603.3333333333334</ele><time>2026-03-22T10:34:55.962Z</time></trkpt><trkpt lat="42.88553863321149" lon="11.763662557005606"><ele>605.6666666666666</ele><time>2026-03-22T10:34:56.962Z</time></trkpt><trkpt lat="42.885525892102564" lon="11.76344988145319"><ele>608.0</ele><time>2026-03-22T10:34:57.962Z</time></trkpt><trkpt lat="42.885531272967036" lon="11.76325284343321"><ele>608.5</ele><time>2026-03-22T10:34:58.962Z</time></trkpt><trkpt lat="42.88558226721729" lon="11.763099714996665"><ele>609.0</ele><time>2026-03-22T10:34:59.962Z</time></trkpt><trkpt lat="42.885673064368895" lon="11.763000872480154"><ele>609.5</ele><time>2026-03-22T10:35:00.962Z</time></trkpt><trkpt lat="42.88579135142901" lon="11.762977437467883"><ele>610.0</ele><time>2026-03-22T10:35:01.962Z</time></trkpt><trkpt lat="42.885909233457824" lon="11.762987098280707"><ele>611.8</ele><time>2026-03-22T10:35:02.962Z</time></trkpt><trkpt lat="42.88602488108388" lon="11.763025719558643"><ele>613.6</ele><time>2026-03-22T10:35:03.962Z</time></trkpt><trkpt lat="42.886110087032115" lon="11.763111875028374"><ele>615.4</ele><time>2026-03-22T10:35:04.962Z</time></trkpt><trkpt lat="42.88617013665446" lon="11.763227358491129"><ele>617.2</ele><time>2026-03-22T10:35:05.962Z</time></trkpt><trkpt lat="42.88620821057538" lon="11.763372877762208"><ele>619.0</ele><time>2026-03-22T10:35:06.962Z</time></trkpt><trkpt lat="42.886226495528966" lon="11.76356497869265"><ele>620.0</ele><time>2026-03-22T10:35:07.962Z</time></trkpt><trkpt lat="42.88624583346482" lon="11.763777639769868"><ele>621.0</ele><time>2026-03-22T10:35:08.962Z</time></trkpt><trkpt lat="42.886276130613375" lon="11.763973752137844"><ele>622.0</ele><time>2026-03-22T10:35:09.962Z</time></trkpt><trkpt lat="42.886312692153304" lon="11.76416242938541"><ele>623.0</ele><time>2026-03-22T10:35:10.962Z</time></trkpt><trkpt lat="42.886380904024165" lon="11.764339600801305"><ele>621.6666666666666</ele><time>2026-03-22T10:35:11.962Z</time></trkpt><trkpt lat="42.886469085793344" lon="11.764508398026523"><ele>620.3333333333334</ele><time>2026-03-22T10:35:12.962Z</time></trkpt><trkpt lat="42.88659088658607" lon="11.764661381624304"><ele>619.0</ele><time>2026-03-22T10:35:13.962Z</time></trkpt><trkpt lat="42.88672846703951" lon="11.764781039621806"><ele>623.3333333333334</ele><time>2026-03-22T10:35:14.962Z</time></trkpt><trkpt lat="42.886871141783544" lon="11.76488572734842"><ele>627.6666666666666</ele><time>2026-03-22T10:35:15.962Z</time></trkpt><trkpt lat="42.88703028510506" lon="11.76498488437444"><ele>632.0</ele><time>2026-03-22T10:35:16.962Z</time></trkpt><trkpt lat="42.887190786591304" lon="11.765103418835906"><ele>634.3333333333333</ele><time>2026-03-22T10:35:17.962Z</time></trkpt><trkpt lat="42.88734596213528" lon="11.765239024096212"><ele>636.6666666666666</ele><time>2026-03-22T10:35:18.962Z</time></trkpt><trkpt lat="42.88750129146298" lon="11.765367022777891"><ele>639.0</ele><time>2026-03-22T10:35:19.962Z</time></trkpt><trkpt lat="42.88765441843624" lon="11.765509011649645"><ele>639.0</ele><time>2026-03-22T10:35:20.962Z</time></trkpt><trkpt lat="42.88780014585607" lon="11.765661366571761"><ele>639.0</ele><time>2026-03-22T10:35:21.962Z</time></trkpt><trkpt lat="42.887943620625556" lon="11.765814321622448"><ele>639.0</ele><time>2026-03-22T10:35:22.962Z</time></trkpt><trkpt lat="42.88809066780283" lon="11.765959802702307"><ele>637.6666666666666</ele><time>2026-03-22T10:35:23.962Z</time></trkpt><trkpt lat="42.88823171953431" lon="11.766100167482282"><ele>636.3333333333333</ele><time>2026-03-22T10:35:24.962Z</time></trkpt><trkpt lat="42.888348057425496" lon="11.766249346966347"><ele>635.0</ele><time>2026-03-22T10:35:25.962Z</time></trkpt><trkpt lat="42.888469507379966" lon="11.766375722661586"><ele>638.0</ele><time>2026-03-22T10:35:26.962Z</time></trkpt><trkpt lat="42.88857659912391" lon="11.766488131684023"><ele>641.0</ele><time>2026-03-22T10:35:27.961Z</time></trkpt><trkpt lat="42.888670907251104" lon="11.766597461424688"><ele>644.0</ele><time>2026-03-22T10:35:28.961Z</time></trkpt><trkpt lat="42.888751658699206" lon="11.766720330640643"><ele>647.0</ele><time>2026-03-22T10:35:29.961Z</time></trkpt><trkpt lat="42.8887996976438" lon="11.766860458286498"><ele>648.75</ele><time>2026-03-22T10:35:30.961Z</time></trkpt><trkpt lat="42.888822416836064" lon="11.767023346412879"><ele>650.5</ele><time>2026-03-22T10:35:31.961Z</time></trkpt><trkpt lat="42.88882334860063" lon="11.76720582392148"><ele>652.25</ele><time>2026-03-22T10:35:32.961Z</time></trkpt><trkpt lat="42.88882142555938" lon="11.767404434468098"><ele>654.0</ele><time>2026-03-22T10:35:33.961Z</time></trkpt><trkpt lat="42.88881894102449" lon="11.767598588252962"><ele>655.5</ele><time>2026-03-22T10:35:34.961Z</time></trkpt><trkpt lat="42.888830851100835" lon="11.767802059959465"><ele>657.0</ele><time>2026-03-22T10:35:35.961Z</time></trkpt><trkpt lat="42.88881398866889" lon="11.767997968365712"><ele>658.5</ele><time>2026-03-22T10:35:36.961Z</time></trkpt><trkpt lat="42.88882494278516" lon="11.76819706973195"><ele>660.0</ele><time>2026-03-22T10:35:37.961Z</time></trkpt><trkpt lat="42.8888211288293" lon="11.7683900528142"><ele>659.0</ele><time>2026-03-22T10:35:38.961Z</time></trkpt><trkpt lat="42.88883214159801" lon="11.768581415091466"><ele>658.0</ele><time>2026-03-22T10:35:39.961Z</time></trkpt><trkpt lat="42.88887451253389" lon="11.768763998067682"><ele>657.0</ele><time>2026-03-22T10:35:40.961Z</time></trkpt><trkpt lat="42.888956542122344" lon="11.768924377494141"><ele>656.0</ele><time>2026-03-22T10:35:41.961Z</time></trkpt><trkpt lat="42.88905868685363" lon="11.769071959271233"><ele>656.0</ele><time>2026-03-22T10:35:42.961Z</time></trkpt><trkpt lat="42.889196110891504" lon="11.76919013182796"><ele>656.0</ele><time>2026-03-22T10:35:43.961Z</time></trkpt><trkpt lat="42.8893511272" lon="11.769294253556533"><ele>656.0</ele><time>2026-03-22T10:35:44.961Z</time></trkpt><trkpt lat="42.889514980688396" lon="11.769385984370237"><ele>656.3333333333333</ele><time>2026-03-22T10:35:45.961Z</time></trkpt><trkpt lat="42.889692069413556" lon="11.76949606994067"><ele>656.6666666666666</ele><time>2026-03-22T10:35:46.961Z</time></trkpt><trkpt lat="42.88986355141953" lon="11.769612440417957"><ele>657.0</ele><time>2026-03-22T10:35:47.961Z</time></trkpt><trkpt lat="42.890041067365594" lon="11.769724188952884"><ele>661.6666666666666</ele><time>2026-03-22T10:35:48.961Z</time></trkpt><trkpt lat="42.890223520042916" lon="11.769835991788185"><ele>666.3333333333333</ele><time>2026-03-22T10:35:49.961Z</time></trkpt><trkpt lat="42.89039589716371" lon="11.769955435611875"><ele>671.0</ele><time>2026-03-22T10:35:50.961Z</time></trkpt><trkpt lat="42.89055939869614" lon="11.770067697861535"><ele>669.0</ele><time>2026-03-22T10:35:51.961Z</time></trkpt><trkpt lat="42.89071726386665" lon="11.770201106255037"><ele>667.0</ele><time>2026-03-22T10:35:52.961Z</time></trkpt><trkpt lat="42.89086831793208" lon="11.770355868583442"><ele>665.0</ele><time>2026-03-22T10:35:53.961Z</time></trkpt><trkpt lat="42.89102136813396" lon="11.770526285345932"><ele>667.3333333333333</ele><time>2026-03-22T10:35:54.961Z</time></trkpt><trkpt lat="42.891182833638986" lon="11.77069634378359"><ele>669.6666666666666</ele><time>2026-03-22T10:35:55.961Z</time></trkpt><trkpt lat="42.8913315250838" lon="11.770881983661386"><ele>672.0</ele><time>2026-03-22T10:35:56.961Z</time></trkpt><trkpt lat="42.8914865363706" lon="11.771052970117639"><ele>672.0</ele><time>2026-03-22T10:35:57.961Z</time></trkpt><trkpt lat="42.89164311978254" lon="11.771225690703982"><ele>672.0</ele><time>2026-03-22T10:35:58.961Z</time></trkpt><trkpt lat="42.89179776746041" lon="11.77139627599902"><ele>672.0</ele><time>2026-03-22T10:35:59.961Z</time></trkpt><trkpt lat="42.8919510188009" lon="11.7715657253953"><ele>676.3333333333334</ele><time>2026-03-22T10:36:00.961Z</time></trkpt><trkpt lat="42.892108011779115" lon="11.77173968231491"><ele>680.6666666666667</ele><time>2026-03-22T10:36:01.96Z</time></trkpt><trkpt lat="42.89226594571869" lon="11.771914176764122"><ele>685.0</ele><time>2026-03-22T10:36:02.96Z</time></trkpt><trkpt lat="42.892423969467835" lon="11.772088770404896"><ele>685.0</ele><time>2026-03-22T10:36:03.96Z</time></trkpt><trkpt lat="42.892579426882406" lon="11.772260528533911"><ele>685.0</ele><time>2026-03-22T10:36:04.96Z</time></trkpt><trkpt lat="42.89273857241083" lon="11.772437052090783"><ele>685.0</ele><time>2026-03-22T10:36:05.96Z</time></trkpt><trkpt lat="42.892897574507735" lon="11.772613801023894"><ele>688.0</ele><time>2026-03-22T10:36:06.96Z</time></trkpt><trkpt lat="42.8930499475763" lon="11.772783181068034"><ele>691.0</ele><time>2026-03-22T10:36:07.96Z</time></trkpt><trkpt lat="42.89318608869866" lon="11.772935401013743"><ele>694.0</ele><time>2026-03-22T10:36:08.96Z</time></trkpt><trkpt lat="42.89331472196725" lon="11.773074085551052"><ele>698.0</ele><time>2026-03-22T10:36:09.96Z</time></trkpt><trkpt lat="42.893437193433975" lon="11.773192540873225"><ele>702.0</ele><time>2026-03-22T10:36:10.96Z</time></trkpt><trkpt lat="42.893517137444576" lon="11.773364946675462"><ele>706.0</ele><time>2026-03-22T10:36:11.96Z</time></trkpt><trkpt lat="42.893575997303714" lon="11.773541702248604"><ele>710.0</ele><time>2026-03-22T10:36:12.96Z</time></trkpt><trkpt lat="42.89359886324053" lon="11.77372114086981"><ele>710.0</ele><time>2026-03-22T10:36:13.96Z</time></trkpt><trkpt lat="42.89359534399718" lon="11.773904701527002"><ele>710.0</ele><time>2026-03-22T10:36:14.96Z</time></trkpt><trkpt lat="42.89356578150449" lon="11.774080509650169"><ele>710.0</ele><time>2026-03-22T10:36:15.96Z</time></trkpt><trkpt lat="42.89349884989452" lon="11.774231073650787"><ele>710.0</ele><time>2026-03-22T10:36:16.96Z</time></trkpt><trkpt lat="42.8934122578528" lon="11.774363471319917"><ele>709.0</ele><time>2026-03-22T10:36:17.96Z</time></trkpt><trkpt lat="42.89330155858588" lon="11.774471367285722"><ele>708.0</ele><time>2026-03-22T10:36:18.96Z</time></trkpt><trkpt lat="42.89316101178803" lon="11.774536701518478"><ele>707.0</ele><time>2026-03-22T10:36:19.96Z</time></trkpt><trkpt lat="42.89303014428593" lon="11.774594828939787"><ele>706.0</ele><time>2026-03-22T10:36:20.96Z</time></trkpt><trkpt lat="42.89291950896729" lon="11.774660374029475"><ele>706.0</ele><time>2026-03-22T10:36:21.96Z</time></trkpt><trkpt lat="42.892810751065184" lon="11.77474065062938"><ele>706.0</ele><time>2026-03-22T10:36:22.963Z</time></trkpt><trkpt lat="42.89272806563493" lon="11.77489924125849"><ele>706.0</ele><time>2026-03-22T10:36:23.963Z</time></trkpt><trkpt lat="42.89267659460203" lon="11.775075901801051"><ele>706.0</ele><time>2026-03-22T10:36:24.963Z</time></trkpt><trkpt lat="42.892689998223304" lon="11.775249798064934"><ele>707.5999999999999</ele><time>2026-03-22T10:36:25.962Z</time></trkpt><trkpt lat="42.892766965129226" lon="11.775372002721172"><ele>709.2</ele><time>2026-03-22T10:36:26.962Z</time></trkpt><trkpt lat="42.89284356273699" lon="11.775451370562726"><ele>710.8</ele><time>2026-03-22T10:36:27.962Z</time></trkpt><trkpt lat="42.892933942769034" lon="11.775468419374526"><ele>712.4000000000001</ele><time>2026-03-22T10:36:28.962Z</time></trkpt><trkpt lat="42.89302272404707" lon="11.775444307318386"><ele>714.0</ele><time>2026-03-22T10:36:29.963Z</time></trkpt><trkpt lat="42.8931247601492" lon="11.775406467211882"><ele>714.0</ele><time>2026-03-22T10:36:30.963Z</time></trkpt><trkpt lat="42.8932341941688" lon="11.775360780885155"><ele>714.0</ele><time>2026-03-22T10:36:31.962Z</time></trkpt><trkpt lat="42.893341065022476" lon="11.775298268815973"><ele>714.0</ele><time>2026-03-22T10:36:32.963Z</time></trkpt><trkpt lat="42.893447205459495" lon="11.775226359578829"><ele>714.0</ele><time>2026-03-22T10:36:33.963Z</time></trkpt><trkpt lat="42.89354811890111" lon="11.775160806288387"><ele>714.6</ele><time>2026-03-22T10:36:34.962Z</time></trkpt><trkpt lat="42.89363818065024" lon="11.775100856706123"><ele>715.2</ele><time>2026-03-22T10:36:35.963Z</time></trkpt><trkpt lat="42.89373347152598" lon="11.775067498302912"><ele>715.8000000000001</ele><time>2026-03-22T10:36:36.963Z</time></trkpt><trkpt lat="42.893813217557316" lon="11.775028837371954"><ele>716.4000000000001</ele><time>2026-03-22T10:36:37.963Z</time></trkpt><trkpt lat="42.893895970720436" lon="11.775039795044457"><ele>717.0</ele><time>2026-03-22T10:36:39.962Z</time></trkpt><trkpt lat="42.89398130251124" lon="11.775018001006167"><ele>717.0</ele><time>2026-03-22T10:36:42.962Z</time></trkpt><trkpt lat="42.89410233251121" lon="11.774981749228223"><ele>717.0</ele><time>2026-03-22T10:36:44.962Z</time></trkpt><trkpt lat="42.89420043202494" lon="11.774938741027825"><ele>717.0</ele><time>2026-03-22T10:36:46.962Z</time></trkpt><trkpt lat="42.894281421918926" lon="11.774886954531256"><ele>717.0</ele><time>2026-03-22T10:36:48.962Z</time></trkpt><trkpt lat="42.89435093561686" lon="11.774847694291555"><ele>717.0</ele><time>2026-03-22T10:36:51.962Z</time></trkpt><trkpt lat="42.894429870224855" lon="11.774842126875745"><ele>719.0</ele><time>2026-03-22T10:36:56.962Z</time></trkpt><trkpt lat="42.894498867750855" lon="11.774636118450907"><ele>721.0</ele><time>2026-03-22T10:37:00.962Z</time></trkpt><trkpt lat="42.894570048034446" lon="11.774544630624744"><ele>723.0</ele><time>2026-03-22T10:37:02.962Z</time></trkpt><trkpt lat="42.894657124523036" lon="11.774416505534457"><ele>725.0</ele><time>2026-03-22T10:37:04.962Z</time></trkpt><trkpt lat="42.89470969554784" lon="11.774346509371778"><ele>725.0</ele><time>2026-03-22T10:37:05.962Z</time></trkpt><trkpt lat="42.894766726838924" lon="11.774270377917686"><ele>725.0</ele><time>2026-03-22T10:37:06.962Z</time></trkpt><trkpt lat="42.89482904912772" lon="11.774184078834226"><ele>725.0</ele><time>2026-03-22T10:37:07.962Z</time></trkpt><trkpt lat="42.89488819819449" lon="11.77408039409666"><ele>725.0</ele><time>2026-03-22T10:37:08.962Z</time></trkpt><trkpt lat="42.89493307354444" lon="11.773961308526225"><ele>725.0</ele><time>2026-03-22T10:37:09.962Z</time></trkpt><trkpt lat="42.89495433804336" lon="11.7738241186198"><ele>725.0</ele><time>2026-03-22T10:37:10.962Z</time></trkpt><trkpt lat="42.89494963930468" lon="11.773669952931046"><ele>725.0</ele><time>2026-03-22T10:37:11.962Z</time></trkpt><trkpt lat="42.894915680839574" lon="11.773513512232224"><ele>725.0</ele><time>2026-03-22T10:37:12.962Z</time></trkpt><trkpt lat="42.89485452596448" lon="11.773317800244735"><ele>725.0</ele><time>2026-03-22T10:37:13.961Z</time></trkpt><trkpt lat="42.89476960977817" lon="11.773094063852092"><ele>724.6666666666666</ele><time>2026-03-22T10:37:14.961Z</time></trkpt><trkpt lat="42.89468062828855" lon="11.772863177101778"><ele>724.3333333333334</ele><time>2026-03-22T10:37:15.961Z</time></trkpt><trkpt lat="42.89459933717656" lon="11.772621460547104"><ele>724.0</ele><time>2026-03-22T10:37:16.961Z</time></trkpt><trkpt lat="42.89451525019595" lon="11.772358554014662"><ele>726.0</ele><time>2026-03-22T10:37:17.961Z</time></trkpt><trkpt lat="42.89443708266361" lon="11.772123204606139"><ele>728.0</ele><time>2026-03-22T10:37:18.961Z</time></trkpt><trkpt lat="42.89436745180762" lon="11.771887764386843"><ele>730.0</ele><time>2026-03-22T10:37:19.961Z</time></trkpt><trkpt lat="42.89429525312071" lon="11.77166187991575"><ele>728.3333333333334</ele><time>2026-03-22T10:37:20.961Z</time></trkpt><trkpt lat="42.89423385873695" lon="11.771442011145394"><ele>726.6666666666666</ele><time>2026-03-22T10:37:21.961Z</time></trkpt><trkpt lat="42.8941717371222" lon="11.771218968329658"><ele>725.0</ele><time>2026-03-22T10:37:22.961Z</time></trkpt><trkpt lat="42.89410646570602" lon="11.77100174182463"><ele>725.0</ele><time>2026-03-22T10:37:23.961Z</time></trkpt><trkpt lat="42.894033470088196" lon="11.770798349766618"><ele>725.0</ele><time>2026-03-22T10:37:24.961Z</time></trkpt><trkpt lat="42.893951256499165" lon="11.77059716604238"><ele>725.0</ele><time>2026-03-22T10:37:25.961Z</time></trkpt><trkpt lat="42.89384966929445" lon="11.770399265895257"><ele>725.0</ele><time>2026-03-22T10:37:26.961Z</time></trkpt><trkpt lat="42.89374766603124" lon="11.770215722815513"><ele>725.0</ele><time>2026-03-22T10:37:27.961Z</time></trkpt><trkpt lat="42.89365429625088" lon="11.770034580945367"><ele>725.0</ele><time>2026-03-22T10:37:28.961Z</time></trkpt><trkpt lat="42.89358234784029" lon="11.769860825361395"><ele>726.75</ele><time>2026-03-22T10:37:29.961Z</time></trkpt><trkpt lat="42.8935479573219" lon="11.769699832712949"><ele>728.5</ele><time>2026-03-22T10:37:30.961Z</time></trkpt><trkpt lat="42.89354130139114" lon="11.769548935264252"><ele>730.25</ele><time>2026-03-22T10:37:31.961Z</time></trkpt><trkpt lat="42.893559552093095" lon="11.769382687300263"><ele>732.0</ele><time>2026-03-22T10:37:32.961Z</time></trkpt><trkpt lat="42.89359351585783" lon="11.769206414796445"><ele>733.0</ele><time>2026-03-22T10:37:33.961Z</time></trkpt><trkpt lat="42.89364021114139" lon="11.769028223879342"><ele>734.0</ele><time>2026-03-22T10:37:34.961Z</time></trkpt><trkpt lat="42.893690236645256" lon="11.76885091758156"><ele>735.0</ele><time>2026-03-22T10:37:35.961Z</time></trkpt><trkpt lat="42.89372471442266" lon="11.768666969988312"><ele>736.0</ele><time>2026-03-22T10:37:36.961Z</time></trkpt><trkpt lat="42.893763263747005" lon="11.768465144915133"><ele>736.0</ele><time>2026-03-22T10:37:37.961Z</time></trkpt><trkpt lat="42.893805617559735" lon="11.768266727282375"><ele>736.0</ele><time>2026-03-22T10:37:38.961Z</time></trkpt><trkpt lat="42.89384308921193" lon="11.768090226153072"><ele>736.0</ele><time>2026-03-22T10:37:39.961Z</time></trkpt><trkpt lat="42.893877060195095" lon="11.767928829752282"><ele>736.0</ele><time>2026-03-22T10:37:40.961Z</time></trkpt><trkpt lat="42.893903575568736" lon="11.767770206940082"><ele>736.5</ele><time>2026-03-22T10:37:41.961Z</time></trkpt><trkpt lat="42.893910086926965" lon="11.767603333360004"><ele>737.0</ele><time>2026-03-22T10:37:42.961Z</time></trkpt><trkpt lat="42.893901331878936" lon="11.767413416203"><ele>737.5</ele><time>2026-03-22T10:37:43.961Z</time></trkpt><trkpt lat="42.893883754252386" lon="11.767233758310155"><ele>738.0</ele><time>2026-03-22T10:37:44.961Z</time></trkpt><trkpt lat="42.8938590257161" lon="11.767047511708395"><ele>738.5</ele><time>2026-03-22T10:37:45.961Z</time></trkpt><trkpt lat="42.89383575072154" lon="11.766855830923966"><ele>739.0</ele><time>2026-03-22T10:37:46.961Z</time></trkpt><trkpt lat="42.893811475683826" lon="11.766667218754904"><ele>739.5</ele><time>2026-03-22T10:37:47.96Z</time></trkpt><trkpt lat="42.89378433661335" lon="11.766480674118494"><ele>740.0</ele><time>2026-03-22T10:37:48.96Z</time></trkpt><trkpt lat="42.8937566770283" lon="11.766294983298279"><ele>740.0</ele><time>2026-03-22T10:37:49.96Z</time></trkpt><trkpt lat="42.89373539327256" lon="11.766118424098355"><ele>740.0</ele><time>2026-03-22T10:37:50.96Z</time></trkpt><trkpt lat="42.8937271349457" lon="11.765944799575482"><ele>740.0</ele><time>2026-03-22T10:37:51.96Z</time></trkpt><trkpt lat="42.89374378297012" lon="11.765775443086724"><ele>740.0</ele><time>2026-03-22T10:37:52.96Z</time></trkpt><trkpt lat="42.893786096051315" lon="11.765614256517663"><ele>740.25</ele><time>2026-03-22T10:37:53.96Z</time></trkpt><trkpt lat="42.89385496306341" lon="11.76546996105645"><ele>740.5</ele><time>2026-03-22T10:37:54.96Z</time></trkpt><trkpt lat="42.89394828635008" lon="11.765348287147143"><ele>740.75</ele><time>2026-03-22T10:37:55.96Z</time></trkpt><trkpt lat="42.894058033350035" lon="11.765256440609077"><ele>741.0</ele><time>2026-03-22T10:37:56.96Z</time></trkpt><trkpt lat="42.89417531852516" lon="11.765182363760545"><ele>743.5</ele><time>2026-03-22T10:37:57.96Z</time></trkpt><trkpt lat="42.894295825433765" lon="11.765115645480286"><ele>746.0</ele><time>2026-03-22T10:37:58.96Z</time></trkpt><trkpt lat="42.894417311255225" lon="11.765047424964472"><ele>748.5</ele><time>2026-03-22T10:37:59.96Z</time></trkpt><trkpt lat="42.8945380050245" lon="11.764973323608421"><ele>751.0</ele><time>2026-03-22T10:38:00.96Z</time></trkpt><trkpt lat="42.89465678773432" lon="11.764903380194118"><ele>751.0</ele><time>2026-03-22T10:38:01.96Z</time></trkpt><trkpt lat="42.89477631366647" lon="11.76482240512847"><ele>751.0</ele><time>2026-03-22T10:38:02.96Z</time></trkpt><trkpt lat="42.89489154214865" lon="11.76473929669557"><ele>751.0</ele><time>2026-03-22T10:38:03.96Z</time></trkpt><trkpt lat="42.8949964980775" lon="11.764653881281756"><ele>751.0</ele><time>2026-03-22T10:38:04.96Z</time></trkpt><trkpt lat="42.895102024149026" lon="11.764567996016261"><ele>750.75</ele><time>2026-03-22T10:38:05.96Z</time></trkpt><trkpt lat="42.89520835016152" lon="11.76448035083607"><ele>750.5</ele><time>2026-03-22T10:38:06.96Z</time></trkpt><trkpt lat="42.89531020892261" lon="11.764396219055211"><ele>750.25</ele><time>2026-03-22T10:38:07.96Z</time></trkpt><trkpt lat="42.895415481264855" lon="11.76431267551075"><ele>750.0</ele><time>2026-03-22T10:38:08.96Z</time></trkpt><trkpt lat="42.89552656037862" lon="11.764231675015191"><ele>750.0</ele><time>2026-03-22T10:38:09.96Z</time></trkpt><trkpt lat="42.89564380379689" lon="11.764140118121272"><ele>750.0</ele><time>2026-03-22T10:38:10.96Z</time></trkpt><trkpt lat="42.895762390125455" lon="11.764043181043098"><ele>750.0</ele><time>2026-03-22T10:38:11.96Z</time></trkpt><trkpt lat="42.895885506236674" lon="11.763947566465383"><ele>750.0</ele><time>2026-03-22T10:38:12.96Z</time></trkpt><trkpt lat="42.896011499486804" lon="11.763850307560553"><ele>754.3333333333334</ele><time>2026-03-22T10:38:13.96Z</time></trkpt><trkpt lat="42.896137390370924" lon="11.763749615379664"><ele>758.6666666666667</ele><time>2026-03-22T10:38:14.96Z</time></trkpt><trkpt lat="42.89626659673234" lon="11.763644604552146"><ele>763.0</ele><time>2026-03-22T10:38:15.96Z</time></trkpt><trkpt lat="42.89639980573351" lon="11.763540820931745"><ele>764.0</ele><time>2026-03-22T10:38:16.96Z</time></trkpt><trkpt lat="42.896536978100656" lon="11.763435981866158"><ele>765.0</ele><time>2026-03-22T10:38:17.96Z</time></trkpt><trkpt lat="42.89667464274398" lon="11.763325873000088"><ele>766.0</ele><time>2026-03-22T10:38:18.96Z</time></trkpt><trkpt lat="42.896808915609704" lon="11.763218176304074"><ele>766.0</ele><time>2026-03-22T10:38:19.96Z</time></trkpt><trkpt lat="42.89693328064853" lon="11.763119519912246"><ele>766.0</ele><time>2026-03-22T10:38:20.96Z</time></trkpt><trkpt lat="42.897050995052545" lon="11.763028892973999"><ele>766.0</ele><time>2026-03-22T10:38:21.96Z</time></trkpt><trkpt lat="42.89717376561665" lon="11.762956888080467"><ele>766.0</ele><time>2026-03-22T10:38:22.959Z</time></trkpt><trkpt lat="42.89730519045473" lon="11.762910629051602"><ele>766.0</ele><time>2026-03-22T10:38:23.959Z</time></trkpt><trkpt lat="42.8974449606609" lon="11.762890764995204"><ele>766.0</ele><time>2026-03-22T10:38:24.959Z</time></trkpt><trkpt lat="42.89758752730294" lon="11.762915682739221"><ele>766.0</ele><time>2026-03-22T10:38:25.959Z</time></trkpt><trkpt lat="42.89772912558783" lon="11.762931906197235"><ele>766.0</ele><time>2026-03-22T10:38:26.959Z</time></trkpt><trkpt lat="42.89787606563059" lon="11.762946902317125"><ele>767.5</ele><time>2026-03-22T10:38:27.959Z</time></trkpt><trkpt lat="42.89801930638077" lon="11.762964868949437"><ele>769.0</ele><time>2026-03-22T10:38:28.961Z</time></trkpt><trkpt lat="42.89816651579876" lon="11.76298025083012"><ele>770.5</ele><time>2026-03-22T10:38:29.962Z</time></trkpt><trkpt lat="42.89831747517442" lon="11.762997138156798"><ele>772.0</ele><time>2026-03-22T10:38:30.962Z</time></trkpt><trkpt lat="42.898471903176834" lon="11.763013841859314"><ele>772.6666666666666</ele><time>2026-03-22T10:38:31.962Z</time></trkpt><trkpt lat="42.89862796732843" lon="11.763023775173696"><ele>773.3333333333333</ele><time>2026-03-22T10:38:32.962Z</time></trkpt><trkpt lat="42.89878837870652" lon="11.76304214953034"><ele>774.0</ele><time>2026-03-22T10:38:33.962Z</time></trkpt><trkpt lat="42.89894991777134" lon="11.763064324633449"><ele>774.0</ele><time>2026-03-22T10:38:34.962Z</time></trkpt><trkpt lat="42.89911262813649" lon="11.76308314909029"><ele>774.0</ele><time>2026-03-22T10:38:35.961Z</time></trkpt><trkpt lat="42.89926817162917" lon="11.763114768739992"><ele>774.0</ele><time>2026-03-22T10:38:36.961Z</time></trkpt><trkpt lat="42.89943558244848" lon="11.763134571496392"><ele>774.0</ele><time>2026-03-22T10:38:37.961Z</time></trkpt><trkpt lat="42.89960528566719" lon="11.7631548660216"><ele>774.0</ele><time>2026-03-22T10:38:38.962Z</time></trkpt><trkpt lat="42.899783202593085" lon="11.763176141284003"><ele>774.0</ele><time>2026-03-22T10:38:39.962Z</time></trkpt><trkpt lat="42.89995806233744" lon="11.763178034584653"><ele>774.0</ele><time>2026-03-22T10:38:40.961Z</time></trkpt><trkpt lat="42.90013490248362" lon="11.763206949716414"><ele>774.0</ele><time>2026-03-22T10:38:41.962Z</time></trkpt><trkpt lat="42.900297576541185" lon="11.763228786231231"><ele>774.0</ele><time>2026-03-22T10:38:42.962Z</time></trkpt><trkpt lat="42.900460919551456" lon="11.76325294886719"><ele>774.0</ele><time>2026-03-22T10:38:43.962Z</time></trkpt><trkpt lat="42.900620248043644" lon="11.763296227525405"><ele>774.0</ele><time>2026-03-22T10:38:44.962Z</time></trkpt><trkpt lat="42.90077311370923" lon="11.76337293325277"><ele>774.0</ele><time>2026-03-22T10:38:45.962Z</time></trkpt><trkpt lat="42.90091776835264" lon="11.763486876018215"><ele>773.3333333333333</ele><time>2026-03-22T10:38:46.962Z</time></trkpt><trkpt lat="42.90104888713844" lon="11.763638183788718"><ele>772.6666666666666</ele><time>2026-03-22T10:38:47.962Z</time></trkpt><trkpt lat="42.90115133414142" lon="11.763827391151104"><ele>772.0</ele><time>2026-03-22T10:38:48.962Z</time></trkpt><trkpt lat="42.90127160052633" lon="11.764008739660158"><ele>772.0</ele><time>2026-03-22T10:38:49.961Z</time></trkpt><trkpt lat="42.9013817236605" lon="11.764202664493189"><ele>772.0</ele><time>2026-03-22T10:38:50.961Z</time></trkpt><trkpt lat="42.90149130174889" lon="11.764384202673746"><ele>772.0</ele><time>2026-03-22T10:38:51.961Z</time></trkpt><trkpt lat="42.901605648811035" lon="11.764554691942182"><ele>771.3333333333333</ele><time>2026-03-22T10:38:52.961Z</time></trkpt><trkpt lat="42.901730887352535" lon="11.764708302509682"><ele>770.6666666666667</ele><time>2026-03-22T10:38:53.961Z</time></trkpt><trkpt lat="42.901876805494105" lon="11.764835445941184"><ele>770.0</ele><time>2026-03-22T10:38:54.961Z</time></trkpt><trkpt lat="42.90203961485236" lon="11.764931366092368"><ele>770.0</ele><time>2026-03-22T10:38:55.961Z</time></trkpt><trkpt lat="42.90221415104844" lon="11.764999650552133"><ele>770.0</ele><time>2026-03-22T10:38:56.961Z</time></trkpt><trkpt lat="42.90239757424083" lon="11.765053964746297"><ele>770.0</ele><time>2026-03-22T10:38:57.961Z</time></trkpt><trkpt lat="42.902584953772966" lon="11.765120336852934"><ele>769.3333333333334</ele><time>2026-03-22T10:38:58.961Z</time></trkpt><trkpt lat="42.90276799254844" lon="11.765205603752136"><ele>768.6666666666667</ele><time>2026-03-22T10:38:59.961Z</time></trkpt><trkpt lat="42.9029507450904" lon="11.765311493564699"><ele>768.0</ele><time>2026-03-22T10:39:00.961Z</time></trkpt><trkpt lat="42.90312975317951" lon="11.765429226126066"><ele>768.0</ele><time>2026-03-22T10:39:01.961Z</time></trkpt><trkpt lat="42.90330654311248" lon="11.765561324018508"><ele>768.0</ele><time>2026-03-22T10:39:02.961Z</time></trkpt><trkpt lat="42.90347553969581" lon="11.76568892035712"><ele>768.0</ele><time>2026-03-22T10:39:03.961Z</time></trkpt><trkpt lat="42.90363515304496" lon="11.76580507318092"><ele>767.3333333333334</ele><time>2026-03-22T10:39:04.961Z</time></trkpt><trkpt lat="42.903790197835875" lon="11.765918044206572"><ele>766.6666666666667</ele><time>2026-03-22T10:39:05.961Z</time></trkpt><trkpt lat="42.90393380957829" lon="11.766026884415629"><ele>766.0</ele><time>2026-03-22T10:39:06.961Z</time></trkpt><trkpt lat="42.904066430932026" lon="11.766114887979233"><ele>766.0</ele><time>2026-03-22T10:39:07.961Z</time></trkpt><trkpt lat="42.90419605838202" lon="11.766166434312428"><ele>766.0</ele><time>2026-03-22T10:39:08.961Z</time></trkpt><trkpt lat="42.9043258774755" lon="11.76615086627255"><ele>766.0</ele><time>2026-03-22T10:39:09.961Z</time></trkpt><trkpt lat="42.90444716178326" lon="11.766084295618127"><ele>766.0</ele><time>2026-03-22T10:39:10.961Z</time></trkpt><trkpt lat="42.90456331455892" lon="11.765972979580374"><ele>765.75</ele><time>2026-03-22T10:39:11.961Z</time></trkpt><trkpt lat="42.90465294414448" lon="11.765820292806703"><ele>765.5</ele><time>2026-03-22T10:39:12.961Z</time></trkpt><trkpt lat="42.90471243245621" lon="11.765642500985754"><ele>765.25</ele><time>2026-03-22T10:39:13.961Z</time></trkpt><trkpt lat="42.90475130280715" lon="11.765443868124148"><ele>765.0</ele><time>2026-03-22T10:39:14.961Z</time></trkpt><trkpt lat="42.90479255068792" lon="11.765261422722359"><ele>763.5</ele><time>2026-03-22T10:39:15.961Z</time></trkpt><trkpt lat="42.90483820798383" lon="11.765087603128194"><ele>762.0</ele><time>2026-03-22T10:39:16.961Z</time></trkpt><trkpt lat="42.90489911806052" lon="11.76491415674571"><ele>760.5</ele><time>2026-03-22T10:39:17.961Z</time></trkpt><trkpt lat="42.904982017132305" lon="11.764755120309195"><ele>759.0</ele><time>2026-03-22T10:39:18.961Z</time></trkpt><trkpt lat="42.905096340431236" lon="11.764621989559284"><ele>759.0</ele><time>2026-03-22T10:39:19.961Z</time></trkpt><trkpt lat="42.90524684016966" lon="11.764542373646588"><ele>759.0</ele><time>2026-03-22T10:39:20.961Z</time></trkpt><trkpt lat="42.90541348648062" lon="11.764449586593924"><ele>759.0</ele><time>2026-03-22T10:39:21.961Z</time></trkpt><trkpt lat="42.905594187117" lon="11.764374804752478"><ele>757.0</ele><time>2026-03-22T10:39:22.961Z</time></trkpt><trkpt lat="42.905773140590476" lon="11.764303394864912"><ele>755.0</ele><time>2026-03-22T10:39:23.96Z</time></trkpt><trkpt lat="42.90595619761436" lon="11.764237454788935"><ele>753.0</ele><time>2026-03-22T10:39:24.96Z</time></trkpt><trkpt lat="42.9061369453926" lon="11.764183132763295"><ele>753.0</ele><time>2026-03-22T10:39:25.96Z</time></trkpt><trkpt lat="42.906322861697525" lon="11.764138581719301"><ele>753.0</ele><time>2026-03-22T10:39:26.96Z</time></trkpt><trkpt lat="42.90650918195249" lon="11.76408369097582"><ele>753.0</ele><time>2026-03-22T10:39:27.96Z</time></trkpt><trkpt lat="42.906690206719645" lon="11.764017473255771"><ele>750.6666666666666</ele><time>2026-03-22T10:39:28.96Z</time></trkpt><trkpt lat="42.906874841745086" lon="11.764026500621856"><ele>748.3333333333333</ele><time>2026-03-22T10:39:29.96Z</time></trkpt><trkpt lat="42.9070632160713" lon="11.764030789851924"><ele>746.0</ele><time>2026-03-22T10:39:30.96Z</time></trkpt><trkpt lat="42.90726083130921" lon="11.76404069521883"><ele>746.0</ele><time>2026-03-22T10:39:31.96Z</time></trkpt><trkpt lat="42.90746249269727" lon="11.764050572658887"><ele>746.0</ele><time>2026-03-22T10:39:32.96Z</time></trkpt><trkpt lat="42.90766433170799" lon="11.764044073643266"><ele>746.0</ele><time>2026-03-22T10:39:33.96Z</time></trkpt><trkpt lat="42.90787033694117" lon="11.764084033790507"><ele>744.0</ele><time>2026-03-22T10:39:34.96Z</time></trkpt><trkpt lat="42.90807702152129" lon="11.764113215599055"><ele>742.0</ele><time>2026-03-22T10:39:35.96Z</time></trkpt><trkpt lat="42.908275497053495" lon="11.76414956527743"><ele>740.0</ele><time>2026-03-22T10:39:36.96Z</time></trkpt><trkpt lat="42.90844218174487" lon="11.76418218324953"><ele>738.5</ele><time>2026-03-22T10:39:37.96Z</time></trkpt><trkpt lat="42.90857099824737" lon="11.764209029844018"><ele>737.0</ele><time>2026-03-22T10:39:38.96Z</time></trkpt><trkpt lat="42.908666872038026" lon="11.764229393312878"><ele>735.5</ele><time>2026-03-22T10:39:39.96Z</time></trkpt><trkpt lat="42.908777640563414" lon="11.76425266018971"><ele>734.0</ele><time>2026-03-22T10:39:40.96Z</time></trkpt><trkpt lat="42.90930649697557" lon="11.764359980013259"><ele>734.6666666666666</ele><time>2026-03-22T10:39:41.96Z</time></trkpt><trkpt lat="42.90949732562912" lon="11.764385945811851"><ele>735.3333333333334</ele><time>2026-03-22T10:39:42.96Z</time></trkpt><trkpt lat="42.90967570775992" lon="11.764418954553518"><ele>736.0</ele><time>2026-03-22T10:39:43.96Z</time></trkpt><trkpt lat="42.909849134296635" lon="11.764413151508888"><ele>734.0</ele><time>2026-03-22T10:39:44.96Z</time></trkpt><trkpt lat="42.910022790158" lon="11.764357302659041"><ele>732.0</ele><time>2026-03-22T10:39:45.96Z</time></trkpt><trkpt lat="42.910189286789176" lon="11.764243344752582"><ele>730.0</ele><time>2026-03-22T10:39:46.96Z</time></trkpt><trkpt lat="42.910368530030816" lon="11.764136616700943"><ele>728.6666666666667</ele><time>2026-03-22T10:39:47.96Z</time></trkpt><trkpt lat="42.910533623044756" lon="11.763989513590971"><ele>727.3333333333334</ele><time>2026-03-22T10:39:48.96Z</time></trkpt><trkpt lat="42.91069704757924" lon="11.763865479824096"><ele>726.0</ele><time>2026-03-22T10:39:49.96Z</time></trkpt><trkpt lat="42.91085965488564" lon="11.763750232021415"><ele>725.3333333333334</ele><time>2026-03-22T10:39:50.96Z</time></trkpt><trkpt lat="42.91102553790964" lon="11.763635424422944"><ele>724.6666666666667</ele><time>2026-03-22T10:39:51.96Z</time></trkpt><trkpt lat="42.9111902425793" lon="11.763535793705087"><ele>724.0</ele><time>2026-03-22T10:39:52.96Z</time></trkpt><trkpt lat="42.91136185777454" lon="11.763476180744062"><ele>721.0</ele><time>2026-03-22T10:39:53.96Z</time></trkpt><trkpt lat="42.91153848103836" lon="11.763464169031018"><ele>718.0</ele><time>2026-03-22T10:39:54.96Z</time></trkpt><trkpt lat="42.911719039850524" lon="11.763470217614325"><ele>715.0</ele><time>2026-03-22T10:39:55.96Z</time></trkpt><trkpt lat="42.91190663428783" lon="11.763495660360059"><ele>714.3333333333334</ele><time>2026-03-22T10:39:56.96Z</time></trkpt><trkpt lat="42.912086120227954" lon="11.763568135638904"><ele>713.6666666666666</ele><time>2026-03-22T10:39:57.959Z</time></trkpt><trkpt lat="42.91226066408936" lon="11.763627441635311"><ele>713.0</ele><time>2026-03-22T10:39:58.959Z</time></trkpt><trkpt lat="42.912431904062494" lon="11.763689548846598"><ele>709.6666666666666</ele><time>2026-03-22T10:39:59.959Z</time></trkpt><trkpt lat="42.912601927326136" lon="11.763748935564209"><ele>706.3333333333334</ele><time>2026-03-22T10:40:00.959Z</time></trkpt><trkpt lat="42.91275421540618" lon="11.763782876249163"><ele>703.0</ele><time>2026-03-22T10:40:01.959Z</time></trkpt><trkpt lat="42.91288299790405" lon="11.763812517690816"><ele>703.0</ele><time>2026-03-22T10:40:02.959Z</time></trkpt><trkpt lat="42.91300410158231" lon="11.763793973407223"><ele>703.0</ele><time>2026-03-22T10:40:03.959Z</time></trkpt><trkpt lat="42.91310128247128" lon="11.763685200883478"><ele>703.0</ele><time>2026-03-22T10:40:04.959Z</time></trkpt><trkpt lat="42.91319797125672" lon="11.763550894279641"><ele>703.0</ele><time>2026-03-22T10:40:05.959Z</time></trkpt><trkpt lat="42.91328380928774" lon="11.763380848236842"><ele>702.0</ele><time>2026-03-22T10:40:06.959Z</time></trkpt><trkpt lat="42.913371388914214" lon="11.763190675731437"><ele>701.0</ele><time>2026-03-22T10:40:07.959Z</time></trkpt><trkpt lat="42.91346035649797" lon="11.762984494020857"><ele>700.0</ele><time>2026-03-22T10:40:08.959Z</time></trkpt><trkpt lat="42.91356859200036" lon="11.762781275635588"><ele>696.3333333333334</ele><time>2026-03-22T10:40:09.959Z</time></trkpt><trkpt lat="42.913677872241884" lon="11.762579615874442"><ele>692.6666666666666</ele><time>2026-03-22T10:40:10.959Z</time></trkpt><trkpt lat="42.913784019599184" lon="11.762381837046656"><ele>689.0</ele><time>2026-03-22T10:40:11.959Z</time></trkpt><trkpt lat="42.91388786752619" lon="11.762187276134945"><ele>689.0</ele><time>2026-03-22T10:40:12.959Z</time></trkpt><trkpt lat="42.913985034064396" lon="11.761995815099064"><ele>689.0</ele><time>2026-03-22T10:40:13.959Z</time></trkpt><trkpt lat="42.914058736089515" lon="11.761803313340225"><ele>689.0</ele><time>2026-03-22T10:40:14.959Z</time></trkpt><trkpt lat="42.91408703842858" lon="11.761631604077946"><ele>689.5</ele><time>2026-03-22T10:40:15.959Z</time></trkpt><trkpt lat="42.914058650733814" lon="11.761476704384783"><ele>690.0</ele><time>2026-03-22T10:40:16.959Z</time></trkpt><trkpt lat="42.91399912889155" lon="11.761327996074202"><ele>690.5</ele><time>2026-03-22T10:40:17.959Z</time></trkpt><trkpt lat="42.91392155472518" lon="11.761188955074337"><ele>691.0</ele><time>2026-03-22T10:40:18.959Z</time></trkpt><trkpt lat="42.91384740680923" lon="11.761044197155256"><ele>691.25</ele><time>2026-03-22T10:40:19.959Z</time></trkpt><trkpt lat="42.91378497893449" lon="11.760892954063625"><ele>691.5</ele><time>2026-03-22T10:40:20.959Z</time></trkpt><trkpt lat="42.91375267535449" lon="11.76073244856143"><ele>691.75</ele><time>2026-03-22T10:40:21.959Z</time></trkpt><trkpt lat="42.91376530058053" lon="11.760573551115613"><ele>692.0</ele><time>2026-03-22T10:40:22.959Z</time></trkpt><trkpt lat="42.91383952056548" lon="11.760433446300437"><ele>692.0</ele><time>2026-03-22T10:40:23.959Z</time></trkpt><trkpt lat="42.91391407350919" lon="11.7602774316539"><ele>692.0</ele><time>2026-03-22T10:40:24.959Z</time></trkpt><trkpt lat="42.913988832908075" lon="11.760113178582301"><ele>692.0</ele><time>2026-03-22T10:40:25.959Z</time></trkpt><trkpt lat="42.9140678129887" lon="11.759941470186016"><ele>692.0</ele><time>2026-03-22T10:40:26.959Z</time></trkpt><trkpt lat="42.91413795293132" lon="11.759756259941687"><ele>690.0</ele><time>2026-03-22T10:40:27.959Z</time></trkpt><trkpt lat="42.91419645816812" lon="11.759564072225114"><ele>688.0</ele><time>2026-03-22T10:40:28.959Z</time></trkpt><trkpt lat="42.914238874483814" lon="11.759358705446529"><ele>686.0</ele><time>2026-03-22T10:40:29.959Z</time></trkpt><trkpt lat="42.9142715685474" lon="11.759156544837653"><ele>685.5</ele><time>2026-03-22T10:40:30.959Z</time></trkpt><trkpt lat="42.91431229836186" lon="11.75896552537216"><ele>685.0</ele><time>2026-03-22T10:40:31.959Z</time></trkpt><trkpt lat="42.914379591721435" lon="11.75879527122667"><ele>684.5</ele><time>2026-03-22T10:40:32.958Z</time></trkpt><trkpt lat="42.91449318623215" lon="11.758676608319645"><ele>684.0</ele><time>2026-03-22T10:40:33.958Z</time></trkpt><trkpt lat="42.914607851230485" lon="11.7585378608627"><ele>680.3333333333334</ele><time>2026-03-22T10:40:34.96Z</time></trkpt><trkpt lat="42.914716892115145" lon="11.758382652688747"><ele>676.6666666666667</ele><time>2026-03-22T10:40:35.961Z</time></trkpt><trkpt lat="42.91483018036026" lon="11.758236996098413"><ele>673.0</ele><time>2026-03-22T10:40:36.96Z</time></trkpt><trkpt lat="42.91492296772603" lon="11.75807425560834"><ele>673.0</ele><time>2026-03-22T10:40:37.96Z</time></trkpt><trkpt lat="42.91499560071591" lon="11.757915654907563"><ele>673.0</ele><time>2026-03-22T10:40:38.96Z</time></trkpt><trkpt lat="42.91505251620546" lon="11.757771013895963"><ele>673.0</ele><time>2026-03-22T10:40:39.96Z</time></trkpt><trkpt lat="42.91512011814403" lon="11.757655478212174"><ele>673.0</ele><time>2026-03-22T10:40:40.961Z</time></trkpt><trkpt lat="42.91522517747329" lon="11.757611340668607"><ele>670.5</ele><time>2026-03-22T10:40:41.961Z</time></trkpt><trkpt lat="42.91534474803863" lon="11.75759064424299"><ele>668.0</ele><time>2026-03-22T10:40:42.961Z</time></trkpt><trkpt lat="42.91547737409116" lon="11.757574440709382"><ele>665.5</ele><time>2026-03-22T10:40:43.961Z</time></trkpt><trkpt lat="42.915594432656704" lon="11.757528956681949"><ele>663.0</ele><time>2026-03-22T10:40:44.96Z</time></trkpt><trkpt lat="42.91570238233996" lon="11.757469220599441"><ele>663.0</ele><time>2026-03-22T10:40:45.96Z</time></trkpt><trkpt lat="42.915794974896365" lon="11.757349827331375"><ele>663.0</ele><time>2026-03-22T10:40:46.961Z</time></trkpt><trkpt lat="42.91586376596225" lon="11.757183045214314"><ele>663.0</ele><time>2026-03-22T10:40:47.961Z</time></trkpt><trkpt lat="42.915893530268484" lon="11.756985678650562"><ele>663.0</ele><time>2026-03-22T10:40:48.961Z</time></trkpt><trkpt lat="42.915902390622115" lon="11.756766756572683"><ele>658.0</ele><time>2026-03-22T10:40:49.961Z</time></trkpt><trkpt lat="42.91592361912261" lon="11.75655015851714"><ele>653.0</ele><time>2026-03-22T10:40:50.961Z</time></trkpt><trkpt lat="42.91596284672938" lon="11.75630771121189"><ele>648.0</ele><time>2026-03-22T10:40:51.961Z</time></trkpt><trkpt lat="42.91599965370465" lon="11.756055493282139"><ele>645.3333333333334</ele><time>2026-03-22T10:40:52.961Z</time></trkpt><trkpt lat="42.91603589867466" lon="11.755800357689438"><ele>642.6666666666667</ele><time>2026-03-22T10:40:53.961Z</time></trkpt><trkpt lat="42.91606801139184" lon="11.755537951354599"><ele>640.0</ele><time>2026-03-22T10:40:54.961Z</time></trkpt><trkpt lat="42.91609403824137" lon="11.755267667679421"><ele>638.3333333333334</ele><time>2026-03-22T10:40:55.961Z</time></trkpt><trkpt lat="42.91611319589967" lon="11.754999465842586"><ele>636.6666666666666</ele><time>2026-03-22T10:40:56.961Z</time></trkpt><trkpt lat="42.916127901065686" lon="11.75473956599649"><ele>635.0</ele><time>2026-03-22T10:40:57.961Z</time></trkpt><trkpt lat="42.91614937874996" lon="11.754484507631181"><ele>633.3333333333333</ele><time>2026-03-22T10:40:58.961Z</time></trkpt><trkpt lat="42.9161697106537" lon="11.754237994487038"><ele>631.6666666666666</ele><time>2026-03-22T10:40:59.96Z</time></trkpt><trkpt lat="42.91618954505286" lon="11.754000699018132"><ele>630.0</ele><time>2026-03-22T10:41:00.96Z</time></trkpt><trkpt lat="42.9162067686607" lon="11.753769602010589"><ele>630.0</ele><time>2026-03-22T10:41:01.96Z</time></trkpt><trkpt lat="42.91622669847134" lon="11.753539396856587"><ele>630.0</ele><time>2026-03-22T10:41:02.96Z</time></trkpt><trkpt lat="42.91625247902052" lon="11.75331693924141"><ele>630.0</ele><time>2026-03-22T10:41:03.96Z</time></trkpt><trkpt lat="42.91629390354972" lon="11.753102908788804"><ele>630.3333333333334</ele><time>2026-03-22T10:41:04.96Z</time></trkpt><trkpt lat="42.91635856406502" lon="11.752896026903382"><ele>630.6666666666667</ele><time>2026-03-22T10:41:05.96Z</time></trkpt><trkpt lat="42.91647301671652" lon="11.752723110693182"><ele>631.0</ele><time>2026-03-22T10:41:06.96Z</time></trkpt><trkpt lat="42.916594412594634" lon="11.752567844330377"><ele>631.6666666666667</ele><time>2026-03-22T10:41:07.96Z</time></trkpt><trkpt lat="42.91671171001749" lon="11.752400529928947"><ele>632.3333333333334</ele><time>2026-03-22T10:41:08.96Z</time></trkpt><trkpt lat="42.91683889702762" lon="11.75226629238885"><ele>633.0</ele><time>2026-03-22T10:41:09.96Z</time></trkpt><trkpt lat="42.91695484063101" lon="11.752114441134138"><ele>629.75</ele><time>2026-03-22T10:41:10.96Z</time></trkpt><trkpt lat="42.91705597828804" lon="11.751965714834709"><ele>626.5</ele><time>2026-03-22T10:41:11.96Z</time></trkpt><trkpt lat="42.91712901632493" lon="11.75180869330531"><ele>623.25</ele><time>2026-03-22T10:41:12.96Z</time></trkpt><trkpt lat="42.91717111875138" lon="11.751639448125678"><ele>620.0</ele><time>2026-03-22T10:41:13.96Z</time></trkpt><trkpt lat="42.917184609097134" lon="11.75144541949059"><ele>620.0</ele><time>2026-03-22T10:41:14.96Z</time></trkpt><trkpt lat="42.917194616088295" lon="11.751252193879603"><ele>620.0</ele><time>2026-03-22T10:41:15.96Z</time></trkpt><trkpt lat="42.917227052332876" lon="11.7510484025441"><ele>620.0</ele><time>2026-03-22T10:41:16.96Z</time></trkpt><trkpt lat="42.91731990099089" lon="11.750872849567076"><ele>618.3333333333333</ele><time>2026-03-22T10:41:17.96Z</time></trkpt><trkpt lat="42.9174260277155" lon="11.750697671250725"><ele>616.6666666666666</ele><time>2026-03-22T10:41:18.96Z</time></trkpt><trkpt lat="42.91753860792961" lon="11.750519673263453"><ele>615.0</ele><time>2026-03-22T10:41:19.96Z</time></trkpt><trkpt lat="42.917650566044514" lon="11.750327375595841"><ele>612.3333333333334</ele><time>2026-03-22T10:41:20.96Z</time></trkpt><trkpt lat="42.917774595300735" lon="11.750140614268545"><ele>609.6666666666667</ele><time>2026-03-22T10:41:21.96Z</time></trkpt><trkpt lat="42.91789150268253" lon="11.74994385834166"><ele>607.0</ele><time>2026-03-22T10:41:22.96Z</time></trkpt><trkpt lat="42.918010061137814" lon="11.749754588828067"><ele>607.0</ele><time>2026-03-22T10:41:23.96Z</time></trkpt><trkpt lat="42.91813469985187" lon="11.749571001410516"><ele>607.0</ele><time>2026-03-22T10:41:24.96Z</time></trkpt><trkpt lat="42.91825159226342" lon="11.749386129135377"><ele>607.0</ele><time>2026-03-22T10:41:25.96Z</time></trkpt><trkpt lat="42.91836646740598" lon="11.749199305092148"><ele>605.6666666666667</ele><time>2026-03-22T10:41:26.96Z</time></trkpt><trkpt lat="42.91848831838936" lon="11.749015025396249"><ele>604.3333333333334</ele><time>2026-03-22T10:41:27.96Z</time></trkpt><trkpt lat="42.9186332118543" lon="11.748863424476196"><ele>603.0</ele><time>2026-03-22T10:41:28.96Z</time></trkpt><trkpt lat="42.918773225595444" lon="11.748703619490426"><ele>603.0</ele><time>2026-03-22T10:41:29.96Z</time></trkpt><trkpt lat="42.91892537213916" lon="11.748571074528146"><ele>603.0</ele><time>2026-03-22T10:41:30.96Z</time></trkpt><trkpt lat="42.91907587677319" lon="11.748437954636561"><ele>603.0</ele><time>2026-03-22T10:41:31.96Z</time></trkpt><trkpt lat="42.919222909099574" lon="11.74830300596272"><ele>604.0</ele><time>2026-03-22T10:41:32.96Z</time></trkpt><trkpt lat="42.919371467049295" lon="11.74816469235661"><ele>605.0</ele><time>2026-03-22T10:41:33.96Z</time></trkpt><trkpt lat="42.919513100157666" lon="11.748035635521711"><ele>606.0</ele><time>2026-03-22T10:41:34.959Z</time></trkpt><trkpt lat="42.91965286859979" lon="11.747916389428774"><ele>606.0</ele><time>2026-03-22T10:41:35.959Z</time></trkpt><trkpt lat="42.91976647906585" lon="11.747797810010951"><ele>606.0</ele><time>2026-03-22T10:41:36.959Z</time></trkpt><trkpt lat="42.91985738657964" lon="11.747673604633464"><ele>606.0</ele><time>2026-03-22T10:41:37.959Z</time></trkpt><trkpt lat="42.919926769967375" lon="11.747528377871628"><ele>606.0</ele><time>2026-03-22T10:41:38.959Z</time></trkpt><trkpt lat="42.91997252525146" lon="11.747363143285034"><ele>607.5</ele><time>2026-03-22T10:41:39.959Z</time></trkpt><trkpt lat="42.91998518225609" lon="11.74719272166096"><ele>609.0</ele><time>2026-03-22T10:41:40.959Z</time></trkpt><trkpt lat="42.91997300838456" lon="11.747012304302547"><ele>610.5</ele><time>2026-03-22T10:41:41.959Z</time></trkpt><trkpt lat="42.91994159541684" lon="11.746824445724767"><ele>612.0</ele><time>2026-03-22T10:41:42.959Z</time></trkpt><trkpt lat="42.919911249122116" lon="11.746634382241991"><ele>612.3333333333334</ele><time>2026-03-22T10:41:43.959Z</time></trkpt><trkpt lat="42.91988467937815" lon="11.746436127676752"><ele>612.6666666666667</ele><time>2026-03-22T10:41:44.959Z</time></trkpt><trkpt lat="42.91985692550647" lon="11.746232378218119"><ele>613.0</ele><time>2026-03-22T10:41:45.959Z</time></trkpt><trkpt lat="42.91982732439271" lon="11.746023075320252"><ele>612.0</ele><time>2026-03-22T10:41:46.959Z</time></trkpt><trkpt lat="42.9198012538771" lon="11.745813760779606"><ele>611.0</ele><time>2026-03-22T10:41:47.959Z</time></trkpt><trkpt lat="42.91976745133096" lon="11.745605682525605"><ele>610.0</ele><time>2026-03-22T10:41:48.959Z</time></trkpt><trkpt lat="42.91971481300346" lon="11.745402804800586"><ele>610.0</ele><time>2026-03-22T10:41:49.959Z</time></trkpt><trkpt lat="42.91964128740403" lon="11.74521492350078"><ele>610.0</ele><time>2026-03-22T10:41:50.959Z</time></trkpt><trkpt lat="42.919551914906776" lon="11.74504450857763"><ele>610.0</ele><time>2026-03-22T10:41:51.959Z</time></trkpt><trkpt lat="42.9194528577848" lon="11.74489074242099"><ele>609.6666666666667</ele><time>2026-03-22T10:41:52.959Z</time></trkpt><trkpt lat="42.91935094844643" lon="11.744737221855008"><ele>609.3333333333334</ele><time>2026-03-22T10:41:53.959Z</time></trkpt><trkpt lat="42.919255124104026" lon="11.744578164419668"><ele>609.0</ele><time>2026-03-22T10:41:54.959Z</time></trkpt><trkpt lat="42.91917094445813" lon="11.744411629624471"><ele>611.6666666666666</ele><time>2026-03-22T10:41:55.959Z</time></trkpt><trkpt lat="42.919086450431664" lon="11.744237295912372"><ele>614.3333333333333</ele><time>2026-03-22T10:41:56.959Z</time></trkpt><trkpt lat="42.91900962613421" lon="11.744056872163675"><ele>617.0</ele><time>2026-03-22T10:41:57.959Z</time></trkpt><trkpt lat="42.9189338715755" lon="11.7438723859623"><ele>617.0</ele><time>2026-03-22T10:41:58.959Z</time></trkpt><trkpt lat="42.91886540080086" lon="11.743681046338688"><ele>617.0</ele><time>2026-03-22T10:41:59.959Z</time></trkpt><trkpt lat="42.91881104024154" lon="11.74347547211777"><ele>617.0</ele><time>2026-03-22T10:42:00.959Z</time></trkpt><trkpt lat="42.91876691787716" lon="11.743250780137492"><ele>616.6666666666666</ele><time>2026-03-22T10:42:01.959Z</time></trkpt><trkpt lat="42.918738794575745" lon="11.743012381446338"><ele>616.3333333333334</ele><time>2026-03-22T10:42:02.959Z</time></trkpt><trkpt lat="42.9187300784768" lon="11.742778348163577"><ele>616.0</ele><time>2026-03-22T10:42:03.959Z</time></trkpt><trkpt lat="42.9187412988007" lon="11.74254697645234"><ele>617.0</ele><time>2026-03-22T10:42:04.959Z</time></trkpt><trkpt lat="42.91877083558655" lon="11.742314908574594"><ele>618.0</ele><time>2026-03-22T10:42:05.959Z</time></trkpt><trkpt lat="42.91880895802666" lon="11.742076936918227"><ele>619.0</ele><time>2026-03-22T10:42:06.959Z</time></trkpt><trkpt lat="42.91885695114137" lon="11.741839875893437"><ele>622.0</ele><time>2026-03-22T10:42:07.959Z</time></trkpt><trkpt lat="42.91890643684381" lon="11.741602896974873"><ele>625.0</ele><time>2026-03-22T10:42:08.958Z</time></trkpt><trkpt lat="42.91895297383936" lon="11.741345703926855"><ele>628.0</ele><time>2026-03-22T10:42:09.958Z</time></trkpt><trkpt lat="42.918999160847086" lon="11.741089203889004"><ele>628.6666666666667</ele><time>2026-03-22T10:42:10.958Z</time></trkpt><trkpt lat="42.9190472227455" lon="11.740846235138019"><ele>629.3333333333334</ele><time>2026-03-22T10:42:11.958Z</time></trkpt><trkpt lat="42.919091930565564" lon="11.740618293083543"><ele>630.0</ele><time>2026-03-22T10:42:12.958Z</time></trkpt><trkpt lat="42.91913130962898" lon="11.740395230430046"><ele>630.5</ele><time>2026-03-22T10:42:13.958Z</time></trkpt><trkpt lat="42.919162824225324" lon="11.740186981802703"><ele>631.0</ele><time>2026-03-22T10:42:14.958Z</time></trkpt><trkpt lat="42.91917470154081" lon="11.739984390355078"><ele>631.5</ele><time>2026-03-22T10:42:15.958Z</time></trkpt><trkpt lat="42.91916242688891" lon="11.739793593262887"><ele>632.0</ele><time>2026-03-22T10:42:16.958Z</time></trkpt><trkpt lat="42.91912898390785" lon="11.739592512815634"><ele>632.0</ele><time>2026-03-22T10:42:17.958Z</time></trkpt><trkpt lat="42.9190780547279" lon="11.73940763450568"><ele>632.0</ele><time>2026-03-22T10:42:18.958Z</time></trkpt><trkpt lat="42.91900819943937" lon="11.739233559138563"><ele>632.0</ele><time>2026-03-22T10:42:19.958Z</time></trkpt><trkpt lat="42.91894121558517" lon="11.739064729534498"><ele>632.0</ele><time>2026-03-22T10:42:20.958Z</time></trkpt><trkpt lat="42.91889227108546" lon="11.73888261315323"><ele>630.0</ele><time>2026-03-22T10:42:21.958Z</time></trkpt><trkpt lat="42.91886532994258" lon="11.73869225638786"><ele>628.0</ele><time>2026-03-22T10:42:22.958Z</time></trkpt><trkpt lat="42.91886940652459" lon="11.738489284837046"><ele>626.0</ele><time>2026-03-22T10:42:23.958Z</time></trkpt><trkpt lat="42.91890523892488" lon="11.738288459857868"><ele>624.0</ele><time>2026-03-22T10:42:24.958Z</time></trkpt><trkpt lat="42.91895145286361" lon="11.738075219234235"><ele>621.0</ele><time>2026-03-22T10:42:25.958Z</time></trkpt><trkpt lat="42.91898495994366" lon="11.73785427705803"><ele>618.0</ele><time>2026-03-22T10:42:26.958Z</time></trkpt><trkpt lat="42.91900105066428" lon="11.73762576259817"><ele>615.0</ele><time>2026-03-22T10:42:27.958Z</time></trkpt><trkpt lat="42.919002385666644" lon="11.73740050423011"><ele>613.3333333333334</ele><time>2026-03-22T10:42:28.958Z</time></trkpt><trkpt lat="42.91899616084286" lon="11.737170300075212"><ele>611.6666666666667</ele><time>2026-03-22T10:42:29.958Z</time></trkpt><trkpt lat="42.91898974891709" lon="11.736955284921013"><ele>610.0</ele><time>2026-03-22T10:42:30.958Z</time></trkpt><trkpt lat="42.91899292792017" lon="11.736747229970689"><ele>609.0</ele><time>2026-03-22T10:42:31.958Z</time></trkpt><trkpt lat="42.91902462863464" lon="11.736545855658413"><ele>608.0</ele><time>2026-03-22T10:42:32.958Z</time></trkpt><trkpt lat="42.91908115753158" lon="11.736349144717384"><ele>607.0</ele><time>2026-03-22T10:42:33.958Z</time></trkpt><trkpt lat="42.919158067876054" lon="11.736166768400262"><ele>602.6666666666667</ele><time>2026-03-22T10:42:34.958Z</time></trkpt><trkpt lat="42.9192572299542" lon="11.73599540254262"><ele>598.3333333333334</ele><time>2026-03-22T10:42:35.958Z</time></trkpt><trkpt lat="42.919370751660786" lon="11.735827014276673"><ele>594.0</ele><time>2026-03-22T10:42:36.958Z</time></trkpt><trkpt lat="42.919484435587115" lon="11.735667813380902"><ele>594.0</ele><time>2026-03-22T10:42:37.958Z</time></trkpt><trkpt lat="42.91959366433829" lon="11.73551112353346"><ele>594.0</ele><time>2026-03-22T10:42:38.958Z</time></trkpt><trkpt lat="42.91969239195826" lon="11.7353676219939"><ele>594.0</ele><time>2026-03-22T10:42:39.958Z</time></trkpt><trkpt lat="42.91977229381929" lon="11.735206918849904"><ele>594.0</ele><time>2026-03-22T10:42:40.959Z</time></trkpt><trkpt lat="42.91983329994742" lon="11.73503333461527"><ele>595.0</ele><time>2026-03-22T10:42:41.96Z</time></trkpt><trkpt lat="42.919871308956814" lon="11.73484847649189"><ele>596.0</ele><time>2026-03-22T10:42:42.96Z</time></trkpt><trkpt lat="42.919917280862414" lon="11.734661531913396"><ele>597.0</ele><time>2026-03-22T10:42:43.96Z</time></trkpt><trkpt lat="42.91998591531373" lon="11.734531234971907"><ele>598.0</ele><time>2026-03-22T10:42:44.96Z</time></trkpt><trkpt lat="42.92007733321072" lon="11.734451205446822"><ele>595.75</ele><time>2026-03-22T10:42:45.96Z</time></trkpt><trkpt lat="42.92018616203362" lon="11.734404866990277"><ele>593.5</ele><time>2026-03-22T10:42:46.96Z</time></trkpt><trkpt lat="42.92030173471133" lon="11.734345701134778"><ele>591.25</ele><time>2026-03-22T10:42:47.96Z</time></trkpt><trkpt lat="42.92041800029125" lon="11.734282002229698"><ele>589.0</ele><time>2026-03-22T10:42:48.96Z</time></trkpt><trkpt lat="42.92053857020149" lon="11.734213802850018"><ele>589.0</ele><time>2026-03-22T10:42:49.96Z</time></trkpt><trkpt lat="42.92066556057907" lon="11.7341548931402"><ele>589.0</ele><time>2026-03-22T10:42:50.96Z</time></trkpt><trkpt lat="42.92080059376268" lon="11.734103908358204"><ele>589.0</ele><time>2026-03-22T10:42:51.96Z</time></trkpt><trkpt lat="42.92094431888405" lon="11.73405687159141"><ele>589.0</ele><time>2026-03-22T10:42:52.959Z</time></trkpt><trkpt lat="42.921092514050656" lon="11.734019342788818"><ele>589.0</ele><time>2026-03-22T10:42:53.96Z</time></trkpt><trkpt lat="42.921238044460836" lon="11.733993834934479"><ele>589.0</ele><time>2026-03-22T10:42:54.96Z</time></trkpt><trkpt lat="42.921377365482634" lon="11.733954916871268"><ele>589.0</ele><time>2026-03-22T10:42:55.96Z</time></trkpt><trkpt lat="42.921513763733124" lon="11.73389539697126"><ele>589.0</ele><time>2026-03-22T10:42:56.96Z</time></trkpt><trkpt lat="42.921646601472325" lon="11.733809519093338"><ele>588.0</ele><time>2026-03-22T10:42:57.96Z</time></trkpt><trkpt lat="42.921775436657924" lon="11.733690782617003"><ele>587.0</ele><time>2026-03-22T10:42:58.96Z</time></trkpt><trkpt lat="42.92189454869962" lon="11.733539782473324"><ele>586.0</ele><time>2026-03-22T10:42:59.959Z</time></trkpt><trkpt lat="42.92200056966669" lon="11.733373490984418"><ele>586.0</ele><time>2026-03-22T10:43:00.959Z</time></trkpt><trkpt lat="42.922114999758044" lon="11.733206222239566"><ele>586.0</ele><time>2026-03-22T10:43:01.959Z</time></trkpt><trkpt lat="42.92225669557045" lon="11.733056038540015"><ele>586.0</ele><time>2026-03-22T10:43:02.959Z</time></trkpt><trkpt lat="42.922410848599014" lon="11.73293666424863"><ele>585.0</ele><time>2026-03-22T10:43:03.959Z</time></trkpt><trkpt lat="42.922576163391334" lon="11.732856761714121"><ele>584.0</ele><time>2026-03-22T10:43:04.959Z</time></trkpt><trkpt lat="42.92273776309658" lon="11.732752178681864"><ele>583.0</ele><time>2026-03-22T10:43:05.959Z</time></trkpt><trkpt lat="42.922896655488366" lon="11.732648707547401"><ele>580.3333333333334</ele><time>2026-03-22T10:43:06.959Z</time></trkpt><trkpt lat="42.92306058343593" lon="11.73254195730547"><ele>577.6666666666666</ele><time>2026-03-22T10:43:07.959Z</time></trkpt><trkpt lat="42.923222458937005" lon="11.732434817409517"><ele>575.0</ele><time>2026-03-22T10:43:08.959Z</time></trkpt><trkpt lat="42.92337880952595" lon="11.732316819231965"><ele>574.0</ele><time>2026-03-22T10:43:09.959Z</time></trkpt><trkpt lat="42.92354467708802" lon="11.732229575941506"><ele>573.0</ele><time>2026-03-22T10:43:10.959Z</time></trkpt><trkpt lat="42.92371873950499" lon="11.732178119757"><ele>572.0</ele><time>2026-03-22T10:43:11.959Z</time></trkpt><trkpt lat="42.923889253462875" lon="11.732109711823554"><ele>572.0</ele><time>2026-03-22T10:43:12.959Z</time></trkpt><trkpt lat="42.92405340370479" lon="11.732022519083419"><ele>572.0</ele><time>2026-03-22T10:43:13.959Z</time></trkpt><trkpt lat="42.92422357489455" lon="11.731958295941338"><ele>572.0</ele><time>2026-03-22T10:43:14.959Z</time></trkpt><trkpt lat="42.92439596757108" lon="11.731907995789447"><ele>570.0</ele><time>2026-03-22T10:43:15.959Z</time></trkpt><trkpt lat="42.92457106828906" lon="11.73189568508943"><ele>568.0</ele><time>2026-03-22T10:43:16.959Z</time></trkpt><trkpt lat="42.92474044258713" lon="11.73185389025982"><ele>566.0</ele><time>2026-03-22T10:43:17.959Z</time></trkpt><trkpt lat="42.924911248553975" lon="11.731905697724756"><ele>563.6666666666666</ele><time>2026-03-22T10:43:18.959Z</time></trkpt><trkpt lat="42.92507684819542" lon="11.73194829976501"><ele>561.3333333333334</ele><time>2026-03-22T10:43:19.959Z</time></trkpt><trkpt lat="42.925239985545794" lon="11.731963158224731"><ele>559.0</ele><time>2026-03-22T10:43:20.959Z</time></trkpt><trkpt lat="42.92539592230187" lon="11.731924988417047"><ele>556.6666666666667</ele><time>2026-03-22T10:43:21.959Z</time></trkpt><trkpt lat="42.92555556996103" lon="11.73188399350526"><ele>554.3333333333334</ele><time>2026-03-22T10:43:22.959Z</time></trkpt><trkpt lat="42.92571914106893" lon="11.731824861287516"><ele>552.0</ele><time>2026-03-22T10:43:23.959Z</time></trkpt><trkpt lat="42.92588979158962" lon="11.73176208116513"><ele>551.3333333333334</ele><time>2026-03-22T10:43:24.959Z</time></trkpt><trkpt lat="42.92606412618797" lon="11.731693351534826"><ele>550.6666666666667</ele><time>2026-03-22T10:43:25.959Z</time></trkpt><trkpt lat="42.92623640729497" lon="11.731633019850666"><ele>550.0</ele><time>2026-03-22T10:43:26.959Z</time></trkpt><trkpt lat="42.92641453443916" lon="11.731570869519913"><ele>550.0</ele><time>2026-03-22T10:43:27.959Z</time></trkpt><trkpt lat="42.926587403619045" lon="11.731504748124802"><ele>550.0</ele><time>2026-03-22T10:43:28.959Z</time></trkpt><trkpt lat="42.926759495095894" lon="11.731431926412398"><ele>550.0</ele><time>2026-03-22T10:43:29.959Z</time></trkpt><trkpt lat="42.92693147645609" lon="11.731350957272836"><ele>548.3333333333334</ele><time>2026-03-22T10:43:30.959Z</time></trkpt><trkpt lat="42.92710130349482" lon="11.731271145235263"><ele>546.6666666666666</ele><time>2026-03-22T10:43:31.959Z</time></trkpt><trkpt lat="42.92726966367814" lon="11.731195050488463"><ele>545.0</ele><time>2026-03-22T10:43:32.959Z</time></trkpt><trkpt lat="42.92744124834904" lon="11.731130399877399"><ele>544.3333333333333</ele><time>2026-03-22T10:43:33.958Z</time></trkpt><trkpt lat="42.927615461708314" lon="11.731100014072448"><ele>543.6666666666666</ele><time>2026-03-22T10:43:34.958Z</time></trkpt><trkpt lat="42.92778389691805" lon="11.731100085007519"><ele>543.0</ele><time>2026-03-22T10:43:35.958Z</time></trkpt><trkpt lat="42.927953420005096" lon="11.731134017941331"><ele>543.0</ele><time>2026-03-22T10:43:36.958Z</time></trkpt><trkpt lat="42.92811185200424" lon="11.731180442477855"><ele>543.0</ele><time>2026-03-22T10:43:37.958Z</time></trkpt><trkpt lat="42.92824167988903" lon="11.731222790064574"><ele>543.0</ele><time>2026-03-22T10:43:38.958Z</time></trkpt><trkpt lat="42.92836461310415" lon="11.731248418844121"><ele>543.0</ele><time>2026-03-22T10:43:39.958Z</time></trkpt><trkpt lat="42.928466853667" lon="11.731247986954044"><ele>544.1999999999999</ele><time>2026-03-22T10:43:40.958Z</time></trkpt><trkpt lat="42.92856714781483" lon="11.731207761373483"><ele>545.4</ele><time>2026-03-22T10:43:41.958Z</time></trkpt><trkpt lat="42.92864115296803" lon="11.731116365878906"><ele>546.5999999999999</ele><time>2026-03-22T10:43:42.958Z</time></trkpt><trkpt lat="42.92868963008174" lon="11.730994869439021"><ele>547.8</ele><time>2026-03-22T10:43:43.958Z</time></trkpt><trkpt lat="42.92869829746607" lon="11.730864043583631"><ele>549.0</ele><time>2026-03-22T10:43:44.958Z</time></trkpt><trkpt lat="42.928672666433634" lon="11.7307405300161"><ele>546.6</ele><time>2026-03-22T10:43:45.958Z</time></trkpt><trkpt lat="42.92861602184558" lon="11.730623519722782"><ele>544.2</ele><time>2026-03-22T10:43:46.958Z</time></trkpt><trkpt lat="42.928524802959686" lon="11.730537883577384"><ele>541.8000000000001</ele><time>2026-03-22T10:43:47.958Z</time></trkpt><trkpt lat="42.92842287613661" lon="11.730476095651207"><ele>539.4</ele><time>2026-03-22T10:43:48.958Z</time></trkpt><trkpt lat="42.92831159166164" lon="11.730428747123597"><ele>537.0</ele><time>2026-03-22T10:43:49.958Z</time></trkpt><trkpt lat="42.92818998899901" lon="11.730369063086352"><ele>536.0</ele><time>2026-03-22T10:43:50.958Z</time></trkpt><trkpt lat="42.928060447939444" lon="11.73030927430038"><ele>535.0</ele><time>2026-03-22T10:43:51.958Z</time></trkpt><trkpt lat="42.927924583183675" lon="11.730237577087317"><ele>534.0</ele><time>2026-03-22T10:43:52.958Z</time></trkpt><trkpt lat="42.927783842603866" lon="11.73013330970949"><ele>533.0</ele><time>2026-03-22T10:43:53.958Z</time></trkpt><trkpt lat="42.92766223361744" lon="11.730001991030175"><ele>530.0</ele><time>2026-03-22T10:43:54.958Z</time></trkpt><trkpt lat="42.92756551036638" lon="11.7298399475391"><ele>527.0</ele><time>2026-03-22T10:43:55.958Z</time></trkpt><trkpt lat="42.92748161793739" lon="11.729663764033909"><ele>524.0</ele><time>2026-03-22T10:43:56.958Z</time></trkpt><trkpt lat="42.92742125075006" lon="11.72947092936718"><ele>520.6666666666666</ele><time>2026-03-22T10:43:57.958Z</time></trkpt><trkpt lat="42.927381873538536" lon="11.729260312364467"><ele>517.3333333333334</ele><time>2026-03-22T10:43:58.958Z</time></trkpt><trkpt lat="42.92735532238405" lon="11.729030571889293"><ele>514.0</ele><time>2026-03-22T10:43:59.958Z</time></trkpt><trkpt lat="42.927333175676296" lon="11.728782500514635"><ele>511.0</ele><time>2026-03-22T10:44:00.958Z</time></trkpt><trkpt lat="42.92731453915736" lon="11.728532443529454"><ele>508.0</ele><time>2026-03-22T10:44:01.958Z</time></trkpt><trkpt lat="42.927306321354536" lon="11.728288532066367"><ele>505.0</ele><time>2026-03-22T10:44:02.958Z</time></trkpt><trkpt lat="42.92730813524101" lon="11.728039961529346"><ele>505.0</ele><time>2026-03-22T10:44:03.958Z</time></trkpt><trkpt lat="42.927319927610235" lon="11.72780253578982"><ele>505.0</ele><time>2026-03-22T10:44:04.958Z</time></trkpt><trkpt lat="42.92735924792261" lon="11.72757480344968"><ele>505.0</ele><time>2026-03-22T10:44:05.958Z</time></trkpt><trkpt lat="42.92739814884784" lon="11.727356030013073"><ele>504.25</ele><time>2026-03-22T10:44:06.958Z</time></trkpt><trkpt lat="42.92741348618698" lon="11.727150271244565"><ele>503.5</ele><time>2026-03-22T10:44:07.957Z</time></trkpt><trkpt lat="42.92739849052785" lon="11.726958258182247"><ele>502.75</ele><time>2026-03-22T10:44:08.957Z</time></trkpt><trkpt lat="42.9273531437634" lon="11.726785936307575"><ele>502.0</ele><time>2026-03-22T10:44:09.957Z</time></trkpt><trkpt lat="42.9272885165824" lon="11.726637120887709"><ele>500.5</ele><time>2026-03-22T10:44:10.957Z</time></trkpt><trkpt lat="42.927199459942464" lon="11.726510851249671"><ele>499.0</ele><time>2026-03-22T10:44:11.957Z</time></trkpt><trkpt lat="42.92708592258158" lon="11.726414066627667"><ele>497.5</ele><time>2026-03-22T10:44:12.957Z</time></trkpt><trkpt lat="42.926963372033356" lon="11.726341802461233"><ele>496.0</ele><time>2026-03-22T10:44:13.957Z</time></trkpt><trkpt lat="42.926839356570845" lon="11.726271899634417"><ele>496.5</ele><time>2026-03-22T10:44:14.957Z</time></trkpt><trkpt lat="42.92672638425819" lon="11.726185350291232"><ele>497.0</ele><time>2026-03-22T10:44:15.957Z</time></trkpt><trkpt lat="42.92662286436958" lon="11.726081620128928"><ele>497.5</ele><time>2026-03-22T10:44:16.957Z</time></trkpt><trkpt lat="42.92653565618603" lon="11.725953326092736"><ele>498.0</ele><time>2026-03-22T10:44:17.957Z</time></trkpt><trkpt lat="42.926467852542864" lon="11.725805199918437"><ele>496.25</ele><time>2026-03-22T10:44:18.957Z</time></trkpt><trkpt lat="42.92642412053446" lon="11.725645267566815"><ele>494.5</ele><time>2026-03-22T10:44:19.957Z</time></trkpt><trkpt lat="42.92641159553946" lon="11.725472266614748"><ele>492.75</ele><time>2026-03-22T10:44:20.957Z</time></trkpt><trkpt lat="42.9264285712771" lon="11.725295386070597"><ele>491.0</ele><time>2026-03-22T10:44:21.957Z</time></trkpt><trkpt lat="42.92648160109517" lon="11.725117527762727"><ele>490.0</ele><time>2026-03-22T10:44:22.957Z</time></trkpt><trkpt lat="42.92655582743885" lon="11.724950332535837"><ele>489.0</ele><time>2026-03-22T10:44:23.957Z</time></trkpt><trkpt lat="42.92665464645844" lon="11.72478568715227"><ele>488.0</ele><time>2026-03-22T10:44:24.957Z</time></trkpt><trkpt lat="42.926767243504685" lon="11.724627922220272"><ele>485.66666666666663</ele><time>2026-03-22T10:44:25.957Z</time></trkpt><trkpt lat="42.926890360713564" lon="11.724465854633713"><ele>483.33333333333337</ele><time>2026-03-22T10:44:26.957Z</time></trkpt><trkpt lat="42.927011785508746" lon="11.724302714266036"><ele>481.0</ele><time>2026-03-22T10:44:27.957Z</time></trkpt><trkpt lat="42.92713257992906" lon="11.7241255237163"><ele>478.33333333333337</ele><time>2026-03-22T10:44:28.957Z</time></trkpt><trkpt lat="42.92724739739801" lon="11.723940371582271"><ele>475.66666666666663</ele><time>2026-03-22T10:44:29.957Z</time></trkpt><trkpt lat="42.927355594305475" lon="11.723751677974217"><ele>473.0</ele><time>2026-03-22T10:44:30.957Z</time></trkpt><trkpt lat="42.92745892918271" lon="11.723558231096042"><ele>473.0</ele><time>2026-03-22T10:44:31.957Z</time></trkpt><trkpt lat="42.92755962254405" lon="11.72337025092145"><ele>473.0</ele><time>2026-03-22T10:44:32.957Z</time></trkpt><trkpt lat="42.927659281138226" lon="11.723196178453714"><ele>473.0</ele><time>2026-03-22T10:44:33.957Z</time></trkpt><trkpt lat="42.927769831423646" lon="11.72305205825551"><ele>470.0</ele><time>2026-03-22T10:44:34.957Z</time></trkpt><trkpt lat="42.92790025685916" lon="11.722950277427103"><ele>467.0</ele><time>2026-03-22T10:44:35.957Z</time></trkpt><trkpt lat="42.92804098584738" lon="11.722881487951392"><ele>464.0</ele><time>2026-03-22T10:44:36.957Z</time></trkpt><trkpt lat="42.92819081599032" lon="11.722876892634458"><ele>464.0</ele><time>2026-03-22T10:44:37.957Z</time></trkpt><trkpt lat="42.92833985904759" lon="11.72284651561977"><ele>464.0</ele><time>2026-03-22T10:44:38.957Z</time></trkpt><trkpt lat="42.92848551281461" lon="11.722848184350072"><ele>464.0</ele><time>2026-03-22T10:44:39.957Z</time></trkpt><trkpt lat="42.92862595084378" lon="11.722839273891752"><ele>464.0</ele><time>2026-03-22T10:44:40.957Z</time></trkpt><trkpt lat="42.92874150857523" lon="11.722823023699739"><ele>464.0</ele><time>2026-03-22T10:44:41.956Z</time></trkpt><trkpt lat="42.92883464465979" lon="11.722774834474682"><ele>464.0</ele><time>2026-03-22T10:44:42.956Z</time></trkpt><trkpt lat="42.928903021788685" lon="11.722683784005094"><ele>464.0</ele><time>2026-03-22T10:44:43.956Z</time></trkpt><trkpt lat="42.92894638266094" lon="11.722562031942774"><ele>464.0</ele><time>2026-03-22T10:44:44.954Z</time></trkpt><trkpt lat="42.928968460162544" lon="11.722404851419846"><ele>464.0</ele><time>2026-03-22T10:44:45.953Z</time></trkpt><trkpt lat="42.92898273688814" lon="11.722232882456261"><ele>464.0</ele><time>2026-03-22T10:44:46.954Z</time></trkpt><trkpt lat="42.929004855963214" lon="11.722049413048277"><ele>464.0</ele><time>2026-03-22T10:44:47.953Z</time></trkpt><trkpt lat="42.929034778837945" lon="11.7218549687095"><ele>464.0</ele><time>2026-03-22T10:44:48.951Z</time></trkpt><trkpt lat="42.92906035874039" lon="11.721648866767584"><ele>464.0</ele><time>2026-03-22T10:44:49.95Z</time></trkpt><trkpt lat="42.929087509194375" lon="11.72144035434625"><ele>463.0</ele><time>2026-03-22T10:44:50.949Z</time></trkpt><trkpt lat="42.92911527690424" lon="11.721246319528088"><ele>462.0</ele><time>2026-03-22T10:44:51.948Z</time></trkpt><trkpt lat="42.929144729318494" lon="11.721056414496424"><ele>461.0</ele><time>2026-03-22T10:44:52.947Z</time></trkpt><trkpt lat="42.929174726316646" lon="11.720863247702942"><ele>460.0</ele><time>2026-03-22T10:44:53.947Z</time></trkpt><trkpt lat="42.9292005153202" lon="11.720674585822863"><ele>459.75</ele><time>2026-03-22T10:44:54.946Z</time></trkpt><trkpt lat="42.929228404089166" lon="11.720496319798217"><ele>459.5</ele><time>2026-03-22T10:44:55.945Z</time></trkpt><trkpt lat="42.92925842149161" lon="11.7203291704732"><ele>459.25</ele><time>2026-03-22T10:44:56.944Z</time></trkpt><trkpt lat="42.929300503212836" lon="11.720171603601829"><ele>459.0</ele><time>2026-03-22T10:44:57.943Z</time></trkpt><trkpt lat="42.92935353120824" lon="11.72002262131852"><ele>459.0</ele><time>2026-03-22T10:44:58.943Z</time></trkpt><trkpt lat="42.92942167520194" lon="11.719883787578118"><ele>459.0</ele><time>2026-03-22T10:44:59.942Z</time></trkpt><trkpt lat="42.92950040400274" lon="11.719760552034383"><ele>459.0</ele><time>2026-03-22T10:45:00.942Z</time></trkpt><trkpt lat="42.92958368113292" lon="11.719639212424482"><ele>459.0</ele><time>2026-03-22T10:45:01.941Z</time></trkpt><trkpt lat="42.92968662937547" lon="11.719548778080107"><ele>459.0</ele><time>2026-03-22T10:45:02.941Z</time></trkpt><trkpt lat="42.92978367378826" lon="11.719438096579674"><ele>459.0</ele><time>2026-03-22T10:45:03.94Z</time></trkpt><trkpt lat="42.929884212669336" lon="11.719330540824387"><ele>459.0</ele><time>2026-03-22T10:45:04.94Z</time></trkpt><trkpt lat="42.92998837130184" lon="11.71922292618147"><ele>459.0</ele><time>2026-03-22T10:45:05.939Z</time></trkpt><trkpt lat="42.93011044841118" lon="11.71910208864491"><ele>455.66666666666663</ele><time>2026-03-22T10:45:06.939Z</time></trkpt><trkpt lat="42.930262971426764" lon="11.719004288057983"><ele>452.3333333333333</ele><time>2026-03-22T10:45:07.938Z</time></trkpt><trkpt lat="42.93042479333901" lon="11.718881367583583"><ele>449.0</ele><time>2026-03-22T10:45:08.938Z</time></trkpt><trkpt lat="42.930597838064536" lon="11.718789721826836"><ele>449.0</ele><time>2026-03-22T10:45:09.938Z</time></trkpt><trkpt lat="42.930768466780485" lon="11.718707223980886"><ele>449.0</ele><time>2026-03-22T10:45:10.937Z</time></trkpt><trkpt lat="42.93093685689177" lon="11.718640613104686"><ele>449.0</ele><time>2026-03-22T10:45:11.937Z</time></trkpt><trkpt lat="42.931088652629946" lon="11.718556428894756"><ele>449.3333333333333</ele><time>2026-03-22T10:45:12.937Z</time></trkpt><trkpt lat="42.931225127105826" lon="11.718440830792042"><ele>449.66666666666663</ele><time>2026-03-22T10:45:13.937Z</time></trkpt><trkpt lat="42.931349728840125" lon="11.71827548489188"><ele>450.0</ele><time>2026-03-22T10:45:14.936Z</time></trkpt><trkpt lat="42.9314588834397" lon="11.718101634661188"><ele>450.0</ele><time>2026-03-22T10:45:15.936Z</time></trkpt><trkpt lat="42.93156810498838" lon="11.71791793401537"><ele>450.0</ele><time>2026-03-22T10:45:16.936Z</time></trkpt><trkpt lat="42.93168497674901" lon="11.717725083270494"><ele>450.0</ele><time>2026-03-22T10:45:17.936Z</time></trkpt><trkpt lat="42.931802402557175" lon="11.717529112680278"><ele>450.66666666666663</ele><time>2026-03-22T10:45:18.935Z</time></trkpt><trkpt lat="42.93193488584187" lon="11.717328954479198"><ele>451.3333333333333</ele><time>2026-03-22T10:45:19.935Z</time></trkpt><trkpt lat="42.93207540471774" lon="11.717135111523492"><ele>452.0</ele><time>2026-03-22T10:45:20.935Z</time></trkpt><trkpt lat="42.93222856914485" lon="11.716952171680001"><ele>451.66666666666663</ele><time>2026-03-22T10:45:21.935Z</time></trkpt><trkpt lat="42.9323875538643" lon="11.716778241788917"><ele>451.33333333333337</ele><time>2026-03-22T10:45:22.935Z</time></trkpt><trkpt lat="42.93254866285675" lon="11.716602067457789"><ele>451.0</ele><time>2026-03-22T10:45:23.934Z</time></trkpt><trkpt lat="42.932709009386706" lon="11.716426213790003"><ele>451.0</ele><time>2026-03-22T10:45:24.934Z</time></trkpt><trkpt lat="42.93287004856767" lon="11.716250479542069"><ele>451.0</ele><time>2026-03-22T10:45:25.934Z</time></trkpt><trkpt lat="42.933029214036644" lon="11.716077564972062"><ele>451.0</ele><time>2026-03-22T10:45:26.934Z</time></trkpt><trkpt lat="42.933188478255644" lon="11.715907982711444"><ele>451.33333333333337</ele><time>2026-03-22T10:45:27.934Z</time></trkpt><trkpt lat="42.93335156915991" lon="11.715747104874701"><ele>451.66666666666663</ele><time>2026-03-22T10:45:28.934Z</time></trkpt><trkpt lat="42.933510372539864" lon="11.715573650656985"><ele>452.0</ele><time>2026-03-22T10:45:29.934Z</time></trkpt><trkpt lat="42.93366787618209" lon="11.71540001647718"><ele>450.3333333333333</ele><time>2026-03-22T10:45:30.934Z</time></trkpt><trkpt lat="42.93381869245626" lon="11.715231810950797"><ele>448.66666666666663</ele><time>2026-03-22T10:45:31.933Z</time></trkpt><trkpt lat="42.933966292449185" lon="11.715064361691507"><ele>447.0</ele><time>2026-03-22T10:45:32.933Z</time></trkpt><trkpt lat="42.93411641617386" lon="11.714910214271871"><ele>448.33333333333337</ele><time>2026-03-22T10:45:33.933Z</time></trkpt><trkpt lat="42.934270374518746" lon="11.714770715656917"><ele>449.6666666666667</ele><time>2026-03-22T10:45:34.933Z</time></trkpt><trkpt lat="42.93444121544941" lon="11.714651704244732"><ele>451.0</ele><time>2026-03-22T10:45:35.933Z</time></trkpt><trkpt lat="42.9346241429833" lon="11.714569961192177"><ele>451.0</ele><time>2026-03-22T10:45:36.933Z</time></trkpt><trkpt lat="42.93481379067446" lon="11.714480119169448"><ele>451.0</ele><time>2026-03-22T10:45:37.933Z</time></trkpt><trkpt lat="42.93500970082515" lon="11.714385472845782"><ele>451.0</ele><time>2026-03-22T10:45:38.933Z</time></trkpt><trkpt lat="42.93520641376928" lon="11.714289379207294"><ele>447.6666666666667</ele><time>2026-03-22T10:45:39.933Z</time></trkpt><trkpt lat="42.935406363890934" lon="11.71419248206123"><ele>444.33333333333337</ele><time>2026-03-22T10:45:40.933Z</time></trkpt><trkpt lat="42.93559972996292" lon="11.714100072655697"><ele>441.0</ele><time>2026-03-22T10:45:41.933Z</time></trkpt><trkpt lat="42.93578460915698" lon="11.71401242333269"><ele>439.33333333333337</ele><time>2026-03-22T10:45:42.932Z</time></trkpt><trkpt lat="42.93596336591837" lon="11.713936146443547"><ele>437.6666666666667</ele><time>2026-03-22T10:45:43.932Z</time></trkpt><trkpt lat="42.93615363353049" lon="11.713892752166604"><ele>436.0</ele><time>2026-03-22T10:45:44.932Z</time></trkpt><trkpt lat="42.936352323301236" lon="11.713883331748917"><ele>436.0</ele><time>2026-03-22T10:45:45.932Z</time></trkpt><trkpt lat="42.93654912813542" lon="11.71387599218616"><ele>436.0</ele><time>2026-03-22T10:45:46.932Z</time></trkpt><trkpt lat="42.93674128002234" lon="11.713869127334048"><ele>436.0</ele><time>2026-03-22T10:45:47.932Z</time></trkpt><trkpt lat="42.93692467206665" lon="11.713862575439205"><ele>434.33333333333337</ele><time>2026-03-22T10:45:48.932Z</time></trkpt><trkpt lat="42.937091653632365" lon="11.713855659696062"><ele>432.66666666666663</ele><time>2026-03-22T10:45:49.932Z</time></trkpt><trkpt lat="42.93724785514528" lon="11.713847550495112"><ele>431.0</ele><time>2026-03-22T10:45:50.932Z</time></trkpt><trkpt lat="42.937392335446305" lon="11.713814724122596"><ele>431.0</ele><time>2026-03-22T10:45:51.932Z</time></trkpt><trkpt lat="42.9375181462416" lon="11.713745443363477"><ele>431.0</ele><time>2026-03-22T10:45:52.932Z</time></trkpt><trkpt lat="42.937628252775674" lon="11.71363405471193"><ele>431.0</ele><time>2026-03-22T10:45:53.932Z</time></trkpt><trkpt lat="42.93770817818158" lon="11.713473327557274"><ele>431.0</ele><time>2026-03-22T10:45:54.932Z</time></trkpt><trkpt lat="42.93778331728156" lon="11.713322549602601"><ele>428.25</ele><time>2026-03-22T10:45:55.932Z</time></trkpt><trkpt lat="42.937850448021784" lon="11.713163226907614"><ele>425.5</ele><time>2026-03-22T10:45:56.932Z</time></trkpt><trkpt lat="42.937914347262264" lon="11.713009554689748"><ele>422.75</ele><time>2026-03-22T10:45:57.932Z</time></trkpt><trkpt lat="42.93797623241836" lon="11.712861302262871"><ele>420.0</ele><time>2026-03-22T10:45:58.932Z</time></trkpt><trkpt lat="42.938034670991044" lon="11.71271163430826"><ele>420.0</ele><time>2026-03-22T10:45:59.932Z</time></trkpt><trkpt lat="42.938093844715226" lon="11.712570258439047"><ele>420.0</ele><time>2026-03-22T10:46:00.931Z</time></trkpt><trkpt lat="42.938150923815165" lon="11.712456145333546"><ele>420.0</ele><time>2026-03-22T10:46:01.931Z</time></trkpt><trkpt lat="42.938206221337744" lon="11.712369273744152"><ele>420.0</ele><time>2026-03-22T10:46:02.931Z</time></trkpt><trkpt lat="42.938256149274594" lon="11.71230892264947"><ele>420.0</ele><time>2026-03-22T10:46:03.931Z</time></trkpt><trkpt lat="42.938372807242665" lon="11.712216526389467"><ele>419.2</ele><time>2026-03-22T10:46:05.931Z</time></trkpt><trkpt lat="42.93845047703195" lon="11.712166676631885"><ele>418.4</ele><time>2026-03-22T10:46:06.931Z</time></trkpt><trkpt lat="42.938544894811756" lon="11.71210976142362"><ele>417.6</ele><time>2026-03-22T10:46:07.931Z</time></trkpt><trkpt lat="42.93865412207271" lon="11.712056852038103"><ele>416.8</ele><time>2026-03-22T10:46:08.931Z</time></trkpt><trkpt lat="42.93877958935735" lon="11.711998632533719"><ele>416.0</ele><time>2026-03-22T10:46:09.931Z</time></trkpt><trkpt lat="42.93892879320188" lon="11.711966010339172"><ele>416.0</ele><time>2026-03-22T10:46:10.931Z</time></trkpt><trkpt lat="42.93907337348606" lon="11.711898727212747"><ele>416.0</ele><time>2026-03-22T10:46:11.931Z</time></trkpt><trkpt lat="42.93922832963634" lon="11.711824235931118"><ele>416.0</ele><time>2026-03-22T10:46:12.931Z</time></trkpt><trkpt lat="42.939390555017596" lon="11.711745627750586"><ele>416.0</ele><time>2026-03-22T10:46:13.931Z</time></trkpt><trkpt lat="42.93955447317088" lon="11.711665182926133"><ele>416.0</ele><time>2026-03-22T10:46:14.931Z</time></trkpt><trkpt lat="42.93972372954483" lon="11.711579917167459"><ele>416.0</ele><time>2026-03-22T10:46:15.931Z</time></trkpt><trkpt lat="42.93989853620252" lon="11.711492141366213"><ele>414.0</ele><time>2026-03-22T10:46:16.931Z</time></trkpt><trkpt lat="42.94008014220705" lon="11.711403045267764"><ele>412.0</ele><time>2026-03-22T10:46:17.931Z</time></trkpt><trkpt lat="42.94025398812424" lon="11.711321345345784"><ele>410.0</ele><time>2026-03-22T10:46:18.931Z</time></trkpt><trkpt lat="42.94042976830968" lon="11.711243949058954"><ele>410.0</ele><time>2026-03-22T10:46:19.931Z</time></trkpt><trkpt lat="42.94060893878084" lon="11.711173111666143"><ele>410.0</ele><time>2026-03-22T10:46:20.931Z</time></trkpt><trkpt lat="42.940792100563534" lon="11.711104083680247"><ele>410.0</ele><time>2026-03-22T10:46:21.931Z</time></trkpt><trkpt lat="42.940973886485466" lon="11.711034154034419"><ele>410.3333333333333</ele><time>2026-03-22T10:46:22.931Z</time></trkpt><trkpt lat="42.941157213694765" lon="11.710970098514698"><ele>410.66666666666663</ele><time>2026-03-22T10:46:23.931Z</time></trkpt><trkpt lat="42.941346641572764" lon="11.710914565061538"><ele>411.0</ele><time>2026-03-22T10:46:24.93Z</time></trkpt><trkpt lat="42.941541011824185" lon="11.71086794444126"><ele>409.0</ele><time>2026-03-22T10:46:25.93Z</time></trkpt><trkpt lat="42.9417434933261" lon="11.710826184274797"><ele>407.0</ele><time>2026-03-22T10:46:26.93Z</time></trkpt><trkpt lat="42.94196014014236" lon="11.710787830359795"><ele>405.0</ele><time>2026-03-22T10:46:27.93Z</time></trkpt><trkpt lat="42.942197340317065" lon="11.71076681989093"><ele>405.0</ele><time>2026-03-22T10:46:28.93Z</time></trkpt><trkpt lat="42.942443725932314" lon="11.71073178664609"><ele>405.0</ele><time>2026-03-22T10:46:29.93Z</time></trkpt><trkpt lat="42.942682102993246" lon="11.710683050005727"><ele>405.0</ele><time>2026-03-22T10:46:30.93Z</time></trkpt><trkpt lat="42.94292400696814" lon="11.710637893462575"><ele>405.0</ele><time>2026-03-22T10:46:31.93Z</time></trkpt><trkpt lat="42.94316314331877" lon="11.710598021869535"><ele>404.0</ele><time>2026-03-22T10:46:32.93Z</time></trkpt><trkpt lat="42.94340959744251" lon="11.710553671710715"><ele>403.0</ele><time>2026-03-22T10:46:33.93Z</time></trkpt><trkpt lat="42.94365514713658" lon="11.71051174997389"><ele>403.0</ele><time>2026-03-22T10:46:34.93Z</time></trkpt><trkpt lat="42.94388947218934" lon="11.710465886081959"><ele>403.0</ele><time>2026-03-22T10:46:35.93Z</time></trkpt><trkpt lat="42.944127536643435" lon="11.710417248414826"><ele>401.5</ele><time>2026-03-22T10:46:36.93Z</time></trkpt><trkpt lat="42.944364397561706" lon="11.710370355784463"><ele>400.0</ele><time>2026-03-22T10:46:37.93Z</time></trkpt><trkpt lat="42.94460005450734" lon="11.710317331366578"><ele>400.0</ele><time>2026-03-22T10:46:38.93Z</time></trkpt><trkpt lat="42.944837071846585" lon="11.710250023935464"><ele>400.0</ele><time>2026-03-22T10:46:39.93Z</time></trkpt><trkpt lat="42.94506948808477" lon="11.710174446711687"><ele>400.0</ele><time>2026-03-22T10:46:40.93Z</time></trkpt><trkpt lat="42.94530034406601" lon="11.710087671245562"><ele>400.0</ele><time>2026-03-22T10:46:41.93Z</time></trkpt><trkpt lat="42.94552836098565" lon="11.709988426538219"><ele>400.0</ele><time>2026-03-22T10:46:42.93Z</time></trkpt><trkpt lat="42.94575314478386" lon="11.709877689264493"><ele>400.0</ele><time>2026-03-22T10:46:43.93Z</time></trkpt><trkpt lat="42.945976149762444" lon="11.70976010658977"><ele>399.0</ele><time>2026-03-22T10:46:44.93Z</time></trkpt><trkpt lat="42.94620125961178" lon="11.709644334077527"><ele>398.0</ele><time>2026-03-22T10:46:45.93Z</time></trkpt><trkpt lat="42.946427902226084" lon="11.709526429780773"><ele>398.0</ele><time>2026-03-22T10:46:46.93Z</time></trkpt><trkpt lat="42.9466561747835" lon="11.709410224397422"><ele>398.0</ele><time>2026-03-22T10:46:47.93Z</time></trkpt><trkpt lat="42.94688003677183" lon="11.709296149301935"><ele>398.0</ele><time>2026-03-22T10:46:48.93Z</time></trkpt><trkpt lat="42.94710401438413" lon="11.709181995808994"><ele>398.0</ele><time>2026-03-22T10:46:49.93Z</time></trkpt><trkpt lat="42.94732724073448" lon="11.709072601993755"><ele>396.5</ele><time>2026-03-22T10:46:50.929Z</time></trkpt><trkpt lat="42.94755045481904" lon="11.708960055121528"><ele>395.0</ele><time>2026-03-22T10:46:51.929Z</time></trkpt><trkpt lat="42.9477641477912" lon="11.70884630051585"><ele>395.0</ele><time>2026-03-22T10:46:52.931Z</time></trkpt><trkpt lat="42.947976437791276" lon="11.708734407409466"><ele>395.0</ele><time>2026-03-22T10:46:53.932Z</time></trkpt><trkpt lat="42.94818119472542" lon="11.70863097774009"><ele>395.0</ele><time>2026-03-22T10:46:54.932Z</time></trkpt><trkpt lat="42.94839005092687" lon="11.708531325465033"><ele>395.66666666666663</ele><time>2026-03-22T10:46:55.932Z</time></trkpt><trkpt lat="42.948588784464874" lon="11.708441397783234"><ele>396.33333333333337</ele><time>2026-03-22T10:46:56.932Z</time></trkpt><trkpt lat="42.94879594227425" lon="11.708352241238066"><ele>397.0</ele><time>2026-03-22T10:46:57.932Z</time></trkpt><trkpt lat="42.948998576238786" lon="11.708264828317485"><ele>397.0</ele><time>2026-03-22T10:46:58.932Z</time></trkpt><trkpt lat="42.94920155527918" lon="11.708184876791005"><ele>397.0</ele><time>2026-03-22T10:46:59.932Z</time></trkpt><trkpt lat="42.94940765129155" lon="11.70810516150437"><ele>397.0</ele><time>2026-03-22T10:47:00.932Z</time></trkpt><trkpt lat="42.94961596808486" lon="11.70803794212777"><ele>396.33333333333337</ele><time>2026-03-22T10:47:01.931Z</time></trkpt><trkpt lat="42.949816972333636" lon="11.707985409171433"><ele>395.66666666666663</ele><time>2026-03-22T10:47:02.932Z</time></trkpt><trkpt lat="42.95003346860578" lon="11.70793649044935"><ele>395.0</ele><time>2026-03-22T10:47:03.932Z</time></trkpt><trkpt lat="42.950252943357185" lon="11.707899741686028"><ele>394.0</ele><time>2026-03-22T10:47:04.932Z</time></trkpt><trkpt lat="42.950463444803624" lon="11.707864312123046"><ele>393.0</ele><time>2026-03-22T10:47:05.931Z</time></trkpt><trkpt lat="42.950673115895" lon="11.70782924129621"><ele>392.0</ele><time>2026-03-22T10:47:06.931Z</time></trkpt><trkpt lat="42.95088380669401" lon="11.707789116590575"><ele>391.5</ele><time>2026-03-22T10:47:07.931Z</time></trkpt><trkpt lat="42.95110382769304" lon="11.707751918550308"><ele>391.0</ele><time>2026-03-22T10:47:08.931Z</time></trkpt><trkpt lat="42.95133583625829" lon="11.707726692295246"><ele>392.5</ele><time>2026-03-22T10:47:09.931Z</time></trkpt><trkpt lat="42.9515874060907" lon="11.707702674555156"><ele>394.0</ele><time>2026-03-22T10:47:10.931Z</time></trkpt><trkpt lat="42.95184319281262" lon="11.707679399824746"><ele>394.0</ele><time>2026-03-22T10:47:11.931Z</time></trkpt><trkpt lat="42.952092458753874" lon="11.707686293143604"><ele>394.0</ele><time>2026-03-22T10:47:12.931Z</time></trkpt><trkpt lat="42.95233209733094" lon="11.707687082361408"><ele>391.0</ele><time>2026-03-22T10:47:13.931Z</time></trkpt><trkpt lat="42.95256466320736" lon="11.707669504834213"><ele>388.0</ele><time>2026-03-22T10:47:14.931Z</time></trkpt><trkpt lat="42.952805147079324" lon="11.70765611225893"><ele>388.0</ele><time>2026-03-22T10:47:15.931Z</time></trkpt><trkpt lat="42.95304852825709" lon="11.707623616346883"><ele>388.0</ele><time>2026-03-22T10:47:16.931Z</time></trkpt><trkpt lat="42.95326511526499" lon="11.70759702281413"><ele>387.0</ele><time>2026-03-22T10:47:17.931Z</time></trkpt><trkpt lat="42.95348685257186" lon="11.70755904018305"><ele>386.0</ele><time>2026-03-22T10:47:18.931Z</time></trkpt><trkpt lat="42.95367379862342" lon="11.707454914683636"><ele>385.0</ele><time>2026-03-22T10:47:19.931Z</time></trkpt><trkpt lat="42.95383301597773" lon="11.707352563092213"><ele>385.0</ele><time>2026-03-22T10:47:20.931Z</time></trkpt><trkpt lat="42.954026434877605" lon="11.707279304740728"><ele>385.0</ele><time>2026-03-22T10:47:21.931Z</time></trkpt><trkpt lat="42.954239454593505" lon="11.707221757045373"><ele>385.0</ele><time>2026-03-22T10:47:22.931Z</time></trkpt><trkpt lat="42.954458395891756" lon="11.707174716107769"><ele>384.0</ele><time>2026-03-22T10:47:23.931Z</time></trkpt><trkpt lat="42.954684880511564" lon="11.707132846848666"><ele>383.0</ele><time>2026-03-22T10:47:24.931Z</time></trkpt><trkpt lat="42.95491247177122" lon="11.707091939540929"><ele>382.0</ele><time>2026-03-22T10:47:25.931Z</time></trkpt><trkpt lat="42.955145587819736" lon="11.707043555984393"><ele>381.0</ele><time>2026-03-22T10:47:26.931Z</time></trkpt><trkpt lat="42.95537921010488" lon="11.70700276995064"><ele>381.0</ele><time>2026-03-22T10:47:27.931Z</time></trkpt><trkpt lat="42.95561550506997" lon="11.706957361259345"><ele>381.0</ele><time>2026-03-22T10:47:28.93Z</time></trkpt><trkpt lat="42.955852047748195" lon="11.706909565425434"><ele>384.0</ele><time>2026-03-22T10:47:29.93Z</time></trkpt><trkpt lat="42.95609011466627" lon="11.70686018718002"><ele>387.0</ele><time>2026-03-22T10:47:30.93Z</time></trkpt><trkpt lat="42.95633199460069" lon="11.70681157501047"><ele>387.0</ele><time>2026-03-22T10:47:31.93Z</time></trkpt><trkpt lat="42.95657654108641" lon="11.706769364179578"><ele>387.0</ele><time>2026-03-22T10:47:32.93Z</time></trkpt><trkpt lat="42.95682197843036" lon="11.706724678946367"><ele>385.5</ele><time>2026-03-22T10:47:33.93Z</time></trkpt><trkpt lat="42.95706262984363" lon="11.706680159190482"><ele>384.0</ele><time>2026-03-22T10:47:34.93Z</time></trkpt><trkpt lat="42.95731225359823" lon="11.706642037686805"><ele>382.5</ele><time>2026-03-22T10:47:35.93Z</time></trkpt><trkpt lat="42.9575609358497" lon="11.706599857729222"><ele>381.0</ele><time>2026-03-22T10:47:36.93Z</time></trkpt><trkpt lat="42.95781045280233" lon="11.706546673016403"><ele>381.0</ele><time>2026-03-22T10:47:37.93Z</time></trkpt><trkpt lat="42.95805258630948" lon="11.706503420376002"><ele>381.0</ele><time>2026-03-22T10:47:38.93Z</time></trkpt><trkpt lat="42.95830004439499" lon="11.706461648919692"><ele>379.0</ele><time>2026-03-22T10:47:39.93Z</time></trkpt><trkpt lat="42.9585488340983" lon="11.706416114481906"><ele>377.0</ele><time>2026-03-22T10:47:40.93Z</time></trkpt><trkpt lat="42.9587985609175" lon="11.70636580316924"><ele>377.0</ele><time>2026-03-22T10:47:41.93Z</time></trkpt><trkpt lat="42.95904782851424" lon="11.706320891922426"><ele>377.0</ele><time>2026-03-22T10:47:42.93Z</time></trkpt><trkpt lat="42.95929368277934" lon="11.706280730694234"><ele>376.5</ele><time>2026-03-22T10:47:43.93Z</time></trkpt><trkpt lat="42.959539473980385" lon="11.706240396404834"><ele>376.0</ele><time>2026-03-22T10:47:44.93Z</time></trkpt><trkpt lat="42.95978682475901" lon="11.706204700861019"><ele>376.0</ele><time>2026-03-22T10:47:45.93Z</time></trkpt><trkpt lat="42.96003336120783" lon="11.706171444419995"><ele>376.0</ele><time>2026-03-22T10:47:46.93Z</time></trkpt><trkpt lat="42.96028468288329" lon="11.706138236204918"><ele>374.5</ele><time>2026-03-22T10:47:47.93Z</time></trkpt><trkpt lat="42.96053415800119" lon="11.706104780967609"><ele>373.0</ele><time>2026-03-22T10:47:48.93Z</time></trkpt><trkpt lat="42.96078062523741" lon="11.706077151363933"><ele>376.5</ele><time>2026-03-22T10:47:49.93Z</time></trkpt><trkpt lat="42.96102991365716" lon="11.706049714268708"><ele>380.0</ele><time>2026-03-22T10:47:50.93Z</time></trkpt><trkpt lat="42.961280850552335" lon="11.706025385581144"><ele>380.0</ele><time>2026-03-22T10:47:51.93Z</time></trkpt><trkpt lat="42.96153337022623" lon="11.70600536075351"><ele>380.0</ele><time>2026-03-22T10:47:52.93Z</time></trkpt><trkpt lat="42.961784698329524" lon="11.705989964639885"><ele>378.0</ele><time>2026-03-22T10:47:53.93Z</time></trkpt><trkpt lat="42.96203989028799" lon="11.705977516082278"><ele>376.0</ele><time>2026-03-22T10:47:54.93Z</time></trkpt><trkpt lat="42.96229560969462" lon="11.705964624209507"><ele>375.0</ele><time>2026-03-22T10:47:55.93Z</time></trkpt><trkpt lat="42.96255717620199" lon="11.705952348240391"><ele>374.0</ele><time>2026-03-22T10:47:56.929Z</time></trkpt><trkpt lat="42.96281921850259" lon="11.70594019254528"><ele>374.0</ele><time>2026-03-22T10:47:57.929Z</time></trkpt><trkpt lat="42.96308275272636" lon="11.705929795335518"><ele>374.0</ele><time>2026-03-22T10:47:58.929Z</time></trkpt><trkpt lat="42.96334320185125" lon="11.705925453438487"><ele>372.5</ele><time>2026-03-22T10:47:59.929Z</time></trkpt><trkpt lat="42.96360361225417" lon="11.705917132151374"><ele>371.0</ele><time>2026-03-22T10:48:00.929Z</time></trkpt><trkpt lat="42.9638590663449" lon="11.705907537838552"><ele>371.0</ele><time>2026-03-22T10:48:01.929Z</time></trkpt><trkpt lat="42.96411675149251" lon="11.705897548897138"><ele>371.0</ele><time>2026-03-22T10:48:02.929Z</time></trkpt><trkpt lat="42.96437323045419" lon="11.70588649281767"><ele>371.5</ele><time>2026-03-22T10:48:03.929Z</time></trkpt><trkpt lat="42.96462922139305" lon="11.705877653787644"><ele>372.0</ele><time>2026-03-22T10:48:04.929Z</time></trkpt><trkpt lat="42.9648809142404" lon="11.70587313185533"><ele>372.5</ele><time>2026-03-22T10:48:05.929Z</time></trkpt><trkpt lat="42.9651309132242" lon="11.705867682362124"><ele>373.0</ele><time>2026-03-22T10:48:06.929Z</time></trkpt><trkpt lat="42.96538164247631" lon="11.705859781108195"><ele>373.0</ele><time>2026-03-22T10:48:07.929Z</time></trkpt><trkpt lat="42.96563306025867" lon="11.705846851167964"><ele>373.0</ele><time>2026-03-22T10:48:08.929Z</time></trkpt><trkpt lat="42.96588214494622" lon="11.705833268635224"><ele>371.0</ele><time>2026-03-22T10:48:09.929Z</time></trkpt><trkpt lat="42.96612884597365" lon="11.705822544707667"><ele>369.0</ele><time>2026-03-22T10:48:10.929Z</time></trkpt><trkpt lat="42.96637891377482" lon="11.705816168296037"><ele>369.0</ele><time>2026-03-22T10:48:11.929Z</time></trkpt><trkpt lat="42.96662470005351" lon="11.705808955005716"><ele>369.0</ele><time>2026-03-22T10:48:12.929Z</time></trkpt><trkpt lat="42.96687132963991" lon="11.7057989695693"><ele>369.0</ele><time>2026-03-22T10:48:13.929Z</time></trkpt><trkpt lat="42.96711624027052" lon="11.705788367665651"><ele>369.0</ele><time>2026-03-22T10:48:14.929Z</time></trkpt><trkpt lat="42.96736069666577" lon="11.705800172534229"><ele>367.5</ele><time>2026-03-22T10:48:15.929Z</time></trkpt><trkpt lat="42.9676050484755" lon="11.705791907439156"><ele>366.0</ele><time>2026-03-22T10:48:16.929Z</time></trkpt><trkpt lat="42.96784701321462" lon="11.705783724844201"><ele>366.0</ele><time>2026-03-22T10:48:17.929Z</time></trkpt><trkpt lat="42.968086824043205" lon="11.705775076671225"><ele>366.0</ele><time>2026-03-22T10:48:18.929Z</time></trkpt><trkpt lat="42.96832524722503" lon="11.705766545700554"><ele>365.5</ele><time>2026-03-22T10:48:19.929Z</time></trkpt><trkpt lat="42.96856321591722" lon="11.705758631441427"><ele>365.0</ele><time>2026-03-22T10:48:20.929Z</time></trkpt><trkpt lat="42.96880371002581" lon="11.705751126904353"><ele>365.0</ele><time>2026-03-22T10:48:21.929Z</time></trkpt><trkpt lat="42.96904036477661" lon="11.70574374216662"><ele>365.0</ele><time>2026-03-22T10:48:22.929Z</time></trkpt><trkpt lat="42.96927699451229" lon="11.705718325695672"><ele>364.5</ele><time>2026-03-22T10:48:23.928Z</time></trkpt><trkpt lat="42.969512468268746" lon="11.705724712110152"><ele>364.0</ele><time>2026-03-22T10:48:24.928Z</time></trkpt><trkpt lat="42.969751029713514" lon="11.705733427795762"><ele>364.0</ele><time>2026-03-22T10:48:25.928Z</time></trkpt><trkpt lat="42.96999027609189" lon="11.705745517783063"><ele>364.0</ele><time>2026-03-22T10:48:26.928Z</time></trkpt><trkpt lat="42.97023080439969" lon="11.705760655553025"><ele>363.5</ele><time>2026-03-22T10:48:27.928Z</time></trkpt><trkpt lat="42.970469993884784" lon="11.705777303675648"><ele>363.0</ele><time>2026-03-22T10:48:28.928Z</time></trkpt><trkpt lat="42.97070841319358" lon="11.705798493554637"><ele>361.5</ele><time>2026-03-22T10:48:29.928Z</time></trkpt><trkpt lat="42.97094741951947" lon="11.705823542092807"><ele>360.0</ele><time>2026-03-22T10:48:30.928Z</time></trkpt><trkpt lat="42.97118235206815" lon="11.70584669036716"><ele>360.0</ele><time>2026-03-22T10:48:31.928Z</time></trkpt><trkpt lat="42.97141628739651" lon="11.705870211732256"><ele>360.0</ele><time>2026-03-22T10:48:32.928Z</time></trkpt><trkpt lat="42.9716490229398" lon="11.70589830743037"><ele>361.0</ele><time>2026-03-22T10:48:33.928Z</time></trkpt><trkpt lat="42.971882536290614" lon="11.70592558826266"><ele>362.0</ele><time>2026-03-22T10:48:34.928Z</time></trkpt><trkpt lat="42.972116223618926" lon="11.705948753421097"><ele>362.0</ele><time>2026-03-22T10:48:35.928Z</time></trkpt><trkpt lat="42.97234799604353" lon="11.705970744864013"><ele>362.0</ele><time>2026-03-22T10:48:36.928Z</time></trkpt><trkpt lat="42.97257979180696" lon="11.705992543516246"><ele>362.0</ele><time>2026-03-22T10:48:37.928Z</time></trkpt><trkpt lat="42.972812673467246" lon="11.706015595904514"><ele>362.0</ele><time>2026-03-22T10:48:38.928Z</time></trkpt><trkpt lat="42.973045908907714" lon="11.706038267054588"><ele>362.0</ele><time>2026-03-22T10:48:39.928Z</time></trkpt><trkpt lat="42.973277443117475" lon="11.706060915302412"><ele>362.0</ele><time>2026-03-22T10:48:40.928Z</time></trkpt><trkpt lat="42.97350858861351" lon="11.706084439851107"><ele>357.5</ele><time>2026-03-22T10:48:41.928Z</time></trkpt><trkpt lat="42.97373915700112" lon="11.706107213156107"><ele>353.0</ele><time>2026-03-22T10:48:42.928Z</time></trkpt><trkpt lat="42.97397061963916" lon="11.70612777959199"><ele>353.5</ele><time>2026-03-22T10:48:43.928Z</time></trkpt><trkpt lat="42.9742001412662" lon="11.706148001721264"><ele>354.0</ele><time>2026-03-22T10:48:44.928Z</time></trkpt><trkpt lat="42.97442979682572" lon="11.706171507276025"><ele>354.0</ele><time>2026-03-22T10:48:45.928Z</time></trkpt><trkpt lat="42.974663580772756" lon="11.706194918117456"><ele>354.0</ele><time>2026-03-22T10:48:46.928Z</time></trkpt><trkpt lat="42.9749026114377" lon="11.706220257249774"><ele>353.5</ele><time>2026-03-22T10:48:47.928Z</time></trkpt><trkpt lat="42.97514530733252" lon="11.706249575582856"><ele>353.0</ele><time>2026-03-22T10:48:48.928Z</time></trkpt><trkpt lat="42.97538956419669" lon="11.706276784444574"><ele>353.0</ele><time>2026-03-22T10:48:49.928Z</time></trkpt><trkpt lat="42.97563628976543" lon="11.706305793955547"><ele>353.0</ele><time>2026-03-22T10:48:50.928Z</time></trkpt><trkpt lat="42.975886204521345" lon="11.70632982375728"><ele>352.5</ele><time>2026-03-22T10:48:51.927Z</time></trkpt><trkpt lat="42.976139637349064" lon="11.706352756086224"><ele>352.0</ele><time>2026-03-22T10:48:52.927Z</time></trkpt><trkpt lat="42.97639161263251" lon="11.706374440131496"><ele>352.0</ele><time>2026-03-22T10:48:53.927Z</time></trkpt><trkpt lat="42.97664233181051" lon="11.706401786930963"><ele>352.0</ele><time>2026-03-22T10:48:54.927Z</time></trkpt><trkpt lat="42.976890587302044" lon="11.706423830599908"><ele>352.0</ele><time>2026-03-22T10:48:55.927Z</time></trkpt><trkpt lat="42.977134257263515" lon="11.706444006506505"><ele>352.0</ele><time>2026-03-22T10:48:56.927Z</time></trkpt><trkpt lat="42.9773710280323" lon="11.706463293149943"><ele>351.0</ele><time>2026-03-22T10:48:57.927Z</time></trkpt><trkpt lat="42.97760769978951" lon="11.706477184431158"><ele>350.0</ele><time>2026-03-22T10:48:58.93Z</time></trkpt><trkpt lat="42.97784253071605" lon="11.706479040910882"><ele>350.0</ele><time>2026-03-22T10:48:59.93Z</time></trkpt><trkpt lat="42.97808034402484" lon="11.706468823715204"><ele>350.0</ele><time>2026-03-22T10:49:00.93Z</time></trkpt><trkpt lat="42.97832052939394" lon="11.706438242821752"><ele>351.0</ele><time>2026-03-22T10:49:01.929Z</time></trkpt><trkpt lat="42.97856395237536" lon="11.70639685981478"><ele>352.0</ele><time>2026-03-22T10:49:02.93Z</time></trkpt><trkpt lat="42.978798309847214" lon="11.706344871996073"><ele>352.0</ele><time>2026-03-22T10:49:03.93Z</time></trkpt><trkpt lat="42.97902884208522" lon="11.706276374469239"><ele>352.0</ele><time>2026-03-22T10:49:04.93Z</time></trkpt><trkpt lat="42.97925363735192" lon="11.706197842486134"><ele>351.5</ele><time>2026-03-22T10:49:05.93Z</time></trkpt><trkpt lat="42.97947646994152" lon="11.70610682225942"><ele>351.0</ele><time>2026-03-22T10:49:06.93Z</time></trkpt><trkpt lat="42.97969728685154" lon="11.706015413553795"><ele>352.3333333333333</ele><time>2026-03-22T10:49:07.929Z</time></trkpt><trkpt lat="42.97991754609126" lon="11.705939948347037"><ele>353.66666666666663</ele><time>2026-03-22T10:49:08.93Z</time></trkpt><trkpt lat="42.98012852641929" lon="11.705855448122984"><ele>355.0</ele><time>2026-03-22T10:49:09.93Z</time></trkpt><trkpt lat="42.98032100678559" lon="11.705680150661816"><ele>355.0</ele><time>2026-03-22T10:49:10.93Z</time></trkpt><trkpt lat="42.98051742372338" lon="11.70554564635805"><ele>355.0</ele><time>2026-03-22T10:49:11.93Z</time></trkpt><trkpt lat="42.980711290596005" lon="11.705381244346682"><ele>355.0</ele><time>2026-03-22T10:49:12.93Z</time></trkpt><trkpt lat="42.98090010392518" lon="11.705196614064752"><ele>352.0</ele><time>2026-03-22T10:49:13.93Z</time></trkpt><trkpt lat="42.981083983997465" lon="11.705000603688728"><ele>349.0</ele><time>2026-03-22T10:49:14.929Z</time></trkpt><trkpt lat="42.98126031847955" lon="11.704794900811267"><ele>349.0</ele><time>2026-03-22T10:49:15.929Z</time></trkpt><trkpt lat="42.98143034983834" lon="11.704576489304028"><ele>349.0</ele><time>2026-03-22T10:49:16.929Z</time></trkpt><trkpt lat="42.98159426725141" lon="11.704348838823485"><ele>347.5</ele><time>2026-03-22T10:49:17.929Z</time></trkpt><trkpt lat="42.98175290766746" lon="11.704117682142009"><ele>346.0</ele><time>2026-03-22T10:49:18.929Z</time></trkpt><trkpt lat="42.9819022595567" lon="11.703880112578641"><ele>346.0</ele><time>2026-03-22T10:49:19.929Z</time></trkpt><trkpt lat="42.98204359345056" lon="11.70363111009411"><ele>346.0</ele><time>2026-03-22T10:49:20.929Z</time></trkpt><trkpt lat="42.98217922594557" lon="11.703372861686415"><ele>347.5</ele><time>2026-03-22T10:49:21.929Z</time></trkpt><trkpt lat="42.98230969016956" lon="11.70310534974077"><ele>349.0</ele><time>2026-03-22T10:49:22.929Z</time></trkpt><trkpt lat="42.98243411007092" lon="11.702830176928423"><ele>345.5</ele><time>2026-03-22T10:49:23.929Z</time></trkpt><trkpt lat="42.98255216464486" lon="11.702544915147561"><ele>342.0</ele><time>2026-03-22T10:49:24.929Z</time></trkpt><trkpt lat="42.982664889954314" lon="11.70225567885833"><ele>342.0</ele><time>2026-03-22T10:49:25.929Z</time></trkpt><trkpt lat="42.982769712891624" lon="11.701962959317676"><ele>342.0</ele><time>2026-03-22T10:49:26.929Z</time></trkpt><trkpt lat="42.98287484866588" lon="11.701665478786714"><ele>340.0</ele><time>2026-03-22T10:49:27.929Z</time></trkpt><trkpt lat="42.98298454113228" lon="11.701368116828714"><ele>338.0</ele><time>2026-03-22T10:49:28.929Z</time></trkpt><trkpt lat="42.983095115210276" lon="11.701068478681787"><ele>336.5</ele><time>2026-03-22T10:49:29.929Z</time></trkpt><trkpt lat="42.98320942342937" lon="11.700769649478811"><ele>335.0</ele><time>2026-03-22T10:49:30.929Z</time></trkpt><trkpt lat="42.98332423640259" lon="11.700470950801101"><ele>338.0</ele><time>2026-03-22T10:49:31.929Z</time></trkpt><trkpt lat="42.98343670843171" lon="11.700174767359885"><ele>341.0</ele><time>2026-03-22T10:49:32.929Z</time></trkpt><trkpt lat="42.98354939416996" lon="11.69988305540965"><ele>341.0</ele><time>2026-03-22T10:49:33.929Z</time></trkpt><trkpt lat="42.98367246408821" lon="11.69959375268608"><ele>341.0</ele><time>2026-03-22T10:49:34.929Z</time></trkpt><trkpt lat="42.98379685194363" lon="11.699310424931108"><ele>336.5</ele><time>2026-03-22T10:49:35.929Z</time></trkpt><trkpt lat="42.98392654214167" lon="11.69903144910655"><ele>332.0</ele><time>2026-03-22T10:49:36.929Z</time></trkpt><trkpt lat="42.98405979163066" lon="11.698753090955606"><ele>329.5</ele><time>2026-03-22T10:49:37.929Z</time></trkpt><trkpt lat="42.98419382415381" lon="11.698474979324468"><ele>327.0</ele><time>2026-03-22T10:49:38.929Z</time></trkpt><trkpt lat="42.98433404942854" lon="11.698206143693264"><ele>327.0</ele><time>2026-03-22T10:49:39.929Z</time></trkpt><trkpt lat="42.98447662576203" lon="11.697939160160294"><ele>327.0</ele><time>2026-03-22T10:49:40.929Z</time></trkpt><trkpt lat="42.98461652792979" lon="11.697677032602467"><ele>323.5</ele><time>2026-03-22T10:49:41.928Z</time></trkpt><trkpt lat="42.98476791600162" lon="11.697418397360364"><ele>320.0</ele><time>2026-03-22T10:49:42.928Z</time></trkpt><trkpt lat="42.984914787689746" lon="11.697162955140369"><ele>320.5</ele><time>2026-03-22T10:49:43.928Z</time></trkpt><trkpt lat="42.98506212140131" lon="11.69691619858393"><ele>321.0</ele><time>2026-03-22T10:49:44.928Z</time></trkpt><trkpt lat="42.98520836269887" lon="11.696679290068008"><ele>321.0</ele><time>2026-03-22T10:49:45.928Z</time></trkpt><trkpt lat="42.985352558358976" lon="11.69645147313439"><ele>321.0</ele><time>2026-03-22T10:49:46.928Z</time></trkpt><trkpt lat="42.985496766805475" lon="11.696226184981498"><ele>321.0</ele><time>2026-03-22T10:49:47.928Z</time></trkpt><trkpt lat="42.98564309528866" lon="11.696003541692258"><ele>320.6666666666667</ele><time>2026-03-22T10:49:48.928Z</time></trkpt><trkpt lat="42.98579348419912" lon="11.695782790818905"><ele>320.33333333333337</ele><time>2026-03-22T10:49:49.928Z</time></trkpt><trkpt lat="42.98595351295318" lon="11.695564154248334"><ele>320.0</ele><time>2026-03-22T10:49:50.928Z</time></trkpt><trkpt lat="42.986111825197625" lon="11.695340276668881"><ele>321.0</ele><time>2026-03-22T10:49:51.928Z</time></trkpt><trkpt lat="42.98626842403748" lon="11.695113330483224"><ele>322.0</ele><time>2026-03-22T10:49:52.928Z</time></trkpt><trkpt lat="42.98642808366593" lon="11.694883726109554"><ele>322.0</ele><time>2026-03-22T10:49:53.928Z</time></trkpt><trkpt lat="42.98658697308923" lon="11.694648674841103"><ele>322.0</ele><time>2026-03-22T10:49:54.928Z</time></trkpt><trkpt lat="42.98674502718981" lon="11.694414349894577"><ele>323.0</ele><time>2026-03-22T10:49:55.928Z</time></trkpt><trkpt lat="42.986902864736194" lon="11.694172579222249"><ele>324.0</ele><time>2026-03-22T10:49:56.928Z</time></trkpt><trkpt lat="42.98706441861135" lon="11.693931970938216"><ele>324.0</ele><time>2026-03-22T10:49:57.928Z</time></trkpt><trkpt lat="42.98723409307112" lon="11.693697729856408"><ele>324.0</ele><time>2026-03-22T10:49:58.928Z</time></trkpt><trkpt lat="42.987400801168924" lon="11.693467074406922"><ele>325.0</ele><time>2026-03-22T10:49:59.928Z</time></trkpt><trkpt lat="42.98756721722789" lon="11.693235327548805"><ele>326.0</ele><time>2026-03-22T10:50:00.928Z</time></trkpt><trkpt lat="42.9877324361633" lon="11.692997374314805"><ele>326.0</ele><time>2026-03-22T10:50:01.928Z</time></trkpt><trkpt lat="42.9878970668242" lon="11.692762231905181"><ele>326.0</ele><time>2026-03-22T10:50:02.928Z</time></trkpt><trkpt lat="42.988062291241576" lon="11.692525864114106"><ele>324.0</ele><time>2026-03-22T10:50:03.928Z</time></trkpt><trkpt lat="42.98822904705217" lon="11.692286876406161"><ele>322.0</ele><time>2026-03-22T10:50:04.928Z</time></trkpt><trkpt lat="42.98839229611464" lon="11.692048629673568"><ele>320.0</ele><time>2026-03-22T10:50:05.928Z</time></trkpt><trkpt lat="42.988557730234156" lon="11.691810006671753"><ele>318.0</ele><time>2026-03-22T10:50:06.928Z</time></trkpt><trkpt lat="42.98872634823768" lon="11.691575277637277"><ele>318.0</ele><time>2026-03-22T10:50:07.928Z</time></trkpt><trkpt lat="42.988896345933156" lon="11.69133717769038"><ele>318.0</ele><time>2026-03-22T10:50:08.928Z</time></trkpt><trkpt lat="42.98906903066584" lon="11.691095455308917"><ele>316.0</ele><time>2026-03-22T10:50:09.927Z</time></trkpt><trkpt lat="42.98923734777516" lon="11.690857995603249"><ele>314.0</ele><time>2026-03-22T10:50:10.927Z</time></trkpt><trkpt lat="42.98940160095603" lon="11.690626926312882"><ele>314.0</ele><time>2026-03-22T10:50:11.927Z</time></trkpt><trkpt lat="42.989566661788096" lon="11.690397178116774"><ele>314.0</ele><time>2026-03-22T10:50:12.927Z</time></trkpt><trkpt lat="42.98973264757698" lon="11.690166142984461"><ele>312.0</ele><time>2026-03-22T10:50:13.927Z</time></trkpt><trkpt lat="42.98989489012806" lon="11.689934566567972"><ele>310.0</ele><time>2026-03-22T10:50:14.927Z</time></trkpt><trkpt lat="42.99004842448748" lon="11.689716818704628"><ele>309.66666666666663</ele><time>2026-03-22T10:50:15.927Z</time></trkpt><trkpt lat="42.99019396895939" lon="11.689515751062684"><ele>309.3333333333333</ele><time>2026-03-22T10:50:16.927Z</time></trkpt><trkpt lat="42.99033559077247" lon="11.689327146724253"><ele>309.0</ele><time>2026-03-22T10:50:17.927Z</time></trkpt><trkpt lat="42.99046713907783" lon="11.68914622527455"><ele>309.0</ele><time>2026-03-22T10:50:18.927Z</time></trkpt><trkpt lat="42.99058331020238" lon="11.688962773050768"><ele>309.0</ele><time>2026-03-22T10:50:19.927Z</time></trkpt><trkpt lat="42.99066931353684" lon="11.688763035025355"><ele>309.0</ele><time>2026-03-22T10:50:20.927Z</time></trkpt><trkpt lat="42.99071087938212" lon="11.688555785442395"><ele>308.5</ele><time>2026-03-22T10:50:21.927Z</time></trkpt><trkpt lat="42.990720228997326" lon="11.688349161140684"><ele>308.0</ele><time>2026-03-22T10:50:22.927Z</time></trkpt><trkpt lat="42.99071500407849" lon="11.688155476353431"><ele>307.5</ele><time>2026-03-22T10:50:23.927Z</time></trkpt><trkpt lat="42.99071594678439" lon="11.68796715275582"><ele>307.0</ele><time>2026-03-22T10:50:24.927Z</time></trkpt><trkpt lat="42.99072480808245" lon="11.687782946862928"><ele>307.25</ele><time>2026-03-22T10:50:25.927Z</time></trkpt><trkpt lat="42.99075399973593" lon="11.68760973464892"><ele>307.5</ele><time>2026-03-22T10:50:26.927Z</time></trkpt><trkpt lat="42.99080363507159" lon="11.687450581921178"><ele>307.75</ele><time>2026-03-22T10:50:27.927Z</time></trkpt><trkpt lat="42.99087863844445" lon="11.687314491674416"><ele>308.0</ele><time>2026-03-22T10:50:28.927Z</time></trkpt><trkpt lat="42.990976854536974" lon="11.687203948496304"><ele>307.5</ele><time>2026-03-22T10:50:29.927Z</time></trkpt><trkpt lat="42.991098408697646" lon="11.68712821118897"><ele>307.0</ele><time>2026-03-22T10:50:30.927Z</time></trkpt><trkpt lat="42.991235177181984" lon="11.687084105305154"><ele>306.5</ele><time>2026-03-22T10:50:31.927Z</time></trkpt><trkpt lat="42.991397867608754" lon="11.687055098489235"><ele>306.0</ele><time>2026-03-22T10:50:32.927Z</time></trkpt><trkpt lat="42.991572153096975" lon="11.687012054350802"><ele>306.3333333333333</ele><time>2026-03-22T10:50:33.927Z</time></trkpt><trkpt lat="42.99175453776508" lon="11.686999445613981"><ele>306.66666666666663</ele><time>2026-03-22T10:50:34.927Z</time></trkpt><trkpt lat="42.99193849321813" lon="11.686961116489227"><ele>307.0</ele><time>2026-03-22T10:50:35.927Z</time></trkpt><trkpt lat="42.992127197539794" lon="11.686921358058862"><ele>307.3333333333333</ele><time>2026-03-22T10:50:36.927Z</time></trkpt><trkpt lat="42.99231355069749" lon="11.686879207319993"><ele>307.6666666666667</ele><time>2026-03-22T10:50:37.926Z</time></trkpt><trkpt lat="42.99250170838713" lon="11.686831102355509"><ele>308.0</ele><time>2026-03-22T10:50:38.926Z</time></trkpt><trkpt lat="42.99269387840935" lon="11.68678256729683"><ele>308.0</ele><time>2026-03-22T10:50:39.926Z</time></trkpt><trkpt lat="42.99288547606749" lon="11.686731973603061"><ele>308.0</ele><time>2026-03-22T10:50:40.926Z</time></trkpt><trkpt lat="42.99307241315065" lon="11.686687209780088"><ele>308.0</ele><time>2026-03-22T10:50:41.926Z</time></trkpt><trkpt lat="42.99325185823978" lon="11.686647256539576"><ele>307.0</ele><time>2026-03-22T10:50:42.926Z</time></trkpt><trkpt lat="42.993428947550896" lon="11.68658857173772"><ele>306.0</ele><time>2026-03-22T10:50:43.926Z</time></trkpt><trkpt lat="42.993601072637865" lon="11.686493794105006"><ele>305.0</ele><time>2026-03-22T10:50:44.926Z</time></trkpt><trkpt lat="42.99377214425316" lon="11.686370801029945"><ele>305.0</ele><time>2026-03-22T10:50:45.926Z</time></trkpt><trkpt lat="42.99393778945714" lon="11.68624496036112"><ele>305.0</ele><time>2026-03-22T10:50:46.926Z</time></trkpt><trkpt lat="42.99410407893093" lon="11.686120628323877"><ele>305.0</ele><time>2026-03-22T10:50:47.926Z</time></trkpt><trkpt lat="42.99427105086355" lon="11.68598599087483"><ele>304.6666666666667</ele><time>2026-03-22T10:50:48.926Z</time></trkpt><trkpt lat="42.994439220997464" lon="11.685851986366075"><ele>304.3333333333333</ele><time>2026-03-22T10:50:49.926Z</time></trkpt><trkpt lat="42.99461300119758" lon="11.685717805135267"><ele>304.0</ele><time>2026-03-22T10:50:50.926Z</time></trkpt><trkpt lat="42.99479130590167" lon="11.685578068041323"><ele>304.0</ele><time>2026-03-22T10:50:51.926Z</time></trkpt><trkpt lat="42.994969103737496" lon="11.68543659843693"><ele>304.0</ele><time>2026-03-22T10:50:52.926Z</time></trkpt><trkpt lat="42.99515246660876" lon="11.685296356173195"><ele>304.0</ele><time>2026-03-22T10:50:53.926Z</time></trkpt><trkpt lat="42.9953370507458" lon="11.685159655590315"><ele>304.3333333333333</ele><time>2026-03-22T10:50:54.926Z</time></trkpt><trkpt lat="42.99551790690943" lon="11.685022620310619"><ele>304.6666666666667</ele><time>2026-03-22T10:50:55.926Z</time></trkpt><trkpt lat="42.99569281611439" lon="11.684888709840447"><ele>305.0</ele><time>2026-03-22T10:50:56.926Z</time></trkpt><trkpt lat="42.9958606424017" lon="11.684771261200314"><ele>305.6666666666667</ele><time>2026-03-22T10:50:57.926Z</time></trkpt><trkpt lat="42.99601801319071" lon="11.684647601901506"><ele>306.3333333333333</ele><time>2026-03-22T10:50:58.926Z</time></trkpt><trkpt lat="42.996158241746365" lon="11.684527073131111"><ele>307.0</ele><time>2026-03-22T10:50:59.926Z</time></trkpt><trkpt lat="42.99629433535913" lon="11.684386368310562"><ele>307.0</ele><time>2026-03-22T10:51:00.926Z</time></trkpt><trkpt lat="42.99641213947545" lon="11.68423335004914"><ele>307.0</ele><time>2026-03-22T10:51:01.926Z</time></trkpt><trkpt lat="42.99650597703429" lon="11.684059637974435"><ele>307.0</ele><time>2026-03-22T10:51:02.926Z</time></trkpt><trkpt lat="42.996593674009944" lon="11.683885405162016"><ele>307.0</ele><time>2026-03-22T10:51:03.926Z</time></trkpt><trkpt lat="42.99667973012703" lon="11.68372393297203"><ele>307.0</ele><time>2026-03-22T10:51:04.928Z</time></trkpt><trkpt lat="42.99679727348942" lon="11.683602414889656"><ele>307.0</ele><time>2026-03-22T10:51:05.928Z</time></trkpt><trkpt lat="42.99693885985864" lon="11.683534579687395"><ele>307.0</ele><time>2026-03-22T10:51:06.928Z</time></trkpt><trkpt lat="42.997082115454575" lon="11.683536043030951"><ele>307.75</ele><time>2026-03-22T10:51:07.928Z</time></trkpt><trkpt lat="42.99722549019672" lon="11.683542508880768"><ele>308.5</ele><time>2026-03-22T10:51:08.927Z</time></trkpt><trkpt lat="42.9973607397586" lon="11.68352014027866"><ele>309.25</ele><time>2026-03-22T10:51:09.927Z</time></trkpt><trkpt lat="42.99749005887799" lon="11.683539011595183"><ele>310.0</ele><time>2026-03-22T10:51:10.928Z</time></trkpt><trkpt lat="42.99761587245838" lon="11.683556044223574"><ele>310.25</ele><time>2026-03-22T10:51:11.928Z</time></trkpt><trkpt lat="42.99774356139174" lon="11.683566484737192"><ele>310.5</ele><time>2026-03-22T10:51:12.928Z</time></trkpt><trkpt lat="42.997869722432085" lon="11.683604960234051"><ele>310.75</ele><time>2026-03-22T10:51:13.928Z</time></trkpt><trkpt lat="42.99799994190849" lon="11.683600529125558"><ele>311.0</ele><time>2026-03-22T10:51:14.928Z</time></trkpt><trkpt lat="42.998127123417355" lon="11.683610838846437"><ele>311.0</ele><time>2026-03-22T10:51:15.928Z</time></trkpt><trkpt lat="42.99825130715949" lon="11.683613575673503"><ele>311.0</ele><time>2026-03-22T10:51:16.928Z</time></trkpt><trkpt lat="42.99838200119967" lon="11.683616894666041"><ele>311.0</ele><time>2026-03-22T10:51:17.928Z</time></trkpt><trkpt lat="42.99850395951986" lon="11.683644047791347"><ele>311.0</ele><time>2026-03-22T10:51:18.928Z</time></trkpt><trkpt lat="42.99863567169173" lon="11.683649540341504"><ele>311.5</ele><time>2026-03-22T10:51:19.928Z</time></trkpt><trkpt lat="42.99876861323316" lon="11.683652204351155"><ele>312.0</ele><time>2026-03-22T10:51:20.928Z</time></trkpt><trkpt lat="42.998902788290366" lon="11.683652126310761"><ele>312.5</ele><time>2026-03-22T10:51:21.927Z</time></trkpt><trkpt lat="42.99903522652978" lon="11.683653527837638"><ele>313.0</ele><time>2026-03-22T10:51:22.927Z</time></trkpt><trkpt lat="42.99916642171784" lon="11.68365678979479"><ele>313.5</ele><time>2026-03-22T10:51:23.927Z</time></trkpt><trkpt lat="42.99930211142252" lon="11.683660406717934"><ele>314.0</ele><time>2026-03-22T10:51:24.927Z</time></trkpt><trkpt lat="42.999429832078256" lon="11.683651486619095"><ele>314.5</ele><time>2026-03-22T10:51:25.927Z</time></trkpt><trkpt lat="42.9995495316631" lon="11.683646780894101"><ele>315.0</ele><time>2026-03-22T10:51:26.927Z</time></trkpt><trkpt lat="42.99966331187756" lon="11.683633928965381"><ele>315.0</ele><time>2026-03-22T10:51:27.927Z</time></trkpt><trkpt lat="42.99977378553543" lon="11.683604812936105"><ele>315.0</ele><time>2026-03-22T10:51:28.927Z</time></trkpt><trkpt lat="42.999877345872406" lon="11.683548490098344"><ele>315.0</ele><time>2026-03-22T10:51:29.927Z</time></trkpt><trkpt lat="42.9999767677806" lon="11.683480693020439"><ele>315.0</ele><time>2026-03-22T10:51:30.927Z</time></trkpt><trkpt lat="43.000074766309034" lon="11.68339579743884"><ele>316.5</ele><time>2026-03-22T10:51:31.927Z</time></trkpt><trkpt lat="43.00016965940031" lon="11.68330058533581"><ele>318.0</ele><time>2026-03-22T10:51:32.927Z</time></trkpt><trkpt lat="43.000265386825276" lon="11.683206658691342"><ele>319.5</ele><time>2026-03-22T10:51:33.927Z</time></trkpt><trkpt lat="43.00036498551953" lon="11.683112883790974"><ele>321.0</ele><time>2026-03-22T10:51:34.927Z</time></trkpt><trkpt lat="43.00046588226586" lon="11.68301527745708"><ele>321.0</ele><time>2026-03-22T10:51:35.927Z</time></trkpt><trkpt lat="43.0005733208456" lon="11.682919493210148"><ele>321.0</ele><time>2026-03-22T10:51:36.927Z</time></trkpt><trkpt lat="43.000686652234954" lon="11.682822472811564"><ele>321.0</ele><time>2026-03-22T10:51:37.927Z</time></trkpt><trkpt lat="43.000799736904966" lon="11.682725032000043"><ele>321.0</ele><time>2026-03-22T10:51:38.927Z</time></trkpt><trkpt lat="43.00090948252271" lon="11.68262862976238"><ele>320.25</ele><time>2026-03-22T10:51:39.927Z</time></trkpt><trkpt lat="43.00102075118905" lon="11.682534557995872"><ele>319.5</ele><time>2026-03-22T10:51:40.927Z</time></trkpt><trkpt lat="43.00112792268831" lon="11.682445775351086"><ele>318.75</ele><time>2026-03-22T10:51:41.927Z</time></trkpt><trkpt lat="43.00122929665782" lon="11.682347201975315"><ele>318.0</ele><time>2026-03-22T10:51:42.927Z</time></trkpt><trkpt lat="43.00132542281187" lon="11.682246865647565"><ele>318.0</ele><time>2026-03-22T10:51:43.927Z</time></trkpt><trkpt lat="43.00141541976248" lon="11.682130910110665"><ele>318.0</ele><time>2026-03-22T10:51:44.927Z</time></trkpt><trkpt lat="43.00150742193431" lon="11.682014376677824"><ele>318.0</ele><time>2026-03-22T10:51:45.927Z</time></trkpt><trkpt lat="43.00160024018584" lon="11.681895041452957"><ele>318.0</ele><time>2026-03-22T10:51:46.927Z</time></trkpt><trkpt lat="43.001692529987864" lon="11.681757819047332"><ele>315.75</ele><time>2026-03-22T10:51:47.927Z</time></trkpt><trkpt lat="43.00177666150656" lon="11.681601495903246"><ele>313.5</ele><time>2026-03-22T10:51:48.926Z</time></trkpt><trkpt lat="43.00184766531546" lon="11.681424569295176"><ele>311.25</ele><time>2026-03-22T10:51:49.926Z</time></trkpt><trkpt lat="43.00191432778514" lon="11.681234313855876"><ele>309.0</ele><time>2026-03-22T10:51:50.926Z</time></trkpt><trkpt lat="43.00198993200986" lon="11.681048110502424"><ele>308.6666666666667</ele><time>2026-03-22T10:51:51.926Z</time></trkpt><trkpt lat="43.00207074228692" lon="11.68085397544275"><ele>308.33333333333337</ele><time>2026-03-22T10:51:52.926Z</time></trkpt><trkpt lat="43.002152913796195" lon="11.680654554830578"><ele>308.0</ele><time>2026-03-22T10:51:53.926Z</time></trkpt><trkpt lat="43.00223570642179" lon="11.680444430206359"><ele>308.33333333333337</ele><time>2026-03-22T10:51:54.926Z</time></trkpt><trkpt lat="43.0023207646314" lon="11.680240881822828"><ele>308.6666666666667</ele><time>2026-03-22T10:51:55.926Z</time></trkpt><trkpt lat="43.00240814001827" lon="11.680031502035984"><ele>309.0</ele><time>2026-03-22T10:51:56.926Z</time></trkpt><trkpt lat="43.00250463245946" lon="11.679816116902943"><ele>308.6666666666667</ele><time>2026-03-22T10:51:57.926Z</time></trkpt><trkpt lat="43.00260301983488" lon="11.679595814077754"><ele>308.33333333333337</ele><time>2026-03-22T10:51:58.926Z</time></trkpt><trkpt lat="43.00270825651257" lon="11.67936327332474"><ele>308.0</ele><time>2026-03-22T10:51:59.926Z</time></trkpt><trkpt lat="43.002823443020624" lon="11.679129304820528"><ele>308.0</ele><time>2026-03-22T10:52:00.926Z</time></trkpt><trkpt lat="43.00293204897362" lon="11.678902946826078"><ele>308.0</ele><time>2026-03-22T10:52:01.926Z</time></trkpt><trkpt lat="43.00305899930585" lon="11.678636393907595"><ele>308.0</ele><time>2026-03-22T10:52:02.926Z</time></trkpt><trkpt lat="43.00317584019518" lon="11.678378530386546"><ele>308.5</ele><time>2026-03-22T10:52:03.926Z</time></trkpt><trkpt lat="43.00328516310493" lon="11.678101219677938"><ele>309.0</ele><time>2026-03-22T10:52:04.926Z</time></trkpt><trkpt lat="43.00338419336599" lon="11.677827804092432"><ele>309.5</ele><time>2026-03-22T10:52:05.926Z</time></trkpt><trkpt lat="43.00348241780172" lon="11.677545571738104"><ele>310.0</ele><time>2026-03-22T10:52:06.926Z</time></trkpt><trkpt lat="43.003572469890685" lon="11.677252969487057"><ele>310.0</ele><time>2026-03-22T10:52:07.926Z</time></trkpt><trkpt lat="43.00365128568479" lon="11.676950868093991"><ele>310.0</ele><time>2026-03-22T10:52:08.926Z</time></trkpt><trkpt lat="43.0037273922075" lon="11.676645077870392"><ele>310.5</ele><time>2026-03-22T10:52:09.926Z</time></trkpt><trkpt lat="43.00380860635666" lon="11.676340301105144"><ele>311.0</ele><time>2026-03-22T10:52:10.926Z</time></trkpt><trkpt lat="43.00388470901446" lon="11.676030515129327"><ele>311.0</ele><time>2026-03-22T10:52:11.926Z</time></trkpt><trkpt lat="43.00394537600688" lon="11.675730480674355"><ele>311.0</ele><time>2026-03-22T10:52:12.926Z</time></trkpt><trkpt lat="43.003998982943905" lon="11.67545224860348"><ele>311.0</ele><time>2026-03-22T10:52:13.926Z</time></trkpt><trkpt lat="43.0040621581197" lon="11.675176839943003"><ele>311.33333333333337</ele><time>2026-03-22T10:52:14.926Z</time></trkpt><trkpt lat="43.00413263093903" lon="11.67491429967259"><ele>311.6666666666667</ele><time>2026-03-22T10:52:15.926Z</time></trkpt><trkpt lat="43.00423023573915" lon="11.674683739095881"><ele>312.0</ele><time>2026-03-22T10:52:16.925Z</time></trkpt><trkpt lat="43.00433818813563" lon="11.674476756775752"><ele>313.3333333333333</ele><time>2026-03-22T10:52:17.925Z</time></trkpt><trkpt lat="43.004449270588076" lon="11.674293286375429"><ele>314.66666666666663</ele><time>2026-03-22T10:52:18.925Z</time></trkpt><trkpt lat="43.004563316704825" lon="11.674133491281674"><ele>316.0</ele><time>2026-03-22T10:52:19.925Z</time></trkpt><trkpt lat="43.0046790311121" lon="11.67399984634134"><ele>316.0</ele><time>2026-03-22T10:52:20.925Z</time></trkpt><trkpt lat="43.00479180141637" lon="11.673871560134094"><ele>316.0</ele><time>2026-03-22T10:52:21.925Z</time></trkpt><trkpt lat="43.00489524058167" lon="11.673721788955461"><ele>316.0</ele><time>2026-03-22T10:52:22.925Z</time></trkpt><trkpt lat="43.00499623995378" lon="11.6735495874204"><ele>316.3333333333333</ele><time>2026-03-22T10:52:23.925Z</time></trkpt><trkpt lat="43.0051071554377" lon="11.673371064029585"><ele>316.6666666666667</ele><time>2026-03-22T10:52:24.925Z</time></trkpt><trkpt lat="43.00522562632598" lon="11.673182499651414"><ele>317.0</ele><time>2026-03-22T10:52:25.925Z</time></trkpt><trkpt lat="43.00535260743917" lon="11.672991386497143"><ele>317.0</ele><time>2026-03-22T10:52:26.925Z</time></trkpt><trkpt lat="43.00549128238602" lon="11.672807652498243"><ele>317.0</ele><time>2026-03-22T10:52:27.925Z</time></trkpt><trkpt lat="43.005646473336455" lon="11.672629182944021"><ele>317.0</ele><time>2026-03-22T10:52:28.925Z</time></trkpt><trkpt lat="43.00581062514171" lon="11.672459051226577"><ele>316.0</ele><time>2026-03-22T10:52:29.925Z</time></trkpt><trkpt lat="43.005979645241986" lon="11.672289538917065"><ele>315.0</ele><time>2026-03-22T10:52:30.925Z</time></trkpt><trkpt lat="43.00615135321893" lon="11.67212762791417"><ele>314.0</ele><time>2026-03-22T10:52:31.925Z</time></trkpt><trkpt lat="43.006321518008896" lon="11.671969633517394"><ele>315.0</ele><time>2026-03-22T10:52:32.925Z</time></trkpt><trkpt lat="43.006488640875396" lon="11.671810888529196"><ele>316.0</ele><time>2026-03-22T10:52:33.925Z</time></trkpt><trkpt lat="43.00665423414574" lon="11.67164420510086"><ele>317.0</ele><time>2026-03-22T10:52:34.925Z</time></trkpt><trkpt lat="43.006814382520055" lon="11.671461619952098"><ele>318.33333333333337</ele><time>2026-03-22T10:52:35.925Z</time></trkpt><trkpt lat="43.006978614795884" lon="11.671279677673224"><ele>319.6666666666667</ele><time>2026-03-22T10:52:36.925Z</time></trkpt><trkpt lat="43.00714767855735" lon="11.671098891229393"><ele>321.0</ele><time>2026-03-22T10:52:37.925Z</time></trkpt><trkpt lat="43.007297906748235" lon="11.670932894174944"><ele>322.0</ele><time>2026-03-22T10:52:38.925Z</time></trkpt><trkpt lat="43.00743608101437" lon="11.670778724593674"><ele>323.0</ele><time>2026-03-22T10:52:39.925Z</time></trkpt><trkpt lat="43.007544694297884" lon="11.670615666930049"><ele>324.0</ele><time>2026-03-22T10:52:40.925Z</time></trkpt><trkpt lat="43.00764215534896" lon="11.670455922466386"><ele>324.75</ele><time>2026-03-22T10:52:41.925Z</time></trkpt><trkpt lat="43.00771726960992" lon="11.670296929580003"><ele>325.5</ele><time>2026-03-22T10:52:42.925Z</time></trkpt><trkpt lat="43.00778606322338" lon="11.670130568868577"><ele>326.25</ele><time>2026-03-22T10:52:43.925Z</time></trkpt><trkpt lat="43.007828233847334" lon="11.669941308802063"><ele>327.0</ele><time>2026-03-22T10:52:44.924Z</time></trkpt><trkpt lat="43.00786799867205" lon="11.669728577511568"><ele>327.3333333333333</ele><time>2026-03-22T10:52:45.924Z</time></trkpt><trkpt lat="43.00792440463894" lon="11.669500981543253"><ele>327.66666666666663</ele><time>2026-03-22T10:52:46.924Z</time></trkpt><trkpt lat="43.00799374648646" lon="11.669263406874798"><ele>328.0</ele><time>2026-03-22T10:52:47.924Z</time></trkpt><trkpt lat="43.008096554093775" lon="11.669040069596964"><ele>328.0</ele><time>2026-03-22T10:52:48.924Z</time></trkpt><trkpt lat="43.00822517703519" lon="11.66884803268638"><ele>328.0</ele><time>2026-03-22T10:52:49.924Z</time></trkpt><trkpt lat="43.00837336505006" lon="11.668664322780923"><ele>328.0</ele><time>2026-03-22T10:52:50.924Z</time></trkpt><trkpt lat="43.00853365056761" lon="11.66847734665915"><ele>322.66666666666663</ele><time>2026-03-22T10:52:51.924Z</time></trkpt><trkpt lat="43.00869187067078" lon="11.66827203449171"><ele>317.3333333333333</ele><time>2026-03-22T10:52:52.924Z</time></trkpt><trkpt lat="43.00885097086371" lon="11.66806121621358"><ele>312.0</ele><time>2026-03-22T10:52:53.924Z</time></trkpt><trkpt lat="43.00901238381552" lon="11.667853574188634"><ele>310.3333333333333</ele><time>2026-03-22T10:52:54.924Z</time></trkpt><trkpt lat="43.00917228362112" lon="11.667646319523596"><ele>308.66666666666663</ele><time>2026-03-22T10:52:55.924Z</time></trkpt><trkpt lat="43.009326345825194" lon="11.667443136723632"><ele>307.0</ele><time>2026-03-22T10:52:56.924Z</time></trkpt><trkpt lat="43.009468393028236" lon="11.667255416242975"><ele>307.0</ele><time>2026-03-22T10:52:57.924Z</time></trkpt><trkpt lat="43.009590820575184" lon="11.667083083402682"><ele>307.0</ele><time>2026-03-22T10:52:58.924Z</time></trkpt><trkpt lat="43.00972171518271" lon="11.666926945880958"><ele>307.0</ele><time>2026-03-22T10:52:59.924Z</time></trkpt><trkpt lat="43.00983374595808" lon="11.666768531985525"><ele>307.0</ele><time>2026-03-22T10:53:00.924Z</time></trkpt><trkpt lat="43.009947885529314" lon="11.666600878868998"><ele>307.0</ele><time>2026-03-22T10:53:01.924Z</time></trkpt><trkpt lat="43.01006118186489" lon="11.66643287573989"><ele>307.0</ele><time>2026-03-22T10:53:02.924Z</time></trkpt><trkpt lat="43.01017979908301" lon="11.66625558904594"><ele>308.3333333333333</ele><time>2026-03-22T10:53:03.924Z</time></trkpt><trkpt lat="43.01030209227268" lon="11.66607280816964"><ele>309.6666666666667</ele><time>2026-03-22T10:53:04.924Z</time></trkpt><trkpt lat="43.01043779571733" lon="11.665871513639415"><ele>311.0</ele><time>2026-03-22T10:53:05.924Z</time></trkpt><trkpt lat="43.01057554664369" lon="11.665669483884544"><ele>311.0</ele><time>2026-03-22T10:53:06.924Z</time></trkpt><trkpt lat="43.010720984452405" lon="11.665457100170856"><ele>311.0</ele><time>2026-03-22T10:53:07.924Z</time></trkpt><trkpt lat="43.01089840483607" lon="11.665194992066239"><ele>309.5</ele><time>2026-03-22T10:53:08.924Z</time></trkpt><trkpt lat="43.01106478991138" lon="11.664947752458172"><ele>308.0</ele><time>2026-03-22T10:53:09.924Z</time></trkpt><trkpt lat="43.01121364095273" lon="11.664726771499947"><ele>308.0</ele><time>2026-03-22T10:53:10.926Z</time></trkpt><trkpt lat="43.011342336167225" lon="11.66450885685215"><ele>308.0</ele><time>2026-03-22T10:53:11.926Z</time></trkpt><trkpt lat="43.01147291716002" lon="11.664318100352952"><ele>308.0</ele><time>2026-03-22T10:53:12.926Z</time></trkpt><trkpt lat="43.011599991641795" lon="11.664136653138906"><ele>308.0</ele><time>2026-03-22T10:53:13.926Z</time></trkpt><trkpt lat="43.011721944165835" lon="11.66397190579262"><ele>308.0</ele><time>2026-03-22T10:53:14.925Z</time></trkpt><trkpt lat="43.011846910997974" lon="11.663832439536833"><ele>308.0</ele><time>2026-03-22T10:53:15.925Z</time></trkpt><trkpt lat="43.011965295066354" lon="11.663678040452744"><ele>308.33333333333337</ele><time>2026-03-22T10:53:16.926Z</time></trkpt><trkpt lat="43.0120855521591" lon="11.663522487809834"><ele>308.6666666666667</ele><time>2026-03-22T10:53:17.926Z</time></trkpt><trkpt lat="43.012201845962444" lon="11.663362838327698"><ele>309.0</ele><time>2026-03-22T10:53:18.926Z</time></trkpt><trkpt lat="43.01231737988189" lon="11.663214956580434"><ele>309.0</ele><time>2026-03-22T10:53:19.926Z</time></trkpt><trkpt lat="43.01242524550582" lon="11.66304875529491"><ele>309.0</ele><time>2026-03-22T10:53:20.926Z</time></trkpt><trkpt lat="43.01253012266608" lon="11.66287864218068"><ele>309.0</ele><time>2026-03-22T10:53:21.926Z</time></trkpt><trkpt lat="43.01263103102769" lon="11.662713554240593"><ele>307.3333333333333</ele><time>2026-03-22T10:53:22.925Z</time></trkpt><trkpt lat="43.01273610713752" lon="11.662540879614916"><ele>305.66666666666663</ele><time>2026-03-22T10:53:23.925Z</time></trkpt><trkpt lat="43.01284067355692" lon="11.662380411187952"><ele>304.0</ele><time>2026-03-22T10:53:24.925Z</time></trkpt><trkpt lat="43.01295367973552" lon="11.66222637232763"><ele>304.0</ele><time>2026-03-22T10:53:25.925Z</time></trkpt><trkpt lat="43.01308006859394" lon="11.662089047358087"><ele>304.0</ele><time>2026-03-22T10:53:26.925Z</time></trkpt><trkpt lat="43.01321444444367" lon="11.661964086804227"><ele>304.0</ele><time>2026-03-22T10:53:27.925Z</time></trkpt><trkpt lat="43.01335006119799" lon="11.661840028747273"><ele>304.3333333333333</ele><time>2026-03-22T10:53:28.925Z</time></trkpt><trkpt lat="43.01348009599542" lon="11.661714412342281"><ele>304.6666666666667</ele><time>2026-03-22T10:53:29.925Z</time></trkpt><trkpt lat="43.01361182135244" lon="11.661581295803375"><ele>305.0</ele><time>2026-03-22T10:53:30.925Z</time></trkpt><trkpt lat="43.01374529184417" lon="11.661441842336737"><ele>305.0</ele><time>2026-03-22T10:53:31.925Z</time></trkpt><trkpt lat="43.01388202802348" lon="11.66129231364944"><ele>305.0</ele><time>2026-03-22T10:53:32.925Z</time></trkpt><trkpt lat="43.014024802839025" lon="11.661128784180676"><ele>305.0</ele><time>2026-03-22T10:53:33.925Z</time></trkpt><trkpt lat="43.01416880654922" lon="11.66096694385909"><ele>306.6666666666667</ele><time>2026-03-22T10:53:34.925Z</time></trkpt><trkpt lat="43.0143084404612" lon="11.660808246306377"><ele>308.3333333333333</ele><time>2026-03-22T10:53:35.925Z</time></trkpt><trkpt lat="43.01443496973974" lon="11.660648101783567"><ele>310.0</ele><time>2026-03-22T10:53:36.925Z</time></trkpt><trkpt lat="43.01455446087046" lon="11.660480950614458"><ele>310.0</ele><time>2026-03-22T10:53:37.925Z</time></trkpt><trkpt lat="43.01466943507015" lon="11.66031455571586"><ele>310.0</ele><time>2026-03-22T10:53:38.925Z</time></trkpt><trkpt lat="43.01478478599013" lon="11.660149838981548"><ele>310.0</ele><time>2026-03-22T10:53:39.925Z</time></trkpt><trkpt lat="43.01489626985044" lon="11.659978095714779"><ele>310.0</ele><time>2026-03-22T10:53:40.925Z</time></trkpt><trkpt lat="43.01500180701331" lon="11.659781527332983"><ele>310.0</ele><time>2026-03-22T10:53:41.925Z</time></trkpt><trkpt lat="43.01510195521614" lon="11.659562009909319"><ele>310.0</ele><time>2026-03-22T10:53:42.925Z</time></trkpt><trkpt lat="43.015200723200714" lon="11.659307826297459"><ele>310.0</ele><time>2026-03-22T10:53:43.925Z</time></trkpt><trkpt lat="43.0153137630188" lon="11.659032352264346"><ele>310.0</ele><time>2026-03-22T10:53:44.925Z</time></trkpt><trkpt lat="43.01543385440878" lon="11.658762076893737"><ele>309.3333333333333</ele><time>2026-03-22T10:53:45.925Z</time></trkpt><trkpt lat="43.01555204462562" lon="11.658506073076971"><ele>308.6666666666667</ele><time>2026-03-22T10:53:46.924Z</time></trkpt><trkpt lat="43.0156697480488" lon="11.658250979518296"><ele>308.0</ele><time>2026-03-22T10:53:47.924Z</time></trkpt><trkpt lat="43.01579063352289" lon="11.658007922590789"><ele>305.6666666666667</ele><time>2026-03-22T10:53:48.924Z</time></trkpt><trkpt lat="43.01590783980458" lon="11.6577603743627"><ele>303.3333333333333</ele><time>2026-03-22T10:53:49.924Z</time></trkpt><trkpt lat="43.01603094350367" lon="11.65751195545085"><ele>301.0</ele><time>2026-03-22T10:53:50.924Z</time></trkpt><trkpt lat="43.01615761450816" lon="11.657264913705545"><ele>301.0</ele><time>2026-03-22T10:53:51.924Z</time></trkpt><trkpt lat="43.01630223493843" lon="11.657038398847156"><ele>301.0</ele><time>2026-03-22T10:53:52.924Z</time></trkpt><trkpt lat="43.01645858206871" lon="11.656828066924522"><ele>301.0</ele><time>2026-03-22T10:53:53.924Z</time></trkpt><trkpt lat="43.0166168289836" lon="11.656628672677822"><ele>300.0</ele><time>2026-03-22T10:53:54.924Z</time></trkpt><trkpt lat="43.01677845712167" lon="11.656432995654134"><ele>299.0</ele><time>2026-03-22T10:53:55.924Z</time></trkpt><trkpt lat="43.01693423996391" lon="11.656235751269541"><ele>298.0</ele><time>2026-03-22T10:53:56.924Z</time></trkpt><trkpt lat="43.01709486008254" lon="11.656028048348228"><ele>297.66666666666663</ele><time>2026-03-22T10:53:57.924Z</time></trkpt><trkpt lat="43.01724054281074" lon="11.655811006141745"><ele>297.3333333333333</ele><time>2026-03-22T10:53:58.924Z</time></trkpt><trkpt lat="43.017369064847216" lon="11.6555965679664"><ele>297.0</ele><time>2026-03-22T10:53:59.924Z</time></trkpt><trkpt lat="43.0174852759317" lon="11.655395684464791"><ele>295.3333333333333</ele><time>2026-03-22T10:54:00.924Z</time></trkpt><trkpt lat="43.01759623398015" lon="11.655193415356491"><ele>293.66666666666663</ele><time>2026-03-22T10:54:01.924Z</time></trkpt><trkpt lat="43.01770076137221" lon="11.654993667456045"><ele>292.0</ele><time>2026-03-22T10:54:02.924Z</time></trkpt><trkpt lat="43.017795031367854" lon="11.65482042332212"><ele>292.0</ele><time>2026-03-22T10:54:03.924Z</time></trkpt><trkpt lat="43.0178829611175" lon="11.654667746733116"><ele>292.0</ele><time>2026-03-22T10:54:04.924Z</time></trkpt><trkpt lat="43.017959976455934" lon="11.654534735272017"><ele>292.0</ele><time>2026-03-22T10:54:05.924Z</time></trkpt><trkpt lat="43.018029207905336" lon="11.654404989577761"><ele>292.0</ele><time>2026-03-22T10:54:06.924Z</time></trkpt><trkpt lat="43.01809666199744" lon="11.654277989159183"><ele>291.75</ele><time>2026-03-22T10:54:07.924Z</time></trkpt><trkpt lat="43.01816702204863" lon="11.654145728696564"><ele>291.5</ele><time>2026-03-22T10:54:08.924Z</time></trkpt><trkpt lat="43.01823728558324" lon="11.6540102705369"><ele>291.25</ele><time>2026-03-22T10:54:09.924Z</time></trkpt><trkpt lat="43.018306878707726" lon="11.65387429907149"><ele>291.0</ele><time>2026-03-22T10:54:10.924Z</time></trkpt><trkpt lat="43.018370959547546" lon="11.653730963267458"><ele>290.75</ele><time>2026-03-22T10:54:11.924Z</time></trkpt><trkpt lat="43.01843377042522" lon="11.653579659203071"><ele>290.5</ele><time>2026-03-22T10:54:12.924Z</time></trkpt><trkpt lat="43.01850083445404" lon="11.653423943081277"><ele>290.25</ele><time>2026-03-22T10:54:13.923Z</time></trkpt><trkpt lat="43.018565377628875" lon="11.653242620639631"><ele>290.0</ele><time>2026-03-22T10:54:14.923Z</time></trkpt><trkpt lat="43.01865469212452" lon="11.65305908734689"><ele>290.0</ele><time>2026-03-22T10:54:15.923Z</time></trkpt><trkpt lat="43.01873483386808" lon="11.652855130165666"><ele>290.0</ele><time>2026-03-22T10:54:16.923Z</time></trkpt><trkpt lat="43.01881976376637" lon="11.652644248665514"><ele>290.0</ele><time>2026-03-22T10:54:17.923Z</time></trkpt><trkpt lat="43.01889466956665" lon="11.652414457361447"><ele>289.6666666666667</ele><time>2026-03-22T10:54:18.923Z</time></trkpt><trkpt lat="43.01898968997341" lon="11.652196798449838"><ele>289.3333333333333</ele><time>2026-03-22T10:54:19.923Z</time></trkpt><trkpt lat="43.01908207877465" lon="11.651970387115636"><ele>289.0</ele><time>2026-03-22T10:54:20.923Z</time></trkpt><trkpt lat="43.01917587851298" lon="11.651738631021603"><ele>288.3333333333333</ele><time>2026-03-22T10:54:21.923Z</time></trkpt><trkpt lat="43.0192727264487" lon="11.65151210300049"><ele>287.6666666666667</ele><time>2026-03-22T10:54:22.923Z</time></trkpt><trkpt lat="43.019382266726296" lon="11.651297059865016"><ele>287.0</ele><time>2026-03-22T10:54:23.923Z</time></trkpt><trkpt lat="43.01951000691897" lon="11.651103280212551"><ele>286.6666666666667</ele><time>2026-03-22T10:54:24.923Z</time></trkpt><trkpt lat="43.01965379539155" lon="11.650932003739916"><ele>286.3333333333333</ele><time>2026-03-22T10:54:25.923Z</time></trkpt><trkpt lat="43.01980551454338" lon="11.650779981204245"><ele>286.0</ele><time>2026-03-22T10:54:26.923Z</time></trkpt><trkpt lat="43.01995343518697" lon="11.65063442654776"><ele>284.66666666666663</ele><time>2026-03-22T10:54:27.923Z</time></trkpt><trkpt lat="43.0200944932268" lon="11.650490318402388"><ele>283.3333333333333</ele><time>2026-03-22T10:54:28.923Z</time></trkpt><trkpt lat="43.02022859269303" lon="11.650341772519727"><ele>282.0</ele><time>2026-03-22T10:54:29.923Z</time></trkpt><trkpt lat="43.02034623677536" lon="11.650178799485646"><ele>281.0</ele><time>2026-03-22T10:54:30.923Z</time></trkpt><trkpt lat="43.02043565973084" lon="11.649997602616942"><ele>280.0</ele><time>2026-03-22T10:54:31.923Z</time></trkpt><trkpt lat="43.02050485575493" lon="11.649791985174886"><ele>279.0</ele><time>2026-03-22T10:54:32.923Z</time></trkpt><trkpt lat="43.02054942877165" lon="11.64956557725823"><ele>278.3333333333333</ele><time>2026-03-22T10:54:33.923Z</time></trkpt><trkpt lat="43.020576488609535" lon="11.649321131546108"><ele>277.66666666666663</ele><time>2026-03-22T10:54:34.923Z</time></trkpt><trkpt lat="43.0205811914515" lon="11.649068400299008"><ele>277.0</ele><time>2026-03-22T10:54:35.923Z</time></trkpt><trkpt lat="43.02056939594054" lon="11.648805025874532"><ele>277.3333333333333</ele><time>2026-03-22T10:54:36.923Z</time></trkpt><trkpt lat="43.020548176816675" lon="11.648535925993656"><ele>277.6666666666667</ele><time>2026-03-22T10:54:37.923Z</time></trkpt><trkpt lat="43.02051768311783" lon="11.648262055917241"><ele>278.0</ele><time>2026-03-22T10:54:38.923Z</time></trkpt><trkpt lat="43.02048037550525" lon="11.647993753522819"><ele>277.33333333333337</ele><time>2026-03-22T10:54:39.923Z</time></trkpt><trkpt lat="43.0204409859696" lon="11.647725132508336"><ele>276.6666666666667</ele><time>2026-03-22T10:54:40.923Z</time></trkpt><trkpt lat="43.02040143674983" lon="11.647453484286771"><ele>276.0</ele><time>2026-03-22T10:54:41.922Z</time></trkpt><trkpt lat="43.02036632079367" lon="11.647185912375358"><ele>274.6666666666667</ele><time>2026-03-22T10:54:42.922Z</time></trkpt><trkpt lat="43.020327540017156" lon="11.646919068285463"><ele>273.33333333333337</ele><time>2026-03-22T10:54:43.922Z</time></trkpt><trkpt lat="43.020288565105524" lon="11.646650841645789"><ele>272.0</ele><time>2026-03-22T10:54:44.922Z</time></trkpt><trkpt lat="43.02025143359871" lon="11.646378630213604"><ele>270.6666666666667</ele><time>2026-03-22T10:54:45.922Z</time></trkpt><trkpt lat="43.02021352271761" lon="11.64610469327294"><ele>269.3333333333333</ele><time>2026-03-22T10:54:46.922Z</time></trkpt><trkpt lat="43.0201742956508" lon="11.645830216265818"><ele>268.0</ele><time>2026-03-22T10:54:47.922Z</time></trkpt><trkpt lat="43.02013417609277" lon="11.64555192419994"><ele>267.66666666666663</ele><time>2026-03-22T10:54:48.922Z</time></trkpt><trkpt lat="43.020094951835446" lon="11.64527518335797"><ele>267.3333333333333</ele><time>2026-03-22T10:54:49.922Z</time></trkpt><trkpt lat="43.0200569911832" lon="11.644998257954937"><ele>267.0</ele><time>2026-03-22T10:54:50.922Z</time></trkpt><trkpt lat="43.02002082278146" lon="11.644719814476975"><ele>267.0</ele><time>2026-03-22T10:54:51.922Z</time></trkpt><trkpt lat="43.019984025766874" lon="11.644437370539434"><ele>267.0</ele><time>2026-03-22T10:54:52.922Z</time></trkpt><trkpt lat="43.01994887079555" lon="11.644153551251735"><ele>267.0</ele><time>2026-03-22T10:54:53.922Z</time></trkpt><trkpt lat="43.019917671415406" lon="11.643870607312042"><ele>267.6666666666667</ele><time>2026-03-22T10:54:54.922Z</time></trkpt><trkpt lat="43.019894099766105" lon="11.643579597766202"><ele>268.33333333333337</ele><time>2026-03-22T10:54:55.922Z</time></trkpt><trkpt lat="43.01987478576265" lon="11.64329714209078"><ele>269.0</ele><time>2026-03-22T10:54:56.922Z</time></trkpt><trkpt lat="43.019855090600764" lon="11.643023568195265"><ele>269.6666666666667</ele><time>2026-03-22T10:54:57.922Z</time></trkpt><trkpt lat="43.019840918628304" lon="11.642776122917757"><ele>270.3333333333333</ele><time>2026-03-22T10:54:58.922Z</time></trkpt><trkpt lat="43.01985150205205" lon="11.642544130177106"><ele>271.0</ele><time>2026-03-22T10:54:59.922Z</time></trkpt><trkpt lat="43.01989594171939" lon="11.642340682080022"><ele>270.66666666666663</ele><time>2026-03-22T10:55:00.922Z</time></trkpt><trkpt lat="43.019986775476326" lon="11.642178952906196"><ele>270.3333333333333</ele><time>2026-03-22T10:55:01.922Z</time></trkpt><trkpt lat="43.02008739139679" lon="11.642022835421871"><ele>270.0</ele><time>2026-03-22T10:55:02.922Z</time></trkpt><trkpt lat="43.02018583523016" lon="11.641839830356693"><ele>271.0</ele><time>2026-03-22T10:55:03.922Z</time></trkpt><trkpt lat="43.02030219783532" lon="11.64166473988635"><ele>272.0</ele><time>2026-03-22T10:55:04.922Z</time></trkpt><trkpt lat="43.02041883364428" lon="11.641473435062926"><ele>273.0</ele><time>2026-03-22T10:55:05.922Z</time></trkpt><trkpt lat="43.020540927963765" lon="11.641279799055516"><ele>273.6666666666667</ele><time>2026-03-22T10:55:06.922Z</time></trkpt><trkpt lat="43.020667553901255" lon="11.641080535617977"><ele>274.33333333333337</ele><time>2026-03-22T10:55:07.922Z</time></trkpt><trkpt lat="43.020806784651754" lon="11.640879179374714"><ele>275.0</ele><time>2026-03-22T10:55:08.922Z</time></trkpt><trkpt lat="43.02093679920352" lon="11.64068580527536"><ele>277.0</ele><time>2026-03-22T10:55:09.921Z</time></trkpt><trkpt lat="43.02105286693273" lon="11.640490288510465"><ele>279.0</ele><time>2026-03-22T10:55:10.921Z</time></trkpt><trkpt lat="43.021160125240826" lon="11.640286787076803"><ele>281.0</ele><time>2026-03-22T10:55:11.921Z</time></trkpt><trkpt lat="43.02124882536445" lon="11.64008710659983"><ele>282.0</ele><time>2026-03-22T10:55:12.921Z</time></trkpt><trkpt lat="43.02131719867809" lon="11.63988731579228"><ele>283.0</ele><time>2026-03-22T10:55:13.921Z</time></trkpt><trkpt lat="43.02136945410413" lon="11.63966930439586"><ele>284.0</ele><time>2026-03-22T10:55:14.921Z</time></trkpt><trkpt lat="43.021412392156776" lon="11.639431857416813"><ele>284.33333333333337</ele><time>2026-03-22T10:55:15.921Z</time></trkpt><trkpt lat="43.02145423542875" lon="11.639184064063087"><ele>284.6666666666667</ele><time>2026-03-22T10:55:16.924Z</time></trkpt><trkpt lat="43.02149196828883" lon="11.638941899019486"><ele>285.0</ele><time>2026-03-22T10:55:17.925Z</time></trkpt><trkpt lat="43.021531103374954" lon="11.63870802188194"><ele>286.0</ele><time>2026-03-22T10:55:18.925Z</time></trkpt><trkpt lat="43.021567682601706" lon="11.638469703646079"><ele>287.0</ele><time>2026-03-22T10:55:19.924Z</time></trkpt><trkpt lat="43.02160286087929" lon="11.638233076845983"><ele>288.0</ele><time>2026-03-22T10:55:20.924Z</time></trkpt><trkpt lat="43.02163617683135" lon="11.638004519432949"><ele>287.3333333333333</ele><time>2026-03-22T10:55:21.924Z</time></trkpt><trkpt lat="43.02167082090984" lon="11.637783390816777"><ele>286.66666666666663</ele><time>2026-03-22T10:55:22.924Z</time></trkpt><trkpt lat="43.021704578310924" lon="11.6375732937272"><ele>286.0</ele><time>2026-03-22T10:55:23.924Z</time></trkpt><trkpt lat="43.02173554304121" lon="11.637372946514462"><ele>286.0</ele><time>2026-03-22T10:55:24.924Z</time></trkpt><trkpt lat="43.021765361474614" lon="11.637192318035183"><ele>286.0</ele><time>2026-03-22T10:55:25.924Z</time></trkpt><trkpt lat="43.02179277024362" lon="11.637023692439449"><ele>286.0</ele><time>2026-03-22T10:55:26.924Z</time></trkpt><trkpt lat="43.02181908870469" lon="11.636865583279759"><ele>286.0</ele><time>2026-03-22T10:55:27.924Z</time></trkpt><trkpt lat="43.021845386362386" lon="11.63671299460866"><ele>286.2</ele><time>2026-03-22T10:55:28.924Z</time></trkpt><trkpt lat="43.021870379923" lon="11.636567126905886"><ele>286.40000000000003</ele><time>2026-03-22T10:55:29.924Z</time></trkpt><trkpt lat="43.02189345750514" lon="11.636425614030626"><ele>286.6</ele><time>2026-03-22T10:55:30.924Z</time></trkpt><trkpt lat="43.0219167094943" lon="11.636279080671924"><ele>286.8</ele><time>2026-03-22T10:55:31.924Z</time></trkpt><trkpt lat="43.02194299396237" lon="11.63612624097295"><ele>287.0</ele><time>2026-03-22T10:55:32.924Z</time></trkpt><trkpt lat="43.02196749395545" lon="11.635964882361739"><ele>286.0</ele><time>2026-03-22T10:55:33.924Z</time></trkpt><trkpt lat="43.021999377646495" lon="11.635773320538778"><ele>285.0</ele><time>2026-03-22T10:55:34.924Z</time></trkpt><trkpt lat="43.02203577409168" lon="11.635555440069183"><ele>284.0</ele><time>2026-03-22T10:55:35.924Z</time></trkpt><trkpt lat="43.022070690107604" lon="11.635327033543229"><ele>283.33333333333337</ele><time>2026-03-22T10:55:36.924Z</time></trkpt><trkpt lat="43.02210322380939" lon="11.635084889300098"><ele>282.6666666666667</ele><time>2026-03-22T10:55:37.924Z</time></trkpt><trkpt lat="43.02213959939649" lon="11.634828719224206"><ele>282.0</ele><time>2026-03-22T10:55:38.924Z</time></trkpt><trkpt lat="43.02218182627183" lon="11.634559071814152"><ele>281.0</ele><time>2026-03-22T10:55:39.924Z</time></trkpt><trkpt lat="43.022220281603296" lon="11.634301082723209"><ele>280.0</ele><time>2026-03-22T10:55:40.924Z</time></trkpt><trkpt lat="43.02225448355887" lon="11.634055287049307"><ele>279.0</ele><time>2026-03-22T10:55:41.924Z</time></trkpt><trkpt lat="43.02228885207494" lon="11.633816502701475"><ele>277.6666666666667</ele><time>2026-03-22T10:55:42.924Z</time></trkpt><trkpt lat="43.022322117083036" lon="11.633586043008414"><ele>276.33333333333337</ele><time>2026-03-22T10:55:43.924Z</time></trkpt><trkpt lat="43.022358150809275" lon="11.633369429128747"><ele>275.0</ele><time>2026-03-22T10:55:44.924Z</time></trkpt><trkpt lat="43.022401908582296" lon="11.633178834266646"><ele>275.0</ele><time>2026-03-22T10:55:45.924Z</time></trkpt><trkpt lat="43.02246460361624" lon="11.632990909658837"><ele>275.0</ele><time>2026-03-22T10:55:46.924Z</time></trkpt><trkpt lat="43.022562949207185" lon="11.632821207734537"><ele>275.0</ele><time>2026-03-22T10:55:47.924Z</time></trkpt><trkpt lat="43.02267712478189" lon="11.632679944734855"><ele>273.0</ele><time>2026-03-22T10:55:48.924Z</time></trkpt><trkpt lat="43.022810665674" lon="11.632576856001643"><ele>271.0</ele><time>2026-03-22T10:55:49.924Z</time></trkpt><trkpt lat="43.022959371628595" lon="11.632555516744617"><ele>269.0</ele><time>2026-03-22T10:55:50.924Z</time></trkpt><trkpt lat="43.02311136912347" lon="11.632526856207193"><ele>269.0</ele><time>2026-03-22T10:55:51.924Z</time></trkpt><trkpt lat="43.02326962079317" lon="11.632465660713072"><ele>269.0</ele><time>2026-03-22T10:55:52.924Z</time></trkpt><trkpt lat="43.023412826616486" lon="11.632336382307553"><ele>269.0</ele><time>2026-03-22T10:55:53.923Z</time></trkpt><trkpt lat="43.02356797195569" lon="11.63221098237056"><ele>268.6666666666667</ele><time>2026-03-22T10:55:54.923Z</time></trkpt><trkpt lat="43.023720586784506" lon="11.632073697070695"><ele>268.3333333333333</ele><time>2026-03-22T10:55:55.923Z</time></trkpt><trkpt lat="43.023869621212164" lon="11.631937836344585"><ele>268.0</ele><time>2026-03-22T10:55:56.923Z</time></trkpt><trkpt lat="43.02401393294078" lon="11.63180771411313"><ele>266.66666666666663</ele><time>2026-03-22T10:55:57.923Z</time></trkpt><trkpt lat="43.02415260045975" lon="11.631682140059356"><ele>265.3333333333333</ele><time>2026-03-22T10:55:58.923Z</time></trkpt><trkpt lat="43.024286623325565" lon="11.631561998528964"><ele>264.0</ele><time>2026-03-22T10:55:59.923Z</time></trkpt><trkpt lat="43.02441394023431" lon="11.631444059396003"><ele>264.0</ele><time>2026-03-22T10:56:00.923Z</time></trkpt><trkpt lat="43.02452992280963" lon="11.631325150988491"><ele>264.0</ele><time>2026-03-22T10:56:01.923Z</time></trkpt><trkpt lat="43.02462142814743" lon="11.631187582236933"><ele>264.0</ele><time>2026-03-22T10:56:02.923Z</time></trkpt><trkpt lat="43.0246739354157" lon="11.631029804654014"><ele>264.0</ele><time>2026-03-22T10:56:03.923Z</time></trkpt><trkpt lat="43.0246915755746" lon="11.630865793706413"><ele>264.25</ele><time>2026-03-22T10:56:04.923Z</time></trkpt><trkpt lat="43.024700588456454" lon="11.630691905288876"><ele>264.5</ele><time>2026-03-22T10:56:05.923Z</time></trkpt><trkpt lat="43.024709117215" lon="11.630517474202158"><ele>264.75</ele><time>2026-03-22T10:56:06.923Z</time></trkpt><trkpt lat="43.02472642466524" lon="11.63033268294932"><ele>265.0</ele><time>2026-03-22T10:56:07.923Z</time></trkpt><trkpt lat="43.02475794950305" lon="11.630139147838676"><ele>265.0</ele><time>2026-03-22T10:56:08.923Z</time></trkpt><trkpt lat="43.02481143940217" lon="11.62994827770404"><ele>265.0</ele><time>2026-03-22T10:56:09.923Z</time></trkpt><trkpt lat="43.02488976724909" lon="11.62976246464164"><ele>265.0</ele><time>2026-03-22T10:56:10.923Z</time></trkpt><trkpt lat="43.02498353766684" lon="11.629580334070972"><ele>267.0</ele><time>2026-03-22T10:56:11.923Z</time></trkpt><trkpt lat="43.02508254565934" lon="11.629393205336589"><ele>269.0</ele><time>2026-03-22T10:56:12.923Z</time></trkpt><trkpt lat="43.02517298404567" lon="11.629192204093334"><ele>271.0</ele><time>2026-03-22T10:56:13.923Z</time></trkpt><trkpt lat="43.02526328420976" lon="11.629016436043523"><ele>271.0</ele><time>2026-03-22T10:56:14.923Z</time></trkpt><trkpt lat="43.02534844355425" lon="11.628855831805591"><ele>271.0</ele><time>2026-03-22T10:56:15.923Z</time></trkpt><trkpt lat="43.025428257612596" lon="11.628698389572497"><ele>271.0</ele><time>2026-03-22T10:56:16.923Z</time></trkpt><trkpt lat="43.02550823068811" lon="11.628546339107062"><ele>271.0</ele><time>2026-03-22T10:56:17.923Z</time></trkpt><trkpt lat="43.02558188923478" lon="11.62840814539393"><ele>271.3333333333333</ele><time>2026-03-22T10:56:18.923Z</time></trkpt><trkpt lat="43.0256442193632" lon="11.628290255074678"><ele>271.66666666666663</ele><time>2026-03-22T10:56:19.923Z</time></trkpt><trkpt lat="43.025699638181045" lon="11.628190246416217"><ele>272.0</ele><time>2026-03-22T10:56:20.923Z</time></trkpt><trkpt lat="43.0257514365761" lon="11.62810757894068"><ele>272.3333333333333</ele><time>2026-03-22T10:56:21.922Z</time></trkpt><trkpt lat="43.02580080457001" lon="11.62804957156579"><ele>272.6666666666667</ele><time>2026-03-22T10:56:22.922Z</time></trkpt><trkpt lat="43.02588661039043" lon="11.62798745161121"><ele>273.0</ele><time>2026-03-22T10:56:24.922Z</time></trkpt><trkpt lat="43.025947405074895" lon="11.627940624178713"><ele>273.0</ele><time>2026-03-22T10:56:26.922Z</time></trkpt><trkpt lat="43.02602399492597" lon="11.627951359553785"><ele>273.0</ele><time>2026-03-22T10:56:29.922Z</time></trkpt><trkpt lat="43.026084216974475" lon="11.627920416644747"><ele>273.0</ele><time>2026-03-22T10:57:23.923Z</time></trkpt><trkpt lat="43.02615584442265" lon="11.627897533192169"><ele>273.0</ele><time>2026-03-22T10:57:25.922Z</time></trkpt><trkpt lat="43.02625149607364" lon="11.627881796787893"><ele>273.0</ele><time>2026-03-22T10:57:26.922Z</time></trkpt><trkpt lat="43.02635423032597" lon="11.627876627225522"><ele>273.0</ele><time>2026-03-22T10:57:27.922Z</time></trkpt><trkpt lat="43.02647042412455" lon="11.627859761485315"><ele>273.0</ele><time>2026-03-22T10:57:28.922Z</time></trkpt><trkpt lat="43.02658554485457" lon="11.627840705918752"><ele>273.0</ele><time>2026-03-22T10:57:29.922Z</time></trkpt><trkpt lat="43.026704812019844" lon="11.627821181016367"><ele>273.0</ele><time>2026-03-22T10:57:30.922Z</time></trkpt><trkpt lat="43.02682165209394" lon="11.62780375291478"><ele>273.0</ele><time>2026-03-22T10:57:31.922Z</time></trkpt><trkpt lat="43.026947243878794" lon="11.627786191224716"><ele>274.5</ele><time>2026-03-22T10:57:32.922Z</time></trkpt><trkpt lat="43.02707572509025" lon="11.627758626180498"><ele>276.0</ele><time>2026-03-22T10:57:33.922Z</time></trkpt><trkpt lat="43.02719938786186" lon="11.62771183189301"><ele>277.5</ele><time>2026-03-22T10:57:34.922Z</time></trkpt><trkpt lat="43.02731035340404" lon="11.627636796812457"><ele>279.0</ele><time>2026-03-22T10:57:35.922Z</time></trkpt><trkpt lat="43.02740445194191" lon="11.627529855238562"><ele>277.25</ele><time>2026-03-22T10:57:36.922Z</time></trkpt><trkpt lat="43.02748142406981" lon="11.627386445415304"><ele>275.5</ele><time>2026-03-22T10:57:37.922Z</time></trkpt><trkpt lat="43.027545803241914" lon="11.627232503645088"><ele>273.75</ele><time>2026-03-22T10:57:38.922Z</time></trkpt><trkpt lat="43.02760460175528" lon="11.627071563357765"><ele>272.0</ele><time>2026-03-22T10:57:39.922Z</time></trkpt><trkpt lat="43.02765154573163" lon="11.626906684121233"><ele>272.0</ele><time>2026-03-22T10:57:40.922Z</time></trkpt><trkpt lat="43.02767628209289" lon="11.626737705558295"><ele>272.0</ele><time>2026-03-22T10:57:41.922Z</time></trkpt><trkpt lat="43.027671064735785" lon="11.626568882224957"><ele>272.0</ele><time>2026-03-22T10:57:42.922Z</time></trkpt><trkpt lat="43.02764643958742" lon="11.626400147964475"><ele>272.0</ele><time>2026-03-22T10:57:43.922Z</time></trkpt><trkpt lat="43.027629932366146" lon="11.62624741953816"><ele>270.2</ele><time>2026-03-22T10:57:44.922Z</time></trkpt><trkpt lat="43.02763879698354" lon="11.626103463012214"><ele>268.4</ele><time>2026-03-22T10:57:45.922Z</time></trkpt><trkpt lat="43.0276866365047" lon="11.62598807831746"><ele>266.6</ele><time>2026-03-22T10:57:46.921Z</time></trkpt><trkpt lat="43.02775853426069" lon="11.625898977455053"><ele>264.8</ele><time>2026-03-22T10:57:47.921Z</time></trkpt><trkpt lat="43.027837299693175" lon="11.625828347611575"><ele>263.0</ele><time>2026-03-22T10:57:48.921Z</time></trkpt><trkpt lat="43.02791313830994" lon="11.625753010495197"><ele>263.0</ele><time>2026-03-22T10:57:49.921Z</time></trkpt><trkpt lat="43.027984175879105" lon="11.625664234588971"><ele>263.0</ele><time>2026-03-22T10:57:50.921Z</time></trkpt><trkpt lat="43.02805417181199" lon="11.625573449169488"><ele>263.0</ele><time>2026-03-22T10:57:51.921Z</time></trkpt><trkpt lat="43.0281298353151" lon="11.625489819539819"><ele>263.0</ele><time>2026-03-22T10:57:52.921Z</time></trkpt><trkpt lat="43.02821146316801" lon="11.62541210239203"><ele>263.0</ele><time>2026-03-22T10:57:53.921Z</time></trkpt><trkpt lat="43.02829879274464" lon="11.625347062767242"><ele>262.4</ele><time>2026-03-22T10:57:54.921Z</time></trkpt><trkpt lat="43.028389009707794" lon="11.625320198095284"><ele>261.8</ele><time>2026-03-22T10:57:55.921Z</time></trkpt><trkpt lat="43.02847190923947" lon="11.625338216417832"><ele>261.2</ele><time>2026-03-22T10:57:56.921Z</time></trkpt><trkpt lat="43.028532213208" lon="11.625411280579277"><ele>260.6</ele><time>2026-03-22T10:57:57.921Z</time></trkpt><trkpt lat="43.02859669349913" lon="11.625506391457616"><ele>260.0</ele><time>2026-03-22T10:57:58.921Z</time></trkpt><trkpt lat="43.02867353629442" lon="11.625623617141196"><ele>260.0</ele><time>2026-03-22T10:57:59.921Z</time></trkpt><trkpt lat="43.028767336138664" lon="11.62574318171885"><ele>260.0</ele><time>2026-03-22T10:58:00.921Z</time></trkpt><trkpt lat="43.028882759562" lon="11.625836432195797"><ele>260.0</ele><time>2026-03-22T10:58:01.921Z</time></trkpt><trkpt lat="43.02901134309368" lon="11.625887797836278"><ele>260.0</ele><time>2026-03-22T10:58:02.921Z</time></trkpt><trkpt lat="43.02913809068877" lon="11.625952283563052"><ele>259.0</ele><time>2026-03-22T10:58:03.921Z</time></trkpt><trkpt lat="43.02926858356905" lon="11.62600119266904"><ele>258.0</ele><time>2026-03-22T10:58:04.921Z</time></trkpt><trkpt lat="43.0294111234146" lon="11.626049247370457"><ele>257.0</ele><time>2026-03-22T10:58:05.921Z</time></trkpt><trkpt lat="43.029545152454865" lon="11.62611626396468"><ele>256.0</ele><time>2026-03-22T10:58:06.921Z</time></trkpt><trkpt lat="43.02968055376577" lon="11.626202268954904"><ele>256.0</ele><time>2026-03-22T10:58:07.921Z</time></trkpt><trkpt lat="43.029819550972825" lon="11.626290262204046"><ele>256.0</ele><time>2026-03-22T10:58:08.921Z</time></trkpt><trkpt lat="43.02995820036757" lon="11.626366602773288"><ele>256.0</ele><time>2026-03-22T10:58:09.921Z</time></trkpt><trkpt lat="43.03009067631638" lon="11.626438431626775"><ele>256.0</ele><time>2026-03-22T10:58:10.921Z</time></trkpt><trkpt lat="43.03023502005789" lon="11.626485525869073"><ele>256.75</ele><time>2026-03-22T10:58:11.921Z</time></trkpt><trkpt lat="43.030380361883864" lon="11.626509355180325"><ele>257.5</ele><time>2026-03-22T10:58:12.921Z</time></trkpt><trkpt lat="43.03052570486834" lon="11.626538694475187"><ele>258.25</ele><time>2026-03-22T10:58:13.92Z</time></trkpt><trkpt lat="43.030671238063775" lon="11.626578663107283"><ele>259.0</ele><time>2026-03-22T10:58:14.92Z</time></trkpt><trkpt lat="43.03082333124569" lon="11.62661958008168"><ele>260.66666666666663</ele><time>2026-03-22T10:58:15.92Z</time></trkpt><trkpt lat="43.03097899861424" lon="11.626664361538364"><ele>262.3333333333333</ele><time>2026-03-22T10:58:16.92Z</time></trkpt><trkpt lat="43.03113483067389" lon="11.626713197441957"><ele>264.0</ele><time>2026-03-22T10:58:17.92Z</time></trkpt><trkpt lat="43.031284480712266" lon="11.626762130261485"><ele>264.0</ele><time>2026-03-22T10:58:18.92Z</time></trkpt><trkpt lat="43.03143640280842" lon="11.626808240714192"><ele>264.0</ele><time>2026-03-22T10:58:19.92Z</time></trkpt><trkpt lat="43.03158378501145" lon="11.626855580635983"><ele>264.0</ele><time>2026-03-22T10:58:20.92Z</time></trkpt><trkpt lat="43.03172852593315" lon="11.626896673339237"><ele>263.3333333333333</ele><time>2026-03-22T10:58:21.92Z</time></trkpt><trkpt lat="43.031878212030854" lon="11.626941817874242"><ele>262.66666666666663</ele><time>2026-03-22T10:58:22.92Z</time></trkpt><trkpt lat="43.032032372346215" lon="11.626990444833789"><ele>262.0</ele><time>2026-03-22T10:58:23.92Z</time></trkpt><trkpt lat="43.0321912155104" lon="11.627039402556203"><ele>260.3333333333333</ele><time>2026-03-22T10:58:24.92Z</time></trkpt><trkpt lat="43.03234879080904" lon="11.627090782502231"><ele>258.6666666666667</ele><time>2026-03-22T10:58:25.92Z</time></trkpt><trkpt lat="43.03250837341683" lon="11.627144067765157"><ele>257.0</ele><time>2026-03-22T10:58:26.92Z</time></trkpt><trkpt lat="43.03266985753702" lon="11.627199857335857"><ele>257.0</ele><time>2026-03-22T10:58:27.92Z</time></trkpt><trkpt lat="43.0328248688404" lon="11.627250430908497"><ele>257.0</ele><time>2026-03-22T10:58:28.92Z</time></trkpt><trkpt lat="43.032971789231574" lon="11.627295656337218"><ele>257.0</ele><time>2026-03-22T10:58:29.92Z</time></trkpt><trkpt lat="43.03310769197395" lon="11.627341882145668"><ele>257.0</ele><time>2026-03-22T10:58:30.92Z</time></trkpt><trkpt lat="43.033240413753184" lon="11.627383377499415"><ele>257.0</ele><time>2026-03-22T10:58:31.92Z</time></trkpt><trkpt lat="43.03337360054795" lon="11.627430729582946"><ele>257.0</ele><time>2026-03-22T10:58:32.92Z</time></trkpt><trkpt lat="43.0335100840941" lon="11.627471838514591"><ele>257.0</ele><time>2026-03-22T10:58:33.92Z</time></trkpt><trkpt lat="43.033636267716076" lon="11.627513279835691"><ele>258.0</ele><time>2026-03-22T10:58:34.92Z</time></trkpt><trkpt lat="43.033763295297334" lon="11.627557230594647"><ele>259.0</ele><time>2026-03-22T10:58:35.92Z</time></trkpt><trkpt lat="43.03388610309932" lon="11.627596920235932"><ele>260.0</ele><time>2026-03-22T10:58:36.92Z</time></trkpt><trkpt lat="43.03400315466873" lon="11.627630854083575"><ele>261.0</ele><time>2026-03-22T10:58:37.92Z</time></trkpt><trkpt lat="43.034124173782764" lon="11.627661722785813"><ele>262.5</ele><time>2026-03-22T10:58:38.92Z</time></trkpt><trkpt lat="43.03425010222613" lon="11.627674291588278"><ele>264.0</ele><time>2026-03-22T10:58:39.92Z</time></trkpt><trkpt lat="43.03437794107444" lon="11.627670278501439"><ele>265.5</ele><time>2026-03-22T10:58:40.92Z</time></trkpt><trkpt lat="43.03451944612236" lon="11.627655684734382"><ele>267.0</ele><time>2026-03-22T10:58:41.919Z</time></trkpt><trkpt lat="43.03467501906225" lon="11.627636363775046"><ele>267.0</ele><time>2026-03-22T10:58:42.919Z</time></trkpt><trkpt lat="43.034841021261855" lon="11.627596940934078"><ele>267.0</ele><time>2026-03-22T10:58:43.919Z</time></trkpt><trkpt lat="43.03499405934581" lon="11.6275745070079"><ele>267.0</ele><time>2026-03-22T10:58:44.919Z</time></trkpt><trkpt lat="43.03513220283134" lon="11.627549094542093"><ele>267.6666666666667</ele><time>2026-03-22T10:58:45.919Z</time></trkpt><trkpt lat="43.03528241743746" lon="11.627520051720047"><ele>268.33333333333337</ele><time>2026-03-22T10:58:46.919Z</time></trkpt><trkpt lat="43.035446723383984" lon="11.627486877118903"><ele>269.0</ele><time>2026-03-22T10:58:47.919Z</time></trkpt><trkpt lat="43.035627449764036" lon="11.627466734124113"><ele>269.6666666666667</ele><time>2026-03-22T10:58:48.919Z</time></trkpt><trkpt lat="43.035813981654144" lon="11.62744023261925"><ele>270.3333333333333</ele><time>2026-03-22T10:58:49.919Z</time></trkpt><trkpt lat="43.035986535185344" lon="11.627409603576508"><ele>271.0</ele><time>2026-03-22T10:58:50.919Z</time></trkpt><trkpt lat="43.03614928496085" lon="11.627380926908897"><ele>271.0</ele><time>2026-03-22T10:58:51.919Z</time></trkpt><trkpt lat="43.0363061301742" lon="11.627357572550048"><ele>271.0</ele><time>2026-03-22T10:58:52.919Z</time></trkpt><trkpt lat="43.03646033487551" lon="11.62732854347383"><ele>271.0</ele><time>2026-03-22T10:58:53.919Z</time></trkpt><trkpt lat="43.0366200319213" lon="11.627298871985394"><ele>269.3333333333333</ele><time>2026-03-22T10:58:54.919Z</time></trkpt><trkpt lat="43.03678569271657" lon="11.627271223070107"><ele>267.6666666666667</ele><time>2026-03-22T10:58:55.919Z</time></trkpt><trkpt lat="43.03695244115158" lon="11.627242498248942"><ele>266.0</ele><time>2026-03-22T10:58:56.919Z</time></trkpt><trkpt lat="43.03712291063309" lon="11.627211181889631"><ele>266.0</ele><time>2026-03-22T10:58:57.919Z</time></trkpt><trkpt lat="43.03729308775308" lon="11.627185302361932"><ele>266.0</ele><time>2026-03-22T10:58:58.919Z</time></trkpt><trkpt lat="43.03746985865941" lon="11.62715112995793"><ele>266.0</ele><time>2026-03-22T10:58:59.919Z</time></trkpt><trkpt lat="43.03764889769805" lon="11.62711995515637"><ele>265.6666666666667</ele><time>2026-03-22T10:59:00.919Z</time></trkpt><trkpt lat="43.037832797703665" lon="11.627087039929608"><ele>265.3333333333333</ele><time>2026-03-22T10:59:01.919Z</time></trkpt><trkpt lat="43.03801812392858" lon="11.62705771645344"><ele>265.0</ele><time>2026-03-22T10:59:02.919Z</time></trkpt><trkpt lat="43.03820353044055" lon="11.62702175433571"><ele>265.0</ele><time>2026-03-22T10:59:03.919Z</time></trkpt><trkpt lat="43.03838355295463" lon="11.626984847944922"><ele>265.0</ele><time>2026-03-22T10:59:04.919Z</time></trkpt><trkpt lat="43.03855622924039" lon="11.626950742864492"><ele>265.0</ele><time>2026-03-22T10:59:05.919Z</time></trkpt><trkpt lat="43.038716952715575" lon="11.626929089474224"><ele>267.66666666666663</ele><time>2026-03-22T10:59:06.919Z</time></trkpt><trkpt lat="43.038887979520155" lon="11.626912559138143"><ele>270.3333333333333</ele><time>2026-03-22T10:59:07.919Z</time></trkpt><trkpt lat="43.03906276742752" lon="11.626900955140261"><ele>273.0</ele><time>2026-03-22T10:59:08.919Z</time></trkpt><trkpt lat="43.039238207429605" lon="11.626895104273604"><ele>273.0</ele><time>2026-03-22T10:59:09.918Z</time></trkpt><trkpt lat="43.03941530224764" lon="11.62688720476385"><ele>273.0</ele><time>2026-03-22T10:59:10.918Z</time></trkpt><trkpt lat="43.0395896742082" lon="11.626882707201402"><ele>273.0</ele><time>2026-03-22T10:59:11.918Z</time></trkpt><trkpt lat="43.03976571260597" lon="11.62688372797306"><ele>273.0</ele><time>2026-03-22T10:59:12.918Z</time></trkpt><trkpt lat="43.03993603625017" lon="11.626885571840821"><ele>273.0</ele><time>2026-03-22T10:59:13.918Z</time></trkpt><trkpt lat="43.0401005733746" lon="11.62688521944777"><ele>273.0</ele><time>2026-03-22T10:59:14.918Z</time></trkpt><trkpt lat="43.040259464056625" lon="11.626877954256365"><ele>272.3333333333333</ele><time>2026-03-22T10:59:15.918Z</time></trkpt><trkpt lat="43.04041462476404" lon="11.626856928744553"><ele>271.66666666666663</ele><time>2026-03-22T10:59:16.918Z</time></trkpt><trkpt lat="43.04057312305876" lon="11.626815617546528"><ele>271.0</ele><time>2026-03-22T10:59:17.918Z</time></trkpt><trkpt lat="43.04073695805503" lon="11.626758348289354"><ele>271.66666666666663</ele><time>2026-03-22T10:59:18.918Z</time></trkpt><trkpt lat="43.040901391108456" lon="11.626706783146128"><ele>272.3333333333333</ele><time>2026-03-22T10:59:19.918Z</time></trkpt><trkpt lat="43.04107043972957" lon="11.62669623725108"><ele>273.0</ele><time>2026-03-22T10:59:20.918Z</time></trkpt><trkpt lat="43.04123486596591" lon="11.62664373355877"><ele>273.0</ele><time>2026-03-22T10:59:21.918Z</time></trkpt><trkpt lat="43.04140322380768" lon="11.626596381396238"><ele>273.0</ele><time>2026-03-22T10:59:22.918Z</time></trkpt><trkpt lat="43.04157016160609" lon="11.626530335880176"><ele>273.0</ele><time>2026-03-22T10:59:23.918Z</time></trkpt><trkpt lat="43.041740711805495" lon="11.626454944211938"><ele>272.0</ele><time>2026-03-22T10:59:24.918Z</time></trkpt><trkpt lat="43.04191691031583" lon="11.626362658645835"><ele>271.0</ele><time>2026-03-22T10:59:25.918Z</time></trkpt><trkpt lat="43.04210348451402" lon="11.626265778961933"><ele>270.0</ele><time>2026-03-22T10:59:26.918Z</time></trkpt><trkpt lat="43.04229532967668" lon="11.626170492547269"><ele>271.3333333333333</ele><time>2026-03-22T10:59:27.918Z</time></trkpt><trkpt lat="43.0424880692645" lon="11.626076289671737"><ele>272.66666666666663</ele><time>2026-03-22T10:59:28.92Z</time></trkpt><trkpt lat="43.04267853919639" lon="11.625978786514914"><ele>274.0</ele><time>2026-03-22T10:59:29.92Z</time></trkpt><trkpt lat="43.042868163898284" lon="11.625883030526724"><ele>274.0</ele><time>2026-03-22T10:59:30.92Z</time></trkpt><trkpt lat="43.04304623782991" lon="11.62579255798215"><ele>274.0</ele><time>2026-03-22T10:59:31.92Z</time></trkpt><trkpt lat="43.04322003352388" lon="11.625701363048133"><ele>274.0</ele><time>2026-03-22T10:59:32.921Z</time></trkpt><trkpt lat="43.04338422583231" lon="11.625616080855941"><ele>274.0</ele><time>2026-03-22T10:59:33.921Z</time></trkpt><trkpt lat="43.04353855086419" lon="11.625530597475711"><ele>274.0</ele><time>2026-03-22T10:59:34.92Z</time></trkpt><trkpt lat="43.04369164112664" lon="11.625448991653126"><ele>274.0</ele><time>2026-03-22T10:59:35.921Z</time></trkpt><trkpt lat="43.043847643773255" lon="11.62536985478222"><ele>275.66666666666663</ele><time>2026-03-22T10:59:36.921Z</time></trkpt><trkpt lat="43.04400504366754" lon="11.625291215561191"><ele>277.3333333333333</ele><time>2026-03-22T10:59:37.92Z</time></trkpt><trkpt lat="43.04416650787203" lon="11.625220087672115"><ele>279.0</ele><time>2026-03-22T10:59:38.92Z</time></trkpt><trkpt lat="43.044329557896425" lon="11.625157894176402"><ele>279.0</ele><time>2026-03-22T10:59:39.92Z</time></trkpt><trkpt lat="43.04449699758476" lon="11.625113213988396"><ele>279.0</ele><time>2026-03-22T10:59:40.92Z</time></trkpt><trkpt lat="43.04466788343993" lon="11.625092065128014"><ele>279.0</ele><time>2026-03-22T10:59:41.921Z</time></trkpt><trkpt lat="43.04483886061942" lon="11.625086275860749"><ele>278.6666666666667</ele><time>2026-03-22T10:59:42.921Z</time></trkpt><trkpt lat="43.045008457931004" lon="11.625073328451817"><ele>278.33333333333337</ele><time>2026-03-22T10:59:43.92Z</time></trkpt><trkpt lat="43.045171991874554" lon="11.625063060319535"><ele>278.0</ele><time>2026-03-22T10:59:44.92Z</time></trkpt><trkpt lat="43.045338254253856" lon="11.625059357455866"><ele>278.0</ele><time>2026-03-22T10:59:45.92Z</time></trkpt><trkpt lat="43.0454995578018" lon="11.62506467469125"><ele>278.0</ele><time>2026-03-22T10:59:46.92Z</time></trkpt><trkpt lat="43.045618332373984" lon="11.625070795980053"><ele>278.0</ele><time>2026-03-22T10:59:47.92Z</time></trkpt><trkpt lat="43.045695340047125" lon="11.625083570099413"><ele>278.0</ele><time>2026-03-22T10:59:48.92Z</time></trkpt><trkpt lat="43.045764724334106" lon="11.625118351848583"><ele>278.0</ele><time>2026-03-22T10:59:50.92Z</time></trkpt><trkpt lat="43.04581593000207" lon="11.625191927965513"><ele>278.2</ele><time>2026-03-22T11:00:14.919Z</time></trkpt><trkpt lat="43.04588022333433" lon="11.625230500280852"><ele>278.4</ele><time>2026-03-22T11:00:35.919Z</time></trkpt><trkpt lat="43.04597941677944" lon="11.62522280972557"><ele>278.59999999999997</ele><time>2026-03-22T11:04:42.927Z</time></trkpt><trkpt lat="43.04611122637849" lon="11.625272313605766"><ele>278.8</ele><time>2026-03-22T11:04:44.927Z</time></trkpt><trkpt lat="43.046190882365224" lon="11.625318665748663"><ele>279.0</ele><time>2026-03-22T11:04:45.927Z</time></trkpt><trkpt lat="43.04627712562356" lon="11.625369140122553"><ele>278.5</ele><time>2026-03-22T11:04:46.927Z</time></trkpt><trkpt lat="43.04637354536185" lon="11.625409691045574"><ele>278.0</ele><time>2026-03-22T11:04:47.927Z</time></trkpt><trkpt lat="43.04647997036592" lon="11.62544312530327"><ele>277.5</ele><time>2026-03-22T11:04:48.927Z</time></trkpt><trkpt lat="43.0465963852444" lon="11.625471953261972"><ele>277.0</ele><time>2026-03-22T11:04:49.927Z</time></trkpt><trkpt lat="43.04672005231241" lon="11.625510029561928"><ele>277.0</ele><time>2026-03-22T11:04:50.927Z</time></trkpt><trkpt lat="43.04685993246642" lon="11.625522244403214"><ele>277.0</ele><time>2026-03-22T11:04:51.927Z</time></trkpt><trkpt lat="43.047007710238496" lon="11.62553225795654"><ele>277.0</ele><time>2026-03-22T11:04:52.927Z</time></trkpt><trkpt lat="43.04716416064602" lon="11.625535241056063"><ele>277.0</ele><time>2026-03-22T11:04:53.927Z</time></trkpt><trkpt lat="43.04732521026782" lon="11.62553722824896"><ele>277.66666666666663</ele><time>2026-03-22T11:04:54.927Z</time></trkpt><trkpt lat="43.047490218717186" lon="11.62553643193503"><ele>278.3333333333333</ele><time>2026-03-22T11:04:55.927Z</time></trkpt><trkpt lat="43.04764176109281" lon="11.625540220997802"><ele>279.0</ele><time>2026-03-22T11:04:56.927Z</time></trkpt><trkpt lat="43.047788225687704" lon="11.62553715735331"><ele>279.0</ele><time>2026-03-22T11:04:57.927Z</time></trkpt><trkpt lat="43.047920645694944" lon="11.625502837198246"><ele>279.0</ele><time>2026-03-22T11:04:58.927Z</time></trkpt><trkpt lat="43.04803908355048" lon="11.625435308858194"><ele>279.0</ele><time>2026-03-22T11:04:59.927Z</time></trkpt><trkpt lat="43.04814110558182" lon="11.625325739813182"><ele>279.0</ele><time>2026-03-22T11:05:00.927Z</time></trkpt><trkpt lat="43.04822906812909" lon="11.625188982280658"><ele>281.3333333333333</ele><time>2026-03-22T11:05:01.927Z</time></trkpt><trkpt lat="43.04831314077661" lon="11.62502985013984"><ele>283.66666666666663</ele><time>2026-03-22T11:05:02.927Z</time></trkpt><trkpt lat="43.04839530211015" lon="11.624859315573437"><ele>286.0</ele><time>2026-03-22T11:05:03.927Z</time></trkpt><trkpt lat="43.048482327314034" lon="11.624679641547468"><ele>286.0</ele><time>2026-03-22T11:05:04.926Z</time></trkpt><trkpt lat="43.04857797119618" lon="11.624491536141052"><ele>286.0</ele><time>2026-03-22T11:05:05.926Z</time></trkpt><trkpt lat="43.04867883518299" lon="11.624302146556609"><ele>286.0</ele><time>2026-03-22T11:05:06.926Z</time></trkpt><trkpt lat="43.04878424209458" lon="11.624096939221781"><ele>288.3333333333333</ele><time>2026-03-22T11:05:07.926Z</time></trkpt><trkpt lat="43.04888735717211" lon="11.623896346721898"><ele>290.6666666666667</ele><time>2026-03-22T11:05:08.926Z</time></trkpt><trkpt lat="43.04898593341052" lon="11.623694835019169"><ele>293.0</ele><time>2026-03-22T11:05:09.926Z</time></trkpt><trkpt lat="43.0490770491719" lon="11.623496076227811"><ele>292.0</ele><time>2026-03-22T11:05:10.926Z</time></trkpt><trkpt lat="43.04916625135727" lon="11.623293872427931"><ele>291.0</ele><time>2026-03-22T11:05:11.926Z</time></trkpt><trkpt lat="43.04924855810337" lon="11.623092146925854"><ele>290.0</ele><time>2026-03-22T11:05:12.926Z</time></trkpt><trkpt lat="43.04931636555248" lon="11.6228803684432"><ele>291.33333333333337</ele><time>2026-03-22T11:05:13.926Z</time></trkpt><trkpt lat="43.049367107572614" lon="11.622659234230508"><ele>292.6666666666667</ele><time>2026-03-22T11:05:14.926Z</time></trkpt><trkpt lat="43.04942139816454" lon="11.622441692036578"><ele>294.0</ele><time>2026-03-22T11:05:15.926Z</time></trkpt><trkpt lat="43.04946646827739" lon="11.622210292125287"><ele>294.0</ele><time>2026-03-22T11:05:16.926Z</time></trkpt><trkpt lat="43.04950651524388" lon="11.621987113605703"><ele>294.0</ele><time>2026-03-22T11:05:17.926Z</time></trkpt><trkpt lat="43.0495391952741" lon="11.621773245203087"><ele>294.0</ele><time>2026-03-22T11:05:18.926Z</time></trkpt><trkpt lat="43.049566844379804" lon="11.621565039439792"><ele>295.3333333333333</ele><time>2026-03-22T11:05:19.926Z</time></trkpt><trkpt lat="43.04958426282547" lon="11.62134825998643"><ele>296.66666666666663</ele><time>2026-03-22T11:05:20.926Z</time></trkpt><trkpt lat="43.04958583222462" lon="11.621131375387673"><ele>298.0</ele><time>2026-03-22T11:05:21.926Z</time></trkpt><trkpt lat="43.049577362256706" lon="11.62091957576668"><ele>299.0</ele><time>2026-03-22T11:05:22.926Z</time></trkpt><trkpt lat="43.049570735447325" lon="11.620710171671345"><ele>300.0</ele><time>2026-03-22T11:05:23.926Z</time></trkpt><trkpt lat="43.04955674831161" lon="11.620492521824554"><ele>301.0</ele><time>2026-03-22T11:05:24.926Z</time></trkpt><trkpt lat="43.04953875194" lon="11.620280092917168"><ele>301.0</ele><time>2026-03-22T11:05:25.926Z</time></trkpt><trkpt lat="43.049519534834054" lon="11.620068035805142"><ele>301.0</ele><time>2026-03-22T11:05:26.926Z</time></trkpt><trkpt lat="43.04950235259538" lon="11.619852703509814"><ele>301.0</ele><time>2026-03-22T11:05:27.926Z</time></trkpt><trkpt lat="43.04948392292321" lon="11.619631292398969"><ele>301.66666666666663</ele><time>2026-03-22T11:05:28.926Z</time></trkpt><trkpt lat="43.04946364342062" lon="11.619403345153325"><ele>302.3333333333333</ele><time>2026-03-22T11:05:29.926Z</time></trkpt><trkpt lat="43.04944142478183" lon="11.619169556445057"><ele>303.0</ele><time>2026-03-22T11:05:30.926Z</time></trkpt><trkpt lat="43.04942453787226" lon="11.618934186698269"><ele>303.0</ele><time>2026-03-22T11:05:31.926Z</time></trkpt><trkpt lat="43.04940602221898" lon="11.618696612760704"><ele>303.0</ele><time>2026-03-22T11:05:32.926Z</time></trkpt><trkpt lat="43.049383144920505" lon="11.618460092617301"><ele>303.0</ele><time>2026-03-22T11:05:33.926Z</time></trkpt><trkpt lat="43.04935901705982" lon="11.618219624592387"><ele>304.0</ele><time>2026-03-22T11:05:34.925Z</time></trkpt><trkpt lat="43.049339177409124" lon="11.617975677735945"><ele>305.0</ele><time>2026-03-22T11:05:35.925Z</time></trkpt><trkpt lat="43.049320107136055" lon="11.617725930493798"><ele>306.0</ele><time>2026-03-22T11:05:36.925Z</time></trkpt><trkpt lat="43.04929990951107" lon="11.617473427656744"><ele>307.3333333333333</ele><time>2026-03-22T11:05:37.925Z</time></trkpt><trkpt lat="43.04927701139332" lon="11.617218243119044"><ele>308.66666666666663</ele><time>2026-03-22T11:05:38.925Z</time></trkpt><trkpt lat="43.04925184988286" lon="11.616962474609828"><ele>310.0</ele><time>2026-03-22T11:05:39.925Z</time></trkpt><trkpt lat="43.04922732256136" lon="11.616710696355923"><ele>309.66666666666663</ele><time>2026-03-22T11:05:40.925Z</time></trkpt><trkpt lat="43.04920362465782" lon="11.616459511399865"><ele>309.3333333333333</ele><time>2026-03-22T11:05:41.925Z</time></trkpt><trkpt lat="43.04917608905372" lon="11.61620953471452"><ele>309.0</ele><time>2026-03-22T11:05:42.925Z</time></trkpt><trkpt lat="43.04913743183783" lon="11.615965055857782"><ele>312.3333333333333</ele><time>2026-03-22T11:05:43.925Z</time></trkpt><trkpt lat="43.049088985684804" lon="11.615720653518268"><ele>315.66666666666663</ele><time>2026-03-22T11:05:44.925Z</time></trkpt><trkpt lat="43.04902729569879" lon="11.61548092893192"><ele>319.0</ele><time>2026-03-22T11:05:45.925Z</time></trkpt><trkpt lat="43.04895389564478" lon="11.615239953375022"><ele>319.3333333333333</ele><time>2026-03-22T11:05:46.928Z</time></trkpt><trkpt lat="43.048875656146" lon="11.615000774164255"><ele>319.6666666666667</ele><time>2026-03-22T11:05:47.928Z</time></trkpt><trkpt lat="43.04879543691203" lon="11.614764238497154"><ele>320.0</ele><time>2026-03-22T11:05:48.928Z</time></trkpt><trkpt lat="43.048717089132886" lon="11.6145285918597"><ele>321.0</ele><time>2026-03-22T11:05:49.928Z</time></trkpt><trkpt lat="43.04864105544509" lon="11.614288624384518"><ele>322.0</ele><time>2026-03-22T11:05:50.927Z</time></trkpt><trkpt lat="43.04856582378959" lon="11.614046019027827"><ele>323.0</ele><time>2026-03-22T11:05:51.927Z</time></trkpt><trkpt lat="43.048488590441984" lon="11.613808003042951"><ele>323.6666666666667</ele><time>2026-03-22T11:05:52.928Z</time></trkpt><trkpt lat="43.048411766963596" lon="11.613575785347983"><ele>324.3333333333333</ele><time>2026-03-22T11:05:53.928Z</time></trkpt><trkpt lat="43.04834008696837" lon="11.613353924463066"><ele>325.0</ele><time>2026-03-22T11:05:54.928Z</time></trkpt><trkpt lat="43.0482728591713" lon="11.613139753003646"><ele>327.3333333333333</ele><time>2026-03-22T11:05:55.928Z</time></trkpt><trkpt lat="43.04821371916831" lon="11.612922049525608"><ele>329.6666666666667</ele><time>2026-03-22T11:05:56.927Z</time></trkpt><trkpt lat="43.048174877779616" lon="11.612693252581469"><ele>332.0</ele><time>2026-03-22T11:05:57.927Z</time></trkpt><trkpt lat="43.048156134561964" lon="11.612454286879506"><ele>333.6666666666667</ele><time>2026-03-22T11:05:58.928Z</time></trkpt><trkpt lat="43.048159377219115" lon="11.61221451190748"><ele>335.3333333333333</ele><time>2026-03-22T11:05:59.927Z</time></trkpt><trkpt lat="43.048186789316524" lon="11.611977685773427"><ele>337.0</ele><time>2026-03-22T11:06:00.927Z</time></trkpt><trkpt lat="43.04824784317294" lon="11.611756418149483"><ele>335.66666666666663</ele><time>2026-03-22T11:06:01.927Z</time></trkpt><trkpt lat="43.04832934811381" lon="11.611552862095447"><ele>334.3333333333333</ele><time>2026-03-22T11:06:02.927Z</time></trkpt><trkpt lat="43.04842831694095" lon="11.61136606488718"><ele>333.0</ele><time>2026-03-22T11:06:03.927Z</time></trkpt><trkpt lat="43.04855577936956" lon="11.611211556854919"><ele>337.6666666666667</ele><time>2026-03-22T11:06:04.927Z</time></trkpt><trkpt lat="43.04869695917418" lon="11.611085062211707"><ele>342.33333333333337</ele><time>2026-03-22T11:06:05.927Z</time></trkpt><trkpt lat="43.048852127212484" lon="11.610989833492876"><ele>347.0</ele><time>2026-03-22T11:06:06.927Z</time></trkpt><trkpt lat="43.04901899713767" lon="11.610951705634273"><ele>346.0</ele><time>2026-03-22T11:06:07.927Z</time></trkpt><trkpt lat="43.049193617158835" lon="11.610895080205122"><ele>345.0</ele><time>2026-03-22T11:06:08.927Z</time></trkpt><trkpt lat="43.04937088902273" lon="11.610867854198656"><ele>344.0</ele><time>2026-03-22T11:06:09.927Z</time></trkpt><trkpt lat="43.04952844372248" lon="11.610833419146447"><ele>344.0</ele><time>2026-03-22T11:06:10.927Z</time></trkpt><trkpt lat="43.04968392102192" lon="11.61078810864405"><ele>344.0</ele><time>2026-03-22T11:06:11.927Z</time></trkpt><trkpt lat="43.04983861774126" lon="11.610727075908454"><ele>344.0</ele><time>2026-03-22T11:06:12.927Z</time></trkpt><trkpt lat="43.04999687385667" lon="11.610634522581945"><ele>343.33333333333337</ele><time>2026-03-22T11:06:13.927Z</time></trkpt><trkpt lat="43.05015228988409" lon="11.610515528853638"><ele>342.6666666666667</ele><time>2026-03-22T11:06:14.927Z</time></trkpt><trkpt lat="43.05030844011989" lon="11.610379437167934"><ele>342.0</ele><time>2026-03-22T11:06:15.927Z</time></trkpt><trkpt lat="43.05046769407382" lon="11.610226001207895"><ele>343.0</ele><time>2026-03-22T11:06:16.927Z</time></trkpt><trkpt lat="43.05063390706619" lon="11.610066799233564"><ele>344.0</ele><time>2026-03-22T11:06:17.927Z</time></trkpt><trkpt lat="43.05080196037971" lon="11.609910091047606"><ele>345.0</ele><time>2026-03-22T11:06:18.927Z</time></trkpt><trkpt lat="43.05096484706052" lon="11.609755464527899"><ele>345.0</ele><time>2026-03-22T11:06:19.927Z</time></trkpt><trkpt lat="43.05112550739821" lon="11.609611849810891"><ele>345.0</ele><time>2026-03-22T11:06:20.927Z</time></trkpt><trkpt lat="43.051281461112865" lon="11.609489184358415"><ele>345.0</ele><time>2026-03-22T11:06:21.927Z</time></trkpt><trkpt lat="43.05141658928088" lon="11.609404407207627"><ele>347.0</ele><time>2026-03-22T11:06:22.927Z</time></trkpt><trkpt lat="43.05152439055403" lon="11.609351844133961"><ele>349.0</ele><time>2026-03-22T11:06:23.927Z</time></trkpt><trkpt lat="43.051611103930846" lon="11.609314618165548"><ele>351.0</ele><time>2026-03-22T11:06:24.927Z</time></trkpt><trkpt lat="43.05168119090889" lon="11.609274303949443"><ele>353.0</ele><time>2026-03-22T11:06:25.927Z</time></trkpt><trkpt lat="43.05176592552574" lon="11.60921689739885"><ele>355.0</ele><time>2026-03-22T11:06:27.926Z</time></trkpt><trkpt lat="43.05184314324762" lon="11.609200023302279"><ele>355.0</ele><time>2026-03-22T11:07:53.926Z</time></trkpt><trkpt lat="43.051944792477336" lon="11.609123483382863"><ele>355.0</ele><time>2026-03-22T11:07:55.926Z</time></trkpt><trkpt lat="43.052022962517455" lon="11.609068908522493"><ele>355.0</ele><time>2026-03-22T11:07:56.926Z</time></trkpt><trkpt lat="43.052115638917265" lon="11.609007913513958"><ele>355.0</ele><time>2026-03-22T11:07:57.926Z</time></trkpt><trkpt lat="43.05222524887373" lon="11.608938018951577"><ele>355.0</ele><time>2026-03-22T11:07:58.926Z</time></trkpt><trkpt lat="43.05234582169851" lon="11.608858112089372"><ele>356.0</ele><time>2026-03-22T11:07:59.926Z</time></trkpt><trkpt lat="43.05248367517783" lon="11.608770799712634"><ele>357.0</ele><time>2026-03-22T11:08:00.926Z</time></trkpt><trkpt lat="43.05262532260431" lon="11.608693162699087"><ele>358.0</ele><time>2026-03-22T11:08:01.926Z</time></trkpt><trkpt lat="43.05276037665053" lon="11.608614297324413"><ele>358.0</ele><time>2026-03-22T11:08:02.926Z</time></trkpt><trkpt lat="43.052885999653704" lon="11.608546281166785"><ele>358.0</ele><time>2026-03-22T11:08:03.926Z</time></trkpt><trkpt lat="43.05300418962359" lon="11.608474186900875"><ele>358.0</ele><time>2026-03-22T11:08:04.926Z</time></trkpt><trkpt lat="43.05312175586588" lon="11.60841236391987"><ele>358.0</ele><time>2026-03-22T11:08:05.926Z</time></trkpt><trkpt lat="43.05324194177503" lon="11.608367732280994"><ele>359.5</ele><time>2026-03-22T11:08:06.926Z</time></trkpt><trkpt lat="43.053369852188375" lon="11.608337037256327"><ele>361.0</ele><time>2026-03-22T11:08:07.926Z</time></trkpt><trkpt lat="43.053504058217804" lon="11.608329128693649"><ele>362.5</ele><time>2026-03-22T11:08:08.926Z</time></trkpt><trkpt lat="43.053643388100404" lon="11.608350842467916"><ele>364.0</ele><time>2026-03-22T11:08:09.926Z</time></trkpt><trkpt lat="43.053780191787354" lon="11.60839376051352"><ele>364.0</ele><time>2026-03-22T11:08:10.925Z</time></trkpt><trkpt lat="43.05390405684202" lon="11.608488805667779"><ele>364.0</ele><time>2026-03-22T11:08:11.925Z</time></trkpt><trkpt lat="43.054022878679625" lon="11.6085832563774"><ele>364.0</ele><time>2026-03-22T11:08:12.925Z</time></trkpt><trkpt lat="43.05414829472193" lon="11.608688540033722"><ele>364.0</ele><time>2026-03-22T11:08:13.925Z</time></trkpt><trkpt lat="43.054262363881314" lon="11.60879150880097"><ele>363.75</ele><time>2026-03-22T11:08:14.925Z</time></trkpt><trkpt lat="43.05438315736204" lon="11.60889678102399"><ele>363.5</ele><time>2026-03-22T11:08:15.925Z</time></trkpt><trkpt lat="43.05450927503465" lon="11.608995949751273"><ele>363.25</ele><time>2026-03-22T11:08:16.925Z</time></trkpt><trkpt lat="43.05464070316705" lon="11.609094952743725"><ele>363.0</ele><time>2026-03-22T11:08:17.925Z</time></trkpt><trkpt lat="43.0547608653189" lon="11.609198722351053"><ele>363.0</ele><time>2026-03-22T11:08:18.925Z</time></trkpt><trkpt lat="43.05488427851809" lon="11.609306941255975"><ele>363.0</ele><time>2026-03-22T11:08:19.925Z</time></trkpt><trkpt lat="43.055007652221526" lon="11.60940924679926"><ele>363.0</ele><time>2026-03-22T11:08:20.925Z</time></trkpt><trkpt lat="43.055125678443" lon="11.609513550241179"><ele>363.0</ele><time>2026-03-22T11:08:21.925Z</time></trkpt><trkpt lat="43.05523248907905" lon="11.60960612603049"><ele>364.0</ele><time>2026-03-22T11:08:22.925Z</time></trkpt><trkpt lat="43.055338364487" lon="11.609692940656032"><ele>365.0</ele><time>2026-03-22T11:08:23.925Z</time></trkpt><trkpt lat="43.05543386555422" lon="11.60977246649767"><ele>366.0</ele><time>2026-03-22T11:08:24.925Z</time></trkpt><trkpt lat="43.05552411595886" lon="11.609851726114973"><ele>367.0</ele><time>2026-03-22T11:08:25.925Z</time></trkpt><trkpt lat="43.055610673815174" lon="11.609924808023221"><ele>368.0</ele><time>2026-03-22T11:08:26.925Z</time></trkpt><trkpt lat="43.05569250824267" lon="11.609992354043547"><ele>368.0</ele><time>2026-03-22T11:08:27.925Z</time></trkpt><trkpt lat="43.05576877169417" lon="11.61005633645545"><ele>368.0</ele><time>2026-03-22T11:08:28.925Z</time></trkpt><trkpt lat="43.055845710117175" lon="11.610117458367382"><ele>368.0</ele><time>2026-03-22T11:08:29.925Z</time></trkpt><trkpt lat="43.05591131396643" lon="11.610200058480315"><ele>368.0</ele><time>2026-03-22T11:08:30.925Z</time></trkpt><trkpt lat="43.05599099506555" lon="11.610266721421207"><ele>368.0</ele><time>2026-03-22T11:08:31.925Z</time></trkpt><trkpt lat="43.05606117797041" lon="11.61032709048968"><ele>368.0</ele><time>2026-03-22T11:08:32.925Z</time></trkpt><trkpt lat="43.056127364354936" lon="11.610390153411087"><ele>368.6666666666667</ele><time>2026-03-22T11:08:33.925Z</time></trkpt><trkpt lat="43.05620362975803" lon="11.61045771297018"><ele>369.33333333333337</ele><time>2026-03-22T11:08:34.925Z</time></trkpt><trkpt lat="43.05628259600192" lon="11.610517692060895"><ele>370.0</ele><time>2026-03-22T11:08:35.925Z</time></trkpt><trkpt lat="43.05634799211078" lon="11.6105722682219"><ele>370.6666666666667</ele><time>2026-03-22T11:08:36.925Z</time></trkpt><trkpt lat="43.05643816272041" lon="11.61065336431446"><ele>371.3333333333333</ele><time>2026-03-22T11:08:38.925Z</time></trkpt><trkpt lat="43.0564885272098" lon="11.610719528073275"><ele>372.0</ele><time>2026-03-22T11:08:58.924Z</time></trkpt><trkpt lat="43.0565534533944" lon="11.610728275614017"><ele>372.40000000000003</ele><time>2026-03-22T11:09:01.924Z</time></trkpt><trkpt lat="43.056666499023535" lon="11.610814008088823"><ele>372.8</ele><time>2026-03-22T11:09:03.924Z</time></trkpt><trkpt lat="43.05674476439796" lon="11.610878857617331"><ele>373.2</ele><time>2026-03-22T11:09:04.924Z</time></trkpt><trkpt lat="43.05683607153777" lon="11.610943557080349"><ele>373.6</ele><time>2026-03-22T11:09:05.924Z</time></trkpt><trkpt lat="43.05694721013312" lon="11.611003566735969"><ele>374.0</ele><time>2026-03-22T11:09:06.924Z</time></trkpt><trkpt lat="43.05706831874762" lon="11.611055606354096"><ele>374.0</ele><time>2026-03-22T11:09:07.924Z</time></trkpt><trkpt lat="43.05720109612777" lon="11.611081662082732"><ele>374.0</ele><time>2026-03-22T11:09:08.924Z</time></trkpt><trkpt lat="43.057328064347374" lon="11.611088247294264"><ele>374.0</ele><time>2026-03-22T11:09:09.924Z</time></trkpt><trkpt lat="43.05747375104297" lon="11.611070512340975"><ele>374.0</ele><time>2026-03-22T11:09:10.924Z</time></trkpt><trkpt lat="43.05761836446068" lon="11.61101301337346"><ele>375.33333333333337</ele><time>2026-03-22T11:09:11.923Z</time></trkpt><trkpt lat="43.057762836193106" lon="11.610938717256461"><ele>376.6666666666667</ele><time>2026-03-22T11:09:12.923Z</time></trkpt><trkpt lat="43.05789389006019" lon="11.61082823385884"><ele>378.0</ele><time>2026-03-22T11:09:13.923Z</time></trkpt><trkpt lat="43.05801621596939" lon="11.61069553908855"><ele>378.0</ele><time>2026-03-22T11:09:14.923Z</time></trkpt><trkpt lat="43.05812747772161" lon="11.610538216238863"><ele>378.0</ele><time>2026-03-22T11:09:15.923Z</time></trkpt><trkpt lat="43.058230645636804" lon="11.610379328213106"><ele>378.0</ele><time>2026-03-22T11:09:16.923Z</time></trkpt><trkpt lat="43.058331683135314" lon="11.610221239379989"><ele>381.0</ele><time>2026-03-22T11:09:17.923Z</time></trkpt><trkpt lat="43.05843365014852" lon="11.61005472108953"><ele>384.0</ele><time>2026-03-22T11:09:18.923Z</time></trkpt><trkpt lat="43.05853907328263" lon="11.609895648190626"><ele>387.0</ele><time>2026-03-22T11:09:19.923Z</time></trkpt><trkpt lat="43.05863696820429" lon="11.60974051652587"><ele>387.0</ele><time>2026-03-22T11:09:20.923Z</time></trkpt><trkpt lat="43.05873152763001" lon="11.60958990046079"><ele>387.0</ele><time>2026-03-22T11:09:21.923Z</time></trkpt><trkpt lat="43.05882486215961" lon="11.609435307217707"><ele>387.0</ele><time>2026-03-22T11:09:22.923Z</time></trkpt><trkpt lat="43.05891485683246" lon="11.609289555527264"><ele>387.0</ele><time>2026-03-22T11:09:23.923Z</time></trkpt><trkpt lat="43.05900354497956" lon="11.609144335498616"><ele>387.25</ele><time>2026-03-22T11:09:24.923Z</time></trkpt><trkpt lat="43.05909007849258" lon="11.609004118232065"><ele>387.5</ele><time>2026-03-22T11:09:25.923Z</time></trkpt><trkpt lat="43.05917401010903" lon="11.608863765571382"><ele>387.75</ele><time>2026-03-22T11:09:26.923Z</time></trkpt><trkpt lat="43.05925865484379" lon="11.608725890352398"><ele>388.0</ele><time>2026-03-22T11:09:27.923Z</time></trkpt><trkpt lat="43.059346907381624" lon="11.60858742484125"><ele>390.25</ele><time>2026-03-22T11:09:28.923Z</time></trkpt><trkpt lat="43.05943612020209" lon="11.608446065190403"><ele>392.5</ele><time>2026-03-22T11:09:29.923Z</time></trkpt><trkpt lat="43.05952399919565" lon="11.60829975728042"><ele>394.75</ele><time>2026-03-22T11:09:30.923Z</time></trkpt><trkpt lat="43.05961277075282" lon="11.608161459738103"><ele>397.0</ele><time>2026-03-22T11:09:31.923Z</time></trkpt><trkpt lat="43.05969495029453" lon="11.608022979136809"><ele>397.0</ele><time>2026-03-22T11:09:32.923Z</time></trkpt><trkpt lat="43.05977544683546" lon="11.60789135563396"><ele>397.0</ele><time>2026-03-22T11:09:33.923Z</time></trkpt><trkpt lat="43.05985430820558" lon="11.60776330287511"><ele>397.0</ele><time>2026-03-22T11:09:34.923Z</time></trkpt><trkpt lat="43.05993100101029" lon="11.607640828376997"><ele>397.0</ele><time>2026-03-22T11:09:35.923Z</time></trkpt><trkpt lat="43.06000724030499" lon="11.607526897372964"><ele>397.20000000000005</ele><time>2026-03-22T11:09:36.923Z</time></trkpt><trkpt lat="43.06007878557462" lon="11.607419690621558"><ele>397.4</ele><time>2026-03-22T11:09:37.923Z</time></trkpt><trkpt lat="43.0601462292202" lon="11.607317948979437"><ele>397.6</ele><time>2026-03-22T11:09:38.923Z</time></trkpt><trkpt lat="43.06021238180123" lon="11.607206026280926"><ele>397.79999999999995</ele><time>2026-03-22T11:09:39.923Z</time></trkpt><trkpt lat="43.06028513158744" lon="11.607091269550237"><ele>398.0</ele><time>2026-03-22T11:09:40.923Z</time></trkpt><trkpt lat="43.06036377864543" lon="11.60696269268589"><ele>398.0</ele><time>2026-03-22T11:09:41.922Z</time></trkpt><trkpt lat="43.06044396730614" lon="11.606837639127152"><ele>398.0</ele><time>2026-03-22T11:09:42.922Z</time></trkpt><trkpt lat="43.06053070597159" lon="11.60670085675856"><ele>398.0</ele><time>2026-03-22T11:09:43.922Z</time></trkpt><trkpt lat="43.06061767720344" lon="11.60656400371283"><ele>398.0</ele><time>2026-03-22T11:09:44.922Z</time></trkpt><trkpt lat="43.06071120656952" lon="11.606423690968498"><ele>398.75</ele><time>2026-03-22T11:09:45.922Z</time></trkpt><trkpt lat="43.06080789270871" lon="11.606279827675694"><ele>399.5</ele><time>2026-03-22T11:09:46.922Z</time></trkpt><trkpt lat="43.06090463012536" lon="11.606127298469804"><ele>400.25</ele><time>2026-03-22T11:09:47.922Z</time></trkpt><trkpt lat="43.06100159198524" lon="11.605974544375218"><ele>401.0</ele><time>2026-03-22T11:09:48.922Z</time></trkpt><trkpt lat="43.0610992860293" lon="11.605805555520247"><ele>401.66666666666663</ele><time>2026-03-22T11:09:49.922Z</time></trkpt><trkpt lat="43.061201773339086" lon="11.605619221325615"><ele>402.33333333333337</ele><time>2026-03-22T11:09:50.922Z</time></trkpt><trkpt lat="43.06129084778725" lon="11.605414198026544"><ele>403.0</ele><time>2026-03-22T11:09:51.922Z</time></trkpt><trkpt lat="43.06136581923212" lon="11.605205627188914"><ele>405.0</ele><time>2026-03-22T11:09:52.922Z</time></trkpt><trkpt lat="43.06142691355362" lon="11.605001699985232"><ele>407.0</ele><time>2026-03-22T11:09:53.922Z</time></trkpt><trkpt lat="43.06147666049242" lon="11.604796655654548"><ele>409.0</ele><time>2026-03-22T11:09:54.922Z</time></trkpt><trkpt lat="43.061516371980474" lon="11.60459518748948"><ele>409.0</ele><time>2026-03-22T11:09:55.922Z</time></trkpt><trkpt lat="43.06154315022886" lon="11.604392629363854"><ele>409.0</ele><time>2026-03-22T11:09:56.922Z</time></trkpt><trkpt lat="43.06156306330701" lon="11.60420006986573"><ele>409.0</ele><time>2026-03-22T11:09:57.922Z</time></trkpt><trkpt lat="43.061584087036216" lon="11.60399873200454"><ele>409.0</ele><time>2026-03-22T11:09:58.925Z</time></trkpt><trkpt lat="43.06158675359759" lon="11.603806263273073"><ele>408.75</ele><time>2026-03-22T11:09:59.925Z</time></trkpt><trkpt lat="43.06158684880713" lon="11.603612895628848"><ele>408.5</ele><time>2026-03-22T11:10:00.925Z</time></trkpt><trkpt lat="43.06158233348434" lon="11.60341665108458"><ele>408.25</ele><time>2026-03-22T11:10:01.925Z</time></trkpt><trkpt lat="43.061573551065706" lon="11.603218675562838"><ele>408.0</ele><time>2026-03-22T11:10:02.925Z</time></trkpt><trkpt lat="43.06156254935547" lon="11.603024373728964"><ele>406.25</ele><time>2026-03-22T11:10:03.925Z</time></trkpt><trkpt lat="43.061545557876464" lon="11.602827504081265"><ele>404.5</ele><time>2026-03-22T11:10:04.925Z</time></trkpt><trkpt lat="43.06152360619528" lon="11.602625894819191"><ele>402.75</ele><time>2026-03-22T11:10:05.925Z</time></trkpt><trkpt lat="43.06149784796265" lon="11.602419811302836"><ele>401.0</ele><time>2026-03-22T11:10:06.925Z</time></trkpt><trkpt lat="43.06146628324099" lon="11.602218336791882"><ele>401.0</ele><time>2026-03-22T11:10:07.925Z</time></trkpt><trkpt lat="43.06142703287427" lon="11.602016249146514"><ele>401.0</ele><time>2026-03-22T11:10:08.924Z</time></trkpt><trkpt lat="43.061376765877846" lon="11.601817411937105"><ele>401.0</ele><time>2026-03-22T11:10:09.924Z</time></trkpt><trkpt lat="43.06131770158141" lon="11.601617367241028"><ele>398.3333333333333</ele><time>2026-03-22T11:10:10.925Z</time></trkpt><trkpt lat="43.06124800277713" lon="11.601417943523375"><ele>395.66666666666663</ele><time>2026-03-22T11:10:11.925Z</time></trkpt><trkpt lat="43.0611695207384" lon="11.601224050139368"><ele>393.0</ele><time>2026-03-22T11:10:12.925Z</time></trkpt><trkpt lat="43.0610832732419" lon="11.601044700327302"><ele>390.0</ele><time>2026-03-22T11:10:13.925Z</time></trkpt><trkpt lat="43.06099611239225" lon="11.600861290838528"><ele>387.0</ele><time>2026-03-22T11:10:14.925Z</time></trkpt><trkpt lat="43.060914711288255" lon="11.600673998930704"><ele>384.0</ele><time>2026-03-22T11:10:15.925Z</time></trkpt><trkpt lat="43.060825552156956" lon="11.600494646347316"><ele>381.6666666666667</ele><time>2026-03-22T11:10:16.925Z</time></trkpt><trkpt lat="43.06073749408979" lon="11.600310685902942"><ele>379.33333333333337</ele><time>2026-03-22T11:10:17.925Z</time></trkpt><trkpt lat="43.060645036747395" lon="11.600120360431582"><ele>377.0</ele><time>2026-03-22T11:10:18.925Z</time></trkpt><trkpt lat="43.060553710673624" lon="11.599922911871017"><ele>377.0</ele><time>2026-03-22T11:10:19.925Z</time></trkpt><trkpt lat="43.060465312113074" lon="11.59972219687224"><ele>377.0</ele><time>2026-03-22T11:10:20.925Z</time></trkpt><trkpt lat="43.06038381154693" lon="11.599520704434584"><ele>377.0</ele><time>2026-03-22T11:10:21.925Z</time></trkpt><trkpt lat="43.06030229876934" lon="11.599318010667755"><ele>373.6666666666667</ele><time>2026-03-22T11:10:22.925Z</time></trkpt><trkpt lat="43.06022681437911" lon="11.599110539490454"><ele>370.3333333333333</ele><time>2026-03-22T11:10:23.924Z</time></trkpt><trkpt lat="43.060158229868954" lon="11.59889194687616"><ele>367.0</ele><time>2026-03-22T11:10:24.924Z</time></trkpt><trkpt lat="43.060095186457026" lon="11.598676985881196"><ele>365.3333333333333</ele><time>2026-03-22T11:10:25.924Z</time></trkpt><trkpt lat="43.060040212399564" lon="11.598458678669848"><ele>363.6666666666667</ele><time>2026-03-22T11:10:26.924Z</time></trkpt><trkpt lat="43.05999238894978" lon="11.598240143850472"><ele>362.0</ele><time>2026-03-22T11:10:27.924Z</time></trkpt><trkpt lat="43.05995161685156" lon="11.598017264426645"><ele>368.33333333333337</ele><time>2026-03-22T11:10:28.924Z</time></trkpt><trkpt lat="43.05991718199328" lon="11.597791098839325"><ele>374.6666666666667</ele><time>2026-03-22T11:10:29.924Z</time></trkpt><trkpt lat="43.059889626039094" lon="11.597560383843739"><ele>381.0</ele><time>2026-03-22T11:10:30.924Z</time></trkpt><trkpt lat="43.059870017684005" lon="11.597322143619916"><ele>381.0</ele><time>2026-03-22T11:10:31.924Z</time></trkpt><trkpt lat="43.059855001240756" lon="11.59707529129749"><ele>381.0</ele><time>2026-03-22T11:10:32.924Z</time></trkpt><trkpt lat="43.05983994576368" lon="11.596824456154831"><ele>381.0</ele><time>2026-03-22T11:10:33.924Z</time></trkpt><trkpt lat="43.05983021396076" lon="11.596559286195918"><ele>380.6666666666667</ele><time>2026-03-22T11:10:34.924Z</time></trkpt><trkpt lat="43.05982321879713" lon="11.596286695210543"><ele>380.33333333333337</ele><time>2026-03-22T11:10:35.924Z</time></trkpt><trkpt lat="43.059818641956326" lon="11.596021166415651"><ele>380.0</ele><time>2026-03-22T11:10:36.924Z</time></trkpt><trkpt lat="43.05981750706392" lon="11.595755556782231"><ele>380.0</ele><time>2026-03-22T11:10:37.924Z</time></trkpt><trkpt lat="43.059816160672646" lon="11.59549883421798"><ele>380.0</ele><time>2026-03-22T11:10:38.924Z</time></trkpt><trkpt lat="43.05981687070044" lon="11.595236660851858"><ele>380.0</ele><time>2026-03-22T11:10:39.924Z</time></trkpt><trkpt lat="43.05982602980649" lon="11.594973942600978"><ele>379.0</ele><time>2026-03-22T11:10:40.924Z</time></trkpt><trkpt lat="43.059842016097335" lon="11.594713095210043"><ele>378.0</ele><time>2026-03-22T11:10:41.924Z</time></trkpt><trkpt lat="43.05986342123038" lon="11.594445757380925"><ele>377.0</ele><time>2026-03-22T11:10:42.924Z</time></trkpt><trkpt lat="43.05989247608448" lon="11.594177955992667"><ele>374.33333333333337</ele><time>2026-03-22T11:10:43.924Z</time></trkpt><trkpt lat="43.059925788665346" lon="11.593911700645505"><ele>371.6666666666667</ele><time>2026-03-22T11:10:44.924Z</time></trkpt><trkpt lat="43.059973861630425" lon="11.593651137002634"><ele>369.0</ele><time>2026-03-22T11:10:45.924Z</time></trkpt><trkpt lat="43.06003359435342" lon="11.59339021194491"><ele>363.6666666666667</ele><time>2026-03-22T11:10:46.924Z</time></trkpt><trkpt lat="43.06009672450559" lon="11.593125848073536"><ele>358.33333333333337</ele><time>2026-03-22T11:10:47.924Z</time></trkpt><trkpt lat="43.06017055461013" lon="11.59286643181949"><ele>353.0</ele><time>2026-03-22T11:10:48.924Z</time></trkpt><trkpt lat="43.060258179030605" lon="11.592609733881545"><ele>350.6666666666667</ele><time>2026-03-22T11:10:49.924Z</time></trkpt><trkpt lat="43.06035286908913" lon="11.592362167790066"><ele>348.3333333333333</ele><time>2026-03-22T11:10:50.924Z</time></trkpt><trkpt lat="43.0604591457444" lon="11.592111305102462"><ele>346.0</ele><time>2026-03-22T11:10:51.924Z</time></trkpt><trkpt lat="43.06057925149566" lon="11.591866737668896"><ele>344.5</ele><time>2026-03-22T11:10:52.924Z</time></trkpt><trkpt lat="43.060711874851364" lon="11.591628869504818"><ele>343.0</ele><time>2026-03-22T11:10:53.923Z</time></trkpt><trkpt lat="43.06085623444085" lon="11.591369648745518"><ele>344.5</ele><time>2026-03-22T11:10:54.923Z</time></trkpt><trkpt lat="43.061022302414116" lon="11.591107946244485"><ele>346.0</ele><time>2026-03-22T11:10:55.923Z</time></trkpt><trkpt lat="43.061187666362" lon="11.59083321234037"><ele>346.0</ele><time>2026-03-22T11:10:56.923Z</time></trkpt><trkpt lat="43.06132475907438" lon="11.59055513441823"><ele>346.0</ele><time>2026-03-22T11:10:57.923Z</time></trkpt><trkpt lat="43.061468878455536" lon="11.59027370756839"><ele>348.0</ele><time>2026-03-22T11:10:58.923Z</time></trkpt><trkpt lat="43.06159411556848" lon="11.590013031016165"><ele>350.0</ele><time>2026-03-22T11:10:59.923Z</time></trkpt><trkpt lat="43.061698822133685" lon="11.589774667430385"><ele>352.0</ele><time>2026-03-22T11:11:00.923Z</time></trkpt><trkpt lat="43.06178402717471" lon="11.589559306016408"><ele>348.66666666666663</ele><time>2026-03-22T11:11:01.923Z</time></trkpt><trkpt lat="43.06187021261856" lon="11.589328565859134"><ele>345.3333333333333</ele><time>2026-03-22T11:11:02.923Z</time></trkpt><trkpt lat="43.06194766417253" lon="11.589137171912748"><ele>342.0</ele><time>2026-03-22T11:11:03.923Z</time></trkpt><trkpt lat="43.062020672561964" lon="11.588879868933716"><ele>341.3333333333333</ele><time>2026-03-22T11:11:04.923Z</time></trkpt><trkpt lat="43.062099973423145" lon="11.588615263942664"><ele>340.66666666666663</ele><time>2026-03-22T11:11:05.923Z</time></trkpt><trkpt lat="43.062176253006655" lon="11.588354011332767"><ele>340.0</ele><time>2026-03-22T11:11:06.923Z</time></trkpt><trkpt lat="43.06225660848802" lon="11.588083598242104"><ele>339.3333333333333</ele><time>2026-03-22T11:11:07.923Z</time></trkpt><trkpt lat="43.062345489571726" lon="11.58781680343985"><ele>338.6666666666667</ele><time>2026-03-22T11:11:08.923Z</time></trkpt><trkpt lat="43.06244446965711" lon="11.587554256094624"><ele>338.0</ele><time>2026-03-22T11:11:09.923Z</time></trkpt><trkpt lat="43.06255485904834" lon="11.587296070375176"><ele>334.33333333333337</ele><time>2026-03-22T11:11:10.923Z</time></trkpt><trkpt lat="43.06267038344825" lon="11.58704286346437"><ele>330.6666666666667</ele><time>2026-03-22T11:11:11.923Z</time></trkpt><trkpt lat="43.062795758238295" lon="11.58679355891171"><ele>327.0</ele><time>2026-03-22T11:11:12.923Z</time></trkpt><trkpt lat="43.06293251331226" lon="11.586551668392007"><ele>327.0</ele><time>2026-03-22T11:11:13.923Z</time></trkpt><trkpt lat="43.06308045777664" lon="11.586320695279227"><ele>327.0</ele><time>2026-03-22T11:11:14.923Z</time></trkpt><trkpt lat="43.06324005458545" lon="11.586100842704441"><ele>323.5</ele><time>2026-03-22T11:11:15.923Z</time></trkpt><trkpt lat="43.06341143074223" lon="11.585889988053154"><ele>320.0</ele><time>2026-03-22T11:11:16.923Z</time></trkpt><trkpt lat="43.06359268809382" lon="11.58569283261971"><ele>320.0</ele><time>2026-03-22T11:11:17.923Z</time></trkpt><trkpt lat="43.06378061415159" lon="11.585516089730442"><ele>320.0</ele><time>2026-03-22T11:11:18.923Z</time></trkpt><trkpt lat="43.06397615210133" lon="11.58535450142353"><ele>320.0</ele><time>2026-03-22T11:11:19.923Z</time></trkpt><trkpt lat="43.06417758306256" lon="11.585195823581543"><ele>320.0</ele><time>2026-03-22T11:11:20.923Z</time></trkpt><trkpt lat="43.064386437795555" lon="11.585061751687869"><ele>320.0</ele><time>2026-03-22T11:11:21.923Z</time></trkpt><trkpt lat="43.0645963761263" lon="11.584962405450955"><ele>320.0</ele><time>2026-03-22T11:11:22.923Z</time></trkpt><trkpt lat="43.06480327932347" lon="11.58484500243675"><ele>320.0</ele><time>2026-03-22T11:11:23.922Z</time></trkpt><trkpt lat="43.065018463882375" lon="11.584723411356617"><ele>318.6666666666667</ele><time>2026-03-22T11:11:24.922Z</time></trkpt><trkpt lat="43.065195703151595" lon="11.584624538517676"><ele>317.3333333333333</ele><time>2026-03-22T11:11:25.922Z</time></trkpt><trkpt lat="43.06535939097887" lon="11.5845331129411"><ele>316.0</ele><time>2026-03-22T11:11:26.922Z</time></trkpt><trkpt lat="43.065514749916396" lon="11.584445519432363"><ele>316.0</ele><time>2026-03-22T11:11:27.922Z</time></trkpt><trkpt lat="43.06566660865615" lon="11.584359788172796"><ele>316.0</ele><time>2026-03-22T11:11:28.922Z</time></trkpt><trkpt lat="43.065828539611445" lon="11.584267173381585"><ele>316.0</ele><time>2026-03-22T11:11:29.922Z</time></trkpt><trkpt lat="43.066326176631335" lon="11.58385788926565"><ele>312.5</ele><time>2026-03-22T11:11:30.922Z</time></trkpt><trkpt lat="43.066535605896966" lon="11.583734964178031"><ele>309.0</ele><time>2026-03-22T11:11:31.922Z</time></trkpt><trkpt lat="43.066742417196906" lon="11.583606152213253"><ele>309.0</ele><time>2026-03-22T11:11:32.922Z</time></trkpt><trkpt lat="43.06695351492209" lon="11.583480848131034"><ele>309.0</ele><time>2026-03-22T11:11:33.922Z</time></trkpt><trkpt lat="43.06715936722277" lon="11.583354439384548"><ele>309.0</ele><time>2026-03-22T11:11:34.922Z</time></trkpt><trkpt lat="43.06735592551841" lon="11.583218570946201"><ele>309.0</ele><time>2026-03-22T11:11:35.922Z</time></trkpt><trkpt lat="43.06754697622605" lon="11.58309213675876"><ele>309.0</ele><time>2026-03-22T11:11:36.922Z</time></trkpt><trkpt lat="43.06773736826245" lon="11.58294838068943"><ele>308.0</ele><time>2026-03-22T11:11:37.922Z</time></trkpt><trkpt lat="43.06792192170772" lon="11.582795943950943"><ele>307.0</ele><time>2026-03-22T11:11:38.922Z</time></trkpt><trkpt lat="43.068100782381805" lon="11.582636219792164"><ele>306.0</ele><time>2026-03-22T11:11:39.922Z</time></trkpt><trkpt lat="43.06828084313272" lon="11.582464784407602"><ele>303.3333333333333</ele><time>2026-03-22T11:11:40.922Z</time></trkpt><trkpt lat="43.068454786535014" lon="11.582285572316408"><ele>300.66666666666663</ele><time>2026-03-22T11:11:41.922Z</time></trkpt><trkpt lat="43.06862312367083" lon="11.58209973253047"><ele>298.0</ele><time>2026-03-22T11:11:42.922Z</time></trkpt><trkpt lat="43.06878777067855" lon="11.581901214334492"><ele>298.0</ele><time>2026-03-22T11:11:43.922Z</time></trkpt><trkpt lat="43.06893651616769" lon="11.581678227728624"><ele>298.0</ele><time>2026-03-22T11:11:44.922Z</time></trkpt><trkpt lat="43.06909211988195" lon="11.581462147154712"><ele>298.0</ele><time>2026-03-22T11:11:45.922Z</time></trkpt><trkpt lat="43.06924625289554" lon="11.581242856407368"><ele>294.66666666666663</ele><time>2026-03-22T11:11:46.922Z</time></trkpt><trkpt lat="43.06939769923499" lon="11.581020178152597"><ele>291.3333333333333</ele><time>2026-03-22T11:11:47.922Z</time></trkpt><trkpt lat="43.06952991314943" lon="11.580769540251953"><ele>288.0</ele><time>2026-03-22T11:11:48.922Z</time></trkpt><trkpt lat="43.069659247231904" lon="11.580525863651195"><ele>287.0</ele><time>2026-03-22T11:11:49.922Z</time></trkpt><trkpt lat="43.06976294454408" lon="11.580258470425392"><ele>286.0</ele><time>2026-03-22T11:11:50.922Z</time></trkpt><trkpt lat="43.06986408749426" lon="11.57998820409151"><ele>285.0</ele><time>2026-03-22T11:11:51.922Z</time></trkpt><trkpt lat="43.069957890376344" lon="11.579707571666821"><ele>279.5</ele><time>2026-03-22T11:11:52.922Z</time></trkpt><trkpt lat="43.07001806140358" lon="11.579380574606912"><ele>274.0</ele><time>2026-03-22T11:11:53.921Z</time></trkpt><trkpt lat="43.07008956475282" lon="11.579070019395237"><ele>274.0</ele><time>2026-03-22T11:11:54.921Z</time></trkpt><trkpt lat="43.07014951744312" lon="11.578751748720768"><ele>274.0</ele><time>2026-03-22T11:11:55.921Z</time></trkpt><trkpt lat="43.07019809361658" lon="11.578440846509956"><ele>269.5</ele><time>2026-03-22T11:11:56.921Z</time></trkpt><trkpt lat="43.07023740692657" lon="11.578121335192527"><ele>265.0</ele><time>2026-03-22T11:11:57.921Z</time></trkpt><trkpt lat="43.07026410902693" lon="11.577803354581231"><ele>261.0</ele><time>2026-03-22T11:11:58.921Z</time></trkpt><trkpt lat="43.070274551125905" lon="11.577482470021945"><ele>257.0</ele><time>2026-03-22T11:11:59.921Z</time></trkpt><trkpt lat="43.07027233434248" lon="11.577160182830475"><ele>253.5</ele><time>2026-03-22T11:12:00.921Z</time></trkpt><trkpt lat="43.07026215248256" lon="11.576834104300394"><ele>250.0</ele><time>2026-03-22T11:12:01.921Z</time></trkpt><trkpt lat="43.07023642735984" lon="11.576504307476258"><ele>249.0</ele><time>2026-03-22T11:12:02.921Z</time></trkpt><trkpt lat="43.070200806378196" lon="11.57616969178079"><ele>248.0</ele><time>2026-03-22T11:12:03.921Z</time></trkpt><trkpt lat="43.07015257563303" lon="11.575829914972434"><ele>248.0</ele><time>2026-03-22T11:12:04.924Z</time></trkpt><trkpt lat="43.07008865999687" lon="11.57549936391302"><ele>248.0</ele><time>2026-03-22T11:12:05.923Z</time></trkpt><trkpt lat="43.07001468865103" lon="11.575189669372767"><ele>246.5</ele><time>2026-03-22T11:12:06.923Z</time></trkpt><trkpt lat="43.069931216929284" lon="11.574891273306504"><ele>245.0</ele><time>2026-03-22T11:12:07.923Z</time></trkpt><trkpt lat="43.06984132771094" lon="11.574599083649911"><ele>244.66666666666669</ele><time>2026-03-22T11:12:08.923Z</time></trkpt><trkpt lat="43.06974582785505" lon="11.574322404533948"><ele>244.33333333333331</ele><time>2026-03-22T11:12:09.923Z</time></trkpt><trkpt lat="43.06963832219875" lon="11.574050396213062"><ele>244.0</ele><time>2026-03-22T11:12:10.923Z</time></trkpt><trkpt lat="43.0695196792582" lon="11.573788487961775"><ele>245.0</ele><time>2026-03-22T11:12:11.924Z</time></trkpt><trkpt lat="43.06939594441531" lon="11.573523871551219"><ele>246.0</ele><time>2026-03-22T11:12:12.924Z</time></trkpt><trkpt lat="43.06926955736056" lon="11.573267189758706"><ele>246.0</ele><time>2026-03-22T11:12:13.923Z</time></trkpt><trkpt lat="43.06913737323583" lon="11.573012903593215"><ele>246.0</ele><time>2026-03-22T11:12:14.923Z</time></trkpt><trkpt lat="43.069004209593764" lon="11.57276028263049"><ele>245.5</ele><time>2026-03-22T11:12:15.923Z</time></trkpt><trkpt lat="43.06886498369595" lon="11.572510572419384"><ele>245.0</ele><time>2026-03-22T11:12:16.923Z</time></trkpt><trkpt lat="43.06871951610654" lon="11.572269527391216"><ele>245.0</ele><time>2026-03-22T11:12:17.923Z</time></trkpt><trkpt lat="43.06856315783699" lon="11.57202777855142"><ele>245.0</ele><time>2026-03-22T11:12:18.923Z</time></trkpt><trkpt lat="43.0684047303744" lon="11.571783749131955"><ele>244.0</ele><time>2026-03-22T11:12:19.923Z</time></trkpt><trkpt lat="43.06824220938545" lon="11.571532410119252"><ele>243.0</ele><time>2026-03-22T11:12:20.923Z</time></trkpt><trkpt lat="43.068068583322926" lon="11.57128168330135"><ele>246.0</ele><time>2026-03-22T11:12:21.923Z</time></trkpt><trkpt lat="43.06789805966246" lon="11.571028142881179"><ele>249.0</ele><time>2026-03-22T11:12:22.923Z</time></trkpt><trkpt lat="43.06772613749453" lon="11.570775456296285"><ele>249.0</ele><time>2026-03-22T11:12:23.923Z</time></trkpt><trkpt lat="43.06755471154764" lon="11.570533437962878"><ele>249.0</ele><time>2026-03-22T11:12:24.923Z</time></trkpt><trkpt lat="43.06739087518818" lon="11.570298918347468"><ele>248.5</ele><time>2026-03-22T11:12:25.923Z</time></trkpt><trkpt lat="43.0672309547429" lon="11.570065600608919"><ele>248.0</ele><time>2026-03-22T11:12:26.923Z</time></trkpt><trkpt lat="43.06707045907606" lon="11.569836523847076"><ele>248.0</ele><time>2026-03-22T11:12:27.923Z</time></trkpt><trkpt lat="43.06691302475909" lon="11.569608141172463"><ele>248.0</ele><time>2026-03-22T11:12:28.923Z</time></trkpt><trkpt lat="43.06674831843556" lon="11.569387288794081"><ele>245.5</ele><time>2026-03-22T11:12:29.923Z</time></trkpt><trkpt lat="43.06659007912898" lon="11.569161540061211"><ele>243.0</ele><time>2026-03-22T11:12:30.923Z</time></trkpt><trkpt lat="43.06643159149867" lon="11.568936447339313"><ele>243.0</ele><time>2026-03-22T11:12:31.923Z</time></trkpt><trkpt lat="43.06627430189704" lon="11.568712438183821"><ele>243.0</ele><time>2026-03-22T11:12:32.923Z</time></trkpt><trkpt lat="43.06611462452129" lon="11.568483892349208"><ele>243.5</ele><time>2026-03-22T11:12:33.923Z</time></trkpt><trkpt lat="43.06595501388415" lon="11.568253563031984"><ele>244.0</ele><time>2026-03-22T11:12:34.922Z</time></trkpt><trkpt lat="43.065796284212894" lon="11.568028571073219"><ele>244.5</ele><time>2026-03-22T11:12:35.922Z</time></trkpt><trkpt lat="43.06563261517688" lon="11.567803425045144"><ele>245.0</ele><time>2026-03-22T11:12:36.922Z</time></trkpt><trkpt lat="43.06547141049985" lon="11.567574025441784"><ele>245.0</ele><time>2026-03-22T11:12:37.922Z</time></trkpt><trkpt lat="43.065310975568025" lon="11.567340412202581"><ele>245.0</ele><time>2026-03-22T11:12:38.922Z</time></trkpt><trkpt lat="43.065147341916266" lon="11.56710689610904"><ele>246.0</ele><time>2026-03-22T11:12:39.922Z</time></trkpt><trkpt lat="43.064997205238086" lon="11.566865102600168"><ele>247.0</ele><time>2026-03-22T11:12:40.922Z</time></trkpt><trkpt lat="43.06485164611906" lon="11.566616365432845"><ele>247.0</ele><time>2026-03-22T11:12:41.922Z</time></trkpt><trkpt lat="43.06471402085928" lon="11.566358405213002"><ele>247.0</ele><time>2026-03-22T11:12:42.922Z</time></trkpt><trkpt lat="43.064577521765614" lon="11.56609694724028"><ele>249.0</ele><time>2026-03-22T11:12:43.922Z</time></trkpt><trkpt lat="43.06445570730783" lon="11.565823491534482"><ele>251.0</ele><time>2026-03-22T11:12:44.922Z</time></trkpt><trkpt lat="43.064341191894115" lon="11.56554765537846"><ele>252.0</ele><time>2026-03-22T11:12:45.922Z</time></trkpt><trkpt lat="43.06423760214565" lon="11.565259800029148"><ele>253.0</ele><time>2026-03-22T11:12:46.922Z</time></trkpt><trkpt lat="43.06414651779423" lon="11.564964647454868"><ele>249.0</ele><time>2026-03-22T11:12:47.922Z</time></trkpt><trkpt lat="43.064065383554166" lon="11.564665743964179"><ele>245.0</ele><time>2026-03-22T11:12:48.922Z</time></trkpt><trkpt lat="43.063989946735155" lon="11.564360074693914"><ele>244.5</ele><time>2026-03-22T11:12:49.922Z</time></trkpt><trkpt lat="43.06392762548511" lon="11.564054439776896"><ele>244.0</ele><time>2026-03-22T11:12:50.922Z</time></trkpt><trkpt lat="43.063879395105644" lon="11.563746225448709"><ele>243.5</ele><time>2026-03-22T11:12:51.922Z</time></trkpt><trkpt lat="43.063846844243564" lon="11.563429558687059"><ele>243.0</ele><time>2026-03-22T11:12:52.922Z</time></trkpt><trkpt lat="43.06382667827164" lon="11.563114197463573"><ele>244.5</ele><time>2026-03-22T11:12:53.922Z</time></trkpt><trkpt lat="43.06381347775048" lon="11.562804656007096"><ele>246.0</ele><time>2026-03-22T11:12:54.922Z</time></trkpt><trkpt lat="43.06381347600187" lon="11.562493984791411"><ele>246.0</ele><time>2026-03-22T11:12:55.922Z</time></trkpt><trkpt lat="43.06381432672399" lon="11.562182682783742"><ele>246.0</ele><time>2026-03-22T11:12:56.922Z</time></trkpt><trkpt lat="43.06381817300117" lon="11.561891876665358"><ele>246.0</ele><time>2026-03-22T11:12:57.922Z</time></trkpt><trkpt lat="43.06383630476657" lon="11.561616450507366"><ele>248.33333333333331</ele><time>2026-03-22T11:12:58.922Z</time></trkpt><trkpt lat="43.06385560275488" lon="11.561355578030089"><ele>250.66666666666666</ele><time>2026-03-22T11:12:59.922Z</time></trkpt><trkpt lat="43.06387228692933" lon="11.5611068274186"><ele>253.0</ele><time>2026-03-22T11:13:00.922Z</time></trkpt><trkpt lat="43.06389147623872" lon="11.560858800108678"><ele>255.0</ele><time>2026-03-22T11:13:01.922Z</time></trkpt><trkpt lat="43.06390836709417" lon="11.560619680350506"><ele>257.0</ele><time>2026-03-22T11:13:02.922Z</time></trkpt><trkpt lat="43.06392467838352" lon="11.56038905537611"><ele>259.0</ele><time>2026-03-22T11:13:03.922Z</time></trkpt><trkpt lat="43.0639402561568" lon="11.560164901690035"><ele>259.0</ele><time>2026-03-22T11:13:04.921Z</time></trkpt><trkpt lat="43.063953376433666" lon="11.559952856199972"><ele>259.0</ele><time>2026-03-22T11:13:05.921Z</time></trkpt><trkpt lat="43.06396478699303" lon="11.559743608208343"><ele>259.0</ele><time>2026-03-22T11:13:06.921Z</time></trkpt><trkpt lat="43.06397413978944" lon="11.559539629813258"><ele>257.25</ele><time>2026-03-22T11:13:07.921Z</time></trkpt><trkpt lat="43.06398873761569" lon="11.559340592316884"><ele>255.5</ele><time>2026-03-22T11:13:08.921Z</time></trkpt><trkpt lat="43.064008233833015" lon="11.559150290389933"><ele>253.75</ele><time>2026-03-22T11:13:09.921Z</time></trkpt><trkpt lat="43.0640287732184" lon="11.558953825359387"><ele>252.0</ele><time>2026-03-22T11:13:10.921Z</time></trkpt><trkpt lat="43.06404261903004" lon="11.55875167841223"><ele>251.0</ele><time>2026-03-22T11:13:11.921Z</time></trkpt><trkpt lat="43.06406282957492" lon="11.558551637550352"><ele>250.0</ele><time>2026-03-22T11:13:12.921Z</time></trkpt><trkpt lat="43.06407356143886" lon="11.558351181485031"><ele>249.0</ele><time>2026-03-22T11:13:13.921Z</time></trkpt><trkpt lat="43.06408655767064" lon="11.558151885721854"><ele>248.0</ele><time>2026-03-22T11:13:14.921Z</time></trkpt><trkpt lat="43.06409795457626" lon="11.557950888751323"><ele>246.0</ele><time>2026-03-22T11:13:15.921Z</time></trkpt><trkpt lat="43.0641124670108" lon="11.557745122697055"><ele>244.0</ele><time>2026-03-22T11:13:16.921Z</time></trkpt><trkpt lat="43.06412460965011" lon="11.557541532713024"><ele>242.0</ele><time>2026-03-22T11:13:17.921Z</time></trkpt><trkpt lat="43.064138012635354" lon="11.55733370325124"><ele>242.0</ele><time>2026-03-22T11:13:18.921Z</time></trkpt><trkpt lat="43.064154982453495" lon="11.557127093482531"><ele>242.0</ele><time>2026-03-22T11:13:19.921Z</time></trkpt><trkpt lat="43.06417200311256" lon="11.556916055266095"><ele>242.0</ele><time>2026-03-22T11:13:20.921Z</time></trkpt><trkpt lat="43.064190680211695" lon="11.556697720239718"><ele>243.66666666666669</ele><time>2026-03-22T11:13:21.921Z</time></trkpt><trkpt lat="43.06420567403011" lon="11.556473910533905"><ele>245.33333333333331</ele><time>2026-03-22T11:13:22.921Z</time></trkpt><trkpt lat="43.06422625361365" lon="11.556246685337987"><ele>247.0</ele><time>2026-03-22T11:13:23.921Z</time></trkpt><trkpt lat="43.06425276898906" lon="11.556014969513843"><ele>248.0</ele><time>2026-03-22T11:13:24.921Z</time></trkpt><trkpt lat="43.064280942761094" lon="11.55577955108251"><ele>249.0</ele><time>2026-03-22T11:13:25.921Z</time></trkpt><trkpt lat="43.064318769887954" lon="11.55554356629582"><ele>250.0</ele><time>2026-03-22T11:13:26.921Z</time></trkpt><trkpt lat="43.06436819949647" lon="11.555307659338094"><ele>250.0</ele><time>2026-03-22T11:13:27.921Z</time></trkpt><trkpt lat="43.0644247129476" lon="11.555062125943273"><ele>250.0</ele><time>2026-03-22T11:13:28.921Z</time></trkpt><trkpt lat="43.06447889446653" lon="11.554820537792736"><ele>250.0</ele><time>2026-03-22T11:13:29.921Z</time></trkpt><trkpt lat="43.064544484565" lon="11.554571941062262"><ele>247.0</ele><time>2026-03-22T11:13:30.921Z</time></trkpt><trkpt lat="43.06461366339258" lon="11.554317042222523"><ele>244.0</ele><time>2026-03-22T11:13:31.921Z</time></trkpt><trkpt lat="43.06468959902359" lon="11.55406724908998"><ele>241.0</ele><time>2026-03-22T11:13:32.921Z</time></trkpt><trkpt lat="43.06476985402784" lon="11.553817765163748"><ele>240.66666666666666</ele><time>2026-03-22T11:13:33.921Z</time></trkpt><trkpt lat="43.064851123908994" lon="11.553567634243658"><ele>240.33333333333331</ele><time>2026-03-22T11:13:34.92Z</time></trkpt><trkpt lat="43.0649319486082" lon="11.553315902260273"><ele>240.0</ele><time>2026-03-22T11:13:35.92Z</time></trkpt><trkpt lat="43.06501194549036" lon="11.553058727148"><ele>238.33333333333331</ele><time>2026-03-22T11:13:36.92Z</time></trkpt><trkpt lat="43.065095576588305" lon="11.552803811686585"><ele>236.66666666666666</ele><time>2026-03-22T11:13:37.92Z</time></trkpt><trkpt lat="43.065171422253634" lon="11.552551040003896"><ele>235.0</ele><time>2026-03-22T11:13:38.92Z</time></trkpt><trkpt lat="43.0652476056224" lon="11.552294310711332"><ele>234.33333333333331</ele><time>2026-03-22T11:13:39.92Z</time></trkpt><trkpt lat="43.065329075847835" lon="11.552034919981619"><ele>233.66666666666669</ele><time>2026-03-22T11:13:40.92Z</time></trkpt><trkpt lat="43.06541156454402" lon="11.551779724633823"><ele>233.0</ele><time>2026-03-22T11:13:41.92Z</time></trkpt><trkpt lat="43.0654916210372" lon="11.551518104890993"><ele>233.0</ele><time>2026-03-22T11:13:42.92Z</time></trkpt><trkpt lat="43.06557323780285" lon="11.55125705860896"><ele>233.0</ele><time>2026-03-22T11:13:43.92Z</time></trkpt><trkpt lat="43.0656584983054" lon="11.550996447690325"><ele>233.0</ele><time>2026-03-22T11:13:44.92Z</time></trkpt><trkpt lat="43.06574874253603" lon="11.550740829830163"><ele>233.33333333333334</ele><time>2026-03-22T11:13:45.92Z</time></trkpt><trkpt lat="43.06583462363912" lon="11.550491822820039"><ele>233.66666666666669</ele><time>2026-03-22T11:13:46.92Z</time></trkpt><trkpt lat="43.065919932695024" lon="11.550257740888952"><ele>234.0</ele><time>2026-03-22T11:13:47.92Z</time></trkpt><trkpt lat="43.06600685451991" lon="11.550028654241991"><ele>235.0</ele><time>2026-03-22T11:13:48.92Z</time></trkpt><trkpt lat="43.06609718043702" lon="11.549802501821732"><ele>236.0</ele><time>2026-03-22T11:13:49.92Z</time></trkpt><trkpt lat="43.06619140758465" lon="11.549588895745822"><ele>237.0</ele><time>2026-03-22T11:13:50.92Z</time></trkpt><trkpt lat="43.06628811315057" lon="11.549394537033574"><ele>237.33333333333331</ele><time>2026-03-22T11:13:51.92Z</time></trkpt><trkpt lat="43.06638473063483" lon="11.549204131877236"><ele>237.66666666666666</ele><time>2026-03-22T11:13:52.92Z</time></trkpt><trkpt lat="43.066486347748736" lon="11.549029608883732"><ele>238.0</ele><time>2026-03-22T11:13:53.92Z</time></trkpt><trkpt lat="43.06659140661189" lon="11.548855370875168"><ele>239.0</ele><time>2026-03-22T11:13:54.92Z</time></trkpt><trkpt lat="43.066703270381694" lon="11.548687001122673"><ele>240.0</ele><time>2026-03-22T11:13:55.92Z</time></trkpt><trkpt lat="43.06681731728513" lon="11.548522621290632"><ele>241.0</ele><time>2026-03-22T11:13:56.92Z</time></trkpt><trkpt lat="43.06693856021781" lon="11.548368692298645"><ele>241.0</ele><time>2026-03-22T11:13:57.92Z</time></trkpt><trkpt lat="43.06706298475203" lon="11.548215784483848"><ele>241.0</ele><time>2026-03-22T11:13:58.92Z</time></trkpt><trkpt lat="43.06718448639416" lon="11.548084955669998"><ele>241.0</ele><time>2026-03-22T11:13:59.92Z</time></trkpt><trkpt lat="43.0673040027275" lon="11.547960116719914"><ele>240.75</ele><time>2026-03-22T11:14:00.92Z</time></trkpt><trkpt lat="43.06742306848093" lon="11.54784335017881"><ele>240.5</ele><time>2026-03-22T11:14:01.92Z</time></trkpt><trkpt lat="43.06754690095317" lon="11.547732832285034"><ele>240.25</ele><time>2026-03-22T11:14:02.92Z</time></trkpt><trkpt lat="43.06767633515763" lon="11.547630378329705"><ele>240.0</ele><time>2026-03-22T11:14:03.92Z</time></trkpt><trkpt lat="43.06780654568085" lon="11.547535648758753"><ele>239.75</ele><time>2026-03-22T11:14:04.919Z</time></trkpt><trkpt lat="43.06793349124413" lon="11.547450120979217"><ele>239.5</ele><time>2026-03-22T11:14:05.919Z</time></trkpt><trkpt lat="43.068059974529106" lon="11.547365614832284"><ele>239.25</ele><time>2026-03-22T11:14:06.919Z</time></trkpt><trkpt lat="43.06818391492135" lon="11.547289762297355"><ele>239.0</ele><time>2026-03-22T11:14:07.919Z</time></trkpt><trkpt lat="43.06830682874329" lon="11.547222109268864"><ele>239.75</ele><time>2026-03-22T11:14:08.919Z</time></trkpt><trkpt lat="43.06842884379158" lon="11.547165001837726"><ele>240.5</ele><time>2026-03-22T11:14:09.919Z</time></trkpt><trkpt lat="43.068550391251335" lon="11.547112701445245"><ele>241.25</ele><time>2026-03-22T11:14:10.922Z</time></trkpt><trkpt lat="43.06867055804095" lon="11.547064339972142"><ele>242.0</ele><time>2026-03-22T11:14:11.922Z</time></trkpt><trkpt lat="43.06879869843046" lon="11.547020191321067"><ele>243.0</ele><time>2026-03-22T11:14:12.922Z</time></trkpt><trkpt lat="43.06893364203865" lon="11.546980977624584"><ele>244.0</ele><time>2026-03-22T11:14:13.922Z</time></trkpt><trkpt lat="43.069060822617594" lon="11.54694835800501"><ele>245.0</ele><time>2026-03-22T11:14:14.922Z</time></trkpt><trkpt lat="43.06919112812172" lon="11.54691897430853"><ele>246.0</ele><time>2026-03-22T11:14:15.922Z</time></trkpt><trkpt lat="43.069322810407215" lon="11.546896557761315"><ele>246.25</ele><time>2026-03-22T11:14:16.922Z</time></trkpt><trkpt lat="43.06945351901103" lon="11.546875375250762"><ele>246.5</ele><time>2026-03-22T11:14:17.922Z</time></trkpt><trkpt lat="43.06958557967008" lon="11.546860033268162"><ele>246.75</ele><time>2026-03-22T11:14:18.921Z</time></trkpt><trkpt lat="43.0697163830457" lon="11.546851187150933"><ele>247.0</ele><time>2026-03-22T11:14:19.922Z</time></trkpt><trkpt lat="43.069842366881026" lon="11.546849526658445"><ele>246.2</ele><time>2026-03-22T11:14:20.921Z</time></trkpt><trkpt lat="43.069961552489204" lon="11.546860563606987"><ele>245.39999999999998</ele><time>2026-03-22T11:14:21.921Z</time></trkpt><trkpt lat="43.07007106041038" lon="11.546881755566321"><ele>244.60000000000002</ele><time>2026-03-22T11:14:22.922Z</time></trkpt><trkpt lat="43.07016420490983" lon="11.546909030967702"><ele>243.8</ele><time>2026-03-22T11:14:23.922Z</time></trkpt><trkpt lat="43.070242577536625" lon="11.546932402416243"><ele>243.0</ele><time>2026-03-22T11:14:24.922Z</time></trkpt><trkpt lat="43.07033111211508" lon="11.546958547936521"><ele>243.0</ele><time>2026-03-22T11:14:26.922Z</time></trkpt><trkpt lat="43.07039533177437" lon="11.546951780137368"><ele>243.0</ele><time>2026-03-22T11:14:41.922Z</time></trkpt><trkpt lat="43.070344351656836" lon="11.546896674912158"><ele>243.0</ele><time>2026-03-22T11:14:54.921Z</time></trkpt><trkpt lat="43.07026338788082" lon="11.546881475745478"><ele>243.0</ele><time>2026-03-22T11:14:55.921Z</time></trkpt><trkpt lat="43.070139016112314" lon="11.546759435816368"><ele>243.0</ele><time>2026-03-22T11:14:56.921Z</time></trkpt><trkpt lat="43.07002352334239" lon="11.546743886873138"><ele>244.0</ele><time>2026-03-22T11:14:57.921Z</time></trkpt><trkpt lat="43.069906084790695" lon="11.546731816904238"><ele>245.0</ele><time>2026-03-22T11:14:58.921Z</time></trkpt><trkpt lat="43.06978614837281" lon="11.546721081020198"><ele>246.0</ele><time>2026-03-22T11:14:59.921Z</time></trkpt><trkpt lat="43.069659294588114" lon="11.54671983534736"><ele>247.0</ele><time>2026-03-22T11:15:00.921Z</time></trkpt><trkpt lat="43.069529075964574" lon="11.5467250295401"><ele>247.0</ele><time>2026-03-22T11:15:01.921Z</time></trkpt><trkpt lat="43.06939206076911" lon="11.546711590881065"><ele>247.0</ele><time>2026-03-22T11:15:02.921Z</time></trkpt><trkpt lat="43.06926020032242" lon="11.546670083010573"><ele>247.0</ele><time>2026-03-22T11:15:03.921Z</time></trkpt><trkpt lat="43.069125868702905" lon="11.546607751880977"><ele>247.0</ele><time>2026-03-22T11:15:04.921Z</time></trkpt><trkpt lat="43.06899674775579" lon="11.546535703501396"><ele>246.75</ele><time>2026-03-22T11:15:05.921Z</time></trkpt><trkpt lat="43.06886991640008" lon="11.546450681723103"><ele>246.5</ele><time>2026-03-22T11:15:06.921Z</time></trkpt><trkpt lat="43.0687493555405" lon="11.546377731757905"><ele>246.25</ele><time>2026-03-22T11:15:07.921Z</time></trkpt><trkpt lat="43.068636307572646" lon="11.546308388571402"><ele>246.0</ele><time>2026-03-22T11:15:08.921Z</time></trkpt><trkpt lat="43.068519656994354" lon="11.546291325773195"><ele>246.0</ele><time>2026-03-22T11:15:09.921Z</time></trkpt><trkpt lat="43.06841036752266" lon="11.546254949866936"><ele>246.0</ele><time>2026-03-22T11:15:10.921Z</time></trkpt><trkpt lat="43.068295356301455" lon="11.546292202503409"><ele>246.0</ele><time>2026-03-22T11:15:11.921Z</time></trkpt><trkpt lat="43.068186131909094" lon="11.546363838645547"><ele>246.0</ele><time>2026-03-22T11:15:12.921Z</time></trkpt><trkpt lat="43.06807495860844" lon="11.546452116500532"><ele>246.0</ele><time>2026-03-22T11:15:13.921Z</time></trkpt><trkpt lat="43.06795416100297" lon="11.546514144754"><ele>246.0</ele><time>2026-03-22T11:15:14.92Z</time></trkpt><trkpt lat="43.067823443335115" lon="11.546590687674453"><ele>246.0</ele><time>2026-03-22T11:15:15.92Z</time></trkpt><trkpt lat="43.06768896352629" lon="11.546676107233875"><ele>246.0</ele><time>2026-03-22T11:15:16.92Z</time></trkpt><trkpt lat="43.06755110653014" lon="11.54676443051198"><ele>245.33333333333331</ele><time>2026-03-22T11:15:17.92Z</time></trkpt><trkpt lat="43.067403819389284" lon="11.546866986941824"><ele>244.66666666666666</ele><time>2026-03-22T11:15:18.92Z</time></trkpt><trkpt lat="43.067256669024985" lon="11.54697237204652"><ele>244.0</ele><time>2026-03-22T11:15:19.92Z</time></trkpt><trkpt lat="43.0671121314293" lon="11.547072809030967"><ele>243.0</ele><time>2026-03-22T11:15:20.92Z</time></trkpt><trkpt lat="43.066973164309886" lon="11.547167939261403"><ele>242.0</ele><time>2026-03-22T11:15:21.92Z</time></trkpt><trkpt lat="43.06683998176725" lon="11.547251783678421"><ele>241.0</ele><time>2026-03-22T11:15:22.92Z</time></trkpt><trkpt lat="43.066727957346494" lon="11.547320489459004"><ele>240.0</ele><time>2026-03-22T11:15:23.92Z</time></trkpt><trkpt lat="43.066627192856615" lon="11.547378404136053"><ele>239.8</ele><time>2026-03-22T11:15:24.92Z</time></trkpt><trkpt lat="43.06652743441907" lon="11.54741771023418"><ele>239.6</ele><time>2026-03-22T11:15:25.92Z</time></trkpt><trkpt lat="43.06644092325271" lon="11.547434305402295"><ele>239.39999999999998</ele><time>2026-03-22T11:15:26.92Z</time></trkpt><trkpt lat="43.066367327089665" lon="11.547407553009105"><ele>239.2</ele><time>2026-03-22T11:15:27.92Z</time></trkpt><trkpt lat="43.066275737441735" lon="11.547292574428418"><ele>239.0</ele><time>2026-03-22T11:15:29.92Z</time></trkpt><trkpt lat="43.06624657910001" lon="11.547198918974422"><ele>239.0</ele><time>2026-03-22T11:15:30.92Z</time></trkpt><trkpt lat="43.06623327236413" lon="11.547079029987447"><ele>238.99999999999997</ele><time>2026-03-22T11:15:31.92Z</time></trkpt><trkpt lat="43.066217389689314" lon="11.54694900555631"><ele>238.99999999999997</ele><time>2026-03-22T11:15:32.92Z</time></trkpt><trkpt lat="43.06619906606187" lon="11.546807130022383"><ele>239.0</ele><time>2026-03-22T11:15:33.92Z</time></trkpt><trkpt lat="43.066183605668435" lon="11.546653394952584"><ele>239.0</ele><time>2026-03-22T11:15:34.92Z</time></trkpt><trkpt lat="43.06616651708419" lon="11.546493618074708"><ele>239.25</ele><time>2026-03-22T11:15:35.92Z</time></trkpt><trkpt lat="43.06614631539794" lon="11.546316569440657"><ele>239.5</ele><time>2026-03-22T11:15:36.92Z</time></trkpt><trkpt lat="43.06612354416602" lon="11.546130323972852"><ele>239.75</ele><time>2026-03-22T11:15:37.92Z</time></trkpt><trkpt lat="43.06609829015608" lon="11.545939313428812"><ele>240.0</ele><time>2026-03-22T11:15:38.92Z</time></trkpt><trkpt lat="43.06607958167575" lon="11.545742797598328"><ele>240.33333333333331</ele><time>2026-03-22T11:15:39.92Z</time></trkpt><trkpt lat="43.06605754246285" lon="11.545539634165344"><ele>240.66666666666666</ele><time>2026-03-22T11:15:40.92Z</time></trkpt><trkpt lat="43.06603920694993" lon="11.545327000860567"><ele>241.0</ele><time>2026-03-22T11:15:41.92Z</time></trkpt><trkpt lat="43.06601479677386" lon="11.54511077988609"><ele>241.0</ele><time>2026-03-22T11:15:42.92Z</time></trkpt><trkpt lat="43.065990356434654" lon="11.54488988422472"><ele>241.0</ele><time>2026-03-22T11:15:43.92Z</time></trkpt><trkpt lat="43.06596638895406" lon="11.544664704608818"><ele>241.0</ele><time>2026-03-22T11:15:44.919Z</time></trkpt><trkpt lat="43.06593892530064" lon="11.544434320399956"><ele>240.66666666666666</ele><time>2026-03-22T11:15:45.919Z</time></trkpt><trkpt lat="43.06591809718239" lon="11.544205193828292"><ele>240.33333333333331</ele><time>2026-03-22T11:15:46.919Z</time></trkpt><trkpt lat="43.06591620747199" lon="11.543972238190035"><ele>240.0</ele><time>2026-03-22T11:15:47.919Z</time></trkpt><trkpt lat="43.06594075299901" lon="11.543737125096898"><ele>239.66666666666669</ele><time>2026-03-22T11:15:48.919Z</time></trkpt><trkpt lat="43.065981553998746" lon="11.543494678134856"><ele>239.33333333333334</ele><time>2026-03-22T11:15:49.919Z</time></trkpt><trkpt lat="43.06604232786726" lon="11.543251440637349"><ele>239.0</ele><time>2026-03-22T11:15:50.919Z</time></trkpt><trkpt lat="43.06611033229" lon="11.543003195534862"><ele>239.0</ele><time>2026-03-22T11:15:51.919Z</time></trkpt><trkpt lat="43.06618321420463" lon="11.542746047929427"><ele>239.0</ele><time>2026-03-22T11:15:52.919Z</time></trkpt><trkpt lat="43.06625593202771" lon="11.542482013202466"><ele>239.0</ele><time>2026-03-22T11:15:53.919Z</time></trkpt><trkpt lat="43.066329868586585" lon="11.54221370342994"><ele>239.0</ele><time>2026-03-22T11:15:54.919Z</time></trkpt><trkpt lat="43.066401420137844" lon="11.5419453126327"><ele>239.0</ele><time>2026-03-22T11:15:55.919Z</time></trkpt><trkpt lat="43.06647105572201" lon="11.541675740440676"><ele>239.0</ele><time>2026-03-22T11:15:56.919Z</time></trkpt><trkpt lat="43.06654112063293" lon="11.541409284111007"><ele>239.33333333333334</ele><time>2026-03-22T11:15:57.919Z</time></trkpt><trkpt lat="43.06661060715959" lon="11.541147659890568"><ele>239.66666666666669</ele><time>2026-03-22T11:15:58.919Z</time></trkpt><trkpt lat="43.06668117398112" lon="11.54089228933793"><ele>240.0</ele><time>2026-03-22T11:15:59.919Z</time></trkpt><trkpt lat="43.066749728442495" lon="11.540644461275889"><ele>240.66666666666669</ele><time>2026-03-22T11:16:00.919Z</time></trkpt><trkpt lat="43.06681230647792" lon="11.540402206431514"><ele>241.33333333333334</ele><time>2026-03-22T11:16:01.919Z</time></trkpt><trkpt lat="43.066865098811576" lon="11.540154689170736"><ele>242.0</ele><time>2026-03-22T11:16:02.919Z</time></trkpt><trkpt lat="43.066895580701555" lon="11.539901607756281"><ele>242.0</ele><time>2026-03-22T11:16:03.919Z</time></trkpt><trkpt lat="43.06689591698401" lon="11.539646953454094"><ele>242.0</ele><time>2026-03-22T11:16:04.919Z</time></trkpt><trkpt lat="43.06687655847256" lon="11.53939491271106"><ele>242.0</ele><time>2026-03-22T11:16:05.919Z</time></trkpt><trkpt lat="43.066826712953066" lon="11.539139809417007"><ele>241.66666666666669</ele><time>2026-03-22T11:16:06.919Z</time></trkpt><trkpt lat="43.066760763384416" lon="11.538884419895426"><ele>241.33333333333331</ele><time>2026-03-22T11:16:07.919Z</time></trkpt><trkpt lat="43.066684337373516" lon="11.538627517492502"><ele>241.0</ele><time>2026-03-22T11:16:08.919Z</time></trkpt><trkpt lat="43.066610015395895" lon="11.538367187150795"><ele>241.66666666666666</ele><time>2026-03-22T11:16:09.919Z</time></trkpt><trkpt lat="43.06653603838545" lon="11.538099975093811"><ele>242.33333333333331</ele><time>2026-03-22T11:16:10.919Z</time></trkpt><trkpt lat="43.06646004472129" lon="11.537832739007346"><ele>243.0</ele><time>2026-03-22T11:16:11.919Z</time></trkpt><trkpt lat="43.066386174227894" lon="11.537572169808087"><ele>243.0</ele><time>2026-03-22T11:16:12.919Z</time></trkpt><trkpt lat="43.066310150055884" lon="11.537311857105985"><ele>243.0</ele><time>2026-03-22T11:16:13.919Z</time></trkpt><trkpt lat="43.066232780702734" lon="11.537045270289074"><ele>243.0</ele><time>2026-03-22T11:16:14.919Z</time></trkpt><trkpt lat="43.066159715745606" lon="11.536778851072679"><ele>243.33333333333331</ele><time>2026-03-22T11:16:15.918Z</time></trkpt><trkpt lat="43.066089602636" lon="11.536503526667644"><ele>243.66666666666666</ele><time>2026-03-22T11:16:16.92Z</time></trkpt><trkpt lat="43.06601576837354" lon="11.536217589662684"><ele>244.0</ele><time>2026-03-22T11:16:17.921Z</time></trkpt><trkpt lat="43.06593934012986" lon="11.53593305449946"><ele>244.66666666666666</ele><time>2026-03-22T11:16:18.921Z</time></trkpt><trkpt lat="43.06586698178253" lon="11.535645355746722"><ele>245.33333333333331</ele><time>2026-03-22T11:16:19.92Z</time></trkpt><trkpt lat="43.06578795237339" lon="11.535355861177946"><ele>246.0</ele><time>2026-03-22T11:16:20.921Z</time></trkpt><trkpt lat="43.06571367321257" lon="11.535069957457353"><ele>246.0</ele><time>2026-03-22T11:16:21.921Z</time></trkpt><trkpt lat="43.06564714493086" lon="11.53478028979284"><ele>246.0</ele><time>2026-03-22T11:16:22.921Z</time></trkpt><trkpt lat="43.065563767475645" lon="11.534511284536727"><ele>246.0</ele><time>2026-03-22T11:16:23.92Z</time></trkpt><trkpt lat="43.06549098139903" lon="11.534231210948453"><ele>247.33333333333331</ele><time>2026-03-22T11:16:24.92Z</time></trkpt><trkpt lat="43.06540889588393" lon="11.533955987688834"><ele>248.66666666666666</ele><time>2026-03-22T11:16:25.92Z</time></trkpt><trkpt lat="43.06532722553668" lon="11.533701273423253"><ele>250.0</ele><time>2026-03-22T11:16:26.921Z</time></trkpt><trkpt lat="43.065251648213085" lon="11.533466603645513"><ele>251.33333333333331</ele><time>2026-03-22T11:16:27.921Z</time></trkpt><trkpt lat="43.06518226688408" lon="11.533251850302017"><ele>252.66666666666669</ele><time>2026-03-22T11:16:28.921Z</time></trkpt><trkpt lat="43.06513603827317" lon="11.53304260831664"><ele>254.0</ele><time>2026-03-22T11:16:29.921Z</time></trkpt><trkpt lat="43.065118362356756" lon="11.532831072323747"><ele>254.66666666666669</ele><time>2026-03-22T11:16:30.921Z</time></trkpt><trkpt lat="43.06513352268756" lon="11.532622009714139"><ele>255.33333333333331</ele><time>2026-03-22T11:16:31.92Z</time></trkpt><trkpt lat="43.065161152001934" lon="11.532414425852405"><ele>256.0</ele><time>2026-03-22T11:16:32.92Z</time></trkpt><trkpt lat="43.06519890421636" lon="11.532214055770593"><ele>257.0</ele><time>2026-03-22T11:16:33.92Z</time></trkpt><trkpt lat="43.0652293669555" lon="11.532018281023486"><ele>258.0</ele><time>2026-03-22T11:16:34.92Z</time></trkpt><trkpt lat="43.065224664412305" lon="11.531821735745147"><ele>259.0</ele><time>2026-03-22T11:16:35.92Z</time></trkpt><trkpt lat="43.06519002795671" lon="11.531631017707564"><ele>260.0</ele><time>2026-03-22T11:16:36.92Z</time></trkpt><trkpt lat="43.0651202497692" lon="11.531460656013989"><ele>260.0</ele><time>2026-03-22T11:16:37.92Z</time></trkpt><trkpt lat="43.06502879293142" lon="11.531308797086947"><ele>260.0</ele><time>2026-03-22T11:16:38.92Z</time></trkpt><trkpt lat="43.064925547173374" lon="11.531181113999368"><ele>260.0</ele><time>2026-03-22T11:16:39.92Z</time></trkpt><trkpt lat="43.06480009707907" lon="11.531089117143358"><ele>260.0</ele><time>2026-03-22T11:16:40.92Z</time></trkpt><trkpt lat="43.06466938039128" lon="11.531004996490834"><ele>261.0</ele><time>2026-03-22T11:16:41.92Z</time></trkpt><trkpt lat="43.064533664875434" lon="11.530923254117901"><ele>262.0</ele><time>2026-03-22T11:16:42.92Z</time></trkpt><trkpt lat="43.06440519783089" lon="11.530829624794562"><ele>263.0</ele><time>2026-03-22T11:16:43.92Z</time></trkpt><trkpt lat="43.06428907014149" lon="11.530712343698461"><ele>264.0</ele><time>2026-03-22T11:16:44.92Z</time></trkpt><trkpt lat="43.064187860798505" lon="11.53056984856144"><ele>263.6666666666667</ele><time>2026-03-22T11:16:45.92Z</time></trkpt><trkpt lat="43.064095155549936" lon="11.530402774836869"><ele>263.33333333333337</ele><time>2026-03-22T11:16:46.92Z</time></trkpt><trkpt lat="43.06400861759326" lon="11.530217987269959"><ele>263.0</ele><time>2026-03-22T11:16:47.92Z</time></trkpt><trkpt lat="43.06392520699582" lon="11.530026753501598"><ele>263.0</ele><time>2026-03-22T11:16:48.92Z</time></trkpt><trkpt lat="43.063842615309724" lon="11.529834872170799"><ele>263.0</ele><time>2026-03-22T11:16:49.92Z</time></trkpt><trkpt lat="43.063768866682835" lon="11.529639763084527"><ele>263.0</ele><time>2026-03-22T11:16:50.92Z</time></trkpt><trkpt lat="43.06370852486905" lon="11.529432882619004"><ele>264.6666666666667</ele><time>2026-03-22T11:16:51.92Z</time></trkpt><trkpt lat="43.06367383705015" lon="11.5292148440721"><ele>266.3333333333333</ele><time>2026-03-22T11:16:52.92Z</time></trkpt><trkpt lat="43.06365149869801" lon="11.528990448071998"><ele>268.0</ele><time>2026-03-22T11:16:53.92Z</time></trkpt><trkpt lat="43.0636313700044" lon="11.528764432095102"><ele>269.0</ele><time>2026-03-22T11:16:54.92Z</time></trkpt><trkpt lat="43.06360846057637" lon="11.528541454584081"><ele>270.0</ele><time>2026-03-22T11:16:55.92Z</time></trkpt><trkpt lat="43.06357369832441" lon="11.528325955410294"><ele>271.0</ele><time>2026-03-22T11:16:56.92Z</time></trkpt><trkpt lat="43.06351783396158" lon="11.528129580065617"><ele>271.0</ele><time>2026-03-22T11:16:57.92Z</time></trkpt><trkpt lat="43.063438658323925" lon="11.527951060206295"><ele>271.0</ele><time>2026-03-22T11:16:58.92Z</time></trkpt><trkpt lat="43.06334238462656" lon="11.527783013449165"><ele>271.0</ele><time>2026-03-22T11:16:59.92Z</time></trkpt><trkpt lat="43.063241843807155" lon="11.52763067007193"><ele>271.0</ele><time>2026-03-22T11:17:00.92Z</time></trkpt><trkpt lat="43.06314043239697" lon="11.52746477859964"><ele>271.0</ele><time>2026-03-22T11:17:01.919Z</time></trkpt><trkpt lat="43.06304255456052" lon="11.527294274084854"><ele>271.0</ele><time>2026-03-22T11:17:02.919Z</time></trkpt><trkpt lat="43.06294130835147" lon="11.527117610146618"><ele>273.3333333333333</ele><time>2026-03-22T11:17:03.919Z</time></trkpt><trkpt lat="43.06283768270546" lon="11.526942311990389"><ele>275.6666666666667</ele><time>2026-03-22T11:17:04.919Z</time></trkpt><trkpt lat="43.062732463943284" lon="11.52677357956328"><ele>278.0</ele><time>2026-03-22T11:17:05.919Z</time></trkpt><trkpt lat="43.062633603502206" lon="11.526604685956565"><ele>278.0</ele><time>2026-03-22T11:17:06.919Z</time></trkpt><trkpt lat="43.06254580019107" lon="11.526435898819752"><ele>278.0</ele><time>2026-03-22T11:17:07.919Z</time></trkpt><trkpt lat="43.06247251189635" lon="11.526259839006379"><ele>278.0</ele><time>2026-03-22T11:17:08.919Z</time></trkpt><trkpt lat="43.06241339599128" lon="11.526068202164014"><ele>275.6666666666667</ele><time>2026-03-22T11:17:09.919Z</time></trkpt><trkpt lat="43.062367426777655" lon="11.52586256321968"><ele>273.3333333333333</ele><time>2026-03-22T11:17:10.919Z</time></trkpt><trkpt lat="43.062328638010094" lon="11.525649592471947"><ele>271.0</ele><time>2026-03-22T11:17:11.919Z</time></trkpt><trkpt lat="43.06228902477896" lon="11.52543396748558"><ele>272.3333333333333</ele><time>2026-03-22T11:17:12.919Z</time></trkpt><trkpt lat="43.06224860671402" lon="11.525218971352931"><ele>273.6666666666667</ele><time>2026-03-22T11:17:13.919Z</time></trkpt><trkpt lat="43.06220942469458" lon="11.52501720167219"><ele>275.0</ele><time>2026-03-22T11:17:14.919Z</time></trkpt><trkpt lat="43.062163094941454" lon="11.524820866019247"><ele>275.0</ele><time>2026-03-22T11:17:15.919Z</time></trkpt><trkpt lat="43.06210180783835" lon="11.524632968768314"><ele>275.0</ele><time>2026-03-22T11:17:16.919Z</time></trkpt><trkpt lat="43.062022923032494" lon="11.52447156165138"><ele>275.0</ele><time>2026-03-22T11:17:17.919Z</time></trkpt><trkpt lat="43.06192860121617" lon="11.524325530765731"><ele>275.0</ele><time>2026-03-22T11:17:18.919Z</time></trkpt><trkpt lat="43.06182473988282" lon="11.524171655365388"><ele>277.33333333333337</ele><time>2026-03-22T11:17:19.919Z</time></trkpt><trkpt lat="43.061721739823206" lon="11.523999673885058"><ele>279.6666666666667</ele><time>2026-03-22T11:17:20.919Z</time></trkpt><trkpt lat="43.061629359759365" lon="11.523807138511225"><ele>282.0</ele><time>2026-03-22T11:17:21.919Z</time></trkpt><trkpt lat="43.06152988644679" lon="11.523605496472541"><ele>282.0</ele><time>2026-03-22T11:17:22.919Z</time></trkpt><trkpt lat="43.06142521282323" lon="11.52340409937671"><ele>282.0</ele><time>2026-03-22T11:17:23.919Z</time></trkpt><trkpt lat="43.06132814157508" lon="11.523218385678032"><ele>282.0</ele><time>2026-03-22T11:17:24.919Z</time></trkpt><trkpt lat="43.06123400423484" lon="11.523040384510782"><ele>284.0</ele><time>2026-03-22T11:17:25.919Z</time></trkpt><trkpt lat="43.061138451525665" lon="11.522859613132036"><ele>286.0</ele><time>2026-03-22T11:17:26.919Z</time></trkpt><trkpt lat="43.06102865458393" lon="11.522703987957229"><ele>288.0</ele><time>2026-03-22T11:17:27.919Z</time></trkpt><trkpt lat="43.06090568379644" lon="11.522562264807258"><ele>287.6666666666667</ele><time>2026-03-22T11:17:28.919Z</time></trkpt><trkpt lat="43.06077060085826" lon="11.52243734622819"><ele>287.33333333333337</ele><time>2026-03-22T11:17:29.919Z</time></trkpt><trkpt lat="43.060633874984084" lon="11.522318169794257"><ele>287.0</ele><time>2026-03-22T11:17:30.919Z</time></trkpt><trkpt lat="43.06050152200547" lon="11.522198497497303"><ele>287.0</ele><time>2026-03-22T11:17:31.918Z</time></trkpt><trkpt lat="43.060375266372574" lon="11.522079607824278"><ele>287.0</ele><time>2026-03-22T11:17:32.918Z</time></trkpt><trkpt lat="43.06025251502497" lon="11.521961807802457"><ele>287.0</ele><time>2026-03-22T11:17:33.918Z</time></trkpt><trkpt lat="43.060130420552106" lon="11.521850923768094"><ele>288.25</ele><time>2026-03-22T11:17:34.918Z</time></trkpt><trkpt lat="43.0600025000628" lon="11.52173790679878"><ele>289.5</ele><time>2026-03-22T11:17:35.918Z</time></trkpt><trkpt lat="43.059877887857205" lon="11.521624195860007"><ele>290.75</ele><time>2026-03-22T11:17:36.918Z</time></trkpt><trkpt lat="43.05975779595933" lon="11.521518375265833"><ele>292.0</ele><time>2026-03-22T11:17:37.918Z</time></trkpt><trkpt lat="43.059650261354136" lon="11.521416841575407"><ele>293.5</ele><time>2026-03-22T11:17:38.918Z</time></trkpt><trkpt lat="43.059541282007416" lon="11.52132349377355"><ele>295.0</ele><time>2026-03-22T11:17:39.918Z</time></trkpt><trkpt lat="43.05942366816835" lon="11.521262455114456"><ele>296.5</ele><time>2026-03-22T11:17:40.918Z</time></trkpt><trkpt lat="43.059304368443286" lon="11.521242041812185"><ele>298.0</ele><time>2026-03-22T11:17:41.918Z</time></trkpt><trkpt lat="43.05918659561696" lon="11.521272281326828"><ele>301.25</ele><time>2026-03-22T11:17:42.918Z</time></trkpt><trkpt lat="43.05905917231434" lon="11.521312415874498"><ele>304.5</ele><time>2026-03-22T11:17:43.918Z</time></trkpt><trkpt lat="43.05893078748934" lon="11.521435489503597"><ele>307.75</ele><time>2026-03-22T11:17:44.918Z</time></trkpt><trkpt lat="43.05882974905414" lon="11.52158734381053"><ele>311.0</ele><time>2026-03-22T11:17:45.918Z</time></trkpt><trkpt lat="43.058733345567845" lon="11.52175068736169"><ele>311.0</ele><time>2026-03-22T11:17:46.918Z</time></trkpt><trkpt lat="43.05863795795371" lon="11.52192113047231"><ele>311.0</ele><time>2026-03-22T11:17:47.918Z</time></trkpt><trkpt lat="43.05853987808227" lon="11.52210334350349"><ele>311.0</ele><time>2026-03-22T11:17:48.918Z</time></trkpt><trkpt lat="43.058440390507386" lon="11.522288171781176"><ele>312.0</ele><time>2026-03-22T11:17:49.918Z</time></trkpt><trkpt lat="43.058347753754674" lon="11.522461836643936"><ele>313.0</ele><time>2026-03-22T11:17:50.918Z</time></trkpt><trkpt lat="43.05825469366842" lon="11.522634268977619"><ele>314.0</ele><time>2026-03-22T11:17:51.918Z</time></trkpt><trkpt lat="43.05817515323083" lon="11.522814776414355"><ele>313.5</ele><time>2026-03-22T11:17:52.918Z</time></trkpt><trkpt lat="43.05807114894926" lon="11.522957180006788"><ele>313.0</ele><time>2026-03-22T11:17:53.918Z</time></trkpt><trkpt lat="43.057992085157196" lon="11.52310959506099"><ele>312.5</ele><time>2026-03-22T11:17:54.918Z</time></trkpt><trkpt lat="43.057885194994256" lon="11.523204485836077"><ele>312.0</ele><time>2026-03-22T11:17:55.918Z</time></trkpt><trkpt lat="43.05776847119228" lon="11.523259189185382"><ele>312.0</ele><time>2026-03-22T11:17:56.918Z</time></trkpt><trkpt lat="43.05765142654316" lon="11.523264091996046"><ele>312.0</ele><time>2026-03-22T11:17:57.918Z</time></trkpt><trkpt lat="43.05754029975647" lon="11.523218835466222"><ele>312.0</ele><time>2026-03-22T11:17:58.918Z</time></trkpt><trkpt lat="43.05743464372195" lon="11.523135071922312"><ele>312.0</ele><time>2026-03-22T11:17:59.918Z</time></trkpt><trkpt lat="43.057349201768744" lon="11.523013168552211"><ele>312.25</ele><time>2026-03-22T11:18:00.918Z</time></trkpt><trkpt lat="43.057290037690635" lon="11.522850886795537"><ele>312.5</ele><time>2026-03-22T11:18:01.918Z</time></trkpt><trkpt lat="43.057253445049604" lon="11.522659212980324"><ele>312.75</ele><time>2026-03-22T11:18:02.917Z</time></trkpt><trkpt lat="43.05721853212615" lon="11.522444933777157"><ele>313.0</ele><time>2026-03-22T11:18:03.917Z</time></trkpt><trkpt lat="43.057159212219844" lon="11.522225304905582"><ele>314.0</ele><time>2026-03-22T11:18:04.917Z</time></trkpt><trkpt lat="43.057106858322584" lon="11.522003639797315"><ele>315.0</ele><time>2026-03-22T11:18:05.917Z</time></trkpt><trkpt lat="43.05705805301924" lon="11.521788097023073"><ele>316.0</ele><time>2026-03-22T11:18:06.917Z</time></trkpt><trkpt lat="43.05701243176654" lon="11.521583895856189"><ele>316.0</ele><time>2026-03-22T11:18:07.917Z</time></trkpt><trkpt lat="43.05696819370822" lon="11.521386735063812"><ele>316.0</ele><time>2026-03-22T11:18:08.917Z</time></trkpt><trkpt lat="43.05693030776886" lon="11.521194835884236"><ele>316.0</ele><time>2026-03-22T11:18:09.917Z</time></trkpt><trkpt lat="43.05688225150989" lon="11.521016808853535"><ele>316.0</ele><time>2026-03-22T11:18:10.917Z</time></trkpt><trkpt lat="43.05681168674829" lon="11.520858944502768"><ele>317.0</ele><time>2026-03-22T11:18:11.917Z</time></trkpt><trkpt lat="43.05672267431765" lon="11.520715669139934"><ele>318.0</ele><time>2026-03-22T11:18:12.917Z</time></trkpt><trkpt lat="43.056613879314085" lon="11.52059843589333"><ele>319.0</ele><time>2026-03-22T11:18:13.917Z</time></trkpt><trkpt lat="43.05648400154655" lon="11.52050983314439"><ele>320.0</ele><time>2026-03-22T11:18:14.917Z</time></trkpt><trkpt lat="43.05633948399524" lon="11.520445053850452"><ele>320.6666666666667</ele><time>2026-03-22T11:18:15.917Z</time></trkpt><trkpt lat="43.056189297117456" lon="11.520416280029075"><ele>321.3333333333333</ele><time>2026-03-22T11:18:16.917Z</time></trkpt><trkpt lat="43.05603556263021" lon="11.520414940742427"><ele>322.0</ele><time>2026-03-22T11:18:17.917Z</time></trkpt><trkpt lat="43.05588248535126" lon="11.520407161223684"><ele>326.0</ele><time>2026-03-22T11:18:18.917Z</time></trkpt><trkpt lat="43.05572655780377" lon="11.520399435548242"><ele>330.0</ele><time>2026-03-22T11:18:19.917Z</time></trkpt><trkpt lat="43.05556710982001" lon="11.520391540393675"><ele>334.0</ele><time>2026-03-22T11:18:20.917Z</time></trkpt><trkpt lat="43.05540685552612" lon="11.520385786145345"><ele>334.0</ele><time>2026-03-22T11:18:21.917Z</time></trkpt><trkpt lat="43.05524838749346" lon="11.52038136295333"><ele>334.0</ele><time>2026-03-22T11:18:22.919Z</time></trkpt><trkpt lat="43.055091982550636" lon="11.52039079443673"><ele>334.0</ele><time>2026-03-22T11:18:23.919Z</time></trkpt><trkpt lat="43.05493780435137" lon="11.520412166456024"><ele>334.0</ele><time>2026-03-22T11:18:24.919Z</time></trkpt><trkpt lat="43.05478799858451" lon="11.52048690671236"><ele>334.0</ele><time>2026-03-22T11:18:25.919Z</time></trkpt><trkpt lat="43.05464294222881" lon="11.52056333142185"><ele>334.0</ele><time>2026-03-22T11:18:26.919Z</time></trkpt><trkpt lat="43.054505625080004" lon="11.520640293314502"><ele>334.0</ele><time>2026-03-22T11:18:27.919Z</time></trkpt><trkpt lat="43.054385154082226" lon="11.520725334269864"><ele>334.0</ele><time>2026-03-22T11:18:28.919Z</time></trkpt><trkpt lat="43.054251877452536" lon="11.52074582462748"><ele>334.0</ele><time>2026-03-22T11:18:29.919Z</time></trkpt><trkpt lat="43.05411722050754" lon="11.520732436496441"><ele>334.0</ele><time>2026-03-22T11:18:30.919Z</time></trkpt><trkpt lat="43.05396303596389" lon="11.520689192769662"><ele>335.3333333333333</ele><time>2026-03-22T11:18:31.919Z</time></trkpt><trkpt lat="43.053816167757404" lon="11.520634661215293"><ele>336.6666666666667</ele><time>2026-03-22T11:18:32.919Z</time></trkpt><trkpt lat="43.05366392660103" lon="11.520579958582774"><ele>338.0</ele><time>2026-03-22T11:18:33.919Z</time></trkpt><trkpt lat="43.05350305307238" lon="11.520523905293652"><ele>338.0</ele><time>2026-03-22T11:18:34.919Z</time></trkpt><trkpt lat="43.05333975668356" lon="11.52046609356941"><ele>338.0</ele><time>2026-03-22T11:18:35.919Z</time></trkpt><trkpt lat="43.053177903479664" lon="11.520410756564935"><ele>338.0</ele><time>2026-03-22T11:18:36.919Z</time></trkpt><trkpt lat="43.05302390028042" lon="11.520361557238356"><ele>342.6666666666667</ele><time>2026-03-22T11:18:37.919Z</time></trkpt><trkpt lat="43.052868092650414" lon="11.520318192781819"><ele>347.3333333333333</ele><time>2026-03-22T11:18:38.919Z</time></trkpt><trkpt lat="43.05271070886569" lon="11.520275397324685"><ele>352.0</ele><time>2026-03-22T11:18:39.919Z</time></trkpt><trkpt lat="43.05255499113188" lon="11.52022421046664"><ele>352.66666666666663</ele><time>2026-03-22T11:18:40.918Z</time></trkpt><trkpt lat="43.05240034609175" lon="11.520168760894908"><ele>353.3333333333333</ele><time>2026-03-22T11:18:41.918Z</time></trkpt><trkpt lat="43.05223770708751" lon="11.52011911693553"><ele>354.0</ele><time>2026-03-22T11:18:42.918Z</time></trkpt><trkpt lat="43.05207563564116" lon="11.520072718636383"><ele>354.0</ele><time>2026-03-22T11:18:43.918Z</time></trkpt><trkpt lat="43.05191209660882" lon="11.520016132697053"><ele>354.0</ele><time>2026-03-22T11:18:44.918Z</time></trkpt><trkpt lat="43.05176502300347" lon="11.519962887308212"><ele>354.0</ele><time>2026-03-22T11:18:45.918Z</time></trkpt><trkpt lat="43.051625853308806" lon="11.519913054534307"><ele>355.5</ele><time>2026-03-22T11:18:46.918Z</time></trkpt><trkpt lat="43.051490287232866" lon="11.519862002210166"><ele>357.0</ele><time>2026-03-22T11:18:47.918Z</time></trkpt><trkpt lat="43.05135334334642" lon="11.51980263961623"><ele>358.5</ele><time>2026-03-22T11:18:48.918Z</time></trkpt><trkpt lat="43.05122068784007" lon="11.519725634731135"><ele>360.0</ele><time>2026-03-22T11:18:49.918Z</time></trkpt><trkpt lat="43.051090841233545" lon="11.519630079919489"><ele>362.0</ele><time>2026-03-22T11:18:50.918Z</time></trkpt><trkpt lat="43.05095588188879" lon="11.51953888345188"><ele>364.0</ele><time>2026-03-22T11:18:51.918Z</time></trkpt><trkpt lat="43.05081443654457" lon="11.51944174231413"><ele>366.0</ele><time>2026-03-22T11:18:52.918Z</time></trkpt><trkpt lat="43.05067102589964" lon="11.519340651330893"><ele>366.0</ele><time>2026-03-22T11:18:53.918Z</time></trkpt><trkpt lat="43.050527663835936" lon="11.519245114161297"><ele>366.0</ele><time>2026-03-22T11:18:54.918Z</time></trkpt><trkpt lat="43.050383320201306" lon="11.51915680479955"><ele>366.0</ele><time>2026-03-22T11:18:55.918Z</time></trkpt><trkpt lat="43.05026310703869" lon="11.519050517505892"><ele>366.0</ele><time>2026-03-22T11:18:56.918Z</time></trkpt><trkpt lat="43.05016847746783" lon="11.51891622606641"><ele>366.0</ele><time>2026-03-22T11:18:57.918Z</time></trkpt><trkpt lat="43.05009617504922" lon="11.518752935590987"><ele>366.0</ele><time>2026-03-22T11:18:58.918Z</time></trkpt><trkpt lat="43.05003887201334" lon="11.518572406755414"><ele>366.0</ele><time>2026-03-22T11:18:59.918Z</time></trkpt><trkpt lat="43.04998979006553" lon="11.518386103689537"><ele>368.6666666666667</ele><time>2026-03-22T11:19:00.918Z</time></trkpt><trkpt lat="43.049953736970174" lon="11.518182360459518"><ele>371.33333333333337</ele><time>2026-03-22T11:19:01.918Z</time></trkpt><trkpt lat="43.049923744953134" lon="11.517974873570045"><ele>374.0</ele><time>2026-03-22T11:19:02.918Z</time></trkpt><trkpt lat="43.049883149256665" lon="11.517766690940395"><ele>375.0</ele><time>2026-03-22T11:19:03.918Z</time></trkpt><trkpt lat="43.049844731594156" lon="11.517564648421562"><ele>376.0</ele><time>2026-03-22T11:19:04.918Z</time></trkpt><trkpt lat="43.049821632769095" lon="11.517373002564957"><ele>377.0</ele><time>2026-03-22T11:19:05.918Z</time></trkpt><trkpt lat="43.04982338804269" lon="11.517186036976454"><ele>378.0</ele><time>2026-03-22T11:19:06.918Z</time></trkpt><trkpt lat="43.049837271251654" lon="11.517000435498051"><ele>379.5</ele><time>2026-03-22T11:19:07.918Z</time></trkpt><trkpt lat="43.04985241351857" lon="11.516816317222874"><ele>381.0</ele><time>2026-03-22T11:19:08.918Z</time></trkpt><trkpt lat="43.04986109812523" lon="11.516636965438046"><ele>382.5</ele><time>2026-03-22T11:19:09.918Z</time></trkpt><trkpt lat="43.04987337795747" lon="11.516467441635301"><ele>384.0</ele><time>2026-03-22T11:19:10.918Z</time></trkpt><trkpt lat="43.04988340988815" lon="11.51630889655441"><ele>385.6</ele><time>2026-03-22T11:19:11.917Z</time></trkpt><trkpt lat="43.049890675985715" lon="11.516159810979888"><ele>387.2</ele><time>2026-03-22T11:19:12.917Z</time></trkpt><trkpt lat="43.049893482375815" lon="11.516017347155543"><ele>388.8</ele><time>2026-03-22T11:19:13.917Z</time></trkpt><trkpt lat="43.04988115132182" lon="11.515877020498642"><ele>390.40000000000003</ele><time>2026-03-22T11:19:14.917Z</time></trkpt><trkpt lat="43.049848074666265" lon="11.515739030373553"><ele>392.0</ele><time>2026-03-22T11:19:15.917Z</time></trkpt><trkpt lat="43.04979688059729" lon="11.51560570488968"><ele>392.0</ele><time>2026-03-22T11:19:16.917Z</time></trkpt><trkpt lat="43.04972480894484" lon="11.515488566975076"><ele>392.0</ele><time>2026-03-22T11:19:17.917Z</time></trkpt><trkpt lat="43.04963287376521" lon="11.515394208257229"><ele>392.0</ele><time>2026-03-22T11:19:18.917Z</time></trkpt><trkpt lat="43.04952801298823" lon="11.515331785670716"><ele>392.0</ele><time>2026-03-22T11:19:19.917Z</time></trkpt><trkpt lat="43.04941320096171" lon="11.51529943370502"><ele>393.75</ele><time>2026-03-22T11:19:20.917Z</time></trkpt><trkpt lat="43.04929424933104" lon="11.51527600430669"><ele>395.5</ele><time>2026-03-22T11:19:21.917Z</time></trkpt><trkpt lat="43.04917453451112" lon="11.515244171627218"><ele>397.25</ele><time>2026-03-22T11:19:22.917Z</time></trkpt><trkpt lat="43.049058131698125" lon="11.51519849022416"><ele>399.0</ele><time>2026-03-22T11:19:23.917Z</time></trkpt><trkpt lat="43.04894537262419" lon="11.5151258076195"><ele>399.0</ele><time>2026-03-22T11:19:24.917Z</time></trkpt><trkpt lat="43.04885585549779" lon="11.515022637147618"><ele>399.0</ele><time>2026-03-22T11:19:25.917Z</time></trkpt><trkpt lat="43.048807989511914" lon="11.514889579151198"><ele>399.0</ele><time>2026-03-22T11:19:26.917Z</time></trkpt><trkpt lat="43.04879491852512" lon="11.514746706962995"><ele>399.0</ele><time>2026-03-22T11:19:27.917Z</time></trkpt><trkpt lat="43.048810065707364" lon="11.514602388438194"><ele>399.0</ele><time>2026-03-22T11:19:28.917Z</time></trkpt><trkpt lat="43.04884727340311" lon="11.514457698310052"><ele>400.25</ele><time>2026-03-22T11:19:29.917Z</time></trkpt><trkpt lat="43.048878114877446" lon="11.514300035900707"><ele>401.5</ele><time>2026-03-22T11:19:30.917Z</time></trkpt><trkpt lat="43.04890759880616" lon="11.514138478204277"><ele>402.75</ele><time>2026-03-22T11:19:31.917Z</time></trkpt><trkpt lat="43.04893893005587" lon="11.513979419025876"><ele>404.0</ele><time>2026-03-22T11:19:32.917Z</time></trkpt><trkpt lat="43.048954900559025" lon="11.513819723837162"><ele>404.75</ele><time>2026-03-22T11:19:33.917Z</time></trkpt><trkpt lat="43.048953952342984" lon="11.513658592078928"><ele>405.5</ele><time>2026-03-22T11:19:34.917Z</time></trkpt><trkpt lat="43.04892193460457" lon="11.51350526997856"><ele>406.25</ele><time>2026-03-22T11:19:35.917Z</time></trkpt><trkpt lat="43.04886531969386" lon="11.513349231357902"><ele>407.0</ele><time>2026-03-22T11:19:36.917Z</time></trkpt><trkpt lat="43.048815436812774" lon="11.513191421137357"><ele>407.0</ele><time>2026-03-22T11:19:37.917Z</time></trkpt><trkpt lat="43.048779182594274" lon="11.513038968161805"><ele>407.0</ele><time>2026-03-22T11:19:38.917Z</time></trkpt><trkpt lat="43.0487732175639" lon="11.512893077961282"><ele>407.0</ele><time>2026-03-22T11:19:39.917Z</time></trkpt><trkpt lat="43.04880474899337" lon="11.51276151605115"><ele>407.0</ele><time>2026-03-22T11:19:40.917Z</time></trkpt><trkpt lat="43.04885390854116" lon="11.512628006107281"><ele>407.0</ele><time>2026-03-22T11:19:41.916Z</time></trkpt><trkpt lat="43.0489201328147" lon="11.512485859869443"><ele>407.0</ele><time>2026-03-22T11:19:42.916Z</time></trkpt><trkpt lat="43.04898329897369" lon="11.512320223189251"><ele>407.0</ele><time>2026-03-22T11:19:43.916Z</time></trkpt><trkpt lat="43.04904299240358" lon="11.5121385750778"><ele>407.0</ele><time>2026-03-22T11:19:44.916Z</time></trkpt><trkpt lat="43.049092709965066" lon="11.511957785212214"><ele>407.0</ele><time>2026-03-22T11:19:45.916Z</time></trkpt><trkpt lat="43.049134893001316" lon="11.511802927451605"><ele>408.5</ele><time>2026-03-22T11:19:46.916Z</time></trkpt><trkpt lat="43.049171645190384" lon="11.511653515384564"><ele>410.0</ele><time>2026-03-22T11:19:47.916Z</time></trkpt><trkpt lat="43.0492111699492" lon="11.511504582136702"><ele>411.5</ele><time>2026-03-22T11:19:48.916Z</time></trkpt><trkpt lat="43.04924922612128" lon="11.51135721099357"><ele>413.0</ele><time>2026-03-22T11:19:49.916Z</time></trkpt><trkpt lat="43.04929836547851" lon="11.511218067322947"><ele>413.75</ele><time>2026-03-22T11:19:50.916Z</time></trkpt><trkpt lat="43.04936922210851" lon="11.511088643765396"><ele>414.5</ele><time>2026-03-22T11:19:51.916Z</time></trkpt><trkpt lat="43.049454752730576" lon="11.510959465956358"><ele>415.25</ele><time>2026-03-22T11:19:52.916Z</time></trkpt><trkpt lat="43.049535032041064" lon="11.510820629350393"><ele>416.0</ele><time>2026-03-22T11:19:53.916Z</time></trkpt><trkpt lat="43.049618028767156" lon="11.510682629687336"><ele>416.0</ele><time>2026-03-22T11:19:54.916Z</time></trkpt><trkpt lat="43.04970405105698" lon="11.510554699631603"><ele>416.0</ele><time>2026-03-22T11:19:55.916Z</time></trkpt><trkpt lat="43.04979867354711" lon="11.510436489357382"><ele>416.0</ele><time>2026-03-22T11:19:56.916Z</time></trkpt><trkpt lat="43.049907934094946" lon="11.510333604506316"><ele>416.0</ele><time>2026-03-22T11:19:57.916Z</time></trkpt><trkpt lat="43.05002356151116" lon="11.510226827346413"><ele>420.66666666666663</ele><time>2026-03-22T11:19:58.916Z</time></trkpt><trkpt lat="43.05013983254469" lon="11.51010497314618"><ele>425.33333333333337</ele><time>2026-03-22T11:19:59.916Z</time></trkpt><trkpt lat="43.05026118606877" lon="11.509981871331574"><ele>430.0</ele><time>2026-03-22T11:20:00.916Z</time></trkpt><trkpt lat="43.05038530429567" lon="11.50985207753199"><ele>430.0</ele><time>2026-03-22T11:20:01.916Z</time></trkpt><trkpt lat="43.05050659624808" lon="11.509715957047746"><ele>430.0</ele><time>2026-03-22T11:20:02.916Z</time></trkpt><trkpt lat="43.05063470094474" lon="11.509580214793564"><ele>430.0</ele><time>2026-03-22T11:20:03.916Z</time></trkpt><trkpt lat="43.050762337938686" lon="11.50944710146459"><ele>433.0</ele><time>2026-03-22T11:20:04.916Z</time></trkpt><trkpt lat="43.050887907944045" lon="11.509309141883772"><ele>436.0</ele><time>2026-03-22T11:20:05.916Z</time></trkpt><trkpt lat="43.05101224695718" lon="11.509179822731245"><ele>439.0</ele><time>2026-03-22T11:20:06.916Z</time></trkpt><trkpt lat="43.0511317578744" lon="11.509051887741634"><ele>439.0</ele><time>2026-03-22T11:20:07.916Z</time></trkpt><trkpt lat="43.05124903085697" lon="11.508905714892334"><ele>439.0</ele><time>2026-03-22T11:20:08.916Z</time></trkpt><trkpt lat="43.05136542972702" lon="11.508749958839287"><ele>439.0</ele><time>2026-03-22T11:20:09.916Z</time></trkpt><trkpt lat="43.0514800021615" lon="11.50859206626379"><ele>440.75</ele><time>2026-03-22T11:20:10.916Z</time></trkpt><trkpt lat="43.05158527752957" lon="11.508433536485114"><ele>442.5</ele><time>2026-03-22T11:20:11.915Z</time></trkpt><trkpt lat="43.05167889599424" lon="11.50828731229338"><ele>444.25</ele><time>2026-03-22T11:20:12.915Z</time></trkpt><trkpt lat="43.05176241103963" lon="11.50814306437699"><ele>446.0</ele><time>2026-03-22T11:20:13.915Z</time></trkpt><trkpt lat="43.051827998765695" lon="11.507983514896775"><ele>448.25</ele><time>2026-03-22T11:20:14.915Z</time></trkpt><trkpt lat="43.0518725677579" lon="11.507818892983655"><ele>450.5</ele><time>2026-03-22T11:20:15.915Z</time></trkpt><trkpt lat="43.05189476356882" lon="11.50765051179844"><ele>452.75</ele><time>2026-03-22T11:20:16.915Z</time></trkpt><trkpt lat="43.05189511115483" lon="11.507479027095014"><ele>455.0</ele><time>2026-03-22T11:20:17.915Z</time></trkpt><trkpt lat="43.0518859890431" lon="11.50730625671816"><ele>455.0</ele><time>2026-03-22T11:20:18.915Z</time></trkpt><trkpt lat="43.051882638704264" lon="11.50714594296357"><ele>455.0</ele><time>2026-03-22T11:20:19.915Z</time></trkpt><trkpt lat="43.05187734143697" lon="11.506997368469634"><ele>455.0</ele><time>2026-03-22T11:20:20.915Z</time></trkpt><trkpt lat="43.051867384643096" lon="11.506847468631449"><ele>455.0</ele><time>2026-03-22T11:20:21.915Z</time></trkpt><trkpt lat="43.05186794456794" lon="11.506687692269324"><ele>454.5</ele><time>2026-03-22T11:20:22.915Z</time></trkpt><trkpt lat="43.051888210032544" lon="11.506532672580308"><ele>454.0</ele><time>2026-03-22T11:20:23.915Z</time></trkpt><trkpt lat="43.051911461790986" lon="11.506377886266343"><ele>453.5</ele><time>2026-03-22T11:20:24.915Z</time></trkpt><trkpt lat="43.0519556910849" lon="11.506218320828982"><ele>453.0</ele><time>2026-03-22T11:20:25.915Z</time></trkpt><trkpt lat="43.052009958778434" lon="11.506057350102338"><ele>452.0</ele><time>2026-03-22T11:20:26.915Z</time></trkpt><trkpt lat="43.05205617212818" lon="11.505907432211906"><ele>450.99999999999994</ele><time>2026-03-22T11:20:27.915Z</time></trkpt><trkpt lat="43.05209826359736" lon="11.505766272217892"><ele>449.99999999999994</ele><time>2026-03-22T11:20:28.918Z</time></trkpt><trkpt lat="43.0521384018963" lon="11.505642596948425"><ele>449.0</ele><time>2026-03-22T11:20:29.918Z</time></trkpt><trkpt lat="43.05217083910107" lon="11.50554577024751"><ele>448.0</ele><time>2026-03-22T11:20:30.918Z</time></trkpt><trkpt lat="43.05219985526661" lon="11.505464577682313"><ele>448.00000000000006</ele><time>2026-03-22T11:20:31.918Z</time></trkpt><trkpt lat="43.05224028313906" lon="11.50534632010884"><ele>448.0</ele><time>2026-03-22T11:20:33.918Z</time></trkpt><trkpt lat="43.05227546733046" lon="11.505257657803543"><ele>448.0</ele><time>2026-03-22T11:20:35.918Z</time></trkpt><trkpt lat="43.052330200094595" lon="11.505158059229991"><ele>448.0</ele><time>2026-03-22T11:20:37.917Z</time></trkpt><trkpt lat="43.052405567287025" lon="11.505068575338885"><ele>448.00000000000006</ele><time>2026-03-22T11:20:39.918Z</time></trkpt><trkpt lat="43.05244684376724" lon="11.504966403169945"><ele>448.0</ele><time>2026-03-22T11:20:41.917Z</time></trkpt><trkpt lat="43.052428349157495" lon="11.50487115703483"><ele>448.00000000000006</ele><time>2026-03-22T11:20:42.917Z</time></trkpt><trkpt lat="43.0523933801007" lon="11.504798063986122"><ele>448.0</ele><time>2026-03-22T11:20:43.917Z</time></trkpt><trkpt lat="43.05236961009837" lon="11.504703616369024"><ele>448.0</ele><time>2026-03-22T11:20:44.917Z</time></trkpt><trkpt lat="43.052362204815886" lon="11.504601649882925"><ele>448.0</ele><time>2026-03-22T11:20:45.917Z</time></trkpt><trkpt lat="43.05231317761528" lon="11.504514202876278"><ele>448.00000000000006</ele><time>2026-03-22T11:20:46.917Z</time></trkpt><trkpt lat="43.05229665566832" lon="11.504386346195453"><ele>448.0</ele><time>2026-03-22T11:20:47.917Z</time></trkpt><trkpt lat="43.05225464401803" lon="11.504278565191285"><ele>449.59999999999997</ele><time>2026-03-22T11:20:48.917Z</time></trkpt><trkpt lat="43.05220776957086" lon="11.5041762721601"><ele>451.19999999999993</ele><time>2026-03-22T11:20:49.917Z</time></trkpt><trkpt lat="43.05216205465088" lon="11.504073948217652"><ele>452.8</ele><time>2026-03-22T11:20:50.917Z</time></trkpt><trkpt lat="43.052115709569165" lon="11.503956552065564"><ele>454.4</ele><time>2026-03-22T11:20:51.917Z</time></trkpt><trkpt lat="43.05206587128902" lon="11.503840792317238"><ele>456.0</ele><time>2026-03-22T11:20:52.917Z</time></trkpt><trkpt lat="43.05201722682514" lon="11.503713626535395"><ele>457.6</ele><time>2026-03-22T11:20:53.917Z</time></trkpt><trkpt lat="43.0519644003348" lon="11.503585228363624"><ele>459.20000000000005</ele><time>2026-03-22T11:20:54.917Z</time></trkpt><trkpt lat="43.05190795990006" lon="11.503457457033903"><ele>460.79999999999995</ele><time>2026-03-22T11:20:55.917Z</time></trkpt><trkpt lat="43.05185551627489" lon="11.50333318660692"><ele>462.4</ele><time>2026-03-22T11:20:56.917Z</time></trkpt><trkpt lat="43.051825574183624" lon="11.503203879650348"><ele>464.0</ele><time>2026-03-22T11:20:57.917Z</time></trkpt><trkpt lat="43.05180198139474" lon="11.503075266777337"><ele>464.0</ele><time>2026-03-22T11:20:58.917Z</time></trkpt><trkpt lat="43.051792169864996" lon="11.502941292383353"><ele>464.0</ele><time>2026-03-22T11:20:59.917Z</time></trkpt><trkpt lat="43.051808075744354" lon="11.502794468227451"><ele>464.0</ele><time>2026-03-22T11:21:00.917Z</time></trkpt><trkpt lat="43.05183984499888" lon="11.502641790796835"><ele>464.0</ele><time>2026-03-22T11:21:01.917Z</time></trkpt><trkpt lat="43.05187925664604" lon="11.502494085106552"><ele>464.0</ele><time>2026-03-22T11:21:02.917Z</time></trkpt><trkpt lat="43.05192585717467" lon="11.502341047436337"><ele>464.5</ele><time>2026-03-22T11:21:03.917Z</time></trkpt><trkpt lat="43.05196462047606" lon="11.502186306556956"><ele>465.0</ele><time>2026-03-22T11:21:04.916Z</time></trkpt><trkpt lat="43.05198879186577" lon="11.502028825768232"><ele>465.5</ele><time>2026-03-22T11:21:05.916Z</time></trkpt><trkpt lat="43.05199811495993" lon="11.501871614708444"><ele>466.0</ele><time>2026-03-22T11:21:06.916Z</time></trkpt><trkpt lat="43.05199284066246" lon="11.501711200623363"><ele>466.75</ele><time>2026-03-22T11:21:07.916Z</time></trkpt><trkpt lat="43.051983602126064" lon="11.501544702779949"><ele>467.5</ele><time>2026-03-22T11:21:08.916Z</time></trkpt><trkpt lat="43.05197908424572" lon="11.501376167113433"><ele>468.25</ele><time>2026-03-22T11:21:09.916Z</time></trkpt><trkpt lat="43.05197600642502" lon="11.501206747592821"><ele>469.0</ele><time>2026-03-22T11:21:10.916Z</time></trkpt><trkpt lat="43.051982015519364" lon="11.501038824378027"><ele>470.25</ele><time>2026-03-22T11:21:11.916Z</time></trkpt><trkpt lat="43.05199629111282" lon="11.500871960614452"><ele>471.5</ele><time>2026-03-22T11:21:12.916Z</time></trkpt><trkpt lat="43.052024012684626" lon="11.50071512257742"><ele>472.75</ele><time>2026-03-22T11:21:13.916Z</time></trkpt><trkpt lat="43.05206219383479" lon="11.500566442145637"><ele>474.0</ele><time>2026-03-22T11:21:14.916Z</time></trkpt><trkpt lat="43.05210092249633" lon="11.500410822997702"><ele>475.25</ele><time>2026-03-22T11:21:15.916Z</time></trkpt><trkpt lat="43.0521482708092" lon="11.500257378783083"><ele>476.5</ele><time>2026-03-22T11:21:16.916Z</time></trkpt><trkpt lat="43.05220771010029" lon="11.500108039178468"><ele>477.75</ele><time>2026-03-22T11:21:17.916Z</time></trkpt><trkpt lat="43.052271251697505" lon="11.499955754120434"><ele>479.0</ele><time>2026-03-22T11:21:18.916Z</time></trkpt><trkpt lat="43.052333968773375" lon="11.49979670129786"><ele>479.0</ele><time>2026-03-22T11:21:19.916Z</time></trkpt><trkpt lat="43.05239891003988" lon="11.499637044205269"><ele>479.0</ele><time>2026-03-22T11:21:20.916Z</time></trkpt><trkpt lat="43.05246519437492" lon="11.499482234505265"><ele>479.0</ele><time>2026-03-22T11:21:21.916Z</time></trkpt><trkpt lat="43.05253391742312" lon="11.49932030706335"><ele>479.0</ele><time>2026-03-22T11:21:22.916Z</time></trkpt><trkpt lat="43.05260268118394" lon="11.499162657999463"><ele>481.75</ele><time>2026-03-22T11:21:23.916Z</time></trkpt><trkpt lat="43.05267316234907" lon="11.499003235997842"><ele>484.5</ele><time>2026-03-22T11:21:24.916Z</time></trkpt><trkpt lat="43.052744190936835" lon="11.498832895226846"><ele>487.25</ele><time>2026-03-22T11:21:25.916Z</time></trkpt><trkpt lat="43.052810005165085" lon="11.498661608139692"><ele>490.0</ele><time>2026-03-22T11:21:26.916Z</time></trkpt><trkpt lat="43.05287650564911" lon="11.498501733190569"><ele>492.5</ele><time>2026-03-22T11:21:27.916Z</time></trkpt><trkpt lat="43.05294154501703" lon="11.4983503524778"><ele>495.0</ele><time>2026-03-22T11:21:28.916Z</time></trkpt><trkpt lat="43.05300791575332" lon="11.498203780043472"><ele>497.5</ele><time>2026-03-22T11:21:29.916Z</time></trkpt><trkpt lat="43.05307135503711" lon="11.498057447724035"><ele>500.0</ele><time>2026-03-22T11:21:30.916Z</time></trkpt><trkpt lat="43.0531367557932" lon="11.497915184685548"><ele>499.0</ele><time>2026-03-22T11:21:31.916Z</time></trkpt><trkpt lat="43.05320377400485" lon="11.497774464727293"><ele>498.0</ele><time>2026-03-22T11:21:32.916Z</time></trkpt><trkpt lat="43.05326533150992" lon="11.497625260322804"><ele>497.0</ele><time>2026-03-22T11:21:33.916Z</time></trkpt><trkpt lat="43.05332635776713" lon="11.497466963662902"><ele>496.0</ele><time>2026-03-22T11:21:34.915Z</time></trkpt><trkpt lat="43.05337968203058" lon="11.497298750774629"><ele>496.0</ele><time>2026-03-22T11:21:35.915Z</time></trkpt><trkpt lat="43.05342817559183" lon="11.497117965956996"><ele>496.0</ele><time>2026-03-22T11:21:36.915Z</time></trkpt><trkpt lat="43.053463629212125" lon="11.49693771402131"><ele>496.0</ele><time>2026-03-22T11:21:37.915Z</time></trkpt><trkpt lat="43.053492209892354" lon="11.496751762106468"><ele>496.0</ele><time>2026-03-22T11:21:38.915Z</time></trkpt><trkpt lat="43.05351712163915" lon="11.496565840195268"><ele>496.75</ele><time>2026-03-22T11:21:39.915Z</time></trkpt><trkpt lat="43.05353966941726" lon="11.49637284135899"><ele>497.5</ele><time>2026-03-22T11:21:40.915Z</time></trkpt><trkpt lat="43.05356124928736" lon="11.496181375661495"><ele>498.25</ele><time>2026-03-22T11:21:41.915Z</time></trkpt><trkpt lat="43.05358151897528" lon="11.495995549437668"><ele>499.0</ele><time>2026-03-22T11:21:42.915Z</time></trkpt><trkpt lat="43.053592236101736" lon="11.495804174750324"><ele>500.25</ele><time>2026-03-22T11:21:43.915Z</time></trkpt><trkpt lat="43.053593889592236" lon="11.49562408901664"><ele>501.5</ele><time>2026-03-22T11:21:44.915Z</time></trkpt><trkpt lat="43.053587973488305" lon="11.49545348510522"><ele>502.75</ele><time>2026-03-22T11:21:45.915Z</time></trkpt><trkpt lat="43.05357607177403" lon="11.495284771398698"><ele>504.0</ele><time>2026-03-22T11:21:46.915Z</time></trkpt><trkpt lat="43.053568759262184" lon="11.495128503376645"><ele>504.25</ele><time>2026-03-22T11:21:47.915Z</time></trkpt><trkpt lat="43.053558829542666" lon="11.494974062713082"><ele>504.5</ele><time>2026-03-22T11:21:48.915Z</time></trkpt><trkpt lat="43.053551996530125" lon="11.494815040550392"><ele>504.75</ele><time>2026-03-22T11:21:49.915Z</time></trkpt><trkpt lat="43.05354772702658" lon="11.494647396722282"><ele>505.0</ele><time>2026-03-22T11:21:50.915Z</time></trkpt><trkpt lat="43.05354963353159" lon="11.494480996673415"><ele>505.75</ele><time>2026-03-22T11:21:51.915Z</time></trkpt><trkpt lat="43.05356572727574" lon="11.494312395951738"><ele>506.5</ele><time>2026-03-22T11:21:52.915Z</time></trkpt><trkpt lat="43.053602302447935" lon="11.494150833877152"><ele>507.25</ele><time>2026-03-22T11:21:53.915Z</time></trkpt><trkpt lat="43.05366419308366" lon="11.493999897339211"><ele>508.0</ele><time>2026-03-22T11:21:54.915Z</time></trkpt><trkpt lat="43.05374438001283" lon="11.493867703696548"><ele>507.5</ele><time>2026-03-22T11:21:55.915Z</time></trkpt><trkpt lat="43.053834654201815" lon="11.493753251655377"><ele>507.0</ele><time>2026-03-22T11:21:56.915Z</time></trkpt><trkpt lat="43.05394625497877" lon="11.493654032461398"><ele>506.5</ele><time>2026-03-22T11:21:57.915Z</time></trkpt><trkpt lat="43.05405476767023" lon="11.493557675667134"><ele>506.0</ele><time>2026-03-22T11:21:58.915Z</time></trkpt><trkpt lat="43.054151705463184" lon="11.493464281468468"><ele>506.0</ele><time>2026-03-22T11:21:59.915Z</time></trkpt><trkpt lat="43.054239993315456" lon="11.493371028105814"><ele>506.0</ele><time>2026-03-22T11:22:00.915Z</time></trkpt><trkpt lat="43.05432167306359" lon="11.493249158659989"><ele>506.0</ele><time>2026-03-22T11:22:01.915Z</time></trkpt><trkpt lat="43.0543900638091" lon="11.493108947317968"><ele>506.0</ele><time>2026-03-22T11:22:02.915Z</time></trkpt><trkpt lat="43.05443540985069" lon="11.492965460633032"><ele>509.6</ele><time>2026-03-22T11:22:03.915Z</time></trkpt><trkpt lat="43.05446400092667" lon="11.492826663888549"><ele>513.2</ele><time>2026-03-22T11:22:04.914Z</time></trkpt><trkpt lat="43.05448540569029" lon="11.492681377124548"><ele>516.8</ele><time>2026-03-22T11:22:05.914Z</time></trkpt><trkpt lat="43.05449614000811" lon="11.492538730174392"><ele>520.4</ele><time>2026-03-22T11:22:06.914Z</time></trkpt><trkpt lat="43.05449756714885" lon="11.49240491776602"><ele>524.0</ele><time>2026-03-22T11:22:07.914Z</time></trkpt><trkpt lat="43.05449325662378" lon="11.492264498196137"><ele>524.0</ele><time>2026-03-22T11:22:08.914Z</time></trkpt><trkpt lat="43.054483580884046" lon="11.492122423140678"><ele>524.0</ele><time>2026-03-22T11:22:09.914Z</time></trkpt><trkpt lat="43.054465750417" lon="11.491973942479424"><ele>524.0</ele><time>2026-03-22T11:22:10.914Z</time></trkpt><trkpt lat="43.05445335920658" lon="11.491846738783781"><ele>524.0</ele><time>2026-03-22T11:22:11.914Z</time></trkpt><trkpt lat="43.05444076457721" lon="11.49172823693639"><ele>524.0</ele><time>2026-03-22T11:22:12.914Z</time></trkpt><trkpt lat="43.05442870920608" lon="11.491622469726794"><ele>526.0</ele><time>2026-03-22T11:22:13.914Z</time></trkpt><trkpt lat="43.05441894134558" lon="11.491523388576535"><ele>528.0</ele><time>2026-03-22T11:22:14.914Z</time></trkpt><trkpt lat="43.054409420644724" lon="11.49143261613674"><ele>530.0</ele><time>2026-03-22T11:22:15.914Z</time></trkpt><trkpt lat="43.05440817961234" lon="11.49133395751164"><ele>532.0</ele><time>2026-03-22T11:22:16.914Z</time></trkpt><trkpt lat="43.05442817054956" lon="11.491231004868574"><ele>534.0</ele><time>2026-03-22T11:22:17.914Z</time></trkpt><trkpt lat="43.0544708325534" lon="11.491134512980615"><ele>536.0</ele><time>2026-03-22T11:22:18.914Z</time></trkpt><trkpt lat="43.05452685183894" lon="11.49106131181361"><ele>536.0</ele><time>2026-03-22T11:22:19.914Z</time></trkpt><trkpt lat="43.05464240102762" lon="11.491009926290891"><ele>536.0</ele><time>2026-03-22T11:22:21.914Z</time></trkpt><trkpt lat="43.05471385961664" lon="11.491029367415264"><ele>536.0</ele><time>2026-03-22T11:22:22.914Z</time></trkpt><trkpt lat="43.05478557201138" lon="11.491077184179526"><ele>536.0</ele><time>2026-03-22T11:22:23.914Z</time></trkpt><trkpt lat="43.05485696976345" lon="11.491172770374106"><ele>536.0</ele><time>2026-03-22T11:22:24.914Z</time></trkpt><trkpt lat="43.05493250520074" lon="11.491293459852976"><ele>532.8333333333333</ele><time>2026-03-22T11:22:25.914Z</time></trkpt><trkpt lat="43.05499626263185" lon="11.491400594314433"><ele>529.6666666666666</ele><time>2026-03-22T11:22:26.914Z</time></trkpt><trkpt lat="43.05505169810663" lon="11.491511866466409"><ele>526.5</ele><time>2026-03-22T11:22:27.914Z</time></trkpt><trkpt lat="43.05511319065821" lon="11.491595400790002"><ele>523.3333333333334</ele><time>2026-03-22T11:22:28.914Z</time></trkpt><trkpt lat="43.055174674687244" lon="11.491675047111526"><ele>520.1666666666667</ele><time>2026-03-22T11:22:29.914Z</time></trkpt><trkpt lat="43.05522458142678" lon="11.491748610588674"><ele>517.0</ele><time>2026-03-22T11:22:30.914Z</time></trkpt><trkpt lat="43.05530136208398" lon="11.491859582601801"><ele>517.0</ele><time>2026-03-22T11:22:32.914Z</time></trkpt><trkpt lat="43.05536225619249" lon="11.491908720790024"><ele>517.0</ele><time>2026-03-22T11:22:38.916Z</time></trkpt><trkpt lat="43.05543749109065" lon="11.49197054917296"><ele>517.0</ele><time>2026-03-22T11:22:41.917Z</time></trkpt><trkpt lat="43.055515759944825" lon="11.4919614430786"><ele>517.0</ele><time>2026-03-22T11:22:45.916Z</time></trkpt><trkpt lat="43.05553428508864" lon="11.491866035165858"><ele>517.0</ele><time>2026-03-22T11:22:47.916Z</time></trkpt><trkpt lat="43.0554490946135" lon="11.491750270872284"><ele>517.0</ele><time>2026-03-22T11:22:49.916Z</time></trkpt><trkpt lat="43.05536547033872" lon="11.491637869131944"><ele>517.0</ele><time>2026-03-22T11:22:51.916Z</time></trkpt><trkpt lat="43.05532381670302" lon="11.491555635355335"><ele>517.0</ele><time>2026-03-22T11:22:52.916Z</time></trkpt><trkpt lat="43.05527930519371" lon="11.491464873028294"><ele>517.0</ele><time>2026-03-22T11:22:53.916Z</time></trkpt><trkpt lat="43.055240048277106" lon="11.49135663650694"><ele>517.0</ele><time>2026-03-22T11:22:54.915Z</time></trkpt><trkpt lat="43.05519703542197" lon="11.4912378344127"><ele>517.0</ele><time>2026-03-22T11:22:55.915Z</time></trkpt><trkpt lat="43.055141608272635" lon="11.491127854720876"><ele>517.0</ele><time>2026-03-22T11:22:56.915Z</time></trkpt><trkpt lat="43.055103257718926" lon="11.491022057391232"><ele>520.3333333333334</ele><time>2026-03-22T11:22:57.915Z</time></trkpt><trkpt lat="43.05506161853002" lon="11.490918402568653"><ele>523.6666666666667</ele><time>2026-03-22T11:22:58.915Z</time></trkpt><trkpt lat="43.05500912664592" lon="11.490825343052327"><ele>527.0</ele><time>2026-03-22T11:22:59.915Z</time></trkpt><trkpt lat="43.05495379016109" lon="11.490739964531487"><ele>530.3333333333334</ele><time>2026-03-22T11:23:00.915Z</time></trkpt><trkpt lat="43.05490294134001" lon="11.49067354982621"><ele>533.6666666666666</ele><time>2026-03-22T11:23:01.915Z</time></trkpt><trkpt lat="43.05484498563517" lon="11.490602745363613"><ele>537.0</ele><time>2026-03-22T11:23:02.915Z</time></trkpt><trkpt lat="43.05479141745137" lon="11.490538086960786"><ele>537.2</ele><time>2026-03-22T11:23:03.915Z</time></trkpt><trkpt lat="43.054743536847845" lon="11.490469831573243"><ele>537.4000000000001</ele><time>2026-03-22T11:23:04.915Z</time></trkpt><trkpt lat="43.05465241479701" lon="11.49036365559735"><ele>537.5999999999999</ele><time>2026-03-22T11:23:06.915Z</time></trkpt><trkpt lat="43.054572524291565" lon="11.490278731702027"><ele>537.8</ele><time>2026-03-22T11:23:08.915Z</time></trkpt><trkpt lat="43.054495441653614" lon="11.490197126378918"><ele>538.0</ele><time>2026-03-22T11:23:10.915Z</time></trkpt><trkpt lat="43.0544289429228" lon="11.490124388958039"><ele>539.6</ele><time>2026-03-22T11:23:12.915Z</time></trkpt><trkpt lat="43.05435148597511" lon="11.490045557706257"><ele>541.1999999999999</ele><time>2026-03-22T11:23:14.915Z</time></trkpt><trkpt lat="43.054275352597465" lon="11.48994232604273"><ele>542.8</ele><time>2026-03-22T11:23:16.915Z</time></trkpt><trkpt lat="43.05421311565911" lon="11.489797734500534"><ele>544.4</ele><time>2026-03-22T11:23:18.915Z</time></trkpt><trkpt lat="43.054199000109676" lon="11.48970910830117"><ele>546.0</ele><time>2026-03-22T11:23:19.915Z</time></trkpt><trkpt lat="43.05420475732069" lon="11.489613774964218"><ele>547.5</ele><time>2026-03-22T11:23:20.915Z</time></trkpt><trkpt lat="43.05422958703776" lon="11.489523608908037"><ele>549.0</ele><time>2026-03-22T11:23:21.915Z</time></trkpt><trkpt lat="43.05427169183609" lon="11.48943810627472"><ele>550.5</ele><time>2026-03-22T11:23:22.915Z</time></trkpt><trkpt lat="43.05431807082117" lon="11.489379629025084"><ele>552.0</ele><time>2026-03-22T11:23:23.915Z</time></trkpt><trkpt lat="43.054377559329986" lon="11.489343979435503"><ele>553.5</ele><time>2026-03-22T11:23:24.914Z</time></trkpt><trkpt lat="43.054446757916054" lon="11.48933383810183"><ele>555.0</ele><time>2026-03-22T11:23:25.914Z</time></trkpt><trkpt lat="43.05456687932047" lon="11.489313568705787"><ele>555.0</ele><time>2026-03-22T11:23:27.914Z</time></trkpt><trkpt lat="43.05463382916675" lon="11.489307438937244"><ele>555.0</ele><time>2026-03-22T11:23:28.914Z</time></trkpt><trkpt lat="43.05475906651434" lon="11.489284329975945"><ele>555.0</ele><time>2026-03-22T11:23:30.914Z</time></trkpt><trkpt lat="43.054865343803485" lon="11.489278740578968"><ele>555.0</ele><time>2026-03-22T11:23:32.914Z</time></trkpt><trkpt lat="43.054938679215574" lon="11.489274433716439"><ele>555.0</ele><time>2026-03-22T11:23:34.914Z</time></trkpt><trkpt lat="43.05500336459485" lon="11.489279412923725"><ele>555.0</ele><time>2026-03-22T11:23:37.914Z</time></trkpt><trkpt lat="43.05506893067808" lon="11.489254811483562"><ele>554.6666666666666</ele><time>2026-03-22T11:23:47.914Z</time></trkpt><trkpt lat="43.05514333445639" lon="11.489205349096233"><ele>554.3333333333334</ele><time>2026-03-22T11:23:50.914Z</time></trkpt><trkpt lat="43.05523705285773" lon="11.489116673433449"><ele>554.0</ele><time>2026-03-22T11:23:53.914Z</time></trkpt><trkpt lat="43.055306100033775" lon="11.489092832512714"><ele>553.6666666666667</ele><time>2026-03-22T11:23:54.913Z</time></trkpt><trkpt lat="43.055381647274196" lon="11.489063924964833"><ele>553.3333333333334</ele><time>2026-03-22T11:23:55.913Z</time></trkpt><trkpt lat="43.05545436920318" lon="11.489036530425368"><ele>553.0</ele><time>2026-03-22T11:23:56.913Z</time></trkpt><trkpt lat="43.05552832700493" lon="11.489005443111521"><ele>553.0</ele><time>2026-03-22T11:23:57.913Z</time></trkpt><trkpt lat="43.05560401473443" lon="11.488972017729976"><ele>553.0</ele><time>2026-03-22T11:23:58.913Z</time></trkpt><trkpt lat="43.05567925633398" lon="11.488953603325188"><ele>553.0</ele><time>2026-03-22T11:23:59.913Z</time></trkpt><trkpt lat="43.05575488489228" lon="11.488958523508327"><ele>553.0</ele><time>2026-03-22T11:24:00.913Z</time></trkpt><trkpt lat="43.05581974457764" lon="11.488984395082548"><ele>553.0</ele><time>2026-03-22T11:24:01.913Z</time></trkpt><trkpt lat="43.05591439447507" lon="11.489018300735431"><ele>553.0</ele><time>2026-03-22T11:24:03.913Z</time></trkpt><trkpt lat="43.05603312624947" lon="11.489058225297656"><ele>552.1999999999999</ele><time>2026-03-22T11:24:05.913Z</time></trkpt><trkpt lat="43.05609864408755" lon="11.48905900031232"><ele>551.4</ele><time>2026-03-22T11:24:06.913Z</time></trkpt><trkpt lat="43.05622019205668" lon="11.489026224869543"><ele>550.5999999999999</ele><time>2026-03-22T11:24:08.913Z</time></trkpt><trkpt lat="43.05633373480679" lon="11.488981088873889"><ele>549.8</ele><time>2026-03-22T11:24:10.913Z</time></trkpt><trkpt lat="43.056445789853456" lon="11.488936513802702"><ele>549.0</ele><time>2026-03-22T11:24:12.913Z</time></trkpt><trkpt lat="43.05650651213525" lon="11.488908206357275"><ele>549.1666666666666</ele><time>2026-03-22T11:24:13.913Z</time></trkpt><trkpt lat="43.056619513221726" lon="11.488853355264592"><ele>549.3333333333334</ele><time>2026-03-22T11:24:15.913Z</time></trkpt><trkpt lat="43.05671469523695" lon="11.488821662871826"><ele>549.5</ele><time>2026-03-22T11:24:17.913Z</time></trkpt><trkpt lat="43.05677573280085" lon="11.48878399065576"><ele>549.6666666666667</ele><time>2026-03-22T11:24:19.913Z</time></trkpt><trkpt lat="43.05683423248641" lon="11.488749249784467"><ele>549.8333333333334</ele><time>2026-03-22T11:24:22.913Z</time></trkpt><trkpt lat="43.056894432290385" lon="11.488842001534561"><ele>550.0</ele><time>2026-03-22T11:24:23.913Z</time></trkpt><trkpt lat="43.05693003828882" lon="11.488936669885366"><ele>550.0</ele><time>2026-03-22T11:24:25.912Z</time></trkpt><trkpt lat="43.0569706576389" lon="11.489013184061145"><ele>550.0</ele><time>2026-03-22T11:24:28.912Z</time></trkpt><trkpt lat="43.05702610595688" lon="11.489070603899714"><ele>550.0</ele><time>2026-03-22T11:24:30.912Z</time></trkpt><trkpt lat="43.05689509427937" lon="11.489202966007069"><ele>550.0</ele><time>2026-03-22T11:24:39.912Z</time></trkpt><trkpt lat="43.05696390093232" lon="11.48928124725653"><ele>550.0</ele><time>2026-03-22T11:30:07.91Z</time></trkpt><trkpt lat="43.05686899185796" lon="11.489275201849432"><ele>550.0</ele><time>2026-03-22T11:30:45.909Z</time></trkpt><trkpt lat="43.0568319239798" lon="11.489360956476633"><ele>550.0</ele><time>2026-03-22T11:31:20.91Z</time></trkpt><trkpt lat="43.056768729204855" lon="11.48937364217215"><ele>550.0</ele><time>2026-03-22T11:31:28.91Z</time></trkpt><trkpt lat="43.05669852750409" lon="11.489324784691851"><ele>550.0</ele><time>2026-03-22T11:31:35.91Z</time></trkpt><trkpt lat="43.05663411341894" lon="11.489306146237992"><ele>550.0</ele><time>2026-03-22T11:31:41.909Z</time></trkpt><trkpt lat="43.0565611828045" lon="11.48931315005261"><ele>550.0</ele><time>2026-03-22T11:31:48.909Z</time></trkpt><trkpt lat="43.056486089905015" lon="11.4893262664939"><ele>550.0</ele><time>2026-03-22T11:31:55.909Z</time></trkpt><trkpt lat="43.05642463255699" lon="11.489380696068737"><ele>549.8571428571429</ele><time>2026-03-22T11:32:01.909Z</time></trkpt><trkpt lat="43.056419548785215" lon="11.489467436070694"><ele>549.7142857142857</ele><time>2026-03-22T11:32:10.908Z</time></trkpt><trkpt lat="43.056444577028024" lon="11.48954778498009"><ele>549.5714285714286</ele><time>2026-03-22T11:32:17.908Z</time></trkpt><trkpt lat="43.05648906368617" lon="11.489610896617052"><ele>549.4285714285714</ele><time>2026-03-22T11:32:25.908Z</time></trkpt><trkpt lat="43.056549073830006" lon="11.489643122328241"><ele>549.2857142857143</ele><time>2026-03-22T11:32:40.907Z</time></trkpt><trkpt lat="43.05661448475547" lon="11.489660378992728"><ele>549.1428571428571</ele><time>2026-03-22T11:32:43.907Z</time></trkpt><trkpt lat="43.05670068999976" lon="11.489664560683169"><ele>549.0</ele><time>2026-03-22T11:32:56.907Z</time></trkpt><trkpt lat="43.05676497042997" lon="11.489655936426521"><ele>555.0</ele><time>2026-03-22T11:33:12.908Z</time></trkpt></trkseg><trkseg><trkpt lat="43.05687143025724" lon="11.489246024756019"><ele>550.0</ele><time>2026-03-22T13:06:16Z</time></trkpt><trkpt lat="43.05694696832756" lon="11.489239606697499"><ele>550.0</ele><time>2026-03-22T13:11:38.998Z</time></trkpt><trkpt lat="43.056999611318076" lon="11.48919107668605"><ele>550.0</ele><time>2026-03-22T13:11:41.998Z</time></trkpt><trkpt lat="43.05704056946357" lon="11.489091130897735"><ele>550.0</ele><time>2026-03-22T13:11:57.998Z</time></trkpt><trkpt lat="43.05700393289842" lon="11.48896766496196"><ele>550.0</ele><time>2026-03-22T13:11:59.998Z</time></trkpt><trkpt lat="43.0569210578191" lon="11.488879517153226"><ele>550.0</ele><time>2026-03-22T13:12:01.998Z</time></trkpt><trkpt lat="43.056870162819266" lon="11.488761974206614"><ele>550.0</ele><time>2026-03-22T13:12:03.998Z</time></trkpt><trkpt lat="43.05677534095156" lon="11.48872143762229"><ele>550.0</ele><time>2026-03-22T13:12:06.998Z</time></trkpt><trkpt lat="43.05666565338677" lon="11.488808181450857"><ele>550.0</ele><time>2026-03-22T13:12:08.998Z</time></trkpt><trkpt lat="43.05660374293769" lon="11.488844046250344"><ele>550.0</ele><time>2026-03-22T13:12:09.998Z</time></trkpt><trkpt lat="43.0565317619962" lon="11.488845982140603"><ele>550.0</ele><time>2026-03-22T13:12:10.998Z</time></trkpt><trkpt lat="43.05646547158034" lon="11.488872221314056"><ele>550.0</ele><time>2026-03-22T13:12:11.998Z</time></trkpt><trkpt lat="43.05640055254596" lon="11.488897917559557"><ele>549.8333333333334</ele><time>2026-03-22T13:12:12.998Z</time></trkpt><trkpt lat="43.05632484434224" lon="11.488928768895182"><ele>549.6666666666667</ele><time>2026-03-22T13:12:13.997Z</time></trkpt><trkpt lat="43.056249864603174" lon="11.488959533991801"><ele>549.5</ele><time>2026-03-22T13:12:14.997Z</time></trkpt><trkpt lat="43.05617525475049" lon="11.489010574338856"><ele>549.3333333333334</ele><time>2026-03-22T13:12:15.997Z</time></trkpt><trkpt lat="43.05609238419146" lon="11.489013484417939"><ele>549.1666666666666</ele><time>2026-03-22T13:12:16.997Z</time></trkpt><trkpt lat="43.056016749782685" lon="11.489021387959443"><ele>549.0</ele><time>2026-03-22T13:12:17.997Z</time></trkpt><trkpt lat="43.05594463106737" lon="11.489008453286411"><ele>549.0</ele><time>2026-03-22T13:12:18.997Z</time></trkpt><trkpt lat="43.055819180259476" lon="11.488948441649457"><ele>549.0</ele><time>2026-03-22T13:12:20.997Z</time></trkpt><trkpt lat="43.05574428358753" lon="11.488942931998807"><ele>549.0</ele><time>2026-03-22T13:12:21.997Z</time></trkpt><trkpt lat="43.05567457663003" lon="11.48890137232732"><ele>549.0</ele><time>2026-03-22T13:12:22.997Z</time></trkpt><trkpt lat="43.05559415158848" lon="11.4889138023873"><ele>549.0</ele><time>2026-03-22T13:12:23.997Z</time></trkpt><trkpt lat="43.05552820936011" lon="11.48893167340753"><ele>549.0</ele><time>2026-03-22T13:12:24.997Z</time></trkpt><trkpt lat="43.05542755004088" lon="11.488987066297248"><ele>549.6666666666666</ele><time>2026-03-22T13:12:26.997Z</time></trkpt><trkpt lat="43.05535265060551" lon="11.488997393476641"><ele>550.3333333333334</ele><time>2026-03-22T13:12:28.997Z</time></trkpt><trkpt lat="43.05528714113686" lon="11.489001004807356"><ele>551.0</ele><time>2026-03-22T13:12:31.997Z</time></trkpt><trkpt lat="43.0552065778278" lon="11.48900008726103"><ele>551.6666666666667</ele><time>2026-03-22T13:12:35.997Z</time></trkpt><trkpt lat="43.05512064239361" lon="11.488996998155859"><ele>552.3333333333334</ele><time>2026-03-22T13:12:37.997Z</time></trkpt><trkpt lat="43.05503423100838" lon="11.488986629204726"><ele>553.0</ele><time>2026-03-22T13:12:39.997Z</time></trkpt><trkpt lat="43.054939276529595" lon="11.488909542215444"><ele>553.2857142857143</ele><time>2026-03-22T13:12:41.996Z</time></trkpt><trkpt lat="43.05483077343919" lon="11.488835227558205"><ele>553.5714285714286</ele><time>2026-03-22T13:12:43.996Z</time></trkpt><trkpt lat="43.05477161357048" lon="11.488798798013136"><ele>553.8571428571429</ele><time>2026-03-22T13:12:44.996Z</time></trkpt><trkpt lat="43.05470600820946" lon="11.488766422252393"><ele>554.1428571428571</ele><time>2026-03-22T13:12:45.996Z</time></trkpt><trkpt lat="43.05464668022953" lon="11.488735882542654"><ele>554.4285714285714</ele><time>2026-03-22T13:12:46.996Z</time></trkpt><trkpt lat="43.05458490251359" lon="11.488713912603613"><ele>554.7142857142858</ele><time>2026-03-22T13:12:47.996Z</time></trkpt><trkpt lat="43.05452885964337" lon="11.488670448737698"><ele>555.0</ele><time>2026-03-22T13:12:48.996Z</time></trkpt><trkpt lat="43.05446556621685" lon="11.488653650751317"><ele>556.6666666666666</ele><time>2026-03-22T13:12:49.996Z</time></trkpt><trkpt lat="43.05439336365341" lon="11.488644433744996"><ele>558.3333333333334</ele><time>2026-03-22T13:12:50.996Z</time></trkpt><trkpt lat="43.054326071434055" lon="11.488638808895734"><ele>560.0</ele><time>2026-03-22T13:12:51.996Z</time></trkpt><trkpt lat="43.054244089666284" lon="11.488667146152611"><ele>561.6666666666667</ele><time>2026-03-22T13:12:52.996Z</time></trkpt><trkpt lat="43.054175101719416" lon="11.488685658750597"><ele>563.3333333333334</ele><time>2026-03-22T13:12:53.996Z</time></trkpt><trkpt lat="43.05410142558766" lon="11.488709377242271"><ele>565.0</ele><time>2026-03-22T13:12:54.996Z</time></trkpt><trkpt lat="43.05402348007941" lon="11.48873648174407"><ele>565.6666666666667</ele><time>2026-03-22T13:12:55.996Z</time></trkpt><trkpt lat="43.0539467103494" lon="11.488785505501921"><ele>566.3333333333334</ele><time>2026-03-22T13:12:56.996Z</time></trkpt><trkpt lat="43.05385085127654" lon="11.488797053425259"><ele>567.0</ele><time>2026-03-22T13:12:57.996Z</time></trkpt><trkpt lat="43.053770700461534" lon="11.488826029229736"><ele>567.6666666666666</ele><time>2026-03-22T13:12:58.996Z</time></trkpt><trkpt lat="43.053690277450926" lon="11.488857422456805"><ele>568.3333333333333</ele><time>2026-03-22T13:12:59.996Z</time></trkpt><trkpt lat="43.0536069682351" lon="11.488890633565402"><ele>569.0</ele><time>2026-03-22T13:13:00.996Z</time></trkpt><trkpt lat="43.05351203257779" lon="11.488940763082834"><ele>569.0</ele><time>2026-03-22T13:13:01.996Z</time></trkpt><trkpt lat="43.05342723423765" lon="11.489014540398804"><ele>569.0</ele><time>2026-03-22T13:13:02.996Z</time></trkpt><trkpt lat="43.05336474223647" lon="11.48912904149801"><ele>569.0</ele><time>2026-03-22T13:13:03.996Z</time></trkpt><trkpt lat="43.0533336831504" lon="11.489265689585054"><ele>569.0</ele><time>2026-03-22T13:13:04.996Z</time></trkpt><trkpt lat="43.05329347108871" lon="11.489384277141664"><ele>569.0</ele><time>2026-03-22T13:13:05.996Z</time></trkpt><trkpt lat="43.053262496023656" lon="11.489522657172598"><ele>573.4</ele><time>2026-03-22T13:13:06.996Z</time></trkpt><trkpt lat="43.053256064831835" lon="11.489663894307107"><ele>577.8</ele><time>2026-03-22T13:13:07.996Z</time></trkpt><trkpt lat="43.05322553812219" lon="11.489790575324008"><ele>582.2</ele><time>2026-03-22T13:13:08.996Z</time></trkpt><trkpt lat="43.053202929959596" lon="11.489927343384757"><ele>586.6</ele><time>2026-03-22T13:13:09.996Z</time></trkpt><trkpt lat="43.05317764552326" lon="11.49006312150118"><ele>591.0</ele><time>2026-03-22T13:13:10.996Z</time></trkpt><trkpt lat="43.05314820980679" lon="11.490194648109625"><ele>591.0</ele><time>2026-03-22T13:13:11.996Z</time></trkpt><trkpt lat="43.05311621370366" lon="11.490328941838523"><ele>591.0</ele><time>2026-03-22T13:13:12.996Z</time></trkpt><trkpt lat="43.05307153350674" lon="11.490452923737493"><ele>591.0</ele><time>2026-03-22T13:13:13.996Z</time></trkpt><trkpt lat="43.05301336716557" lon="11.490565323059595"><ele>591.0</ele><time>2026-03-22T13:13:14.996Z</time></trkpt><trkpt lat="43.05291809047349" lon="11.490632431034982"><ele>591.0</ele><time>2026-03-22T13:13:15.996Z</time></trkpt><trkpt lat="43.05282865235894" lon="11.490698152957254"><ele>587.5</ele><time>2026-03-22T13:13:16.996Z</time></trkpt><trkpt lat="43.05273612510964" lon="11.490780764461228"><ele>584.0</ele><time>2026-03-22T13:13:17.996Z</time></trkpt><trkpt lat="43.052626222725756" lon="11.490822759651127"><ele>580.5</ele><time>2026-03-22T13:13:18.996Z</time></trkpt><trkpt lat="43.05251687110208" lon="11.490886838471033"><ele>577.0</ele><time>2026-03-22T13:13:19.996Z</time></trkpt><trkpt lat="43.05241074823767" lon="11.490934345791016"><ele>576.0</ele><time>2026-03-22T13:13:20.996Z</time></trkpt><trkpt lat="43.05229432740943" lon="11.490958389667133"><ele>575.0</ele><time>2026-03-22T13:13:21.996Z</time></trkpt><trkpt lat="43.05217381035088" lon="11.49096335604293"><ele>574.0</ele><time>2026-03-22T13:13:22.996Z</time></trkpt><trkpt lat="43.05206583448612" lon="11.490911408098151"><ele>573.0</ele><time>2026-03-22T13:13:23.996Z</time></trkpt><trkpt lat="43.05196110793843" lon="11.490823090608176"><ele>573.0</ele><time>2026-03-22T13:13:24.996Z</time></trkpt><trkpt lat="43.051860975383356" lon="11.490722318667173"><ele>573.0</ele><time>2026-03-22T13:13:25.996Z</time></trkpt><trkpt lat="43.051763006267514" lon="11.490616641479766"><ele>573.0</ele><time>2026-03-22T13:13:26.996Z</time></trkpt><trkpt lat="43.05165860460783" lon="11.490513805436802"><ele>573.0</ele><time>2026-03-22T13:13:27.996Z</time></trkpt><trkpt lat="43.05159568289239" lon="11.490349403104544"><ele>577.0</ele><time>2026-03-22T13:13:28.996Z</time></trkpt><trkpt lat="43.05151199352313" lon="11.490185954814425"><ele>581.0</ele><time>2026-03-22T13:13:29.996Z</time></trkpt><trkpt lat="43.05144523373989" lon="11.490003822692"><ele>585.0</ele><time>2026-03-22T13:13:30.996Z</time></trkpt><trkpt lat="43.05137744532164" lon="11.489839072356945"><ele>589.0</ele><time>2026-03-22T13:13:31.996Z</time></trkpt><trkpt lat="43.051310608314175" lon="11.48968689233389"><ele>591.6</ele><time>2026-03-22T13:13:32.996Z</time></trkpt><trkpt lat="43.05123889614166" lon="11.489570132760672"><ele>594.2</ele><time>2026-03-22T13:13:33.996Z</time></trkpt><trkpt lat="43.051148410495905" lon="11.489501708245296"><ele>596.8000000000001</ele><time>2026-03-22T13:13:34.996Z</time></trkpt><trkpt lat="43.05105125328748" lon="11.489484230193572"><ele>599.4</ele><time>2026-03-22T13:13:35.996Z</time></trkpt><trkpt lat="43.05095944173723" lon="11.489479542130585"><ele>602.0</ele><time>2026-03-22T13:13:36.996Z</time></trkpt><trkpt lat="43.05087673091887" lon="11.489568700574866"><ele>604.25</ele><time>2026-03-22T13:13:37.996Z</time></trkpt><trkpt lat="43.050804135880625" lon="11.48967529385407"><ele>606.5</ele><time>2026-03-22T13:13:38.996Z</time></trkpt><trkpt lat="43.050742056880516" lon="11.48980356557712"><ele>608.75</ele><time>2026-03-22T13:13:39.996Z</time></trkpt><trkpt lat="43.05066781285477" lon="11.489939625036993"><ele>611.0</ele><time>2026-03-22T13:13:40.996Z</time></trkpt><trkpt lat="43.05059879816187" lon="11.490093337947034"><ele>611.0</ele><time>2026-03-22T13:13:41.996Z</time></trkpt><trkpt lat="43.050519272550105" lon="11.490267481979691"><ele>611.0</ele><time>2026-03-22T13:13:42.996Z</time></trkpt><trkpt lat="43.0504398173628" lon="11.490434783138994"><ele>611.0</ele><time>2026-03-22T13:13:43.996Z</time></trkpt><trkpt lat="43.05037526958422" lon="11.490591785215898"><ele>611.0</ele><time>2026-03-22T13:13:44.996Z</time></trkpt><trkpt lat="43.05031129463015" lon="11.490735141650381"><ele>608.2</ele><time>2026-03-22T13:13:45.996Z</time></trkpt><trkpt lat="43.050246162318665" lon="11.490857188711635"><ele>605.4000000000001</ele><time>2026-03-22T13:13:46.996Z</time></trkpt><trkpt lat="43.05016780542675" lon="11.490945728024004"><ele>602.6</ele><time>2026-03-22T13:13:47.996Z</time></trkpt><trkpt lat="43.05007622931629" lon="11.490992555948106"><ele>599.8000000000001</ele><time>2026-03-22T13:13:48.996Z</time></trkpt><trkpt lat="43.0499712798977" lon="11.49101551784324"><ele>597.0</ele><time>2026-03-22T13:13:49.996Z</time></trkpt><trkpt lat="43.04984940602539" lon="11.490962775113864"><ele>596.5</ele><time>2026-03-22T13:13:50.996Z</time></trkpt><trkpt lat="43.04971727335163" lon="11.490953610907022"><ele>596.0</ele><time>2026-03-22T13:13:51.996Z</time></trkpt><trkpt lat="43.04958075455277" lon="11.490977628477212"><ele>595.5</ele><time>2026-03-22T13:13:52.996Z</time></trkpt><trkpt lat="43.04945921135019" lon="11.491026584551102"><ele>595.0</ele><time>2026-03-22T13:13:53.996Z</time></trkpt><trkpt lat="43.04935595406113" lon="11.491047159779777"><ele>595.0</ele><time>2026-03-22T13:13:54.996Z</time></trkpt><trkpt lat="43.049251770398925" lon="11.491044425762027"><ele>595.0</ele><time>2026-03-22T13:13:55.996Z</time></trkpt><trkpt lat="43.04916807363318" lon="11.491005180956176"><ele>595.0</ele><time>2026-03-22T13:13:56.996Z</time></trkpt><trkpt lat="43.049103337223336" lon="11.490911475056402"><ele>595.0</ele><time>2026-03-22T13:13:57.996Z</time></trkpt><trkpt lat="43.049077384528736" lon="11.490775987308066"><ele>595.0</ele><time>2026-03-22T13:13:58.996Z</time></trkpt><trkpt lat="43.049028522322736" lon="11.490636834873646"><ele>597.0</ele><time>2026-03-22T13:13:59.996Z</time></trkpt><trkpt lat="43.04899223830946" lon="11.490478489576185"><ele>599.0</ele><time>2026-03-22T13:14:00.996Z</time></trkpt><trkpt lat="43.04895350970227" lon="11.490307687089404"><ele>601.0</ele><time>2026-03-22T13:14:01.996Z</time></trkpt><trkpt lat="43.04890258168309" lon="11.490158555590423"><ele>603.0</ele><time>2026-03-22T13:14:02.996Z</time></trkpt><trkpt lat="43.048826044375865" lon="11.490040284534969"><ele>603.0</ele><time>2026-03-22T13:14:03.996Z</time></trkpt><trkpt lat="43.048731837776764" lon="11.489951527362505"><ele>603.0</ele><time>2026-03-22T13:14:04.996Z</time></trkpt><trkpt lat="43.04863102186062" lon="11.489910512100497"><ele>603.0</ele><time>2026-03-22T13:14:05.996Z</time></trkpt><trkpt lat="43.04851474366369" lon="11.489929693569758"><ele>603.0</ele><time>2026-03-22T13:14:06.996Z</time></trkpt><trkpt lat="43.048395604846824" lon="11.48996474303133"><ele>603.0</ele><time>2026-03-22T13:14:07.996Z</time></trkpt><trkpt lat="43.048269385113485" lon="11.49000889989721"><ele>603.0</ele><time>2026-03-22T13:14:08.996Z</time></trkpt><trkpt lat="43.048139615310454" lon="11.490028883064783"><ele>603.0</ele><time>2026-03-22T13:14:09.996Z</time></trkpt><trkpt lat="43.0480054381453" lon="11.490042125956444"><ele>603.0</ele><time>2026-03-22T13:14:10.996Z</time></trkpt><trkpt lat="43.04787763534139" lon="11.49001091244984"><ele>603.0</ele><time>2026-03-22T13:14:11.996Z</time></trkpt><trkpt lat="43.04776985936608" lon="11.489937545758195"><ele>603.0</ele><time>2026-03-22T13:14:12.996Z</time></trkpt><trkpt lat="43.04767354866504" lon="11.489834950327081"><ele>603.0</ele><time>2026-03-22T13:14:13.996Z</time></trkpt><trkpt lat="43.047571782558244" lon="11.489725588447497"><ele>603.0</ele><time>2026-03-22T13:14:14.996Z</time></trkpt><trkpt lat="43.04747266408654" lon="11.489620636266459"><ele>606.0</ele><time>2026-03-22T13:14:15.996Z</time></trkpt><trkpt lat="43.04735980975872" lon="11.489532966916146"><ele>609.0</ele><time>2026-03-22T13:14:16.996Z</time></trkpt><trkpt lat="43.04724165956557" lon="11.489492889948533"><ele>612.0</ele><time>2026-03-22T13:14:17.996Z</time></trkpt><trkpt lat="43.04711683443855" lon="11.489489981614556"><ele>615.0</ele><time>2026-03-22T13:14:18.996Z</time></trkpt><trkpt lat="43.04700155231159" lon="11.489494955938463"><ele>615.0</ele><time>2026-03-22T13:14:19.996Z</time></trkpt><trkpt lat="43.04689325688713" lon="11.489475575737066"><ele>615.0</ele><time>2026-03-22T13:14:20.996Z</time></trkpt><trkpt lat="43.046792037508" lon="11.489421195249525"><ele>615.0</ele><time>2026-03-22T13:14:21.996Z</time></trkpt><trkpt lat="43.04669051840217" lon="11.489338089724738"><ele>615.0</ele><time>2026-03-22T13:14:22.996Z</time></trkpt><trkpt lat="43.04660230096363" lon="11.48922537463497"><ele>611.75</ele><time>2026-03-22T13:14:23.996Z</time></trkpt><trkpt lat="43.04653102589473" lon="11.489091850841481"><ele>608.5</ele><time>2026-03-22T13:14:24.996Z</time></trkpt><trkpt lat="43.046483223690856" lon="11.488935418511009"><ele>605.25</ele><time>2026-03-22T13:14:25.996Z</time></trkpt><trkpt lat="43.04645254629484" lon="11.488776665489212"><ele>602.0</ele><time>2026-03-22T13:14:26.996Z</time></trkpt><trkpt lat="43.04642640545045" lon="11.48862295179213"><ele>602.0</ele><time>2026-03-22T13:14:27.996Z</time></trkpt><trkpt lat="43.04639891621013" lon="11.488478685145415"><ele>602.0</ele><time>2026-03-22T13:14:28.996Z</time></trkpt><trkpt lat="43.04636991073946" lon="11.488339200337755"><ele>602.0</ele><time>2026-03-22T13:14:29.996Z</time></trkpt><trkpt lat="43.0463433160068" lon="11.488198597496313"><ele>602.0</ele><time>2026-03-22T13:14:30.996Z</time></trkpt><trkpt lat="43.04631734011936" lon="11.488063683397083"><ele>602.0</ele><time>2026-03-22T13:14:31.996Z</time></trkpt><trkpt lat="43.04628828248899" lon="11.487934291966088"><ele>604.2</ele><time>2026-03-22T13:14:32.996Z</time></trkpt><trkpt lat="43.046259282505645" lon="11.487801445144207"><ele>606.4000000000001</ele><time>2026-03-22T13:14:33.996Z</time></trkpt><trkpt lat="43.04621970903187" lon="11.487672752658291"><ele>608.5999999999999</ele><time>2026-03-22T13:14:34.996Z</time></trkpt><trkpt lat="43.04616930177255" lon="11.487547894185607"><ele>610.8</ele><time>2026-03-22T13:14:35.996Z</time></trkpt><trkpt lat="43.04610922655445" lon="11.487428144844063"><ele>613.0</ele><time>2026-03-22T13:14:36.996Z</time></trkpt><trkpt lat="43.04603020000909" lon="11.487302513937907"><ele>613.0</ele><time>2026-03-22T13:14:37.996Z</time></trkpt><trkpt lat="43.04594928709614" lon="11.487201037089083"><ele>613.0</ele><time>2026-03-22T13:14:38.996Z</time></trkpt><trkpt lat="43.0458563756595" lon="11.487119712638568"><ele>613.0</ele><time>2026-03-22T13:14:39.996Z</time></trkpt><trkpt lat="43.045747381509486" lon="11.487073363084141"><ele>613.0</ele><time>2026-03-22T13:14:40.996Z</time></trkpt><trkpt lat="43.04562661239954" lon="11.487056833050097"><ele>613.5</ele><time>2026-03-22T13:14:41.996Z</time></trkpt><trkpt lat="43.04550610878439" lon="11.48705943840184"><ele>614.0</ele><time>2026-03-22T13:14:42.996Z</time></trkpt><trkpt lat="43.0453957947477" lon="11.487043230893473"><ele>614.5</ele><time>2026-03-22T13:14:43.996Z</time></trkpt><trkpt lat="43.04529205291153" lon="11.486998353679212"><ele>615.0</ele><time>2026-03-22T13:14:44.996Z</time></trkpt><trkpt lat="43.045199328102555" lon="11.486917964677186"><ele>615.0</ele><time>2026-03-22T13:14:45.996Z</time></trkpt><trkpt lat="43.04513370148207" lon="11.486801360886858"><ele>615.0</ele><time>2026-03-22T13:14:46.996Z</time></trkpt><trkpt lat="43.0450789848664" lon="11.48666965672222"><ele>615.0</ele><time>2026-03-22T13:14:47.996Z</time></trkpt><trkpt lat="43.04503516941743" lon="11.486517932218533"><ele>615.0</ele><time>2026-03-22T13:14:48.996Z</time></trkpt><trkpt lat="43.04499065960521" lon="11.48635597740892"><ele>614.75</ele><time>2026-03-22T13:14:49.996Z</time></trkpt><trkpt lat="43.04494405349483" lon="11.486192360394842"><ele>614.5</ele><time>2026-03-22T13:14:50.996Z</time></trkpt><trkpt lat="43.04489599564665" lon="11.486033335078503"><ele>614.25</ele><time>2026-03-22T13:14:51.996Z</time></trkpt><trkpt lat="43.044850667650834" lon="11.485870591927284"><ele>614.0</ele><time>2026-03-22T13:14:52.996Z</time></trkpt><trkpt lat="43.044802905906245" lon="11.485711093203147"><ele>614.0</ele><time>2026-03-22T13:14:53.996Z</time></trkpt><trkpt lat="43.04475419446006" lon="11.485556138997476"><ele>614.0</ele><time>2026-03-22T13:14:54.996Z</time></trkpt><trkpt lat="43.044709650043735" lon="11.485406643860989"><ele>614.0</ele><time>2026-03-22T13:14:55.996Z</time></trkpt><trkpt lat="43.04467161746891" lon="11.485260369233757"><ele>614.0</ele><time>2026-03-22T13:14:56.996Z</time></trkpt><trkpt lat="43.04462785510273" lon="11.485116481836803"><ele>613.5</ele><time>2026-03-22T13:14:57.996Z</time></trkpt><trkpt lat="43.04458539362195" lon="11.484979243346086"><ele>613.0</ele><time>2026-03-22T13:14:58.996Z</time></trkpt><trkpt lat="43.04453796713021" lon="11.48484100503295"><ele>612.5</ele><time>2026-03-22T13:14:59.996Z</time></trkpt><trkpt lat="43.0444792251121" lon="11.484705210078245"><ele>612.0</ele><time>2026-03-22T13:15:00.996Z</time></trkpt><trkpt lat="43.04440405449404" lon="11.48457765007471"><ele>611.75</ele><time>2026-03-22T13:15:01.996Z</time></trkpt><trkpt lat="43.04431605414802" lon="11.484462078203597"><ele>611.5</ele><time>2026-03-22T13:15:02.996Z</time></trkpt><trkpt lat="43.044218881365985" lon="11.484360980441105"><ele>611.25</ele><time>2026-03-22T13:15:03.996Z</time></trkpt><trkpt lat="43.04411941110579" lon="11.484255711466048"><ele>611.0</ele><time>2026-03-22T13:15:04.996Z</time></trkpt><trkpt lat="43.044016710082154" lon="11.484156170737233"><ele>611.0</ele><time>2026-03-22T13:15:05.996Z</time></trkpt><trkpt lat="43.0439111103833" lon="11.484059247826291"><ele>611.0</ele><time>2026-03-22T13:15:06.996Z</time></trkpt><trkpt lat="43.0438174491079" lon="11.483945733017547"><ele>611.0</ele><time>2026-03-22T13:15:07.996Z</time></trkpt><trkpt lat="43.04370822414121" lon="11.483852566711889"><ele>611.0</ele><time>2026-03-22T13:15:08.996Z</time></trkpt><trkpt lat="43.04358754133727" lon="11.483771774064909"><ele>611.6666666666666</ele><time>2026-03-22T13:15:09.996Z</time></trkpt><trkpt lat="43.043446949457625" lon="11.48370491451198"><ele>612.3333333333334</ele><time>2026-03-22T13:15:10.996Z</time></trkpt><trkpt lat="43.043291308941384" lon="11.483653964606221"><ele>613.0</ele><time>2026-03-22T13:15:11.995Z</time></trkpt><trkpt lat="43.04313229693195" lon="11.483608493026281"><ele>613.0</ele><time>2026-03-22T13:15:12.995Z</time></trkpt><trkpt lat="43.04296817430904" lon="11.483559448437616"><ele>613.0</ele><time>2026-03-22T13:15:13.995Z</time></trkpt><trkpt lat="43.04278624518945" lon="11.483505020045127"><ele>613.0</ele><time>2026-03-22T13:15:14.995Z</time></trkpt><trkpt lat="43.04259473783901" lon="11.483447934272258"><ele>612.6666666666667</ele><time>2026-03-22T13:15:15.995Z</time></trkpt><trkpt lat="43.042394667395385" lon="11.483388984951665"><ele>612.3333333333334</ele><time>2026-03-22T13:15:16.995Z</time></trkpt><trkpt lat="43.042192016578355" lon="11.483329675828681"><ele>612.0</ele><time>2026-03-22T13:15:17.995Z</time></trkpt><trkpt lat="43.041998277352945" lon="11.483273128252153"><ele>612.0</ele><time>2026-03-22T13:15:18.995Z</time></trkpt><trkpt lat="43.04181823490803" lon="11.483220578440571"><ele>612.0</ele><time>2026-03-22T13:15:19.995Z</time></trkpt><trkpt lat="43.041633597081166" lon="11.483166687367701"><ele>612.0</ele><time>2026-03-22T13:15:20.995Z</time></trkpt><trkpt lat="43.041456893232755" lon="11.483115111986749"><ele>614.0</ele><time>2026-03-22T13:15:21.995Z</time></trkpt><trkpt lat="43.0412766066949" lon="11.483062491432195"><ele>616.0</ele><time>2026-03-22T13:15:22.995Z</time></trkpt><trkpt lat="43.041094153823266" lon="11.483008978171942"><ele>618.0</ele><time>2026-03-22T13:15:23.995Z</time></trkpt><trkpt lat="43.040910351844246" lon="11.482955132970336"><ele>615.3333333333334</ele><time>2026-03-22T13:15:24.995Z</time></trkpt><trkpt lat="43.04072964370315" lon="11.482900258831345"><ele>612.6666666666667</ele><time>2026-03-22T13:15:25.995Z</time></trkpt><trkpt lat="43.04054658364576" lon="11.482838183755533"><ele>610.0</ele><time>2026-03-22T13:15:26.995Z</time></trkpt><trkpt lat="43.04037373188244" lon="11.482754809641174"><ele>610.0</ele><time>2026-03-22T13:15:27.995Z</time></trkpt><trkpt lat="43.04019513653239" lon="11.482652796668013"><ele>610.0</ele><time>2026-03-22T13:15:28.995Z</time></trkpt><trkpt lat="43.04002584599645" lon="11.482531422738548"><ele>610.0</ele><time>2026-03-22T13:15:29.995Z</time></trkpt><trkpt lat="43.03985276797005" lon="11.48238567682037"><ele>608.3333333333334</ele><time>2026-03-22T13:15:30.995Z</time></trkpt><trkpt lat="43.03967041387719" lon="11.482226576800878"><ele>606.6666666666666</ele><time>2026-03-22T13:15:31.995Z</time></trkpt><trkpt lat="43.039497106496036" lon="11.482074904847316"><ele>605.0</ele><time>2026-03-22T13:15:32.995Z</time></trkpt><trkpt lat="43.03932328777708" lon="11.481922882588396"><ele>602.0</ele><time>2026-03-22T13:15:33.995Z</time></trkpt><trkpt lat="43.03914436419506" lon="11.48176631094215"><ele>599.0</ele><time>2026-03-22T13:15:34.995Z</time></trkpt><trkpt lat="43.03896686912779" lon="11.48160806795836"><ele>596.0</ele><time>2026-03-22T13:15:35.995Z</time></trkpt><trkpt lat="43.03878625003267" lon="11.481447039904296"><ele>594.6666666666666</ele><time>2026-03-22T13:15:36.995Z</time></trkpt><trkpt lat="43.03860829087889" lon="11.48128838310466"><ele>593.3333333333334</ele><time>2026-03-22T13:15:37.995Z</time></trkpt><trkpt lat="43.03843779241857" lon="11.481137613227977"><ele>592.0</ele><time>2026-03-22T13:15:38.995Z</time></trkpt><trkpt lat="43.038273481469" lon="11.480993023917868"><ele>592.0</ele><time>2026-03-22T13:15:39.995Z</time></trkpt><trkpt lat="43.038107559273236" lon="11.48084676343951"><ele>592.0</ele><time>2026-03-22T13:15:40.995Z</time></trkpt><trkpt lat="43.037941622405306" lon="11.480700379409884"><ele>592.0</ele><time>2026-03-22T13:15:41.995Z</time></trkpt><trkpt lat="43.037783113287496" lon="11.480562663624607"><ele>593.0</ele><time>2026-03-22T13:15:42.995Z</time></trkpt><trkpt lat="43.03762948575551" lon="11.480428073718404"><ele>594.0</ele><time>2026-03-22T13:15:43.995Z</time></trkpt><trkpt lat="43.03747384841761" lon="11.480291722725882"><ele>595.0</ele><time>2026-03-22T13:15:44.995Z</time></trkpt><trkpt lat="43.0373182336578" lon="11.480158934515721"><ele>597.0</ele><time>2026-03-22T13:15:45.995Z</time></trkpt><trkpt lat="43.0371651387812" lon="11.480035711842467"><ele>599.0</ele><time>2026-03-22T13:15:46.995Z</time></trkpt><trkpt lat="43.03701013734688" lon="11.479920943944352"><ele>601.0</ele><time>2026-03-22T13:15:47.995Z</time></trkpt><trkpt lat="43.036853109603626" lon="11.479811465718623"><ele>601.0</ele><time>2026-03-22T13:15:48.995Z</time></trkpt><trkpt lat="43.03668914743041" lon="11.479725367248998"><ele>601.0</ele><time>2026-03-22T13:15:49.995Z</time></trkpt><trkpt lat="43.03654274940408" lon="11.479602680532999"><ele>601.0</ele><time>2026-03-22T13:15:50.995Z</time></trkpt><trkpt lat="43.03639304354758" lon="11.479502449488026"><ele>604.0</ele><time>2026-03-22T13:15:51.995Z</time></trkpt><trkpt lat="43.03624194294484" lon="11.479423588558266"><ele>607.0</ele><time>2026-03-22T13:15:52.995Z</time></trkpt><trkpt lat="43.03609889188814" lon="11.4793223174213"><ele>610.0</ele><time>2026-03-22T13:15:53.995Z</time></trkpt><trkpt lat="43.03596688787575" lon="11.47921320953514"><ele>610.0</ele><time>2026-03-22T13:15:54.995Z</time></trkpt><trkpt lat="43.03582197119664" lon="11.479130556920955"><ele>610.0</ele><time>2026-03-22T13:15:55.995Z</time></trkpt><trkpt lat="43.035671795864616" lon="11.479080890076327"><ele>610.0</ele><time>2026-03-22T13:15:56.995Z</time></trkpt><trkpt lat="43.03551839021055" lon="11.479063335668931"><ele>613.0</ele><time>2026-03-22T13:15:57.995Z</time></trkpt><trkpt lat="43.03536912217645" lon="11.479083447000638"><ele>616.0</ele><time>2026-03-22T13:15:58.995Z</time></trkpt><trkpt lat="43.03522460224619" lon="11.479140895579775"><ele>619.0</ele><time>2026-03-22T13:15:59.995Z</time></trkpt><trkpt lat="43.03508267100831" lon="11.479233980470246"><ele>621.0</ele><time>2026-03-22T13:16:00.995Z</time></trkpt><trkpt lat="43.03495697500871" lon="11.479359746230832"><ele>623.0</ele><time>2026-03-22T13:16:01.995Z</time></trkpt><trkpt lat="43.03484547077302" lon="11.479512255051118"><ele>625.0</ele><time>2026-03-22T13:16:02.995Z</time></trkpt><trkpt lat="43.03475046953231" lon="11.479686350981588"><ele>627.6666666666667</ele><time>2026-03-22T13:16:03.995Z</time></trkpt><trkpt lat="43.0346666633915" lon="11.479870482225204"><ele>630.3333333333334</ele><time>2026-03-22T13:16:04.995Z</time></trkpt><trkpt lat="43.034582028400216" lon="11.480063341026023"><ele>633.0</ele><time>2026-03-22T13:16:05.995Z</time></trkpt><trkpt lat="43.034488523265544" lon="11.480238334350389"><ele>633.0</ele><time>2026-03-22T13:16:06.995Z</time></trkpt><trkpt lat="43.03436676415649" lon="11.48038705573847"><ele>633.0</ele><time>2026-03-22T13:16:07.995Z</time></trkpt><trkpt lat="43.034227775630775" lon="11.480496226659392"><ele>633.0</ele><time>2026-03-22T13:16:08.995Z</time></trkpt><trkpt lat="43.03408158739192" lon="11.480567667125632"><ele>633.0</ele><time>2026-03-22T13:16:09.995Z</time></trkpt><trkpt lat="43.03392619848391" lon="11.480618960200603"><ele>633.0</ele><time>2026-03-22T13:16:10.995Z</time></trkpt><trkpt lat="43.03376351339544" lon="11.480668684251704"><ele>633.0</ele><time>2026-03-22T13:16:11.995Z</time></trkpt><trkpt lat="43.033606744003826" lon="11.48073385771017"><ele>633.0</ele><time>2026-03-22T13:16:12.995Z</time></trkpt><trkpt lat="43.03344045908511" lon="11.4807988417474"><ele>633.0</ele><time>2026-03-22T13:16:13.995Z</time></trkpt><trkpt lat="43.03327140096506" lon="11.480855113882003"><ele>633.0</ele><time>2026-03-22T13:16:14.995Z</time></trkpt><trkpt lat="43.03311260067665" lon="11.480910829929176"><ele>630.0</ele><time>2026-03-22T13:16:15.995Z</time></trkpt><trkpt lat="43.032954512549644" lon="11.480963690237669"><ele>627.0</ele><time>2026-03-22T13:16:16.995Z</time></trkpt><trkpt lat="43.03278956882482" lon="11.481003257799376"><ele>624.0</ele><time>2026-03-22T13:16:17.995Z</time></trkpt><trkpt lat="43.03262041754237" lon="11.481079886209686"><ele>623.6666666666666</ele><time>2026-03-22T13:16:18.995Z</time></trkpt><trkpt lat="43.03244528542954" lon="11.48112231257435"><ele>623.3333333333333</ele><time>2026-03-22T13:16:19.995Z</time></trkpt><trkpt lat="43.03224977483723" lon="11.48111347707157"><ele>623.0</ele><time>2026-03-22T13:16:20.995Z</time></trkpt><trkpt lat="43.03205161331685" lon="11.481117257061227"><ele>623.0</ele><time>2026-03-22T13:16:21.995Z</time></trkpt><trkpt lat="43.031846944038996" lon="11.481139541082932"><ele>623.0</ele><time>2026-03-22T13:16:22.995Z</time></trkpt><trkpt lat="43.03164274258409" lon="11.481140227284405"><ele>623.0</ele><time>2026-03-22T13:16:23.995Z</time></trkpt><trkpt lat="43.031437667346786" lon="11.481145581503473"><ele>621.3333333333333</ele><time>2026-03-22T13:16:24.995Z</time></trkpt><trkpt lat="43.0312330777716" lon="11.481153544779454"><ele>619.6666666666666</ele><time>2026-03-22T13:16:25.995Z</time></trkpt><trkpt lat="43.03103141080923" lon="11.481159004467203"><ele>618.0</ele><time>2026-03-22T13:16:26.995Z</time></trkpt><trkpt lat="43.03083132443057" lon="11.481158411271027"><ele>618.0</ele><time>2026-03-22T13:16:27.995Z</time></trkpt><trkpt lat="43.03063407340314" lon="11.481163613238646"><ele>618.0</ele><time>2026-03-22T13:16:28.995Z</time></trkpt><trkpt lat="43.03043574975269" lon="11.481171379629119"><ele>618.0</ele><time>2026-03-22T13:16:29.995Z</time></trkpt><trkpt lat="43.03023544262781" lon="11.481177278881118"><ele>618.0</ele><time>2026-03-22T13:16:30.995Z</time></trkpt><trkpt lat="43.03003466175434" lon="11.481184469309444"><ele>618.0</ele><time>2026-03-22T13:16:31.995Z</time></trkpt><trkpt lat="43.02983375925072" lon="11.481200102924912"><ele>618.0</ele><time>2026-03-22T13:16:32.995Z</time></trkpt><trkpt lat="43.02963255158352" lon="11.48122231839761"><ele>616.6666666666666</ele><time>2026-03-22T13:16:33.995Z</time></trkpt><trkpt lat="43.02942903249267" lon="11.481224309339302"><ele>615.3333333333333</ele><time>2026-03-22T13:16:34.995Z</time></trkpt><trkpt lat="43.029220197163674" lon="11.481245068424577"><ele>614.0</ele><time>2026-03-22T13:16:35.995Z</time></trkpt><trkpt lat="43.029006235780635" lon="11.48126874395844"><ele>614.0</ele><time>2026-03-22T13:16:36.995Z</time></trkpt><trkpt lat="43.02878502434228" lon="11.481285659920827"><ele>614.0</ele><time>2026-03-22T13:16:37.995Z</time></trkpt><trkpt lat="43.02856411354979" lon="11.481299937198536"><ele>614.0</ele><time>2026-03-22T13:16:38.995Z</time></trkpt><trkpt lat="43.02834698333734" lon="11.481321222461077"><ele>612.3333333333333</ele><time>2026-03-22T13:16:39.995Z</time></trkpt><trkpt lat="43.028129095904205" lon="11.481338160457224"><ele>610.6666666666666</ele><time>2026-03-22T13:16:40.995Z</time></trkpt><trkpt lat="43.027910012230734" lon="11.481353033344845"><ele>609.0</ele><time>2026-03-22T13:16:41.995Z</time></trkpt><trkpt lat="43.02769503149854" lon="11.481383385738393"><ele>608.6666666666666</ele><time>2026-03-22T13:16:42.995Z</time></trkpt><trkpt lat="43.0274737961864" lon="11.481400682475403"><ele>608.3333333333333</ele><time>2026-03-22T13:16:43.995Z</time></trkpt><trkpt lat="43.0272706785657" lon="11.481436100726471"><ele>608.0</ele><time>2026-03-22T13:16:44.995Z</time></trkpt><trkpt lat="43.027067456270466" lon="11.481466095346638"><ele>608.0</ele><time>2026-03-22T13:16:45.995Z</time></trkpt><trkpt lat="43.02686077280776" lon="11.481496754254882"><ele>608.0</ele><time>2026-03-22T13:16:46.995Z</time></trkpt><trkpt lat="43.026647606050545" lon="11.48151528871606"><ele>608.0</ele><time>2026-03-22T13:16:47.995Z</time></trkpt><trkpt lat="43.0264419735591" lon="11.48152980784707"><ele>608.6666666666666</ele><time>2026-03-22T13:16:48.995Z</time></trkpt><trkpt lat="43.02624673240063" lon="11.481541217587473"><ele>609.3333333333334</ele><time>2026-03-22T13:16:49.995Z</time></trkpt><trkpt lat="43.02606461790041" lon="11.48156383738877"><ele>610.0</ele><time>2026-03-22T13:16:50.995Z</time></trkpt><trkpt lat="43.02588481083739" lon="11.48159937201217"><ele>610.6666666666667</ele><time>2026-03-22T13:16:51.995Z</time></trkpt><trkpt lat="43.02570978627786" lon="11.481633791788362"><ele>611.3333333333334</ele><time>2026-03-22T13:16:52.995Z</time></trkpt><trkpt lat="43.02553794086705" lon="11.48171469245226"><ele>612.0</ele><time>2026-03-22T13:16:53.995Z</time></trkpt><trkpt lat="43.02537805180868" lon="11.481833128023998"><ele>612.0</ele><time>2026-03-22T13:16:54.995Z</time></trkpt><trkpt lat="43.025232089733464" lon="11.481973095461683"><ele>612.0</ele><time>2026-03-22T13:16:55.995Z</time></trkpt><trkpt lat="43.02509720525834" lon="11.482137323109333"><ele>612.0</ele><time>2026-03-22T13:16:56.995Z</time></trkpt><trkpt lat="43.02495621553863" lon="11.482330732757744"><ele>609.3333333333334</ele><time>2026-03-22T13:16:57.995Z</time></trkpt><trkpt lat="43.02480837817592" lon="11.482513865601343"><ele>606.6666666666667</ele><time>2026-03-22T13:16:58.995Z</time></trkpt><trkpt lat="43.02465952393007" lon="11.482688405828467"><ele>604.0</ele><time>2026-03-22T13:16:59.995Z</time></trkpt><trkpt lat="43.02450528176609" lon="11.482849760133325"><ele>603.6666666666667</ele><time>2026-03-22T13:17:00.995Z</time></trkpt><trkpt lat="43.0243309904896" lon="11.482983374469757"><ele>603.3333333333334</ele><time>2026-03-22T13:17:01.995Z</time></trkpt><trkpt lat="43.024146169261996" lon="11.483101201430765"><ele>603.0</ele><time>2026-03-22T13:17:02.995Z</time></trkpt><trkpt lat="43.023958557863295" lon="11.483201826093591"><ele>603.0</ele><time>2026-03-22T13:17:03.995Z</time></trkpt><trkpt lat="43.02376678143526" lon="11.483292656936925"><ele>603.0</ele><time>2026-03-22T13:17:04.995Z</time></trkpt><trkpt lat="43.02356772353249" lon="11.483372668452816"><ele>603.0</ele><time>2026-03-22T13:17:05.995Z</time></trkpt><trkpt lat="43.02336361867616" lon="11.483429682988046"><ele>601.0</ele><time>2026-03-22T13:17:06.995Z</time></trkpt><trkpt lat="43.02317902507173" lon="11.483451536493869"><ele>599.0</ele><time>2026-03-22T13:17:07.995Z</time></trkpt><trkpt lat="43.023003141189825" lon="11.483462905247267"><ele>597.0</ele><time>2026-03-22T13:17:08.995Z</time></trkpt><trkpt lat="43.02283719729174" lon="11.48347356841653"><ele>597.0</ele><time>2026-03-22T13:17:09.995Z</time></trkpt><trkpt lat="43.02267301820742" lon="11.483477642787156"><ele>597.0</ele><time>2026-03-22T13:17:10.995Z</time></trkpt><trkpt lat="43.02250431305957" lon="11.483479676788098"><ele>597.0</ele><time>2026-03-22T13:17:11.995Z</time></trkpt><trkpt lat="43.02201666220505" lon="11.483502634738054"><ele>593.5</ele><time>2026-03-22T13:17:12.995Z</time></trkpt><trkpt lat="43.02178951943284" lon="11.483513465661359"><ele>590.0</ele><time>2026-03-22T13:17:13.995Z</time></trkpt><trkpt lat="43.021565901125776" lon="11.483523424937829"><ele>588.6666666666666</ele><time>2026-03-22T13:17:14.995Z</time></trkpt><trkpt lat="43.02134896266681" lon="11.48353265147495"><ele>587.3333333333334</ele><time>2026-03-22T13:17:15.995Z</time></trkpt><trkpt lat="43.02113708453923" lon="11.48354218458356"><ele>586.0</ele><time>2026-03-22T13:17:16.995Z</time></trkpt><trkpt lat="43.020922960977906" lon="11.48355641593606"><ele>584.6666666666667</ele><time>2026-03-22T13:17:17.995Z</time></trkpt><trkpt lat="43.02071446240871" lon="11.483586936945784"><ele>583.3333333333334</ele><time>2026-03-22T13:17:18.995Z</time></trkpt><trkpt lat="43.02051841148612" lon="11.483652042186927"><ele>582.0</ele><time>2026-03-22T13:17:19.995Z</time></trkpt><trkpt lat="43.02033068548433" lon="11.483708068650508"><ele>582.3333333333334</ele><time>2026-03-22T13:17:20.995Z</time></trkpt><trkpt lat="43.020149751353365" lon="11.483772900530822"><ele>582.6666666666667</ele><time>2026-03-22T13:17:21.995Z</time></trkpt><trkpt lat="43.01997415112117" lon="11.483839333614016"><ele>583.0</ele><time>2026-03-22T13:17:22.995Z</time></trkpt><trkpt lat="43.019811280573016" lon="11.48390011878755"><ele>582.25</ele><time>2026-03-22T13:17:23.995Z</time></trkpt><trkpt lat="43.01965667878256" lon="11.483946046974422"><ele>581.5</ele><time>2026-03-22T13:17:24.995Z</time></trkpt><trkpt lat="43.019506434695046" lon="11.483939601054447"><ele>580.75</ele><time>2026-03-22T13:17:25.995Z</time></trkpt><trkpt lat="43.019366903616714" lon="11.483934654381867"><ele>580.0</ele><time>2026-03-22T13:17:26.995Z</time></trkpt><trkpt lat="43.01923212043349" lon="11.483908980470014"><ele>577.6666666666667</ele><time>2026-03-22T13:17:27.995Z</time></trkpt><trkpt lat="43.01909500622312" lon="11.483855590545938"><ele>575.3333333333334</ele><time>2026-03-22T13:17:28.995Z</time></trkpt><trkpt lat="43.018954443100164" lon="11.48378890936959"><ele>573.0</ele><time>2026-03-22T13:17:29.995Z</time></trkpt><trkpt lat="43.01877911419722" lon="11.483694853092778"><ele>573.0</ele><time>2026-03-22T13:17:30.995Z</time></trkpt><trkpt lat="43.01857778966343" lon="11.483586546263464"><ele>573.0</ele><time>2026-03-22T13:17:31.995Z</time></trkpt><trkpt lat="43.01835714334111" lon="11.483465671807645"><ele>570.3333333333334</ele><time>2026-03-22T13:17:32.995Z</time></trkpt><trkpt lat="43.018145034913616" lon="11.483348017122267"><ele>567.6666666666667</ele><time>2026-03-22T13:17:33.995Z</time></trkpt><trkpt lat="43.01794504428287" lon="11.483242397061234"><ele>565.0</ele><time>2026-03-22T13:17:34.995Z</time></trkpt><trkpt lat="43.0177617475234" lon="11.483177934568438"><ele>565.0</ele><time>2026-03-22T13:17:35.995Z</time></trkpt><trkpt lat="43.01759544103165" lon="11.483098967631918"><ele>565.0</ele><time>2026-03-22T13:17:36.995Z</time></trkpt><trkpt lat="43.0174201280614" lon="11.483072961952098"><ele>565.0</ele><time>2026-03-22T13:17:37.995Z</time></trkpt><trkpt lat="43.01722909136629" lon="11.483077109664617"><ele>563.0</ele><time>2026-03-22T13:17:38.995Z</time></trkpt><trkpt lat="43.017025641867875" lon="11.483132454834386"><ele>561.0</ele><time>2026-03-22T13:17:39.995Z</time></trkpt><trkpt lat="43.016831975792726" lon="11.483231972990218"><ele>559.0</ele><time>2026-03-22T13:17:40.995Z</time></trkpt><trkpt lat="43.016637226803496" lon="11.483357373969607"><ele>559.0</ele><time>2026-03-22T13:17:41.995Z</time></trkpt><trkpt lat="43.01643306795521" lon="11.483489115902382"><ele>559.0</ele><time>2026-03-22T13:17:42.994Z</time></trkpt><trkpt lat="43.016227665731996" lon="11.483630862386464"><ele>557.5</ele><time>2026-03-22T13:17:43.994Z</time></trkpt><trkpt lat="43.01602317448551" lon="11.483771980207841"><ele>556.0</ele><time>2026-03-22T13:17:44.994Z</time></trkpt><trkpt lat="43.01582159644121" lon="11.483911087660026"><ele>555.5</ele><time>2026-03-22T13:17:45.994Z</time></trkpt><trkpt lat="43.01561928796539" lon="11.484050699156082"><ele>555.0</ele><time>2026-03-22T13:17:46.994Z</time></trkpt><trkpt lat="43.01540959008773" lon="11.484195409984522"><ele>555.0</ele><time>2026-03-22T13:17:47.994Z</time></trkpt><trkpt lat="43.01521107229295" lon="11.484329771972073"><ele>555.0</ele><time>2026-03-22T13:17:48.994Z</time></trkpt><trkpt lat="43.01502568007589" lon="11.484453580208209"><ele>555.0</ele><time>2026-03-22T13:17:49.994Z</time></trkpt><trkpt lat="43.014846210389585" lon="11.48456749255142"><ele>553.0</ele><time>2026-03-22T13:17:50.994Z</time></trkpt><trkpt lat="43.01465615330833" lon="11.484664391754979"><ele>551.0</ele><time>2026-03-22T13:17:51.994Z</time></trkpt><trkpt lat="43.014460605964615" lon="11.484724973734377"><ele>549.0</ele><time>2026-03-22T13:17:52.994Z</time></trkpt><trkpt lat="43.014261522474" lon="11.48475041529164"><ele>549.0</ele><time>2026-03-22T13:17:53.994Z</time></trkpt><trkpt lat="43.014059212823874" lon="11.484734730309908"><ele>549.0</ele><time>2026-03-22T13:17:54.994Z</time></trkpt><trkpt lat="43.01386149196943" lon="11.48467693486219"><ele>549.0</ele><time>2026-03-22T13:17:55.994Z</time></trkpt><trkpt lat="43.01366160156441" lon="11.48457051283241"><ele>549.0</ele><time>2026-03-22T13:17:56.994Z</time></trkpt><trkpt lat="43.01347474298094" lon="11.484428034308685"><ele>549.0</ele><time>2026-03-22T13:17:57.994Z</time></trkpt><trkpt lat="43.013284528802295" lon="11.48427624110984"><ele>549.0</ele><time>2026-03-22T13:17:58.994Z</time></trkpt><trkpt lat="43.013093991955195" lon="11.484123801500786"><ele>550.0</ele><time>2026-03-22T13:17:59.994Z</time></trkpt><trkpt lat="43.01290087211558" lon="11.483992226371196"><ele>551.0</ele><time>2026-03-22T13:18:00.994Z</time></trkpt><trkpt lat="43.012723325332075" lon="11.483823209139498"><ele>552.0</ele><time>2026-03-22T13:18:01.994Z</time></trkpt><trkpt lat="43.01253291374945" lon="11.483692415147926"><ele>552.0</ele><time>2026-03-22T13:18:02.994Z</time></trkpt><trkpt lat="43.01237041231011" lon="11.48353382624492"><ele>552.0</ele><time>2026-03-22T13:18:03.994Z</time></trkpt><trkpt lat="43.01220984649711" lon="11.483399461584877"><ele>552.0</ele><time>2026-03-22T13:18:04.994Z</time></trkpt><trkpt lat="43.01205608194325" lon="11.483257159198457"><ele>552.0</ele><time>2026-03-22T13:18:05.994Z</time></trkpt><trkpt lat="43.0119218384456" lon="11.483109274341045"><ele>552.0</ele><time>2026-03-22T13:18:06.994Z</time></trkpt><trkpt lat="43.011848992911496" lon="11.482894530190901"><ele>552.0</ele><time>2026-03-22T13:18:07.994Z</time></trkpt><trkpt lat="43.011782412224946" lon="11.482670112801454"><ele>549.6666666666666</ele><time>2026-03-22T13:18:08.994Z</time></trkpt><trkpt lat="43.01170315446083" lon="11.48242671374378"><ele>547.3333333333333</ele><time>2026-03-22T13:18:09.994Z</time></trkpt><trkpt lat="43.011636553246134" lon="11.482160223842039"><ele>545.0</ele><time>2026-03-22T13:18:10.994Z</time></trkpt><trkpt lat="43.01156424962198" lon="11.481881655878405"><ele>542.0</ele><time>2026-03-22T13:18:11.994Z</time></trkpt><trkpt lat="43.011486278611464" lon="11.481596386265108"><ele>539.0</ele><time>2026-03-22T13:18:12.994Z</time></trkpt><trkpt lat="43.01141117195791" lon="11.481307745128525"><ele>536.0</ele><time>2026-03-22T13:18:13.994Z</time></trkpt><trkpt lat="43.0113352384727" lon="11.481013105055744"><ele>534.0</ele><time>2026-03-22T13:18:14.994Z</time></trkpt><trkpt lat="43.01125787919325" lon="11.480724169098645"><ele>532.0</ele><time>2026-03-22T13:18:15.994Z</time></trkpt><trkpt lat="43.011183561663906" lon="11.480431688588029"><ele>529.0</ele><time>2026-03-22T13:18:16.994Z</time></trkpt><trkpt lat="43.01111452434515" lon="11.480130269863354"><ele>526.0</ele><time>2026-03-22T13:18:17.994Z</time></trkpt><trkpt lat="43.011057929975514" lon="11.479832500340049"><ele>524.3333333333334</ele><time>2026-03-22T13:18:18.994Z</time></trkpt><trkpt lat="43.011016096013435" lon="11.479547544021834"><ele>522.6666666666666</ele><time>2026-03-22T13:18:19.994Z</time></trkpt><trkpt lat="43.01097070144555" lon="11.479271869060954"><ele>521.0</ele><time>2026-03-22T13:18:20.994Z</time></trkpt><trkpt lat="43.01091889612476" lon="11.479004395139818"><ele>519.3333333333333</ele><time>2026-03-22T13:18:21.994Z</time></trkpt><trkpt lat="43.010864667889955" lon="11.478751308362353"><ele>517.6666666666666</ele><time>2026-03-22T13:18:22.994Z</time></trkpt><trkpt lat="43.01079705095487" lon="11.478507632769508"><ele>516.0</ele><time>2026-03-22T13:18:23.994Z</time></trkpt><trkpt lat="43.010704802910574" lon="11.478271890441976"><ele>513.3333333333334</ele><time>2026-03-22T13:18:24.994Z</time></trkpt><trkpt lat="43.01058160239324" lon="11.47805003457512"><ele>510.6666666666667</ele><time>2026-03-22T13:18:25.994Z</time></trkpt><trkpt lat="43.01043716205866" lon="11.477848203551602"><ele>508.0</ele><time>2026-03-22T13:18:26.994Z</time></trkpt><trkpt lat="43.010282057907745" lon="11.477656564620773"><ele>507.33333333333337</ele><time>2026-03-22T13:18:27.994Z</time></trkpt><trkpt lat="43.01012806579255" lon="11.477475974814306"><ele>506.66666666666663</ele><time>2026-03-22T13:18:28.994Z</time></trkpt><trkpt lat="43.00998127123751" lon="11.477297459109122"><ele>506.0</ele><time>2026-03-22T13:18:29.994Z</time></trkpt><trkpt lat="43.009854851890886" lon="11.477097697909558"><ele>502.66666666666663</ele><time>2026-03-22T13:18:30.994Z</time></trkpt><trkpt lat="43.009723512327895" lon="11.476910682495175"><ele>499.33333333333337</ele><time>2026-03-22T13:18:31.994Z</time></trkpt><trkpt lat="43.00961648918919" lon="11.476709027915701"><ele>496.0</ele><time>2026-03-22T13:18:32.994Z</time></trkpt><trkpt lat="43.00953308909801" lon="11.476487434857164"><ele>494.6666666666667</ele><time>2026-03-22T13:18:33.994Z</time></trkpt><trkpt lat="43.009476159542274" lon="11.476247757913722"><ele>493.33333333333337</ele><time>2026-03-22T13:18:34.994Z</time></trkpt><trkpt lat="43.00944304923038" lon="11.475993674356609"><ele>492.0</ele><time>2026-03-22T13:18:35.994Z</time></trkpt><trkpt lat="43.009427353029956" lon="11.475723802681596"><ele>492.0</ele><time>2026-03-22T13:18:36.994Z</time></trkpt><trkpt lat="43.00942115721631" lon="11.475461582757546"><ele>492.0</ele><time>2026-03-22T13:18:37.994Z</time></trkpt><trkpt lat="43.00941420169725" lon="11.475194588823394"><ele>492.0</ele><time>2026-03-22T13:18:38.994Z</time></trkpt><trkpt lat="43.00944897750276" lon="11.47492153450052"><ele>490.0</ele><time>2026-03-22T13:18:39.994Z</time></trkpt><trkpt lat="43.00948533149091" lon="11.47464290538939"><ele>488.0</ele><time>2026-03-22T13:18:40.994Z</time></trkpt><trkpt lat="43.009519625146005" lon="11.474352048818647"><ele>486.0</ele><time>2026-03-22T13:18:41.994Z</time></trkpt><trkpt lat="43.009581099275614" lon="11.474075054559776"><ele>483.66666666666663</ele><time>2026-03-22T13:18:42.994Z</time></trkpt><trkpt lat="43.00962691620552" lon="11.473798979571985"><ele>481.3333333333333</ele><time>2026-03-22T13:18:43.994Z</time></trkpt><trkpt lat="43.00966585307656" lon="11.47353715076812"><ele>479.0</ele><time>2026-03-22T13:18:44.994Z</time></trkpt><trkpt lat="43.00969421685188" lon="11.473272876849224"><ele>478.0</ele><time>2026-03-22T13:18:45.994Z</time></trkpt><trkpt lat="43.00968745868145" lon="11.473018832546618"><ele>477.0</ele><time>2026-03-22T13:18:46.994Z</time></trkpt><trkpt lat="43.00964687030158" lon="11.472775454108247"><ele>476.0</ele><time>2026-03-22T13:18:47.994Z</time></trkpt><trkpt lat="43.009569020938194" lon="11.472555376528039"><ele>476.0</ele><time>2026-03-22T13:18:48.994Z</time></trkpt><trkpt lat="43.00945462452038" lon="11.472368857386941"><ele>476.0</ele><time>2026-03-22T13:18:49.994Z</time></trkpt><trkpt lat="43.009333924730925" lon="11.472192032138047"><ele>476.0</ele><time>2026-03-22T13:18:50.994Z</time></trkpt><trkpt lat="43.009199710527255" lon="11.472004918628263"><ele>477.0</ele><time>2026-03-22T13:18:51.994Z</time></trkpt><trkpt lat="43.00908067729066" lon="11.471809866721983"><ele>478.0</ele><time>2026-03-22T13:18:52.994Z</time></trkpt><trkpt lat="43.00895782999784" lon="11.471610817652433"><ele>479.0</ele><time>2026-03-22T13:18:53.994Z</time></trkpt><trkpt lat="43.008841823869226" lon="11.47141577431351"><ele>479.0</ele><time>2026-03-22T13:18:54.994Z</time></trkpt><trkpt lat="43.00872487629164" lon="11.471215778003252"><ele>479.0</ele><time>2026-03-22T13:18:55.994Z</time></trkpt><trkpt lat="43.00861989309118" lon="11.471003084907242"><ele>479.0</ele><time>2026-03-22T13:18:56.994Z</time></trkpt><trkpt lat="43.00852952166143" lon="11.47077919870459"><ele>479.0</ele><time>2026-03-22T13:18:57.994Z</time></trkpt><trkpt lat="43.008466980997056" lon="11.470540186254286"><ele>479.0</ele><time>2026-03-22T13:18:58.994Z</time></trkpt><trkpt lat="43.00840876406429" lon="11.470294562566364"><ele>479.0</ele><time>2026-03-22T13:18:59.994Z</time></trkpt><trkpt lat="43.008355617468304" lon="11.470049078068275"><ele>476.3333333333333</ele><time>2026-03-22T13:19:00.994Z</time></trkpt><trkpt lat="43.00830233647116" lon="11.469801441555058"><ele>473.66666666666663</ele><time>2026-03-22T13:19:01.994Z</time></trkpt><trkpt lat="43.00824926260628" lon="11.469553969513909"><ele>471.0</ele><time>2026-03-22T13:19:02.994Z</time></trkpt><trkpt lat="43.00819753528462" lon="11.469301933565987"><ele>470.66666666666663</ele><time>2026-03-22T13:19:03.994Z</time></trkpt><trkpt lat="43.00814328906572" lon="11.469047747127206"><ele>470.3333333333333</ele><time>2026-03-22T13:19:04.994Z</time></trkpt><trkpt lat="43.00808943870745" lon="11.468789275633602"><ele>470.0</ele><time>2026-03-22T13:19:05.994Z</time></trkpt><trkpt lat="43.00803499091073" lon="11.468530437832236"><ele>471.0</ele><time>2026-03-22T13:19:06.994Z</time></trkpt><trkpt lat="43.00798249470067" lon="11.46827226755822"><ele>472.0</ele><time>2026-03-22T13:19:07.994Z</time></trkpt><trkpt lat="43.00792952221386" lon="11.468015772490627"><ele>473.0</ele><time>2026-03-22T13:19:08.994Z</time></trkpt><trkpt lat="43.00787466204166" lon="11.46775735982033"><ele>473.3333333333333</ele><time>2026-03-22T13:19:09.994Z</time></trkpt><trkpt lat="43.007822262466156" lon="11.467501723206675"><ele>473.66666666666663</ele><time>2026-03-22T13:19:10.994Z</time></trkpt><trkpt lat="43.00776785884988" lon="11.46725124584951"><ele>474.0</ele><time>2026-03-22T13:19:11.994Z</time></trkpt><trkpt lat="43.007716141804046" lon="11.467001215266288"><ele>474.0</ele><time>2026-03-22T13:19:12.994Z</time></trkpt><trkpt lat="43.0076606408376" lon="11.466751814526138"><ele>474.0</ele><time>2026-03-22T13:19:13.994Z</time></trkpt><trkpt lat="43.00759982000485" lon="11.466502409249738"><ele>474.0</ele><time>2026-03-22T13:19:14.994Z</time></trkpt><trkpt lat="43.00754536644061" lon="11.466255707945844"><ele>472.66666666666663</ele><time>2026-03-22T13:19:15.994Z</time></trkpt><trkpt lat="43.0074964444687" lon="11.46601799513955"><ele>471.3333333333333</ele><time>2026-03-22T13:19:16.994Z</time></trkpt><trkpt lat="43.00744748364351" lon="11.46576991776291"><ele>470.0</ele><time>2026-03-22T13:19:17.994Z</time></trkpt><trkpt lat="43.007401894812155" lon="11.465503955785499"><ele>466.3333333333333</ele><time>2026-03-22T13:19:18.994Z</time></trkpt><trkpt lat="43.00736153106404" lon="11.465230108323846"><ele>462.66666666666663</ele><time>2026-03-22T13:19:19.994Z</time></trkpt><trkpt lat="43.00732625516755" lon="11.464945107245242"><ele>459.0</ele><time>2026-03-22T13:19:20.994Z</time></trkpt><trkpt lat="43.00729965439189" lon="11.464665988527178"><ele>458.0</ele><time>2026-03-22T13:19:21.994Z</time></trkpt><trkpt lat="43.00727832015582" lon="11.46438356238964"><ele>457.0</ele><time>2026-03-22T13:19:22.994Z</time></trkpt><trkpt lat="43.00726315775684" lon="11.464103231096193"><ele>456.0</ele><time>2026-03-22T13:19:23.994Z</time></trkpt><trkpt lat="43.00728121379292" lon="11.463818927787603"><ele>455.0</ele><time>2026-03-22T13:19:24.994Z</time></trkpt><trkpt lat="43.0073261399429" lon="11.463551246036745"><ele>454.0</ele><time>2026-03-22T13:19:25.994Z</time></trkpt><trkpt lat="43.00739405678915" lon="11.4632968853968"><ele>453.0</ele><time>2026-03-22T13:19:26.994Z</time></trkpt><trkpt lat="43.00747624279471" lon="11.463058852796804"><ele>453.25</ele><time>2026-03-22T13:19:27.994Z</time></trkpt><trkpt lat="43.00755339392225" lon="11.462872846706688"><ele>453.5</ele><time>2026-03-22T13:19:28.994Z</time></trkpt><trkpt lat="43.00761666172439" lon="11.462716985478357"><ele>453.75</ele><time>2026-03-22T13:19:29.994Z</time></trkpt><trkpt lat="43.00765536476962" lon="11.462560671527674"><ele>454.0</ele><time>2026-03-22T13:19:30.994Z</time></trkpt><trkpt lat="43.00767273940658" lon="11.462376181251479"><ele>454.0</ele><time>2026-03-22T13:19:31.994Z</time></trkpt><trkpt lat="43.00764920134377" lon="11.462200193079694"><ele>454.0</ele><time>2026-03-22T13:19:32.994Z</time></trkpt><trkpt lat="43.00760344733401" lon="11.462033142940921"><ele>454.0</ele><time>2026-03-22T13:19:33.994Z</time></trkpt><trkpt lat="43.00752758882718" lon="11.461873877117421"><ele>454.0</ele><time>2026-03-22T13:19:34.994Z</time></trkpt><trkpt lat="43.007423929887224" lon="11.461731246434827"><ele>451.0</ele><time>2026-03-22T13:19:35.994Z</time></trkpt><trkpt lat="43.00729724665656" lon="11.461626093853305"><ele>448.0</ele><time>2026-03-22T13:19:36.994Z</time></trkpt><trkpt lat="43.00715754252509" lon="11.46156351649831"><ele>445.0</ele><time>2026-03-22T13:19:37.994Z</time></trkpt><trkpt lat="43.0070098144532" lon="11.46154866634861"><ele>442.0</ele><time>2026-03-22T13:19:38.994Z</time></trkpt><trkpt lat="43.00685520550864" lon="11.461574051977943"><ele>442.0</ele><time>2026-03-22T13:19:39.994Z</time></trkpt><trkpt lat="43.00670111906133" lon="11.461634302945706"><ele>442.0</ele><time>2026-03-22T13:19:40.994Z</time></trkpt><trkpt lat="43.00653644175561" lon="11.461727056958313"><ele>442.0</ele><time>2026-03-22T13:19:41.994Z</time></trkpt><trkpt lat="43.0063599049733" lon="11.461835713190194"><ele>438.33333333333337</ele><time>2026-03-22T13:19:42.994Z</time></trkpt><trkpt lat="43.00617005616855" lon="11.461939810088701"><ele>434.66666666666663</ele><time>2026-03-22T13:19:43.994Z</time></trkpt><trkpt lat="43.00597885893412" lon="11.462044254370905"><ele>431.0</ele><time>2026-03-22T13:19:44.994Z</time></trkpt><trkpt lat="43.00577927217867" lon="11.462152032400473"><ele>429.3333333333333</ele><time>2026-03-22T13:19:45.994Z</time></trkpt><trkpt lat="43.00557608515164" lon="11.462260623588426"><ele>427.66666666666663</ele><time>2026-03-22T13:19:46.994Z</time></trkpt><trkpt lat="43.00538838093674" lon="11.46236856227444"><ele>426.0</ele><time>2026-03-22T13:19:47.994Z</time></trkpt><trkpt lat="43.00520796798983" lon="11.462469922362029"><ele>426.0</ele><time>2026-03-22T13:19:48.994Z</time></trkpt><trkpt lat="43.00502745839655" lon="11.46256382954983"><ele>426.0</ele><time>2026-03-22T13:19:49.994Z</time></trkpt><trkpt lat="43.00483019129524" lon="11.462634231573901"><ele>426.0</ele><time>2026-03-22T13:19:50.994Z</time></trkpt><trkpt lat="43.004641690636895" lon="11.462733225567783"><ele>423.0</ele><time>2026-03-22T13:19:51.994Z</time></trkpt><trkpt lat="43.00446350052355" lon="11.462824351456714"><ele>420.0</ele><time>2026-03-22T13:19:52.994Z</time></trkpt><trkpt lat="43.00428946071242" lon="11.462913347990048"><ele>417.0</ele><time>2026-03-22T13:19:53.994Z</time></trkpt><trkpt lat="43.00411529611513" lon="11.463000562833214"><ele>416.66666666666663</ele><time>2026-03-22T13:19:54.994Z</time></trkpt><trkpt lat="43.00394280415637" lon="11.463042532341243"><ele>416.3333333333333</ele><time>2026-03-22T13:19:55.994Z</time></trkpt><trkpt lat="43.0037829165502" lon="11.4630418407809"><ele>416.0</ele><time>2026-03-22T13:19:56.994Z</time></trkpt><trkpt lat="43.003630341845636" lon="11.46300968701568"><ele>415.25</ele><time>2026-03-22T13:19:57.994Z</time></trkpt><trkpt lat="43.00349161744546" lon="11.462942492315362"><ele>414.5</ele><time>2026-03-22T13:19:58.994Z</time></trkpt><trkpt lat="43.00336739675849" lon="11.462835631567986"><ele>413.75</ele><time>2026-03-22T13:19:59.994Z</time></trkpt><trkpt lat="43.003258267453525" lon="11.462704276852985"><ele>413.0</ele><time>2026-03-22T13:20:00.994Z</time></trkpt><trkpt lat="43.00317621345096" lon="11.46254769620933"><ele>417.66666666666663</ele><time>2026-03-22T13:20:01.994Z</time></trkpt><trkpt lat="43.003103787780084" lon="11.462359467562868"><ele>422.33333333333337</ele><time>2026-03-22T13:20:02.994Z</time></trkpt><trkpt lat="43.00305922227607" lon="11.462152027221421"><ele>427.0</ele><time>2026-03-22T13:20:03.994Z</time></trkpt><trkpt lat="43.00304496200474" lon="11.461931941029095"><ele>427.33333333333337</ele><time>2026-03-22T13:20:04.994Z</time></trkpt><trkpt lat="43.00304676145186" lon="11.461713824818885"><ele>427.66666666666663</ele><time>2026-03-22T13:20:05.994Z</time></trkpt><trkpt lat="43.00304094413844" lon="11.461499143890027"><ele>428.0</ele><time>2026-03-22T13:20:06.994Z</time></trkpt><trkpt lat="43.00302201882318" lon="11.46126962419962"><ele>429.3333333333333</ele><time>2026-03-22T13:20:07.994Z</time></trkpt><trkpt lat="43.00299491703928" lon="11.461018888233667"><ele>430.66666666666663</ele><time>2026-03-22T13:20:08.994Z</time></trkpt><trkpt lat="43.002965114548225" lon="11.460759527868952"><ele>432.0</ele><time>2026-03-22T13:20:09.994Z</time></trkpt><trkpt lat="43.002910402220586" lon="11.46050566260639"><ele>429.66666666666663</ele><time>2026-03-22T13:20:10.994Z</time></trkpt><trkpt lat="43.0028340406444" lon="11.460263134739778"><ele>427.3333333333333</ele><time>2026-03-22T13:20:11.994Z</time></trkpt><trkpt lat="43.00274214559499" lon="11.460034241989973"><ele>425.0</ele><time>2026-03-22T13:20:12.993Z</time></trkpt><trkpt lat="43.00263577214283" lon="11.459810684273336"><ele>421.3333333333333</ele><time>2026-03-22T13:20:13.993Z</time></trkpt><trkpt lat="43.00251909171126" lon="11.459599208331857"><ele>417.66666666666663</ele><time>2026-03-22T13:20:14.993Z</time></trkpt><trkpt lat="43.002391094463036" lon="11.459386423452345"><ele>414.0</ele><time>2026-03-22T13:20:15.993Z</time></trkpt><trkpt lat="43.0022569737431" lon="11.459194206541264"><ele>416.0</ele><time>2026-03-22T13:20:16.993Z</time></trkpt><trkpt lat="43.00210917086947" lon="11.459014746525819"><ele>418.0</ele><time>2026-03-22T13:20:17.993Z</time></trkpt><trkpt lat="43.001951225614356" lon="11.458850551271809"><ele>420.0</ele><time>2026-03-22T13:20:18.992Z</time></trkpt><trkpt lat="43.00178415834005" lon="11.458699000376622"><ele>423.33333333333337</ele><time>2026-03-22T13:20:19.992Z</time></trkpt><trkpt lat="43.00162749494148" lon="11.458557296895965"><ele>426.6666666666667</ele><time>2026-03-22T13:20:20.992Z</time></trkpt><trkpt lat="43.00147557112482" lon="11.45842162234563"><ele>430.0</ele><time>2026-03-22T13:20:21.992Z</time></trkpt><trkpt lat="43.00132242737075" lon="11.458286954712598"><ele>430.0</ele><time>2026-03-22T13:20:22.992Z</time></trkpt><trkpt lat="43.001167994235814" lon="11.458173490621716"><ele>430.0</ele><time>2026-03-22T13:20:23.992Z</time></trkpt><trkpt lat="43.00103218874437" lon="11.458030861264273"><ele>430.0</ele><time>2026-03-22T13:20:24.992Z</time></trkpt><trkpt lat="43.0008855558174" lon="11.457912832461068"><ele>427.0</ele><time>2026-03-22T13:20:25.992Z</time></trkpt><trkpt lat="43.000735673978745" lon="11.457820986724593"><ele>424.0</ele><time>2026-03-22T13:20:26.992Z</time></trkpt><trkpt lat="43.00055803591174" lon="11.457809813246977"><ele>421.0</ele><time>2026-03-22T13:20:27.991Z</time></trkpt><trkpt lat="43.00038320628839" lon="11.457780304501224"><ele>421.0</ele><time>2026-03-22T13:20:28.991Z</time></trkpt><trkpt lat="43.00020963163621" lon="11.457770172334492"><ele>421.0</ele><time>2026-03-22T13:20:29.991Z</time></trkpt><trkpt lat="43.000032857062884" lon="11.457774916755254"><ele>421.0</ele><time>2026-03-22T13:20:30.991Z</time></trkpt><trkpt lat="42.99985599273769" lon="11.45778041623775"><ele>421.0</ele><time>2026-03-22T13:20:31.991Z</time></trkpt><trkpt lat="42.999678445364054" lon="11.457787958307833"><ele>421.0</ele><time>2026-03-22T13:20:32.991Z</time></trkpt><trkpt lat="42.99949781982344" lon="11.457771739895218"><ele>421.0</ele><time>2026-03-22T13:20:33.991Z</time></trkpt><trkpt lat="42.99931253208507" lon="11.4578081142554"><ele>421.0</ele><time>2026-03-22T13:20:34.991Z</time></trkpt><trkpt lat="42.99912570175114" lon="11.457848043087035"><ele>421.0</ele><time>2026-03-22T13:20:35.991Z</time></trkpt><trkpt lat="42.998947238198134" lon="11.457885674922341"><ele>421.0</ele><time>2026-03-22T13:20:36.991Z</time></trkpt><trkpt lat="42.99878048987791" lon="11.45792237281906"><ele>420.6666666666667</ele><time>2026-03-22T13:20:37.991Z</time></trkpt><trkpt lat="42.99861193342688" lon="11.457965646120538"><ele>420.33333333333337</ele><time>2026-03-22T13:20:38.991Z</time></trkpt><trkpt lat="42.99844674245096" lon="11.45802546854612"><ele>420.0</ele><time>2026-03-22T13:20:39.991Z</time></trkpt><trkpt lat="42.99828160387119" lon="11.458109713707294"><ele>420.0</ele><time>2026-03-22T13:20:40.991Z</time></trkpt><trkpt lat="42.99811980888218" lon="11.45822057303815"><ele>420.0</ele><time>2026-03-22T13:20:41.991Z</time></trkpt><trkpt lat="42.99795959620958" lon="11.458330935084666"><ele>420.0</ele><time>2026-03-22T13:20:42.991Z</time></trkpt><trkpt lat="42.997797096817834" lon="11.458434769194222"><ele>420.0</ele><time>2026-03-22T13:20:43.991Z</time></trkpt><trkpt lat="42.99763442993889" lon="11.458526048649462"><ele>420.0</ele><time>2026-03-22T13:20:44.99Z</time></trkpt><trkpt lat="42.997471351807846" lon="11.458594133347052"><ele>420.0</ele><time>2026-03-22T13:20:45.99Z</time></trkpt><trkpt lat="42.997321306848974" lon="11.458628940227836"><ele>419.0</ele><time>2026-03-22T13:20:46.99Z</time></trkpt><trkpt lat="42.99717369731438" lon="11.45863081569944"><ele>418.0</ele><time>2026-03-22T13:20:47.99Z</time></trkpt><trkpt lat="42.997027426433085" lon="11.458603613673116"><ele>417.0</ele><time>2026-03-22T13:20:48.99Z</time></trkpt><trkpt lat="42.9968850874599" lon="11.458555308421417"><ele>416.0</ele><time>2026-03-22T13:20:49.99Z</time></trkpt><trkpt lat="42.99675244611813" lon="11.458461478907457"><ele>413.25</ele><time>2026-03-22T13:20:50.99Z</time></trkpt><trkpt lat="42.99661968432641" lon="11.458383233752608"><ele>410.5</ele><time>2026-03-22T13:20:51.99Z</time></trkpt><trkpt lat="42.99648894836994" lon="11.458304699422028"><ele>407.75</ele><time>2026-03-22T13:20:52.99Z</time></trkpt><trkpt lat="42.99635785734099" lon="11.458223286298825"><ele>405.0</ele><time>2026-03-22T13:20:53.99Z</time></trkpt><trkpt lat="42.996224495125624" lon="11.458148639257345"><ele>405.0</ele><time>2026-03-22T13:20:54.99Z</time></trkpt><trkpt lat="42.996113209667804" lon="11.458024401238093"><ele>405.0</ele><time>2026-03-22T13:20:55.99Z</time></trkpt><trkpt lat="42.99601987203651" lon="11.457873361460067"><ele>405.0</ele><time>2026-03-22T13:20:56.99Z</time></trkpt><trkpt lat="42.99594015204147" lon="11.45770754918755"><ele>405.0</ele><time>2026-03-22T13:20:57.99Z</time></trkpt><trkpt lat="42.99587659219114" lon="11.457520262373334"><ele>400.33333333333337</ele><time>2026-03-22T13:20:58.99Z</time></trkpt><trkpt lat="42.995824054399215" lon="11.457322906847667"><ele>395.6666666666667</ele><time>2026-03-22T13:20:59.99Z</time></trkpt><trkpt lat="42.99578440574582" lon="11.457121719282195"><ele>391.0</ele><time>2026-03-22T13:21:00.99Z</time></trkpt><trkpt lat="42.99575125106811" lon="11.456917324427222"><ele>390.6666666666667</ele><time>2026-03-22T13:21:01.99Z</time></trkpt><trkpt lat="42.995729480749816" lon="11.456707513086332"><ele>390.33333333333337</ele><time>2026-03-22T13:21:02.99Z</time></trkpt><trkpt lat="42.995726639920775" lon="11.456485257339766"><ele>390.0</ele><time>2026-03-22T13:21:03.99Z</time></trkpt><trkpt lat="42.995752836284304" lon="11.456263329432998"><ele>388.66666666666663</ele><time>2026-03-22T13:21:04.99Z</time></trkpt><trkpt lat="42.99579453717899" lon="11.456042047557645"><ele>387.3333333333333</ele><time>2026-03-22T13:21:05.99Z</time></trkpt><trkpt lat="42.995832897471885" lon="11.455819862129813"><ele>386.0</ele><time>2026-03-22T13:21:06.99Z</time></trkpt><trkpt lat="42.99586363862433" lon="11.455604151613132"><ele>390.3333333333333</ele><time>2026-03-22T13:21:07.99Z</time></trkpt><trkpt lat="42.995898529532596" lon="11.455396207125661"><ele>394.66666666666663</ele><time>2026-03-22T13:21:08.99Z</time></trkpt><trkpt lat="42.99594222823164" lon="11.455188962791889"><ele>399.0</ele><time>2026-03-22T13:21:09.99Z</time></trkpt><trkpt lat="42.99600316462552" lon="11.454980076487885"><ele>399.0</ele><time>2026-03-22T13:21:10.99Z</time></trkpt><trkpt lat="42.99607770546515" lon="11.454769581654379"><ele>399.0</ele><time>2026-03-22T13:21:11.99Z</time></trkpt><trkpt lat="42.99616694072161" lon="11.454557827611502"><ele>399.0</ele><time>2026-03-22T13:21:12.99Z</time></trkpt><trkpt lat="42.996257894074596" lon="11.454342864214762"><ele>395.0</ele><time>2026-03-22T13:21:13.99Z</time></trkpt><trkpt lat="42.9963444767223" lon="11.454129191692044"><ele>391.0</ele><time>2026-03-22T13:21:14.99Z</time></trkpt><trkpt lat="42.99643787685381" lon="11.453917500543172"><ele>387.0</ele><time>2026-03-22T13:21:15.99Z</time></trkpt><trkpt lat="42.99654437316743" lon="11.453717833014622"><ele>385.0</ele><time>2026-03-22T13:21:16.99Z</time></trkpt><trkpt lat="42.99665852032559" lon="11.453531275865194"><ele>383.0</ele><time>2026-03-22T13:21:17.99Z</time></trkpt><trkpt lat="42.996769379298186" lon="11.45334467512642"><ele>381.0</ele><time>2026-03-22T13:21:18.99Z</time></trkpt><trkpt lat="42.99687739659234" lon="11.453162474875242"><ele>381.0</ele><time>2026-03-22T13:21:19.99Z</time></trkpt><trkpt lat="42.996994288204824" lon="11.452995948012097"><ele>381.0</ele><time>2026-03-22T13:21:20.99Z</time></trkpt><trkpt lat="42.99712240874163" lon="11.452866496139455"><ele>381.0</ele><time>2026-03-22T13:21:21.99Z</time></trkpt><trkpt lat="42.99726952371591" lon="11.452789004026652"><ele>377.5</ele><time>2026-03-22T13:21:22.99Z</time></trkpt><trkpt lat="42.99741765184767" lon="11.452768219702051"><ele>374.0</ele><time>2026-03-22T13:21:23.99Z</time></trkpt><trkpt lat="42.99756491496988" lon="11.452795230340802"><ele>370.5</ele><time>2026-03-22T13:21:24.99Z</time></trkpt><trkpt lat="42.99770478875279" lon="11.452828677961806"><ele>367.0</ele><time>2026-03-22T13:21:25.99Z</time></trkpt><trkpt lat="42.99784370182313" lon="11.452852013484934"><ele>367.0</ele><time>2026-03-22T13:21:26.99Z</time></trkpt><trkpt lat="42.997980050869984" lon="11.452844180084261"><ele>367.0</ele><time>2026-03-22T13:21:27.99Z</time></trkpt><trkpt lat="42.99810776131883" lon="11.45279675594047"><ele>367.0</ele><time>2026-03-22T13:21:28.99Z</time></trkpt><trkpt lat="42.9982281109728" lon="11.452686971905413"><ele>367.0</ele><time>2026-03-22T13:21:29.99Z</time></trkpt><trkpt lat="42.998330119561274" lon="11.4525394878218"><ele>365.66666666666663</ele><time>2026-03-22T13:21:30.99Z</time></trkpt><trkpt lat="42.99840574209347" lon="11.45237843490131"><ele>364.3333333333333</ele><time>2026-03-22T13:21:31.99Z</time></trkpt><trkpt lat="42.998491157675694" lon="11.452197190772434"><ele>363.0</ele><time>2026-03-22T13:21:32.99Z</time></trkpt><trkpt lat="42.9985793884715" lon="11.452018553042251"><ele>363.0</ele><time>2026-03-22T13:21:33.99Z</time></trkpt><trkpt lat="42.99866485908101" lon="11.451836712370046"><ele>363.0</ele><time>2026-03-22T13:21:34.99Z</time></trkpt><trkpt lat="42.99875225830671" lon="11.451668157839382"><ele>363.0</ele><time>2026-03-22T13:21:35.99Z</time></trkpt><trkpt lat="42.99884950793822" lon="11.451517999641984"><ele>363.0</ele><time>2026-03-22T13:21:36.99Z</time></trkpt><trkpt lat="42.99895844818919" lon="11.451380371845156"><ele>363.0</ele><time>2026-03-22T13:21:37.99Z</time></trkpt><trkpt lat="42.999087013232064" lon="11.45125186675313"><ele>363.0</ele><time>2026-03-22T13:21:38.99Z</time></trkpt><trkpt lat="42.999230619105255" lon="11.451138537551856"><ele>358.3333333333333</ele><time>2026-03-22T13:21:39.99Z</time></trkpt><trkpt lat="42.9993792086973" lon="11.451036220293856"><ele>353.66666666666663</ele><time>2026-03-22T13:21:40.99Z</time></trkpt><trkpt lat="42.99952589096355" lon="11.45095028268949"><ele>349.0</ele><time>2026-03-22T13:21:41.99Z</time></trkpt><trkpt lat="42.999675267332805" lon="11.450891554081416"><ele>349.0</ele><time>2026-03-22T13:21:42.99Z</time></trkpt><trkpt lat="42.99982684538744" lon="11.45086030240923"><ele>349.0</ele><time>2026-03-22T13:21:43.99Z</time></trkpt><trkpt lat="42.999987933710415" lon="11.450848542021468"><ele>349.0</ele><time>2026-03-22T13:21:44.99Z</time></trkpt><trkpt lat="43.00014994061109" lon="11.450834018829427"><ele>349.0</ele><time>2026-03-22T13:21:45.989Z</time></trkpt><trkpt lat="43.00029273960311" lon="11.450819033162684"><ele>349.0</ele><time>2026-03-22T13:21:46.989Z</time></trkpt><trkpt lat="43.00042143871719" lon="11.450804326642627"><ele>349.0</ele><time>2026-03-22T13:21:47.989Z</time></trkpt><trkpt lat="43.00052820122675" lon="11.450775051091902"><ele>349.0</ele><time>2026-03-22T13:21:48.989Z</time></trkpt><trkpt lat="43.00061344788887" lon="11.450708533378503"><ele>349.0</ele><time>2026-03-22T13:21:49.989Z</time></trkpt><trkpt lat="43.00067164682077" lon="11.45059749420503"><ele>349.0</ele><time>2026-03-22T13:21:50.989Z</time></trkpt><trkpt lat="43.00067798949917" lon="11.450460220104333"><ele>349.0</ele><time>2026-03-22T13:21:51.989Z</time></trkpt><trkpt lat="43.00063472985114" lon="11.450332118346532"><ele>349.0</ele><time>2026-03-22T13:21:52.989Z</time></trkpt><trkpt lat="43.00055343036779" lon="11.45025298781111"><ele>349.0</ele><time>2026-03-22T13:21:53.989Z</time></trkpt><trkpt lat="43.00044520359856" lon="11.450213192789876"><ele>345.0</ele><time>2026-03-22T13:21:54.989Z</time></trkpt><trkpt lat="43.000317954646526" lon="11.450209149752697"><ele>341.0</ele><time>2026-03-22T13:21:55.989Z</time></trkpt><trkpt lat="43.00017726913773" lon="11.45020087964825"><ele>337.0</ele><time>2026-03-22T13:21:56.989Z</time></trkpt><trkpt lat="43.00002399093506" lon="11.450162767561723"><ele>333.0</ele><time>2026-03-22T13:21:57.989Z</time></trkpt><trkpt lat="42.99986393447281" lon="11.450136130931515"><ele>333.0</ele><time>2026-03-22T13:21:58.989Z</time></trkpt><trkpt lat="42.999697002837635" lon="11.450113374229968"><ele>333.0</ele><time>2026-03-22T13:21:59.989Z</time></trkpt><trkpt lat="42.999523942949864" lon="11.450093023387891"><ele>333.0</ele><time>2026-03-22T13:22:00.989Z</time></trkpt><trkpt lat="42.999344683259075" lon="11.450068341449832"><ele>332.6666666666667</ele><time>2026-03-22T13:22:01.989Z</time></trkpt><trkpt lat="42.99916704464328" lon="11.450040516731555"><ele>332.33333333333337</ele><time>2026-03-22T13:22:02.989Z</time></trkpt><trkpt lat="42.99899280495155" lon="11.450021190235784"><ele>332.0</ele><time>2026-03-22T13:22:03.989Z</time></trkpt><trkpt lat="42.998813451094996" lon="11.450008591743545"><ele>332.0</ele><time>2026-03-22T13:22:04.989Z</time></trkpt><trkpt lat="42.99863585215513" lon="11.449995560771205"><ele>332.0</ele><time>2026-03-22T13:22:05.989Z</time></trkpt><trkpt lat="42.99845678580291" lon="11.449991946291007"><ele>332.0</ele><time>2026-03-22T13:22:06.989Z</time></trkpt><trkpt lat="42.998277118652226" lon="11.449991814521816"><ele>330.0</ele><time>2026-03-22T13:22:07.989Z</time></trkpt><trkpt lat="42.99809646366481" lon="11.450007761405141"><ele>328.0</ele><time>2026-03-22T13:22:08.989Z</time></trkpt><trkpt lat="42.99791336273562" lon="11.45003614234841"><ele>326.0</ele><time>2026-03-22T13:22:09.989Z</time></trkpt><trkpt lat="42.99772793144399" lon="11.450069210220672"><ele>326.0</ele><time>2026-03-22T13:22:10.989Z</time></trkpt><trkpt lat="42.99754876151115" lon="11.450075604269573"><ele>326.0</ele><time>2026-03-22T13:22:11.989Z</time></trkpt><trkpt lat="42.99737239450683" lon="11.450103032182115"><ele>326.0</ele><time>2026-03-22T13:22:12.989Z</time></trkpt><trkpt lat="42.99719806671175" lon="11.450131194379434"><ele>323.33333333333337</ele><time>2026-03-22T13:22:13.989Z</time></trkpt><trkpt lat="42.99702405977187" lon="11.450147447472695"><ele>320.6666666666667</ele><time>2026-03-22T13:22:14.989Z</time></trkpt><trkpt lat="42.996854750140834" lon="11.450132684813413"><ele>318.0</ele><time>2026-03-22T13:22:15.989Z</time></trkpt><trkpt lat="42.99668725484731" lon="11.450067003991572"><ele>316.0</ele><time>2026-03-22T13:22:16.989Z</time></trkpt><trkpt lat="42.99653680545729" lon="11.449958862868918"><ele>314.0</ele><time>2026-03-22T13:22:17.989Z</time></trkpt><trkpt lat="42.99640198537992" lon="11.449825609731477"><ele>312.0</ele><time>2026-03-22T13:22:18.989Z</time></trkpt><trkpt lat="42.996281081141575" lon="11.449678601205598"><ele>310.0</ele><time>2026-03-22T13:22:19.989Z</time></trkpt><trkpt lat="42.99617452946436" lon="11.449535039421713"><ele>308.0</ele><time>2026-03-22T13:22:20.989Z</time></trkpt><trkpt lat="42.99608706680837" lon="11.449391090850618"><ele>306.0</ele><time>2026-03-22T13:22:21.989Z</time></trkpt><trkpt lat="42.99602996492938" lon="11.449224754587974"><ele>304.0</ele><time>2026-03-22T13:22:22.989Z</time></trkpt><trkpt lat="42.9960011258475" lon="11.44904485610991"><ele>304.0</ele><time>2026-03-22T13:22:23.989Z</time></trkpt><trkpt lat="42.99601179896222" lon="11.44885771222037"><ele>304.0</ele><time>2026-03-22T13:22:24.989Z</time></trkpt><trkpt lat="42.9960551349452" lon="11.448669071281634"><ele>304.0</ele><time>2026-03-22T13:22:25.989Z</time></trkpt><trkpt lat="42.99612413600471" lon="11.448477926488223"><ele>304.0</ele><time>2026-03-22T13:22:26.989Z</time></trkpt><trkpt lat="42.996199597944525" lon="11.448282193721623"><ele>302.0</ele><time>2026-03-22T13:22:27.989Z</time></trkpt><trkpt lat="42.99627538644025" lon="11.448081045726155"><ele>300.0</ele><time>2026-03-22T13:22:28.989Z</time></trkpt><trkpt lat="42.99635376900302" lon="11.447883970147984"><ele>298.0</ele><time>2026-03-22T13:22:29.989Z</time></trkpt><trkpt lat="42.99642417851328" lon="11.4476735783952"><ele>294.66666666666663</ele><time>2026-03-22T13:22:30.989Z</time></trkpt><trkpt lat="42.99647515032633" lon="11.447448648778042"><ele>291.3333333333333</ele><time>2026-03-22T13:22:31.989Z</time></trkpt><trkpt lat="42.99649992278037" lon="11.447220803995323"><ele>288.0</ele><time>2026-03-22T13:22:32.989Z</time></trkpt><trkpt lat="42.99649925625448" lon="11.446986204416469"><ele>286.3333333333333</ele><time>2026-03-22T13:22:33.989Z</time></trkpt><trkpt lat="42.99648853971425" lon="11.446745831154091"><ele>284.66666666666663</ele><time>2026-03-22T13:22:34.989Z</time></trkpt><trkpt lat="42.99647397596374" lon="11.446501289410758"><ele>283.0</ele><time>2026-03-22T13:22:35.989Z</time></trkpt><trkpt lat="42.99646189675295" lon="11.446255629758484"><ele>281.66666666666663</ele><time>2026-03-22T13:22:36.989Z</time></trkpt><trkpt lat="42.9964549144505" lon="11.446015608722346"><ele>280.3333333333333</ele><time>2026-03-22T13:22:37.989Z</time></trkpt><trkpt lat="42.99644633829808" lon="11.445778992442278"><ele>279.0</ele><time>2026-03-22T13:22:38.989Z</time></trkpt><trkpt lat="42.996437303874515" lon="11.445540753224554"><ele>278.0</ele><time>2026-03-22T13:22:39.989Z</time></trkpt><trkpt lat="42.99642575067916" lon="11.44529690120566"><ele>277.0</ele><time>2026-03-22T13:22:40.989Z</time></trkpt><trkpt lat="42.99641478554449" lon="11.445050342729992"><ele>276.0</ele><time>2026-03-22T13:22:41.989Z</time></trkpt><trkpt lat="42.9964025525632" lon="11.444796522645175"><ele>274.3333333333333</ele><time>2026-03-22T13:22:42.989Z</time></trkpt><trkpt lat="42.99639083424199" lon="11.444540670877371"><ele>272.66666666666663</ele><time>2026-03-22T13:22:43.989Z</time></trkpt><trkpt lat="42.996379364067614" lon="11.444281394662116"><ele>271.0</ele><time>2026-03-22T13:22:44.989Z</time></trkpt><trkpt lat="42.996370577462784" lon="11.444029148643672"><ele>269.3333333333333</ele><time>2026-03-22T13:22:45.989Z</time></trkpt><trkpt lat="42.9963613138062" lon="11.443779525161819"><ele>267.6666666666667</ele><time>2026-03-22T13:22:46.989Z</time></trkpt><trkpt lat="42.99635193601027" lon="11.443535308416104"><ele>266.0</ele><time>2026-03-22T13:22:47.989Z</time></trkpt><trkpt lat="42.99634593548064" lon="11.443311387840124"><ele>266.0</ele><time>2026-03-22T13:22:48.989Z</time></trkpt><trkpt lat="42.99633661691894" lon="11.44310828710131"><ele>266.0</ele><time>2026-03-22T13:22:49.989Z</time></trkpt><trkpt lat="42.99631173322476" lon="11.442923270633555"><ele>266.0</ele><time>2026-03-22T13:22:50.989Z</time></trkpt><trkpt lat="42.99626624052371" lon="11.442754252210062"><ele>266.0</ele><time>2026-03-22T13:22:51.989Z</time></trkpt><trkpt lat="42.99619396803295" lon="11.442605795887156"><ele>265.5</ele><time>2026-03-22T13:22:52.989Z</time></trkpt><trkpt lat="42.99610438184168" lon="11.442470049595272"><ele>265.0</ele><time>2026-03-22T13:22:53.989Z</time></trkpt><trkpt lat="42.99599802884628" lon="11.44236423693263"><ele>264.5</ele><time>2026-03-22T13:22:54.989Z</time></trkpt><trkpt lat="42.99587605682098" lon="11.44229698944968"><ele>264.0</ele><time>2026-03-22T13:22:55.989Z</time></trkpt><trkpt lat="42.995747596095086" lon="11.442266182125232"><ele>264.0</ele><time>2026-03-22T13:22:56.989Z</time></trkpt><trkpt lat="42.9956115707212" lon="11.442267469243605"><ele>264.0</ele><time>2026-03-22T13:22:57.989Z</time></trkpt><trkpt lat="42.99547059936969" lon="11.442282406296348"><ele>264.0</ele><time>2026-03-22T13:22:58.989Z</time></trkpt><trkpt lat="42.995321489065276" lon="11.442295509448924"><ele>264.0</ele><time>2026-03-22T13:22:59.989Z</time></trkpt><trkpt lat="42.995178090437655" lon="11.442306634111514"><ele>264.0</ele><time>2026-03-22T13:23:00.989Z</time></trkpt><trkpt lat="42.99503321047589" lon="11.442316655955436"><ele>264.0</ele><time>2026-03-22T13:23:01.989Z</time></trkpt><trkpt lat="42.99488821310952" lon="11.442333850422399"><ele>264.0</ele><time>2026-03-22T13:23:02.989Z</time></trkpt><trkpt lat="42.9947414391087" lon="11.442347935151407"><ele>264.0</ele><time>2026-03-22T13:23:03.989Z</time></trkpt><trkpt lat="42.99459503605847" lon="11.442339428457382"><ele>262.25</ele><time>2026-03-22T13:23:04.989Z</time></trkpt><trkpt lat="42.99445302316979" lon="11.442350285422759"><ele>260.5</ele><time>2026-03-22T13:23:05.989Z</time></trkpt><trkpt lat="42.99430933559819" lon="11.44236251723038"><ele>258.75</ele><time>2026-03-22T13:23:06.989Z</time></trkpt><trkpt lat="42.99416688359234" lon="11.442373873220872"><ele>257.0</ele><time>2026-03-22T13:23:07.989Z</time></trkpt><trkpt lat="42.994020641202354" lon="11.442390274050839"><ele>256.0</ele><time>2026-03-22T13:23:08.989Z</time></trkpt><trkpt lat="42.99387476630937" lon="11.442359443761447"><ele>255.0</ele><time>2026-03-22T13:23:09.989Z</time></trkpt><trkpt lat="42.99373245311201" lon="11.442278749557731"><ele>254.0</ele><time>2026-03-22T13:23:10.989Z</time></trkpt><trkpt lat="42.99358765719924" lon="11.442198824140146"><ele>254.33333333333334</ele><time>2026-03-22T13:23:11.989Z</time></trkpt><trkpt lat="42.993441601133405" lon="11.442115271021626"><ele>254.66666666666669</ele><time>2026-03-22T13:23:12.989Z</time></trkpt><trkpt lat="42.993288841166724" lon="11.442025313479306"><ele>255.0</ele><time>2026-03-22T13:23:13.989Z</time></trkpt><trkpt lat="42.993124514701215" lon="11.441952078317478"><ele>253.66666666666669</ele><time>2026-03-22T13:23:14.989Z</time></trkpt><trkpt lat="42.99296446311932" lon="11.441857878950803"><ele>252.33333333333334</ele><time>2026-03-22T13:23:15.989Z</time></trkpt><trkpt lat="42.99281570058197" lon="11.441748978236026"><ele>251.0</ele><time>2026-03-22T13:23:16.989Z</time></trkpt><trkpt lat="42.992658033697424" lon="11.441654552276939"><ele>249.33333333333334</ele><time>2026-03-22T13:23:17.989Z</time></trkpt><trkpt lat="42.992503862535116" lon="11.441564613877153"><ele>247.66666666666669</ele><time>2026-03-22T13:23:18.989Z</time></trkpt><trkpt lat="42.992347774833505" lon="11.441476319304002"><ele>246.0</ele><time>2026-03-22T13:23:19.989Z</time></trkpt><trkpt lat="42.99218932564051" lon="11.44138287328033"><ele>246.33333333333331</ele><time>2026-03-22T13:23:20.989Z</time></trkpt><trkpt lat="42.992025751014445" lon="11.44128807088776"><ele>246.66666666666666</ele><time>2026-03-22T13:23:21.989Z</time></trkpt><trkpt lat="42.9918596156525" lon="11.4411944702876"><ele>247.0</ele><time>2026-03-22T13:23:22.988Z</time></trkpt><trkpt lat="42.99169402084301" lon="11.441099436448122"><ele>245.0</ele><time>2026-03-22T13:23:23.988Z</time></trkpt><trkpt lat="42.991528772263614" lon="11.441004104997893"><ele>243.0</ele><time>2026-03-22T13:23:24.988Z</time></trkpt><trkpt lat="42.991364521603444" lon="11.440909160672655"><ele>241.0</ele><time>2026-03-22T13:23:25.988Z</time></trkpt><trkpt lat="42.99120006430934" lon="11.440809364211301"><ele>241.0</ele><time>2026-03-22T13:23:26.988Z</time></trkpt><trkpt lat="42.99103431228894" lon="11.440706212007317"><ele>241.0</ele><time>2026-03-22T13:23:27.988Z</time></trkpt><trkpt lat="42.99087048246325" lon="11.44058454039051"><ele>241.0</ele><time>2026-03-22T13:23:28.988Z</time></trkpt><trkpt lat="42.99070909718244" lon="11.440449422770119"><ele>240.0</ele><time>2026-03-22T13:23:29.988Z</time></trkpt><trkpt lat="42.990552320793746" lon="11.440304399795146"><ele>239.0</ele><time>2026-03-22T13:23:30.988Z</time></trkpt><trkpt lat="42.990392258572115" lon="11.440164729931105"><ele>238.0</ele><time>2026-03-22T13:23:31.988Z</time></trkpt><trkpt lat="42.99023444035138" lon="11.440027472000455"><ele>238.0</ele><time>2026-03-22T13:23:32.988Z</time></trkpt><trkpt lat="42.99007632357369" lon="11.439889928714887"><ele>238.0</ele><time>2026-03-22T13:23:33.988Z</time></trkpt><trkpt lat="42.98992082809973" lon="11.439756508688058"><ele>238.0</ele><time>2026-03-22T13:23:34.988Z</time></trkpt><trkpt lat="42.98976588779337" lon="11.43962597338755"><ele>236.66666666666666</ele><time>2026-03-22T13:23:35.988Z</time></trkpt><trkpt lat="42.98961080153701" lon="11.439488045370943"><ele>235.33333333333331</ele><time>2026-03-22T13:23:36.988Z</time></trkpt><trkpt lat="42.98946190595554" lon="11.439354495402112"><ele>234.0</ele><time>2026-03-22T13:23:37.988Z</time></trkpt><trkpt lat="42.989310010002164" lon="11.439225651224177"><ele>232.33333333333331</ele><time>2026-03-22T13:23:38.988Z</time></trkpt><trkpt lat="42.989155453838315" lon="11.439108222879064"><ele>230.66666666666666</ele><time>2026-03-22T13:23:39.988Z</time></trkpt><trkpt lat="42.98899381856888" lon="11.439018527273484"><ele>229.0</ele><time>2026-03-22T13:23:40.988Z</time></trkpt><trkpt lat="42.98882635905383" lon="11.438973723300755"><ele>229.0</ele><time>2026-03-22T13:23:41.988Z</time></trkpt><trkpt lat="42.9886542784699" lon="11.438968954934504"><ele>229.0</ele><time>2026-03-22T13:23:42.988Z</time></trkpt><trkpt lat="42.98847718963614" lon="11.438982263271745"><ele>229.0</ele><time>2026-03-22T13:23:43.988Z</time></trkpt><trkpt lat="42.98829432026888" lon="11.438980397433006"><ele>227.33333333333331</ele><time>2026-03-22T13:23:44.988Z</time></trkpt><trkpt lat="42.98811973512551" lon="11.438999648606314"><ele>225.66666666666669</ele><time>2026-03-22T13:23:45.988Z</time></trkpt><trkpt lat="42.98794470959456" lon="11.43901894828905"><ele>224.0</ele><time>2026-03-22T13:23:46.988Z</time></trkpt><trkpt lat="42.98776941805757" lon="11.43903827738802"><ele>224.0</ele><time>2026-03-22T13:23:47.988Z</time></trkpt><trkpt lat="42.98759975345714" lon="11.439057126244409"><ele>224.0</ele><time>2026-03-22T13:23:48.988Z</time></trkpt><trkpt lat="42.9874327954737" lon="11.439075940252827"><ele>224.0</ele><time>2026-03-22T13:23:49.988Z</time></trkpt><trkpt lat="42.987264932847644" lon="11.439094805520522"><ele>223.33333333333334</ele><time>2026-03-22T13:23:50.988Z</time></trkpt><trkpt lat="42.98710487627546" lon="11.439130089316825"><ele>222.66666666666669</ele><time>2026-03-22T13:23:51.988Z</time></trkpt><trkpt lat="42.986946412671635" lon="11.439115955019016"><ele>222.0</ele><time>2026-03-22T13:23:52.988Z</time></trkpt><trkpt lat="42.986806196565794" lon="11.439044337873824"><ele>222.0</ele><time>2026-03-22T13:23:53.988Z</time></trkpt><trkpt lat="42.98668108226293" lon="11.43895436197958"><ele>222.0</ele><time>2026-03-22T13:23:54.988Z</time></trkpt><trkpt lat="42.98657778338122" lon="11.438833034658687"><ele>222.0</ele><time>2026-03-22T13:23:55.988Z</time></trkpt><trkpt lat="42.986493750784135" lon="11.438687782460981"><ele>222.0</ele><time>2026-03-22T13:23:56.988Z</time></trkpt><trkpt lat="42.98642633700093" lon="11.438509791138266"><ele>221.66666666666669</ele><time>2026-03-22T13:23:57.988Z</time></trkpt><trkpt lat="42.98636414173659" lon="11.438315632702045"><ele>221.33333333333334</ele><time>2026-03-22T13:23:58.988Z</time></trkpt><trkpt lat="42.986301870617375" lon="11.43809786423017"><ele>221.0</ele><time>2026-03-22T13:23:59.988Z</time></trkpt><trkpt lat="42.986230738532136" lon="11.43785311263468"><ele>221.0</ele><time>2026-03-22T13:24:00.988Z</time></trkpt><trkpt lat="42.986148355081625" lon="11.437570842852336"><ele>221.0</ele><time>2026-03-22T13:24:01.988Z</time></trkpt><trkpt lat="42.98605757712966" lon="11.437259811544315"><ele>221.0</ele><time>2026-03-22T13:24:02.988Z</time></trkpt><trkpt lat="42.98595097498702" lon="11.436945626113278"><ele>221.0</ele><time>2026-03-22T13:24:03.988Z</time></trkpt><trkpt lat="42.98586190088929" lon="11.436628090511372"><ele>214.5</ele><time>2026-03-22T13:24:04.988Z</time></trkpt><trkpt lat="42.98577196239382" lon="11.436314804541315"><ele>208.0</ele><time>2026-03-22T13:24:05.988Z</time></trkpt><trkpt lat="42.98568412198074" lon="11.43601170835485"><ele>207.0</ele><time>2026-03-22T13:24:06.988Z</time></trkpt><trkpt lat="42.98560219017952" lon="11.435717262118446"><ele>206.0</ele><time>2026-03-22T13:24:07.988Z</time></trkpt><trkpt lat="42.98551645192999" lon="11.435429069968702"><ele>206.0</ele><time>2026-03-22T13:24:08.988Z</time></trkpt><trkpt lat="42.98543450788713" lon="11.435153042143453"><ele>206.0</ele><time>2026-03-22T13:24:09.988Z</time></trkpt><trkpt lat="42.98534646553971" lon="11.434887419165063"><ele>206.0</ele><time>2026-03-22T13:24:10.988Z</time></trkpt><trkpt lat="42.98523964762605" lon="11.434654967487985"><ele>204.66666666666669</ele><time>2026-03-22T13:24:11.988Z</time></trkpt><trkpt lat="42.98511377784186" lon="11.434468638703112"><ele>203.33333333333331</ele><time>2026-03-22T13:24:12.988Z</time></trkpt><trkpt lat="42.98496845408877" lon="11.43431189051549"><ele>202.0</ele><time>2026-03-22T13:24:13.988Z</time></trkpt><trkpt lat="42.98479998717119" lon="11.434158411474007"><ele>199.66666666666666</ele><time>2026-03-22T13:24:14.988Z</time></trkpt><trkpt lat="42.984622098229785" lon="11.43400149374618"><ele>197.33333333333331</ele><time>2026-03-22T13:24:15.988Z</time></trkpt><trkpt lat="42.98443164142307" lon="11.433830190089534"><ele>195.0</ele><time>2026-03-22T13:24:16.988Z</time></trkpt><trkpt lat="42.98424952706105" lon="11.433634314478665"><ele>195.0</ele><time>2026-03-22T13:24:17.988Z</time></trkpt><trkpt lat="42.984056607307856" lon="11.433455992940774"><ele>195.0</ele><time>2026-03-22T13:24:18.988Z</time></trkpt><trkpt lat="42.98385394430338" lon="11.433301461525927"><ele>195.0</ele><time>2026-03-22T13:24:19.988Z</time></trkpt><trkpt lat="42.98363072332348" lon="11.4332142027358"><ele>195.0</ele><time>2026-03-22T13:24:20.988Z</time></trkpt><trkpt lat="42.98341761390015" lon="11.433098325828773"><ele>195.5</ele><time>2026-03-22T13:24:21.988Z</time></trkpt><trkpt lat="42.98320202634197" lon="11.433000285143812"><ele>196.0</ele><time>2026-03-22T13:24:22.988Z</time></trkpt><trkpt lat="42.982988659116884" lon="11.432903254105925"><ele>198.5</ele><time>2026-03-22T13:24:23.988Z</time></trkpt><trkpt lat="42.98277367854734" lon="11.43280548952799"><ele>201.0</ele><time>2026-03-22T13:24:24.988Z</time></trkpt><trkpt lat="42.98255936628696" lon="11.43270845849431"><ele>202.0</ele><time>2026-03-22T13:24:25.988Z</time></trkpt><trkpt lat="42.98234256683438" lon="11.432611055306298"><ele>203.0</ele><time>2026-03-22T13:24:26.988Z</time></trkpt><trkpt lat="42.982124932938504" lon="11.432513277190186"><ele>203.0</ele><time>2026-03-22T13:24:27.988Z</time></trkpt><trkpt lat="42.98190696010922" lon="11.432414544370044"><ele>203.0</ele><time>2026-03-22T13:24:28.988Z</time></trkpt><trkpt lat="42.981688566616256" lon="11.432314686977774"><ele>203.5</ele><time>2026-03-22T13:24:29.988Z</time></trkpt><trkpt lat="42.98146949173446" lon="11.432214517837004"><ele>204.0</ele><time>2026-03-22T13:24:30.988Z</time></trkpt><trkpt lat="42.981252183987245" lon="11.432115156882432"><ele>206.0</ele><time>2026-03-22T13:24:31.988Z</time></trkpt><trkpt lat="42.98103426269264" lon="11.43201551346477"><ele>208.0</ele><time>2026-03-22T13:24:32.988Z</time></trkpt><trkpt lat="42.98081528249265" lon="11.431915384968551"><ele>208.5</ele><time>2026-03-22T13:24:33.988Z</time></trkpt><trkpt lat="42.980597067953234" lon="11.431817290280147"><ele>209.0</ele><time>2026-03-22T13:24:34.988Z</time></trkpt><trkpt lat="42.98037133425796" lon="11.431747574967556"><ele>209.0</ele><time>2026-03-22T13:24:35.988Z</time></trkpt><trkpt lat="42.9801546928744" lon="11.431648541144291"><ele>209.0</ele><time>2026-03-22T13:24:36.988Z</time></trkpt><trkpt lat="42.97993674693805" lon="11.431548902010489"><ele>209.0</ele><time>2026-03-22T13:24:37.988Z</time></trkpt><trkpt lat="42.979721015892395" lon="11.431448265355389"><ele>209.0</ele><time>2026-03-22T13:24:38.988Z</time></trkpt><trkpt lat="42.9795063077437" lon="11.431349135028412"><ele>210.0</ele><time>2026-03-22T13:24:39.988Z</time></trkpt><trkpt lat="42.97929381605235" lon="11.4312526881758"><ele>211.0</ele><time>2026-03-22T13:24:40.988Z</time></trkpt><trkpt lat="42.9790830331509" lon="11.431159234107534"><ele>212.0</ele><time>2026-03-22T13:24:41.988Z</time></trkpt><trkpt lat="42.97887356999654" lon="11.431066498735474"><ele>211.66666666666669</ele><time>2026-03-22T13:24:42.988Z</time></trkpt><trkpt lat="42.97866783407657" lon="11.430973691449376"><ele>211.33333333333331</ele><time>2026-03-22T13:24:43.988Z</time></trkpt><trkpt lat="42.97847173460681" lon="11.430885481320145"><ele>211.0</ele><time>2026-03-22T13:24:44.988Z</time></trkpt><trkpt lat="42.978282395448076" lon="11.43080374101368"><ele>211.0</ele><time>2026-03-22T13:24:45.988Z</time></trkpt><trkpt lat="42.97809239788335" lon="11.430719338681886"><ele>211.0</ele><time>2026-03-22T13:24:46.988Z</time></trkpt><trkpt lat="42.97789980209406" lon="11.430636338385458"><ele>211.0</ele><time>2026-03-22T13:24:47.988Z</time></trkpt><trkpt lat="42.97770596628134" lon="11.430552254195204"><ele>210.33333333333331</ele><time>2026-03-22T13:24:48.988Z</time></trkpt><trkpt lat="42.9775094303692" lon="11.430479010395649"><ele>209.66666666666669</ele><time>2026-03-22T13:24:49.988Z</time></trkpt><trkpt lat="42.977304514394646" lon="11.43044338602718"><ele>209.0</ele><time>2026-03-22T13:24:50.988Z</time></trkpt><trkpt lat="42.977095033378966" lon="11.430446516599023"><ele>208.33333333333334</ele><time>2026-03-22T13:24:51.988Z</time></trkpt><trkpt lat="42.97688693334042" lon="11.430481388431085"><ele>207.66666666666669</ele><time>2026-03-22T13:24:52.988Z</time></trkpt><trkpt lat="42.97668616258963" lon="11.430562727610123"><ele>207.0</ele><time>2026-03-22T13:24:53.988Z</time></trkpt><trkpt lat="42.97648220514373" lon="11.430679469080577"><ele>204.5</ele><time>2026-03-22T13:24:54.988Z</time></trkpt><trkpt lat="42.97628904627863" lon="11.43083178792727"><ele>202.0</ele><time>2026-03-22T13:24:55.988Z</time></trkpt><trkpt lat="42.97609351677088" lon="11.431001150419814"><ele>202.0</ele><time>2026-03-22T13:24:56.988Z</time></trkpt><trkpt lat="42.97588733992095" lon="11.4311657210172"><ele>202.0</ele><time>2026-03-22T13:24:57.988Z</time></trkpt><trkpt lat="42.97568534711262" lon="11.43129979526164"><ele>200.66666666666666</ele><time>2026-03-22T13:24:58.988Z</time></trkpt><trkpt lat="42.97549870882227" lon="11.43142061260954"><ele>199.33333333333331</ele><time>2026-03-22T13:24:59.988Z</time></trkpt><trkpt lat="42.9753130061436" lon="11.43153366309635"><ele>198.0</ele><time>2026-03-22T13:25:00.987Z</time></trkpt><trkpt lat="42.97514716541134" lon="11.431662139966189"><ele>197.66666666666669</ele><time>2026-03-22T13:25:01.987Z</time></trkpt><trkpt lat="42.97501602152021" lon="11.431822472719677"><ele>197.33333333333334</ele><time>2026-03-22T13:25:02.987Z</time></trkpt><trkpt lat="42.974925826867036" lon="11.432038282642445"><ele>197.0</ele><time>2026-03-22T13:25:03.987Z</time></trkpt><trkpt lat="42.97487358537173" lon="11.432296907127714"><ele>197.0</ele><time>2026-03-22T13:25:04.987Z</time></trkpt><trkpt lat="42.974807872916664" lon="11.43251848438032"><ele>197.0</ele><time>2026-03-22T13:25:05.987Z</time></trkpt><trkpt lat="42.97473755124254" lon="11.432682208193794"><ele>197.0</ele><time>2026-03-22T13:25:06.987Z</time></trkpt><trkpt lat="42.97464549500121" lon="11.432788710143072"><ele>197.0</ele><time>2026-03-22T13:25:07.987Z</time></trkpt><trkpt lat="42.974492694972206" lon="11.432847780755782"><ele>197.0</ele><time>2026-03-22T13:25:08.987Z</time></trkpt><trkpt lat="42.97433637955865" lon="11.432922115004171"><ele>197.0</ele><time>2026-03-22T13:25:09.987Z</time></trkpt><trkpt lat="42.97416831648712" lon="11.433006861110334"><ele>197.0</ele><time>2026-03-22T13:25:10.987Z</time></trkpt><trkpt lat="42.97401026601606" lon="11.433173691143306"><ele>195.66666666666669</ele><time>2026-03-22T13:25:11.987Z</time></trkpt><trkpt lat="42.973874228293795" lon="11.433418030443946"><ele>194.33333333333331</ele><time>2026-03-22T13:25:12.987Z</time></trkpt><trkpt lat="42.97372343889291" lon="11.433597295736732"><ele>193.0</ele><time>2026-03-22T13:25:13.987Z</time></trkpt><trkpt lat="42.973557824900816" lon="11.433747118262634"><ele>190.33333333333331</ele><time>2026-03-22T13:25:14.987Z</time></trkpt><trkpt lat="42.97338986773507" lon="11.433898244429956"><ele>187.66666666666666</ele><time>2026-03-22T13:25:15.987Z</time></trkpt><trkpt lat="42.973219204542566" lon="11.434057042296722"><ele>185.0</ele><time>2026-03-22T13:25:16.987Z</time></trkpt><trkpt lat="42.973044754548546" lon="11.434205833852994"><ele>185.0</ele><time>2026-03-22T13:25:17.987Z</time></trkpt><trkpt lat="42.97288628936863" lon="11.434347076146041"><ele>185.0</ele><time>2026-03-22T13:25:18.987Z</time></trkpt><trkpt lat="42.972732513158284" lon="11.43448016700136"><ele>185.0</ele><time>2026-03-22T13:25:19.987Z</time></trkpt><trkpt lat="42.97257974857143" lon="11.434597812951333"><ele>182.33333333333331</ele><time>2026-03-22T13:25:20.987Z</time></trkpt><trkpt lat="42.97241875176037" lon="11.434686410330647"><ele>179.66666666666666</ele><time>2026-03-22T13:25:22.012Z</time></trkpt><trkpt lat="42.9722502416794" lon="11.434729668714967"><ele>177.0</ele><time>2026-03-22T13:25:23.012Z</time></trkpt><trkpt lat="42.972073084131274" lon="11.43472954835443"><ele>177.0</ele><time>2026-03-22T13:25:24.012Z</time></trkpt><trkpt lat="42.971882772524985" lon="11.434715229084974"><ele>177.0</ele><time>2026-03-22T13:25:25.012Z</time></trkpt><trkpt lat="42.971691863390234" lon="11.434701730764187"><ele>177.0</ele><time>2026-03-22T13:25:26.012Z</time></trkpt><trkpt lat="42.97150356994762" lon="11.434678174404942"><ele>182.33333333333331</ele><time>2026-03-22T13:25:27.012Z</time></trkpt><trkpt lat="42.971316192290416" lon="11.43463154074782"><ele>187.66666666666666</ele><time>2026-03-22T13:25:28.012Z</time></trkpt><trkpt lat="42.97113323438931" lon="11.434558276166634"><ele>193.0</ele><time>2026-03-22T13:25:29.012Z</time></trkpt><trkpt lat="42.970950290602126" lon="11.434479604880192"><ele>190.0</ele><time>2026-03-22T13:25:30.012Z</time></trkpt><trkpt lat="42.97075681894164" lon="11.434423961999006"><ele>187.0</ele><time>2026-03-22T13:25:31.012Z</time></trkpt><trkpt lat="42.97056336270023" lon="11.434401376445324"><ele>184.0</ele><time>2026-03-22T13:25:32.012Z</time></trkpt><trkpt lat="42.97037619411598" lon="11.434416762203963"><ele>184.0</ele><time>2026-03-22T13:25:33.012Z</time></trkpt><trkpt lat="42.97020034881043" lon="11.434429408560566"><ele>184.0</ele><time>2026-03-22T13:25:34.012Z</time></trkpt><trkpt lat="42.97004524289009" lon="11.434421162710821"><ele>184.0</ele><time>2026-03-22T13:25:35.012Z</time></trkpt><trkpt lat="42.969909381386856" lon="11.43437111459856"><ele>182.0</ele><time>2026-03-22T13:25:36.012Z</time></trkpt><trkpt lat="42.969791865661065" lon="11.434263919778038"><ele>180.0</ele><time>2026-03-22T13:25:37.012Z</time></trkpt><trkpt lat="42.96970352922783" lon="11.434113154383894"><ele>178.0</ele><time>2026-03-22T13:25:38.012Z</time></trkpt><trkpt lat="42.96963295919068" lon="11.433934765611534"><ele>176.0</ele><time>2026-03-22T13:25:39.012Z</time></trkpt><trkpt lat="42.969558859492295" lon="11.433730768776082"><ele>176.0</ele><time>2026-03-22T13:25:40.012Z</time></trkpt><trkpt lat="42.96947399588364" lon="11.433531529771017"><ele>176.0</ele><time>2026-03-22T13:25:41.012Z</time></trkpt><trkpt lat="42.969368760971584" lon="11.433348633939678"><ele>176.0</ele><time>2026-03-22T13:25:42.012Z</time></trkpt><trkpt lat="42.96924420295303" lon="11.433179941973627"><ele>169.66666666666666</ele><time>2026-03-22T13:25:43.012Z</time></trkpt><trkpt lat="42.96910342674413" lon="11.433028001486747"><ele>163.33333333333334</ele><time>2026-03-22T13:25:44.012Z</time></trkpt><trkpt lat="42.96895454207993" lon="11.432871712197699"><ele>157.0</ele><time>2026-03-22T13:25:45.012Z</time></trkpt><trkpt lat="42.968807951916205" lon="11.432711356866555"><ele>157.0</ele><time>2026-03-22T13:25:46.012Z</time></trkpt><trkpt lat="42.96867232201331" lon="11.432551787758591"><ele>157.0</ele><time>2026-03-22T13:25:47.012Z</time></trkpt><trkpt lat="42.96856525317205" lon="11.432379625464906"><ele>157.0</ele><time>2026-03-22T13:25:48.012Z</time></trkpt><trkpt lat="42.96849582671235" lon="11.432181488201152"><ele>157.0</ele><time>2026-03-22T13:25:49.012Z</time></trkpt><trkpt lat="42.96846451159326" lon="11.431963597695917"><ele>157.0</ele><time>2026-03-22T13:25:50.012Z</time></trkpt><trkpt lat="42.96846629242551" lon="11.431729370272967"><ele>157.0</ele><time>2026-03-22T13:25:51.012Z</time></trkpt><trkpt lat="42.968477481875844" lon="11.431485825578514"><ele>156.33333333333334</ele><time>2026-03-22T13:25:52.012Z</time></trkpt><trkpt lat="42.96850310291208" lon="11.431230149798896"><ele>155.66666666666666</ele><time>2026-03-22T13:25:53.012Z</time></trkpt><trkpt lat="42.96852856554589" lon="11.430966239458241"><ele>155.0</ele><time>2026-03-22T13:25:54.012Z</time></trkpt><trkpt lat="42.96855448423309" lon="11.430701302078644"><ele>153.0</ele><time>2026-03-22T13:25:55.012Z</time></trkpt><trkpt lat="42.968576320860315" lon="11.430445658352491"><ele>151.0</ele><time>2026-03-22T13:25:56.012Z</time></trkpt><trkpt lat="42.96858975784665" lon="11.430200261333702"><ele>149.0</ele><time>2026-03-22T13:25:57.012Z</time></trkpt><trkpt lat="42.96858164380073" lon="11.429985468658874"><ele>149.0</ele><time>2026-03-22T13:25:58.012Z</time></trkpt><trkpt lat="42.96854569432367" lon="11.429789118102502"><ele>149.0</ele><time>2026-03-22T13:25:59.012Z</time></trkpt><trkpt lat="42.96846668599531" lon="11.429628773786668"><ele>149.0</ele><time>2026-03-22T13:26:00.012Z</time></trkpt><trkpt lat="42.968364948479554" lon="11.429517708632343"><ele>149.0</ele><time>2026-03-22T13:26:01.012Z</time></trkpt><trkpt lat="42.96827184511765" lon="11.429434754512139"><ele>147.66666666666666</ele><time>2026-03-22T13:26:02.012Z</time></trkpt><trkpt lat="42.96819642004559" lon="11.429380665123308"><ele>146.33333333333331</ele><time>2026-03-22T13:26:03.012Z</time></trkpt><trkpt lat="42.9681090415642" lon="11.42931282821576"><ele>145.0</ele><time>2026-03-22T13:26:05.012Z</time></trkpt><trkpt lat="42.96803336567185" lon="11.42923647416799"><ele>143.66666666666666</ele><time>2026-03-22T13:28:03.013Z</time></trkpt><trkpt lat="42.96796255486502" lon="11.429194763966311"><ele>142.33333333333334</ele><time>2026-03-22T13:28:04.013Z</time></trkpt><trkpt lat="42.967913313253135" lon="11.429091919839552"><ele>141.0</ele><time>2026-03-22T13:28:05.013Z</time></trkpt><trkpt lat="42.96784541614368" lon="11.428986825156011"><ele>141.0</ele><time>2026-03-22T13:28:06.013Z</time></trkpt><trkpt lat="42.967800705334156" lon="11.428841663248367"><ele>141.0</ele><time>2026-03-22T13:28:07.013Z</time></trkpt><trkpt lat="42.967767442437015" lon="11.428673757138434"><ele>141.0</ele><time>2026-03-22T13:28:08.013Z</time></trkpt><trkpt lat="42.967745101961235" lon="11.428485903995696"><ele>141.0</ele><time>2026-03-22T13:28:09.013Z</time></trkpt><trkpt lat="42.9677240346828" lon="11.428287564976698"><ele>140.75</ele><time>2026-03-22T13:28:10.013Z</time></trkpt><trkpt lat="42.96770189019835" lon="11.428096876209738"><ele>140.5</ele><time>2026-03-22T13:28:11.013Z</time></trkpt><trkpt lat="42.96767529595168" lon="11.427902534065677"><ele>140.25</ele><time>2026-03-22T13:28:12.015Z</time></trkpt><trkpt lat="42.96764278212152" lon="11.427708587847098"><ele>140.0</ele><time>2026-03-22T13:28:13.016Z</time></trkpt><trkpt lat="42.967610363042205" lon="11.427516593925748"><ele>140.0</ele><time>2026-03-22T13:28:14.016Z</time></trkpt><trkpt lat="42.96757594873524" lon="11.427329522611332"><ele>140.0</ele><time>2026-03-22T13:28:15.015Z</time></trkpt><trkpt lat="42.96753003571988" lon="11.427148435277735"><ele>140.0</ele><time>2026-03-22T13:28:16.016Z</time></trkpt><trkpt lat="42.967463597931214" lon="11.4269674370068"><ele>140.0</ele><time>2026-03-22T13:28:17.016Z</time></trkpt><trkpt lat="42.96737711015756" lon="11.426802451662565"><ele>133.0</ele><time>2026-03-22T13:28:18.016Z</time></trkpt><trkpt lat="42.967267973505045" lon="11.426655245110231"><ele>126.0</ele><time>2026-03-22T13:28:19.016Z</time></trkpt><trkpt lat="42.967148196354294" lon="11.426527074202573"><ele>119.0</ele><time>2026-03-22T13:28:20.016Z</time></trkpt><trkpt lat="42.967009499762824" lon="11.42642684278152"><ele>119.0</ele><time>2026-03-22T13:28:21.016Z</time></trkpt><trkpt lat="42.9668634220295" lon="11.42635887267081"><ele>119.0</ele><time>2026-03-22T13:28:22.016Z</time></trkpt><trkpt lat="42.96672007544282" lon="11.426286815728755"><ele>119.0</ele><time>2026-03-22T13:28:23.016Z</time></trkpt><trkpt lat="42.966572433757726" lon="11.426271481062132"><ele>117.5</ele><time>2026-03-22T13:28:24.016Z</time></trkpt><trkpt lat="42.966427303460904" lon="11.426238401515532"><ele>116.0</ele><time>2026-03-22T13:28:25.016Z</time></trkpt><trkpt lat="42.966286480246815" lon="11.426188324855366"><ele>114.5</ele><time>2026-03-22T13:28:26.016Z</time></trkpt><trkpt lat="42.96614103384006" lon="11.426160506424965"><ele>113.0</ele><time>2026-03-22T13:28:27.016Z</time></trkpt><trkpt lat="42.965995767010334" lon="11.426129357540244"><ele>111.66666666666666</ele><time>2026-03-22T13:28:28.016Z</time></trkpt><trkpt lat="42.96584677739393" lon="11.426095345493732"><ele>110.33333333333334</ele><time>2026-03-22T13:28:29.016Z</time></trkpt><trkpt lat="42.965698319927114" lon="11.426059294961174"><ele>109.0</ele><time>2026-03-22T13:28:30.016Z</time></trkpt><trkpt lat="42.96555297498416" lon="11.426023497392196"><ele>109.0</ele><time>2026-03-22T13:28:31.016Z</time></trkpt><trkpt lat="42.965412625434574" lon="11.42599005182364"><ele>109.0</ele><time>2026-03-22T13:28:32.016Z</time></trkpt><trkpt lat="42.965276490736905" lon="11.425957247845114"><ele>109.0</ele><time>2026-03-22T13:28:33.016Z</time></trkpt><trkpt lat="42.9651429386672" lon="11.425927727876221"><ele>109.0</ele><time>2026-03-22T13:28:34.016Z</time></trkpt><trkpt lat="42.96501566636735" lon="11.425892944318111"><ele>108.0</ele><time>2026-03-22T13:28:35.016Z</time></trkpt><trkpt lat="42.96490816740169" lon="11.425870567004129"><ele>107.0</ele><time>2026-03-22T13:28:36.016Z</time></trkpt><trkpt lat="42.964812122005725" lon="11.425854253107303"><ele>106.0</ele><time>2026-03-22T13:28:37.016Z</time></trkpt><trkpt lat="42.96470857797386" lon="11.425835851698437"><ele>105.0</ele><time>2026-03-22T13:28:38.016Z</time></trkpt><trkpt lat="42.964588575671954" lon="11.425811712204293"><ele>104.0</ele><time>2026-03-22T13:28:39.016Z</time></trkpt><trkpt lat="42.964459696785966" lon="11.42575999731537"><ele>104.0</ele><time>2026-03-22T13:28:40.016Z</time></trkpt><trkpt lat="42.96433188658449" lon="11.425732761242463"><ele>104.0</ele><time>2026-03-22T13:28:41.016Z</time></trkpt><trkpt lat="42.964209633389935" lon="11.425718464773817"><ele>104.0</ele><time>2026-03-22T13:28:42.016Z</time></trkpt><trkpt lat="42.96408374231466" lon="11.42570957061703"><ele>104.0</ele><time>2026-03-22T13:28:43.016Z</time></trkpt><trkpt lat="42.963952522359186" lon="11.42570317607609"><ele>103.75</ele><time>2026-03-22T13:28:44.016Z</time></trkpt><trkpt lat="42.96382679565652" lon="11.425697694105626"><ele>103.5</ele><time>2026-03-22T13:28:45.016Z</time></trkpt><trkpt lat="42.96370684543839" lon="11.425693425469486"><ele>103.25</ele><time>2026-03-22T13:28:46.016Z</time></trkpt><trkpt lat="42.963588118418556" lon="11.425689362051473"><ele>103.0</ele><time>2026-03-22T13:28:47.016Z</time></trkpt><trkpt lat="42.96346850124008" lon="11.425685268166786"><ele>102.75</ele><time>2026-03-22T13:28:48.016Z</time></trkpt><trkpt lat="42.96334723533682" lon="11.425681117855019"><ele>102.5</ele><time>2026-03-22T13:28:49.016Z</time></trkpt><trkpt lat="42.963221951624476" lon="11.425676830034048"><ele>102.25</ele><time>2026-03-22T13:28:50.016Z</time></trkpt><trkpt lat="42.963093345764214" lon="11.425695043495962"><ele>102.0</ele><time>2026-03-22T13:28:51.016Z</time></trkpt><trkpt lat="42.96296764784708" lon="11.425683465057945"><ele>102.0</ele><time>2026-03-22T13:28:52.016Z</time></trkpt><trkpt lat="42.96283633457301" lon="11.42568132782921"><ele>102.0</ele><time>2026-03-22T13:28:53.016Z</time></trkpt><trkpt lat="42.962702018673966" lon="11.425678340387218"><ele>102.0</ele><time>2026-03-22T13:28:54.016Z</time></trkpt><trkpt lat="42.96256594579706" lon="11.42567406242257"><ele>102.0</ele><time>2026-03-22T13:28:55.016Z</time></trkpt><trkpt lat="42.96242977369808" lon="11.425666390004363"><ele>101.5</ele><time>2026-03-22T13:28:56.016Z</time></trkpt><trkpt lat="42.96229230336117" lon="11.425660727805456"><ele>101.0</ele><time>2026-03-22T13:28:57.016Z</time></trkpt><trkpt lat="42.96215030516579" lon="11.425662359726644"><ele>100.5</ele><time>2026-03-22T13:28:58.016Z</time></trkpt><trkpt lat="42.96200027423416" lon="11.425659833015365"><ele>100.0</ele><time>2026-03-22T13:28:59.016Z</time></trkpt><trkpt lat="42.961843454595844" lon="11.425655544564414"><ele>100.33333333333334</ele><time>2026-03-22T13:29:00.016Z</time></trkpt><trkpt lat="42.96168147910418" lon="11.425651823609181"><ele>100.66666666666666</ele><time>2026-03-22T13:29:01.016Z</time></trkpt><trkpt lat="42.96151323112186" lon="11.425646344754597"><ele>101.0</ele><time>2026-03-22T13:29:02.016Z</time></trkpt><trkpt lat="42.96133934818869" lon="11.425609296167465"><ele>101.0</ele><time>2026-03-22T13:29:03.016Z</time></trkpt><trkpt lat="42.96116409150211" lon="11.425603132248375"><ele>101.0</ele><time>2026-03-22T13:29:04.016Z</time></trkpt><trkpt lat="42.96099343929245" lon="11.425597130270264"><ele>101.0</ele><time>2026-03-22T13:29:05.016Z</time></trkpt><trkpt lat="42.960815683524764" lon="11.425590878454779"><ele>101.0</ele><time>2026-03-22T13:29:06.016Z</time></trkpt><trkpt lat="42.960649039125535" lon="11.425585017439253"><ele>101.0</ele><time>2026-03-22T13:29:07.016Z</time></trkpt><trkpt lat="42.96046502190267" lon="11.425578963930377"><ele>101.0</ele><time>2026-03-22T13:29:08.016Z</time></trkpt><trkpt lat="42.96028899224437" lon="11.425573377265541"><ele>101.0</ele><time>2026-03-22T13:29:09.016Z</time></trkpt><trkpt lat="42.960110132725056" lon="11.425567700787614"><ele>101.0</ele><time>2026-03-22T13:29:10.016Z</time></trkpt><trkpt lat="42.95993178944001" lon="11.425562040696512"><ele>101.0</ele><time>2026-03-22T13:29:11.016Z</time></trkpt><trkpt lat="42.95974962154545" lon="11.425556261012282"><ele>101.33333333333333</ele><time>2026-03-22T13:29:12.015Z</time></trkpt><trkpt lat="42.95957013494819" lon="11.425550302024622"><ele>101.66666666666666</ele><time>2026-03-22T13:29:13.015Z</time></trkpt><trkpt lat="42.9593922313846" lon="11.425544300241242"><ele>102.0</ele><time>2026-03-22T13:29:14.015Z</time></trkpt><trkpt lat="42.9592195755333" lon="11.425538475495358"><ele>102.0</ele><time>2026-03-22T13:29:15.015Z</time></trkpt><trkpt lat="42.959055029092575" lon="11.42553225113158"><ele>102.0</ele><time>2026-03-22T13:29:16.015Z</time></trkpt><trkpt lat="42.958890182514175" lon="11.425525229728084"><ele>102.0</ele><time>2026-03-22T13:29:17.015Z</time></trkpt><trkpt lat="42.958722117824024" lon="11.42551853945405"><ele>102.0</ele><time>2026-03-22T13:29:18.015Z</time></trkpt><trkpt lat="42.95854960799238" lon="11.425513886406637"><ele>102.0</ele><time>2026-03-22T13:29:19.015Z</time></trkpt><trkpt lat="42.95837248002854" lon="11.42550893973811"><ele>102.0</ele><time>2026-03-22T13:29:20.015Z</time></trkpt><trkpt lat="42.95819548253181" lon="11.425503942263372"><ele>103.66666666666666</ele><time>2026-03-22T13:29:21.015Z</time></trkpt><trkpt lat="42.958022961140806" lon="11.425499140811537"><ele>105.33333333333333</ele><time>2026-03-22T13:29:22.015Z</time></trkpt><trkpt lat="42.95785842968127" lon="11.425494561729819"><ele>107.0</ele><time>2026-03-22T13:29:23.015Z</time></trkpt><trkpt lat="42.95770398923868" lon="11.425490263482988"><ele>107.0</ele><time>2026-03-22T13:29:24.015Z</time></trkpt><trkpt lat="42.9575584618775" lon="11.425487627255077"><ele>107.0</ele><time>2026-03-22T13:29:25.015Z</time></trkpt><trkpt lat="42.957415881007094" lon="11.425489058880563"><ele>107.0</ele><time>2026-03-22T13:29:26.015Z</time></trkpt><trkpt lat="42.95727041603508" lon="11.425497385024531"><ele>107.0</ele><time>2026-03-22T13:29:27.015Z</time></trkpt><trkpt lat="42.95712926136507" lon="11.42551961443111"><ele>109.66666666666666</ele><time>2026-03-22T13:29:28.015Z</time></trkpt><trkpt lat="42.95697488267426" lon="11.425557510258733"><ele>112.33333333333334</ele><time>2026-03-22T13:29:29.015Z</time></trkpt><trkpt lat="42.95682300123747" lon="11.425609501448335"><ele>115.0</ele><time>2026-03-22T13:29:30.015Z</time></trkpt><trkpt lat="42.95665767170163" lon="11.425677295821385"><ele>117.0</ele><time>2026-03-22T13:29:31.015Z</time></trkpt><trkpt lat="42.95649848550238" lon="11.425753992161054"><ele>119.0</ele><time>2026-03-22T13:29:32.015Z</time></trkpt><trkpt lat="42.95633978519626" lon="11.425833211368424"><ele>121.0</ele><time>2026-03-22T13:29:33.015Z</time></trkpt><trkpt lat="42.956182246505186" lon="11.425904145861074"><ele>121.0</ele><time>2026-03-22T13:29:34.015Z</time></trkpt><trkpt lat="42.95601669415393" lon="11.425957275724132"><ele>121.0</ele><time>2026-03-22T13:29:35.015Z</time></trkpt><trkpt lat="42.955847360545945" lon="11.425998341878577"><ele>121.0</ele><time>2026-03-22T13:29:36.015Z</time></trkpt><trkpt lat="42.955674177736306" lon="11.42602067063331"><ele>123.33333333333334</ele><time>2026-03-22T13:29:37.015Z</time></trkpt><trkpt lat="42.95550171374252" lon="11.426035127515334"><ele>125.66666666666666</ele><time>2026-03-22T13:29:38.015Z</time></trkpt><trkpt lat="42.955335794690335" lon="11.426021016475357"><ele>128.0</ele><time>2026-03-22T13:29:39.015Z</time></trkpt><trkpt lat="42.955185699569064" lon="11.425976134474093"><ele>128.0</ele><time>2026-03-22T13:29:40.015Z</time></trkpt><trkpt lat="42.95505747392679" lon="11.425906626028363"><ele>128.0</ele><time>2026-03-22T13:29:41.015Z</time></trkpt><trkpt lat="42.95494872516573" lon="11.425825362983774"><ele>128.0</ele><time>2026-03-22T13:29:42.015Z</time></trkpt><trkpt lat="42.954850692178425" lon="11.425734499251622"><ele>128.0</ele><time>2026-03-22T13:29:43.015Z</time></trkpt><trkpt lat="42.95474839978221" lon="11.425661737877686"><ele>129.0</ele><time>2026-03-22T13:29:44.015Z</time></trkpt><trkpt lat="42.95463695322309" lon="11.425556268546048"><ele>130.0</ele><time>2026-03-22T13:29:45.015Z</time></trkpt><trkpt lat="42.954509045573" lon="11.42544743990314"><ele>131.0</ele><time>2026-03-22T13:29:46.015Z</time></trkpt><trkpt lat="42.95439109429599" lon="11.42532567219954"><ele>132.0</ele><time>2026-03-22T13:29:47.015Z</time></trkpt><trkpt lat="42.9542588221937" lon="11.425234140820365"><ele>133.66666666666666</ele><time>2026-03-22T13:29:48.015Z</time></trkpt><trkpt lat="42.954113220093916" lon="11.425171999374406"><ele>135.33333333333331</ele><time>2026-03-22T13:29:49.015Z</time></trkpt><trkpt lat="42.95396203164728" lon="11.425142942038683"><ele>137.0</ele><time>2026-03-22T13:29:50.015Z</time></trkpt><trkpt lat="42.95381599158853" lon="11.425136436068033"><ele>137.0</ele><time>2026-03-22T13:29:51.015Z</time></trkpt><trkpt lat="42.95367215007229" lon="11.425164541170266"><ele>137.0</ele><time>2026-03-22T13:29:52.015Z</time></trkpt><trkpt lat="42.953539619581484" lon="11.425145177431506"><ele>137.0</ele><time>2026-03-22T13:29:53.015Z</time></trkpt><trkpt lat="42.953421143876284" lon="11.425111395406528"><ele>137.0</ele><time>2026-03-22T13:29:54.015Z</time></trkpt><trkpt lat="42.95331233530295" lon="11.425047646719584"><ele>138.25</ele><time>2026-03-22T13:29:55.015Z</time></trkpt><trkpt lat="42.953222604779775" lon="11.424948564599426"><ele>139.5</ele><time>2026-03-22T13:29:56.015Z</time></trkpt><trkpt lat="42.95315134763395" lon="11.42482070286615"><ele>140.75</ele><time>2026-03-22T13:29:57.015Z</time></trkpt><trkpt lat="42.953103268333415" lon="11.424671594001365"><ele>142.0</ele><time>2026-03-22T13:29:58.015Z</time></trkpt><trkpt lat="42.95308092979176" lon="11.424504039449605"><ele>142.0</ele><time>2026-03-22T13:29:59.015Z</time></trkpt><trkpt lat="42.95308861005759" lon="11.424331215840988"><ele>142.0</ele><time>2026-03-22T13:30:00.015Z</time></trkpt><trkpt lat="42.95309209728171" lon="11.424171756962648"><ele>142.0</ele><time>2026-03-22T13:30:01.015Z</time></trkpt><trkpt lat="42.95308957243014" lon="11.424009171981368"><ele>142.0</ele><time>2026-03-22T13:30:02.015Z</time></trkpt><trkpt lat="42.953199110270766" lon="11.42382724156444"><ele>142.33333333333334</ele><time>2026-03-22T13:30:03.015Z</time></trkpt><trkpt lat="42.95324464841826" lon="11.423635503237945"><ele>142.66666666666666</ele><time>2026-03-22T13:30:04.015Z</time></trkpt><trkpt lat="42.9532890335535" lon="11.423428466342436"><ele>143.0</ele><time>2026-03-22T13:30:05.015Z</time></trkpt><trkpt lat="42.95333667784774" lon="11.423213812504763"><ele>142.33333333333331</ele><time>2026-03-22T13:30:06.015Z</time></trkpt><trkpt lat="42.95338508569381" lon="11.422989321817276"><ele>141.66666666666666</ele><time>2026-03-22T13:30:07.015Z</time></trkpt><trkpt lat="42.95343236265705" lon="11.422761320013288"><ele>141.0</ele><time>2026-03-22T13:30:08.015Z</time></trkpt><trkpt lat="42.95347841835072" lon="11.422528230916882"><ele>140.33333333333334</ele><time>2026-03-22T13:30:09.015Z</time></trkpt><trkpt lat="42.95352498169314" lon="11.422292492499441"><ele>139.66666666666669</ele><time>2026-03-22T13:30:10.015Z</time></trkpt><trkpt lat="42.95357241787187" lon="11.422051419979969"><ele>139.0</ele><time>2026-03-22T13:30:11.015Z</time></trkpt><trkpt lat="42.95362296405953" lon="11.421806221591359"><ele>138.66666666666669</ele><time>2026-03-22T13:30:12.015Z</time></trkpt><trkpt lat="42.95367320460361" lon="11.421557849242761"><ele>138.33333333333334</ele><time>2026-03-22T13:30:13.015Z</time></trkpt><trkpt lat="42.953724181591596" lon="11.421304060685603"><ele>138.0</ele><time>2026-03-22T13:30:14.015Z</time></trkpt><trkpt lat="42.95377343953039" lon="11.421050209791835"><ele>137.33333333333334</ele><time>2026-03-22T13:30:15.015Z</time></trkpt><trkpt lat="42.953824272956105" lon="11.420789799693598"><ele>136.66666666666669</ele><time>2026-03-22T13:30:16.015Z</time></trkpt><trkpt lat="42.953872637650335" lon="11.42053136654568"><ele>136.0</ele><time>2026-03-22T13:30:17.015Z</time></trkpt><trkpt lat="42.953924511710966" lon="11.420268995899061"><ele>134.66666666666669</ele><time>2026-03-22T13:30:18.017Z</time></trkpt><trkpt lat="42.953978427953295" lon="11.420001902389187"><ele>133.33333333333334</ele><time>2026-03-22T13:30:19.018Z</time></trkpt><trkpt lat="42.95403317145757" lon="11.419731181045934"><ele>132.0</ele><time>2026-03-22T13:30:20.018Z</time></trkpt><trkpt lat="42.95408751625563" lon="11.419456575998673"><ele>131.0</ele><time>2026-03-22T13:30:21.017Z</time></trkpt><trkpt lat="42.95414292987855" lon="11.419183065475597"><ele>130.0</ele><time>2026-03-22T13:30:22.017Z</time></trkpt><trkpt lat="42.95419712564088" lon="11.418903711252682"><ele>129.0</ele><time>2026-03-22T13:30:23.017Z</time></trkpt><trkpt lat="42.95425227067608" lon="11.418628994442855"><ele>128.0</ele><time>2026-03-22T13:30:24.017Z</time></trkpt><trkpt lat="42.954309189563766" lon="11.418355971370726"><ele>127.0</ele><time>2026-03-22T13:30:25.017Z</time></trkpt><trkpt lat="42.954365154394" lon="11.418082075479525"><ele>126.0</ele><time>2026-03-22T13:30:26.017Z</time></trkpt><trkpt lat="42.954420858337" lon="11.417810159489326"><ele>125.66666666666666</ele><time>2026-03-22T13:30:27.017Z</time></trkpt><trkpt lat="42.954475966563514" lon="11.417534686593878"><ele>125.33333333333333</ele><time>2026-03-22T13:30:28.017Z</time></trkpt><trkpt lat="42.95453156145956" lon="11.417262707850101"><ele>125.0</ele><time>2026-03-22T13:30:29.017Z</time></trkpt><trkpt lat="42.95458776157107" lon="11.416989913345681"><ele>124.33333333333333</ele><time>2026-03-22T13:30:30.017Z</time></trkpt><trkpt lat="42.95464104998435" lon="11.4167174473292"><ele>123.66666666666666</ele><time>2026-03-22T13:30:31.017Z</time></trkpt><trkpt lat="42.954692755084324" lon="11.416449721387492"><ele>123.0</ele><time>2026-03-22T13:30:32.017Z</time></trkpt><trkpt lat="42.95474665534691" lon="11.416186167948602"><ele>122.33333333333334</ele><time>2026-03-22T13:30:33.017Z</time></trkpt><trkpt lat="42.9548005940808" lon="11.415926925048161"><ele>121.66666666666667</ele><time>2026-03-22T13:30:34.017Z</time></trkpt><trkpt lat="42.95485453936432" lon="11.415671979793617"><ele>121.0</ele><time>2026-03-22T13:30:35.017Z</time></trkpt><trkpt lat="42.954908290975496" lon="11.415422456197259"><ele>121.0</ele><time>2026-03-22T13:30:36.017Z</time></trkpt><trkpt lat="42.954959075748725" lon="11.415169761358971"><ele>121.0</ele><time>2026-03-22T13:30:37.017Z</time></trkpt><trkpt lat="42.95500867412028" lon="11.414910121819059"><ele>121.0</ele><time>2026-03-22T13:30:38.017Z</time></trkpt><trkpt lat="42.95505803353597" lon="11.414656340824699"><ele>119.0</ele><time>2026-03-22T13:30:39.017Z</time></trkpt><trkpt lat="42.95510846100797" lon="11.41440130410463"><ele>117.0</ele><time>2026-03-22T13:30:40.017Z</time></trkpt><trkpt lat="42.95515829544607" lon="11.414144263721264"><ele>115.0</ele><time>2026-03-22T13:30:41.017Z</time></trkpt><trkpt lat="42.955210252336386" lon="11.41388495636675"><ele>114.66666666666667</ele><time>2026-03-22T13:30:42.017Z</time></trkpt><trkpt lat="42.95526161742546" lon="11.413623250020127"><ele>114.33333333333334</ele><time>2026-03-22T13:30:43.017Z</time></trkpt><trkpt lat="42.95531486175495" lon="11.413358013208887"><ele>114.0</ele><time>2026-03-22T13:30:44.017Z</time></trkpt><trkpt lat="42.955369701225315" lon="11.413089887744654"><ele>113.66666666666666</ele><time>2026-03-22T13:30:45.017Z</time></trkpt><trkpt lat="42.95542509033498" lon="11.41281688566367"><ele>113.33333333333333</ele><time>2026-03-22T13:30:46.017Z</time></trkpt><trkpt lat="42.95548049753209" lon="11.412540685533727"><ele>113.0</ele><time>2026-03-22T13:30:47.017Z</time></trkpt><trkpt lat="42.955531808844626" lon="11.412258982622287"><ele>114.0</ele><time>2026-03-22T13:30:48.017Z</time></trkpt><trkpt lat="42.955581808024576" lon="11.41197437009738"><ele>115.0</ele><time>2026-03-22T13:30:49.017Z</time></trkpt><trkpt lat="42.95563424368499" lon="11.411691765272044"><ele>116.0</ele><time>2026-03-22T13:30:50.017Z</time></trkpt><trkpt lat="42.95568611635859" lon="11.411406999665932"><ele>116.33333333333333</ele><time>2026-03-22T13:30:51.017Z</time></trkpt><trkpt lat="42.9557390989166" lon="11.411127115838358"><ele>116.66666666666666</ele><time>2026-03-22T13:30:52.017Z</time></trkpt><trkpt lat="42.95579892051873" lon="11.410846254602129"><ele>117.0</ele><time>2026-03-22T13:30:53.017Z</time></trkpt><trkpt lat="42.955858742723414" lon="11.41056762228745"><ele>115.0</ele><time>2026-03-22T13:30:54.017Z</time></trkpt><trkpt lat="42.955918600396714" lon="11.410292011565545"><ele>113.0</ele><time>2026-03-22T13:30:55.017Z</time></trkpt><trkpt lat="42.95597950189473" lon="11.410012036490256"><ele>111.0</ele><time>2026-03-22T13:30:56.017Z</time></trkpt><trkpt lat="42.95603975701585" lon="11.409732515860732"><ele>111.0</ele><time>2026-03-22T13:30:57.017Z</time></trkpt><trkpt lat="42.95609539346615" lon="11.409449499314904"><ele>111.0</ele><time>2026-03-22T13:30:58.017Z</time></trkpt><trkpt lat="42.95615332512933" lon="11.409166356525185"><ele>111.0</ele><time>2026-03-22T13:30:59.016Z</time></trkpt><trkpt lat="42.95621057873963" lon="11.408884411338327"><ele>112.0</ele><time>2026-03-22T13:31:00.016Z</time></trkpt><trkpt lat="42.95626801250249" lon="11.40860217868801"><ele>113.0</ele><time>2026-03-22T13:31:01.016Z</time></trkpt><trkpt lat="42.95632752616742" lon="11.408317077507851"><ele>114.0</ele><time>2026-03-22T13:31:02.016Z</time></trkpt><trkpt lat="42.95638633008674" lon="11.408031320005948"><ele>113.66666666666666</ele><time>2026-03-22T13:31:03.016Z</time></trkpt><trkpt lat="42.95644382088668" lon="11.407749825435555"><ele>113.33333333333333</ele><time>2026-03-22T13:31:04.016Z</time></trkpt><trkpt lat="42.95650155581843" lon="11.407467477328506"><ele>113.0</ele><time>2026-03-22T13:31:05.016Z</time></trkpt><trkpt lat="42.95655266849022" lon="11.407191370035259"><ele>112.33333333333333</ele><time>2026-03-22T13:31:06.016Z</time></trkpt><trkpt lat="42.95660070620085" lon="11.406922677789117"><ele>111.66666666666666</ele><time>2026-03-22T13:31:07.016Z</time></trkpt><trkpt lat="42.956652708924786" lon="11.406653311348858"><ele>111.0</ele><time>2026-03-22T13:31:08.016Z</time></trkpt><trkpt lat="42.956709462222584" lon="11.406382628154777"><ele>110.0</ele><time>2026-03-22T13:31:09.016Z</time></trkpt><trkpt lat="42.95677667634278" lon="11.406113820659005"><ele>109.0</ele><time>2026-03-22T13:31:10.016Z</time></trkpt><trkpt lat="42.95684766453942" lon="11.405849619772976"><ele>108.0</ele><time>2026-03-22T13:31:11.016Z</time></trkpt><trkpt lat="42.95692273808093" lon="11.405583405656797"><ele>107.66666666666666</ele><time>2026-03-22T13:31:12.016Z</time></trkpt><trkpt lat="42.95700262072673" lon="11.405314507829187"><ele>107.33333333333333</ele><time>2026-03-22T13:31:13.016Z</time></trkpt><trkpt lat="42.95707067801904" lon="11.405049981152791"><ele>107.0</ele><time>2026-03-22T13:31:14.016Z</time></trkpt><trkpt lat="42.95714532903781" lon="11.404768148188424"><ele>105.0</ele><time>2026-03-22T13:31:15.016Z</time></trkpt><trkpt lat="42.95721545167289" lon="11.40449327550884"><ele>103.0</ele><time>2026-03-22T13:31:16.016Z</time></trkpt><trkpt lat="42.95728162820997" lon="11.404213679330367"><ele>101.0</ele><time>2026-03-22T13:31:17.016Z</time></trkpt><trkpt lat="42.9573301347819" lon="11.40391148534755"><ele>99.33333333333333</ele><time>2026-03-22T13:31:18.016Z</time></trkpt><trkpt lat="42.95739814570822" lon="11.403631556190978"><ele>97.66666666666666</ele><time>2026-03-22T13:31:19.016Z</time></trkpt><trkpt lat="42.95745179356793" lon="11.403354051557086"><ele>96.0</ele><time>2026-03-22T13:31:20.016Z</time></trkpt><trkpt lat="42.95740150021569" lon="11.4030105250918"><ele>95.5</ele><time>2026-03-22T13:31:21.016Z</time></trkpt><trkpt lat="42.95743153125799" lon="11.402687637953795"><ele>95.0</ele><time>2026-03-22T13:31:22.016Z</time></trkpt><trkpt lat="42.95747469506632" lon="11.402345415147048"><ele>94.0</ele><time>2026-03-22T13:31:23.016Z</time></trkpt><trkpt lat="42.95752435554177" lon="11.401990087853452"><ele>93.0</ele><time>2026-03-22T13:31:24.016Z</time></trkpt><trkpt lat="42.95756780224072" lon="11.401630317481473"><ele>92.0</ele><time>2026-03-22T13:31:25.016Z</time></trkpt><trkpt lat="42.95759833931375" lon="11.40126721755061"><ele>91.0</ele><time>2026-03-22T13:31:26.016Z</time></trkpt><trkpt lat="42.95762216386137" lon="11.400921448244029"><ele>91.0</ele><time>2026-03-22T13:31:27.016Z</time></trkpt><trkpt lat="42.95765201419849" lon="11.400580165589872"><ele>91.0</ele><time>2026-03-22T13:31:28.016Z</time></trkpt><trkpt lat="42.957660448757416" lon="11.400243113443567"><ele>91.5</ele><time>2026-03-22T13:31:29.016Z</time></trkpt><trkpt lat="42.957662474686174" lon="11.399913166102607"><ele>92.0</ele><time>2026-03-22T13:31:30.016Z</time></trkpt><trkpt lat="42.95763312558856" lon="11.399607311538468"><ele>92.0</ele><time>2026-03-22T13:31:31.016Z</time></trkpt><trkpt lat="42.957577124204136" lon="11.399350886926735"><ele>92.0</ele><time>2026-03-22T13:31:32.016Z</time></trkpt><trkpt lat="42.95748936864217" lon="11.399083656554112"><ele>92.0</ele><time>2026-03-22T13:31:33.016Z</time></trkpt><trkpt lat="42.95743281938241" lon="11.398788879345396"><ele>95.0</ele><time>2026-03-22T13:31:34.016Z</time></trkpt><trkpt lat="42.957395913238756" lon="11.398481980826864"><ele>98.0</ele><time>2026-03-22T13:31:35.016Z</time></trkpt><trkpt lat="42.95736503809246" lon="11.398183633517364"><ele>101.0</ele><time>2026-03-22T13:31:36.016Z</time></trkpt><trkpt lat="42.9573373366218" lon="11.397890745045276"><ele>101.66666666666666</ele><time>2026-03-22T13:31:37.016Z</time></trkpt><trkpt lat="42.957320292084624" lon="11.397596241781768"><ele>102.33333333333334</ele><time>2026-03-22T13:31:38.016Z</time></trkpt><trkpt lat="42.957314622630356" lon="11.397318265927288"><ele>103.0</ele><time>2026-03-22T13:31:39.016Z</time></trkpt><trkpt lat="42.95732355415702" lon="11.397036684258204"><ele>104.0</ele><time>2026-03-22T13:31:40.016Z</time></trkpt><trkpt lat="42.95734200559591" lon="11.396754255232208"><ele>105.0</ele><time>2026-03-22T13:31:41.016Z</time></trkpt><trkpt lat="42.95735946192782" lon="11.396483506110167"><ele>106.0</ele><time>2026-03-22T13:31:42.016Z</time></trkpt><trkpt lat="42.95737927345194" lon="11.396210309867401"><ele>106.66666666666667</ele><time>2026-03-22T13:31:43.016Z</time></trkpt><trkpt lat="42.957399696867874" lon="11.395944782479402"><ele>107.33333333333334</ele><time>2026-03-22T13:31:44.016Z</time></trkpt><trkpt lat="42.95741534101054" lon="11.395697674959305"><ele>108.0</ele><time>2026-03-22T13:31:45.016Z</time></trkpt><trkpt lat="42.957421267175285" lon="11.395446765331133"><ele>108.33333333333334</ele><time>2026-03-22T13:31:46.016Z</time></trkpt><trkpt lat="42.957438210942534" lon="11.395184648384387"><ele>108.66666666666667</ele><time>2026-03-22T13:31:47.016Z</time></trkpt><trkpt lat="42.957440558943155" lon="11.394914656803717"><ele>109.0</ele><time>2026-03-22T13:31:48.016Z</time></trkpt><trkpt lat="42.95745048769441" lon="11.394661485900858"><ele>109.0</ele><time>2026-03-22T13:31:49.016Z</time></trkpt><trkpt lat="42.95745500640819" lon="11.394397749998106"><ele>109.0</ele><time>2026-03-22T13:31:50.016Z</time></trkpt><trkpt lat="42.95746818418681" lon="11.394126754646393"><ele>109.0</ele><time>2026-03-22T13:31:51.016Z</time></trkpt><trkpt lat="42.95748340596324" lon="11.393824280387664"><ele>109.0</ele><time>2026-03-22T13:31:52.016Z</time></trkpt><trkpt lat="42.95750920508207" lon="11.393500552466813"><ele>109.0</ele><time>2026-03-22T13:31:53.016Z</time></trkpt><trkpt lat="42.95759456833915" lon="11.393106071293104"><ele>108.0</ele><time>2026-03-22T13:31:54.016Z</time></trkpt><trkpt lat="42.95763304775428" lon="11.392790781037435"><ele>107.0</ele><time>2026-03-22T13:31:55.016Z</time></trkpt><trkpt lat="42.95766046600108" lon="11.392504987420514"><ele>106.0</ele><time>2026-03-22T13:31:56.016Z</time></trkpt><trkpt lat="42.957684258372296" lon="11.392241122778856"><ele>106.33333333333334</ele><time>2026-03-22T13:31:57.016Z</time></trkpt><trkpt lat="42.95771475566617" lon="11.391979163857382"><ele>106.66666666666666</ele><time>2026-03-22T13:31:58.016Z</time></trkpt><trkpt lat="42.95774279092233" lon="11.391720557544684"><ele>107.0</ele><time>2026-03-22T13:31:59.016Z</time></trkpt><trkpt lat="42.95776790843519" lon="11.391457209799874"><ele>106.33333333333333</ele><time>2026-03-22T13:32:00.016Z</time></trkpt><trkpt lat="42.95779089503905" lon="11.391199996354747"><ele>105.66666666666666</ele><time>2026-03-22T13:32:01.016Z</time></trkpt><trkpt lat="42.957811901346766" lon="11.390948645999508"><ele>105.0</ele><time>2026-03-22T13:32:02.016Z</time></trkpt><trkpt lat="42.957836208022016" lon="11.390706091375767"><ele>105.33333333333334</ele><time>2026-03-22T13:32:03.016Z</time></trkpt><trkpt lat="42.95785979638468" lon="11.390468248627569"><ele>105.66666666666667</ele><time>2026-03-22T13:32:04.016Z</time></trkpt><trkpt lat="42.95788334202811" lon="11.390232276909419"><ele>106.0</ele><time>2026-03-22T13:32:05.016Z</time></trkpt><trkpt lat="42.957904698857305" lon="11.389997340731757"><ele>106.0</ele><time>2026-03-22T13:32:06.016Z</time></trkpt><trkpt lat="42.95791599222788" lon="11.389774145923372"><ele>106.0</ele><time>2026-03-22T13:32:07.016Z</time></trkpt><trkpt lat="42.9579160184574" lon="11.389575701627042"><ele>106.0</ele><time>2026-03-22T13:32:08.016Z</time></trkpt><trkpt lat="42.95790638359255" lon="11.389375638784603"><ele>105.66666666666667</ele><time>2026-03-22T13:32:09.016Z</time></trkpt><trkpt lat="42.95788531389376" lon="11.389164532247214"><ele>105.33333333333334</ele><time>2026-03-22T13:32:10.016Z</time></trkpt><trkpt lat="42.95785732330044" lon="11.388941653202208"><ele>105.0</ele><time>2026-03-22T13:32:11.016Z</time></trkpt><trkpt lat="42.957831320446225" lon="11.388715481924558"><ele>103.66666666666666</ele><time>2026-03-22T13:32:12.016Z</time></trkpt><trkpt lat="42.95780868649887" lon="11.388495317430719"><ele>102.33333333333333</ele><time>2026-03-22T13:32:13.016Z</time></trkpt><trkpt lat="42.957786031798726" lon="11.388283816590295"><ele>101.0</ele><time>2026-03-22T13:32:14.016Z</time></trkpt><trkpt lat="42.95776422029561" lon="11.388075775781774"><ele>100.25</ele><time>2026-03-22T13:32:15.016Z</time></trkpt><trkpt lat="42.957743945938894" lon="11.387873048596248"><ele>99.5</ele><time>2026-03-22T13:32:16.016Z</time></trkpt><trkpt lat="42.95772179661193" lon="11.38767425080772"><ele>98.75</ele><time>2026-03-22T13:32:17.016Z</time></trkpt><trkpt lat="42.95770096945454" lon="11.387481659907552"><ele>98.0</ele><time>2026-03-22T13:32:18.016Z</time></trkpt><trkpt lat="42.957678556677344" lon="11.38730034256175"><ele>98.5</ele><time>2026-03-22T13:32:19.016Z</time></trkpt><trkpt lat="42.95765776104828" lon="11.38711729440231"><ele>99.0</ele><time>2026-03-22T13:32:20.016Z</time></trkpt><trkpt lat="42.9576410849512" lon="11.386950147870726"><ele>99.5</ele><time>2026-03-22T13:32:21.016Z</time></trkpt><trkpt lat="42.95762742600468" lon="11.386793679147265"><ele>100.0</ele><time>2026-03-22T13:32:22.016Z</time></trkpt><trkpt lat="42.957612557492034" lon="11.386645246451778"><ele>100.0</ele><time>2026-03-22T13:32:23.016Z</time></trkpt><trkpt lat="42.95759865429459" lon="11.386503530036666"><ele>100.0</ele><time>2026-03-22T13:32:24.019Z</time></trkpt><trkpt lat="42.95758569890493" lon="11.386362609259171"><ele>100.0</ele><time>2026-03-22T13:32:25.019Z</time></trkpt><trkpt lat="42.957570590781785" lon="11.386223566612705"><ele>100.0</ele><time>2026-03-22T13:32:26.019Z</time></trkpt><trkpt lat="42.95755630193389" lon="11.386090247590086"><ele>100.0</ele><time>2026-03-22T13:32:27.019Z</time></trkpt><trkpt lat="42.95754382201031" lon="11.385966769124162"><ele>101.00000000000001</ele><time>2026-03-22T13:32:28.019Z</time></trkpt><trkpt lat="42.957531940254796" lon="11.38584867459855"><ele>102.0</ele><time>2026-03-22T13:32:29.019Z</time></trkpt><trkpt lat="42.95751724929222" lon="11.38572564815329"><ele>103.0</ele><time>2026-03-22T13:32:30.019Z</time></trkpt><trkpt lat="42.95750991821025" lon="11.385621866075642"><ele>104.0</ele><time>2026-03-22T13:32:31.019Z</time></trkpt><trkpt lat="42.957506248671194" lon="11.385524549347059"><ele>105.00000000000001</ele><time>2026-03-22T13:32:32.019Z</time></trkpt><trkpt lat="42.95751321315575" lon="11.385434802445326"><ele>106.0</ele><time>2026-03-22T13:32:33.019Z</time></trkpt><trkpt lat="42.95753346910673" lon="11.3853504735114"><ele>106.00000000000001</ele><time>2026-03-22T13:32:34.019Z</time></trkpt><trkpt lat="42.95756186718283" lon="11.385269581034125"><ele>106.0</ele><time>2026-03-22T13:32:35.019Z</time></trkpt><trkpt lat="42.95758205090071" lon="11.385158686987596"><ele>106.0</ele><time>2026-03-22T13:32:36.019Z</time></trkpt><trkpt lat="42.957588466864166" lon="11.385045859973673"><ele>106.0</ele><time>2026-03-22T13:32:37.019Z</time></trkpt><trkpt lat="42.95755591783847" lon="11.38492554265666"><ele>106.00000000000001</ele><time>2026-03-22T13:32:38.019Z</time></trkpt><trkpt lat="42.95748923049973" lon="11.384803827322425"><ele>106.0</ele><time>2026-03-22T13:32:39.019Z</time></trkpt><trkpt lat="42.957430015348045" lon="11.384680119364237"><ele>105.75</ele><time>2026-03-22T13:32:40.019Z</time></trkpt><trkpt lat="42.95738742934023" lon="11.384531556330389"><ele>105.5</ele><time>2026-03-22T13:32:41.019Z</time></trkpt><trkpt lat="42.95737363006263" lon="11.384344882531096"><ele>105.25</ele><time>2026-03-22T13:32:42.019Z</time></trkpt><trkpt lat="42.95735366582379" lon="11.384141310551922"><ele>105.0</ele><time>2026-03-22T13:32:43.019Z</time></trkpt><trkpt lat="42.95732918301573" lon="11.383925393231225"><ele>105.0</ele><time>2026-03-22T13:32:44.019Z</time></trkpt><trkpt lat="42.95729655861411" lon="11.383701817062413"><ele>105.0</ele><time>2026-03-22T13:32:45.019Z</time></trkpt><trkpt lat="42.95724854159634" lon="11.38348367123426"><ele>105.0</ele><time>2026-03-22T13:32:46.019Z</time></trkpt><trkpt lat="42.957224811452505" lon="11.383245941519949"><ele>104.66666666666666</ele><time>2026-03-22T13:32:47.019Z</time></trkpt><trkpt lat="42.95720356998539" lon="11.38299074306399"><ele>104.33333333333333</ele><time>2026-03-22T13:32:48.019Z</time></trkpt><trkpt lat="42.95718701647818" lon="11.382721816251145"><ele>104.0</ele><time>2026-03-22T13:32:49.019Z</time></trkpt><trkpt lat="42.95716521815114" lon="11.38244098174512"><ele>103.33333333333333</ele><time>2026-03-22T13:32:50.019Z</time></trkpt><trkpt lat="42.95714007902408" lon="11.38215468049892"><ele>102.66666666666666</ele><time>2026-03-22T13:32:51.019Z</time></trkpt><trkpt lat="42.95710920415508" lon="11.38186259571173"><ele>102.0</ele><time>2026-03-22T13:32:52.019Z</time></trkpt><trkpt lat="42.95707374732998" lon="11.381569230961071"><ele>101.5</ele><time>2026-03-22T13:32:53.019Z</time></trkpt><trkpt lat="42.95703171848686" lon="11.381267953886141"><ele>101.0</ele><time>2026-03-22T13:32:54.019Z</time></trkpt><trkpt lat="42.95698678643229" lon="11.380964837925724"><ele>101.0</ele><time>2026-03-22T13:32:55.019Z</time></trkpt><trkpt lat="42.956966645904345" lon="11.380660612244903"><ele>101.0</ele><time>2026-03-22T13:32:56.019Z</time></trkpt><trkpt lat="42.95693434041848" lon="11.380360554718365"><ele>101.0</ele><time>2026-03-22T13:32:57.019Z</time></trkpt><trkpt lat="42.9568909330027" lon="11.380071405082619"><ele>101.0</ele><time>2026-03-22T13:32:58.019Z</time></trkpt><trkpt lat="42.95686720911025" lon="11.379775125748397"><ele>101.0</ele><time>2026-03-22T13:32:59.019Z</time></trkpt><trkpt lat="42.95683962428933" lon="11.379480793593602"><ele>101.0</ele><time>2026-03-22T13:33:00.019Z</time></trkpt><trkpt lat="42.956806041244164" lon="11.379190605919051"><ele>101.0</ele><time>2026-03-22T13:33:01.019Z</time></trkpt><trkpt lat="42.95677425781114" lon="11.378901762324183"><ele>101.0</ele><time>2026-03-22T13:33:02.019Z</time></trkpt><trkpt lat="42.95673826916317" lon="11.378605610029053"><ele>101.0</ele><time>2026-03-22T13:33:03.019Z</time></trkpt><trkpt lat="42.95670578043528" lon="11.37830760737838"><ele>100.33333333333333</ele><time>2026-03-22T13:33:04.019Z</time></trkpt><trkpt lat="42.95667083592564" lon="11.378007696893766"><ele>99.66666666666666</ele><time>2026-03-22T13:33:05.019Z</time></trkpt><trkpt lat="42.956634081333114" lon="11.377706468613178"><ele>99.0</ele><time>2026-03-22T13:33:06.019Z</time></trkpt><trkpt lat="42.956603626316095" lon="11.377401714012475"><ele>99.0</ele><time>2026-03-22T13:33:07.019Z</time></trkpt><trkpt lat="42.95657165101826" lon="11.377095635548732"><ele>99.0</ele><time>2026-03-22T13:33:08.019Z</time></trkpt><trkpt lat="42.956540129179864" lon="11.376793225025128"><ele>99.0</ele><time>2026-03-22T13:33:09.019Z</time></trkpt><trkpt lat="42.956506142332564" lon="11.376487701206457"><ele>99.0</ele><time>2026-03-22T13:33:10.019Z</time></trkpt><trkpt lat="42.95647228060155" lon="11.376183775281861"><ele>101.0</ele><time>2026-03-22T13:33:11.019Z</time></trkpt><trkpt lat="42.956437299655036" lon="11.375878653494821"><ele>103.0</ele><time>2026-03-22T13:33:12.019Z</time></trkpt><trkpt lat="42.956404806013914" lon="11.37557111351279"><ele>103.0</ele><time>2026-03-22T13:33:13.019Z</time></trkpt><trkpt lat="42.95637822332036" lon="11.375262160269749"><ele>103.0</ele><time>2026-03-22T13:33:14.019Z</time></trkpt><trkpt lat="42.95635224230486" lon="11.374949520607261"><ele>101.5</ele><time>2026-03-22T13:33:15.019Z</time></trkpt><trkpt lat="42.95632946045602" lon="11.374638247857424"><ele>100.0</ele><time>2026-03-22T13:33:16.019Z</time></trkpt><trkpt lat="42.956315108679576" lon="11.374325857357363"><ele>100.0</ele><time>2026-03-22T13:33:17.019Z</time></trkpt><trkpt lat="42.95630433075177" lon="11.37401449719227"><ele>100.0</ele><time>2026-03-22T13:33:18.019Z</time></trkpt><trkpt lat="42.956297252005655" lon="11.373702863503393"><ele>99.0</ele><time>2026-03-22T13:33:19.019Z</time></trkpt><trkpt lat="42.95629415853024" lon="11.373394890533172"><ele>98.0</ele><time>2026-03-22T13:33:20.019Z</time></trkpt><trkpt lat="42.956288824028064" lon="11.373083843572422"><ele>98.5</ele><time>2026-03-22T13:33:21.019Z</time></trkpt><trkpt lat="42.956283796708036" lon="11.372767263064532"><ele>99.0</ele><time>2026-03-22T13:33:22.019Z</time></trkpt><trkpt lat="42.9562759362732" lon="11.372451514110399"><ele>98.5</ele><time>2026-03-22T13:33:23.019Z</time></trkpt><trkpt lat="42.95626915607192" lon="11.372134803965308"><ele>98.0</ele><time>2026-03-22T13:33:24.019Z</time></trkpt><trkpt lat="42.956261866795224" lon="11.371821785028498"><ele>98.0</ele><time>2026-03-22T13:33:25.019Z</time></trkpt><trkpt lat="42.95625627093185" lon="11.371506964646064"><ele>98.0</ele><time>2026-03-22T13:33:26.019Z</time></trkpt><trkpt lat="42.95625048867689" lon="11.371189323742621"><ele>98.0</ele><time>2026-03-22T13:33:27.019Z</time></trkpt><trkpt lat="42.956242930965566" lon="11.370868050722956"><ele>98.0</ele><time>2026-03-22T13:33:28.019Z</time></trkpt><trkpt lat="42.95623671103445" lon="11.370548341146934"><ele>97.5</ele><time>2026-03-22T13:33:29.019Z</time></trkpt><trkpt lat="42.95623091313453" lon="11.37022799106211"><ele>97.0</ele><time>2026-03-22T13:33:30.019Z</time></trkpt><trkpt lat="42.956224417993255" lon="11.369907673010472"><ele>97.5</ele><time>2026-03-22T13:33:31.019Z</time></trkpt><trkpt lat="42.95621697726811" lon="11.369590489682443"><ele>98.0</ele><time>2026-03-22T13:33:32.019Z</time></trkpt><trkpt lat="42.95620952889461" lon="11.369273521707957"><ele>98.0</ele><time>2026-03-22T13:33:33.019Z</time></trkpt><trkpt lat="42.95620244109482" lon="11.368955873406444"><ele>98.0</ele><time>2026-03-22T13:33:34.019Z</time></trkpt><trkpt lat="42.95619922125161" lon="11.368640601877566"><ele>98.0</ele><time>2026-03-22T13:33:35.019Z</time></trkpt><trkpt lat="42.95619352550909" lon="11.36832191203529"><ele>98.0</ele><time>2026-03-22T13:33:36.019Z</time></trkpt><trkpt lat="42.9561872506537" lon="11.36800501451821"><ele>97.0</ele><time>2026-03-22T13:33:37.019Z</time></trkpt><trkpt lat="42.956181809996636" lon="11.36769456501902"><ele>96.0</ele><time>2026-03-22T13:33:38.018Z</time></trkpt><trkpt lat="42.956174139433735" lon="11.3673838507336"><ele>95.5</ele><time>2026-03-22T13:33:39.018Z</time></trkpt><trkpt lat="42.956167094158495" lon="11.367073366725858"><ele>95.0</ele><time>2026-03-22T13:33:40.018Z</time></trkpt><trkpt lat="42.95615893463811" lon="11.366765766176874"><ele>95.0</ele><time>2026-03-22T13:33:41.018Z</time></trkpt><trkpt lat="42.956152070047615" lon="11.36646097900063"><ele>95.0</ele><time>2026-03-22T13:33:42.018Z</time></trkpt><trkpt lat="42.95614436839157" lon="11.366153605570835"><ele>95.0</ele><time>2026-03-22T13:33:43.018Z</time></trkpt><trkpt lat="42.95613903288418" lon="11.365850412725603"><ele>94.66666666666667</ele><time>2026-03-22T13:33:44.018Z</time></trkpt><trkpt lat="42.95613501332409" lon="11.365546845826564"><ele>94.33333333333333</ele><time>2026-03-22T13:33:45.018Z</time></trkpt><trkpt lat="42.956129936031566" lon="11.365242744430006"><ele>94.0</ele><time>2026-03-22T13:33:46.018Z</time></trkpt><trkpt lat="42.95612252296107" lon="11.364937485410357"><ele>94.0</ele><time>2026-03-22T13:33:47.018Z</time></trkpt><trkpt lat="42.956113462622696" lon="11.36462520242481"><ele>94.0</ele><time>2026-03-22T13:33:48.018Z</time></trkpt><trkpt lat="42.95610711147242" lon="11.364307092712941"><ele>94.0</ele><time>2026-03-22T13:33:49.018Z</time></trkpt><trkpt lat="42.956099164657374" lon="11.363983704597594"><ele>94.0</ele><time>2026-03-22T13:33:50.018Z</time></trkpt><trkpt lat="42.956089019722846" lon="11.363657682549709"><ele>94.0</ele><time>2026-03-22T13:33:51.018Z</time></trkpt><trkpt lat="42.95608045850988" lon="11.363331191178164"><ele>94.0</ele><time>2026-03-22T13:33:52.018Z</time></trkpt><trkpt lat="42.95607276602018" lon="11.363002018591207"><ele>93.0</ele><time>2026-03-22T13:33:53.018Z</time></trkpt><trkpt lat="42.95606477183061" lon="11.362673203546107"><ele>92.0</ele><time>2026-03-22T13:33:54.018Z</time></trkpt><trkpt lat="42.95605652902225" lon="11.362336262842568"><ele>92.5</ele><time>2026-03-22T13:33:55.018Z</time></trkpt><trkpt lat="42.95604883633151" lon="11.361993792430514"><ele>93.0</ele><time>2026-03-22T13:33:56.018Z</time></trkpt><trkpt lat="42.95604295831091" lon="11.361648006210945"><ele>92.5</ele><time>2026-03-22T13:33:57.018Z</time></trkpt><trkpt lat="42.956034486594135" lon="11.361306861267195"><ele>92.0</ele><time>2026-03-22T13:33:58.018Z</time></trkpt><trkpt lat="42.956025439396704" lon="11.360967990332504"><ele>92.0</ele><time>2026-03-22T13:33:59.018Z</time></trkpt><trkpt lat="42.95601827473581" lon="11.360632683907747"><ele>92.0</ele><time>2026-03-22T13:34:00.018Z</time></trkpt><trkpt lat="42.95601145814945" lon="11.360308963409594"><ele>91.66666666666667</ele><time>2026-03-22T13:34:01.018Z</time></trkpt><trkpt lat="42.956004363526425" lon="11.360000710295674"><ele>91.33333333333333</ele><time>2026-03-22T13:34:02.018Z</time></trkpt><trkpt lat="42.956000187750895" lon="11.359706641258871"><ele>91.0</ele><time>2026-03-22T13:34:03.018Z</time></trkpt><trkpt lat="42.955990774639346" lon="11.359422489639563"><ele>91.0</ele><time>2026-03-22T13:34:04.018Z</time></trkpt><trkpt lat="42.95596704415598" lon="11.359140263167856"><ele>91.0</ele><time>2026-03-22T13:34:05.018Z</time></trkpt><trkpt lat="42.955916857098124" lon="11.358861650673168"><ele>91.0</ele><time>2026-03-22T13:34:06.018Z</time></trkpt><trkpt lat="42.955834210204564" lon="11.358586282712318"><ele>89.0</ele><time>2026-03-22T13:34:07.018Z</time></trkpt><trkpt lat="42.95573238832604" lon="11.358310367740343"><ele>87.0</ele><time>2026-03-22T13:34:08.018Z</time></trkpt><trkpt lat="42.95562253221842" lon="11.35802423313076"><ele>87.0</ele><time>2026-03-22T13:34:09.018Z</time></trkpt><trkpt lat="42.95551893232997" lon="11.357725193912053"><ele>87.0</ele><time>2026-03-22T13:34:10.018Z</time></trkpt><trkpt lat="42.95541026458487" lon="11.35742928072681"><ele>87.5</ele><time>2026-03-22T13:34:11.018Z</time></trkpt><trkpt lat="42.95530105371698" lon="11.35712483368592"><ele>88.0</ele><time>2026-03-22T13:34:12.018Z</time></trkpt><trkpt lat="42.95519078924288" lon="11.35681952575517"><ele>88.0</ele><time>2026-03-22T13:34:13.018Z</time></trkpt><trkpt lat="42.95507896638547" lon="11.356508916332908"><ele>88.0</ele><time>2026-03-22T13:34:14.018Z</time></trkpt><trkpt lat="42.95496861149695" lon="11.356199510107126"><ele>84.0</ele><time>2026-03-22T13:34:15.018Z</time></trkpt><trkpt lat="42.95485884993831" lon="11.355888373234297"><ele>80.0</ele><time>2026-03-22T13:34:16.018Z</time></trkpt><trkpt lat="42.954751018209336" lon="11.355578080127062"><ele>80.0</ele><time>2026-03-22T13:34:17.018Z</time></trkpt><trkpt lat="42.95464287564865" lon="11.355269823759862"><ele>80.0</ele><time>2026-03-22T13:34:18.018Z</time></trkpt><trkpt lat="42.954537292462525" lon="11.354975245511374"><ele>81.5</ele><time>2026-03-22T13:34:19.018Z</time></trkpt><trkpt lat="42.95443258609718" lon="11.354684849361352"><ele>83.0</ele><time>2026-03-22T13:34:20.018Z</time></trkpt><trkpt lat="42.954328578591785" lon="11.35439523542148"><ele>83.0</ele><time>2026-03-22T13:34:21.018Z</time></trkpt><trkpt lat="42.95422769282253" lon="11.354114543057424"><ele>83.0</ele><time>2026-03-22T13:34:22.018Z</time></trkpt><trkpt lat="42.95413518630861" lon="11.353843516443046"><ele>83.0</ele><time>2026-03-22T13:34:23.018Z</time></trkpt><trkpt lat="42.95405612428008" lon="11.353562880223047"><ele>80.33333333333334</ele><time>2026-03-22T13:34:24.018Z</time></trkpt><trkpt lat="42.954000880756034" lon="11.353269574498736"><ele>77.66666666666667</ele><time>2026-03-22T13:34:25.018Z</time></trkpt><trkpt lat="42.95396240211551" lon="11.352967626038996"><ele>75.0</ele><time>2026-03-22T13:34:26.018Z</time></trkpt><trkpt lat="42.95393661949589" lon="11.352658878181462"><ele>73.66666666666667</ele><time>2026-03-22T13:34:27.018Z</time></trkpt><trkpt lat="42.95391181691978" lon="11.352353804247171"><ele>72.33333333333334</ele><time>2026-03-22T13:34:28.018Z</time></trkpt><trkpt lat="42.95388754076533" lon="11.352048520424681"><ele>71.0</ele><time>2026-03-22T13:34:29.018Z</time></trkpt><trkpt lat="42.953872534142135" lon="11.351744158893005"><ele>70.0</ele><time>2026-03-22T13:34:30.02Z</time></trkpt><trkpt lat="42.95385289032262" lon="11.351436534995402"><ele>69.0</ele><time>2026-03-22T13:34:31.02Z</time></trkpt><trkpt lat="42.95383031906894" lon="11.351132765256528"><ele>68.0</ele><time>2026-03-22T13:34:32.02Z</time></trkpt><trkpt lat="42.953813940218026" lon="11.350824796738317"><ele>66.0</ele><time>2026-03-22T13:34:33.02Z</time></trkpt><trkpt lat="42.953794674148334" lon="11.350513993353788"><ele>64.0</ele><time>2026-03-22T13:34:34.02Z</time></trkpt><trkpt lat="42.95377672763673" lon="11.350212718467345"><ele>64.0</ele><time>2026-03-22T13:34:35.02Z</time></trkpt><trkpt lat="42.95375685366706" lon="11.349905239175971"><ele>64.0</ele><time>2026-03-22T13:34:36.02Z</time></trkpt><trkpt lat="42.953736195240324" lon="11.349593419459662"><ele>64.5</ele><time>2026-03-22T13:34:37.02Z</time></trkpt><trkpt lat="42.95371615731381" lon="11.34928038338099"><ele>65.0</ele><time>2026-03-22T13:34:38.02Z</time></trkpt><trkpt lat="42.953696276963896" lon="11.348964177127327"><ele>66.0</ele><time>2026-03-22T13:34:39.02Z</time></trkpt><trkpt lat="42.953676043856085" lon="11.348649765507606"><ele>67.0</ele><time>2026-03-22T13:34:40.021Z</time></trkpt><trkpt lat="42.953655878187476" lon="11.348334082125222"><ele>67.5</ele><time>2026-03-22T13:34:41.021Z</time></trkpt><trkpt lat="42.9536355478866" lon="11.348018227303118"><ele>68.0</ele><time>2026-03-22T13:34:42.02Z</time></trkpt><trkpt lat="42.95361576675353" lon="11.347702289783248"><ele>68.0</ele><time>2026-03-22T13:34:43.021Z</time></trkpt><trkpt lat="42.953598096633776" lon="11.347388328703158"><ele>68.0</ele><time>2026-03-22T13:34:44.021Z</time></trkpt><trkpt lat="42.953578164154194" lon="11.34707590270876"><ele>67.0</ele><time>2026-03-22T13:34:45.021Z</time></trkpt><trkpt lat="42.95355683760002" lon="11.346765899830684"><ele>66.0</ele><time>2026-03-22T13:34:46.021Z</time></trkpt><trkpt lat="42.95353492452969" lon="11.34645805284513"><ele>66.0</ele><time>2026-03-22T13:34:47.021Z</time></trkpt><trkpt lat="42.95351505586716" lon="11.34615092349933"><ele>66.0</ele><time>2026-03-22T13:34:48.021Z</time></trkpt><trkpt lat="42.95349458739299" lon="11.345844961149192"><ele>66.66666666666667</ele><time>2026-03-22T13:34:49.021Z</time></trkpt><trkpt lat="42.95347435903067" lon="11.345539320438496"><ele>67.33333333333334</ele><time>2026-03-22T13:34:50.021Z</time></trkpt><trkpt lat="42.95345427290145" lon="11.345233328655146"><ele>68.0</ele><time>2026-03-22T13:34:51.021Z</time></trkpt><trkpt lat="42.95343479519404" lon="11.344923756013015"><ele>67.0</ele><time>2026-03-22T13:34:52.021Z</time></trkpt><trkpt lat="42.95341572946383" lon="11.34461338199038"><ele>66.0</ele><time>2026-03-22T13:34:53.021Z</time></trkpt><trkpt lat="42.953397658327845" lon="11.34430268531157"><ele>66.0</ele><time>2026-03-22T13:34:54.021Z</time></trkpt><trkpt lat="42.953379476646056" lon="11.343986884445227"><ele>66.0</ele><time>2026-03-22T13:34:55.021Z</time></trkpt><trkpt lat="42.953362083876065" lon="11.343672726200925"><ele>66.0</ele><time>2026-03-22T13:34:56.02Z</time></trkpt><trkpt lat="42.953340976926576" lon="11.343350325485542"><ele>66.0</ele><time>2026-03-22T13:34:57.02Z</time></trkpt><trkpt lat="42.95332282941823" lon="11.343025218453494"><ele>65.5</ele><time>2026-03-22T13:34:58.02Z</time></trkpt><trkpt lat="42.953303509354505" lon="11.342699152374603"><ele>65.0</ele><time>2026-03-22T13:34:59.02Z</time></trkpt><trkpt lat="42.95328128201715" lon="11.342369841715275"><ele>65.5</ele><time>2026-03-22T13:35:00.02Z</time></trkpt><trkpt lat="42.95325923325292" lon="11.342035897071725"><ele>66.0</ele><time>2026-03-22T13:35:01.02Z</time></trkpt><trkpt lat="42.95323784374262" lon="11.341695948555799"><ele>66.5</ele><time>2026-03-22T13:35:02.02Z</time></trkpt><trkpt lat="42.95321608711498" lon="11.341358498925596"><ele>67.0</ele><time>2026-03-22T13:35:03.02Z</time></trkpt><trkpt lat="42.95319280813219" lon="11.34101898226158"><ele>67.0</ele><time>2026-03-22T13:35:04.02Z</time></trkpt><trkpt lat="42.95316962217226" lon="11.34067752867639"><ele>67.0</ele><time>2026-03-22T13:35:05.02Z</time></trkpt><trkpt lat="42.953146742923" lon="11.340331738828672"><ele>66.0</ele><time>2026-03-22T13:35:06.02Z</time></trkpt><trkpt lat="42.95312519561785" lon="11.339985453602234"><ele>65.0</ele><time>2026-03-22T13:35:07.02Z</time></trkpt><trkpt lat="42.953104847340235" lon="11.339637538042146"><ele>65.0</ele><time>2026-03-22T13:35:08.02Z</time></trkpt><trkpt lat="42.953081175083796" lon="11.339291762806463"><ele>65.0</ele><time>2026-03-22T13:35:09.02Z</time></trkpt><trkpt lat="42.95305567970363" lon="11.338944726756544"><ele>65.5</ele><time>2026-03-22T13:35:10.02Z</time></trkpt><trkpt lat="42.953030244723706" lon="11.338592823019008"><ele>66.0</ele><time>2026-03-22T13:35:11.02Z</time></trkpt><trkpt lat="42.95300720595171" lon="11.338242052928015"><ele>66.0</ele><time>2026-03-22T13:35:12.02Z</time></trkpt><trkpt lat="42.95298448101098" lon="11.337892635965524"><ele>66.0</ele><time>2026-03-22T13:35:13.02Z</time></trkpt><trkpt lat="42.95296303776171" lon="11.337541455072978"><ele>65.5</ele><time>2026-03-22T13:35:14.02Z</time></trkpt><trkpt lat="42.95294179399884" lon="11.337188693244105"><ele>65.0</ele><time>2026-03-22T13:35:15.02Z</time></trkpt><trkpt lat="42.95292186558067" lon="11.336833895020005"><ele>65.0</ele><time>2026-03-22T13:35:16.02Z</time></trkpt><trkpt lat="42.95290199015814" lon="11.33647922711022"><ele>65.0</ele><time>2026-03-22T13:35:17.02Z</time></trkpt><trkpt lat="42.95287999844142" lon="11.336125109662731"><ele>65.0</ele><time>2026-03-22T13:35:18.02Z</time></trkpt><trkpt lat="42.952855860190084" lon="11.335770313160541"><ele>65.0</ele><time>2026-03-22T13:35:19.02Z</time></trkpt><trkpt lat="42.95283107124191" lon="11.33541721947515"><ele>65.0</ele><time>2026-03-22T13:35:20.02Z</time></trkpt><trkpt lat="42.95280915856132" lon="11.335064152642644"><ele>65.0</ele><time>2026-03-22T13:35:21.02Z</time></trkpt><trkpt lat="42.95278372704917" lon="11.334710529922418"><ele>65.5</ele><time>2026-03-22T13:35:22.02Z</time></trkpt><trkpt lat="42.952759604450165" lon="11.334356916881058"><ele>66.0</ele><time>2026-03-22T13:35:23.02Z</time></trkpt><trkpt lat="42.952735582625934" lon="11.333999508112159"><ele>66.0</ele><time>2026-03-22T13:35:24.02Z</time></trkpt><trkpt lat="42.9527125207649" lon="11.333641180870373"><ele>66.0</ele><time>2026-03-22T13:35:25.02Z</time></trkpt><trkpt lat="42.95268956739739" lon="11.333285703223364"><ele>66.0</ele><time>2026-03-22T13:35:26.02Z</time></trkpt><trkpt lat="42.95266615983899" lon="11.33293418330117"><ele>66.0</ele><time>2026-03-22T13:35:27.02Z</time></trkpt><trkpt lat="42.95264220138939" lon="11.332580481115576"><ele>66.0</ele><time>2026-03-22T13:35:28.02Z</time></trkpt><trkpt lat="42.952620698374524" lon="11.33222714475031"><ele>66.0</ele><time>2026-03-22T13:35:29.02Z</time></trkpt><trkpt lat="42.95259954071738" lon="11.331873005532989"><ele>66.5</ele><time>2026-03-22T13:35:30.02Z</time></trkpt><trkpt lat="42.95257789093016" lon="11.331525894112412"><ele>67.0</ele><time>2026-03-22T13:35:31.02Z</time></trkpt><trkpt lat="42.95255712423245" lon="11.331176443632389"><ele>68.5</ele><time>2026-03-22T13:35:32.02Z</time></trkpt><trkpt lat="42.95253548530115" lon="11.330828089557972"><ele>70.0</ele><time>2026-03-22T13:35:33.02Z</time></trkpt><trkpt lat="42.95251329467975" lon="11.330482964120602"><ele>70.5</ele><time>2026-03-22T13:35:34.02Z</time></trkpt><trkpt lat="42.95249168746093" lon="11.330139851369603"><ele>71.0</ele><time>2026-03-22T13:35:35.02Z</time></trkpt><trkpt lat="42.952469513293074" lon="11.329798161988037"><ele>72.0</ele><time>2026-03-22T13:35:36.02Z</time></trkpt><trkpt lat="42.95244744136485" lon="11.329458103109161"><ele>73.0</ele><time>2026-03-22T13:35:37.02Z</time></trkpt><trkpt lat="42.95242587403784" lon="11.32911895747729"><ele>74.0</ele><time>2026-03-22T13:35:38.02Z</time></trkpt><trkpt lat="42.95240403477782" lon="11.328779005895788"><ele>75.0</ele><time>2026-03-22T13:35:39.02Z</time></trkpt><trkpt lat="42.95238120148233" lon="11.328440565358001"><ele>75.0</ele><time>2026-03-22T13:35:40.02Z</time></trkpt><trkpt lat="42.952361309131824" lon="11.328104212134313"><ele>75.0</ele><time>2026-03-22T13:35:41.02Z</time></trkpt><trkpt lat="42.952339814147" lon="11.327773212201887"><ele>76.0</ele><time>2026-03-22T13:35:42.02Z</time></trkpt><trkpt lat="42.952319302404696" lon="11.32744708248166"><ele>77.0</ele><time>2026-03-22T13:35:43.02Z</time></trkpt><trkpt lat="42.95229199198776" lon="11.327126465581054"><ele>78.0</ele><time>2026-03-22T13:35:44.02Z</time></trkpt><trkpt lat="42.95226383164358" lon="11.326816387751606"><ele>79.0</ele><time>2026-03-22T13:35:45.02Z</time></trkpt><trkpt lat="42.952218857955806" lon="11.326509649422347"><ele>79.0</ele><time>2026-03-22T13:35:46.02Z</time></trkpt><trkpt lat="42.95216024360644" lon="11.326217288097013"><ele>79.0</ele><time>2026-03-22T13:35:47.02Z</time></trkpt><trkpt lat="42.952090829316596" lon="11.325925286313518"><ele>79.0</ele><time>2026-03-22T13:35:48.02Z</time></trkpt><trkpt lat="42.95200261217456" lon="11.325642066646624"><ele>79.0</ele><time>2026-03-22T13:35:49.02Z</time></trkpt><trkpt lat="42.951912175635144" lon="11.325358756889207"><ele>79.0</ele><time>2026-03-22T13:35:50.02Z</time></trkpt><trkpt lat="42.95181653343807" lon="11.325076486294432"><ele>79.0</ele><time>2026-03-22T13:35:51.02Z</time></trkpt><trkpt lat="42.95171660140619" lon="11.324784156312864"><ele>79.0</ele><time>2026-03-22T13:35:52.02Z</time></trkpt><trkpt lat="42.9516163280868" lon="11.324489286283725"><ele>79.0</ele><time>2026-03-22T13:35:53.02Z</time></trkpt><trkpt lat="42.95151865939718" lon="11.324188600256768"><ele>79.0</ele><time>2026-03-22T13:35:54.02Z</time></trkpt><trkpt lat="42.95141943128438" lon="11.323886805569922"><ele>80.0</ele><time>2026-03-22T13:35:55.02Z</time></trkpt><trkpt lat="42.95132341378018" lon="11.323584865517724"><ele>81.0</ele><time>2026-03-22T13:35:56.02Z</time></trkpt><trkpt lat="42.95122047933827" lon="11.323283360600747"><ele>81.5</ele><time>2026-03-22T13:35:57.02Z</time></trkpt><trkpt lat="42.95111905235477" lon="11.3229840850596"><ele>82.0</ele><time>2026-03-22T13:35:58.02Z</time></trkpt><trkpt lat="42.95101772684484" lon="11.322680386965077"><ele>82.0</ele><time>2026-03-22T13:35:59.02Z</time></trkpt><trkpt lat="42.95091724777418" lon="11.322378596236266"><ele>82.0</ele><time>2026-03-22T13:36:00.02Z</time></trkpt><trkpt lat="42.950815991510474" lon="11.322077235401178"><ele>81.5</ele><time>2026-03-22T13:36:01.02Z</time></trkpt><trkpt lat="42.950714234953466" lon="11.32177720799949"><ele>81.0</ele><time>2026-03-22T13:36:02.02Z</time></trkpt><trkpt lat="42.95061297109877" lon="11.321476198071766"><ele>81.0</ele><time>2026-03-22T13:36:03.02Z</time></trkpt><trkpt lat="42.95051899430661" lon="11.32117538935111"><ele>81.0</ele><time>2026-03-22T13:36:04.02Z</time></trkpt><trkpt lat="42.95041859516087" lon="11.320871371968"><ele>81.0</ele><time>2026-03-22T13:36:05.02Z</time></trkpt><trkpt lat="42.95031844904263" lon="11.320573038234242"><ele>81.0</ele><time>2026-03-22T13:36:06.02Z</time></trkpt><trkpt lat="42.95021844803002" lon="11.320277970461976"><ele>82.0</ele><time>2026-03-22T13:36:07.02Z</time></trkpt><trkpt lat="42.95011791312447" lon="11.319980475820515"><ele>83.0</ele><time>2026-03-22T13:36:08.02Z</time></trkpt><trkpt lat="42.95002039647177" lon="11.319687964632758"><ele>83.0</ele><time>2026-03-22T13:36:09.02Z</time></trkpt><trkpt lat="42.9499274371571" lon="11.319401661502745"><ele>83.0</ele><time>2026-03-22T13:36:10.02Z</time></trkpt><trkpt lat="42.94983744481831" lon="11.31913281927239"><ele>83.0</ele><time>2026-03-22T13:36:11.02Z</time></trkpt><trkpt lat="42.94974686718715" lon="11.3188646317267"><ele>84.0</ele><time>2026-03-22T13:36:12.02Z</time></trkpt><trkpt lat="42.9496525137819" lon="11.318607073696908"><ele>85.0</ele><time>2026-03-22T13:36:13.02Z</time></trkpt><trkpt lat="42.94954703360774" lon="11.318357259177668"><ele>86.0</ele><time>2026-03-22T13:36:14.02Z</time></trkpt><trkpt lat="42.94942649852408" lon="11.318116859353518"><ele>85.0</ele><time>2026-03-22T13:36:15.02Z</time></trkpt><trkpt lat="42.949292471466336" lon="11.317885114108046"><ele>84.0</ele><time>2026-03-22T13:36:16.02Z</time></trkpt><trkpt lat="42.949140024578924" lon="11.31766062544633"><ele>83.0</ele><time>2026-03-22T13:36:17.02Z</time></trkpt><trkpt lat="42.94897862549884" lon="11.317442560603217"><ele>83.5</ele><time>2026-03-22T13:36:18.02Z</time></trkpt><trkpt lat="42.94880987342367" lon="11.317228295935362"><ele>84.0</ele><time>2026-03-22T13:36:19.02Z</time></trkpt><trkpt lat="42.94865808679109" lon="11.316995776774643"><ele>84.0</ele><time>2026-03-22T13:36:20.02Z</time></trkpt><trkpt lat="42.948495330888804" lon="11.316777790977607"><ele>84.0</ele><time>2026-03-22T13:36:21.02Z</time></trkpt><trkpt lat="42.948335583853826" lon="11.316562297315599"><ele>86.0</ele><time>2026-03-22T13:36:22.02Z</time></trkpt><trkpt lat="42.94818182699564" lon="11.316344787654893"><ele>88.0</ele><time>2026-03-22T13:36:23.02Z</time></trkpt><trkpt lat="42.948021530989614" lon="11.31613501208984"><ele>90.0</ele><time>2026-03-22T13:36:24.02Z</time></trkpt><trkpt lat="42.94788832449969" lon="11.315891951974256"><ele>90.0</ele><time>2026-03-22T13:36:25.02Z</time></trkpt><trkpt lat="42.947772025365644" lon="11.315631581778458"><ele>90.0</ele><time>2026-03-22T13:36:26.02Z</time></trkpt><trkpt lat="42.947672425625385" lon="11.315356991548418"><ele>90.0</ele><time>2026-03-22T13:36:27.02Z</time></trkpt><trkpt lat="42.947586244240455" lon="11.315066759390954"><ele>90.0</ele><time>2026-03-22T13:36:28.02Z</time></trkpt><trkpt lat="42.94751587864771" lon="11.31476629379329"><ele>90.0</ele><time>2026-03-22T13:36:29.02Z</time></trkpt><trkpt lat="42.94745992701882" lon="11.314462894401009"><ele>90.0</ele><time>2026-03-22T13:36:30.019Z</time></trkpt><trkpt lat="42.947417952793195" lon="11.314157474099295"><ele>90.0</ele><time>2026-03-22T13:36:31.019Z</time></trkpt><trkpt lat="42.947381409848404" lon="11.313850001705893"><ele>90.0</ele><time>2026-03-22T13:36:32.019Z</time></trkpt><trkpt lat="42.947343819826564" lon="11.313540617231157"><ele>90.0</ele><time>2026-03-22T13:36:33.019Z</time></trkpt><trkpt lat="42.94730251065086" lon="11.313224885991163"><ele>89.0</ele><time>2026-03-22T13:36:34.019Z</time></trkpt><trkpt lat="42.947261817148046" lon="11.312907225283178"><ele>88.0</ele><time>2026-03-22T13:36:35.019Z</time></trkpt><trkpt lat="42.94721432781003" lon="11.312591661151083"><ele>88.0</ele><time>2026-03-22T13:36:36.022Z</time></trkpt><trkpt lat="42.947149037101255" lon="11.312288967830714"><ele>88.0</ele><time>2026-03-22T13:36:37.022Z</time></trkpt><trkpt lat="42.94705553630901" lon="11.312000624230494"><ele>88.0</ele><time>2026-03-22T13:36:38.022Z</time></trkpt><trkpt lat="42.94694649765518" lon="11.31171921080092"><ele>88.0</ele><time>2026-03-22T13:36:39.021Z</time></trkpt><trkpt lat="42.946811590335294" lon="11.311453636101076"><ele>93.0</ele><time>2026-03-22T13:36:40.021Z</time></trkpt><trkpt lat="42.9466596451161" lon="11.311205694811731"><ele>98.0</ele><time>2026-03-22T13:36:41.021Z</time></trkpt><trkpt lat="42.94649192056526" lon="11.31097244476062"><ele>98.0</ele><time>2026-03-22T13:36:42.022Z</time></trkpt><trkpt lat="42.94633580913101" lon="11.310730705120099"><ele>98.0</ele><time>2026-03-22T13:36:43.021Z</time></trkpt><trkpt lat="42.94617294025817" lon="11.310502682829593"><ele>98.5</ele><time>2026-03-22T13:36:44.021Z</time></trkpt><trkpt lat="42.946013600614314" lon="11.310278872024599"><ele>99.0</ele><time>2026-03-22T13:36:45.021Z</time></trkpt><trkpt lat="42.945853300304385" lon="11.310063857613557"><ele>99.0</ele><time>2026-03-22T13:36:46.022Z</time></trkpt><trkpt lat="42.945716865793244" lon="11.309822947319091"><ele>99.0</ele><time>2026-03-22T13:36:47.022Z</time></trkpt><trkpt lat="42.94558877314017" lon="11.309574893594666"><ele>99.0</ele><time>2026-03-22T13:36:48.021Z</time></trkpt><trkpt lat="42.94546770479189" lon="11.309315077307431"><ele>99.5</ele><time>2026-03-22T13:36:49.021Z</time></trkpt><trkpt lat="42.945360076259895" lon="11.309030479792225"><ele>100.0</ele><time>2026-03-22T13:36:50.021Z</time></trkpt><trkpt lat="42.945266698807586" lon="11.30872945804118"><ele>99.0</ele><time>2026-03-22T13:36:51.021Z</time></trkpt><trkpt lat="42.94518116860729" lon="11.308415436480173"><ele>98.0</ele><time>2026-03-22T13:36:52.021Z</time></trkpt><trkpt lat="42.945112756990376" lon="11.308088560126192"><ele>96.5</ele><time>2026-03-22T13:36:53.021Z</time></trkpt><trkpt lat="42.945058141582784" lon="11.307753610935602"><ele>95.0</ele><time>2026-03-22T13:36:54.021Z</time></trkpt><trkpt lat="42.94502249428528" lon="11.307407327485699"><ele>94.5</ele><time>2026-03-22T13:36:55.021Z</time></trkpt><trkpt lat="42.944995477505785" lon="11.307057227137514"><ele>94.0</ele><time>2026-03-22T13:36:56.021Z</time></trkpt><trkpt lat="42.94497118785378" lon="11.306701216580867"><ele>93.0</ele><time>2026-03-22T13:36:57.021Z</time></trkpt><trkpt lat="42.94494635121154" lon="11.30634327687051"><ele>92.0</ele><time>2026-03-22T13:36:58.021Z</time></trkpt><trkpt lat="42.944918814046716" lon="11.305983858674702"><ele>92.0</ele><time>2026-03-22T13:36:59.021Z</time></trkpt><trkpt lat="42.944893970285996" lon="11.305623291146688"><ele>92.0</ele><time>2026-03-22T13:37:00.021Z</time></trkpt><trkpt lat="42.944866705799974" lon="11.305268804418096"><ele>91.5</ele><time>2026-03-22T13:37:01.021Z</time></trkpt><trkpt lat="42.944841349173814" lon="11.304912913276974"><ele>91.0</ele><time>2026-03-22T13:37:02.021Z</time></trkpt><trkpt lat="42.944813851913246" lon="11.304568716871902"><ele>89.5</ele><time>2026-03-22T13:37:03.021Z</time></trkpt><trkpt lat="42.94478478442922" lon="11.3042452870101"><ele>88.0</ele><time>2026-03-22T13:37:04.021Z</time></trkpt><trkpt lat="42.944757598836524" lon="11.30392287094668"><ele>87.5</ele><time>2026-03-22T13:37:05.021Z</time></trkpt><trkpt lat="42.94473354777329" lon="11.303603861418123"><ele>87.0</ele><time>2026-03-22T13:37:06.021Z</time></trkpt><trkpt lat="42.94470307090447" lon="11.303280795702417"><ele>86.0</ele><time>2026-03-22T13:37:07.021Z</time></trkpt><trkpt lat="42.94466575257021" lon="11.302956677472434"><ele>85.0</ele><time>2026-03-22T13:37:08.021Z</time></trkpt><trkpt lat="42.94462458447445" lon="11.302638103728789"><ele>85.0</ele><time>2026-03-22T13:37:09.021Z</time></trkpt><trkpt lat="42.94458098610527" lon="11.30232436666143"><ele>85.0</ele><time>2026-03-22T13:37:10.021Z</time></trkpt><trkpt lat="42.94454460498109" lon="11.30202085310379"><ele>84.33333333333333</ele><time>2026-03-22T13:37:11.021Z</time></trkpt><trkpt lat="42.94450721918271" lon="11.301717141766108"><ele>83.66666666666667</ele><time>2026-03-22T13:37:12.021Z</time></trkpt><trkpt lat="42.944474232965774" lon="11.301420176331874"><ele>83.0</ele><time>2026-03-22T13:37:13.021Z</time></trkpt><trkpt lat="42.94443988201622" lon="11.301133040674207"><ele>82.66666666666667</ele><time>2026-03-22T13:37:14.021Z</time></trkpt><trkpt lat="42.9444069755266" lon="11.30084596996899"><ele>82.33333333333333</ele><time>2026-03-22T13:37:15.021Z</time></trkpt><trkpt lat="42.944373920184866" lon="11.30056941127479"><ele>82.0</ele><time>2026-03-22T13:37:16.021Z</time></trkpt><trkpt lat="42.94434701362554" lon="11.300285755465087"><ele>81.0</ele><time>2026-03-22T13:37:17.021Z</time></trkpt><trkpt lat="42.944324158845" lon="11.300017568944927"><ele>80.0</ele><time>2026-03-22T13:37:18.021Z</time></trkpt><trkpt lat="42.94430231155204" lon="11.2997601353091"><ele>79.0</ele><time>2026-03-22T13:37:19.021Z</time></trkpt><trkpt lat="42.944276634278665" lon="11.299517990628148"><ele>78.33333333333333</ele><time>2026-03-22T13:37:20.021Z</time></trkpt><trkpt lat="42.94424043642467" lon="11.299287823174822"><ele>77.66666666666667</ele><time>2026-03-22T13:37:21.021Z</time></trkpt><trkpt lat="42.94417725089487" lon="11.299059831456624"><ele>77.0</ele><time>2026-03-22T13:37:22.021Z</time></trkpt><trkpt lat="42.94411032792525" lon="11.298860698181274"><ele>76.33333333333334</ele><time>2026-03-22T13:37:23.021Z</time></trkpt><trkpt lat="42.944032831316406" lon="11.29867930486814"><ele>75.66666666666667</ele><time>2026-03-22T13:37:24.021Z</time></trkpt><trkpt lat="42.94394552156148" lon="11.298504448451347"><ele>75.0</ele><time>2026-03-22T13:37:25.021Z</time></trkpt><trkpt lat="42.943836816579775" lon="11.298343759704178"><ele>75.0</ele><time>2026-03-22T13:37:26.021Z</time></trkpt><trkpt lat="42.94372761827501" lon="11.29819780498123"><ele>75.0</ele><time>2026-03-22T13:37:27.021Z</time></trkpt><trkpt lat="42.943612481376135" lon="11.298052326230524"><ele>75.0</ele><time>2026-03-22T13:37:28.021Z</time></trkpt><trkpt lat="42.94349123660049" lon="11.29788211905827"><ele>73.33333333333333</ele><time>2026-03-22T13:37:29.021Z</time></trkpt><trkpt lat="42.94335833493046" lon="11.297707118853475"><ele>71.66666666666666</ele><time>2026-03-22T13:37:30.021Z</time></trkpt><trkpt lat="42.94321713338945" lon="11.297530643154149"><ele>70.0</ele><time>2026-03-22T13:37:31.021Z</time></trkpt><trkpt lat="42.94307872387001" lon="11.29735999896803"><ele>70.33333333333333</ele><time>2026-03-22T13:37:32.021Z</time></trkpt><trkpt lat="42.942946501451345" lon="11.297180629305013"><ele>70.66666666666667</ele><time>2026-03-22T13:37:33.021Z</time></trkpt><trkpt lat="42.94283464214042" lon="11.296976179997037"><ele>71.0</ele><time>2026-03-22T13:37:34.021Z</time></trkpt><trkpt lat="42.942746618183634" lon="11.29674968219069"><ele>71.0</ele><time>2026-03-22T13:37:35.021Z</time></trkpt><trkpt lat="42.94268511816951" lon="11.296514395617669"><ele>71.0</ele><time>2026-03-22T13:37:36.021Z</time></trkpt><trkpt lat="42.94265148993406" lon="11.296272817723569"><ele>71.0</ele><time>2026-03-22T13:37:37.021Z</time></trkpt><trkpt lat="42.94263732239447" lon="11.29603490536033"><ele>71.66666666666667</ele><time>2026-03-22T13:37:38.021Z</time></trkpt><trkpt lat="42.94262797929507" lon="11.295800176725814"><ele>72.33333333333333</ele><time>2026-03-22T13:37:39.021Z</time></trkpt><trkpt lat="42.94261392725791" lon="11.295578922142905"><ele>73.0</ele><time>2026-03-22T13:37:40.021Z</time></trkpt><trkpt lat="42.94259472370679" lon="11.295367617300295"><ele>73.66666666666666</ele><time>2026-03-22T13:37:41.021Z</time></trkpt><trkpt lat="42.94256918474163" lon="11.295161453596494"><ele>74.33333333333333</ele><time>2026-03-22T13:37:42.021Z</time></trkpt><trkpt lat="42.94252240367493" lon="11.294965267656902"><ele>75.0</ele><time>2026-03-22T13:37:43.021Z</time></trkpt><trkpt lat="42.94244282130495" lon="11.294785589103139"><ele>76.66666666666667</ele><time>2026-03-22T13:37:44.021Z</time></trkpt><trkpt lat="42.94233432757162" lon="11.294601712436174"><ele>78.33333333333334</ele><time>2026-03-22T13:37:45.021Z</time></trkpt><trkpt lat="42.942196273516345" lon="11.294407525610465"><ele>80.0</ele><time>2026-03-22T13:37:46.021Z</time></trkpt><trkpt lat="42.9420318059541" lon="11.294185661589468"><ele>80.0</ele><time>2026-03-22T13:37:47.021Z</time></trkpt><trkpt lat="42.94185550940948" lon="11.2939220588327"><ele>80.0</ele><time>2026-03-22T13:37:48.021Z</time></trkpt><trkpt lat="42.94169354391488" lon="11.293654783865525"><ele>79.5</ele><time>2026-03-22T13:37:49.021Z</time></trkpt><trkpt lat="42.94153923390205" lon="11.293396378748508"><ele>79.0</ele><time>2026-03-22T13:37:50.021Z</time></trkpt><trkpt lat="42.94139703533652" lon="11.293166057800894"><ele>79.66666666666666</ele><time>2026-03-22T13:37:51.021Z</time></trkpt><trkpt lat="42.94126905906514" lon="11.29294138322718"><ele>80.33333333333333</ele><time>2026-03-22T13:37:52.021Z</time></trkpt><trkpt lat="42.94115660307429" lon="11.292713713718971"><ele>81.0</ele><time>2026-03-22T13:37:53.021Z</time></trkpt><trkpt lat="42.94105965457625" lon="11.29247180424725"><ele>80.33333333333333</ele><time>2026-03-22T13:37:54.021Z</time></trkpt><trkpt lat="42.940988758535255" lon="11.292208520602173"><ele>79.66666666666666</ele><time>2026-03-22T13:37:55.021Z</time></trkpt><trkpt lat="42.940941275697455" lon="11.291935215363026"><ele>79.0</ele><time>2026-03-22T13:37:56.021Z</time></trkpt><trkpt lat="42.94091433868813" lon="11.291642682542674"><ele>78.0</ele><time>2026-03-22T13:37:57.021Z</time></trkpt><trkpt lat="42.940900782506915" lon="11.291334881866018"><ele>77.0</ele><time>2026-03-22T13:37:58.021Z</time></trkpt><trkpt lat="42.9408789382182" lon="11.29101606427332"><ele>76.5</ele><time>2026-03-22T13:37:59.021Z</time></trkpt><trkpt lat="42.94085653543052" lon="11.290693120219396"><ele>76.0</ele><time>2026-03-22T13:38:00.021Z</time></trkpt><trkpt lat="42.94083418352612" lon="11.290372614549083"><ele>76.0</ele><time>2026-03-22T13:38:01.021Z</time></trkpt><trkpt lat="42.94081580344887" lon="11.290045247926365"><ele>76.0</ele><time>2026-03-22T13:38:02.021Z</time></trkpt><trkpt lat="42.94079679363332" lon="11.289726883054131"><ele>75.0</ele><time>2026-03-22T13:38:03.021Z</time></trkpt><trkpt lat="42.94077069964067" lon="11.289416554686005"><ele>74.0</ele><time>2026-03-22T13:38:04.021Z</time></trkpt><trkpt lat="42.94073458588757" lon="11.289112773300031"><ele>74.0</ele><time>2026-03-22T13:38:05.021Z</time></trkpt><trkpt lat="42.940686232763916" lon="11.288823125787843"><ele>74.0</ele><time>2026-03-22T13:38:06.021Z</time></trkpt><trkpt lat="42.94062383290627" lon="11.288561943086174"><ele>74.0</ele><time>2026-03-22T13:38:07.021Z</time></trkpt><trkpt lat="42.9405502152" lon="11.288316338341666"><ele>74.0</ele><time>2026-03-22T13:38:08.02Z</time></trkpt><trkpt lat="42.94046544333905" lon="11.28806911587536"><ele>74.0</ele><time>2026-03-22T13:38:09.02Z</time></trkpt><trkpt lat="42.94037500811865" lon="11.28782472560353"><ele>74.0</ele><time>2026-03-22T13:38:10.02Z</time></trkpt><trkpt lat="42.94028102042853" lon="11.287591214859319"><ele>74.0</ele><time>2026-03-22T13:38:11.02Z</time></trkpt><trkpt lat="42.940187969951445" lon="11.287361832920249"><ele>74.0</ele><time>2026-03-22T13:38:12.02Z</time></trkpt><trkpt lat="42.94009577610946" lon="11.287133742370578"><ele>74.0</ele><time>2026-03-22T13:38:13.02Z</time></trkpt><trkpt lat="42.94000597761175" lon="11.286904331599835"><ele>73.0</ele><time>2026-03-22T13:38:14.02Z</time></trkpt><trkpt lat="42.93991543351257" lon="11.286673868939168"><ele>72.0</ele><time>2026-03-22T13:38:15.02Z</time></trkpt><trkpt lat="42.93982477087621" lon="11.286446692246109"><ele>71.0</ele><time>2026-03-22T13:38:16.02Z</time></trkpt><trkpt lat="42.939737457846114" lon="11.286217733458496"><ele>70.66666666666667</ele><time>2026-03-22T13:38:17.02Z</time></trkpt><trkpt lat="42.93965391498618" lon="11.285989036253842"><ele>70.33333333333333</ele><time>2026-03-22T13:38:18.02Z</time></trkpt><trkpt lat="42.93957557395294" lon="11.285767454666177"><ele>70.0</ele><time>2026-03-22T13:38:19.02Z</time></trkpt><trkpt lat="42.939502298883916" lon="11.285551383423652"><ele>70.0</ele><time>2026-03-22T13:38:20.02Z</time></trkpt><trkpt lat="42.93943821348237" lon="11.285339639977591"><ele>70.0</ele><time>2026-03-22T13:38:21.02Z</time></trkpt><trkpt lat="42.93937705665024" lon="11.28512943107485"><ele>70.0</ele><time>2026-03-22T13:38:22.02Z</time></trkpt><trkpt lat="42.93932988313858" lon="11.284923411092999"><ele>70.0</ele><time>2026-03-22T13:38:23.02Z</time></trkpt><trkpt lat="42.93929998375696" lon="11.284718300663881"><ele>70.0</ele><time>2026-03-22T13:38:24.02Z</time></trkpt><trkpt lat="42.939271281819856" lon="11.28452124132624"><ele>70.0</ele><time>2026-03-22T13:38:25.02Z</time></trkpt><trkpt lat="42.93923474540033" lon="11.284337572044054"><ele>70.0</ele><time>2026-03-22T13:38:26.02Z</time></trkpt><trkpt lat="42.93918558414639" lon="11.284169037727342"><ele>69.75</ele><time>2026-03-22T13:38:27.02Z</time></trkpt><trkpt lat="42.93912321060635" lon="11.284026652098133"><ele>69.5</ele><time>2026-03-22T13:38:28.02Z</time></trkpt><trkpt lat="42.93905631462344" lon="11.283892888604083"><ele>69.25</ele><time>2026-03-22T13:38:29.02Z</time></trkpt><trkpt lat="42.93899004114433" lon="11.283776583867294"><ele>69.0</ele><time>2026-03-22T13:38:30.02Z</time></trkpt><trkpt lat="42.93892763284286" lon="11.28366143765101"><ele>69.8</ele><time>2026-03-22T13:38:31.02Z</time></trkpt><trkpt lat="42.93886649779451" lon="11.283552814714392"><ele>70.60000000000001</ele><time>2026-03-22T13:38:32.02Z</time></trkpt><trkpt lat="42.938796283551426" lon="11.283444625749764"><ele>71.4</ele><time>2026-03-22T13:38:33.02Z</time></trkpt><trkpt lat="42.93872314649412" lon="11.283336522395969"><ele>72.2</ele><time>2026-03-22T13:38:34.02Z</time></trkpt><trkpt lat="42.93865760068855" lon="11.283222660285157"><ele>73.0</ele><time>2026-03-22T13:38:35.02Z</time></trkpt><trkpt lat="42.938588815219944" lon="11.28311227957871"><ele>73.2</ele><time>2026-03-22T13:38:36.02Z</time></trkpt><trkpt lat="42.938518764437575" lon="11.282999732958936"><ele>73.4</ele><time>2026-03-22T13:38:37.02Z</time></trkpt><trkpt lat="42.938447815130985" lon="11.282894075804553"><ele>73.60000000000001</ele><time>2026-03-22T13:38:38.02Z</time></trkpt><trkpt lat="42.938382951642055" lon="11.28279897568376"><ele>73.8</ele><time>2026-03-22T13:38:39.02Z</time></trkpt><trkpt lat="42.93831089192696" lon="11.282698168031787"><ele>74.0</ele><time>2026-03-22T13:38:40.02Z</time></trkpt><trkpt lat="42.93823143436123" lon="11.28258938463688"><ele>74.0</ele><time>2026-03-22T13:38:41.02Z</time></trkpt><trkpt lat="42.93813578537543" lon="11.282484471011333"><ele>74.0</ele><time>2026-03-22T13:38:42.023Z</time></trkpt><trkpt lat="42.938044714270184" lon="11.282370574946508"><ele>74.0</ele><time>2026-03-22T13:38:43.023Z</time></trkpt><trkpt lat="42.937963135829456" lon="11.282245623920653"><ele>74.0</ele><time>2026-03-22T13:38:44.023Z</time></trkpt><trkpt lat="42.93787844761298" lon="11.282133662744426"><ele>73.75</ele><time>2026-03-22T13:38:45.023Z</time></trkpt><trkpt lat="42.93779173242458" lon="11.282015407442854"><ele>73.5</ele><time>2026-03-22T13:38:46.023Z</time></trkpt><trkpt lat="42.93769510271491" lon="11.281897496335864"><ele>73.25</ele><time>2026-03-22T13:38:47.023Z</time></trkpt><trkpt lat="42.93759532346039" lon="11.281782408106364"><ele>73.0</ele><time>2026-03-22T13:38:48.023Z</time></trkpt><trkpt lat="42.937497613853864" lon="11.28166032470052"><ele>72.5</ele><time>2026-03-22T13:38:49.023Z</time></trkpt><trkpt lat="42.93739975961006" lon="11.281533362795646"><ele>72.0</ele><time>2026-03-22T13:38:50.023Z</time></trkpt><trkpt lat="42.937302408253" lon="11.281403518793258"><ele>71.5</ele><time>2026-03-22T13:38:51.024Z</time></trkpt><trkpt lat="42.937202373366794" lon="11.281269465189782"><ele>71.0</ele><time>2026-03-22T13:38:52.023Z</time></trkpt><trkpt lat="42.93709941794215" lon="11.281130595448632"><ele>70.0</ele><time>2026-03-22T13:38:53.023Z</time></trkpt><trkpt lat="42.936999223459374" lon="11.28098826441369"><ele>69.0</ele><time>2026-03-22T13:38:54.024Z</time></trkpt><trkpt lat="42.93689794061921" lon="11.280833639573453"><ele>68.0</ele><time>2026-03-22T13:38:55.023Z</time></trkpt><trkpt lat="42.93680048510283" lon="11.280671580435659"><ele>68.33333333333334</ele><time>2026-03-22T13:38:56.023Z</time></trkpt><trkpt lat="42.93671574024553" lon="11.280499061060674"><ele>68.66666666666667</ele><time>2026-03-22T13:38:57.023Z</time></trkpt><trkpt lat="42.93665060184585" lon="11.280313712526768"><ele>69.0</ele><time>2026-03-22T13:38:58.023Z</time></trkpt><trkpt lat="42.93660223731381" lon="11.280123959866545"><ele>69.0</ele><time>2026-03-22T13:38:59.023Z</time></trkpt><trkpt lat="42.93656047699855" lon="11.279915924308414"><ele>69.0</ele><time>2026-03-22T13:39:00.023Z</time></trkpt><trkpt lat="42.93653247219831" lon="11.279694360138423"><ele>69.0</ele><time>2026-03-22T13:39:01.023Z</time></trkpt><trkpt lat="42.93650443408894" lon="11.279469274645072"><ele>66.66666666666667</ele><time>2026-03-22T13:39:02.023Z</time></trkpt><trkpt lat="42.93646822795548" lon="11.279212367356388"><ele>64.33333333333334</ele><time>2026-03-22T13:39:03.023Z</time></trkpt><trkpt lat="42.9364173541836" lon="11.278917025924695"><ele>62.0</ele><time>2026-03-22T13:39:04.023Z</time></trkpt><trkpt lat="42.93636919331235" lon="11.278641894044407"><ele>60.66666666666667</ele><time>2026-03-22T13:39:05.023Z</time></trkpt><trkpt lat="42.936327640978675" lon="11.278370861482884"><ele>59.33333333333333</ele><time>2026-03-22T13:39:06.023Z</time></trkpt><trkpt lat="42.93628987031054" lon="11.278108699376933"><ele>58.0</ele><time>2026-03-22T13:39:07.023Z</time></trkpt><trkpt lat="42.93625410231932" lon="11.277860817406417"><ele>58.0</ele><time>2026-03-22T13:39:08.023Z</time></trkpt><trkpt lat="42.936222648612" lon="11.277627282314777"><ele>58.0</ele><time>2026-03-22T13:39:09.023Z</time></trkpt><trkpt lat="42.93618959558959" lon="11.277412233961094"><ele>58.0</ele><time>2026-03-22T13:39:10.023Z</time></trkpt><trkpt lat="42.93615842247876" lon="11.277208901567743"><ele>57.75</ele><time>2026-03-22T13:39:11.023Z</time></trkpt><trkpt lat="42.93612895892407" lon="11.277012639319803"><ele>57.5</ele><time>2026-03-22T13:39:12.023Z</time></trkpt><trkpt lat="42.936099613982776" lon="11.276824145828733"><ele>57.25</ele><time>2026-03-22T13:39:13.023Z</time></trkpt><trkpt lat="42.936073032718944" lon="11.276654244928112"><ele>57.0</ele><time>2026-03-22T13:39:14.023Z</time></trkpt><trkpt lat="42.93604966583818" lon="11.27649816005603"><ele>56.6</ele><time>2026-03-22T13:39:15.023Z</time></trkpt><trkpt lat="42.93603698843746" lon="11.276351904300133"><ele>56.2</ele><time>2026-03-22T13:39:16.023Z</time></trkpt><trkpt lat="42.936021400961245" lon="11.276215989885964"><ele>55.8</ele><time>2026-03-22T13:39:17.023Z</time></trkpt><trkpt lat="42.93604301133837" lon="11.276091179948102"><ele>55.4</ele><time>2026-03-22T13:39:18.023Z</time></trkpt><trkpt lat="42.936118186879476" lon="11.275986250438136"><ele>55.0</ele><time>2026-03-22T13:39:19.023Z</time></trkpt><trkpt lat="42.936142656959134" lon="11.275860711518732"><ele>55.0</ele><time>2026-03-22T13:39:20.023Z</time></trkpt><trkpt lat="42.936156937653465" lon="11.27572343757147"><ele>55.0</ele><time>2026-03-22T13:39:21.023Z</time></trkpt><trkpt lat="42.93615081277251" lon="11.275575998456308"><ele>55.0</ele><time>2026-03-22T13:39:22.023Z</time></trkpt><trkpt lat="42.93617300528261" lon="11.275433047005867"><ele>55.0</ele><time>2026-03-22T13:39:23.023Z</time></trkpt><trkpt lat="42.936299951097986" lon="11.275308976789358"><ele>55.0</ele><time>2026-03-22T13:39:24.023Z</time></trkpt><trkpt lat="42.936392873503394" lon="11.27518060549013"><ele>55.0</ele><time>2026-03-22T13:39:25.023Z</time></trkpt><trkpt lat="42.93650369212749" lon="11.27505694745504"><ele>55.0</ele><time>2026-03-22T13:39:26.023Z</time></trkpt><trkpt lat="42.93662829416942" lon="11.27493665916137"><ele>55.0</ele><time>2026-03-22T13:39:27.023Z</time></trkpt><trkpt lat="42.93677092222262" lon="11.274830154184835"><ele>56.33333333333333</ele><time>2026-03-22T13:39:28.023Z</time></trkpt><trkpt lat="42.93693448192132" lon="11.274733910582107"><ele>57.66666666666667</ele><time>2026-03-22T13:39:29.023Z</time></trkpt><trkpt lat="42.93710927657113" lon="11.27463667892695"><ele>59.0</ele><time>2026-03-22T13:39:30.023Z</time></trkpt><trkpt lat="42.93728253920134" lon="11.274526900880534"><ele>59.0</ele><time>2026-03-22T13:39:31.023Z</time></trkpt><trkpt lat="42.93745327872711" lon="11.274413425528582"><ele>59.0</ele><time>2026-03-22T13:39:32.023Z</time></trkpt><trkpt lat="42.93762747691415" lon="11.274303534878317"><ele>59.0</ele><time>2026-03-22T13:39:33.023Z</time></trkpt><trkpt lat="42.93780353702517" lon="11.27418679039835"><ele>59.0</ele><time>2026-03-22T13:39:34.023Z</time></trkpt><trkpt lat="42.93796894162311" lon="11.274052308199899"><ele>59.0</ele><time>2026-03-22T13:39:35.023Z</time></trkpt><trkpt lat="42.9381108454394" lon="11.273904111518748"><ele>59.0</ele><time>2026-03-22T13:39:36.023Z</time></trkpt><trkpt lat="42.93822121739395" lon="11.273728922117611"><ele>59.333333333333336</ele><time>2026-03-22T13:39:37.023Z</time></trkpt><trkpt lat="42.93831220020285" lon="11.273548033453805"><ele>59.66666666666667</ele><time>2026-03-22T13:39:38.023Z</time></trkpt><trkpt lat="42.938387823097514" lon="11.27335575848474"><ele>60.0</ele><time>2026-03-22T13:39:39.023Z</time></trkpt><trkpt lat="42.93845490342235" lon="11.273177380577554"><ele>60.5</ele><time>2026-03-22T13:39:40.023Z</time></trkpt><trkpt lat="42.93852181290673" lon="11.273007215908398"><ele>61.0</ele><time>2026-03-22T13:39:41.023Z</time></trkpt><trkpt lat="42.93860796327606" lon="11.272860808383678"><ele>61.5</ele><time>2026-03-22T13:39:42.023Z</time></trkpt><trkpt lat="42.93871252931035" lon="11.272754665317457"><ele>62.0</ele><time>2026-03-22T13:39:43.023Z</time></trkpt><trkpt lat="42.93882278269879" lon="11.272674249136736"><ele>62.0</ele><time>2026-03-22T13:39:44.023Z</time></trkpt><trkpt lat="42.938937682173325" lon="11.272623659303264"><ele>62.0</ele><time>2026-03-22T13:39:45.023Z</time></trkpt><trkpt lat="42.939062431556735" lon="11.272604020696285"><ele>62.0</ele><time>2026-03-22T13:39:46.023Z</time></trkpt><trkpt lat="42.93919298650275" lon="11.272616508306763"><ele>62.0</ele><time>2026-03-22T13:39:47.023Z</time></trkpt><trkpt lat="42.93932327212584" lon="11.272674411099187"><ele>62.0</ele><time>2026-03-22T13:39:48.023Z</time></trkpt><trkpt lat="42.939450621251275" lon="11.272759159721469"><ele>62.0</ele><time>2026-03-22T13:39:49.023Z</time></trkpt><trkpt lat="42.93957708807121" lon="11.272860214876035"><ele>62.0</ele><time>2026-03-22T13:39:50.023Z</time></trkpt><trkpt lat="42.93970449575498" lon="11.272969816948631"><ele>62.0</ele><time>2026-03-22T13:39:51.023Z</time></trkpt><trkpt lat="42.939830891395445" lon="11.27307821814485"><ele>62.0</ele><time>2026-03-22T13:39:52.023Z</time></trkpt><trkpt lat="42.9399577503699" lon="11.273186023040862"><ele>62.0</ele><time>2026-03-22T13:39:53.023Z</time></trkpt><trkpt lat="42.940092432633904" lon="11.273292865373103"><ele>62.0</ele><time>2026-03-22T13:39:54.023Z</time></trkpt><trkpt lat="42.9402370529387" lon="11.273408746678536"><ele>62.66666666666667</ele><time>2026-03-22T13:39:55.023Z</time></trkpt><trkpt lat="42.940384457388866" lon="11.273538889540578"><ele>63.33333333333333</ele><time>2026-03-22T13:39:56.023Z</time></trkpt><trkpt lat="42.94053563304925" lon="11.273667824140198"><ele>64.0</ele><time>2026-03-22T13:39:57.023Z</time></trkpt><trkpt lat="42.940685540071726" lon="11.27379506109547"><ele>64.0</ele><time>2026-03-22T13:39:58.023Z</time></trkpt><trkpt lat="42.940833639113286" lon="11.273919330258135"><ele>64.0</ele><time>2026-03-22T13:39:59.023Z</time></trkpt><trkpt lat="42.940974772122765" lon="11.27404064856573"><ele>64.0</ele><time>2026-03-22T13:40:00.023Z</time></trkpt><trkpt lat="42.94110387075182" lon="11.274150095302009"><ele>65.66666666666666</ele><time>2026-03-22T13:40:01.023Z</time></trkpt><trkpt lat="42.94121295281821" lon="11.274244577511634"><ele>67.33333333333333</ele><time>2026-03-22T13:40:02.023Z</time></trkpt><trkpt lat="42.94128637081053" lon="11.274314745594204"><ele>69.0</ele><time>2026-03-22T13:40:03.023Z</time></trkpt><trkpt lat="42.941343841256305" lon="11.274361894200997"><ele>70.66666666666667</ele><time>2026-03-22T13:40:04.023Z</time></trkpt><trkpt lat="42.94140238546043" lon="11.274405891119706"><ele>72.33333333333334</ele><time>2026-03-22T13:40:05.023Z</time></trkpt><trkpt lat="42.94145698644197" lon="11.274449422947644"><ele>74.0</ele><time>2026-03-22T13:40:06.023Z</time></trkpt><trkpt lat="42.941513180417196" lon="11.274497422600188"><ele>74.0</ele><time>2026-03-22T13:40:07.023Z</time></trkpt><trkpt lat="42.94157348231112" lon="11.274550166988034"><ele>74.0</ele><time>2026-03-22T13:40:08.023Z</time></trkpt><trkpt lat="42.94168131089285" lon="11.27465206896722"><ele>74.0</ele><time>2026-03-22T13:40:10.023Z</time></trkpt><trkpt lat="42.94174192816978" lon="11.274717795055263"><ele>74.0</ele><time>2026-03-22T13:40:11.023Z</time></trkpt><trkpt lat="42.94180112515071" lon="11.274800368723534"><ele>74.0</ele><time>2026-03-22T13:40:12.023Z</time></trkpt><trkpt lat="42.94185576111796" lon="11.27490201183028"><ele>75.80000000000001</ele><time>2026-03-22T13:40:13.023Z</time></trkpt><trkpt lat="42.941896095096794" lon="11.27502494076545"><ele>77.60000000000001</ele><time>2026-03-22T13:40:14.023Z</time></trkpt><trkpt lat="42.94192660460587" lon="11.275158326259362"><ele>79.4</ele><time>2026-03-22T13:40:15.023Z</time></trkpt><trkpt lat="42.94193625356717" lon="11.275305688208968"><ele>81.2</ele><time>2026-03-22T13:40:16.023Z</time></trkpt><trkpt lat="42.941929507795365" lon="11.275461038688762"><ele>83.0</ele><time>2026-03-22T13:40:17.023Z</time></trkpt><trkpt lat="42.94193500891169" lon="11.275610249944977"><ele>83.2</ele><time>2026-03-22T13:40:18.023Z</time></trkpt><trkpt lat="42.94193526196465" lon="11.2757635110781"><ele>83.4</ele><time>2026-03-22T13:40:19.023Z</time></trkpt><trkpt lat="42.94196192177717" lon="11.275904180951525"><ele>83.60000000000001</ele><time>2026-03-22T13:40:20.023Z</time></trkpt><trkpt lat="42.94201188090452" lon="11.276020747006172"><ele>83.80000000000001</ele><time>2026-03-22T13:40:21.023Z</time></trkpt><trkpt lat="42.94208462818482" lon="11.27611063166492"><ele>84.0</ele><time>2026-03-22T13:40:22.023Z</time></trkpt><trkpt lat="42.94216632196023" lon="11.276173177306804"><ele>84.0</ele><time>2026-03-22T13:40:23.023Z</time></trkpt><trkpt lat="42.94226147165542" lon="11.276192026744937"><ele>84.0</ele><time>2026-03-22T13:40:24.023Z</time></trkpt><trkpt lat="42.94235304912385" lon="11.276173715889422"><ele>84.0</ele><time>2026-03-22T13:40:25.023Z</time></trkpt><trkpt lat="42.942442670088774" lon="11.276125107474433"><ele>84.0</ele><time>2026-03-22T13:40:26.023Z</time></trkpt><trkpt lat="42.94251843235434" lon="11.27604536846969"><ele>84.0</ele><time>2026-03-22T13:40:27.022Z</time></trkpt><trkpt lat="42.94258860821999" lon="11.275943648370985"><ele>85.6</ele><time>2026-03-22T13:40:28.022Z</time></trkpt><trkpt lat="42.94264464408108" lon="11.275822527015062"><ele>87.2</ele><time>2026-03-22T13:40:29.022Z</time></trkpt><trkpt lat="42.94269787316944" lon="11.27569922938494"><ele>88.8</ele><time>2026-03-22T13:40:30.022Z</time></trkpt><trkpt lat="42.942759981613854" lon="11.275568136432087"><ele>90.39999999999999</ele><time>2026-03-22T13:40:31.022Z</time></trkpt><trkpt lat="42.94282223469322" lon="11.275433414415467"><ele>92.0</ele><time>2026-03-22T13:40:32.022Z</time></trkpt><trkpt lat="42.94288194255252" lon="11.275305757704432"><ele>92.0</ele><time>2026-03-22T13:40:33.022Z</time></trkpt><trkpt lat="42.94293103722637" lon="11.275197774946086"><ele>92.0</ele><time>2026-03-22T13:40:34.022Z</time></trkpt><trkpt lat="42.94296184523603" lon="11.275108637177281"><ele>92.0</ele><time>2026-03-22T13:40:35.022Z</time></trkpt><trkpt lat="42.942962854352366" lon="11.275019701224261"><ele>92.0</ele><time>2026-03-22T13:40:36.022Z</time></trkpt><trkpt lat="42.94286010513561" lon="11.274878935903962"><ele>92.0</ele><time>2026-03-22T13:40:38.022Z</time></trkpt><trkpt lat="42.94277715322857" lon="11.274836787924968"><ele>92.0</ele><time>2026-03-22T13:40:39.022Z</time></trkpt><trkpt lat="42.94267212746619" lon="11.274796799521258"><ele>92.0</ele><time>2026-03-22T13:40:40.022Z</time></trkpt><trkpt lat="42.94254877538694" lon="11.274742261981872"><ele>92.0</ele><time>2026-03-22T13:40:41.022Z</time></trkpt><trkpt lat="42.9424227672357" lon="11.274675925120414"><ele>92.0</ele><time>2026-03-22T13:40:42.022Z</time></trkpt><trkpt lat="42.94229616711302" lon="11.274606917313111"><ele>89.33333333333334</ele><time>2026-03-22T13:40:43.022Z</time></trkpt><trkpt lat="42.94216353520971" lon="11.274534732199886"><ele>86.66666666666667</ele><time>2026-03-22T13:40:44.022Z</time></trkpt><trkpt lat="42.942024880862014" lon="11.274445731443379"><ele>84.0</ele><time>2026-03-22T13:40:45.022Z</time></trkpt><trkpt lat="42.941880056910456" lon="11.274338588266968"><ele>84.0</ele><time>2026-03-22T13:40:46.022Z</time></trkpt><trkpt lat="42.94172427041382" lon="11.274230364314015"><ele>84.0</ele><time>2026-03-22T13:40:47.022Z</time></trkpt><trkpt lat="42.941564065210784" lon="11.274118235038337"><ele>84.0</ele><time>2026-03-22T13:40:48.025Z</time></trkpt><trkpt lat="42.941402201339955" lon="11.273996904766422"><ele>78.66666666666667</ele><time>2026-03-22T13:40:49.025Z</time></trkpt><trkpt lat="42.941239151522126" lon="11.273873272577232"><ele>73.33333333333334</ele><time>2026-03-22T13:40:50.025Z</time></trkpt><trkpt lat="42.941075228932654" lon="11.273734078789179"><ele>68.0</ele><time>2026-03-22T13:40:51.024Z</time></trkpt><trkpt lat="42.94090503172533" lon="11.273590424329761"><ele>66.66666666666667</ele><time>2026-03-22T13:40:52.025Z</time></trkpt><trkpt lat="42.940724678346236" lon="11.273441589282168"><ele>65.33333333333333</ele><time>2026-03-22T13:40:53.025Z</time></trkpt><trkpt lat="42.940539842892726" lon="11.273285914811014"><ele>64.0</ele><time>2026-03-22T13:40:54.025Z</time></trkpt><trkpt lat="42.94035222592134" lon="11.273127379603036"><ele>63.0</ele><time>2026-03-22T13:40:55.024Z</time></trkpt><trkpt lat="42.940151534344956" lon="11.272962264256726"><ele>62.0</ele><time>2026-03-22T13:40:56.024Z</time></trkpt><trkpt lat="42.939935057332626" lon="11.272790137741946"><ele>62.0</ele><time>2026-03-22T13:40:57.025Z</time></trkpt><trkpt lat="42.939706200455106" lon="11.272608880157234"><ele>62.0</ele><time>2026-03-22T13:40:58.025Z</time></trkpt><trkpt lat="42.93947376880938" lon="11.272423642035731"><ele>62.0</ele><time>2026-03-22T13:40:59.025Z</time></trkpt><trkpt lat="42.93924385086161" lon="11.272234727688234"><ele>62.0</ele><time>2026-03-22T13:41:00.024Z</time></trkpt><trkpt lat="42.93901384280235" lon="11.27204515649573"><ele>62.0</ele><time>2026-03-22T13:41:01.025Z</time></trkpt><trkpt lat="42.9387841638106" lon="11.27185970177835"><ele>62.0</ele><time>2026-03-22T13:41:02.025Z</time></trkpt><trkpt lat="42.938556520065525" lon="11.271671914097853"><ele>62.0</ele><time>2026-03-22T13:41:03.025Z</time></trkpt><trkpt lat="42.93833413295365" lon="11.271485238562747"><ele>62.0</ele><time>2026-03-22T13:41:04.025Z</time></trkpt><trkpt lat="42.938109258407245" lon="11.271296393164976"><ele>62.0</ele><time>2026-03-22T13:41:05.025Z</time></trkpt><trkpt lat="42.93788833166043" lon="11.271110052499148"><ele>62.0</ele><time>2026-03-22T13:41:06.025Z</time></trkpt><trkpt lat="42.937666903286384" lon="11.270923512012338"><ele>62.5</ele><time>2026-03-22T13:41:07.025Z</time></trkpt><trkpt lat="42.93744728555289" lon="11.270736461944418"><ele>63.0</ele><time>2026-03-22T13:41:08.025Z</time></trkpt><trkpt lat="42.93722297264186" lon="11.270548274232729"><ele>64.0</ele><time>2026-03-22T13:41:09.025Z</time></trkpt><trkpt lat="42.93700221621386" lon="11.270356983453498"><ele>65.0</ele><time>2026-03-22T13:41:10.025Z</time></trkpt><trkpt lat="42.936783900973445" lon="11.270166532887712"><ele>64.5</ele><time>2026-03-22T13:41:11.025Z</time></trkpt><trkpt lat="42.93656507481787" lon="11.26997076136712"><ele>64.0</ele><time>2026-03-22T13:41:12.025Z</time></trkpt><trkpt lat="42.936346685868074" lon="11.269776333333024"><ele>65.0</ele><time>2026-03-22T13:41:13.025Z</time></trkpt><trkpt lat="42.93612536796536" lon="11.2695894896439"><ele>66.0</ele><time>2026-03-22T13:41:14.025Z</time></trkpt><trkpt lat="42.93590594149399" lon="11.26940456795582"><ele>65.5</ele><time>2026-03-22T13:41:15.025Z</time></trkpt><trkpt lat="42.935686486541385" lon="11.26921956915421"><ele>65.0</ele><time>2026-03-22T13:41:16.025Z</time></trkpt><trkpt lat="42.935466988206535" lon="11.269032983442067"><ele>65.0</ele><time>2026-03-22T13:41:17.025Z</time></trkpt><trkpt lat="42.93524477868069" lon="11.268845291154541"><ele>65.0</ele><time>2026-03-22T13:41:18.025Z</time></trkpt><trkpt lat="42.93502216230554" lon="11.268656401282794"><ele>65.0</ele><time>2026-03-22T13:41:19.025Z</time></trkpt><trkpt lat="42.934794944549886" lon="11.268469584113415"><ele>65.0</ele><time>2026-03-22T13:41:20.025Z</time></trkpt><trkpt lat="42.93457237598264" lon="11.268283369441557"><ele>64.5</ele><time>2026-03-22T13:41:21.025Z</time></trkpt><trkpt lat="42.93435179538464" lon="11.268099281757474"><ele>64.0</ele><time>2026-03-22T13:41:22.025Z</time></trkpt><trkpt lat="42.934129499655704" lon="11.267912191506548"><ele>63.5</ele><time>2026-03-22T13:41:23.025Z</time></trkpt><trkpt lat="42.933907831593515" lon="11.26772647336746"><ele>63.0</ele><time>2026-03-22T13:41:24.025Z</time></trkpt><trkpt lat="42.93368652162441" lon="11.267539976644859"><ele>63.0</ele><time>2026-03-22T13:41:25.025Z</time></trkpt><trkpt lat="42.93346582502228" lon="11.267353275585048"><ele>63.0</ele><time>2026-03-22T13:41:26.025Z</time></trkpt><trkpt lat="42.933243356904015" lon="11.267164373999645"><ele>61.5</ele><time>2026-03-22T13:41:27.025Z</time></trkpt><trkpt lat="42.93301724570681" lon="11.266980959769834"><ele>60.0</ele><time>2026-03-22T13:41:28.025Z</time></trkpt><trkpt lat="42.932784823659844" lon="11.266809720055496"><ele>60.0</ele><time>2026-03-22T13:41:29.025Z</time></trkpt><trkpt lat="42.93255137083271" lon="11.266650092629451"><ele>60.0</ele><time>2026-03-22T13:41:30.025Z</time></trkpt><trkpt lat="42.9323124965999" lon="11.26650855182968"><ele>59.0</ele><time>2026-03-22T13:41:31.025Z</time></trkpt><trkpt lat="42.93206699300164" lon="11.266385986428087"><ele>58.0</ele><time>2026-03-22T13:41:32.025Z</time></trkpt><trkpt lat="42.9318203403215" lon="11.266280562012803"><ele>59.5</ele><time>2026-03-22T13:41:33.025Z</time></trkpt><trkpt lat="42.93157059123863" lon="11.26618648587291"><ele>61.0</ele><time>2026-03-22T13:41:34.025Z</time></trkpt><trkpt lat="42.931314768140446" lon="11.266107321402272"><ele>61.0</ele><time>2026-03-22T13:41:35.024Z</time></trkpt><trkpt lat="42.93105667812496" lon="11.266037192440912"><ele>61.0</ele><time>2026-03-22T13:41:36.024Z</time></trkpt><trkpt lat="42.93079712455969" lon="11.265978514701972"><ele>60.5</ele><time>2026-03-22T13:41:37.024Z</time></trkpt><trkpt lat="42.93053843237551" lon="11.265922690823556"><ele>60.0</ele><time>2026-03-22T13:41:38.024Z</time></trkpt><trkpt lat="42.930278424742944" lon="11.265865064109855"><ele>59.0</ele><time>2026-03-22T13:41:39.024Z</time></trkpt><trkpt lat="42.93002201627593" lon="11.265801616627007"><ele>58.0</ele><time>2026-03-22T13:41:40.024Z</time></trkpt><trkpt lat="42.929763888549815" lon="11.265738358000359"><ele>58.0</ele><time>2026-03-22T13:41:41.024Z</time></trkpt><trkpt lat="42.92950508088979" lon="11.265676767927806"><ele>58.0</ele><time>2026-03-22T13:41:42.024Z</time></trkpt><trkpt lat="42.92924684856611" lon="11.265618389964143"><ele>61.0</ele><time>2026-03-22T13:41:43.024Z</time></trkpt><trkpt lat="42.92899121179826" lon="11.265557988739738"><ele>64.0</ele><time>2026-03-22T13:41:44.024Z</time></trkpt><trkpt lat="42.9287334817731" lon="11.265495202764848"><ele>64.0</ele><time>2026-03-22T13:41:45.024Z</time></trkpt><trkpt lat="42.92847838152472" lon="11.265432398579591"><ele>64.0</ele><time>2026-03-22T13:41:46.024Z</time></trkpt><trkpt lat="42.928223526944144" lon="11.26536995726809"><ele>63.0</ele><time>2026-03-22T13:41:47.024Z</time></trkpt><trkpt lat="42.9279693384482" lon="11.265304499133324"><ele>62.0</ele><time>2026-03-22T13:41:48.024Z</time></trkpt><trkpt lat="42.92770973556756" lon="11.265244534429726"><ele>60.0</ele><time>2026-03-22T13:41:49.024Z</time></trkpt><trkpt lat="42.927451272079054" lon="11.2651853482623"><ele>58.0</ele><time>2026-03-22T13:41:50.024Z</time></trkpt><trkpt lat="42.927195671397136" lon="11.26511481994213"><ele>58.0</ele><time>2026-03-22T13:41:51.024Z</time></trkpt><trkpt lat="42.926939695481906" lon="11.265049795111526"><ele>58.0</ele><time>2026-03-22T13:41:52.024Z</time></trkpt><trkpt lat="42.92668323221672" lon="11.264982712221732"><ele>57.5</ele><time>2026-03-22T13:41:53.024Z</time></trkpt><trkpt lat="42.926421216495925" lon="11.264911868884885"><ele>57.0</ele><time>2026-03-22T13:41:54.024Z</time></trkpt><trkpt lat="42.92615884053852" lon="11.264844647990257"><ele>59.5</ele><time>2026-03-22T13:41:55.024Z</time></trkpt><trkpt lat="42.92589513941716" lon="11.264777040047779"><ele>62.0</ele><time>2026-03-22T13:41:56.024Z</time></trkpt><trkpt lat="42.92562932370674" lon="11.264708583883687"><ele>62.5</ele><time>2026-03-22T13:41:57.024Z</time></trkpt><trkpt lat="42.92536695401943" lon="11.264630188697552"><ele>63.0</ele><time>2026-03-22T13:41:58.024Z</time></trkpt><trkpt lat="42.925107535982036" lon="11.26453487160878"><ele>62.5</ele><time>2026-03-22T13:41:59.024Z</time></trkpt><trkpt lat="42.924848562681056" lon="11.264416980790294"><ele>62.0</ele><time>2026-03-22T13:42:00.024Z</time></trkpt><trkpt lat="42.92459213909733" lon="11.26428659937734"><ele>62.0</ele><time>2026-03-22T13:42:01.024Z</time></trkpt><trkpt lat="42.92434143602668" lon="11.264137205565902"><ele>62.0</ele><time>2026-03-22T13:42:02.024Z</time></trkpt><trkpt lat="42.92410356035728" lon="11.263957406325924"><ele>61.0</ele><time>2026-03-22T13:42:03.024Z</time></trkpt><trkpt lat="42.9238722553948" lon="11.263758590393246"><ele>60.0</ele><time>2026-03-22T13:42:04.024Z</time></trkpt><trkpt lat="42.92364827047631" lon="11.263542308372882"><ele>60.0</ele><time>2026-03-22T13:42:05.024Z</time></trkpt><trkpt lat="42.92342666479049" lon="11.263319908209892"><ele>60.0</ele><time>2026-03-22T13:42:06.024Z</time></trkpt><trkpt lat="42.92320626641448" lon="11.263092114553633"><ele>58.0</ele><time>2026-03-22T13:42:07.024Z</time></trkpt><trkpt lat="42.92298820691942" lon="11.26286031765792"><ele>56.0</ele><time>2026-03-22T13:42:08.024Z</time></trkpt><trkpt lat="42.92276660284657" lon="11.262632605219961"><ele>56.0</ele><time>2026-03-22T13:42:09.024Z</time></trkpt><trkpt lat="42.92254804742562" lon="11.262403790240308"><ele>56.0</ele><time>2026-03-22T13:42:10.024Z</time></trkpt><trkpt lat="42.92233061336563" lon="11.26217933818676"><ele>56.0</ele><time>2026-03-22T13:42:11.024Z</time></trkpt><trkpt lat="42.922112562791575" lon="11.261959110493907"><ele>56.0</ele><time>2026-03-22T13:42:12.024Z</time></trkpt><trkpt lat="42.921893162750045" lon="11.26172927907941"><ele>56.0</ele><time>2026-03-22T13:42:13.024Z</time></trkpt><trkpt lat="42.921676756565134" lon="11.261500056983285"><ele>56.0</ele><time>2026-03-22T13:42:14.024Z</time></trkpt><trkpt lat="42.92146010630954" lon="11.261272524192076"><ele>56.0</ele><time>2026-03-22T13:42:15.024Z</time></trkpt><trkpt lat="42.92124372526059" lon="11.261045712240898"><ele>56.0</ele><time>2026-03-22T13:42:16.024Z</time></trkpt><trkpt lat="42.92102896371929" lon="11.26081838808324"><ele>56.5</ele><time>2026-03-22T13:42:17.024Z</time></trkpt><trkpt lat="42.92080949479283" lon="11.260588839355691"><ele>57.0</ele><time>2026-03-22T13:42:18.024Z</time></trkpt><trkpt lat="42.92059125872508" lon="11.26036291372284"><ele>57.0</ele><time>2026-03-22T13:42:19.024Z</time></trkpt><trkpt lat="42.920372075842224" lon="11.26013765151597"><ele>57.0</ele><time>2026-03-22T13:42:20.024Z</time></trkpt><trkpt lat="42.92015375351825" lon="11.259912009157974"><ele>57.5</ele><time>2026-03-22T13:42:21.024Z</time></trkpt><trkpt lat="42.91993588423975" lon="11.259684168754468"><ele>58.0</ele><time>2026-03-22T13:42:22.024Z</time></trkpt><trkpt lat="42.91971869961881" lon="11.259455583467242"><ele>58.0</ele><time>2026-03-22T13:42:23.024Z</time></trkpt><trkpt lat="42.919504151665" lon="11.259226569489197"><ele>58.0</ele><time>2026-03-22T13:42:24.024Z</time></trkpt><trkpt lat="42.91928561196987" lon="11.258996755782789"><ele>58.5</ele><time>2026-03-22T13:42:25.024Z</time></trkpt><trkpt lat="42.919068651972566" lon="11.258768401059482"><ele>59.0</ele><time>2026-03-22T13:42:26.024Z</time></trkpt><trkpt lat="42.91885065169326" lon="11.258540468544684"><ele>59.0</ele><time>2026-03-22T13:42:27.024Z</time></trkpt><trkpt lat="42.91863221310054" lon="11.258314248153017"><ele>59.0</ele><time>2026-03-22T13:42:28.024Z</time></trkpt><trkpt lat="42.91841584870686" lon="11.258088483586778"><ele>59.5</ele><time>2026-03-22T13:42:29.024Z</time></trkpt><trkpt lat="42.91819716955193" lon="11.257865135316587"><ele>60.0</ele><time>2026-03-22T13:42:30.024Z</time></trkpt><trkpt lat="42.91797689569037" lon="11.257640836645875"><ele>60.0</ele><time>2026-03-22T13:42:31.024Z</time></trkpt><trkpt lat="42.91775674762877" lon="11.257414177069137"><ele>60.0</ele><time>2026-03-22T13:42:32.024Z</time></trkpt><trkpt lat="42.91753859026778" lon="11.257183602565327"><ele>63.0</ele><time>2026-03-22T13:42:33.024Z</time></trkpt><trkpt lat="42.9173209012446" lon="11.256951824693994"><ele>66.0</ele><time>2026-03-22T13:42:34.024Z</time></trkpt><trkpt lat="42.91710139380456" lon="11.256723136832685"><ele>66.0</ele><time>2026-03-22T13:42:35.024Z</time></trkpt><trkpt lat="42.91687746416848" lon="11.25649973334846"><ele>66.0</ele><time>2026-03-22T13:42:36.024Z</time></trkpt><trkpt lat="42.91665403225267" lon="11.256277241904536"><ele>68.0</ele><time>2026-03-22T13:42:37.024Z</time></trkpt><trkpt lat="42.916432054598154" lon="11.256059104870952"><ele>70.0</ele><time>2026-03-22T13:42:38.024Z</time></trkpt><trkpt lat="42.91620225309472" lon="11.255848221507536"><ele>70.0</ele><time>2026-03-22T13:42:39.024Z</time></trkpt><trkpt lat="42.915971705576595" lon="11.25565172448157"><ele>70.0</ele><time>2026-03-22T13:42:40.024Z</time></trkpt><trkpt lat="42.91573262102002" lon="11.255459742243938"><ele>70.0</ele><time>2026-03-22T13:42:41.024Z</time></trkpt><trkpt lat="42.91548760245099" lon="11.255285633233902"><ele>70.0</ele><time>2026-03-22T13:42:42.024Z</time></trkpt><trkpt lat="42.91524136216738" lon="11.255124014731258"><ele>67.5</ele><time>2026-03-22T13:42:43.024Z</time></trkpt><trkpt lat="42.914988959363654" lon="11.25497184094479"><ele>65.0</ele><time>2026-03-22T13:42:44.024Z</time></trkpt><trkpt lat="42.914735309700696" lon="11.254826403742342"><ele>66.5</ele><time>2026-03-22T13:42:45.024Z</time></trkpt><trkpt lat="42.914482023194935" lon="11.254685146133282"><ele>68.0</ele><time>2026-03-22T13:42:46.024Z</time></trkpt><trkpt lat="42.91422994249621" lon="11.254541229149666"><ele>69.0</ele><time>2026-03-22T13:42:47.024Z</time></trkpt><trkpt lat="42.91397625263092" lon="11.254394076559995"><ele>70.0</ele><time>2026-03-22T13:42:48.024Z</time></trkpt><trkpt lat="42.91372178344911" lon="11.254241428739954"><ele>70.0</ele><time>2026-03-22T13:42:49.024Z</time></trkpt><trkpt lat="42.91346921093864" lon="11.25408527241703"><ele>70.0</ele><time>2026-03-22T13:42:50.024Z</time></trkpt><trkpt lat="42.91322437824595" lon="11.253913655337868"><ele>71.5</ele><time>2026-03-22T13:42:51.024Z</time></trkpt><trkpt lat="42.91298630188615" lon="11.253725167748968"><ele>73.0</ele><time>2026-03-22T13:42:52.024Z</time></trkpt><trkpt lat="42.912759911778856" lon="11.253515403458634"><ele>70.5</ele><time>2026-03-22T13:42:53.026Z</time></trkpt><trkpt lat="42.91253689529334" lon="11.253295061964293"><ele>68.0</ele><time>2026-03-22T13:42:54.026Z</time></trkpt><trkpt lat="42.912325347596365" lon="11.253057211675689"><ele>68.0</ele><time>2026-03-22T13:42:55.026Z</time></trkpt><trkpt lat="42.912123271748015" lon="11.252805577335288"><ele>68.0</ele><time>2026-03-22T13:42:56.026Z</time></trkpt><trkpt lat="42.91192252882888" lon="11.252548832957237"><ele>65.5</ele><time>2026-03-22T13:42:57.026Z</time></trkpt><trkpt lat="42.91173030527771" lon="11.252290993618105"><ele>63.0</ele><time>2026-03-22T13:42:58.026Z</time></trkpt><trkpt lat="42.911531020669656" lon="11.252034577848216"><ele>63.0</ele><time>2026-03-22T13:42:59.026Z</time></trkpt><trkpt lat="42.91132732397721" lon="11.251780256884397"><ele>63.0</ele><time>2026-03-22T13:43:00.026Z</time></trkpt><trkpt lat="42.91112321888146" lon="11.251528655361582"><ele>64.0</ele><time>2026-03-22T13:43:01.026Z</time></trkpt><trkpt lat="42.91092117680821" lon="11.251275433673221"><ele>65.0</ele><time>2026-03-22T13:43:02.026Z</time></trkpt><trkpt lat="42.91072017727314" lon="11.251024341150806"><ele>65.0</ele><time>2026-03-22T13:43:03.026Z</time></trkpt><trkpt lat="42.91051806673284" lon="11.25077028688444"><ele>65.0</ele><time>2026-03-22T13:43:04.026Z</time></trkpt><trkpt lat="42.910315889837015" lon="11.250515601514778"><ele>66.5</ele><time>2026-03-22T13:43:05.026Z</time></trkpt><trkpt lat="42.91011409022615" lon="11.250258160759158"><ele>68.0</ele><time>2026-03-22T13:43:06.026Z</time></trkpt><trkpt lat="42.90991333785182" lon="11.250001545533259"><ele>72.0</ele><time>2026-03-22T13:43:07.026Z</time></trkpt><trkpt lat="42.909713540971175" lon="11.249745116048214"><ele>76.0</ele><time>2026-03-22T13:43:08.026Z</time></trkpt><trkpt lat="42.909512407232796" lon="11.249494008750743"><ele>76.0</ele><time>2026-03-22T13:43:09.026Z</time></trkpt><trkpt lat="42.909306622763836" lon="11.24924829145107"><ele>76.0</ele><time>2026-03-22T13:43:10.026Z</time></trkpt><trkpt lat="42.90910125434372" lon="11.249001213754694"><ele>73.0</ele><time>2026-03-22T13:43:11.026Z</time></trkpt><trkpt lat="42.908898022136235" lon="11.248751545456264"><ele>70.0</ele><time>2026-03-22T13:43:12.026Z</time></trkpt><trkpt lat="42.908698828036755" lon="11.248498161535881"><ele>70.0</ele><time>2026-03-22T13:43:13.026Z</time></trkpt><trkpt lat="42.908496881722854" lon="11.248243895684922"><ele>70.0</ele><time>2026-03-22T13:43:14.026Z</time></trkpt><trkpt lat="42.90829580853921" lon="11.247987467306764"><ele>70.0</ele><time>2026-03-22T13:43:15.026Z</time></trkpt><trkpt lat="42.9080946521087" lon="11.24773076232069"><ele>70.0</ele><time>2026-03-22T13:43:16.026Z</time></trkpt><trkpt lat="42.90789593969516" lon="11.247472222008424"><ele>70.0</ele><time>2026-03-22T13:43:17.026Z</time></trkpt><trkpt lat="42.90769918910981" lon="11.24721375654707"><ele>70.0</ele><time>2026-03-22T13:43:18.026Z</time></trkpt><trkpt lat="42.90750308658764" lon="11.246949977638618"><ele>70.0</ele><time>2026-03-22T13:43:19.026Z</time></trkpt><trkpt lat="42.907310407668874" lon="11.246687292227255"><ele>70.0</ele><time>2026-03-22T13:43:20.026Z</time></trkpt><trkpt lat="42.90711222798204" lon="11.246430129515968"><ele>70.5</ele><time>2026-03-22T13:43:21.026Z</time></trkpt><trkpt lat="42.90691088375588" lon="11.246172931036044"><ele>71.0</ele><time>2026-03-22T13:43:22.026Z</time></trkpt><trkpt lat="42.906708837112916" lon="11.245920620414404"><ele>71.0</ele><time>2026-03-22T13:43:23.026Z</time></trkpt><trkpt lat="42.9065107506517" lon="11.245664541692175"><ele>71.0</ele><time>2026-03-22T13:43:24.026Z</time></trkpt><trkpt lat="42.90630995020109" lon="11.245409568739532"><ele>72.0</ele><time>2026-03-22T13:43:25.026Z</time></trkpt><trkpt lat="42.906109389803895" lon="11.245151194837115"><ele>73.0</ele><time>2026-03-22T13:43:26.026Z</time></trkpt><trkpt lat="42.90591016173187" lon="11.244898403453368"><ele>73.0</ele><time>2026-03-22T13:43:27.026Z</time></trkpt><trkpt lat="42.905708744577716" lon="11.244640474519384"><ele>73.0</ele><time>2026-03-22T13:43:28.026Z</time></trkpt><trkpt lat="42.9055066840767" lon="11.244385312180858"><ele>73.0</ele><time>2026-03-22T13:43:29.026Z</time></trkpt><trkpt lat="42.90530862483968" lon="11.24413134791426"><ele>73.0</ele><time>2026-03-22T13:43:30.026Z</time></trkpt><trkpt lat="42.9051072315697" lon="11.243876032354592"><ele>76.5</ele><time>2026-03-22T13:43:31.026Z</time></trkpt><trkpt lat="42.904904200621495" lon="11.243619909054255"><ele>80.0</ele><time>2026-03-22T13:43:32.026Z</time></trkpt><trkpt lat="42.90470219998767" lon="11.24336620939379"><ele>83.5</ele><time>2026-03-22T13:43:33.026Z</time></trkpt><trkpt lat="42.90449892402522" lon="11.243110450782384"><ele>87.0</ele><time>2026-03-22T13:43:34.026Z</time></trkpt><trkpt lat="42.90429131083752" lon="11.24285983374129"><ele>83.0</ele><time>2026-03-22T13:43:35.026Z</time></trkpt><trkpt lat="42.904079705914455" lon="11.242619161491003"><ele>79.0</ele><time>2026-03-22T13:43:36.026Z</time></trkpt><trkpt lat="42.903859498389146" lon="11.242393806550641"><ele>80.0</ele><time>2026-03-22T13:43:37.026Z</time></trkpt><trkpt lat="42.9036340394793" lon="11.242179963750726"><ele>81.0</ele><time>2026-03-22T13:43:38.026Z</time></trkpt><trkpt lat="42.903401864184964" lon="11.241986138948498"><ele>81.0</ele><time>2026-03-22T13:43:39.026Z</time></trkpt><trkpt lat="42.903169922329575" lon="11.241797962752813"><ele>81.0</ele><time>2026-03-22T13:43:40.026Z</time></trkpt><trkpt lat="42.902923883971944" lon="11.24163361630486"><ele>81.0</ele><time>2026-03-22T13:43:41.026Z</time></trkpt><trkpt lat="42.90267315683028" lon="11.241477726133313"><ele>81.0</ele><time>2026-03-22T13:43:42.026Z</time></trkpt><trkpt lat="42.902417114583095" lon="11.24133925016078"><ele>80.5</ele><time>2026-03-22T13:43:43.026Z</time></trkpt><trkpt lat="42.90215732643343" lon="11.241211291178091"><ele>80.0</ele><time>2026-03-22T13:43:44.026Z</time></trkpt><trkpt lat="42.90189448036606" lon="11.241100679547428"><ele>80.0</ele><time>2026-03-22T13:43:45.026Z</time></trkpt><trkpt lat="42.90162903606674" lon="11.241003041427978"><ele>80.0</ele><time>2026-03-22T13:43:46.026Z</time></trkpt><trkpt lat="42.90136567700894" lon="11.240893094645994"><ele>80.0</ele><time>2026-03-22T13:43:47.026Z</time></trkpt><trkpt lat="42.90110384368362" lon="11.240793305412874"><ele>80.0</ele><time>2026-03-22T13:43:48.026Z</time></trkpt><trkpt lat="42.900838446847295" lon="11.240686205257429"><ele>83.0</ele><time>2026-03-22T13:43:49.026Z</time></trkpt><trkpt lat="42.900577723239444" lon="11.24058650704362"><ele>86.0</ele><time>2026-03-22T13:43:50.026Z</time></trkpt><trkpt lat="42.90031353498536" lon="11.240482667510863"><ele>86.0</ele><time>2026-03-22T13:43:51.026Z</time></trkpt><trkpt lat="42.90004777923795" lon="11.240381948089368"><ele>86.0</ele><time>2026-03-22T13:43:52.026Z</time></trkpt><trkpt lat="42.89978043408132" lon="11.240280224187734"><ele>86.0</ele><time>2026-03-22T13:43:53.026Z</time></trkpt><trkpt lat="42.899515844873505" lon="11.240179598018342"><ele>86.0</ele><time>2026-03-22T13:43:54.026Z</time></trkpt><trkpt lat="42.89924996092097" lon="11.240081904073362"><ele>86.5</ele><time>2026-03-22T13:43:55.026Z</time></trkpt><trkpt lat="42.89898674170702" lon="11.239979408816502"><ele>87.0</ele><time>2026-03-22T13:43:56.026Z</time></trkpt><trkpt lat="42.898724832051066" lon="11.239878694495362"><ele>89.5</ele><time>2026-03-22T13:43:57.026Z</time></trkpt><trkpt lat="42.89845990388324" lon="11.239777483021337"><ele>92.0</ele><time>2026-03-22T13:43:58.026Z</time></trkpt><trkpt lat="42.8981951759066" lon="11.239676386473304"><ele>92.5</ele><time>2026-03-22T13:43:59.026Z</time></trkpt><trkpt lat="42.89793031791973" lon="11.23957690158938"><ele>93.0</ele><time>2026-03-22T13:44:00.026Z</time></trkpt><trkpt lat="42.897665224003134" lon="11.239474618237"><ele>90.0</ele><time>2026-03-22T13:44:01.026Z</time></trkpt><trkpt lat="42.897398440377614" lon="11.239373691672748"><ele>87.0</ele><time>2026-03-22T13:44:02.026Z</time></trkpt><trkpt lat="42.897133539308214" lon="11.23927105578314"><ele>87.0</ele><time>2026-03-22T13:44:03.026Z</time></trkpt><trkpt lat="42.896867545783316" lon="11.239169822813025"><ele>87.0</ele><time>2026-03-22T13:44:04.026Z</time></trkpt><trkpt lat="42.896604686801965" lon="11.239068045988034"><ele>87.5</ele><time>2026-03-22T13:44:05.026Z</time></trkpt><trkpt lat="42.8963392067912" lon="11.238968143447295"><ele>88.0</ele><time>2026-03-22T13:44:06.026Z</time></trkpt><trkpt lat="42.896072241837715" lon="11.238865134227922"><ele>89.0</ele><time>2026-03-22T13:44:07.026Z</time></trkpt><trkpt lat="42.89580822508943" lon="11.238762253279033"><ele>90.0</ele><time>2026-03-22T13:44:08.026Z</time></trkpt><trkpt lat="42.89554200857686" lon="11.238660057016824"><ele>90.0</ele><time>2026-03-22T13:44:09.026Z</time></trkpt><trkpt lat="42.89527792492507" lon="11.238555421430016"><ele>90.0</ele><time>2026-03-22T13:44:10.026Z</time></trkpt><trkpt lat="42.8950135492225" lon="11.238453328022443"><ele>91.0</ele><time>2026-03-22T13:44:11.026Z</time></trkpt><trkpt lat="42.894750189106794" lon="11.238352177737449"><ele>92.0</ele><time>2026-03-22T13:44:12.026Z</time></trkpt><trkpt lat="42.89448592386299" lon="11.238253738647135"><ele>92.5</ele><time>2026-03-22T13:44:13.026Z</time></trkpt><trkpt lat="42.89422225204008" lon="11.238153117706858"><ele>93.0</ele><time>2026-03-22T13:44:14.026Z</time></trkpt><trkpt lat="42.8939564582792" lon="11.238052540235312"><ele>93.0</ele><time>2026-03-22T13:44:15.026Z</time></trkpt><trkpt lat="42.89369157927695" lon="11.237953601780143"><ele>93.0</ele><time>2026-03-22T13:44:16.026Z</time></trkpt><trkpt lat="42.89342646716474" lon="11.23785500897235"><ele>92.5</ele><time>2026-03-22T13:44:17.026Z</time></trkpt><trkpt lat="42.893162347122185" lon="11.237756575404726"><ele>92.0</ele><time>2026-03-22T13:44:18.026Z</time></trkpt><trkpt lat="42.89289948335289" lon="11.237654924564156"><ele>92.0</ele><time>2026-03-22T13:44:19.026Z</time></trkpt><trkpt lat="42.89263369771309" lon="11.23755454955361"><ele>92.0</ele><time>2026-03-22T13:44:20.026Z</time></trkpt><trkpt lat="42.89237030904" lon="11.237452267567486"><ele>93.0</ele><time>2026-03-22T13:44:21.026Z</time></trkpt><trkpt lat="42.89210572410761" lon="11.23734362398482"><ele>94.0</ele><time>2026-03-22T13:44:22.026Z</time></trkpt><trkpt lat="42.89184157805052" lon="11.237222948546885"><ele>94.0</ele><time>2026-03-22T13:44:23.026Z</time></trkpt><trkpt lat="42.891580082180305" lon="11.237090529223794"><ele>94.0</ele><time>2026-03-22T13:44:24.026Z</time></trkpt><trkpt lat="42.89132791679903" lon="11.236931365811843"><ele>94.0</ele><time>2026-03-22T13:44:25.026Z</time></trkpt><trkpt lat="42.891084442891795" lon="11.2367562094186"><ele>94.0</ele><time>2026-03-22T13:44:26.026Z</time></trkpt><trkpt lat="42.89084905516163" lon="11.236569782905262"><ele>94.0</ele><time>2026-03-22T13:44:27.026Z</time></trkpt><trkpt lat="42.8906156626121" lon="11.236378886531394"><ele>94.0</ele><time>2026-03-22T13:44:28.026Z</time></trkpt><trkpt lat="42.89038121855259" lon="11.236179631354837"><ele>94.0</ele><time>2026-03-22T13:44:29.026Z</time></trkpt><trkpt lat="42.89014717096537" lon="11.235978695179003"><ele>94.0</ele><time>2026-03-22T13:44:30.025Z</time></trkpt><trkpt lat="42.88990986068912" lon="11.235778683173628"><ele>94.5</ele><time>2026-03-22T13:44:31.025Z</time></trkpt><trkpt lat="42.88967666117143" lon="11.235574283863743"><ele>95.0</ele><time>2026-03-22T13:44:32.025Z</time></trkpt><trkpt lat="42.889449636527814" lon="11.235365117902894"><ele>95.0</ele><time>2026-03-22T13:44:33.025Z</time></trkpt><trkpt lat="42.88923466060794" lon="11.235158835619654"><ele>95.0</ele><time>2026-03-22T13:44:34.025Z</time></trkpt><trkpt lat="42.88902972635172" lon="11.234960882080873"><ele>96.5</ele><time>2026-03-22T13:44:35.025Z</time></trkpt><trkpt lat="42.88883036936281" lon="11.234764280621707"><ele>98.0</ele><time>2026-03-22T13:44:36.025Z</time></trkpt><trkpt lat="42.88863973937864" lon="11.234558510418681"><ele>98.0</ele><time>2026-03-22T13:44:37.025Z</time></trkpt><trkpt lat="42.88845814609945" lon="11.234345214806806"><ele>98.0</ele><time>2026-03-22T13:44:38.025Z</time></trkpt><trkpt lat="42.88829038335406" lon="11.234130885543694"><ele>98.5</ele><time>2026-03-22T13:44:39.025Z</time></trkpt><trkpt lat="42.88813220191474" lon="11.23390420896493"><ele>99.0</ele><time>2026-03-22T13:44:40.025Z</time></trkpt><trkpt lat="42.8879788931588" lon="11.233660420207864"><ele>99.0</ele><time>2026-03-22T13:44:41.025Z</time></trkpt><trkpt lat="42.88783240946506" lon="11.23339986379345"><ele>99.0</ele><time>2026-03-22T13:44:42.025Z</time></trkpt><trkpt lat="42.88769526244577" lon="11.23313608964894"><ele>99.5</ele><time>2026-03-22T13:44:43.025Z</time></trkpt><trkpt lat="42.88756808813711" lon="11.232858006503086"><ele>100.0</ele><time>2026-03-22T13:44:44.025Z</time></trkpt><trkpt lat="42.88744843658321" lon="11.232561222981934"><ele>101.0</ele><time>2026-03-22T13:44:45.025Z</time></trkpt><trkpt lat="42.88734204490184" lon="11.23226084460804"><ele>102.0</ele><time>2026-03-22T13:44:46.025Z</time></trkpt><trkpt lat="42.88724894714722" lon="11.23195730129337"><ele>102.0</ele><time>2026-03-22T13:44:47.025Z</time></trkpt><trkpt lat="42.88717163483654" lon="11.23165102480902"><ele>102.0</ele><time>2026-03-22T13:44:48.025Z</time></trkpt><trkpt lat="42.88710847617072" lon="11.231341575752403"><ele>102.0</ele><time>2026-03-22T13:44:49.025Z</time></trkpt><trkpt lat="42.88705307211921" lon="11.231023092335608"><ele>102.0</ele><time>2026-03-22T13:44:50.025Z</time></trkpt><trkpt lat="42.88701312462014" lon="11.230711703950575"><ele>101.5</ele><time>2026-03-22T13:44:51.025Z</time></trkpt><trkpt lat="42.88698369247819" lon="11.230394064016954"><ele>101.0</ele><time>2026-03-22T13:44:52.025Z</time></trkpt><trkpt lat="42.88696129348377" lon="11.230074565308081"><ele>100.0</ele><time>2026-03-22T13:44:53.025Z</time></trkpt><trkpt lat="42.88694142008256" lon="11.229757100622919"><ele>99.0</ele><time>2026-03-22T13:44:54.025Z</time></trkpt><trkpt lat="42.88692487856484" lon="11.229438577038273"><ele>99.0</ele><time>2026-03-22T13:44:55.025Z</time></trkpt><trkpt lat="42.886910660130795" lon="11.229121805441121"><ele>99.0</ele><time>2026-03-22T13:44:56.025Z</time></trkpt><trkpt lat="42.88689772223571" lon="11.228797779875292"><ele>99.5</ele><time>2026-03-22T13:44:57.025Z</time></trkpt><trkpt lat="42.88688498553962" lon="11.22847100864552"><ele>100.0</ele><time>2026-03-22T13:44:58.025Z</time></trkpt><trkpt lat="42.88687320755974" lon="11.228142375456299"><ele>99.0</ele><time>2026-03-22T13:44:59.027Z</time></trkpt><trkpt lat="42.886864192019075" lon="11.227810552468624"><ele>98.0</ele><time>2026-03-22T13:45:00.027Z</time></trkpt><trkpt lat="42.88685724899435" lon="11.227484022386752"><ele>98.0</ele><time>2026-03-22T13:45:01.027Z</time></trkpt><trkpt lat="42.88685422367646" lon="11.227152898463316"><ele>98.0</ele><time>2026-03-22T13:45:02.027Z</time></trkpt><trkpt lat="42.886849102991974" lon="11.226831056762013"><ele>98.0</ele><time>2026-03-22T13:45:03.028Z</time></trkpt><trkpt lat="42.88683654727406" lon="11.226513688104918"><ele>98.0</ele><time>2026-03-22T13:45:04.028Z</time></trkpt><trkpt lat="42.88682304882732" lon="11.226199525705853"><ele>98.5</ele><time>2026-03-22T13:45:05.028Z</time></trkpt><trkpt lat="42.88679997465452" lon="11.2258870912632"><ele>99.0</ele><time>2026-03-22T13:45:06.027Z</time></trkpt><trkpt lat="42.886772624722205" lon="11.225571268149046"><ele>102.5</ele><time>2026-03-22T13:45:07.027Z</time></trkpt><trkpt lat="42.88673987653353" lon="11.225260748073426"><ele>106.0</ele><time>2026-03-22T13:45:08.028Z</time></trkpt><trkpt lat="42.88669878117834" lon="11.224950563033092"><ele>107.0</ele><time>2026-03-22T13:45:09.027Z</time></trkpt><trkpt lat="42.8866426018452" lon="11.224647947907945"><ele>108.0</ele><time>2026-03-22T13:45:10.027Z</time></trkpt><trkpt lat="42.88657175021185" lon="11.224345056590442"><ele>108.0</ele><time>2026-03-22T13:45:11.028Z</time></trkpt><trkpt lat="42.886492288858726" lon="11.224045636591873"><ele>108.0</ele><time>2026-03-22T13:45:12.027Z</time></trkpt><trkpt lat="42.88639834831006" lon="11.2237516918415"><ele>109.0</ele><time>2026-03-22T13:45:13.027Z</time></trkpt><trkpt lat="42.88629063507595" lon="11.22346191646384"><ele>110.0</ele><time>2026-03-22T13:45:14.027Z</time></trkpt><trkpt lat="42.88617266558729" lon="11.223178732955343"><ele>111.0</ele><time>2026-03-22T13:45:15.027Z</time></trkpt><trkpt lat="42.88604294933041" lon="11.222901981677879"><ele>112.0</ele><time>2026-03-22T13:45:16.027Z</time></trkpt><trkpt lat="42.88590517798725" lon="11.222636039826906"><ele>112.0</ele><time>2026-03-22T13:45:17.027Z</time></trkpt><trkpt lat="42.88575761638419" lon="11.22238219857086"><ele>112.0</ele><time>2026-03-22T13:45:18.027Z</time></trkpt><trkpt lat="42.88559619638372" lon="11.222139262933043"><ele>115.5</ele><time>2026-03-22T13:45:19.027Z</time></trkpt><trkpt lat="42.885427632674414" lon="11.221898770938434"><ele>119.0</ele><time>2026-03-22T13:45:20.027Z</time></trkpt><trkpt lat="42.885248780068984" lon="11.221675457992593"><ele>120.0</ele><time>2026-03-22T13:45:21.027Z</time></trkpt><trkpt lat="42.88506428236005" lon="11.221461004301736"><ele>121.0</ele><time>2026-03-22T13:45:22.027Z</time></trkpt><trkpt lat="42.88487088513928" lon="11.22126138302023"><ele>121.0</ele><time>2026-03-22T13:45:23.027Z</time></trkpt><trkpt lat="42.884673328428484" lon="11.221075985324187"><ele>121.0</ele><time>2026-03-22T13:45:24.027Z</time></trkpt><trkpt lat="42.88447166426103" lon="11.220895816111705"><ele>121.0</ele><time>2026-03-22T13:45:25.027Z</time></trkpt><trkpt lat="42.88427304256927" lon="11.220720384228844"><ele>121.0</ele><time>2026-03-22T13:45:26.027Z</time></trkpt><trkpt lat="42.88406796877199" lon="11.220548631285832"><ele>125.0</ele><time>2026-03-22T13:45:27.027Z</time></trkpt><trkpt lat="42.88386684046242" lon="11.220376529526675"><ele>129.0</ele><time>2026-03-22T13:45:28.027Z</time></trkpt><trkpt lat="42.88366626005305" lon="11.220202115053974"><ele>129.0</ele><time>2026-03-22T13:45:29.027Z</time></trkpt><trkpt lat="42.88346568499344" lon="11.220028802197861"><ele>129.0</ele><time>2026-03-22T13:45:30.027Z</time></trkpt><trkpt lat="42.883266087609606" lon="11.219855514698372"><ele>127.5</ele><time>2026-03-22T13:45:31.027Z</time></trkpt><trkpt lat="42.88306657977914" lon="11.219681314893693"><ele>126.0</ele><time>2026-03-22T13:45:32.027Z</time></trkpt><trkpt lat="42.882866969442944" lon="11.219509931462769"><ele>126.0</ele><time>2026-03-22T13:45:33.027Z</time></trkpt><trkpt lat="42.88266647117267" lon="11.219338952682907"><ele>126.0</ele><time>2026-03-22T13:45:34.027Z</time></trkpt><trkpt lat="42.88246547177269" lon="11.21916939453471"><ele>124.0</ele><time>2026-03-22T13:45:35.027Z</time></trkpt><trkpt lat="42.88226860196362" lon="11.218999668489719"><ele>122.0</ele><time>2026-03-22T13:45:36.027Z</time></trkpt><trkpt lat="42.88207030111735" lon="11.218827013736744"><ele>124.5</ele><time>2026-03-22T13:45:37.027Z</time></trkpt><trkpt lat="42.8818746647806" lon="11.21864921257322"><ele>127.0</ele><time>2026-03-22T13:45:38.027Z</time></trkpt><trkpt lat="42.881680936384875" lon="11.218466164978421"><ele>127.0</ele><time>2026-03-22T13:45:39.027Z</time></trkpt><trkpt lat="42.88148655570618" lon="11.218278218272365"><ele>127.0</ele><time>2026-03-22T13:45:40.027Z</time></trkpt><trkpt lat="42.8812937429464" lon="11.218087356945475"><ele>128.5</ele><time>2026-03-22T13:45:41.027Z</time></trkpt><trkpt lat="42.881105294073734" lon="11.217893161590268"><ele>130.0</ele><time>2026-03-22T13:45:42.027Z</time></trkpt><trkpt lat="42.88092389337416" lon="11.217690818019374"><ele>130.0</ele><time>2026-03-22T13:45:43.027Z</time></trkpt><trkpt lat="42.88074319366007" lon="11.21748455834229"><ele>130.0</ele><time>2026-03-22T13:45:44.027Z</time></trkpt><trkpt lat="42.880563185199165" lon="11.217276995971975"><ele>130.5</ele><time>2026-03-22T13:45:45.027Z</time></trkpt><trkpt lat="42.88038628828062" lon="11.217066798435452"><ele>131.0</ele><time>2026-03-22T13:45:46.027Z</time></trkpt><trkpt lat="42.88021096336753" lon="11.216847676625239"><ele>130.5</ele><time>2026-03-22T13:45:47.027Z</time></trkpt><trkpt lat="42.880037146962664" lon="11.216618989046976"><ele>130.0</ele><time>2026-03-22T13:45:48.027Z</time></trkpt><trkpt lat="42.879868663133585" lon="11.21638809945288"><ele>130.0</ele><time>2026-03-22T13:45:49.027Z</time></trkpt><trkpt lat="42.879700598208565" lon="11.216157887264966"><ele>130.0</ele><time>2026-03-22T13:45:50.027Z</time></trkpt><trkpt lat="42.879533341842475" lon="11.215922637057641"><ele>130.0</ele><time>2026-03-22T13:45:51.027Z</time></trkpt><trkpt lat="42.879369640153605" lon="11.215688336843796"><ele>130.0</ele><time>2026-03-22T13:45:52.027Z</time></trkpt><trkpt lat="42.879204152325286" lon="11.215451891081416"><ele>130.5</ele><time>2026-03-22T13:45:53.027Z</time></trkpt><trkpt lat="42.87903674898571" lon="11.215210834989815"><ele>131.0</ele><time>2026-03-22T13:45:54.027Z</time></trkpt><trkpt lat="42.87886684225163" lon="11.214962932281649"><ele>133.0</ele><time>2026-03-22T13:45:55.027Z</time></trkpt><trkpt lat="42.87869079519361" lon="11.214716619303118"><ele>135.0</ele><time>2026-03-22T13:45:56.027Z</time></trkpt><trkpt lat="42.8785121939572" lon="11.21446826193166"><ele>134.0</ele><time>2026-03-22T13:45:57.027Z</time></trkpt><trkpt lat="42.87833298599834" lon="11.214215410238404"><ele>133.0</ele><time>2026-03-22T13:45:58.027Z</time></trkpt><trkpt lat="42.87815054731016" lon="11.21396550536186"><ele>133.0</ele><time>2026-03-22T13:45:59.027Z</time></trkpt><trkpt lat="42.87796655482538" lon="11.21370866031991"><ele>133.0</ele><time>2026-03-22T13:46:00.027Z</time></trkpt><trkpt lat="42.87777735499058" lon="11.21344852616206"><ele>133.0</ele><time>2026-03-22T13:46:01.027Z</time></trkpt><trkpt lat="42.87758575772309" lon="11.213178895102685"><ele>133.0</ele><time>2026-03-22T13:46:02.027Z</time></trkpt><trkpt lat="42.87738993204756" lon="11.21290610920719"><ele>133.0</ele><time>2026-03-22T13:46:03.027Z</time></trkpt><trkpt lat="42.87719414456342" lon="11.21263328638776"><ele>133.0</ele><time>2026-03-22T13:46:04.027Z</time></trkpt><trkpt lat="42.87699956904412" lon="11.212363251181765"><ele>133.0</ele><time>2026-03-22T13:46:05.027Z</time></trkpt><trkpt lat="42.87680506824869" lon="11.212099357432578"><ele>133.0</ele><time>2026-03-22T13:46:06.027Z</time></trkpt><trkpt lat="42.87661295543871" lon="11.211833301918327"><ele>133.0</ele><time>2026-03-22T13:46:07.027Z</time></trkpt><trkpt lat="42.87641946549744" lon="11.211569928550457"><ele>133.0</ele><time>2026-03-22T13:46:08.027Z</time></trkpt><trkpt lat="42.87622829325705" lon="11.211303253753918"><ele>133.5</ele><time>2026-03-22T13:46:09.027Z</time></trkpt><trkpt lat="42.876039707154256" lon="11.211032889518732"><ele>134.0</ele><time>2026-03-22T13:46:10.027Z</time></trkpt><trkpt lat="42.875847926736036" lon="11.210768076697857"><ele>133.5</ele><time>2026-03-22T13:46:11.027Z</time></trkpt><trkpt lat="42.8756598692111" lon="11.210498297244389"><ele>133.0</ele><time>2026-03-22T13:46:12.027Z</time></trkpt><trkpt lat="42.87547121438183" lon="11.21023662522582"><ele>133.0</ele><time>2026-03-22T13:46:13.027Z</time></trkpt><trkpt lat="42.87528100616267" lon="11.209971087951144"><ele>133.0</ele><time>2026-03-22T13:46:14.027Z</time></trkpt><trkpt lat="42.87509278515109" lon="11.209708397970946"><ele>135.5</ele><time>2026-03-22T13:46:15.027Z</time></trkpt><trkpt lat="42.87490627945594" lon="11.209448163929363"><ele>138.0</ele><time>2026-03-22T13:46:16.027Z</time></trkpt><trkpt lat="42.874720547186314" lon="11.209187638482232"><ele>138.0</ele><time>2026-03-22T13:46:17.027Z</time></trkpt><trkpt lat="42.87452997639647" lon="11.208925170619734"><ele>138.0</ele><time>2026-03-22T13:46:18.027Z</time></trkpt><trkpt lat="42.87433992904668" lon="11.208666968130048"><ele>138.5</ele><time>2026-03-22T13:46:19.026Z</time></trkpt><trkpt lat="42.87414564449965" lon="11.208405649165801"><ele>139.0</ele><time>2026-03-22T13:46:20.026Z</time></trkpt><trkpt lat="42.873951816699325" lon="11.208149212347852"><ele>139.0</ele><time>2026-03-22T13:46:21.026Z</time></trkpt><trkpt lat="42.873754239229235" lon="11.207897135416307"><ele>139.0</ele><time>2026-03-22T13:46:22.026Z</time></trkpt><trkpt lat="42.87355423413473" lon="11.207649478922514"><ele>139.0</ele><time>2026-03-22T13:46:23.026Z</time></trkpt><trkpt lat="42.87334847914166" lon="11.207408872445436"><ele>139.0</ele><time>2026-03-22T13:46:24.026Z</time></trkpt><trkpt lat="42.87314108296997" lon="11.207171793313377"><ele>139.0</ele><time>2026-03-22T13:46:25.026Z</time></trkpt><trkpt lat="42.872931835748254" lon="11.206937776360611"><ele>139.0</ele><time>2026-03-22T13:46:26.026Z</time></trkpt><trkpt lat="42.872718323211245" lon="11.206703172855644"><ele>136.5</ele><time>2026-03-22T13:46:27.026Z</time></trkpt><trkpt lat="42.872504996681435" lon="11.206472447321692"><ele>134.0</ele><time>2026-03-22T13:46:28.026Z</time></trkpt><trkpt lat="42.87228817887561" lon="11.206247902091743"><ele>134.0</ele><time>2026-03-22T13:46:29.026Z</time></trkpt><trkpt lat="42.872071016584556" lon="11.20602791575342"><ele>134.0</ele><time>2026-03-22T13:46:30.026Z</time></trkpt><trkpt lat="42.8718535647451" lon="11.20581219729336"><ele>133.0</ele><time>2026-03-22T13:46:31.026Z</time></trkpt><trkpt lat="42.871634599789886" lon="11.20559774616966"><ele>132.0</ele><time>2026-03-22T13:46:32.026Z</time></trkpt><trkpt lat="42.87141682747421" lon="11.205382406419673"><ele>132.0</ele><time>2026-03-22T13:46:33.026Z</time></trkpt><trkpt lat="42.871196233128885" lon="11.20516285921537"><ele>132.0</ele><time>2026-03-22T13:46:34.026Z</time></trkpt><trkpt lat="42.87097518274079" lon="11.20494615720584"><ele>131.0</ele><time>2026-03-22T13:46:35.026Z</time></trkpt><trkpt lat="42.870755197067986" lon="11.204729364834183"><ele>130.0</ele><time>2026-03-22T13:46:36.026Z</time></trkpt><trkpt lat="42.87053407474631" lon="11.204513813001416"><ele>130.0</ele><time>2026-03-22T13:46:37.026Z</time></trkpt><trkpt lat="42.870313360598104" lon="11.204299257906952"><ele>130.0</ele><time>2026-03-22T13:46:38.026Z</time></trkpt><trkpt lat="42.87009302625934" lon="11.204083951859428"><ele>129.5</ele><time>2026-03-22T13:46:39.026Z</time></trkpt><trkpt lat="42.86987375286579" lon="11.203868371049552"><ele>129.0</ele><time>2026-03-22T13:46:40.026Z</time></trkpt><trkpt lat="42.869655617050164" lon="11.203653630617744"><ele>129.0</ele><time>2026-03-22T13:46:41.026Z</time></trkpt><trkpt lat="42.86943758117422" lon="11.203436668222697"><ele>129.0</ele><time>2026-03-22T13:46:42.026Z</time></trkpt><trkpt lat="42.8692162380899" lon="11.203230795799978"><ele>132.0</ele><time>2026-03-22T13:46:43.026Z</time></trkpt><trkpt lat="42.86899688586564" lon="11.203019430985167"><ele>135.0</ele><time>2026-03-22T13:46:44.026Z</time></trkpt><trkpt lat="42.86878255725461" lon="11.202806012078772"><ele>135.0</ele><time>2026-03-22T13:46:45.026Z</time></trkpt><trkpt lat="42.868580029272664" lon="11.20260477501581"><ele>135.0</ele><time>2026-03-22T13:46:46.026Z</time></trkpt><trkpt lat="42.86837836395145" lon="11.20241242541961"><ele>136.0</ele><time>2026-03-22T13:46:47.026Z</time></trkpt><trkpt lat="42.86819535671382" lon="11.20223409757362"><ele>137.0</ele><time>2026-03-22T13:46:48.026Z</time></trkpt><trkpt lat="42.868020807434306" lon="11.202060710032157"><ele>138.0</ele><time>2026-03-22T13:46:49.026Z</time></trkpt><trkpt lat="42.86784651039641" lon="11.201884189863925"><ele>138.0</ele><time>2026-03-22T13:46:50.026Z</time></trkpt><trkpt lat="42.86767070883483" lon="11.201708160342717"><ele>138.0</ele><time>2026-03-22T13:46:51.026Z</time></trkpt><trkpt lat="42.86749149953642" lon="11.20153167568304"><ele>138.0</ele><time>2026-03-22T13:46:52.026Z</time></trkpt><trkpt lat="42.86730878972658" lon="11.20135665697133"><ele>138.5</ele><time>2026-03-22T13:46:53.026Z</time></trkpt><trkpt lat="42.86712060300744" lon="11.20117816134355"><ele>139.0</ele><time>2026-03-22T13:46:54.026Z</time></trkpt><trkpt lat="42.866922399240195" lon="11.200990967773077"><ele>139.0</ele><time>2026-03-22T13:46:55.026Z</time></trkpt><trkpt lat="42.8667203605255" lon="11.20079896940206"><ele>139.0</ele><time>2026-03-22T13:46:56.026Z</time></trkpt><trkpt lat="42.86652025887576" lon="11.200596426013144"><ele>139.0</ele><time>2026-03-22T13:46:57.026Z</time></trkpt><trkpt lat="42.866311229549225" lon="11.200391372382732"><ele>139.0</ele><time>2026-03-22T13:46:58.026Z</time></trkpt><trkpt lat="42.86610182583073" lon="11.200187200602086"><ele>141.0</ele><time>2026-03-22T13:46:59.026Z</time></trkpt><trkpt lat="42.86589118280714" lon="11.199981246959895"><ele>143.0</ele><time>2026-03-22T13:47:00.026Z</time></trkpt><trkpt lat="42.86568083538662" lon="11.199771020834238"><ele>143.0</ele><time>2026-03-22T13:47:01.026Z</time></trkpt><trkpt lat="42.865471076017094" lon="11.199554786082881"><ele>143.0</ele><time>2026-03-22T13:47:02.026Z</time></trkpt><trkpt lat="42.86526438076656" lon="11.199332042203142"><ele>143.5</ele><time>2026-03-22T13:47:03.026Z</time></trkpt><trkpt lat="42.86506532826852" lon="11.199096735169125"><ele>144.0</ele><time>2026-03-22T13:47:04.026Z</time></trkpt><trkpt lat="42.86486843853086" lon="11.198851250832893"><ele>146.0</ele><time>2026-03-22T13:47:05.029Z</time></trkpt><trkpt lat="42.86467797502545" lon="11.1985998284488"><ele>148.0</ele><time>2026-03-22T13:47:06.028Z</time></trkpt><trkpt lat="42.86450187859454" lon="11.198323285389037"><ele>153.0</ele><time>2026-03-22T13:47:07.028Z</time></trkpt><trkpt lat="42.86433532268321" lon="11.198034476334898"><ele>158.0</ele><time>2026-03-22T13:47:08.029Z</time></trkpt><trkpt lat="42.86418083493115" lon="11.197731971460373"><ele>158.0</ele><time>2026-03-22T13:47:09.029Z</time></trkpt><trkpt lat="42.864035542966654" lon="11.197420303492423"><ele>158.0</ele><time>2026-03-22T13:47:10.029Z</time></trkpt><trkpt lat="42.86390678331885" lon="11.197096811475795"><ele>163.5</ele><time>2026-03-22T13:47:11.029Z</time></trkpt><trkpt lat="42.86377969969568" lon="11.19676863974901"><ele>169.0</ele><time>2026-03-22T13:47:12.029Z</time></trkpt><trkpt lat="42.86366712880107" lon="11.196427559130894"><ele>172.5</ele><time>2026-03-22T13:47:13.029Z</time></trkpt><trkpt lat="42.86356709545915" lon="11.196081182620178"><ele>176.0</ele><time>2026-03-22T13:47:14.029Z</time></trkpt><trkpt lat="42.863480833621395" lon="11.195724930325747"><ele>168.5</ele><time>2026-03-22T13:47:15.029Z</time></trkpt><trkpt lat="42.86340056142824" lon="11.195370476762262"><ele>161.0</ele><time>2026-03-22T13:47:16.029Z</time></trkpt><trkpt lat="42.8633319412544" lon="11.195020589301283"><ele>164.0</ele><time>2026-03-22T13:47:17.029Z</time></trkpt><trkpt lat="42.8632694601493" lon="11.194674395429512"><ele>167.0</ele><time>2026-03-22T13:47:18.029Z</time></trkpt><trkpt lat="42.86321462784377" lon="11.194325706961703"><ele>169.0</ele><time>2026-03-22T13:47:19.029Z</time></trkpt><trkpt lat="42.86316283452739" lon="11.193981467942857"><ele>171.0</ele><time>2026-03-22T13:47:20.029Z</time></trkpt><trkpt lat="42.86310908103126" lon="11.193641570633279"><ele>171.0</ele><time>2026-03-22T13:47:21.029Z</time></trkpt><trkpt lat="42.86305078357481" lon="11.193301773057595"><ele>171.0</ele><time>2026-03-22T13:47:22.029Z</time></trkpt><trkpt lat="42.86298451529644" lon="11.192966192669466"><ele>172.5</ele><time>2026-03-22T13:47:23.029Z</time></trkpt><trkpt lat="42.862907389694996" lon="11.192622506365712"><ele>174.0</ele><time>2026-03-22T13:47:24.029Z</time></trkpt><trkpt lat="42.86283869416668" lon="11.192286783913014"><ele>176.5</ele><time>2026-03-22T13:47:25.029Z</time></trkpt><trkpt lat="42.86275484886329" lon="11.191952265582765"><ele>179.0</ele><time>2026-03-22T13:47:26.029Z</time></trkpt><trkpt lat="42.86266224754935" lon="11.191621908067736"><ele>170.0</ele><time>2026-03-22T13:47:27.029Z</time></trkpt><trkpt lat="42.86256292514172" lon="11.19129496443587"><ele>161.0</ele><time>2026-03-22T13:47:28.029Z</time></trkpt><trkpt lat="42.86245432850003" lon="11.190974030452653"><ele>165.0</ele><time>2026-03-22T13:47:29.029Z</time></trkpt><trkpt lat="42.862338056617844" lon="11.1906619048491"><ele>169.0</ele><time>2026-03-22T13:47:30.029Z</time></trkpt><trkpt lat="42.862210725901924" lon="11.190354106768035"><ele>169.0</ele><time>2026-03-22T13:47:31.029Z</time></trkpt><trkpt lat="42.8620738813767" lon="11.190054896556635"><ele>169.0</ele><time>2026-03-22T13:47:32.029Z</time></trkpt><trkpt lat="42.86193062785869" lon="11.189761914693143"><ele>162.0</ele><time>2026-03-22T13:47:33.029Z</time></trkpt><trkpt lat="42.86177769926092" lon="11.189478502827043"><ele>155.0</ele><time>2026-03-22T13:47:34.028Z</time></trkpt><trkpt lat="42.86161535473177" lon="11.189205869594453"><ele>154.5</ele><time>2026-03-22T13:47:35.028Z</time></trkpt><trkpt lat="42.86144607728321" lon="11.18893918655911"><ele>154.0</ele><time>2026-03-22T13:47:36.028Z</time></trkpt><trkpt lat="42.861268359944496" lon="11.188679891958076"><ele>154.0</ele><time>2026-03-22T13:47:37.028Z</time></trkpt><trkpt lat="42.86108832622367" lon="11.188424456828846"><ele>154.0</ele><time>2026-03-22T13:47:38.028Z</time></trkpt><trkpt lat="42.86089959696309" lon="11.188174732041253"><ele>149.0</ele><time>2026-03-22T13:47:39.028Z</time></trkpt><trkpt lat="42.86071140151267" lon="11.187931216817013"><ele>144.0</ele><time>2026-03-22T13:47:40.028Z</time></trkpt><trkpt lat="42.86051997477409" lon="11.187691230102923"><ele>144.0</ele><time>2026-03-22T13:47:41.028Z</time></trkpt><trkpt lat="42.860332408983204" lon="11.187454743706319"><ele>144.0</ele><time>2026-03-22T13:47:42.028Z</time></trkpt><trkpt lat="42.86013917438849" lon="11.18721679184677"><ele>144.0</ele><time>2026-03-22T13:47:43.028Z</time></trkpt><trkpt lat="42.85994954187433" lon="11.186982462856577"><ele>144.0</ele><time>2026-03-22T13:47:44.028Z</time></trkpt><trkpt lat="42.85976270223351" lon="11.186742411780495"><ele>153.0</ele><time>2026-03-22T13:47:45.028Z</time></trkpt><trkpt lat="42.859576225787876" lon="11.186506444483834"><ele>162.0</ele><time>2026-03-22T13:47:46.028Z</time></trkpt><trkpt lat="42.85939295457284" lon="11.18625647799643"><ele>150.5</ele><time>2026-03-22T13:47:47.028Z</time></trkpt><trkpt lat="42.85921384769467" lon="11.186000653321942"><ele>139.0</ele><time>2026-03-22T13:47:48.028Z</time></trkpt><trkpt lat="42.85904039861594" lon="11.185741166740302"><ele>148.5</ele><time>2026-03-22T13:47:49.028Z</time></trkpt><trkpt lat="42.858873093452395" lon="11.185474128538777"><ele>158.0</ele><time>2026-03-22T13:47:50.028Z</time></trkpt><trkpt lat="42.85870938115967" lon="11.185201503241354"><ele>158.0</ele><time>2026-03-22T13:47:51.028Z</time></trkpt><trkpt lat="42.858553210571756" lon="11.18492165383106"><ele>158.0</ele><time>2026-03-22T13:47:52.028Z</time></trkpt><trkpt lat="42.85840411179968" lon="11.184632733301688"><ele>145.0</ele><time>2026-03-22T13:47:53.028Z</time></trkpt><trkpt lat="42.85826034610967" lon="11.184340136367016"><ele>132.0</ele><time>2026-03-22T13:47:54.028Z</time></trkpt><trkpt lat="42.85812013402597" lon="11.18404284934598"><ele>130.5</ele><time>2026-03-22T13:47:55.028Z</time></trkpt><trkpt lat="42.85799131869739" lon="11.183740934251167"><ele>129.0</ele><time>2026-03-22T13:47:56.028Z</time></trkpt><trkpt lat="42.857866534420666" lon="11.183431578174265"><ele>126.0</ele><time>2026-03-22T13:47:57.028Z</time></trkpt><trkpt lat="42.857745806905356" lon="11.18312099735434"><ele>123.0</ele><time>2026-03-22T13:47:58.028Z</time></trkpt><trkpt lat="42.85762653821308" lon="11.182809622904841"><ele>122.0</ele><time>2026-03-22T13:47:59.028Z</time></trkpt><trkpt lat="42.857506388673066" lon="11.18249690201905"><ele>121.0</ele><time>2026-03-22T13:48:00.028Z</time></trkpt><trkpt lat="42.85738717370268" lon="11.182181068004626"><ele>119.0</ele><time>2026-03-22T13:48:01.028Z</time></trkpt><trkpt lat="42.85727013272298" lon="11.181866647441993"><ele>117.0</ele><time>2026-03-22T13:48:02.028Z</time></trkpt><trkpt lat="42.85715090254919" lon="11.181551046851832"><ele>112.5</ele><time>2026-03-22T13:48:03.028Z</time></trkpt><trkpt lat="42.85703492847735" lon="11.181234117274844"><ele>108.0</ele><time>2026-03-22T13:48:04.028Z</time></trkpt><trkpt lat="42.85692169444631" lon="11.180918618079648"><ele>107.0</ele><time>2026-03-22T13:48:05.028Z</time></trkpt><trkpt lat="42.85680607855775" lon="11.18060844048249"><ele>106.0</ele><time>2026-03-22T13:48:06.028Z</time></trkpt><trkpt lat="42.85669243201731" lon="11.180298220867849"><ele>106.0</ele><time>2026-03-22T13:48:07.028Z</time></trkpt><trkpt lat="42.8565767305991" lon="11.179983553652427"><ele>106.0</ele><time>2026-03-22T13:48:08.028Z</time></trkpt><trkpt lat="42.85646217710379" lon="11.179665273304558"><ele>104.5</ele><time>2026-03-22T13:48:09.028Z</time></trkpt><trkpt lat="42.85634842544027" lon="11.17934459489201"><ele>103.0</ele><time>2026-03-22T13:48:10.028Z</time></trkpt><trkpt lat="42.85623210747764" lon="11.179023608653681"><ele>100.5</ele><time>2026-03-22T13:48:11.028Z</time></trkpt><trkpt lat="42.85611251046211" lon="11.178699612397377"><ele>98.0</ele><time>2026-03-22T13:48:12.028Z</time></trkpt><trkpt lat="42.85599598541933" lon="11.178375936763056"><ele>97.0</ele><time>2026-03-22T13:48:13.028Z</time></trkpt><trkpt lat="42.85587452005886" lon="11.178051578355818"><ele>96.0</ele><time>2026-03-22T13:48:14.028Z</time></trkpt><trkpt lat="42.85575113925497" lon="11.177728131919023"><ele>96.0</ele><time>2026-03-22T13:48:15.028Z</time></trkpt><trkpt lat="42.85563228262868" lon="11.177407265186357"><ele>96.0</ele><time>2026-03-22T13:48:16.028Z</time></trkpt><trkpt lat="42.85550933919968" lon="11.177078930136716"><ele>94.0</ele><time>2026-03-22T13:48:17.028Z</time></trkpt><trkpt lat="42.85538851057968" lon="11.176751849991291"><ele>92.0</ele><time>2026-03-22T13:48:18.028Z</time></trkpt><trkpt lat="42.85526654414041" lon="11.176425774323574"><ele>90.5</ele><time>2026-03-22T13:48:19.028Z</time></trkpt><trkpt lat="42.85514625064106" lon="11.176099957963405"><ele>89.0</ele><time>2026-03-22T13:48:20.028Z</time></trkpt><trkpt lat="42.85502526565844" lon="11.175770293719042"><ele>87.5</ele><time>2026-03-22T13:48:21.028Z</time></trkpt><trkpt lat="42.85490508094976" lon="11.175440054201303"><ele>86.0</ele><time>2026-03-22T13:48:22.028Z</time></trkpt><trkpt lat="42.85478553944355" lon="11.175109691519689"><ele>82.0</ele><time>2026-03-22T13:48:23.028Z</time></trkpt><trkpt lat="42.854672207411404" lon="11.174778589285722"><ele>78.0</ele><time>2026-03-22T13:48:24.028Z</time></trkpt><trkpt lat="42.85456382887151" lon="11.174441236401968"><ele>78.0</ele><time>2026-03-22T13:48:25.028Z</time></trkpt><trkpt lat="42.854456247833085" lon="11.17410595683921"><ele>78.0</ele><time>2026-03-22T13:48:26.028Z</time></trkpt><trkpt lat="42.8543556540893" lon="11.173766630452004"><ele>76.0</ele><time>2026-03-22T13:48:27.028Z</time></trkpt><trkpt lat="42.854265032369675" lon="11.173420112130442"><ele>74.0</ele><time>2026-03-22T13:48:28.028Z</time></trkpt><trkpt lat="42.85418397548841" lon="11.17306966947528"><ele>73.0</ele><time>2026-03-22T13:48:29.028Z</time></trkpt><trkpt lat="42.85411176203902" lon="11.172716740471047"><ele>72.0</ele><time>2026-03-22T13:48:30.028Z</time></trkpt><trkpt lat="42.854045783136726" lon="11.172360850441333"><ele>71.5</ele><time>2026-03-22T13:48:31.028Z</time></trkpt><trkpt lat="42.85396502733517" lon="11.17201320961814"><ele>71.0</ele><time>2026-03-22T13:48:32.028Z</time></trkpt><trkpt lat="42.853932758734246" lon="11.171646174634352"><ele>71.0</ele><time>2026-03-22T13:48:33.028Z</time></trkpt><trkpt lat="42.853887880349404" lon="11.171286767748786"><ele>71.0</ele><time>2026-03-22T13:48:34.028Z</time></trkpt><trkpt lat="42.85384947504845" lon="11.17092569469518"><ele>70.5</ele><time>2026-03-22T13:48:35.028Z</time></trkpt><trkpt lat="42.853811191171346" lon="11.170563150926819"><ele>70.0</ele><time>2026-03-22T13:48:36.028Z</time></trkpt><trkpt lat="42.8537738831315" lon="11.170199054822307"><ele>69.5</ele><time>2026-03-22T13:48:37.028Z</time></trkpt><trkpt lat="42.85373978964652" lon="11.169831391269812"><ele>69.0</ele><time>2026-03-22T13:48:38.028Z</time></trkpt><trkpt lat="42.85370581190145" lon="11.169465162650575"><ele>69.0</ele><time>2026-03-22T13:48:39.028Z</time></trkpt><trkpt lat="42.853671204213825" lon="11.169101047516884"><ele>69.0</ele><time>2026-03-22T13:48:40.028Z</time></trkpt><trkpt lat="42.85363530921167" lon="11.168736731900841"><ele>68.5</ele><time>2026-03-22T13:48:41.028Z</time></trkpt><trkpt lat="42.85359948620627" lon="11.168372127053035"><ele>68.0</ele><time>2026-03-22T13:48:42.028Z</time></trkpt><trkpt lat="42.85356537753805" lon="11.168008933127103"><ele>69.0</ele><time>2026-03-22T13:48:43.028Z</time></trkpt><trkpt lat="42.85352902103879" lon="11.167646714841117"><ele>70.0</ele><time>2026-03-22T13:48:44.028Z</time></trkpt><trkpt lat="42.853488262576384" lon="11.167285064860238"><ele>70.0</ele><time>2026-03-22T13:48:45.028Z</time></trkpt><trkpt lat="42.85344367528277" lon="11.16692346781602"><ele>70.0</ele><time>2026-03-22T13:48:46.028Z</time></trkpt><trkpt lat="42.85339490610002" lon="11.166563019012607"><ele>71.5</ele><time>2026-03-22T13:48:47.028Z</time></trkpt><trkpt lat="42.85334118240503" lon="11.166203339175366"><ele>73.0</ele><time>2026-03-22T13:48:48.028Z</time></trkpt><trkpt lat="42.85328206402644" lon="11.16584041247791"><ele>73.5</ele><time>2026-03-22T13:48:49.028Z</time></trkpt><trkpt lat="42.85322395803396" lon="11.165479544275007"><ele>74.0</ele><time>2026-03-22T13:48:50.028Z</time></trkpt><trkpt lat="42.8531571274223" lon="11.165121610247958"><ele>74.5</ele><time>2026-03-22T13:48:51.028Z</time></trkpt><trkpt lat="42.85307805209443" lon="11.164768885413885"><ele>75.0</ele><time>2026-03-22T13:48:52.028Z</time></trkpt><trkpt lat="42.85299174673834" lon="11.164421014867274"><ele>75.0</ele><time>2026-03-22T13:48:53.028Z</time></trkpt><trkpt lat="42.85289860155589" lon="11.164077918496842"><ele>75.0</ele><time>2026-03-22T13:48:54.028Z</time></trkpt><trkpt lat="42.852798154287335" lon="11.16373843541607"><ele>75.0</ele><time>2026-03-22T13:48:55.028Z</time></trkpt><trkpt lat="42.85269142856746" lon="11.16340323512352"><ele>75.0</ele><time>2026-03-22T13:48:56.028Z</time></trkpt><trkpt lat="42.85257677384331" lon="11.16306762016708"><ele>74.5</ele><time>2026-03-22T13:48:57.028Z</time></trkpt><trkpt lat="42.85245384123078" lon="11.162742415921217"><ele>74.0</ele><time>2026-03-22T13:48:58.028Z</time></trkpt><trkpt lat="42.85232092373401" lon="11.162426499136508"><ele>73.5</ele><time>2026-03-22T13:48:59.028Z</time></trkpt><trkpt lat="42.852181336130776" lon="11.162112242960154"><ele>73.0</ele><time>2026-03-22T13:49:00.028Z</time></trkpt><trkpt lat="42.8520388522966" lon="11.161792214287818"><ele>73.5</ele><time>2026-03-22T13:49:01.028Z</time></trkpt><trkpt lat="42.851884615871995" lon="11.161489684435475"><ele>74.0</ele><time>2026-03-22T13:49:02.028Z</time></trkpt><trkpt lat="42.8517220083016" lon="11.16119580933181"><ele>72.5</ele><time>2026-03-22T13:49:03.028Z</time></trkpt><trkpt lat="42.85155161165639" lon="11.160910653959641"><ele>71.0</ele><time>2026-03-22T13:49:04.028Z</time></trkpt><trkpt lat="42.85137499538962" lon="11.16063306195954"><ele>71.0</ele><time>2026-03-22T13:49:05.028Z</time></trkpt><trkpt lat="42.85119591704011" lon="11.160360531009234"><ele>71.0</ele><time>2026-03-22T13:49:06.028Z</time></trkpt><trkpt lat="42.851009919450384" lon="11.160095407952568"><ele>70.5</ele><time>2026-03-22T13:49:07.028Z</time></trkpt><trkpt lat="42.85081482025785" lon="11.1598397373515"><ele>70.0</ele><time>2026-03-22T13:49:08.027Z</time></trkpt><trkpt lat="42.850614944807006" lon="11.159591883057185"><ele>70.0</ele><time>2026-03-22T13:49:09.027Z</time></trkpt><trkpt lat="42.850411367881556" lon="11.159350491012614"><ele>70.0</ele><time>2026-03-22T13:49:10.027Z</time></trkpt><trkpt lat="42.8501996062632" lon="11.159116413179504"><ele>69.0</ele><time>2026-03-22T13:49:11.03Z</time></trkpt><trkpt lat="42.849981708019335" lon="11.15889046852601"><ele>68.0</ele><time>2026-03-22T13:49:12.031Z</time></trkpt><trkpt lat="42.84976184245156" lon="11.158677165432959"><ele>68.0</ele><time>2026-03-22T13:49:13.031Z</time></trkpt><trkpt lat="42.84953904244532" lon="11.158474625407116"><ele>68.0</ele><time>2026-03-22T13:49:14.03Z</time></trkpt><trkpt lat="42.849309066930466" lon="11.158279624191088"><ele>66.0</ele><time>2026-03-22T13:49:15.031Z</time></trkpt><trkpt lat="42.849073920221905" lon="11.158093585670242"><ele>64.0</ele><time>2026-03-22T13:49:16.031Z</time></trkpt><trkpt lat="42.848837621946856" lon="11.157913735221445"><ele>64.0</ele><time>2026-03-22T13:49:17.031Z</time></trkpt><trkpt lat="42.84859826730914" lon="11.157738597929326"><ele>64.0</ele><time>2026-03-22T13:49:18.03Z</time></trkpt><trkpt lat="42.84835728242783" lon="11.157571477806048"><ele>63.0</ele><time>2026-03-22T13:49:19.03Z</time></trkpt><trkpt lat="42.84811211756646" lon="11.157405168321537"><ele>62.0</ele><time>2026-03-22T13:49:20.03Z</time></trkpt><trkpt lat="42.84786678537524" lon="11.157246119841666"><ele>60.5</ele><time>2026-03-22T13:49:21.031Z</time></trkpt><trkpt lat="42.84762279422214" lon="11.157087596634886"><ele>59.0</ele><time>2026-03-22T13:49:22.031Z</time></trkpt><trkpt lat="42.84737752989863" lon="11.156930338867209"><ele>59.0</ele><time>2026-03-22T13:49:23.03Z</time></trkpt><trkpt lat="42.84713215849523" lon="11.15677313261022"><ele>59.0</ele><time>2026-03-22T13:49:24.03Z</time></trkpt><trkpt lat="42.84688902474613" lon="11.156614235732146"><ele>58.0</ele><time>2026-03-22T13:49:25.03Z</time></trkpt><trkpt lat="42.84664551710813" lon="11.15645827479488"><ele>57.0</ele><time>2026-03-22T13:49:26.03Z</time></trkpt><trkpt lat="42.846402205125074" lon="11.156303585784501"><ele>57.0</ele><time>2026-03-22T13:49:27.03Z</time></trkpt><trkpt lat="42.84615887085518" lon="11.156145748870072"><ele>57.0</ele><time>2026-03-22T13:49:28.03Z</time></trkpt><trkpt lat="42.845912436258" lon="11.155987396525902"><ele>56.5</ele><time>2026-03-22T13:49:29.03Z</time></trkpt><trkpt lat="42.84567067130998" lon="11.155828465762763"><ele>56.0</ele><time>2026-03-22T13:49:30.03Z</time></trkpt><trkpt lat="42.84542380934874" lon="11.155675643629573"><ele>56.0</ele><time>2026-03-22T13:49:31.03Z</time></trkpt><trkpt lat="42.845177902194024" lon="11.155520482148015"><ele>56.0</ele><time>2026-03-22T13:49:32.03Z</time></trkpt><trkpt lat="42.84493481640885" lon="11.155365400106174"><ele>56.0</ele><time>2026-03-22T13:49:33.03Z</time></trkpt><trkpt lat="42.84469412627379" lon="11.155204966196354"><ele>56.0</ele><time>2026-03-22T13:49:34.03Z</time></trkpt><trkpt lat="42.844450270922934" lon="11.155046294734067"><ele>56.0</ele><time>2026-03-22T13:49:35.03Z</time></trkpt><trkpt lat="42.844205210727104" lon="11.154894019320265"><ele>56.0</ele><time>2026-03-22T13:49:36.03Z</time></trkpt><trkpt lat="42.84396150375431" lon="11.15474199533155"><ele>56.0</ele><time>2026-03-22T13:49:37.03Z</time></trkpt><trkpt lat="42.84371044402365" lon="11.154589827095618"><ele>56.0</ele><time>2026-03-22T13:49:38.03Z</time></trkpt><trkpt lat="42.843466418791444" lon="11.1544358204731"><ele>55.5</ele><time>2026-03-22T13:49:39.03Z</time></trkpt><trkpt lat="42.843223422464206" lon="11.154280410904128"><ele>55.0</ele><time>2026-03-22T13:49:40.03Z</time></trkpt><trkpt lat="42.84297893861789" lon="11.154115830827342"><ele>55.0</ele><time>2026-03-22T13:49:41.03Z</time></trkpt><trkpt lat="42.84272941622997" lon="11.15395869983849"><ele>55.0</ele><time>2026-03-22T13:49:42.03Z</time></trkpt><trkpt lat="42.842483842808164" lon="11.153802509614016"><ele>54.0</ele><time>2026-03-22T13:49:43.03Z</time></trkpt><trkpt lat="42.842241290720025" lon="11.15364742609438"><ele>53.0</ele><time>2026-03-22T13:49:44.03Z</time></trkpt><trkpt lat="42.84199921628255" lon="11.153490825760056"><ele>54.0</ele><time>2026-03-22T13:49:45.03Z</time></trkpt><trkpt lat="42.84175537111785" lon="11.15333586091889"><ele>55.0</ele><time>2026-03-22T13:49:46.03Z</time></trkpt><trkpt lat="42.84151417661345" lon="11.153171148941773"><ele>55.0</ele><time>2026-03-22T13:49:47.03Z</time></trkpt><trkpt lat="42.841274861741674" lon="11.153004923183095"><ele>55.0</ele><time>2026-03-22T13:49:48.03Z</time></trkpt><trkpt lat="42.841033055882576" lon="11.152837385530589"><ele>53.5</ele><time>2026-03-22T13:49:49.03Z</time></trkpt><trkpt lat="42.840795299422666" lon="11.152666628492415"><ele>52.0</ele><time>2026-03-22T13:49:50.03Z</time></trkpt><trkpt lat="42.84056618593826" lon="11.152484962098741"><ele>53.0</ele><time>2026-03-22T13:49:51.03Z</time></trkpt><trkpt lat="42.84033030848219" lon="11.152304328416259"><ele>54.0</ele><time>2026-03-22T13:49:52.029Z</time></trkpt><trkpt lat="42.840097869522616" lon="11.152115940661158"><ele>54.0</ele><time>2026-03-22T13:49:53.029Z</time></trkpt><trkpt lat="42.83986851273022" lon="11.151928285770872"><ele>54.0</ele><time>2026-03-22T13:49:54.029Z</time></trkpt><trkpt lat="42.839638051004584" lon="11.151734437662412"><ele>55.5</ele><time>2026-03-22T13:49:55.029Z</time></trkpt><trkpt lat="42.839409935242685" lon="11.151531050595537"><ele>57.0</ele><time>2026-03-22T13:49:56.029Z</time></trkpt><trkpt lat="42.8391860296501" lon="11.151321600551748"><ele>57.0</ele><time>2026-03-22T13:49:57.029Z</time></trkpt><trkpt lat="42.83896436562834" lon="11.151109139793652"><ele>57.0</ele><time>2026-03-22T13:49:58.029Z</time></trkpt><trkpt lat="42.838744867562355" lon="11.150894277341559"><ele>59.5</ele><time>2026-03-22T13:49:59.029Z</time></trkpt><trkpt lat="42.83852711763958" lon="11.150674564746204"><ele>62.0</ele><time>2026-03-22T13:50:00.029Z</time></trkpt><trkpt lat="42.83831060292535" lon="11.150450915046546"><ele>57.0</ele><time>2026-03-22T13:50:01.029Z</time></trkpt><trkpt lat="42.83809885003268" lon="11.15022528408855"><ele>52.0</ele><time>2026-03-22T13:50:02.029Z</time></trkpt><trkpt lat="42.8378904296212" lon="11.149992330535992"><ele>52.0</ele><time>2026-03-22T13:50:03.029Z</time></trkpt><trkpt lat="42.8376844186832" lon="11.149755100764482"><ele>52.0</ele><time>2026-03-22T13:50:04.029Z</time></trkpt><trkpt lat="42.83747836131789" lon="11.149517449449352"><ele>50.0</ele><time>2026-03-22T13:50:05.029Z</time></trkpt><trkpt lat="42.837275824105724" lon="11.149280058535577"><ele>48.0</ele><time>2026-03-22T13:50:06.029Z</time></trkpt><trkpt lat="42.83708096682364" lon="11.149050534429263"><ele>47.0</ele><time>2026-03-22T13:50:07.029Z</time></trkpt><trkpt lat="42.83689816006261" lon="11.148829355890866"><ele>46.0</ele><time>2026-03-22T13:50:08.029Z</time></trkpt><trkpt lat="42.8367184448767" lon="11.148609659443032"><ele>45.5</ele><time>2026-03-22T13:50:09.029Z</time></trkpt><trkpt lat="42.836543052806825" lon="11.148396805851343"><ele>45.0</ele><time>2026-03-22T13:50:10.029Z</time></trkpt><trkpt lat="42.836368640414626" lon="11.14818824448694"><ele>47.0</ele><time>2026-03-22T13:50:11.029Z</time></trkpt><trkpt lat="42.83619566234669" lon="11.147977808057437"><ele>49.0</ele><time>2026-03-22T13:50:12.029Z</time></trkpt><trkpt lat="42.83602582676961" lon="11.147772191721803"><ele>48.33333333333333</ele><time>2026-03-22T13:50:13.029Z</time></trkpt><trkpt lat="42.835860273166226" lon="11.147569161805096"><ele>47.666666666666664</ele><time>2026-03-22T13:50:14.029Z</time></trkpt><trkpt lat="42.83569264774919" lon="11.147364082507305"><ele>47.0</ele><time>2026-03-22T13:50:15.029Z</time></trkpt><trkpt lat="42.83552685218763" lon="11.14716670665213"><ele>46.0</ele><time>2026-03-22T13:50:16.029Z</time></trkpt><trkpt lat="42.83536017031155" lon="11.146970419267415"><ele>45.0</ele><time>2026-03-22T13:50:17.029Z</time></trkpt><trkpt lat="42.83519324424434" lon="11.146775733047859"><ele>44.0</ele><time>2026-03-22T13:50:18.029Z</time></trkpt><trkpt lat="42.83502829366898" lon="11.14657467904828"><ele>46.666666666666664</ele><time>2026-03-22T13:50:19.029Z</time></trkpt><trkpt lat="42.83487029570336" lon="11.146372065895566"><ele>49.33333333333333</ele><time>2026-03-22T13:50:20.029Z</time></trkpt><trkpt lat="42.83471296592521" lon="11.146168615918052"><ele>52.0</ele><time>2026-03-22T13:50:21.029Z</time></trkpt><trkpt lat="42.8345474357113" lon="11.145971975920764"><ele>52.0</ele><time>2026-03-22T13:50:22.029Z</time></trkpt><trkpt lat="42.83438248314431" lon="11.145778226338209"><ele>52.0</ele><time>2026-03-22T13:50:23.029Z</time></trkpt><trkpt lat="42.83421984480502" lon="11.145583532490928"><ele>52.0</ele><time>2026-03-22T13:50:24.028Z</time></trkpt><trkpt lat="42.83405891294349" lon="11.145387691382979"><ele>50.33333333333333</ele><time>2026-03-22T13:50:25.028Z</time></trkpt><trkpt lat="42.83389866101964" lon="11.145192815023195"><ele>48.666666666666664</ele><time>2026-03-22T13:50:26.028Z</time></trkpt><trkpt lat="42.83373694854185" lon="11.144995652547122"><ele>47.0</ele><time>2026-03-22T13:50:27.028Z</time></trkpt><trkpt lat="42.83357455816888" lon="11.14480133598453"><ele>47.33333333333333</ele><time>2026-03-22T13:50:28.028Z</time></trkpt><trkpt lat="42.83340771436669" lon="11.144604406797098"><ele>47.666666666666664</ele><time>2026-03-22T13:50:29.028Z</time></trkpt><trkpt lat="42.833240467632685" lon="11.144404655749181"><ele>48.0</ele><time>2026-03-22T13:50:30.028Z</time></trkpt><trkpt lat="42.83307054349596" lon="11.144204711500556"><ele>53.0</ele><time>2026-03-22T13:50:31.028Z</time></trkpt><trkpt lat="42.83290077861019" lon="11.143999908873877"><ele>58.0</ele><time>2026-03-22T13:50:32.028Z</time></trkpt><trkpt lat="42.83273630562619" lon="11.143794756398824"><ele>55.0</ele><time>2026-03-22T13:50:33.028Z</time></trkpt><trkpt lat="42.83257160017903" lon="11.14358983050044"><ele>52.0</ele><time>2026-03-22T13:50:34.028Z</time></trkpt><trkpt lat="42.832403569793634" lon="11.143385716458077"><ele>49.0</ele><time>2026-03-22T13:50:35.028Z</time></trkpt><trkpt lat="42.83223607619048" lon="11.143190201533573"><ele>49.0</ele><time>2026-03-22T13:50:36.028Z</time></trkpt><trkpt lat="42.83206720214989" lon="11.142993518521148"><ele>49.0</ele><time>2026-03-22T13:50:37.028Z</time></trkpt><trkpt lat="42.83190157652399" lon="11.142800154574367"><ele>49.0</ele><time>2026-03-22T13:50:38.028Z</time></trkpt><trkpt lat="42.83173419828051" lon="11.142603240461879"><ele>46.33333333333333</ele><time>2026-03-22T13:50:39.028Z</time></trkpt><trkpt lat="42.831560322973026" lon="11.142403190136752"><ele>43.666666666666664</ele><time>2026-03-22T13:50:40.028Z</time></trkpt><trkpt lat="42.83139277390472" lon="11.142211160846452"><ele>41.0</ele><time>2026-03-22T13:50:41.028Z</time></trkpt><trkpt lat="42.83121513011344" lon="11.142016973947506"><ele>41.0</ele><time>2026-03-22T13:50:42.028Z</time></trkpt><trkpt lat="42.83104428655241" lon="11.14182890259472"><ele>41.0</ele><time>2026-03-22T13:50:43.028Z</time></trkpt><trkpt lat="42.83086997278858" lon="11.141643646404402"><ele>41.0</ele><time>2026-03-22T13:50:44.028Z</time></trkpt><trkpt lat="42.830689352152184" lon="11.141459580726927"><ele>40.33333333333333</ele><time>2026-03-22T13:50:45.028Z</time></trkpt><trkpt lat="42.830508389486106" lon="11.141277173403349"><ele>39.666666666666664</ele><time>2026-03-22T13:50:46.028Z</time></trkpt><trkpt lat="42.830330696401994" lon="11.14110145199238"><ele>39.0</ele><time>2026-03-22T13:50:47.028Z</time></trkpt><trkpt lat="42.83014881236343" lon="11.140926969365706"><ele>38.0</ele><time>2026-03-22T13:50:48.028Z</time></trkpt><trkpt lat="42.82996872527785" lon="11.140750420655364"><ele>37.0</ele><time>2026-03-22T13:50:49.028Z</time></trkpt><trkpt lat="42.82978601862672" lon="11.140584070141374"><ele>36.0</ele><time>2026-03-22T13:50:50.028Z</time></trkpt><trkpt lat="42.829610923497846" lon="11.140416112304358"><ele>36.0</ele><time>2026-03-22T13:50:51.028Z</time></trkpt><trkpt lat="42.82943654020622" lon="11.14025285917682"><ele>36.0</ele><time>2026-03-22T13:50:52.028Z</time></trkpt><trkpt lat="42.82925884729148" lon="11.140089946679621"><ele>36.0</ele><time>2026-03-22T13:50:53.028Z</time></trkpt><trkpt lat="42.82908820020794" lon="11.13992681082843"><ele>36.0</ele><time>2026-03-22T13:50:54.028Z</time></trkpt><trkpt lat="42.828923087611756" lon="11.139786348343222"><ele>36.0</ele><time>2026-03-22T13:50:55.028Z</time></trkpt><trkpt lat="42.828777858982825" lon="11.139648828277908"><ele>36.0</ele><time>2026-03-22T13:50:56.028Z</time></trkpt><trkpt lat="42.82863294701264" lon="11.139522818443929"><ele>36.0</ele><time>2026-03-22T13:50:57.028Z</time></trkpt><trkpt lat="42.828497064177164" lon="11.139409484024817"><ele>36.0</ele><time>2026-03-22T13:50:58.028Z</time></trkpt><trkpt lat="42.828383942902356" lon="11.139301246920995"><ele>36.0</ele><time>2026-03-22T13:50:59.028Z</time></trkpt><trkpt lat="42.828287026988235" lon="11.139205559616899"><ele>36.0</ele><time>2026-03-22T13:51:00.028Z</time></trkpt><trkpt lat="42.828175596805195" lon="11.139081400756622"><ele>35.6</ele><time>2026-03-22T13:51:01.028Z</time></trkpt><trkpt lat="42.82810307668511" lon="11.139001910792695"><ele>35.2</ele><time>2026-03-22T13:51:02.028Z</time></trkpt><trkpt lat="42.828057600781236" lon="11.138923052404323"><ele>34.8</ele><time>2026-03-22T13:51:03.028Z</time></trkpt><trkpt lat="42.82803818589651" lon="11.138762376531357"><ele>34.4</ele><time>2026-03-22T13:51:05.028Z</time></trkpt><trkpt lat="42.82806476484493" lon="11.138643793380442"><ele>34.0</ele><time>2026-03-22T13:51:07.028Z</time></trkpt><trkpt lat="42.82809351092642" lon="11.138539010752087"><ele>33.99999999999999</ele><time>2026-03-22T13:51:10.028Z</time></trkpt><trkpt lat="42.82808315534627" lon="11.138447435023725"><ele>34.0</ele><time>2026-03-22T13:51:14.028Z</time></trkpt><trkpt lat="42.82801822301656" lon="11.138458811375921"><ele>34.0</ele><time>2026-03-22T13:51:28.031Z</time></trkpt><trkpt lat="42.82794894669194" lon="11.138487993609532"><ele>34.0</ele><time>2026-03-22T13:56:52.972Z</time></trkpt><trkpt lat="42.82788433442065" lon="11.138531800843198"><ele>34.0</ele><time>2026-03-22T13:56:54.972Z</time></trkpt><trkpt lat="42.82781647665838" lon="11.1385809774357"><ele>33.99999999999999</ele><time>2026-03-22T13:56:57.971Z</time></trkpt><trkpt lat="42.82773936890975" lon="11.13853281363984"><ele>34.0</ele><time>2026-03-22T13:56:59.971Z</time></trkpt><trkpt lat="42.82763619195789" lon="11.138534207598223"><ele>34.333333333333336</ele><time>2026-03-22T13:57:01.971Z</time></trkpt><trkpt lat="42.827571657332264" lon="11.138519275396932"><ele>34.66666666666667</ele><time>2026-03-22T13:57:02.971Z</time></trkpt><trkpt lat="42.82751110766024" lon="11.138480331057801"><ele>35.0</ele><time>2026-03-22T13:57:03.971Z</time></trkpt><trkpt lat="42.82743119440147" lon="11.13844734254555"><ele>35.333333333333336</ele><time>2026-03-22T13:57:04.971Z</time></trkpt><trkpt lat="42.82736265169204" lon="11.138377687108978"><ele>35.666666666666664</ele><time>2026-03-22T13:57:05.971Z</time></trkpt><trkpt lat="42.82728844568533" lon="11.138304174151353"><ele>36.0</ele><time>2026-03-22T13:57:06.971Z</time></trkpt><trkpt lat="42.82721332927223" lon="11.138233119388033"><ele>36.0</ele><time>2026-03-22T13:57:07.971Z</time></trkpt><trkpt lat="42.82713806855513" lon="11.138166832923655"><ele>36.0</ele><time>2026-03-22T13:57:08.971Z</time></trkpt><trkpt lat="42.827059891121365" lon="11.138098200330786"><ele>36.0</ele><time>2026-03-22T13:57:09.971Z</time></trkpt><trkpt lat="42.82696961667076" lon="11.138026580823592"><ele>36.0</ele><time>2026-03-22T13:57:10.971Z</time></trkpt><trkpt lat="42.826863868099366" lon="11.13794909743414"><ele>36.0</ele><time>2026-03-22T13:57:11.971Z</time></trkpt><trkpt lat="42.826736959981915" lon="11.137852679555932"><ele>36.0</ele><time>2026-03-22T13:57:12.971Z</time></trkpt><trkpt lat="42.826604223955634" lon="11.137737253958399"><ele>36.0</ele><time>2026-03-22T13:57:13.971Z</time></trkpt><trkpt lat="42.82646831186148" lon="11.137618083597074"><ele>36.0</ele><time>2026-03-22T13:57:14.971Z</time></trkpt><trkpt lat="42.82632554287281" lon="11.137497018849698"><ele>35.666666666666664</ele><time>2026-03-22T13:57:15.971Z</time></trkpt><trkpt lat="42.82618019883598" lon="11.137372405033423"><ele>35.33333333333333</ele><time>2026-03-22T13:57:16.971Z</time></trkpt><trkpt lat="42.82603377825571" lon="11.137241776296095"><ele>35.0</ele><time>2026-03-22T13:57:17.971Z</time></trkpt><trkpt lat="42.82588489275086" lon="11.137110393410854"><ele>35.0</ele><time>2026-03-22T13:57:18.971Z</time></trkpt><trkpt lat="42.825733159802574" lon="11.136974432409446"><ele>35.0</ele><time>2026-03-22T13:57:19.971Z</time></trkpt><trkpt lat="42.825573683732145" lon="11.13683529541251"><ele>35.0</ele><time>2026-03-22T13:57:20.971Z</time></trkpt><trkpt lat="42.82540940855391" lon="11.136692838489772"><ele>34.666666666666664</ele><time>2026-03-22T13:57:21.971Z</time></trkpt><trkpt lat="42.825240496172725" lon="11.13655033612295"><ele>34.333333333333336</ele><time>2026-03-22T13:57:22.971Z</time></trkpt><trkpt lat="42.825058679255235" lon="11.136399184305462"><ele>34.0</ele><time>2026-03-22T13:57:23.971Z</time></trkpt><trkpt lat="42.82486346302001" lon="11.136231575865002"><ele>35.5</ele><time>2026-03-22T13:57:24.971Z</time></trkpt><trkpt lat="42.824665725896104" lon="11.136060720511658"><ele>37.0</ele><time>2026-03-22T13:57:25.971Z</time></trkpt><trkpt lat="42.82446810480971" lon="11.135880782349771"><ele>35.5</ele><time>2026-03-22T13:57:26.971Z</time></trkpt><trkpt lat="42.824273143362305" lon="11.135695253826677"><ele>34.0</ele><time>2026-03-22T13:57:27.97Z</time></trkpt><trkpt lat="42.82407619769159" lon="11.135511436659067"><ele>34.0</ele><time>2026-03-22T13:57:28.97Z</time></trkpt><trkpt lat="42.82387677797687" lon="11.135330286238071"><ele>34.0</ele><time>2026-03-22T13:57:29.97Z</time></trkpt><trkpt lat="42.82367655702196" lon="11.135151225998897"><ele>33.5</ele><time>2026-03-22T13:57:30.97Z</time></trkpt><trkpt lat="42.823474328702744" lon="11.134972461921294"><ele>33.0</ele><time>2026-03-22T13:57:31.97Z</time></trkpt><trkpt lat="42.823271932098095" lon="11.134792121617878"><ele>32.0</ele><time>2026-03-22T13:57:32.97Z</time></trkpt><trkpt lat="42.82307130755811" lon="11.134614801270775"><ele>31.0</ele><time>2026-03-22T13:57:33.97Z</time></trkpt><trkpt lat="42.82287034649918" lon="11.134435913450494"><ele>31.0</ele><time>2026-03-22T13:57:34.972Z</time></trkpt><trkpt lat="42.82267027714688" lon="11.134254985291506"><ele>31.0</ele><time>2026-03-22T13:57:35.973Z</time></trkpt><trkpt lat="42.822474197914865" lon="11.134077197825752"><ele>30.0</ele><time>2026-03-22T13:57:36.973Z</time></trkpt><trkpt lat="42.822275483177634" lon="11.133898715061155"><ele>29.0</ele><time>2026-03-22T13:57:37.973Z</time></trkpt><trkpt lat="42.82208097399238" lon="11.133724015633236"><ele>29.0</ele><time>2026-03-22T13:57:38.973Z</time></trkpt><trkpt lat="42.82188518157798" lon="11.133549172901798"><ele>29.0</ele><time>2026-03-22T13:57:39.973Z</time></trkpt><trkpt lat="42.82169137494145" lon="11.133375858380488"><ele>28.0</ele><time>2026-03-22T13:57:40.972Z</time></trkpt><trkpt lat="42.821497776472285" lon="11.133200640621233"><ele>27.0</ele><time>2026-03-22T13:57:41.972Z</time></trkpt><trkpt lat="42.82130531800803" lon="11.133030263813984"><ele>27.0</ele><time>2026-03-22T13:57:42.972Z</time></trkpt><trkpt lat="42.82111119155341" lon="11.132862562890443"><ele>27.0</ele><time>2026-03-22T13:57:43.972Z</time></trkpt><trkpt lat="42.82091681717096" lon="11.132693794497122"><ele>27.5</ele><time>2026-03-22T13:57:44.972Z</time></trkpt><trkpt lat="42.82072397491139" lon="11.132526316282792"><ele>28.0</ele><time>2026-03-22T13:57:45.972Z</time></trkpt><trkpt lat="42.820534999282344" lon="11.132361963894576"><ele>27.333333333333336</ele><time>2026-03-22T13:57:46.973Z</time></trkpt><trkpt lat="42.82034298456215" lon="11.13220634101154"><ele>26.666666666666664</ele><time>2026-03-22T13:57:47.973Z</time></trkpt><trkpt lat="42.82014608117704" lon="11.132062437066564"><ele>26.0</ele><time>2026-03-22T13:57:48.973Z</time></trkpt><trkpt lat="42.819945227393056" lon="11.131929885034138"><ele>26.0</ele><time>2026-03-22T13:57:49.973Z</time></trkpt><trkpt lat="42.819740405844016" lon="11.131809403380862"><ele>26.0</ele><time>2026-03-22T13:57:50.973Z</time></trkpt><trkpt lat="42.81953243552774" lon="11.13169533928043"><ele>26.0</ele><time>2026-03-22T13:57:51.973Z</time></trkpt><trkpt lat="42.81932217663592" lon="11.131595084615993"><ele>24.5</ele><time>2026-03-22T13:57:52.973Z</time></trkpt><trkpt lat="42.81910708567963" lon="11.131510689250081"><ele>23.0</ele><time>2026-03-22T13:57:53.973Z</time></trkpt><trkpt lat="42.81888836787216" lon="11.13143379438801"><ele>23.0</ele><time>2026-03-22T13:57:54.972Z</time></trkpt><trkpt lat="42.81866285243256" lon="11.131372058045338"><ele>23.0</ele><time>2026-03-22T13:57:55.972Z</time></trkpt><trkpt lat="42.81843579008249" lon="11.131319720354234"><ele>22.5</ele><time>2026-03-22T13:57:56.972Z</time></trkpt><trkpt lat="42.818211010877455" lon="11.131281111139185"><ele>22.0</ele><time>2026-03-22T13:57:57.972Z</time></trkpt><trkpt lat="42.817984481424" lon="11.131253860662708"><ele>22.0</ele><time>2026-03-22T13:57:58.972Z</time></trkpt><trkpt lat="42.81775727354843" lon="11.131240184837829"><ele>22.0</ele><time>2026-03-22T13:57:59.972Z</time></trkpt><trkpt lat="42.81753022517881" lon="11.131240071676505"><ele>22.0</ele><time>2026-03-22T13:58:00.972Z</time></trkpt><trkpt lat="42.817302627782304" lon="11.13125517825909"><ele>22.0</ele><time>2026-03-22T13:58:01.972Z</time></trkpt><trkpt lat="42.81707312911073" lon="11.131280681715912"><ele>22.0</ele><time>2026-03-22T13:58:02.972Z</time></trkpt><trkpt lat="42.81684506330293" lon="11.131317298013427"><ele>22.0</ele><time>2026-03-22T13:58:03.972Z</time></trkpt><trkpt lat="42.816615632798644" lon="11.13136341563049"><ele>22.0</ele><time>2026-03-22T13:58:04.972Z</time></trkpt><trkpt lat="42.816383870642746" lon="11.131419580005188"><ele>22.0</ele><time>2026-03-22T13:58:05.972Z</time></trkpt><trkpt lat="42.81615413254637" lon="11.131479444762602"><ele>22.5</ele><time>2026-03-22T13:58:06.972Z</time></trkpt><trkpt lat="42.81592175602908" lon="11.131539291519518"><ele>23.0</ele><time>2026-03-22T13:58:07.972Z</time></trkpt><trkpt lat="42.81568489603824" lon="11.131598578886859"><ele>23.0</ele><time>2026-03-22T13:58:08.972Z</time></trkpt><trkpt lat="42.81544742495884" lon="11.131655846695688"><ele>23.0</ele><time>2026-03-22T13:58:09.972Z</time></trkpt><trkpt lat="42.81520900390625" lon="11.131715109446864"><ele>23.0</ele><time>2026-03-22T13:58:10.972Z</time></trkpt><trkpt lat="42.814969086949276" lon="11.131774549007876"><ele>23.0</ele><time>2026-03-22T13:58:11.972Z</time></trkpt><trkpt lat="42.81472681996602" lon="11.131831733956417"><ele>23.0</ele><time>2026-03-22T13:58:12.972Z</time></trkpt><trkpt lat="42.814482255379765" lon="11.131890285104971"><ele>23.0</ele><time>2026-03-22T13:58:13.972Z</time></trkpt><trkpt lat="42.814239153723285" lon="11.13195221248729"><ele>22.0</ele><time>2026-03-22T13:58:14.972Z</time></trkpt><trkpt lat="42.81398975272078" lon="11.132015832462434"><ele>21.0</ele><time>2026-03-22T13:58:15.972Z</time></trkpt><trkpt lat="42.81374524588766" lon="11.132072957429743"><ele>21.0</ele><time>2026-03-22T13:58:16.972Z</time></trkpt><trkpt lat="42.81349479665186" lon="11.13213237708373"><ele>21.0</ele><time>2026-03-22T13:58:17.972Z</time></trkpt><trkpt lat="42.81325159745938" lon="11.132190296581676"><ele>21.0</ele><time>2026-03-22T13:58:18.972Z</time></trkpt><trkpt lat="42.81300415996466" lon="11.132253095554073"><ele>21.0</ele><time>2026-03-22T13:58:19.972Z</time></trkpt><trkpt lat="42.81275976230737" lon="11.132314721292774"><ele>21.5</ele><time>2026-03-22T13:58:20.972Z</time></trkpt><trkpt lat="42.81251489549734" lon="11.132374611880756"><ele>22.0</ele><time>2026-03-22T13:58:21.972Z</time></trkpt><trkpt lat="42.81226732236227" lon="11.13243483353853"><ele>22.5</ele><time>2026-03-22T13:58:22.972Z</time></trkpt><trkpt lat="42.8120224038962" lon="11.132496000996198"><ele>23.0</ele><time>2026-03-22T13:58:23.972Z</time></trkpt><trkpt lat="42.811779993650845" lon="11.132555600618586"><ele>23.0</ele><time>2026-03-22T13:58:24.972Z</time></trkpt><trkpt lat="42.81153513257012" lon="11.132616619073202"><ele>23.0</ele><time>2026-03-22T13:58:25.971Z</time></trkpt><trkpt lat="42.811291942634135" lon="11.13267784082129"><ele>23.0</ele><time>2026-03-22T13:58:26.971Z</time></trkpt><trkpt lat="42.811050473346036" lon="11.13273900530272"><ele>23.0</ele><time>2026-03-22T13:58:27.971Z</time></trkpt><trkpt lat="42.81080662696021" lon="11.132798883316916"><ele>22.5</ele><time>2026-03-22T13:58:28.971Z</time></trkpt><trkpt lat="42.81056127441088" lon="11.132857976577968"><ele>22.0</ele><time>2026-03-22T13:58:29.971Z</time></trkpt><trkpt lat="42.810318603481676" lon="11.132919497476403"><ele>22.0</ele><time>2026-03-22T13:58:30.971Z</time></trkpt><trkpt lat="42.81007002017402" lon="11.132980761818354"><ele>22.0</ele><time>2026-03-22T13:58:31.971Z</time></trkpt><trkpt lat="42.80982199135121" lon="11.133041412759644"><ele>22.0</ele><time>2026-03-22T13:58:32.971Z</time></trkpt><trkpt lat="42.8095734572659" lon="11.133104592092348"><ele>22.0</ele><time>2026-03-22T13:58:33.971Z</time></trkpt><trkpt lat="42.80932589254741" lon="11.133166970919442"><ele>21.0</ele><time>2026-03-22T13:58:34.971Z</time></trkpt><trkpt lat="42.8090748058502" lon="11.133229785175256"><ele>20.0</ele><time>2026-03-22T13:58:35.971Z</time></trkpt><trkpt lat="42.80882470960341" lon="11.133290230254783"><ele>20.0</ele><time>2026-03-22T13:58:36.971Z</time></trkpt><trkpt lat="42.80856944725044" lon="11.133353635615885"><ele>20.0</ele><time>2026-03-22T13:58:37.971Z</time></trkpt><trkpt lat="42.80831953918679" lon="11.133416925512899"><ele>20.0</ele><time>2026-03-22T13:58:38.971Z</time></trkpt><trkpt lat="42.80806549518462" lon="11.133479486474522"><ele>20.0</ele><time>2026-03-22T13:58:39.971Z</time></trkpt><trkpt lat="42.80780322691051" lon="11.133541098272627"><ele>19.5</ele><time>2026-03-22T13:58:40.971Z</time></trkpt><trkpt lat="42.807549395329104" lon="11.133597290196292"><ele>19.0</ele><time>2026-03-22T13:58:41.971Z</time></trkpt><trkpt lat="42.80729303885276" lon="11.133658889528638"><ele>19.0</ele><time>2026-03-22T13:58:42.971Z</time></trkpt><trkpt lat="42.80703996905958" lon="11.133723725159115"><ele>19.0</ele><time>2026-03-22T13:58:43.971Z</time></trkpt><trkpt lat="42.806787005651344" lon="11.133785214368626"><ele>17.5</ele><time>2026-03-22T13:58:44.971Z</time></trkpt><trkpt lat="42.80653505287523" lon="11.133847520788931"><ele>16.0</ele><time>2026-03-22T13:58:45.971Z</time></trkpt><trkpt lat="42.806281960523144" lon="11.133909527538536"><ele>16.0</ele><time>2026-03-22T13:58:46.971Z</time></trkpt><trkpt lat="42.80602877496277" lon="11.133972098858946"><ele>16.0</ele><time>2026-03-22T13:58:47.971Z</time></trkpt><trkpt lat="42.805774676435455" lon="11.13403387434143"><ele>17.5</ele><time>2026-03-22T13:58:48.971Z</time></trkpt><trkpt lat="42.805524028400036" lon="11.134093907086722"><ele>19.0</ele><time>2026-03-22T13:58:49.971Z</time></trkpt><trkpt lat="42.805277596743565" lon="11.134150343589875"><ele>19.0</ele><time>2026-03-22T13:58:50.971Z</time></trkpt><trkpt lat="42.805032546063956" lon="11.134204929998857"><ele>19.0</ele><time>2026-03-22T13:58:51.971Z</time></trkpt><trkpt lat="42.804791064624546" lon="11.134250030965015"><ele>19.0</ele><time>2026-03-22T13:58:52.971Z</time></trkpt><trkpt lat="42.804552342851856" lon="11.134287870333804"><ele>19.0</ele><time>2026-03-22T13:58:53.971Z</time></trkpt><trkpt lat="42.804310054858746" lon="11.13431567799662"><ele>18.5</ele><time>2026-03-22T13:58:54.971Z</time></trkpt><trkpt lat="42.804072145369105" lon="11.134339836254417"><ele>18.0</ele><time>2026-03-22T13:58:55.97Z</time></trkpt><trkpt lat="42.80383881193962" lon="11.134357004433094"><ele>18.0</ele><time>2026-03-22T13:58:56.97Z</time></trkpt><trkpt lat="42.80362015377867" lon="11.13436238919554"><ele>18.0</ele><time>2026-03-22T13:58:57.97Z</time></trkpt><trkpt lat="42.80341227928657" lon="11.134360091473534"><ele>18.0</ele><time>2026-03-22T13:58:58.97Z</time></trkpt><trkpt lat="42.80322072884718" lon="11.134336489357157"><ele>17.666666666666668</ele><time>2026-03-22T13:58:59.97Z</time></trkpt><trkpt lat="42.803041557739306" lon="11.134308572151483"><ele>17.333333333333336</ele><time>2026-03-22T13:59:00.97Z</time></trkpt><trkpt lat="42.8028595384495" lon="11.134262615475484"><ele>17.0</ele><time>2026-03-22T13:59:01.97Z</time></trkpt><trkpt lat="42.80268040690184" lon="11.13419875608392"><ele>17.0</ele><time>2026-03-22T13:59:02.97Z</time></trkpt><trkpt lat="42.80249789580778" lon="11.134134069902277"><ele>17.0</ele><time>2026-03-22T13:59:03.97Z</time></trkpt><trkpt lat="42.80231239455114" lon="11.134055566658564"><ele>17.0</ele><time>2026-03-22T13:59:04.97Z</time></trkpt><trkpt lat="42.80211749605555" lon="11.133960567326977"><ele>17.0</ele><time>2026-03-22T13:59:05.97Z</time></trkpt><trkpt lat="42.801922518499865" lon="11.13385402134769"><ele>17.0</ele><time>2026-03-22T13:59:06.97Z</time></trkpt><trkpt lat="42.801721871773324" lon="11.13373939870365"><ele>17.0</ele><time>2026-03-22T13:59:07.97Z</time></trkpt><trkpt lat="42.801527251246625" lon="11.133607968751496"><ele>17.0</ele><time>2026-03-22T13:59:08.97Z</time></trkpt><trkpt lat="42.801334070005844" lon="11.13344961587393"><ele>17.0</ele><time>2026-03-22T13:59:09.97Z</time></trkpt><trkpt lat="42.80114684063042" lon="11.133275189598578"><ele>16.0</ele><time>2026-03-22T13:59:10.97Z</time></trkpt><trkpt lat="42.80096183732745" lon="11.133088323703847"><ele>15.0</ele><time>2026-03-22T13:59:11.97Z</time></trkpt><trkpt lat="42.800775277607194" lon="11.132898319208888"><ele>15.0</ele><time>2026-03-22T13:59:12.97Z</time></trkpt><trkpt lat="42.8005965744808" lon="11.132700612897203"><ele>15.0</ele><time>2026-03-22T13:59:13.97Z</time></trkpt><trkpt lat="42.8004219743245" lon="11.132505716584635"><ele>14.666666666666668</ele><time>2026-03-22T13:59:14.97Z</time></trkpt><trkpt lat="42.80025088189135" lon="11.132314657087706"><ele>14.333333333333334</ele><time>2026-03-22T13:59:15.97Z</time></trkpt><trkpt lat="42.800085030059165" lon="11.132131993215378"><ele>14.0</ele><time>2026-03-22T13:59:16.97Z</time></trkpt><trkpt lat="42.799925391322425" lon="11.131952379039207"><ele>13.666666666666668</ele><time>2026-03-22T13:59:17.97Z</time></trkpt><trkpt lat="42.799765981954295" lon="11.131782365463476"><ele>13.333333333333332</ele><time>2026-03-22T13:59:18.97Z</time></trkpt><trkpt lat="42.799603287607425" lon="11.131616306955742"><ele>13.0</ele><time>2026-03-22T13:59:19.97Z</time></trkpt><trkpt lat="42.79944005027282" lon="11.131449189009823"><ele>13.666666666666666</ele><time>2026-03-22T13:59:20.97Z</time></trkpt><trkpt lat="42.79927666531781" lon="11.131282326686206"><ele>14.333333333333332</ele><time>2026-03-22T13:59:21.97Z</time></trkpt><trkpt lat="42.79912199700393" lon="11.131113701569275"><ele>15.0</ele><time>2026-03-22T13:59:22.97Z</time></trkpt><trkpt lat="42.798977483535076" lon="11.130953741422456"><ele>15.0</ele><time>2026-03-22T13:59:23.97Z</time></trkpt><trkpt lat="42.79883347834213" lon="11.130800854544056"><ele>15.0</ele><time>2026-03-22T13:59:24.97Z</time></trkpt><trkpt lat="42.798691916695255" lon="11.130661131010545"><ele>15.0</ele><time>2026-03-22T13:59:25.969Z</time></trkpt><trkpt lat="42.79854757835795" lon="11.130528661727421"><ele>14.666666666666668</ele><time>2026-03-22T13:59:26.969Z</time></trkpt><trkpt lat="42.79840513499247" lon="11.130404936482925"><ele>14.333333333333334</ele><time>2026-03-22T13:59:27.969Z</time></trkpt><trkpt lat="42.79826772007031" lon="11.13028798012763"><ele>14.0</ele><time>2026-03-22T13:59:28.969Z</time></trkpt><trkpt lat="42.79813079442607" lon="11.130174606676055"><ele>14.0</ele><time>2026-03-22T13:59:29.969Z</time></trkpt><trkpt lat="42.79800942614225" lon="11.130055736719704"><ele>14.0</ele><time>2026-03-22T13:59:30.969Z</time></trkpt><trkpt lat="42.79789492101753" lon="11.129926072670289"><ele>14.0</ele><time>2026-03-22T13:59:31.969Z</time></trkpt><trkpt lat="42.79778000403088" lon="11.1297856619164"><ele>13.666666666666668</ele><time>2026-03-22T13:59:32.969Z</time></trkpt><trkpt lat="42.79767322519081" lon="11.129634572006374"><ele>13.333333333333332</ele><time>2026-03-22T13:59:33.969Z</time></trkpt><trkpt lat="42.79757997620339" lon="11.12947431124966"><ele>13.0</ele><time>2026-03-22T13:59:34.969Z</time></trkpt><trkpt lat="42.79749782143656" lon="11.12929993517398"><ele>13.0</ele><time>2026-03-22T13:59:35.969Z</time></trkpt><trkpt lat="42.79743043187092" lon="11.129126293187795"><ele>13.0</ele><time>2026-03-22T13:59:36.969Z</time></trkpt><trkpt lat="42.797375435619756" lon="11.128941800794305"><ele>13.0</ele><time>2026-03-22T13:59:37.969Z</time></trkpt><trkpt lat="42.79732643335117" lon="11.128754769188923"><ele>13.0</ele><time>2026-03-22T13:59:38.969Z</time></trkpt><trkpt lat="42.797288097305845" lon="11.128573620004293"><ele>13.0</ele><time>2026-03-22T13:59:39.969Z</time></trkpt><trkpt lat="42.797250544326396" lon="11.128392323823276"><ele>13.0</ele><time>2026-03-22T13:59:40.971Z</time></trkpt><trkpt lat="42.797202075031315" lon="11.128217029847066"><ele>13.0</ele><time>2026-03-22T13:59:41.972Z</time></trkpt><trkpt lat="42.79713421634038" lon="11.12805408964911"><ele>13.0</ele><time>2026-03-22T13:59:42.972Z</time></trkpt><trkpt lat="42.797050713139626" lon="11.12790415233754"><ele>13.0</ele><time>2026-03-22T13:59:43.971Z</time></trkpt><trkpt lat="42.79694353617066" lon="11.127768818074337"><ele>13.0</ele><time>2026-03-22T13:59:44.971Z</time></trkpt><trkpt lat="42.79682118093453" lon="11.127656286044433"><ele>13.0</ele><time>2026-03-22T13:59:45.971Z</time></trkpt><trkpt lat="42.79669023254903" lon="11.127572156014526"><ele>13.0</ele><time>2026-03-22T13:59:46.971Z</time></trkpt><trkpt lat="42.79654886484092" lon="11.127511752198025"><ele>13.333333333333332</ele><time>2026-03-22T13:59:47.971Z</time></trkpt><trkpt lat="42.79640219388603" lon="11.12748862821003"><ele>13.666666666666668</ele><time>2026-03-22T13:59:48.971Z</time></trkpt><trkpt lat="42.796268775781215" lon="11.127439333119744"><ele>14.0</ele><time>2026-03-22T13:59:49.971Z</time></trkpt><trkpt lat="42.79610812229295" lon="11.127522560830657"><ele>13.333333333333334</ele><time>2026-03-22T13:59:50.971Z</time></trkpt><trkpt lat="42.79596588624661" lon="11.127576331172977"><ele>12.666666666666668</ele><time>2026-03-22T13:59:51.971Z</time></trkpt><trkpt lat="42.79583290277549" lon="11.127658553213458"><ele>12.0</ele><time>2026-03-22T13:59:52.971Z</time></trkpt><trkpt lat="42.79570243450764" lon="11.127785002164172"><ele>12.0</ele><time>2026-03-22T13:59:53.971Z</time></trkpt><trkpt lat="42.79559381662668" lon="11.127939386990741"><ele>12.0</ele><time>2026-03-22T13:59:54.971Z</time></trkpt><trkpt lat="42.79550722407989" lon="11.128112825914629"><ele>12.0</ele><time>2026-03-22T13:59:55.971Z</time></trkpt><trkpt lat="42.79544000935822" lon="11.128312997514788"><ele>12.666666666666668</ele><time>2026-03-22T13:59:56.971Z</time></trkpt><trkpt lat="42.79539693885292" lon="11.128525180644834"><ele>13.333333333333334</ele><time>2026-03-22T13:59:57.971Z</time></trkpt><trkpt lat="42.795375756868395" lon="11.128750738826541"><ele>14.0</ele><time>2026-03-22T13:59:58.971Z</time></trkpt><trkpt lat="42.79537130379446" lon="11.128985936976509"><ele>13.666666666666668</ele><time>2026-03-22T13:59:59.971Z</time></trkpt><trkpt lat="42.79537412071305" lon="11.129229065374243"><ele>13.333333333333332</ele><time>2026-03-22T14:00:00.971Z</time></trkpt><trkpt lat="42.79537513631797" lon="11.129484642168867"><ele>13.0</ele><time>2026-03-22T14:00:01.971Z</time></trkpt><trkpt lat="42.795364619474626" lon="11.129745419200288"><ele>13.333333333333332</ele><time>2026-03-22T14:00:02.971Z</time></trkpt><trkpt lat="42.79534375695252" lon="11.130010887192315"><ele>13.666666666666668</ele><time>2026-03-22T14:00:03.971Z</time></trkpt><trkpt lat="42.795310172620354" lon="11.130276353297146"><ele>14.0</ele><time>2026-03-22T14:00:04.971Z</time></trkpt><trkpt lat="42.79526308748758" lon="11.130541259735642"><ele>14.333333333333334</ele><time>2026-03-22T14:00:05.971Z</time></trkpt><trkpt lat="42.79519841005159" lon="11.130805944912881"><ele>14.666666666666668</ele><time>2026-03-22T14:00:06.971Z</time></trkpt><trkpt lat="42.795117412405666" lon="11.131066659484027"><ele>15.0</ele><time>2026-03-22T14:00:07.971Z</time></trkpt><trkpt lat="42.79502188994729" lon="11.131325301662113"><ele>15.5</ele><time>2026-03-22T14:00:08.971Z</time></trkpt><trkpt lat="42.794905298998245" lon="11.131586031431546"><ele>16.0</ele><time>2026-03-22T14:00:09.971Z</time></trkpt><trkpt lat="42.794769075951265" lon="11.1318354970601"><ele>16.0</ele><time>2026-03-22T14:00:10.971Z</time></trkpt><trkpt lat="42.79462424753642" lon="11.132071940533804"><ele>16.0</ele><time>2026-03-22T14:00:11.971Z</time></trkpt><trkpt lat="42.79447242889893" lon="11.132316946784306"><ele>15.5</ele><time>2026-03-22T14:00:12.971Z</time></trkpt><trkpt lat="42.794318257026504" lon="11.132563167133057"><ele>15.0</ele><time>2026-03-22T14:00:13.971Z</time></trkpt><trkpt lat="42.79416447413521" lon="11.132804806793132"><ele>15.0</ele><time>2026-03-22T14:00:14.971Z</time></trkpt><trkpt lat="42.794009550139414" lon="11.133038781552605"><ele>15.0</ele><time>2026-03-22T14:00:15.971Z</time></trkpt><trkpt lat="42.79386793923856" lon="11.133256176545624"><ele>15.0</ele><time>2026-03-22T14:00:16.971Z</time></trkpt><trkpt lat="42.79372442669734" lon="11.133467442728072"><ele>14.666666666666668</ele><time>2026-03-22T14:00:17.971Z</time></trkpt><trkpt lat="42.79357660581363" lon="11.133679657798826"><ele>14.333333333333334</ele><time>2026-03-22T14:00:18.971Z</time></trkpt><trkpt lat="42.793428839911385" lon="11.133896476729552"><ele>14.0</ele><time>2026-03-22T14:00:19.971Z</time></trkpt><trkpt lat="42.79327951830989" lon="11.134112953808001"><ele>14.0</ele><time>2026-03-22T14:00:20.971Z</time></trkpt><trkpt lat="42.79312614750335" lon="11.1343274330451"><ele>14.0</ele><time>2026-03-22T14:00:21.971Z</time></trkpt><trkpt lat="42.792977159816374" lon="11.134545494616924"><ele>14.0</ele><time>2026-03-22T14:00:22.97Z</time></trkpt><trkpt lat="42.792831201970955" lon="11.134762902973916"><ele>14.0</ele><time>2026-03-22T14:00:23.97Z</time></trkpt><trkpt lat="42.792683675113096" lon="11.134984118817265"><ele>14.0</ele><time>2026-03-22T14:00:24.97Z</time></trkpt><trkpt lat="42.79253667425976" lon="11.135203591687201"><ele>14.0</ele><time>2026-03-22T14:00:25.97Z</time></trkpt><trkpt lat="42.79238740651566" lon="11.13542565751852"><ele>14.0</ele><time>2026-03-22T14:00:26.97Z</time></trkpt><trkpt lat="42.792237859948514" lon="11.135649339801356"><ele>14.0</ele><time>2026-03-22T14:00:27.97Z</time></trkpt><trkpt lat="42.79208655721371" lon="11.135874254935533"><ele>14.0</ele><time>2026-03-22T14:00:28.97Z</time></trkpt><trkpt lat="42.791931475518034" lon="11.13610683311656"><ele>13.5</ele><time>2026-03-22T14:00:29.97Z</time></trkpt><trkpt lat="42.791776826222616" lon="11.136340070137893"><ele>13.0</ele><time>2026-03-22T14:00:30.97Z</time></trkpt><trkpt lat="42.79161560020437" lon="11.136571488877214"><ele>13.0</ele><time>2026-03-22T14:00:31.97Z</time></trkpt><trkpt lat="42.79145854308355" lon="11.136795727867815"><ele>13.0</ele><time>2026-03-22T14:00:32.97Z</time></trkpt><trkpt lat="42.79131082412794" lon="11.137011020264268"><ele>13.0</ele><time>2026-03-22T14:00:33.97Z</time></trkpt><trkpt lat="42.79116879535017" lon="11.137219247253272"><ele>13.0</ele><time>2026-03-22T14:00:34.97Z</time></trkpt><trkpt lat="42.791037804727" lon="11.137417576493926"><ele>13.0</ele><time>2026-03-22T14:00:35.97Z</time></trkpt><trkpt lat="42.79091257448792" lon="11.13760352247714"><ele>13.0</ele><time>2026-03-22T14:00:36.97Z</time></trkpt><trkpt lat="42.79078584902411" lon="11.137785193297296"><ele>13.333333333333332</ele><time>2026-03-22T14:00:37.97Z</time></trkpt><trkpt lat="42.7906559092252" lon="11.137972417335"><ele>13.666666666666668</ele><time>2026-03-22T14:00:38.97Z</time></trkpt><trkpt lat="42.79052908109246" lon="11.138155853205964"><ele>14.0</ele><time>2026-03-22T14:00:39.97Z</time></trkpt><trkpt lat="42.790399805414374" lon="11.138343730946687"><ele>14.0</ele><time>2026-03-22T14:00:40.97Z</time></trkpt><trkpt lat="42.79027063957202" lon="11.138528534473776"><ele>14.0</ele><time>2026-03-22T14:00:41.97Z</time></trkpt><trkpt lat="42.79014206332517" lon="11.13871713918492"><ele>14.0</ele><time>2026-03-22T14:00:42.97Z</time></trkpt><trkpt lat="42.79001223428863" lon="11.138912863525103"><ele>14.0</ele><time>2026-03-22T14:00:43.97Z</time></trkpt><trkpt lat="42.78988138928313" lon="11.139107501896845"><ele>14.0</ele><time>2026-03-22T14:00:44.97Z</time></trkpt><trkpt lat="42.789753061108115" lon="11.139305765006174"><ele>14.0</ele><time>2026-03-22T14:00:45.97Z</time></trkpt><trkpt lat="42.78962222250485" lon="11.139501687365454"><ele>14.0</ele><time>2026-03-22T14:00:46.97Z</time></trkpt><trkpt lat="42.78948947360421" lon="11.139697739882337"><ele>14.0</ele><time>2026-03-22T14:00:47.97Z</time></trkpt><trkpt lat="42.789356978680026" lon="11.13989007880289"><ele>14.0</ele><time>2026-03-22T14:00:48.97Z</time></trkpt><trkpt lat="42.78922173785103" lon="11.14008687898762"><ele>14.333333333333334</ele><time>2026-03-22T14:00:49.97Z</time></trkpt><trkpt lat="42.789090254126954" lon="11.140279054414126"><ele>14.666666666666668</ele><time>2026-03-22T14:00:50.97Z</time></trkpt><trkpt lat="42.788959688973996" lon="11.140471896655098"><ele>15.0</ele><time>2026-03-22T14:00:51.97Z</time></trkpt><trkpt lat="42.78883188250822" lon="11.140658336082447"><ele>15.333333333333332</ele><time>2026-03-22T14:00:52.969Z</time></trkpt><trkpt lat="42.78870394782852" lon="11.140847250565939"><ele>15.666666666666666</ele><time>2026-03-22T14:00:53.969Z</time></trkpt><trkpt lat="42.788579142457785" lon="11.141028691648078"><ele>16.0</ele><time>2026-03-22T14:00:54.969Z</time></trkpt><trkpt lat="42.78845859768085" lon="11.141206828620557"><ele>16.0</ele><time>2026-03-22T14:00:55.969Z</time></trkpt><trkpt lat="42.788338342965986" lon="11.141382356020422"><ele>16.0</ele><time>2026-03-22T14:00:56.969Z</time></trkpt><trkpt lat="42.788214730639666" lon="11.141552449574906"><ele>16.0</ele><time>2026-03-22T14:00:57.969Z</time></trkpt><trkpt lat="42.78809109074278" lon="11.141720419652671"><ele>15.666666666666666</ele><time>2026-03-22T14:00:58.969Z</time></trkpt><trkpt lat="42.78796509929946" lon="11.141884862145293"><ele>15.333333333333332</ele><time>2026-03-22T14:00:59.969Z</time></trkpt><trkpt lat="42.78783993944625" lon="11.142043889853774"><ele>15.0</ele><time>2026-03-22T14:01:00.969Z</time></trkpt><trkpt lat="42.78771191410176" lon="11.142203049204435"><ele>14.666666666666668</ele><time>2026-03-22T14:01:01.969Z</time></trkpt><trkpt lat="42.78758010283541" lon="11.142362240398374"><ele>14.333333333333334</ele><time>2026-03-22T14:01:02.969Z</time></trkpt><trkpt lat="42.787442521042436" lon="11.142517859806102"><ele>14.0</ele><time>2026-03-22T14:01:03.969Z</time></trkpt><trkpt lat="42.787296588444285" lon="11.142670571684423"><ele>13.666666666666668</ele><time>2026-03-22T14:01:04.969Z</time></trkpt><trkpt lat="42.78714394366199" lon="11.142824885510386"><ele>13.333333333333332</ele><time>2026-03-22T14:01:05.969Z</time></trkpt><trkpt lat="42.78698418384371" lon="11.142976938378215"><ele>13.0</ele><time>2026-03-22T14:01:06.969Z</time></trkpt><trkpt lat="42.786812990457214" lon="11.143132369949187"><ele>13.0</ele><time>2026-03-22T14:01:07.969Z</time></trkpt><trkpt lat="42.78662950391985" lon="11.143283531707883"><ele>13.0</ele><time>2026-03-22T14:01:08.969Z</time></trkpt><trkpt lat="42.786437234795095" lon="11.143434278972931"><ele>13.0</ele><time>2026-03-22T14:01:09.969Z</time></trkpt><trkpt lat="42.78623743526148" lon="11.14358182870391"><ele>13.0</ele><time>2026-03-22T14:01:10.969Z</time></trkpt><trkpt lat="42.78603269292306" lon="11.143721783212778"><ele>13.0</ele><time>2026-03-22T14:01:11.969Z</time></trkpt><trkpt lat="42.78582308743412" lon="11.143854691482636"><ele>13.0</ele><time>2026-03-22T14:01:12.969Z</time></trkpt><trkpt lat="42.78560991718817" lon="11.143977083136624"><ele>13.0</ele><time>2026-03-22T14:01:13.969Z</time></trkpt><trkpt lat="42.78538999396237" lon="11.144090026626827"><ele>13.0</ele><time>2026-03-22T14:01:14.969Z</time></trkpt><trkpt lat="42.785169456588555" lon="11.144195480030975"><ele>13.0</ele><time>2026-03-22T14:01:15.969Z</time></trkpt><trkpt lat="42.78494147853448" lon="11.144295621074779"><ele>13.0</ele><time>2026-03-22T14:01:16.969Z</time></trkpt><trkpt lat="42.784712186060155" lon="11.144380480674645"><ele>13.0</ele><time>2026-03-22T14:01:17.969Z</time></trkpt><trkpt lat="42.78447706020399" lon="11.144455054996442"><ele>14.0</ele><time>2026-03-22T14:01:18.969Z</time></trkpt><trkpt lat="42.78423951939515" lon="11.144521306270482"><ele>15.0</ele><time>2026-03-22T14:01:19.969Z</time></trkpt><trkpt lat="42.78399945355641" lon="11.144574734278503"><ele>15.0</ele><time>2026-03-22T14:01:20.969Z</time></trkpt><trkpt lat="42.783756320198115" lon="11.144618697866175"><ele>15.0</ele><time>2026-03-22T14:01:21.969Z</time></trkpt><trkpt lat="42.783511418112106" lon="11.144653149805775"><ele>17.0</ele><time>2026-03-22T14:01:22.968Z</time></trkpt><trkpt lat="42.78326316724336" lon="11.144675967939115"><ele>19.0</ele><time>2026-03-22T14:01:23.968Z</time></trkpt><trkpt lat="42.78301202841951" lon="11.144688076771631"><ele>19.0</ele><time>2026-03-22T14:01:24.968Z</time></trkpt><trkpt lat="42.78276238615514" lon="11.144691765235606"><ele>19.0</ele><time>2026-03-22T14:01:25.968Z</time></trkpt><trkpt lat="42.7825129166809" lon="11.144683182072097"><ele>18.0</ele><time>2026-03-22T14:01:26.968Z</time></trkpt><trkpt lat="42.782260008400314" lon="11.14467791882679"><ele>17.0</ele><time>2026-03-22T14:01:27.968Z</time></trkpt><trkpt lat="42.78200569014099" lon="11.144668367277214"><ele>15.5</ele><time>2026-03-22T14:01:28.968Z</time></trkpt><trkpt lat="42.78174993480004" lon="11.144658545649621"><ele>14.0</ele><time>2026-03-22T14:01:29.968Z</time></trkpt><trkpt lat="42.781494437752215" lon="11.144643976806943"><ele>14.0</ele><time>2026-03-22T14:01:30.968Z</time></trkpt><trkpt lat="42.781236801530355" lon="11.144629863617473"><ele>14.0</ele><time>2026-03-22T14:01:31.968Z</time></trkpt><trkpt lat="42.780978888897295" lon="11.144614176268236"><ele>13.5</ele><time>2026-03-22T14:01:32.968Z</time></trkpt><trkpt lat="42.780724143620276" lon="11.144597307424561"><ele>13.0</ele><time>2026-03-22T14:01:33.968Z</time></trkpt><trkpt lat="42.78047059256399" lon="11.144579056570015"><ele>13.0</ele><time>2026-03-22T14:01:34.968Z</time></trkpt><trkpt lat="42.78021925692074" lon="11.144557966158107"><ele>13.0</ele><time>2026-03-22T14:01:35.968Z</time></trkpt><trkpt lat="42.779968394835464" lon="11.144536794088067"><ele>11.5</ele><time>2026-03-22T14:01:36.968Z</time></trkpt><trkpt lat="42.77971650657288" lon="11.144512646558843"><ele>10.0</ele><time>2026-03-22T14:01:37.968Z</time></trkpt><trkpt lat="42.77946516712268" lon="11.144490674180055"><ele>11.0</ele><time>2026-03-22T14:01:38.968Z</time></trkpt><trkpt lat="42.779213416173896" lon="11.144458863149548"><ele>12.0</ele><time>2026-03-22T14:01:39.968Z</time></trkpt><trkpt lat="42.778961049771574" lon="11.144429309692491"><ele>12.0</ele><time>2026-03-22T14:01:40.968Z</time></trkpt><trkpt lat="42.77871198700484" lon="11.144405783760734"><ele>12.0</ele><time>2026-03-22T14:01:41.968Z</time></trkpt><trkpt lat="42.778460909807656" lon="11.144384544168547"><ele>12.0</ele><time>2026-03-22T14:01:42.968Z</time></trkpt><trkpt lat="42.778212029602464" lon="11.14436333110745"><ele>12.0</ele><time>2026-03-22T14:01:43.968Z</time></trkpt><trkpt lat="42.77796320717919" lon="11.14434161602997"><ele>12.0</ele><time>2026-03-22T14:01:44.968Z</time></trkpt><trkpt lat="42.77771059175433" lon="11.144321447011015"><ele>12.0</ele><time>2026-03-22T14:01:45.968Z</time></trkpt><trkpt lat="42.77745884952948" lon="11.144302931897524"><ele>13.0</ele><time>2026-03-22T14:01:46.969Z</time></trkpt><trkpt lat="42.777206487497956" lon="11.144285095402413"><ele>14.0</ele><time>2026-03-22T14:01:47.97Z</time></trkpt><trkpt lat="42.77695527021974" lon="11.144266053486708"><ele>15.0</ele><time>2026-03-22T14:01:48.97Z</time></trkpt><trkpt lat="42.77670953027763" lon="11.144241916302775"><ele>16.0</ele><time>2026-03-22T14:01:49.969Z</time></trkpt><trkpt lat="42.776480441331735" lon="11.144208393742666"><ele>16.0</ele><time>2026-03-22T14:01:50.969Z</time></trkpt><trkpt lat="42.77626577330283" lon="11.144180714636395"><ele>16.0</ele><time>2026-03-22T14:01:51.969Z</time></trkpt><trkpt lat="42.77605181244845" lon="11.144156733770577"><ele>16.0</ele><time>2026-03-22T14:01:52.97Z</time></trkpt><trkpt lat="42.77583850917844" lon="11.14413867397262"><ele>16.333333333333332</ele><time>2026-03-22T14:01:53.97Z</time></trkpt><trkpt lat="42.775632378257974" lon="11.144110143883333"><ele>16.666666666666668</ele><time>2026-03-22T14:01:54.97Z</time></trkpt><trkpt lat="42.77543385745518" lon="11.144087161438033"><ele>17.0</ele><time>2026-03-22T14:01:55.969Z</time></trkpt><trkpt lat="42.775247044344944" lon="11.144045393868607"><ele>17.0</ele><time>2026-03-22T14:01:56.97Z</time></trkpt><trkpt lat="42.775073435950844" lon="11.143974670788676"><ele>17.0</ele><time>2026-03-22T14:01:57.97Z</time></trkpt><trkpt lat="42.774921140502414" lon="11.143881057635602"><ele>17.0</ele><time>2026-03-22T14:01:58.97Z</time></trkpt><trkpt lat="42.77478392242903" lon="11.143768178104818"><ele>17.0</ele><time>2026-03-22T14:01:59.97Z</time></trkpt><trkpt lat="42.77465897274245" lon="11.143638230805697"><ele>17.0</ele><time>2026-03-22T14:02:00.97Z</time></trkpt><trkpt lat="42.774536549833215" lon="11.143495234820392"><ele>17.0</ele><time>2026-03-22T14:02:01.969Z</time></trkpt><trkpt lat="42.7744119592855" lon="11.143354182928146"><ele>16.666666666666668</ele><time>2026-03-22T14:02:02.969Z</time></trkpt><trkpt lat="42.77428917333939" lon="11.143211393724012"><ele>16.333333333333332</ele><time>2026-03-22T14:02:03.969Z</time></trkpt><trkpt lat="42.774164354736925" lon="11.143066630773616"><ele>16.0</ele><time>2026-03-22T14:02:04.969Z</time></trkpt><trkpt lat="42.77403513577667" lon="11.142926033648337"><ele>16.0</ele><time>2026-03-22T14:02:05.969Z</time></trkpt><trkpt lat="42.77390292715838" lon="11.142799805363923"><ele>16.0</ele><time>2026-03-22T14:02:06.969Z</time></trkpt><trkpt lat="42.773762242468734" lon="11.142691505189346"><ele>16.0</ele><time>2026-03-22T14:02:07.969Z</time></trkpt><trkpt lat="42.77361555531717" lon="11.14260824011991"><ele>16.0</ele><time>2026-03-22T14:02:08.969Z</time></trkpt><trkpt lat="42.77347105806836" lon="11.142505925431049"><ele>16.0</ele><time>2026-03-22T14:02:09.969Z</time></trkpt><trkpt lat="42.77331465392049" lon="11.142512196778213"><ele>16.0</ele><time>2026-03-22T14:02:10.969Z</time></trkpt><trkpt lat="42.77316777189193" lon="11.14256926034786"><ele>16.0</ele><time>2026-03-22T14:02:11.969Z</time></trkpt><trkpt lat="42.77303939141528" lon="11.142666121336799"><ele>16.0</ele><time>2026-03-22T14:02:12.969Z</time></trkpt><trkpt lat="42.77294177468847" lon="11.142739276932542"><ele>16.0</ele><time>2026-03-22T14:02:13.969Z</time></trkpt><trkpt lat="42.772857149403684" lon="11.14287682243618"><ele>16.0</ele><time>2026-03-22T14:02:14.969Z</time></trkpt><trkpt lat="42.77279190070412" lon="11.143045768251609"><ele>16.0</ele><time>2026-03-22T14:02:15.969Z</time></trkpt><trkpt lat="42.77273998717216" lon="11.143237353008574"><ele>16.0</ele><time>2026-03-22T14:02:16.969Z</time></trkpt><trkpt lat="42.77270143715834" lon="11.143425493913947"><ele>16.0</ele><time>2026-03-22T14:02:17.969Z</time></trkpt><trkpt lat="42.77266778552117" lon="11.143603136553603"><ele>16.0</ele><time>2026-03-22T14:02:18.969Z</time></trkpt><trkpt lat="42.77264093291381" lon="11.143769288355772"><ele>16.0</ele><time>2026-03-22T14:02:19.969Z</time></trkpt><trkpt lat="42.772613001642654" lon="11.143930318458269"><ele>16.0</ele><time>2026-03-22T14:02:20.969Z</time></trkpt><trkpt lat="42.77258131518925" lon="11.14408739246949"><ele>16.0</ele><time>2026-03-22T14:02:21.969Z</time></trkpt><trkpt lat="42.77255309966693" lon="11.144227611731386"><ele>16.0</ele><time>2026-03-22T14:02:22.969Z</time></trkpt><trkpt lat="42.77252458689853" lon="11.144373453621595"><ele>16.2</ele><time>2026-03-22T14:02:23.969Z</time></trkpt><trkpt lat="42.772498737428954" lon="11.144514841734983"><ele>16.400000000000002</ele><time>2026-03-22T14:02:24.969Z</time></trkpt><trkpt lat="42.772472275441785" lon="11.144653942761277"><ele>16.6</ele><time>2026-03-22T14:02:25.969Z</time></trkpt><trkpt lat="42.77243092075187" lon="11.144781022668761"><ele>16.8</ele><time>2026-03-22T14:02:26.969Z</time></trkpt><trkpt lat="42.772408393462406" lon="11.144905673206248"><ele>17.0</ele><time>2026-03-22T14:02:27.969Z</time></trkpt><trkpt lat="42.77238630350145" lon="11.145025876770998"><ele>17.0</ele><time>2026-03-22T14:02:28.969Z</time></trkpt><trkpt lat="42.77236522661213" lon="11.145143019000978"><ele>17.0</ele><time>2026-03-22T14:02:29.969Z</time></trkpt><trkpt lat="42.77234505410166" lon="11.145252775376566"><ele>17.0</ele><time>2026-03-22T14:02:30.969Z</time></trkpt><trkpt lat="42.7723127571902" lon="11.14535647773144"><ele>17.0</ele><time>2026-03-22T14:02:31.968Z</time></trkpt><trkpt lat="42.77229337715401" lon="11.145459845973729"><ele>17.0</ele><time>2026-03-22T14:02:32.968Z</time></trkpt><trkpt lat="42.772248951914285" lon="11.145537438033122"><ele>17.0</ele><time>2026-03-22T14:02:33.968Z</time></trkpt><trkpt lat="42.772215799366855" lon="11.145612439376164"><ele>17.0</ele><time>2026-03-22T14:02:34.968Z</time></trkpt><trkpt lat="42.772178702352335" lon="11.145684234947145"><ele>17.0</ele><time>2026-03-22T14:02:35.968Z</time></trkpt><trkpt lat="42.77210931332115" lon="11.14579056911166"><ele>17.0</ele><time>2026-03-22T14:02:37.968Z</time></trkpt><trkpt lat="42.772019708186896" lon="11.145885385115307"><ele>17.0</ele><time>2026-03-22T14:02:39.968Z</time></trkpt><trkpt lat="42.771936775217824" lon="11.145945330078026"><ele>17.0</ele><time>2026-03-22T14:02:41.968Z</time></trkpt><trkpt lat="42.77186171926808" lon="11.145986918296884"><ele>16.666666666666668</ele><time>2026-03-22T14:02:43.968Z</time></trkpt><trkpt lat="42.77175187062169" lon="11.14602947091212"><ele>16.333333333333336</ele><time>2026-03-22T14:02:45.968Z</time></trkpt><trkpt lat="42.77168196701479" lon="11.146044430197573"><ele>16.0</ele><time>2026-03-22T14:02:46.968Z</time></trkpt><trkpt lat="42.77160539901073" lon="11.146046465193105"><ele>15.666666666666668</ele><time>2026-03-22T14:02:47.968Z</time></trkpt><trkpt lat="42.771517784516575" lon="11.146031461953996"><ele>15.333333333333334</ele><time>2026-03-22T14:02:48.968Z</time></trkpt><trkpt lat="42.77142457253298" lon="11.14600869371035"><ele>15.0</ele><time>2026-03-22T14:02:49.968Z</time></trkpt><trkpt lat="42.77132671815924" lon="11.145980800668706"><ele>15.0</ele><time>2026-03-22T14:02:50.968Z</time></trkpt><trkpt lat="42.7712265396923" lon="11.145950170455642"><ele>15.0</ele><time>2026-03-22T14:02:51.968Z</time></trkpt><trkpt lat="42.77111847026976" lon="11.145914911529692"><ele>15.0</ele><time>2026-03-22T14:02:52.968Z</time></trkpt><trkpt lat="42.77100230954211" lon="11.145876979269849"><ele>15.0</ele><time>2026-03-22T14:02:53.968Z</time></trkpt><trkpt lat="42.77088484532212" lon="11.14583875442836"><ele>15.25</ele><time>2026-03-22T14:02:54.968Z</time></trkpt><trkpt lat="42.770770440445304" lon="11.145801525145119"><ele>15.5</ele><time>2026-03-22T14:02:55.968Z</time></trkpt><trkpt lat="42.770648021238635" lon="11.145776265364233"><ele>15.75</ele><time>2026-03-22T14:02:56.968Z</time></trkpt><trkpt lat="42.770523531750406" lon="11.145736915960748"><ele>16.0</ele><time>2026-03-22T14:02:57.968Z</time></trkpt><trkpt lat="42.77040155004426" lon="11.145688495965373"><ele>16.0</ele><time>2026-03-22T14:02:58.968Z</time></trkpt><trkpt lat="42.77027522076779" lon="11.145650362162089"><ele>16.0</ele><time>2026-03-22T14:02:59.968Z</time></trkpt><trkpt lat="42.770144056970715" lon="11.14560892208504"><ele>16.0</ele><time>2026-03-22T14:03:00.968Z</time></trkpt><trkpt lat="42.77001721640686" lon="11.145566089676981"><ele>16.0</ele><time>2026-03-22T14:03:01.967Z</time></trkpt><trkpt lat="42.76988800752712" lon="11.145517125668535"><ele>16.25</ele><time>2026-03-22T14:03:02.967Z</time></trkpt><trkpt lat="42.76975744205779" lon="11.145475927822211"><ele>16.5</ele><time>2026-03-22T14:03:03.967Z</time></trkpt><trkpt lat="42.76962265577104" lon="11.145433112306787"><ele>16.75</ele><time>2026-03-22T14:03:04.967Z</time></trkpt><trkpt lat="42.76948938344627" lon="11.145388524061389"><ele>17.0</ele><time>2026-03-22T14:03:05.967Z</time></trkpt><trkpt lat="42.76935338900511" lon="11.145339337321731"><ele>16.0</ele><time>2026-03-22T14:03:06.967Z</time></trkpt><trkpt lat="42.76922287231389" lon="11.145295610497872"><ele>15.0</ele><time>2026-03-22T14:03:07.967Z</time></trkpt><trkpt lat="42.76908514206789" lon="11.145253374690135"><ele>14.0</ele><time>2026-03-22T14:03:08.967Z</time></trkpt><trkpt lat="42.76895437166214" lon="11.145198872433642"><ele>13.0</ele><time>2026-03-22T14:03:09.967Z</time></trkpt><trkpt lat="42.76882225826646" lon="11.145142532909555"><ele>13.0</ele><time>2026-03-22T14:03:10.967Z</time></trkpt><trkpt lat="42.76869923274582" lon="11.14507698275562"><ele>13.0</ele><time>2026-03-22T14:03:11.967Z</time></trkpt><trkpt lat="42.76857765691725" lon="11.145004654540077"><ele>13.0</ele><time>2026-03-22T14:03:12.967Z</time></trkpt><trkpt lat="42.7684619754171" lon="11.144928732239356"><ele>13.0</ele><time>2026-03-22T14:03:13.967Z</time></trkpt><trkpt lat="42.76835400318989" lon="11.144847975945053"><ele>13.2</ele><time>2026-03-22T14:03:14.967Z</time></trkpt><trkpt lat="42.76825080622334" lon="11.14476619304534"><ele>13.4</ele><time>2026-03-22T14:03:15.967Z</time></trkpt><trkpt lat="42.76815565290158" lon="11.144679792550436"><ele>13.599999999999998</ele><time>2026-03-22T14:03:16.967Z</time></trkpt><trkpt lat="42.76807430958834" lon="11.144582764205103"><ele>13.799999999999999</ele><time>2026-03-22T14:03:17.967Z</time></trkpt><trkpt lat="42.76801573707535" lon="11.144476135210054"><ele>14.0</ele><time>2026-03-22T14:03:18.967Z</time></trkpt><trkpt lat="42.7679681315908" lon="11.144411490886439"><ele>14.0</ele><time>2026-03-22T14:03:19.967Z</time></trkpt><trkpt lat="42.76794010160651" lon="11.144308704523826"><ele>13.999999999999998</ele><time>2026-03-22T14:03:22.967Z</time></trkpt><trkpt lat="42.76793036654582" lon="11.144218503438418"><ele>13.999999999999998</ele><time>2026-03-22T14:03:24.967Z</time></trkpt><trkpt lat="42.76793894463819" lon="11.144025987789528"><ele>14.0</ele><time>2026-03-22T14:03:26.967Z</time></trkpt><trkpt lat="42.76795594321632" lon="11.143903133741642"><ele>14.0</ele><time>2026-03-22T14:03:27.967Z</time></trkpt><trkpt lat="42.76798440378069" lon="11.143755762986897"><ele>14.0</ele><time>2026-03-22T14:03:28.967Z</time></trkpt><trkpt lat="42.768005864976125" lon="11.143620540491142"><ele>14.0</ele><time>2026-03-22T14:03:29.967Z</time></trkpt><trkpt lat="42.768003968342555" lon="11.143468240569387"><ele>14.0</ele><time>2026-03-22T14:03:30.967Z</time></trkpt><trkpt lat="42.768010147358055" lon="11.143294528263379"><ele>14.0</ele><time>2026-03-22T14:03:31.966Z</time></trkpt><trkpt lat="42.76801037313041" lon="11.143132875515931"><ele>14.0</ele><time>2026-03-22T14:03:32.966Z</time></trkpt><trkpt lat="42.76800022893963" lon="11.1429729116474"><ele>14.0</ele><time>2026-03-22T14:03:33.966Z</time></trkpt><trkpt lat="42.76796801231851" lon="11.142805455832566"><ele>14.0</ele><time>2026-03-22T14:03:34.966Z</time></trkpt><trkpt lat="42.7679244779324" lon="11.142643520211974"><ele>14.0</ele><time>2026-03-22T14:03:35.966Z</time></trkpt><trkpt lat="42.7678527437963" lon="11.142491904876541"><ele>13.75</ele><time>2026-03-22T14:03:36.966Z</time></trkpt><trkpt lat="42.76780850447878" lon="11.142328391915806"><ele>13.5</ele><time>2026-03-22T14:03:37.966Z</time></trkpt><trkpt lat="42.76773518892446" lon="11.142191815891689"><ele>13.25</ele><time>2026-03-22T14:03:38.966Z</time></trkpt><trkpt lat="42.767655160183836" lon="11.142063005130028"><ele>13.0</ele><time>2026-03-22T14:03:39.966Z</time></trkpt><trkpt lat="42.76757014879075" lon="11.141937676221367"><ele>12.5</ele><time>2026-03-22T14:03:40.966Z</time></trkpt><trkpt lat="42.767482620099365" lon="11.1418105910346"><ele>12.0</ele><time>2026-03-22T14:03:41.966Z</time></trkpt><trkpt lat="42.76739298344041" lon="11.141680840143287"><ele>11.5</ele><time>2026-03-22T14:03:42.966Z</time></trkpt><trkpt lat="42.76730015143247" lon="11.141548380275418"><ele>11.0</ele><time>2026-03-22T14:03:43.966Z</time></trkpt><trkpt lat="42.767201427224755" lon="11.141417924647351"><ele>11.0</ele><time>2026-03-22T14:03:44.966Z</time></trkpt><trkpt lat="42.76710296985674" lon="11.14128730926628"><ele>11.0</ele><time>2026-03-22T14:03:45.966Z</time></trkpt><trkpt lat="42.76700221300136" lon="11.141152719140056"><ele>11.0</ele><time>2026-03-22T14:03:46.966Z</time></trkpt><trkpt lat="42.7668828022246" lon="11.14105308302242"><ele>11.0</ele><time>2026-03-22T14:03:47.966Z</time></trkpt><trkpt lat="42.76679655059107" lon="11.140894419524624"><ele>10.75</ele><time>2026-03-22T14:03:48.966Z</time></trkpt><trkpt lat="42.76668443675291" lon="11.140774460084197"><ele>10.5</ele><time>2026-03-22T14:03:49.966Z</time></trkpt><trkpt lat="42.766565488515056" lon="11.14065933335518"><ele>10.25</ele><time>2026-03-22T14:03:50.966Z</time></trkpt><trkpt lat="42.76643867843188" lon="11.140556499541457"><ele>10.0</ele><time>2026-03-22T14:03:51.966Z</time></trkpt><trkpt lat="42.76630574845916" lon="11.140451063279402"><ele>10.0</ele><time>2026-03-22T14:03:52.968Z</time></trkpt><trkpt lat="42.76616211547934" lon="11.1403533414646"><ele>10.0</ele><time>2026-03-22T14:03:53.968Z</time></trkpt><trkpt lat="42.766018632077085" lon="11.14025961058703"><ele>10.0</ele><time>2026-03-22T14:03:54.968Z</time></trkpt><trkpt lat="42.76587127927867" lon="11.140165774717888"><ele>10.0</ele><time>2026-03-22T14:03:55.968Z</time></trkpt><trkpt lat="42.76573561530439" lon="11.140048417527865"><ele>10.0</ele><time>2026-03-22T14:03:56.969Z</time></trkpt><trkpt lat="42.76559416819385" lon="11.139952393754715"><ele>10.0</ele><time>2026-03-22T14:03:57.969Z</time></trkpt><trkpt lat="42.76544720715887" lon="11.139877713147959"><ele>10.0</ele><time>2026-03-22T14:03:58.968Z</time></trkpt><trkpt lat="42.765337044774085" lon="11.139799498980997"><ele>10.0</ele><time>2026-03-22T14:03:59.969Z</time></trkpt><trkpt lat="42.7652763854432" lon="11.139753858675665"><ele>10.0</ele><time>2026-03-22T14:04:00.969Z</time></trkpt><trkpt lat="42.76522906527984" lon="11.139683858850768"><ele>10.0</ele><time>2026-03-22T14:04:02.968Z</time></trkpt><trkpt lat="42.76515335551016" lon="11.139672454017125"><ele>10.0</ele><time>2026-03-22T14:04:38.967Z</time></trkpt><trkpt lat="42.76509321934952" lon="11.139636003509535"><ele>10.0</ele><time>2026-03-22T14:04:39.967Z</time></trkpt><trkpt lat="42.76501938349186" lon="11.139563151107769"><ele>10.0</ele><time>2026-03-22T14:04:40.967Z</time></trkpt><trkpt lat="42.76492737484059" lon="11.139511496122974"><ele>10.0</ele><time>2026-03-22T14:04:41.967Z</time></trkpt><trkpt lat="42.76481860830978" lon="11.139443607014588"><ele>10.0</ele><time>2026-03-22T14:04:42.967Z</time></trkpt><trkpt lat="42.764706424373415" lon="11.139364936819627"><ele>10.0</ele><time>2026-03-22T14:04:43.967Z</time></trkpt><trkpt lat="42.764586182274975" lon="11.139286307612428"><ele>10.0</ele><time>2026-03-22T14:04:44.967Z</time></trkpt><trkpt lat="42.76446184180769" lon="11.139203609691675"><ele>10.0</ele><time>2026-03-22T14:04:45.967Z</time></trkpt><trkpt lat="42.764334926724835" lon="11.139120415635551"><ele>10.0</ele><time>2026-03-22T14:04:46.967Z</time></trkpt><trkpt lat="42.76421058653818" lon="11.139042142575066"><ele>10.0</ele><time>2026-03-22T14:04:47.967Z</time></trkpt><trkpt lat="42.76409945015133" lon="11.138949867140626"><ele>9.5</ele><time>2026-03-22T14:04:48.967Z</time></trkpt><trkpt lat="42.76398488890684" lon="11.138866185246625"><ele>9.0</ele><time>2026-03-22T14:04:49.967Z</time></trkpt><trkpt lat="42.76386776216381" lon="11.138775455459655"><ele>8.5</ele><time>2026-03-22T14:04:50.967Z</time></trkpt><trkpt lat="42.763757433286315" lon="11.138669700490864"><ele>8.0</ele><time>2026-03-22T14:04:51.967Z</time></trkpt><trkpt lat="42.76365404775768" lon="11.138547520767098"><ele>8.0</ele><time>2026-03-22T14:04:52.966Z</time></trkpt><trkpt lat="42.76356543626778" lon="11.138393783724872"><ele>8.0</ele><time>2026-03-22T14:04:53.966Z</time></trkpt><trkpt lat="42.763491953479104" lon="11.138222320978135"><ele>8.0</ele><time>2026-03-22T14:04:54.966Z</time></trkpt><trkpt lat="42.76343200141049" lon="11.138041972407285"><ele>8.0</ele><time>2026-03-22T14:04:55.966Z</time></trkpt><trkpt lat="42.763385559926334" lon="11.137857367477126"><ele>8.666666666666666</ele><time>2026-03-22T14:04:56.966Z</time></trkpt><trkpt lat="42.76334721950985" lon="11.13766310740789"><ele>9.333333333333334</ele><time>2026-03-22T14:04:57.966Z</time></trkpt><trkpt lat="42.76330416664135" lon="11.13746123896077"><ele>10.0</ele><time>2026-03-22T14:04:58.966Z</time></trkpt><trkpt lat="42.76325981011284" lon="11.137250167692192"><ele>10.0</ele><time>2026-03-22T14:04:59.966Z</time></trkpt><trkpt lat="42.76321908086443" lon="11.1370446833617"><ele>10.0</ele><time>2026-03-22T14:05:00.966Z</time></trkpt><trkpt lat="42.763175956337655" lon="11.136838928568473"><ele>10.0</ele><time>2026-03-22T14:05:01.966Z</time></trkpt><trkpt lat="42.763136982293304" lon="11.136630670917745"><ele>9.666666666666668</ele><time>2026-03-22T14:05:02.966Z</time></trkpt><trkpt lat="42.763096848501796" lon="11.136417244365337"><ele>9.333333333333334</ele><time>2026-03-22T14:05:03.966Z</time></trkpt><trkpt lat="42.76304836641203" lon="11.136194931309575"><ele>9.0</ele><time>2026-03-22T14:05:04.966Z</time></trkpt><trkpt lat="42.763004839092595" lon="11.135970356504643"><ele>9.0</ele><time>2026-03-22T14:05:05.966Z</time></trkpt><trkpt lat="42.762965626700954" lon="11.135742822088899"><ele>9.0</ele><time>2026-03-22T14:05:06.966Z</time></trkpt><trkpt lat="42.762933770369315" lon="11.135510831798415"><ele>9.0</ele><time>2026-03-22T14:05:07.966Z</time></trkpt><trkpt lat="42.76291401358963" lon="11.135270323186788"><ele>9.666666666666666</ele><time>2026-03-22T14:05:08.966Z</time></trkpt><trkpt lat="42.76289386093923" lon="11.135039553638755"><ele>10.333333333333332</ele><time>2026-03-22T14:05:09.966Z</time></trkpt><trkpt lat="42.76287336217185" lon="11.134817089747958"><ele>11.0</ele><time>2026-03-22T14:05:10.966Z</time></trkpt><trkpt lat="42.76285800551632" lon="11.134620946867493"><ele>11.0</ele><time>2026-03-22T14:05:11.966Z</time></trkpt><trkpt lat="42.76284344625308" lon="11.134444378520824"><ele>11.0</ele><time>2026-03-22T14:05:12.966Z</time></trkpt><trkpt lat="42.76283503124975" lon="11.134278679091668"><ele>11.0</ele><time>2026-03-22T14:05:13.966Z</time></trkpt><trkpt lat="42.762827078508586" lon="11.134123381257291"><ele>11.0</ele><time>2026-03-22T14:05:14.966Z</time></trkpt><trkpt lat="42.762820689670114" lon="11.133971785554149"><ele>10.8</ele><time>2026-03-22T14:05:15.966Z</time></trkpt><trkpt lat="42.76281145281853" lon="11.133818737261699"><ele>10.600000000000001</ele><time>2026-03-22T14:05:16.966Z</time></trkpt><trkpt lat="42.762798161039456" lon="11.1336521062776"><ele>10.4</ele><time>2026-03-22T14:05:17.966Z</time></trkpt><trkpt lat="42.762786664166875" lon="11.133490885892272"><ele>10.2</ele><time>2026-03-22T14:05:18.966Z</time></trkpt><trkpt lat="42.76278810932523" lon="11.133368095140593"><ele>10.0</ele><time>2026-03-22T14:05:19.966Z</time></trkpt><trkpt lat="42.76279871644233" lon="11.133257268459465"><ele>10.0</ele><time>2026-03-22T14:05:20.966Z</time></trkpt><trkpt lat="42.76283518200422" lon="11.133152379754002"><ele>10.0</ele><time>2026-03-22T14:05:21.966Z</time></trkpt><trkpt lat="42.76286319509696" lon="11.133036352036886"><ele>10.0</ele><time>2026-03-22T14:05:22.965Z</time></trkpt><trkpt lat="42.76292571223601" lon="11.132956488889167"><ele>10.0</ele><time>2026-03-22T14:05:23.965Z</time></trkpt><trkpt lat="42.76291902323196" lon="11.132800022648368"><ele>10.0</ele><time>2026-03-22T14:05:25.965Z</time></trkpt><trkpt lat="42.76281557018019" lon="11.132712891131685"><ele>10.0</ele><time>2026-03-22T14:05:27.965Z</time></trkpt><trkpt lat="42.762746860040956" lon="11.13273263471222"><ele>10.0</ele><time>2026-03-22T14:05:28.965Z</time></trkpt><trkpt lat="42.76269781860102" lon="11.132903614400043"><ele>10.0</ele><time>2026-03-22T14:05:30.965Z</time></trkpt><trkpt lat="42.76273537739646" lon="11.13304729789327"><ele>10.0</ele><time>2026-03-22T14:05:32.965Z</time></trkpt><trkpt lat="42.76271586211737" lon="11.133235737429588"><ele>10.0</ele><time>2026-03-22T14:05:34.965Z</time></trkpt><trkpt lat="42.762716735986324" lon="11.133342591133534"><ele>10.0</ele><time>2026-03-22T14:05:35.965Z</time></trkpt><trkpt lat="42.76272431265821" lon="11.133442901735624"><ele>10.0</ele><time>2026-03-22T14:05:36.965Z</time></trkpt><trkpt lat="42.762734123848865" lon="11.133548009729445"><ele>10.0</ele><time>2026-03-22T14:05:37.965Z</time></trkpt><trkpt lat="42.76274120699378" lon="11.133667539769084"><ele>10.0</ele><time>2026-03-22T14:05:38.965Z</time></trkpt><trkpt lat="42.76275232110949" lon="11.133795976398453"><ele>10.0</ele><time>2026-03-22T14:05:39.965Z</time></trkpt><trkpt lat="42.762761770102635" lon="11.133932248594856"><ele>10.2</ele><time>2026-03-22T14:05:40.965Z</time></trkpt><trkpt lat="42.76277231391696" lon="11.134080549124446"><ele>10.4</ele><time>2026-03-22T14:05:41.965Z</time></trkpt><trkpt lat="42.76278600590183" lon="11.134231207734357"><ele>10.600000000000001</ele><time>2026-03-22T14:05:42.965Z</time></trkpt><trkpt lat="42.76279767315048" lon="11.134384013720469"><ele>10.8</ele><time>2026-03-22T14:05:43.965Z</time></trkpt><trkpt lat="42.76281182990909" lon="11.134537876389205"><ele>11.0</ele><time>2026-03-22T14:05:44.965Z</time></trkpt><trkpt lat="42.76282328769482" lon="11.134692163474654"><ele>11.0</ele><time>2026-03-22T14:05:45.965Z</time></trkpt><trkpt lat="42.7628198320844" lon="11.13485299172842"><ele>11.0</ele><time>2026-03-22T14:05:46.965Z</time></trkpt><trkpt lat="42.762848449395804" lon="11.135015057554819"><ele>11.0</ele><time>2026-03-22T14:05:47.965Z</time></trkpt><trkpt lat="42.76286122050531" lon="11.135182222108734"><ele>11.0</ele><time>2026-03-22T14:05:48.965Z</time></trkpt><trkpt lat="42.76287613022899" lon="11.135357876772792"><ele>11.0</ele><time>2026-03-22T14:05:49.965Z</time></trkpt><trkpt lat="42.76287774465195" lon="11.135540098911239"><ele>11.0</ele><time>2026-03-22T14:05:50.965Z</time></trkpt><trkpt lat="42.7628993735376" lon="11.135722417776721"><ele>11.0</ele><time>2026-03-22T14:05:51.965Z</time></trkpt><trkpt lat="42.762931401831395" lon="11.135909708223108"><ele>11.0</ele><time>2026-03-22T14:05:52.964Z</time></trkpt><trkpt lat="42.76298092307524" lon="11.136092050607381"><ele>10.75</ele><time>2026-03-22T14:05:53.964Z</time></trkpt><trkpt lat="42.76300122717" lon="11.136286018913735"><ele>10.5</ele><time>2026-03-22T14:05:54.964Z</time></trkpt><trkpt lat="42.763037145700515" lon="11.136474713436758"><ele>10.25</ele><time>2026-03-22T14:05:55.964Z</time></trkpt><trkpt lat="42.76307439141563" lon="11.136670380186404"><ele>10.0</ele><time>2026-03-22T14:05:56.964Z</time></trkpt><trkpt lat="42.763128024533984" lon="11.13686357984756"><ele>10.0</ele><time>2026-03-22T14:05:57.964Z</time></trkpt><trkpt lat="42.763164253543025" lon="11.137064477790677"><ele>10.0</ele><time>2026-03-22T14:05:58.967Z</time></trkpt><trkpt lat="42.76320228909279" lon="11.137265747070535"><ele>10.0</ele><time>2026-03-22T14:05:59.967Z</time></trkpt><trkpt lat="42.76322275695037" lon="11.137467424242619"><ele>10.0</ele><time>2026-03-22T14:06:00.967Z</time></trkpt><trkpt lat="42.76326054858055" lon="11.13765598296812"><ele>10.0</ele><time>2026-03-22T14:06:01.967Z</time></trkpt><trkpt lat="42.7632939952331" lon="11.13783973274523"><ele>10.0</ele><time>2026-03-22T14:06:02.967Z</time></trkpt><trkpt lat="42.76333154998269" lon="11.138017124212759"><ele>10.0</ele><time>2026-03-22T14:06:03.967Z</time></trkpt><trkpt lat="42.763369326248466" lon="11.13818659525903"><ele>10.0</ele><time>2026-03-22T14:06:04.967Z</time></trkpt><trkpt lat="42.76341812035737" lon="11.138344025888248"><ele>10.0</ele><time>2026-03-22T14:06:05.967Z</time></trkpt><trkpt lat="42.76348669432618" lon="11.138476227981549"><ele>10.0</ele><time>2026-03-22T14:06:06.967Z</time></trkpt><trkpt lat="42.763570992153205" lon="11.138593622014648"><ele>10.0</ele><time>2026-03-22T14:06:07.967Z</time></trkpt><trkpt lat="42.76367081698169" lon="11.138705018560135"><ele>9.75</ele><time>2026-03-22T14:06:08.967Z</time></trkpt><trkpt lat="42.76378801057064" lon="11.13880335923701"><ele>9.5</ele><time>2026-03-22T14:06:09.967Z</time></trkpt><trkpt lat="42.76391289222456" lon="11.13889692038874"><ele>9.25</ele><time>2026-03-22T14:06:10.967Z</time></trkpt><trkpt lat="42.76404646073452" lon="11.138988266127464"><ele>9.0</ele><time>2026-03-22T14:06:11.967Z</time></trkpt><trkpt lat="42.764184348056446" lon="11.139076907399193"><ele>9.0</ele><time>2026-03-22T14:06:12.967Z</time></trkpt><trkpt lat="42.764327610580885" lon="11.139165882761159"><ele>9.0</ele><time>2026-03-22T14:06:13.967Z</time></trkpt><trkpt lat="42.76447297919646" lon="11.139261549381139"><ele>9.0</ele><time>2026-03-22T14:06:14.967Z</time></trkpt><trkpt lat="42.764624942433464" lon="11.13936471681993"><ele>9.333333333333334</ele><time>2026-03-22T14:06:15.967Z</time></trkpt><trkpt lat="42.76477802762968" lon="11.139469643643286"><ele>9.666666666666668</ele><time>2026-03-22T14:06:16.967Z</time></trkpt><trkpt lat="42.764933981702875" lon="11.13957229881746"><ele>10.0</ele><time>2026-03-22T14:06:17.967Z</time></trkpt><trkpt lat="42.765091237983775" lon="11.139676759976433"><ele>10.0</ele><time>2026-03-22T14:06:18.967Z</time></trkpt><trkpt lat="42.765246249595876" lon="11.139781150304495"><ele>10.0</ele><time>2026-03-22T14:06:19.967Z</time></trkpt><trkpt lat="42.76539801533676" lon="11.139883280106643"><ele>10.0</ele><time>2026-03-22T14:06:20.967Z</time></trkpt><trkpt lat="42.76554910804681" lon="11.139983044602495"><ele>10.0</ele><time>2026-03-22T14:06:21.967Z</time></trkpt><trkpt lat="42.76570002460258" lon="11.140080748853809"><ele>10.0</ele><time>2026-03-22T14:06:22.967Z</time></trkpt><trkpt lat="42.76584970807351" lon="11.140179559153076"><ele>10.0</ele><time>2026-03-22T14:06:23.967Z</time></trkpt><trkpt lat="42.76599746982891" lon="11.140281233200328"><ele>10.0</ele><time>2026-03-22T14:06:24.967Z</time></trkpt><trkpt lat="42.766147372620175" lon="11.140386694888159"><ele>10.0</ele><time>2026-03-22T14:06:25.967Z</time></trkpt><trkpt lat="42.766298773902264" lon="11.140494676698705"><ele>10.0</ele><time>2026-03-22T14:06:26.967Z</time></trkpt><trkpt lat="42.76644265403838" lon="11.14061189862636"><ele>9.666666666666668</ele><time>2026-03-22T14:06:27.967Z</time></trkpt><trkpt lat="42.76658096809009" lon="11.1407393404308"><ele>9.333333333333334</ele><time>2026-03-22T14:06:28.966Z</time></trkpt><trkpt lat="42.76671386565427" lon="11.140882229505047"><ele>9.0</ele><time>2026-03-22T14:06:29.966Z</time></trkpt><trkpt lat="42.76683968007503" lon="11.141039949152672"><ele>9.666666666666666</ele><time>2026-03-22T14:06:30.966Z</time></trkpt><trkpt lat="42.76695483881603" lon="11.141212218313237"><ele>10.333333333333332</ele><time>2026-03-22T14:06:31.966Z</time></trkpt><trkpt lat="42.767062218662915" lon="11.141395309040643"><ele>11.0</ele><time>2026-03-22T14:06:32.966Z</time></trkpt><trkpt lat="42.76715601582188" lon="11.141587483463889"><ele>11.0</ele><time>2026-03-22T14:06:33.966Z</time></trkpt><trkpt lat="42.767238204611125" lon="11.141789265630527"><ele>11.0</ele><time>2026-03-22T14:06:34.966Z</time></trkpt><trkpt lat="42.76730735005081" lon="11.142000141265369"><ele>11.0</ele><time>2026-03-22T14:06:35.966Z</time></trkpt><trkpt lat="42.76736240282828" lon="11.142215820357075"><ele>10.666666666666666</ele><time>2026-03-22T14:06:36.966Z</time></trkpt><trkpt lat="42.767403851396665" lon="11.142434895686549"><ele>10.333333333333334</ele><time>2026-03-22T14:06:37.966Z</time></trkpt><trkpt lat="42.76742820135065" lon="11.142652305029674"><ele>10.0</ele><time>2026-03-22T14:06:38.966Z</time></trkpt><trkpt lat="42.7674424384176" lon="11.142866353895519"><ele>10.0</ele><time>2026-03-22T14:06:39.966Z</time></trkpt><trkpt lat="42.76744320125286" lon="11.143078909881098"><ele>10.0</ele><time>2026-03-22T14:06:40.966Z</time></trkpt><trkpt lat="42.76743685505718" lon="11.143290895061066"><ele>10.0</ele><time>2026-03-22T14:06:41.966Z</time></trkpt><trkpt lat="42.76742310870029" lon="11.143495348516808"><ele>11.0</ele><time>2026-03-22T14:06:42.966Z</time></trkpt><trkpt lat="42.767400444956166" lon="11.14370377351197"><ele>12.0</ele><time>2026-03-22T14:06:43.966Z</time></trkpt><trkpt lat="42.76736757019986" lon="11.143898692243823"><ele>13.0</ele><time>2026-03-22T14:06:44.966Z</time></trkpt><trkpt lat="42.767337319368764" lon="11.144107942877861"><ele>13.0</ele><time>2026-03-22T14:06:45.966Z</time></trkpt><trkpt lat="42.76731063390884" lon="11.144304804460798"><ele>13.0</ele><time>2026-03-22T14:06:46.966Z</time></trkpt><trkpt lat="42.76728755127359" lon="11.144485767958072"><ele>13.0</ele><time>2026-03-22T14:06:47.966Z</time></trkpt><trkpt lat="42.767285635466116" lon="11.144669409801315"><ele>13.0</ele><time>2026-03-22T14:06:48.966Z</time></trkpt><trkpt lat="42.76724383614768" lon="11.144845530590997"><ele>12.5</ele><time>2026-03-22T14:06:49.966Z</time></trkpt><trkpt lat="42.76722198610276" lon="11.145025223922126"><ele>12.0</ele><time>2026-03-22T14:06:50.966Z</time></trkpt><trkpt lat="42.76719983519127" lon="11.145200216011757"><ele>11.5</ele><time>2026-03-22T14:06:51.966Z</time></trkpt><trkpt lat="42.76717758090809" lon="11.145376693162179"><ele>11.0</ele><time>2026-03-22T14:06:52.966Z</time></trkpt><trkpt lat="42.76715488247943" lon="11.145548422672542"><ele>10.75</ele><time>2026-03-22T14:06:53.966Z</time></trkpt><trkpt lat="42.76713388619989" lon="11.145721263299425"><ele>10.5</ele><time>2026-03-22T14:06:54.966Z</time></trkpt><trkpt lat="42.767111453683476" lon="11.145883069624535"><ele>10.25</ele><time>2026-03-22T14:06:55.966Z</time></trkpt><trkpt lat="42.76708979370523" lon="11.14605292748213"><ele>10.0</ele><time>2026-03-22T14:06:56.966Z</time></trkpt><trkpt lat="42.76706820805361" lon="11.146224947013302"><ele>10.0</ele><time>2026-03-22T14:06:57.966Z</time></trkpt><trkpt lat="42.76704619129236" lon="11.146401421829326"><ele>10.0</ele><time>2026-03-22T14:06:58.965Z</time></trkpt><trkpt lat="42.76702382537807" lon="11.146574809090612"><ele>10.0</ele><time>2026-03-22T14:06:59.965Z</time></trkpt><trkpt lat="42.76700074056861" lon="11.146748227954598"><ele>10.0</ele><time>2026-03-22T14:07:00.965Z</time></trkpt><trkpt lat="42.766977991818976" lon="11.146922924836845"><ele>10.75</ele><time>2026-03-22T14:07:01.965Z</time></trkpt><trkpt lat="42.76695429592567" lon="11.147095368925708"><ele>11.5</ele><time>2026-03-22T14:07:02.965Z</time></trkpt><trkpt lat="42.76692906702758" lon="11.147267089642448"><ele>12.25</ele><time>2026-03-22T14:07:03.965Z</time></trkpt><trkpt lat="42.766907228863815" lon="11.147438727993231"><ele>13.0</ele><time>2026-03-22T14:07:04.965Z</time></trkpt><trkpt lat="42.766885070792156" lon="11.147609712900401"><ele>12.5</ele><time>2026-03-22T14:07:05.965Z</time></trkpt><trkpt lat="42.76685959029769" lon="11.147790768787889"><ele>12.0</ele><time>2026-03-22T14:07:06.965Z</time></trkpt><trkpt lat="42.76683649161079" lon="11.147970310924274"><ele>11.5</ele><time>2026-03-22T14:07:07.965Z</time></trkpt><trkpt lat="42.76681222417527" lon="11.148154022123965"><ele>11.0</ele><time>2026-03-22T14:07:08.965Z</time></trkpt><trkpt lat="42.766787064427305" lon="11.148337248089055"><ele>11.0</ele><time>2026-03-22T14:07:09.965Z</time></trkpt><trkpt lat="42.76676319784214" lon="11.148526243027629"><ele>11.0</ele><time>2026-03-22T14:07:10.965Z</time></trkpt><trkpt lat="42.76673883110836" lon="11.148717189052721"><ele>11.0</ele><time>2026-03-22T14:07:11.965Z</time></trkpt><trkpt lat="42.76671280930164" lon="11.148908928713844"><ele>11.0</ele><time>2026-03-22T14:07:12.965Z</time></trkpt><trkpt lat="42.76668872820144" lon="11.149103442305105"><ele>11.25</ele><time>2026-03-22T14:07:13.965Z</time></trkpt><trkpt lat="42.7666644820895" lon="11.149297319664162"><ele>11.5</ele><time>2026-03-22T14:07:14.965Z</time></trkpt><trkpt lat="42.76664182228352" lon="11.149493522307752"><ele>11.75</ele><time>2026-03-22T14:07:15.965Z</time></trkpt><trkpt lat="42.766616601410355" lon="11.149686868994678"><ele>12.0</ele><time>2026-03-22T14:07:16.965Z</time></trkpt><trkpt lat="42.76658863008364" lon="11.149868929411259"><ele>12.399999999999999</ele><time>2026-03-22T14:07:17.965Z</time></trkpt><trkpt lat="42.76656306008808" lon="11.150036429342789"><ele>12.799999999999999</ele><time>2026-03-22T14:07:18.965Z</time></trkpt><trkpt lat="42.76653996307993" lon="11.150181456256993"><ele>13.2</ele><time>2026-03-22T14:07:19.965Z</time></trkpt><trkpt lat="42.7665190543738" lon="11.150300838053262"><ele>13.6</ele><time>2026-03-22T14:07:20.965Z</time></trkpt><trkpt lat="42.766502674280396" lon="11.150394340657636"><ele>14.0</ele><time>2026-03-22T14:07:21.965Z</time></trkpt><trkpt lat="42.766487371435886" lon="11.150501251268995"><ele>14.000000000000002</ele><time>2026-03-22T14:07:23.965Z</time></trkpt><trkpt lat="42.766504724022326" lon="11.150586472617857"><ele>14.0</ele><time>2026-03-22T14:08:42.965Z</time></trkpt><trkpt lat="42.76652530781604" lon="11.15046234642298"><ele>14.0</ele><time>2026-03-22T14:08:45.965Z</time></trkpt><trkpt lat="42.76658569103704" lon="11.150421378512148"><ele>14.0</ele><time>2026-03-22T14:08:46.965Z</time></trkpt><trkpt lat="42.76659900303048" lon="11.150304467193832"><ele>14.000000000000002</ele><time>2026-03-22T14:08:48.965Z</time></trkpt><trkpt lat="42.76661857053733" lon="11.150151211796619"><ele>14.0</ele><time>2026-03-22T14:08:50.965Z</time></trkpt><trkpt lat="42.76662956007417" lon="11.150064062533572"><ele>14.000000000000002</ele><time>2026-03-22T14:08:51.965Z</time></trkpt><trkpt lat="42.76664346111173" lon="11.149969173908922"><ele>14.0</ele><time>2026-03-22T14:08:52.965Z</time></trkpt><trkpt lat="42.766655128628095" lon="11.149874082519366"><ele>14.0</ele><time>2026-03-22T14:08:53.964Z</time></trkpt><trkpt lat="42.76666687292483" lon="11.149770625466026"><ele>14.0</ele><time>2026-03-22T14:08:54.964Z</time></trkpt><trkpt lat="42.766678347124284" lon="11.149655048062746"><ele>14.000000000000002</ele><time>2026-03-22T14:08:55.964Z</time></trkpt><trkpt lat="42.76669282094188" lon="11.149526802413927"><ele>14.0</ele><time>2026-03-22T14:08:56.964Z</time></trkpt><trkpt lat="42.76671017597911" lon="11.149391498107336"><ele>13.6</ele><time>2026-03-22T14:08:57.964Z</time></trkpt><trkpt lat="42.766729917944126" lon="11.149257469928452"><ele>13.2</ele><time>2026-03-22T14:08:58.964Z</time></trkpt><trkpt lat="42.766748276581254" lon="11.149119753587158"><ele>12.799999999999999</ele><time>2026-03-22T14:08:59.964Z</time></trkpt><trkpt lat="42.76676605399863" lon="11.148978077186168"><ele>12.399999999999999</ele><time>2026-03-22T14:09:00.964Z</time></trkpt><trkpt lat="42.76678261481109" lon="11.148840365086334"><ele>12.0</ele><time>2026-03-22T14:09:01.964Z</time></trkpt><trkpt lat="42.766801957859485" lon="11.148703367484291"><ele>11.8</ele><time>2026-03-22T14:09:02.964Z</time></trkpt><trkpt lat="42.766817675087225" lon="11.14857050943946"><ele>11.6</ele><time>2026-03-22T14:09:03.964Z</time></trkpt><trkpt lat="42.766837711558786" lon="11.148431089258109"><ele>11.4</ele><time>2026-03-22T14:09:04.964Z</time></trkpt><trkpt lat="42.76685529227982" lon="11.148288042332371"><ele>11.200000000000001</ele><time>2026-03-22T14:09:05.964Z</time></trkpt><trkpt lat="42.76687258000679" lon="11.1481361670539"><ele>11.0</ele><time>2026-03-22T14:09:06.964Z</time></trkpt><trkpt lat="42.76689167427193" lon="11.147979110594326"><ele>11.5</ele><time>2026-03-22T14:09:07.964Z</time></trkpt><trkpt lat="42.76691177006524" lon="11.147823875716172"><ele>12.0</ele><time>2026-03-22T14:09:08.964Z</time></trkpt><trkpt lat="42.766930821136555" lon="11.147671633117374"><ele>12.5</ele><time>2026-03-22T14:09:09.964Z</time></trkpt><trkpt lat="42.76694954861295" lon="11.147516964035189"><ele>13.0</ele><time>2026-03-22T14:09:10.964Z</time></trkpt><trkpt lat="42.76696958271703" lon="11.147363751916366"><ele>13.0</ele><time>2026-03-22T14:09:11.964Z</time></trkpt><trkpt lat="42.766986958140656" lon="11.147208320325753"><ele>13.0</ele><time>2026-03-22T14:09:12.964Z</time></trkpt><trkpt lat="42.767004874907045" lon="11.147046389639135"><ele>13.0</ele><time>2026-03-22T14:09:13.964Z</time></trkpt><trkpt lat="42.76702445590281" lon="11.14687873278103"><ele>13.0</ele><time>2026-03-22T14:09:14.964Z</time></trkpt><trkpt lat="42.76704704850237" lon="11.146711869594748"><ele>13.0</ele><time>2026-03-22T14:09:15.964Z</time></trkpt><trkpt lat="42.767069444936055" lon="11.146547928685864"><ele>13.0</ele><time>2026-03-22T14:09:16.964Z</time></trkpt><trkpt lat="42.767094308156075" lon="11.146392307463595"><ele>13.0</ele><time>2026-03-22T14:09:17.964Z</time></trkpt><trkpt lat="42.76712216415372" lon="11.146240744765365"><ele>13.0</ele><time>2026-03-22T14:09:18.964Z</time></trkpt><trkpt lat="42.76715875434017" lon="11.146099271886806"><ele>12.600000000000001</ele><time>2026-03-22T14:09:19.964Z</time></trkpt><trkpt lat="42.767201331824594" lon="11.145967984393945"><ele>12.200000000000001</ele><time>2026-03-22T14:09:20.964Z</time></trkpt><trkpt lat="42.767249858063806" lon="11.145848763425425"><ele>11.8</ele><time>2026-03-22T14:09:21.964Z</time></trkpt><trkpt lat="42.7673034661782" lon="11.145741203417346"><ele>11.4</ele><time>2026-03-22T14:09:22.964Z</time></trkpt><trkpt lat="42.76735922793114" lon="11.145641740932952"><ele>11.0</ele><time>2026-03-22T14:09:23.963Z</time></trkpt><trkpt lat="42.767415064668796" lon="11.14555353126297"><ele>11.0</ele><time>2026-03-22T14:09:24.963Z</time></trkpt><trkpt lat="42.76746948519053" lon="11.145463917922566"><ele>11.0</ele><time>2026-03-22T14:09:25.963Z</time></trkpt><trkpt lat="42.76752228304337" lon="11.145383961597718"><ele>11.0</ele><time>2026-03-22T14:09:26.963Z</time></trkpt><trkpt lat="42.76757158594183" lon="11.145311425508083"><ele>11.0</ele><time>2026-03-22T14:09:27.963Z</time></trkpt><trkpt lat="42.767615746137054" lon="11.145248327758798"><ele>11.0</ele><time>2026-03-22T14:09:28.963Z</time></trkpt><trkpt lat="42.76766914908098" lon="11.14513379329543"><ele>11.0</ele><time>2026-03-22T14:09:30.963Z</time></trkpt><trkpt lat="42.76771409065587" lon="11.145063379112186"><ele>11.333333333333332</ele><time>2026-03-22T14:09:32.963Z</time></trkpt><trkpt lat="42.76774429646386" lon="11.14494936677111"><ele>11.666666666666666</ele><time>2026-03-22T14:09:51.963Z</time></trkpt><trkpt lat="42.76778853126532" lon="11.144822117662885"><ele>12.0</ele><time>2026-03-22T14:09:53.962Z</time></trkpt><trkpt lat="42.76785423302343" lon="11.144764135303584"><ele>12.333333333333332</ele><time>2026-03-22T14:09:54.962Z</time></trkpt><trkpt lat="42.76793309424454" lon="11.144749282754127"><ele>12.666666666666666</ele><time>2026-03-22T14:09:55.962Z</time></trkpt><trkpt lat="42.76801125595945" lon="11.144734018333114"><ele>13.0</ele><time>2026-03-22T14:09:56.962Z</time></trkpt><trkpt lat="42.76809947648284" lon="11.144749718756547"><ele>13.0</ele><time>2026-03-22T14:09:57.962Z</time></trkpt><trkpt lat="42.768192838857445" lon="11.14475862617825"><ele>13.0</ele><time>2026-03-22T14:09:58.962Z</time></trkpt><trkpt lat="42.76828223788988" lon="11.14485914003388"><ele>13.0</ele><time>2026-03-22T14:09:59.962Z</time></trkpt><trkpt lat="42.76838275088233" lon="11.144928669779375"><ele>13.0</ele><time>2026-03-22T14:10:00.962Z</time></trkpt><trkpt lat="42.768486354903345" lon="11.145001921082917"><ele>13.0</ele><time>2026-03-22T14:10:01.962Z</time></trkpt><trkpt lat="42.768596575881425" lon="11.145073855096056"><ele>13.0</ele><time>2026-03-22T14:10:02.962Z</time></trkpt><trkpt lat="42.768714001369496" lon="11.14514087981126"><ele>13.0</ele><time>2026-03-22T14:10:03.962Z</time></trkpt><trkpt lat="42.76883650441278" lon="11.145203578705791"><ele>13.0</ele><time>2026-03-22T14:10:04.962Z</time></trkpt><trkpt lat="42.76896312680561" lon="11.145256528681799"><ele>13.0</ele><time>2026-03-22T14:10:05.962Z</time></trkpt><trkpt lat="42.76909314153911" lon="11.145302686787211"><ele>13.0</ele><time>2026-03-22T14:10:06.962Z</time></trkpt><trkpt lat="42.76922509744593" lon="11.145348034623598"><ele>13.0</ele><time>2026-03-22T14:10:07.962Z</time></trkpt><trkpt lat="42.76935434120394" lon="11.145393935382257"><ele>13.0</ele><time>2026-03-22T14:10:08.962Z</time></trkpt><trkpt lat="42.76949075737643" lon="11.145439503667834"><ele>13.0</ele><time>2026-03-22T14:10:09.962Z</time></trkpt><trkpt lat="42.769630656568744" lon="11.145485041126578"><ele>13.75</ele><time>2026-03-22T14:10:10.964Z</time></trkpt><trkpt lat="42.769773515957105" lon="11.14553161989257"><ele>14.5</ele><time>2026-03-22T14:10:11.964Z</time></trkpt><trkpt lat="42.76991680130162" lon="11.145579679012112"><ele>15.25</ele><time>2026-03-22T14:10:12.964Z</time></trkpt><trkpt lat="42.77005851533044" lon="11.145627003778365"><ele>16.0</ele><time>2026-03-22T14:10:13.965Z</time></trkpt><trkpt lat="42.77020406425799" lon="11.14567879688685"><ele>16.0</ele><time>2026-03-22T14:10:14.965Z</time></trkpt><trkpt lat="42.770350307736976" lon="11.1457295474302"><ele>16.0</ele><time>2026-03-22T14:10:15.965Z</time></trkpt><trkpt lat="42.77050059425839" lon="11.145780795038458"><ele>16.0</ele><time>2026-03-22T14:10:16.964Z</time></trkpt><trkpt lat="42.77065311919951" lon="11.145829350898104"><ele>16.0</ele><time>2026-03-22T14:10:17.964Z</time></trkpt><trkpt lat="42.77080446925816" lon="11.145880587464946"><ele>16.0</ele><time>2026-03-22T14:10:18.964Z</time></trkpt><trkpt lat="42.770955160621554" lon="11.145928826027903"><ele>16.0</ele><time>2026-03-22T14:10:19.965Z</time></trkpt><trkpt lat="42.771100679938876" lon="11.145974749193124"><ele>15.75</ele><time>2026-03-22T14:10:20.964Z</time></trkpt><trkpt lat="42.77124241764688" lon="11.146018603881128"><ele>15.5</ele><time>2026-03-22T14:10:21.964Z</time></trkpt><trkpt lat="42.771377995606386" lon="11.146054285012806"><ele>15.25</ele><time>2026-03-22T14:10:22.964Z</time></trkpt><trkpt lat="42.77151254548625" lon="11.146081794131819"><ele>15.0</ele><time>2026-03-22T14:10:23.964Z</time></trkpt><trkpt lat="42.771649189326304" lon="11.146095828510914"><ele>15.0</ele><time>2026-03-22T14:10:24.964Z</time></trkpt><trkpt lat="42.771786871676085" lon="11.146082491656726"><ele>15.0</ele><time>2026-03-22T14:10:25.964Z</time></trkpt><trkpt lat="42.77191873417331" lon="11.146026501350452"><ele>15.0</ele><time>2026-03-22T14:10:26.964Z</time></trkpt><trkpt lat="42.77203648076512" lon="11.145946382767923"><ele>15.0</ele><time>2026-03-22T14:10:27.964Z</time></trkpt><trkpt lat="42.77214267600983" lon="11.14583340542697"><ele>15.5</ele><time>2026-03-22T14:10:28.964Z</time></trkpt><trkpt lat="42.77223042770719" lon="11.145695425141472"><ele>16.0</ele><time>2026-03-22T14:10:29.964Z</time></trkpt><trkpt lat="42.7723064297927" lon="11.145538003985203"><ele>16.5</ele><time>2026-03-22T14:10:30.964Z</time></trkpt><trkpt lat="42.772364802208706" lon="11.145357907097905"><ele>17.0</ele><time>2026-03-22T14:10:31.964Z</time></trkpt><trkpt lat="42.77241303593478" lon="11.145163354493434"><ele>17.0</ele><time>2026-03-22T14:10:32.964Z</time></trkpt><trkpt lat="42.77245499015503" lon="11.144953723976208"><ele>17.0</ele><time>2026-03-22T14:10:33.964Z</time></trkpt><trkpt lat="42.772497130145034" lon="11.144730137451361"><ele>17.0</ele><time>2026-03-22T14:10:34.964Z</time></trkpt><trkpt lat="42.772544624050504" lon="11.144505271676215"><ele>17.0</ele><time>2026-03-22T14:10:35.964Z</time></trkpt><trkpt lat="42.77259710527846" lon="11.144269483512714"><ele>17.0</ele><time>2026-03-22T14:10:36.964Z</time></trkpt><trkpt lat="42.772647050764256" lon="11.144025438143125"><ele>17.0</ele><time>2026-03-22T14:10:37.964Z</time></trkpt><trkpt lat="42.77270123700043" lon="11.143790785724638"><ele>17.0</ele><time>2026-03-22T14:10:38.964Z</time></trkpt><trkpt lat="42.77275945641385" lon="11.143565446171039"><ele>17.0</ele><time>2026-03-22T14:10:39.964Z</time></trkpt><trkpt lat="42.7728126028391" lon="11.143345569481154"><ele>17.0</ele><time>2026-03-22T14:10:40.964Z</time></trkpt><trkpt lat="42.77285308027932" lon="11.143143605380715"><ele>16.666666666666668</ele><time>2026-03-22T14:10:41.964Z</time></trkpt><trkpt lat="42.77292131631257" lon="11.142951642602007"><ele>16.333333333333332</ele><time>2026-03-22T14:10:42.964Z</time></trkpt><trkpt lat="42.77301296471379" lon="11.142791641276238"><ele>16.0</ele><time>2026-03-22T14:10:43.964Z</time></trkpt><trkpt lat="42.773124860974306" lon="11.14266598678435"><ele>16.0</ele><time>2026-03-22T14:10:44.964Z</time></trkpt><trkpt lat="42.77324460478209" lon="11.142584826637801"><ele>16.0</ele><time>2026-03-22T14:10:45.964Z</time></trkpt><trkpt lat="42.773367180746284" lon="11.142541447387753"><ele>16.0</ele><time>2026-03-22T14:10:46.964Z</time></trkpt><trkpt lat="42.773487306999336" lon="11.142536874828934"><ele>16.0</ele><time>2026-03-22T14:10:47.964Z</time></trkpt><trkpt lat="42.77361336829525" lon="11.142587531097748"><ele>16.0</ele><time>2026-03-22T14:10:48.964Z</time></trkpt><trkpt lat="42.773725312539895" lon="11.142665062906266"><ele>16.0</ele><time>2026-03-22T14:10:49.963Z</time></trkpt><trkpt lat="42.77381643711701" lon="11.142769866927937"><ele>16.0</ele><time>2026-03-22T14:10:50.963Z</time></trkpt><trkpt lat="42.77389107005754" lon="11.142898832777435"><ele>16.0</ele><time>2026-03-22T14:10:51.963Z</time></trkpt><trkpt lat="42.773939515451396" lon="11.1430434607812"><ele>16.0</ele><time>2026-03-22T14:10:52.963Z</time></trkpt><trkpt lat="42.77396059544325" lon="11.143204257244054"><ele>16.0</ele><time>2026-03-22T14:10:53.963Z</time></trkpt><trkpt lat="42.77394767689692" lon="11.143367738161917"><ele>16.0</ele><time>2026-03-22T14:10:54.963Z</time></trkpt><trkpt lat="42.773901848227695" lon="11.14352013617027"><ele>16.0</ele><time>2026-03-22T14:10:55.963Z</time></trkpt><trkpt lat="42.77382607036449" lon="11.143653244226572"><ele>16.25</ele><time>2026-03-22T14:10:56.963Z</time></trkpt><trkpt lat="42.77372732976856" lon="11.143758825789925"><ele>16.5</ele><time>2026-03-22T14:10:57.963Z</time></trkpt><trkpt lat="42.77361285158879" lon="11.143835968449913"><ele>16.75</ele><time>2026-03-22T14:10:58.963Z</time></trkpt><trkpt lat="42.77348458579834" lon="11.143879052938352"><ele>17.0</ele><time>2026-03-22T14:10:59.963Z</time></trkpt><trkpt lat="42.773352102898166" lon="11.14389309183843"><ele>17.0</ele><time>2026-03-22T14:11:00.963Z</time></trkpt><trkpt lat="42.77320676412872" lon="11.143891434699032"><ele>17.0</ele><time>2026-03-22T14:11:01.963Z</time></trkpt><trkpt lat="42.77305104902446" lon="11.143886880728171"><ele>17.0</ele><time>2026-03-22T14:11:02.963Z</time></trkpt><trkpt lat="42.772886406564396" lon="11.143881809172603"><ele>17.0</ele><time>2026-03-22T14:11:03.963Z</time></trkpt><trkpt lat="42.7727137418628" lon="11.143875671595174"><ele>17.0</ele><time>2026-03-22T14:11:04.963Z</time></trkpt><trkpt lat="42.772530848240464" lon="11.143864916250571"><ele>17.0</ele><time>2026-03-22T14:11:05.963Z</time></trkpt><trkpt lat="42.772338902959824" lon="11.143855011253025"><ele>17.0</ele><time>2026-03-22T14:11:06.963Z</time></trkpt><trkpt lat="42.77214311358039" lon="11.143849672081611"><ele>17.0</ele><time>2026-03-22T14:11:07.963Z</time></trkpt><trkpt lat="42.77194329903547" lon="11.143842935800414"><ele>17.0</ele><time>2026-03-22T14:11:08.963Z</time></trkpt><trkpt lat="42.77173624155098" lon="11.143832157552401"><ele>17.0</ele><time>2026-03-22T14:11:09.963Z</time></trkpt><trkpt lat="42.771528352055604" lon="11.143814620133016"><ele>17.0</ele><time>2026-03-22T14:11:10.963Z</time></trkpt><trkpt lat="42.77130790845967" lon="11.143789842577768"><ele>17.0</ele><time>2026-03-22T14:11:11.963Z</time></trkpt><trkpt lat="42.77108615602543" lon="11.143766060320285"><ele>18.0</ele><time>2026-03-22T14:11:12.963Z</time></trkpt><trkpt lat="42.77086253194859" lon="11.143743823674102"><ele>19.0</ele><time>2026-03-22T14:11:13.963Z</time></trkpt><trkpt lat="42.77063320747769" lon="11.143723277322886"><ele>19.0</ele><time>2026-03-22T14:11:14.963Z</time></trkpt><trkpt lat="42.77040038914984" lon="11.143700958097343"><ele>19.0</ele><time>2026-03-22T14:11:15.963Z</time></trkpt><trkpt lat="42.77016735413472" lon="11.143681813162981"><ele>18.0</ele><time>2026-03-22T14:11:16.963Z</time></trkpt><trkpt lat="42.76993607062682" lon="11.143668434181109"><ele>17.0</ele><time>2026-03-22T14:11:17.963Z</time></trkpt><trkpt lat="42.76970371804906" lon="11.143653271191532"><ele>17.0</ele><time>2026-03-22T14:11:18.963Z</time></trkpt><trkpt lat="42.76947211871766" lon="11.14363814410795"><ele>17.0</ele><time>2026-03-22T14:11:19.962Z</time></trkpt><trkpt lat="42.76924079763203" lon="11.1436240418275"><ele>16.5</ele><time>2026-03-22T14:11:20.962Z</time></trkpt><trkpt lat="42.76900815902038" lon="11.143605392221112"><ele>16.0</ele><time>2026-03-22T14:11:21.962Z</time></trkpt><trkpt lat="42.76877369073361" lon="11.143588088231684"><ele>16.0</ele><time>2026-03-22T14:11:22.962Z</time></trkpt><trkpt lat="42.76853480419147" lon="11.143570228367134"><ele>16.0</ele><time>2026-03-22T14:11:23.962Z</time></trkpt><trkpt lat="42.768293573717656" lon="11.143558059247768"><ele>15.0</ele><time>2026-03-22T14:11:24.962Z</time></trkpt><trkpt lat="42.768049375208804" lon="11.143542174228557"><ele>14.0</ele><time>2026-03-22T14:11:25.962Z</time></trkpt><trkpt lat="42.767803477106725" lon="11.143524290444791"><ele>15.0</ele><time>2026-03-22T14:11:26.962Z</time></trkpt><trkpt lat="42.76755689439216" lon="11.143505124116295"><ele>16.0</ele><time>2026-03-22T14:11:27.962Z</time></trkpt><trkpt lat="42.76731028591455" lon="11.143483794371553"><ele>16.0</ele><time>2026-03-22T14:11:28.962Z</time></trkpt><trkpt lat="42.767067552071474" lon="11.143447432914158"><ele>16.0</ele><time>2026-03-22T14:11:29.962Z</time></trkpt><trkpt lat="42.76682405508184" lon="11.143400278847365"><ele>16.5</ele><time>2026-03-22T14:11:30.962Z</time></trkpt><trkpt lat="42.76657966290662" lon="11.143344066038186"><ele>17.0</ele><time>2026-03-22T14:11:31.962Z</time></trkpt><trkpt lat="42.76633863776702" lon="11.143282653990497"><ele>14.0</ele><time>2026-03-22T14:11:32.962Z</time></trkpt><trkpt lat="42.766098046298254" lon="11.143212577448192"><ele>11.0</ele><time>2026-03-22T14:11:33.962Z</time></trkpt><trkpt lat="42.765858967221504" lon="11.143134301713546"><ele>11.0</ele><time>2026-03-22T14:11:34.962Z</time></trkpt><trkpt lat="42.76561978354909" lon="11.14304825757234"><ele>11.0</ele><time>2026-03-22T14:11:35.962Z</time></trkpt><trkpt lat="42.765382246119415" lon="11.142948945296906"><ele>13.0</ele><time>2026-03-22T14:11:36.962Z</time></trkpt><trkpt lat="42.765145675436656" lon="11.142836993638937"><ele>15.0</ele><time>2026-03-22T14:11:37.962Z</time></trkpt><trkpt lat="42.76490841012452" lon="11.14271814031066"><ele>15.0</ele><time>2026-03-22T14:11:38.962Z</time></trkpt><trkpt lat="42.764669143769" lon="11.142594596051373"><ele>15.0</ele><time>2026-03-22T14:11:39.962Z</time></trkpt><trkpt lat="42.76443084017209" lon="11.142463048784249"><ele>14.0</ele><time>2026-03-22T14:11:40.962Z</time></trkpt><trkpt lat="42.76419155364684" lon="11.14233479718723"><ele>13.0</ele><time>2026-03-22T14:11:41.962Z</time></trkpt><trkpt lat="42.76395283139859" lon="11.142206331092881"><ele>13.0</ele><time>2026-03-22T14:11:42.962Z</time></trkpt><trkpt lat="42.76371115670017" lon="11.142082616307276"><ele>13.0</ele><time>2026-03-22T14:11:43.962Z</time></trkpt><trkpt lat="42.763470773270164" lon="11.141962737956563"><ele>13.5</ele><time>2026-03-22T14:11:44.962Z</time></trkpt><trkpt lat="42.763230624367026" lon="11.14184430310035"><ele>14.0</ele><time>2026-03-22T14:11:45.962Z</time></trkpt><trkpt lat="42.76298994989546" lon="11.14173167718275"><ele>14.0</ele><time>2026-03-22T14:11:46.962Z</time></trkpt><trkpt lat="42.76274438131053" lon="11.141625816133695"><ele>14.0</ele><time>2026-03-22T14:11:47.962Z</time></trkpt><trkpt lat="42.76249582712327" lon="11.141529510054406"><ele>12.0</ele><time>2026-03-22T14:11:48.962Z</time></trkpt><trkpt lat="42.76224618920946" lon="11.141445953506249"><ele>10.0</ele><time>2026-03-22T14:11:49.961Z</time></trkpt><trkpt lat="42.76199059955896" lon="11.141372622391806"><ele>12.0</ele><time>2026-03-22T14:11:50.961Z</time></trkpt><trkpt lat="42.76173300397589" lon="11.141310493539095"><ele>14.0</ele><time>2026-03-22T14:11:51.961Z</time></trkpt><trkpt lat="42.761472422723685" lon="11.14125719631135"><ele>14.0</ele><time>2026-03-22T14:11:52.961Z</time></trkpt><trkpt lat="42.761208424181305" lon="11.141210796666025"><ele>14.0</ele><time>2026-03-22T14:11:53.961Z</time></trkpt><trkpt lat="42.76094340413914" lon="11.141170150324852"><ele>14.5</ele><time>2026-03-22T14:11:54.961Z</time></trkpt><trkpt lat="42.760676125717836" lon="11.141142532947171"><ele>15.0</ele><time>2026-03-22T14:11:55.961Z</time></trkpt><trkpt lat="42.76040900743125" lon="11.141126637808728"><ele>15.0</ele><time>2026-03-22T14:11:56.961Z</time></trkpt><trkpt lat="42.76014146992423" lon="11.141120223711933"><ele>15.0</ele><time>2026-03-22T14:11:57.961Z</time></trkpt><trkpt lat="42.759874399873425" lon="11.141125456110515"><ele>15.0</ele><time>2026-03-22T14:11:58.961Z</time></trkpt><trkpt lat="42.75960674602267" lon="11.141150069891314"><ele>15.0</ele><time>2026-03-22T14:11:59.961Z</time></trkpt><trkpt lat="42.75933778674253" lon="11.141181599341833"><ele>14.0</ele><time>2026-03-22T14:12:00.961Z</time></trkpt><trkpt lat="42.7590686910035" lon="11.141223671642718"><ele>13.0</ele><time>2026-03-22T14:12:01.961Z</time></trkpt><trkpt lat="42.75879847006585" lon="11.1412766290687"><ele>12.5</ele><time>2026-03-22T14:12:02.961Z</time></trkpt><trkpt lat="42.758528037607924" lon="11.14133647799575"><ele>12.0</ele><time>2026-03-22T14:12:03.961Z</time></trkpt><trkpt lat="42.75826358341587" lon="11.14140775097143"><ele>12.0</ele><time>2026-03-22T14:12:04.961Z</time></trkpt><trkpt lat="42.758001744406066" lon="11.141489547492693"><ele>12.0</ele><time>2026-03-22T14:12:05.961Z</time></trkpt><trkpt lat="42.757741536218894" lon="11.141580427751023"><ele>13.0</ele><time>2026-03-22T14:12:06.961Z</time></trkpt><trkpt lat="42.75748225388505" lon="11.141682181921972"><ele>14.0</ele><time>2026-03-22T14:12:07.961Z</time></trkpt><trkpt lat="42.75722449839742" lon="11.141791443961923"><ele>14.0</ele><time>2026-03-22T14:12:08.961Z</time></trkpt><trkpt lat="42.756969304452554" lon="11.141905997520446"><ele>14.0</ele><time>2026-03-22T14:12:09.961Z</time></trkpt><trkpt lat="42.756710233323474" lon="11.142024983104616"><ele>14.0</ele><time>2026-03-22T14:12:10.961Z</time></trkpt><trkpt lat="42.75645065650506" lon="11.14214211200769"><ele>14.0</ele><time>2026-03-22T14:12:11.961Z</time></trkpt><trkpt lat="42.75619016358621" lon="11.142263755894712"><ele>15.0</ele><time>2026-03-22T14:12:12.961Z</time></trkpt><trkpt lat="42.75592802792226" lon="11.142387449082952"><ele>16.0</ele><time>2026-03-22T14:12:13.961Z</time></trkpt><trkpt lat="42.75566817209521" lon="11.142504267934148"><ele>16.0</ele><time>2026-03-22T14:12:14.961Z</time></trkpt><trkpt lat="42.75540134384843" lon="11.142626668872495"><ele>16.0</ele><time>2026-03-22T14:12:15.963Z</time></trkpt><trkpt lat="42.75514006550569" lon="11.142746493109922"><ele>15.5</ele><time>2026-03-22T14:12:16.963Z</time></trkpt><trkpt lat="42.754875072421534" lon="11.142867333927962"><ele>15.0</ele><time>2026-03-22T14:12:17.963Z</time></trkpt><trkpt lat="42.75460721158491" lon="11.1429874256816"><ele>14.5</ele><time>2026-03-22T14:12:18.963Z</time></trkpt><trkpt lat="42.75434742162224" lon="11.143111769716313"><ele>14.0</ele><time>2026-03-22T14:12:19.963Z</time></trkpt><trkpt lat="42.754081909534676" lon="11.143235205710429"><ele>14.0</ele><time>2026-03-22T14:12:20.963Z</time></trkpt><trkpt lat="42.753814198917574" lon="11.143359224688403"><ele>14.0</ele><time>2026-03-22T14:12:21.963Z</time></trkpt><trkpt lat="42.753550299641404" lon="11.143482728283978"><ele>14.0</ele><time>2026-03-22T14:12:22.963Z</time></trkpt><trkpt lat="42.75328647628028" lon="11.143603334666647"><ele>14.0</ele><time>2026-03-22T14:12:23.963Z</time></trkpt><trkpt lat="42.75302001392901" lon="11.143722390116872"><ele>14.0</ele><time>2026-03-22T14:12:24.963Z</time></trkpt><trkpt lat="42.752756828889254" lon="11.143839794133289"><ele>14.0</ele><time>2026-03-22T14:12:25.963Z</time></trkpt><trkpt lat="42.752490975880896" lon="11.143962009438551"><ele>13.5</ele><time>2026-03-22T14:12:26.963Z</time></trkpt><trkpt lat="42.75222793238911" lon="11.144081970292214"><ele>13.0</ele><time>2026-03-22T14:12:27.963Z</time></trkpt><trkpt lat="42.75196364553699" lon="11.144205683138603"><ele>12.5</ele><time>2026-03-22T14:12:28.962Z</time></trkpt><trkpt lat="42.751698561514175" lon="11.144328181323523"><ele>12.0</ele><time>2026-03-22T14:12:29.962Z</time></trkpt><trkpt lat="42.75143547743698" lon="11.144449511915777"><ele>12.0</ele><time>2026-03-22T14:12:30.962Z</time></trkpt><trkpt lat="42.75117312005632" lon="11.144573050210719"><ele>12.0</ele><time>2026-03-22T14:12:31.962Z</time></trkpt><trkpt lat="42.75090614129368" lon="11.144696002559973"><ele>12.5</ele><time>2026-03-22T14:12:32.962Z</time></trkpt><trkpt lat="42.75064207258967" lon="11.144815749053292"><ele>13.0</ele><time>2026-03-22T14:12:33.962Z</time></trkpt><trkpt lat="42.75037718051917" lon="11.144937545306938"><ele>13.0</ele><time>2026-03-22T14:12:34.962Z</time></trkpt><trkpt lat="42.75011232503525" lon="11.14505984683594"><ele>13.0</ele><time>2026-03-22T14:12:35.962Z</time></trkpt><trkpt lat="42.749846758795165" lon="11.1451819054507"><ele>13.0</ele><time>2026-03-22T14:12:36.962Z</time></trkpt><trkpt lat="42.74957999168065" lon="11.14529737524941"><ele>13.0</ele><time>2026-03-22T14:12:37.962Z</time></trkpt><trkpt lat="42.74930874553313" lon="11.145405691972051"><ele>12.5</ele><time>2026-03-22T14:12:38.962Z</time></trkpt><trkpt lat="42.749039900786705" lon="11.145502461816276"><ele>12.0</ele><time>2026-03-22T14:12:39.962Z</time></trkpt><trkpt lat="42.74876795147705" lon="11.145584125154887"><ele>13.0</ele><time>2026-03-22T14:12:40.962Z</time></trkpt><trkpt lat="42.748493179086424" lon="11.145651781428796"><ele>14.0</ele><time>2026-03-22T14:12:41.962Z</time></trkpt><trkpt lat="42.74821480348262" lon="11.145705037434984"><ele>14.5</ele><time>2026-03-22T14:12:42.962Z</time></trkpt><trkpt lat="42.74793504183613" lon="11.145737776215071"><ele>15.0</ele><time>2026-03-22T14:12:43.962Z</time></trkpt><trkpt lat="42.74765517702792" lon="11.145754679944"><ele>15.0</ele><time>2026-03-22T14:12:44.962Z</time></trkpt><trkpt lat="42.747379037349994" lon="11.145761295917342"><ele>15.0</ele><time>2026-03-22T14:12:45.962Z</time></trkpt><trkpt lat="42.74709658677021" lon="11.14575692872421"><ele>15.5</ele><time>2026-03-22T14:12:46.962Z</time></trkpt><trkpt lat="42.746818781165665" lon="11.145738213082712"><ele>16.0</ele><time>2026-03-22T14:12:47.962Z</time></trkpt><trkpt lat="42.746540027555525" lon="11.145701952408388"><ele>14.5</ele><time>2026-03-22T14:12:48.962Z</time></trkpt><trkpt lat="42.746257423077076" lon="11.145652977007366"><ele>13.0</ele><time>2026-03-22T14:12:49.962Z</time></trkpt><trkpt lat="42.745979080339225" lon="11.14558963081648"><ele>13.0</ele><time>2026-03-22T14:12:50.962Z</time></trkpt><trkpt lat="42.74570511920096" lon="11.145501206263027"><ele>13.0</ele><time>2026-03-22T14:12:51.962Z</time></trkpt><trkpt lat="42.745429545869385" lon="11.14540468131319"><ele>15.0</ele><time>2026-03-22T14:12:52.962Z</time></trkpt><trkpt lat="42.745168610568086" lon="11.145295274952408"><ele>17.0</ele><time>2026-03-22T14:12:53.962Z</time></trkpt><trkpt lat="42.74490378646877" lon="11.145177010062358"><ele>17.0</ele><time>2026-03-22T14:12:54.962Z</time></trkpt><trkpt lat="42.74464450851996" lon="11.145043228041674"><ele>17.0</ele><time>2026-03-22T14:12:55.962Z</time></trkpt><trkpt lat="42.74438598978166" lon="11.144893985385648"><ele>16.5</ele><time>2026-03-22T14:12:56.962Z</time></trkpt><trkpt lat="42.74413702317369" lon="11.144728674592388"><ele>16.0</ele><time>2026-03-22T14:12:57.962Z</time></trkpt><trkpt lat="42.74389209302398" lon="11.144548505029913"><ele>16.0</ele><time>2026-03-22T14:12:58.961Z</time></trkpt><trkpt lat="42.74365641744519" lon="11.144359401703596"><ele>16.0</ele><time>2026-03-22T14:12:59.961Z</time></trkpt><trkpt lat="42.74342500223108" lon="11.144161931410206"><ele>15.5</ele><time>2026-03-22T14:13:00.961Z</time></trkpt><trkpt lat="42.7431972359208" lon="11.143948244876023"><ele>15.0</ele><time>2026-03-22T14:13:01.961Z</time></trkpt><trkpt lat="42.742978039687486" lon="11.143723034531371"><ele>15.0</ele><time>2026-03-22T14:13:02.961Z</time></trkpt><trkpt lat="42.74276680006595" lon="11.143482294531164"><ele>15.0</ele><time>2026-03-22T14:13:03.961Z</time></trkpt><trkpt lat="42.74255793014754" lon="11.143232693750047"><ele>15.5</ele><time>2026-03-22T14:13:04.961Z</time></trkpt><trkpt lat="42.74235270432431" lon="11.142972733025935"><ele>16.0</ele><time>2026-03-22T14:13:05.961Z</time></trkpt><trkpt lat="42.74215837795568" lon="11.142705088755426"><ele>16.0</ele><time>2026-03-22T14:13:06.961Z</time></trkpt><trkpt lat="42.74196935831741" lon="11.142431127895165"><ele>16.0</ele><time>2026-03-22T14:13:07.961Z</time></trkpt><trkpt lat="42.741782167853955" lon="11.142146690606324"><ele>16.0</ele><time>2026-03-22T14:13:08.961Z</time></trkpt><trkpt lat="42.741598596017404" lon="11.14185997039909"><ele>16.0</ele><time>2026-03-22T14:13:09.961Z</time></trkpt><trkpt lat="42.74141979259113" lon="11.141575813902305"><ele>13.5</ele><time>2026-03-22T14:13:10.961Z</time></trkpt><trkpt lat="42.741235631183095" lon="11.141282549116932"><ele>11.0</ele><time>2026-03-22T14:13:11.961Z</time></trkpt><trkpt lat="42.741056663362414" lon="11.140998306279418"><ele>12.5</ele><time>2026-03-22T14:13:12.961Z</time></trkpt><trkpt lat="42.740876421735365" lon="11.140712462797929"><ele>14.0</ele><time>2026-03-22T14:13:13.961Z</time></trkpt><trkpt lat="42.740694721851085" lon="11.14043353728626"><ele>14.0</ele><time>2026-03-22T14:13:14.961Z</time></trkpt><trkpt lat="42.74050975432196" lon="11.140152880985225"><ele>14.0</ele><time>2026-03-22T14:13:15.961Z</time></trkpt><trkpt lat="42.740319935805026" lon="11.139863997355588"><ele>18.0</ele><time>2026-03-22T14:13:16.961Z</time></trkpt><trkpt lat="42.740125901783735" lon="11.139585929353697"><ele>22.0</ele><time>2026-03-22T14:13:17.961Z</time></trkpt><trkpt lat="42.73992769277113" lon="11.139313222809351"><ele>18.0</ele><time>2026-03-22T14:13:18.961Z</time></trkpt><trkpt lat="42.73972431421029" lon="11.139045010092303"><ele>14.0</ele><time>2026-03-22T14:13:19.961Z</time></trkpt><trkpt lat="42.73951232171372" lon="11.138803593011188"><ele>19.5</ele><time>2026-03-22T14:13:20.961Z</time></trkpt><trkpt lat="42.73928444377744" lon="11.13856430585637"><ele>25.0</ele><time>2026-03-22T14:13:21.961Z</time></trkpt><trkpt lat="42.739051014455754" lon="11.138358640035733"><ele>24.0</ele><time>2026-03-22T14:13:22.961Z</time></trkpt><trkpt lat="42.738808726734746" lon="11.138164442710188"><ele>23.0</ele><time>2026-03-22T14:13:23.961Z</time></trkpt><trkpt lat="42.73856106604148" lon="11.137987233129559"><ele>25.5</ele><time>2026-03-22T14:13:24.961Z</time></trkpt><trkpt lat="42.73831011354095" lon="11.137824170738272"><ele>28.0</ele><time>2026-03-22T14:13:25.961Z</time></trkpt><trkpt lat="42.73807125538268" lon="11.1376924541827"><ele>28.0</ele><time>2026-03-22T14:13:26.961Z</time></trkpt><trkpt lat="42.73783072056473" lon="11.13757442074577"><ele>28.0</ele><time>2026-03-22T14:13:27.961Z</time></trkpt><trkpt lat="42.73759183893642" lon="11.137475674679814"><ele>28.5</ele><time>2026-03-22T14:13:28.96Z</time></trkpt><trkpt lat="42.7373495717925" lon="11.137388150412248"><ele>29.0</ele><time>2026-03-22T14:13:29.96Z</time></trkpt><trkpt lat="42.73709690822817" lon="11.137315412265272"><ele>30.5</ele><time>2026-03-22T14:13:30.96Z</time></trkpt><trkpt lat="42.73683173869507" lon="11.13725338963654"><ele>32.0</ele><time>2026-03-22T14:13:31.96Z</time></trkpt><trkpt lat="42.73656757794589" lon="11.137185838007271"><ele>32.0</ele><time>2026-03-22T14:13:32.96Z</time></trkpt><trkpt lat="42.73631617653594" lon="11.137102947987287"><ele>32.0</ele><time>2026-03-22T14:13:33.96Z</time></trkpt><trkpt lat="42.7360596933719" lon="11.137022609605056"><ele>29.0</ele><time>2026-03-22T14:13:34.96Z</time></trkpt><trkpt lat="42.735803076971195" lon="11.136943167345352"><ele>26.0</ele><time>2026-03-22T14:13:35.96Z</time></trkpt><trkpt lat="42.73555109760808" lon="11.13686861754962"><ele>26.0</ele><time>2026-03-22T14:13:36.96Z</time></trkpt><trkpt lat="42.73529790605624" lon="11.136798047224719"><ele>26.0</ele><time>2026-03-22T14:13:37.96Z</time></trkpt><trkpt lat="42.73504516479587" lon="11.136721582662759"><ele>25.5</ele><time>2026-03-22T14:13:38.96Z</time></trkpt><trkpt lat="42.73479670621074" lon="11.136643236145929"><ele>25.0</ele><time>2026-03-22T14:13:39.96Z</time></trkpt><trkpt lat="42.73454760903026" lon="11.136565290910358"><ele>20.5</ele><time>2026-03-22T14:13:40.96Z</time></trkpt><trkpt lat="42.734303727811394" lon="11.136490698172702"><ele>16.0</ele><time>2026-03-22T14:13:41.96Z</time></trkpt><trkpt lat="42.73406596534913" lon="11.13641678981784"><ele>16.0</ele><time>2026-03-22T14:13:42.96Z</time></trkpt><trkpt lat="42.7338326946041" lon="11.13634185612368"><ele>16.0</ele><time>2026-03-22T14:13:43.96Z</time></trkpt><trkpt lat="42.73360947561821" lon="11.136270772843966"><ele>16.333333333333332</ele><time>2026-03-22T14:13:44.96Z</time></trkpt><trkpt lat="42.73339189731684" lon="11.13621077693113"><ele>16.666666666666668</ele><time>2026-03-22T14:13:45.96Z</time></trkpt><trkpt lat="42.73318691334325" lon="11.136145757970144"><ele>17.0</ele><time>2026-03-22T14:13:46.96Z</time></trkpt><trkpt lat="42.73299291434004" lon="11.136081895279943"><ele>17.0</ele><time>2026-03-22T14:13:47.96Z</time></trkpt><trkpt lat="42.73281000230378" lon="11.136027615653198"><ele>17.0</ele><time>2026-03-22T14:13:48.96Z</time></trkpt><trkpt lat="42.73263345203538" lon="11.135972850826812"><ele>17.0</ele><time>2026-03-22T14:13:49.96Z</time></trkpt><trkpt lat="42.73246726492242" lon="11.135916084714985"><ele>17.0</ele><time>2026-03-22T14:13:50.96Z</time></trkpt><trkpt lat="42.732304945726554" lon="11.135851188109738"><ele>17.0</ele><time>2026-03-22T14:13:51.96Z</time></trkpt><trkpt lat="42.7321722443446" lon="11.135768774828405"><ele>17.0</ele><time>2026-03-22T14:13:52.96Z</time></trkpt><trkpt lat="42.73206257857774" lon="11.135663167500917"><ele>17.0</ele><time>2026-03-22T14:13:53.96Z</time></trkpt><trkpt lat="42.73198528028131" lon="11.135525365061493"><ele>17.0</ele><time>2026-03-22T14:13:54.96Z</time></trkpt><trkpt lat="42.731932527948835" lon="11.135382106656664"><ele>17.0</ele><time>2026-03-22T14:13:55.96Z</time></trkpt><trkpt lat="42.73190753031785" lon="11.135226065595317"><ele>17.0</ele><time>2026-03-22T14:13:56.96Z</time></trkpt><trkpt lat="42.73190234289821" lon="11.13507295049162"><ele>17.0</ele><time>2026-03-22T14:13:57.96Z</time></trkpt><trkpt lat="42.73192351484529" lon="11.134917601031493"><ele>16.8</ele><time>2026-03-22T14:13:58.959Z</time></trkpt><trkpt lat="42.7319632849498" lon="11.134773373940712"><ele>16.6</ele><time>2026-03-22T14:13:59.959Z</time></trkpt><trkpt lat="42.73199144558325" lon="11.134635316311545"><ele>16.400000000000002</ele><time>2026-03-22T14:14:00.959Z</time></trkpt><trkpt lat="42.73202274701375" lon="11.134514695618622"><ele>16.2</ele><time>2026-03-22T14:14:01.959Z</time></trkpt><trkpt lat="42.73205317428343" lon="11.134397443893628"><ele>16.0</ele><time>2026-03-22T14:14:02.959Z</time></trkpt><trkpt lat="42.73217348839618" lon="11.134326191369249"><ele>16.0</ele><time>2026-03-22T14:14:03.959Z</time></trkpt><trkpt lat="42.73222214542418" lon="11.13422149400937"><ele>16.0</ele><time>2026-03-22T14:14:04.959Z</time></trkpt><trkpt lat="42.732270499660714" lon="11.134113259493663"><ele>16.0</ele><time>2026-03-22T14:14:05.959Z</time></trkpt><trkpt lat="42.73231948100497" lon="11.13399868427349"><ele>16.0</ele><time>2026-03-22T14:14:06.959Z</time></trkpt><trkpt lat="42.73236354098566" lon="11.133891388391723"><ele>16.0</ele><time>2026-03-22T14:14:07.959Z</time></trkpt><trkpt lat="42.73240875098032" lon="11.133792818357065"><ele>15.833333333333332</ele><time>2026-03-22T14:14:08.959Z</time></trkpt><trkpt lat="42.732456309036095" lon="11.133695709354146"><ele>15.666666666666666</ele><time>2026-03-22T14:14:09.959Z</time></trkpt><trkpt lat="42.73250369984226" lon="11.133599230918607"><ele>15.5</ele><time>2026-03-22T14:14:10.959Z</time></trkpt><trkpt lat="42.732550899699056" lon="11.133509180540308"><ele>15.333333333333332</ele><time>2026-03-22T14:14:11.959Z</time></trkpt><trkpt lat="42.7326012205543" lon="11.133415262363387"><ele>15.166666666666666</ele><time>2026-03-22T14:14:12.959Z</time></trkpt><trkpt lat="42.73264919549872" lon="11.13332399519653"><ele>15.0</ele><time>2026-03-22T14:14:13.959Z</time></trkpt><trkpt lat="42.7326958122087" lon="11.133233648981962"><ele>14.4</ele><time>2026-03-22T14:14:14.959Z</time></trkpt><trkpt lat="42.73274123605509" lon="11.133150999911106"><ele>13.8</ele><time>2026-03-22T14:14:15.959Z</time></trkpt><trkpt lat="42.732820848196646" lon="11.133054192477042"><ele>13.2</ele><time>2026-03-22T14:14:17.959Z</time></trkpt><trkpt lat="42.732910820211636" lon="11.133119760285297"><ele>12.6</ele><time>2026-03-22T14:14:20.959Z</time></trkpt><trkpt lat="42.73299847128784" lon="11.133172889248325"><ele>12.0</ele><time>2026-03-22T14:14:22.962Z</time></trkpt><trkpt lat="42.73311692618636" lon="11.133272531778763"><ele>12.0</ele><time>2026-03-22T14:14:24.961Z</time></trkpt><trkpt lat="42.73318618659744" lon="11.133338015682284"><ele>12.0</ele><time>2026-03-22T14:14:25.961Z</time></trkpt><trkpt lat="42.73325770858578" lon="11.133425552332017"><ele>12.0</ele><time>2026-03-22T14:14:26.961Z</time></trkpt><trkpt lat="42.73331999510566" lon="11.133536058150423"><ele>12.0</ele><time>2026-03-22T14:14:27.961Z</time></trkpt><trkpt lat="42.733347814863414" lon="11.133660353214323"><ele>12.0</ele><time>2026-03-22T14:14:28.962Z</time></trkpt><trkpt lat="42.73337013624308" lon="11.133782621815032"><ele>12.0</ele><time>2026-03-22T14:14:29.962Z</time></trkpt><trkpt lat="42.73338650815513" lon="11.13393151245275"><ele>12.0</ele><time>2026-03-22T14:14:30.962Z</time></trkpt><trkpt lat="42.73340449887752" lon="11.13409525765815"><ele>12.0</ele><time>2026-03-22T14:14:31.962Z</time></trkpt><trkpt lat="42.73343889490846" lon="11.13427020504382"><ele>12.0</ele><time>2026-03-22T14:14:32.962Z</time></trkpt><trkpt lat="42.73344403941129" lon="11.13446304249581"><ele>12.25</ele><time>2026-03-22T14:14:33.961Z</time></trkpt><trkpt lat="42.73347914923654" lon="11.134638864094518"><ele>12.5</ele><time>2026-03-22T14:14:34.961Z</time></trkpt><trkpt lat="42.73348041956098" lon="11.134810150812251"><ele>12.75</ele><time>2026-03-22T14:14:35.961Z</time></trkpt><trkpt lat="42.73349751959871" lon="11.134981127119685"><ele>13.0</ele><time>2026-03-22T14:14:36.961Z</time></trkpt><trkpt lat="42.73351927658778" lon="11.135150640259857"><ele>13.25</ele><time>2026-03-22T14:14:37.961Z</time></trkpt><trkpt lat="42.73354668175013" lon="11.135321256176066"><ele>13.5</ele><time>2026-03-22T14:14:38.961Z</time></trkpt><trkpt lat="42.73358996193802" lon="11.135493949372185"><ele>13.75</ele><time>2026-03-22T14:14:39.961Z</time></trkpt><trkpt lat="42.73365841206112" lon="11.135650412039922"><ele>14.0</ele><time>2026-03-22T14:14:40.961Z</time></trkpt><trkpt lat="42.733749089936225" lon="11.135782605779951"><ele>14.5</ele><time>2026-03-22T14:14:41.961Z</time></trkpt><trkpt lat="42.73385601780664" lon="11.135890595136406"><ele>15.0</ele><time>2026-03-22T14:14:42.961Z</time></trkpt><trkpt lat="42.73397561301311" lon="11.13596944132682"><ele>15.5</ele><time>2026-03-22T14:14:43.961Z</time></trkpt><trkpt lat="42.73410842732462" lon="11.136022377198916"><ele>16.0</ele><time>2026-03-22T14:14:44.961Z</time></trkpt><trkpt lat="42.73424727401917" lon="11.13606010587891"><ele>17.333333333333332</ele><time>2026-03-22T14:14:45.961Z</time></trkpt><trkpt lat="42.734392607781295" lon="11.136099162379743"><ele>18.666666666666668</ele><time>2026-03-22T14:14:46.961Z</time></trkpt><trkpt lat="42.734548279130394" lon="11.136152421878089"><ele>20.0</ele><time>2026-03-22T14:14:47.961Z</time></trkpt><trkpt lat="42.73470892017675" lon="11.136207329117918"><ele>20.0</ele><time>2026-03-22T14:14:48.961Z</time></trkpt><trkpt lat="42.734875618266244" lon="11.136270084249032"><ele>20.0</ele><time>2026-03-22T14:14:49.961Z</time></trkpt><trkpt lat="42.73504826149801" lon="11.136331199380727"><ele>20.0</ele><time>2026-03-22T14:14:50.961Z</time></trkpt><trkpt lat="42.735222221978965" lon="11.136391511268323"><ele>21.333333333333336</ele><time>2026-03-22T14:14:51.961Z</time></trkpt><trkpt lat="42.73538825032365" lon="11.136448162516734"><ele>22.666666666666668</ele><time>2026-03-22T14:14:52.961Z</time></trkpt><trkpt lat="42.73556534647781" lon="11.136506492089701"><ele>24.0</ele><time>2026-03-22T14:14:53.961Z</time></trkpt><trkpt lat="42.73573832111226" lon="11.136560091951052"><ele>24.666666666666664</ele><time>2026-03-22T14:14:54.961Z</time></trkpt><trkpt lat="42.7359136073329" lon="11.136611667316185"><ele>25.333333333333332</ele><time>2026-03-22T14:14:55.96Z</time></trkpt><trkpt lat="42.7360940567395" lon="11.136664712099291"><ele>26.0</ele><time>2026-03-22T14:14:56.96Z</time></trkpt><trkpt lat="42.73627504102067" lon="11.136719173886801"><ele>28.0</ele><time>2026-03-22T14:14:57.96Z</time></trkpt><trkpt lat="42.73645839390709" lon="11.136773748691079"><ele>30.0</ele><time>2026-03-22T14:14:58.96Z</time></trkpt><trkpt lat="42.73664137009873" lon="11.136830115011486"><ele>32.0</ele><time>2026-03-22T14:14:59.96Z</time></trkpt><trkpt lat="42.73682378638339" lon="11.136882026201615"><ele>31.0</ele><time>2026-03-22T14:15:00.96Z</time></trkpt><trkpt lat="42.73701311598199" lon="11.13693826527468"><ele>30.0</ele><time>2026-03-22T14:15:01.96Z</time></trkpt><trkpt lat="42.737198933664175" lon="11.136989966190855"><ele>29.0</ele><time>2026-03-22T14:15:02.96Z</time></trkpt><trkpt lat="42.73738597813913" lon="11.137046281006729"><ele>29.0</ele><time>2026-03-22T14:15:03.96Z</time></trkpt><trkpt lat="42.73756994295736" lon="11.137107472786191"><ele>29.0</ele><time>2026-03-22T14:15:04.96Z</time></trkpt><trkpt lat="42.737756007476314" lon="11.13716551637401"><ele>29.0</ele><time>2026-03-22T14:15:05.96Z</time></trkpt><trkpt lat="42.73794123302903" lon="11.137224327398787"><ele>28.666666666666664</ele><time>2026-03-22T14:15:06.96Z</time></trkpt><trkpt lat="42.73812805163386" lon="11.13728045632422"><ele>28.333333333333336</ele><time>2026-03-22T14:15:07.96Z</time></trkpt><trkpt lat="42.73831391687313" lon="11.137335691837889"><ele>28.0</ele><time>2026-03-22T14:15:08.96Z</time></trkpt><trkpt lat="42.73848902865085" lon="11.137391764348342"><ele>26.333333333333336</ele><time>2026-03-22T14:15:09.96Z</time></trkpt><trkpt lat="42.73865059904271" lon="11.137463845823603"><ele>24.666666666666668</ele><time>2026-03-22T14:15:10.96Z</time></trkpt><trkpt lat="42.738803805250726" lon="11.137552602877124"><ele>23.0</ele><time>2026-03-22T14:15:11.96Z</time></trkpt><trkpt lat="42.738948649028515" lon="11.137670189763869"><ele>23.0</ele><time>2026-03-22T14:15:12.96Z</time></trkpt><trkpt lat="42.73909056459665" lon="11.137823558819925"><ele>23.0</ele><time>2026-03-22T14:15:13.96Z</time></trkpt><trkpt lat="42.73923170720154" lon="11.13800279912698"><ele>23.0</ele><time>2026-03-22T14:15:14.96Z</time></trkpt><trkpt lat="42.73938164573869" lon="11.138181906024977"><ele>20.0</ele><time>2026-03-22T14:15:15.96Z</time></trkpt><trkpt lat="42.739536169096944" lon="11.138361288764662"><ele>17.0</ele><time>2026-03-22T14:15:16.96Z</time></trkpt><trkpt lat="42.739681966716184" lon="11.138532918786948"><ele>14.0</ele><time>2026-03-22T14:15:17.96Z</time></trkpt><trkpt lat="42.73982159499509" lon="11.138706514523367"><ele>14.0</ele><time>2026-03-22T14:15:18.96Z</time></trkpt><trkpt lat="42.73995486451576" lon="11.138872870287472"><ele>14.0</ele><time>2026-03-22T14:15:19.96Z</time></trkpt><trkpt lat="42.740068691820184" lon="11.139016284194021"><ele>14.0</ele><time>2026-03-22T14:15:20.96Z</time></trkpt><trkpt lat="42.74015690562739" lon="11.139161160555489"><ele>13.5</ele><time>2026-03-22T14:15:21.96Z</time></trkpt><trkpt lat="42.740217322972605" lon="11.139314281208083"><ele>13.0</ele><time>2026-03-22T14:15:22.96Z</time></trkpt><trkpt lat="42.74025339747893" lon="11.139489631938043"><ele>12.5</ele><time>2026-03-22T14:15:23.96Z</time></trkpt><trkpt lat="42.74024913074035" lon="11.139671662389341"><ele>12.0</ele><time>2026-03-22T14:15:24.96Z</time></trkpt><trkpt lat="42.740224826920624" lon="11.1398560832581"><ele>16.333333333333336</ele><time>2026-03-22T14:15:25.959Z</time></trkpt><trkpt lat="42.74019234094163" lon="11.140056477618069"><ele>20.666666666666668</ele><time>2026-03-22T14:15:26.959Z</time></trkpt><trkpt lat="42.74016645151927" lon="11.140273615899279"><ele>25.0</ele><time>2026-03-22T14:15:27.959Z</time></trkpt><trkpt lat="42.740159086394634" lon="11.140506782724977"><ele>23.0</ele><time>2026-03-22T14:15:28.959Z</time></trkpt><trkpt lat="42.74019175809747" lon="11.140744755053328"><ele>21.0</ele><time>2026-03-22T14:15:29.959Z</time></trkpt><trkpt lat="42.740218198156754" lon="11.1409915698303"><ele>19.0</ele><time>2026-03-22T14:15:30.959Z</time></trkpt><trkpt lat="42.740258258791215" lon="11.141236221721295"><ele>18.333333333333332</ele><time>2026-03-22T14:15:31.959Z</time></trkpt><trkpt lat="42.74029358726084" lon="11.141474566273043"><ele>17.666666666666668</ele><time>2026-03-22T14:15:32.959Z</time></trkpt><trkpt lat="42.74033162299582" lon="11.141710123078278"><ele>17.0</ele><time>2026-03-22T14:15:33.959Z</time></trkpt><trkpt lat="42.74037686759811" lon="11.141944082703057"><ele>17.0</ele><time>2026-03-22T14:15:34.959Z</time></trkpt><trkpt lat="42.740431735469215" lon="11.142176735440781"><ele>17.0</ele><time>2026-03-22T14:15:35.959Z</time></trkpt><trkpt lat="42.740500771138436" lon="11.142401775156005"><ele>17.0</ele><time>2026-03-22T14:15:36.959Z</time></trkpt><trkpt lat="42.74059806230922" lon="11.142615808018165"><ele>16.333333333333336</ele><time>2026-03-22T14:15:37.959Z</time></trkpt><trkpt lat="42.74070624530594" lon="11.142815515404711"><ele>15.666666666666668</ele><time>2026-03-22T14:15:38.959Z</time></trkpt><trkpt lat="42.7408268310124" lon="11.142999774829937"><ele>15.0</ele><time>2026-03-22T14:15:39.959Z</time></trkpt><trkpt lat="42.74096209086188" lon="11.143167026457748"><ele>15.333333333333332</ele><time>2026-03-22T14:15:40.959Z</time></trkpt><trkpt lat="42.741112962540804" lon="11.143333705450718"><ele>15.666666666666666</ele><time>2026-03-22T14:15:41.959Z</time></trkpt><trkpt lat="42.741272760451956" lon="11.143499061084015"><ele>16.0</ele><time>2026-03-22T14:15:42.959Z</time></trkpt><trkpt lat="42.741433764522206" lon="11.143664107478982"><ele>16.0</ele><time>2026-03-22T14:15:43.959Z</time></trkpt><trkpt lat="42.74159105109965" lon="11.143838369109528"><ele>16.0</ele><time>2026-03-22T14:15:44.959Z</time></trkpt><trkpt lat="42.74174954114744" lon="11.14401709026566"><ele>16.0</ele><time>2026-03-22T14:15:45.959Z</time></trkpt><trkpt lat="42.74191410115918" lon="11.144195859192154"><ele>16.666666666666664</ele><time>2026-03-22T14:15:46.959Z</time></trkpt><trkpt lat="42.74208626679566" lon="11.144377053335367"><ele>17.333333333333332</ele><time>2026-03-22T14:15:47.959Z</time></trkpt><trkpt lat="42.742259789180785" lon="11.144567406273676"><ele>18.0</ele><time>2026-03-22T14:15:48.959Z</time></trkpt><trkpt lat="42.742434247936515" lon="11.144759224556143"><ele>18.5</ele><time>2026-03-22T14:15:49.959Z</time></trkpt><trkpt lat="42.742609152209084" lon="11.14495088448512"><ele>19.0</ele><time>2026-03-22T14:15:50.959Z</time></trkpt><trkpt lat="42.742784410869" lon="11.145144876208848"><ele>18.333333333333332</ele><time>2026-03-22T14:15:51.959Z</time></trkpt><trkpt lat="42.74295772379201" lon="11.145337324802677"><ele>17.666666666666668</ele><time>2026-03-22T14:15:52.959Z</time></trkpt><trkpt lat="42.743117810689874" lon="11.145513466712558"><ele>17.0</ele><time>2026-03-22T14:15:53.959Z</time></trkpt><trkpt lat="42.7432718616542" lon="11.14568525437813"><ele>17.333333333333336</ele><time>2026-03-22T14:15:54.959Z</time></trkpt><trkpt lat="42.743424951690805" lon="11.145850753059282"><ele>17.666666666666668</ele><time>2026-03-22T14:15:55.958Z</time></trkpt><trkpt lat="42.74356640607125" lon="11.146008490450306"><ele>18.0</ele><time>2026-03-22T14:15:56.958Z</time></trkpt><trkpt lat="42.74369433012799" lon="11.146175407620644"><ele>17.333333333333332</ele><time>2026-03-22T14:15:57.958Z</time></trkpt><trkpt lat="42.74380040620203" lon="11.14635852383403"><ele>16.666666666666664</ele><time>2026-03-22T14:15:58.958Z</time></trkpt><trkpt lat="42.743888505170716" lon="11.146560943682815"><ele>16.0</ele><time>2026-03-22T14:15:59.958Z</time></trkpt><trkpt lat="42.74395570188294" lon="11.146778602967002"><ele>16.0</ele><time>2026-03-22T14:16:00.958Z</time></trkpt><trkpt lat="42.743997775926566" lon="11.147008457973353"><ele>16.0</ele><time>2026-03-22T14:16:01.958Z</time></trkpt><trkpt lat="42.74403339291227" lon="11.147250404722575"><ele>16.0</ele><time>2026-03-22T14:16:02.958Z</time></trkpt><trkpt lat="42.74407830214155" lon="11.147501833156296"><ele>17.0</ele><time>2026-03-22T14:16:03.958Z</time></trkpt><trkpt lat="42.744121426998355" lon="11.14775673382408"><ele>18.0</ele><time>2026-03-22T14:16:04.958Z</time></trkpt><trkpt lat="42.74416375856141" lon="11.148026471802744"><ele>19.0</ele><time>2026-03-22T14:16:05.958Z</time></trkpt><trkpt lat="42.744207946353136" lon="11.148308744262762"><ele>19.333333333333332</ele><time>2026-03-22T14:16:06.958Z</time></trkpt><trkpt lat="42.74425542834517" lon="11.148586778119013"><ele>19.666666666666668</ele><time>2026-03-22T14:16:07.958Z</time></trkpt><trkpt lat="42.744299220483185" lon="11.148866427691518"><ele>20.0</ele><time>2026-03-22T14:16:08.958Z</time></trkpt><trkpt lat="42.744344514349294" lon="11.149158029645761"><ele>16.0</ele><time>2026-03-22T14:16:09.958Z</time></trkpt><trkpt lat="42.744392999622725" lon="11.149461655233113"><ele>12.0</ele><time>2026-03-22T14:16:10.958Z</time></trkpt><trkpt lat="42.74444261815677" lon="11.149772391752714"><ele>13.0</ele><time>2026-03-22T14:16:11.958Z</time></trkpt><trkpt lat="42.744491897890796" lon="11.150081282204473"><ele>14.0</ele><time>2026-03-22T14:16:12.958Z</time></trkpt><trkpt lat="42.74453974629385" lon="11.150386045740069"><ele>14.0</ele><time>2026-03-22T14:16:13.958Z</time></trkpt><trkpt lat="42.744588674399324" lon="11.15069226050828"><ele>14.0</ele><time>2026-03-22T14:16:14.958Z</time></trkpt><trkpt lat="42.744622137972776" lon="11.150997430106429"><ele>14.5</ele><time>2026-03-22T14:16:15.958Z</time></trkpt><trkpt lat="42.744670030008905" lon="11.151305714949956"><ele>15.0</ele><time>2026-03-22T14:16:16.958Z</time></trkpt><trkpt lat="42.74471798053001" lon="11.151615295424573"><ele>15.5</ele><time>2026-03-22T14:16:17.958Z</time></trkpt><trkpt lat="42.74476338005735" lon="11.151919793092445"><ele>16.0</ele><time>2026-03-22T14:16:18.958Z</time></trkpt><trkpt lat="42.74481306880054" lon="11.15222890658673"><ele>16.5</ele><time>2026-03-22T14:16:19.958Z</time></trkpt><trkpt lat="42.74486135991177" lon="11.152534174070485"><ele>17.0</ele><time>2026-03-22T14:16:20.958Z</time></trkpt><trkpt lat="42.744911064538684" lon="11.152842189797555"><ele>17.0</ele><time>2026-03-22T14:16:21.958Z</time></trkpt><trkpt lat="42.744958948629346" lon="11.153146511467073"><ele>17.0</ele><time>2026-03-22T14:16:22.958Z</time></trkpt><trkpt lat="42.74500462736944" lon="11.153443904305494"><ele>17.0</ele><time>2026-03-22T14:16:23.958Z</time></trkpt><trkpt lat="42.74505148007161" lon="11.15372166933621"><ele>17.0</ele><time>2026-03-22T14:16:24.958Z</time></trkpt><trkpt lat="42.745092331934465" lon="11.153995916902662"><ele>17.0</ele><time>2026-03-22T14:16:25.957Z</time></trkpt><trkpt lat="42.74512812459522" lon="11.154255785074728"><ele>17.666666666666668</ele><time>2026-03-22T14:16:26.957Z</time></trkpt><trkpt lat="42.74516090127165" lon="11.15450225754113"><ele>18.333333333333332</ele><time>2026-03-22T14:16:27.96Z</time></trkpt><trkpt lat="42.745190617868865" lon="11.154735267755463"><ele>19.0</ele><time>2026-03-22T14:16:28.96Z</time></trkpt><trkpt lat="42.74521757423859" lon="11.15495203963653"><ele>19.0</ele><time>2026-03-22T14:16:29.96Z</time></trkpt><trkpt lat="42.74523854180609" lon="11.155146975181061"><ele>19.0</ele><time>2026-03-22T14:16:30.96Z</time></trkpt><trkpt lat="42.74525304383507" lon="11.155310003411063"><ele>19.0</ele><time>2026-03-22T14:16:31.96Z</time></trkpt><trkpt lat="42.745270883208036" lon="11.155454250542926"><ele>19.0</ele><time>2026-03-22T14:16:32.96Z</time></trkpt><trkpt lat="42.7452567612815" lon="11.155589381861386"><ele>19.0</ele><time>2026-03-22T14:16:33.96Z</time></trkpt><trkpt lat="42.74524836396482" lon="11.155727101859815"><ele>19.0</ele><time>2026-03-22T14:16:34.96Z</time></trkpt><trkpt lat="42.74519747992096" lon="11.155858620837463"><ele>19.0</ele><time>2026-03-22T14:16:35.96Z</time></trkpt><trkpt lat="42.745157458360836" lon="11.155965856898264"><ele>19.0</ele><time>2026-03-22T14:16:36.96Z</time></trkpt><trkpt lat="42.74511490677236" lon="11.156065810101838"><ele>19.0</ele><time>2026-03-22T14:16:37.96Z</time></trkpt><trkpt lat="42.74504527383457" lon="11.156158494489073"><ele>19.0</ele><time>2026-03-22T14:16:38.96Z</time></trkpt><trkpt lat="42.74497750690209" lon="11.156276010032396"><ele>19.0</ele><time>2026-03-22T14:16:39.96Z</time></trkpt><trkpt lat="42.74490327950613" lon="11.156402639126252"><ele>19.0</ele><time>2026-03-22T14:16:40.96Z</time></trkpt><trkpt lat="42.74482918654037" lon="11.156520604162294"><ele>19.0</ele><time>2026-03-22T14:16:41.96Z</time></trkpt><trkpt lat="42.74476963589128" lon="11.156640389002268"><ele>19.0</ele><time>2026-03-22T14:16:42.96Z</time></trkpt><trkpt lat="42.74469322621781" lon="11.156746920794042"><ele>18.0</ele><time>2026-03-22T14:16:43.96Z</time></trkpt><trkpt lat="42.744610873793796" lon="11.156861328806992"><ele>17.0</ele><time>2026-03-22T14:16:44.96Z</time></trkpt><trkpt lat="42.744522944656346" lon="11.156976873352153"><ele>16.0</ele><time>2026-03-22T14:16:45.96Z</time></trkpt><trkpt lat="42.744429305093654" lon="11.157090363750624"><ele>15.0</ele><time>2026-03-22T14:16:46.96Z</time></trkpt><trkpt lat="42.74434249248614" lon="11.157217449769524"><ele>16.0</ele><time>2026-03-22T14:16:47.96Z</time></trkpt><trkpt lat="42.744270121075665" lon="11.157345716683615"><ele>17.0</ele><time>2026-03-22T14:16:48.96Z</time></trkpt><trkpt lat="42.74419097181474" lon="11.157465332602072"><ele>18.0</ele><time>2026-03-22T14:16:49.96Z</time></trkpt><trkpt lat="42.74413198232977" lon="11.157605216762967"><ele>19.0</ele><time>2026-03-22T14:16:50.96Z</time></trkpt><trkpt lat="42.74408103844082" lon="11.157744906990096"><ele>19.0</ele><time>2026-03-22T14:16:51.96Z</time></trkpt><trkpt lat="42.74405351398724" lon="11.157894714781374"><ele>19.0</ele><time>2026-03-22T14:16:52.96Z</time></trkpt><trkpt lat="42.74400604667388" lon="11.158037629928954"><ele>19.0</ele><time>2026-03-22T14:16:53.96Z</time></trkpt><trkpt lat="42.74397215839307" lon="11.15818001697479"><ele>19.0</ele><time>2026-03-22T14:16:54.96Z</time></trkpt><trkpt lat="42.743928949969394" lon="11.158325629948648"><ele>18.0</ele><time>2026-03-22T14:16:55.96Z</time></trkpt><trkpt lat="42.74388926646879" lon="11.158470919875858"><ele>17.0</ele><time>2026-03-22T14:16:56.96Z</time></trkpt><trkpt lat="42.74385225622588" lon="11.15861263782912"><ele>15.999999999999998</ele><time>2026-03-22T14:16:57.96Z</time></trkpt><trkpt lat="42.7438165601161" lon="11.158753025445007"><ele>15.0</ele><time>2026-03-22T14:16:58.96Z</time></trkpt><trkpt lat="42.743780616627" lon="11.158893852911298"><ele>14.0</ele><time>2026-03-22T14:16:59.96Z</time></trkpt><trkpt lat="42.74373172424016" lon="11.159025402164557"><ele>14.0</ele><time>2026-03-22T14:17:00.96Z</time></trkpt><trkpt lat="42.74370826603318" lon="11.159170839824693"><ele>14.0</ele><time>2026-03-22T14:17:01.96Z</time></trkpt><trkpt lat="42.74366687349092" lon="11.159317894769552"><ele>14.0</ele><time>2026-03-22T14:17:02.96Z</time></trkpt><trkpt lat="42.743622009698846" lon="11.159471513587135"><ele>14.0</ele><time>2026-03-22T14:17:03.959Z</time></trkpt><trkpt lat="42.74356700569199" lon="11.159621842001874"><ele>14.0</ele><time>2026-03-22T14:17:04.959Z</time></trkpt><trkpt lat="42.7435174072332" lon="11.15978609071708"><ele>14.0</ele><time>2026-03-22T14:17:05.959Z</time></trkpt><trkpt lat="42.74344193227068" lon="11.159951153605286"><ele>14.0</ele><time>2026-03-22T14:17:06.959Z</time></trkpt><trkpt lat="42.74336950359028" lon="11.160142003922324"><ele>14.0</ele><time>2026-03-22T14:17:07.959Z</time></trkpt><trkpt lat="42.74330760610883" lon="11.1603559846106"><ele>14.0</ele><time>2026-03-22T14:17:08.959Z</time></trkpt><trkpt lat="42.743218698464446" lon="11.160578987215883"><ele>14.0</ele><time>2026-03-22T14:17:09.959Z</time></trkpt><trkpt lat="42.74313715293265" lon="11.160797000693853"><ele>14.0</ele><time>2026-03-22T14:17:10.959Z</time></trkpt><trkpt lat="42.743024624490026" lon="11.161062458485782"><ele>13.333333333333334</ele><time>2026-03-22T14:17:11.959Z</time></trkpt><trkpt lat="42.74293402823326" lon="11.161315176327195"><ele>12.666666666666668</ele><time>2026-03-22T14:17:12.959Z</time></trkpt><trkpt lat="42.7428382585177" lon="11.161576615748471"><ele>12.0</ele><time>2026-03-22T14:17:13.959Z</time></trkpt><trkpt lat="42.74274478615073" lon="11.161838459993461"><ele>13.0</ele><time>2026-03-22T14:17:14.959Z</time></trkpt><trkpt lat="42.74265440190817" lon="11.162096977016693"><ele>14.0</ele><time>2026-03-22T14:17:15.959Z</time></trkpt><trkpt lat="42.742557687751734" lon="11.162332753801126"><ele>15.0</ele><time>2026-03-22T14:17:16.959Z</time></trkpt><trkpt lat="42.74247502977563" lon="11.16258288357351"><ele>15.0</ele><time>2026-03-22T14:17:17.959Z</time></trkpt><trkpt lat="42.742398653845484" lon="11.162839211526661"><ele>15.0</ele><time>2026-03-22T14:17:18.959Z</time></trkpt><trkpt lat="42.74232254552464" lon="11.163094641160377"><ele>15.0</ele><time>2026-03-22T14:17:19.959Z</time></trkpt><trkpt lat="42.74224477913315" lon="11.163354437008278"><ele>15.0</ele><time>2026-03-22T14:17:20.959Z</time></trkpt><trkpt lat="42.742165819178716" lon="11.163610362220941"><ele>15.0</ele><time>2026-03-22T14:17:21.959Z</time></trkpt><trkpt lat="42.74208018109791" lon="11.16386694194348"><ele>15.0</ele><time>2026-03-22T14:17:22.959Z</time></trkpt><trkpt lat="42.74198033125136" lon="11.164114129243782"><ele>15.666666666666668</ele><time>2026-03-22T14:17:23.959Z</time></trkpt><trkpt lat="42.74187317684462" lon="11.164343044469291"><ele>16.333333333333336</ele><time>2026-03-22T14:17:24.959Z</time></trkpt><trkpt lat="42.74177821314163" lon="11.164555216843674"><ele>17.0</ele><time>2026-03-22T14:17:25.959Z</time></trkpt><trkpt lat="42.74168923112327" lon="11.164754024716308"><ele>16.333333333333336</ele><time>2026-03-22T14:17:26.959Z</time></trkpt><trkpt lat="42.741602972348275" lon="11.16494674808077"><ele>15.666666666666668</ele><time>2026-03-22T14:17:27.959Z</time></trkpt><trkpt lat="42.741528642934355" lon="11.165150121160313"><ele>15.0</ele><time>2026-03-22T14:17:28.959Z</time></trkpt><trkpt lat="42.741440242866204" lon="11.165343731061535"><ele>15.0</ele><time>2026-03-22T14:17:29.959Z</time></trkpt><trkpt lat="42.74133889500063" lon="11.165535435171101"><ele>15.0</ele><time>2026-03-22T14:17:30.959Z</time></trkpt><trkpt lat="42.741248771723235" lon="11.165737049453664"><ele>15.0</ele><time>2026-03-22T14:17:31.959Z</time></trkpt><trkpt lat="42.74115402170397" lon="11.165942493039946"><ele>15.666666666666668</ele><time>2026-03-22T14:17:32.959Z</time></trkpt><trkpt lat="42.741069875776674" lon="11.166161914362943"><ele>16.333333333333336</ele><time>2026-03-22T14:17:33.958Z</time></trkpt><trkpt lat="42.740967122571554" lon="11.166375850755392"><ele>17.0</ele><time>2026-03-22T14:17:34.958Z</time></trkpt><trkpt lat="42.74086747166446" lon="11.166595321027899"><ele>18.0</ele><time>2026-03-22T14:17:35.958Z</time></trkpt><trkpt lat="42.74076321673738" lon="11.166819836302368"><ele>19.0</ele><time>2026-03-22T14:17:36.958Z</time></trkpt><trkpt lat="42.74065881626735" lon="11.16704563410108"><ele>20.0</ele><time>2026-03-22T14:17:37.958Z</time></trkpt><trkpt lat="42.74055539697306" lon="11.167272273978101"><ele>19.0</ele><time>2026-03-22T14:17:38.958Z</time></trkpt><trkpt lat="42.74045448287962" lon="11.167492551619231"><ele>18.0</ele><time>2026-03-22T14:17:39.958Z</time></trkpt><trkpt lat="42.740360711959525" lon="11.167697023924884"><ele>17.0</ele><time>2026-03-22T14:17:40.958Z</time></trkpt><trkpt lat="42.740279190006" lon="11.16789118636896"><ele>18.0</ele><time>2026-03-22T14:17:41.958Z</time></trkpt><trkpt lat="42.740185412431416" lon="11.168077906452478"><ele>19.0</ele><time>2026-03-22T14:17:42.958Z</time></trkpt><trkpt lat="42.740103375415806" lon="11.168271688095258"><ele>20.0</ele><time>2026-03-22T14:17:43.958Z</time></trkpt><trkpt lat="42.74001299128612" lon="11.168482398180084"><ele>20.0</ele><time>2026-03-22T14:17:44.958Z</time></trkpt><trkpt lat="42.7399200060391" lon="11.168694768899865"><ele>20.0</ele><time>2026-03-22T14:17:45.958Z</time></trkpt><trkpt lat="42.73982480861677" lon="11.168907580562983"><ele>20.0</ele><time>2026-03-22T14:17:46.958Z</time></trkpt><trkpt lat="42.73972986986745" lon="11.169120901631691"><ele>19.666666666666668</ele><time>2026-03-22T14:17:47.958Z</time></trkpt><trkpt lat="42.73963225828807" lon="11.169333110366209"><ele>19.333333333333332</ele><time>2026-03-22T14:17:48.958Z</time></trkpt><trkpt lat="42.739532573676456" lon="11.16955043219475"><ele>19.0</ele><time>2026-03-22T14:17:49.958Z</time></trkpt><trkpt lat="42.73943144053297" lon="11.1697710515641"><ele>19.333333333333332</ele><time>2026-03-22T14:17:50.958Z</time></trkpt><trkpt lat="42.73932882743791" lon="11.169999960873108"><ele>19.666666666666668</ele><time>2026-03-22T14:17:51.958Z</time></trkpt><trkpt lat="42.73922949933608" lon="11.170216467470139"><ele>20.0</ele><time>2026-03-22T14:17:52.958Z</time></trkpt><trkpt lat="42.739139892151655" lon="11.170418096115418"><ele>20.0</ele><time>2026-03-22T14:17:53.958Z</time></trkpt><trkpt lat="42.739051812118156" lon="11.170621599452982"><ele>20.0</ele><time>2026-03-22T14:17:54.958Z</time></trkpt><trkpt lat="42.73895386152348" lon="11.17080397323816"><ele>20.0</ele><time>2026-03-22T14:17:55.958Z</time></trkpt><trkpt lat="42.738878160715224" lon="11.171013460661387"><ele>20.0</ele><time>2026-03-22T14:17:56.958Z</time></trkpt><trkpt lat="42.738845363560074" lon="11.171238639946855"><ele>20.0</ele><time>2026-03-22T14:17:57.958Z</time></trkpt><trkpt lat="42.73884976801423" lon="11.171464771680562"><ele>20.0</ele><time>2026-03-22T14:17:58.958Z</time></trkpt><trkpt lat="42.73885355056925" lon="11.171702901331685"><ele>20.333333333333336</ele><time>2026-03-22T14:17:59.958Z</time></trkpt><trkpt lat="42.738864380357576" lon="11.17194052188295"><ele>20.666666666666668</ele><time>2026-03-22T14:18:00.958Z</time></trkpt><trkpt lat="42.73885430923856" lon="11.172175969455791"><ele>21.0</ele><time>2026-03-22T14:18:01.958Z</time></trkpt><trkpt lat="42.73887366773593" lon="11.172398321326476"><ele>22.0</ele><time>2026-03-22T14:18:02.958Z</time></trkpt><trkpt lat="42.73887670380994" lon="11.172618825916446"><ele>23.0</ele><time>2026-03-22T14:18:03.957Z</time></trkpt><trkpt lat="42.7389370225895" lon="11.172837692216715"><ele>24.0</ele><time>2026-03-22T14:18:04.957Z</time></trkpt><trkpt lat="42.73899590679645" lon="11.17305874046638"><ele>23.666666666666668</ele><time>2026-03-22T14:18:05.957Z</time></trkpt><trkpt lat="42.739072900982485" lon="11.173289551524276"><ele>23.333333333333336</ele><time>2026-03-22T14:18:06.957Z</time></trkpt><trkpt lat="42.73913729424545" lon="11.173538361181103"><ele>23.0</ele><time>2026-03-22T14:18:07.957Z</time></trkpt><trkpt lat="42.739215870915395" lon="11.173798302103213"><ele>22.666666666666668</ele><time>2026-03-22T14:18:08.957Z</time></trkpt><trkpt lat="42.739295510583645" lon="11.174061588515224"><ele>22.333333333333332</ele><time>2026-03-22T14:18:09.957Z</time></trkpt><trkpt lat="42.73937193017281" lon="11.17431206352271"><ele>22.0</ele><time>2026-03-22T14:18:10.957Z</time></trkpt><trkpt lat="42.739445662116076" lon="11.174553729354141"><ele>22.0</ele><time>2026-03-22T14:18:11.957Z</time></trkpt><trkpt lat="42.739534396917996" lon="11.174789115772905"><ele>22.0</ele><time>2026-03-22T14:18:12.957Z</time></trkpt><trkpt lat="42.7395916642379" lon="11.175027569768135"><ele>22.0</ele><time>2026-03-22T14:18:13.957Z</time></trkpt><trkpt lat="42.73962402179815" lon="11.175261502468317"><ele>23.666666666666664</ele><time>2026-03-22T14:18:14.957Z</time></trkpt><trkpt lat="42.73962254654538" lon="11.17549604449817"><ele>25.333333333333332</ele><time>2026-03-22T14:18:15.957Z</time></trkpt><trkpt lat="42.73962074854491" lon="11.17574195655946"><ele>27.0</ele><time>2026-03-22T14:18:16.957Z</time></trkpt><trkpt lat="42.73961797044606" lon="11.1759907614234"><ele>27.333333333333336</ele><time>2026-03-22T14:18:17.957Z</time></trkpt><trkpt lat="42.73961146928938" lon="11.176242076564447"><ele>27.666666666666668</ele><time>2026-03-22T14:18:18.957Z</time></trkpt><trkpt lat="42.73957884498049" lon="11.176487144114821"><ele>28.0</ele><time>2026-03-22T14:18:19.957Z</time></trkpt><trkpt lat="42.73952411914295" lon="11.176733327286927"><ele>28.333333333333336</ele><time>2026-03-22T14:18:20.957Z</time></trkpt><trkpt lat="42.73945732204361" lon="11.1769742392725"><ele>28.666666666666664</ele><time>2026-03-22T14:18:21.957Z</time></trkpt><trkpt lat="42.73938667947764" lon="11.177230694564978"><ele>29.0</ele><time>2026-03-22T14:18:22.957Z</time></trkpt><trkpt lat="42.73931452674738" lon="11.177490529732614"><ele>29.0</ele><time>2026-03-22T14:18:23.957Z</time></trkpt><trkpt lat="42.73924284809269" lon="11.177747954651595"><ele>29.0</ele><time>2026-03-22T14:18:24.957Z</time></trkpt><trkpt lat="42.73917385420703" lon="11.17799425545854"><ele>29.0</ele><time>2026-03-22T14:18:25.957Z</time></trkpt><trkpt lat="42.73910293399535" lon="11.178236831707935"><ele>27.666666666666664</ele><time>2026-03-22T14:18:26.957Z</time></trkpt><trkpt lat="42.739018957190666" lon="11.178456483207773"><ele>26.333333333333336</ele><time>2026-03-22T14:18:27.957Z</time></trkpt><trkpt lat="42.73891781288463" lon="11.178638038401713"><ele>25.0</ele><time>2026-03-22T14:18:28.957Z</time></trkpt><trkpt lat="42.73880965731902" lon="11.1787950354729"><ele>25.0</ele><time>2026-03-22T14:18:29.957Z</time></trkpt><trkpt lat="42.738692900630916" lon="11.178953376571998"><ele>25.0</ele><time>2026-03-22T14:18:30.957Z</time></trkpt><trkpt lat="42.738575946803756" lon="11.179098779618343"><ele>25.0</ele><time>2026-03-22T14:18:31.957Z</time></trkpt><trkpt lat="42.738440681945406" lon="11.179236097719304"><ele>25.333333333333336</ele><time>2026-03-22T14:18:32.957Z</time></trkpt><trkpt lat="42.738294824358064" lon="11.179379103304845"><ele>25.666666666666664</ele><time>2026-03-22T14:18:33.959Z</time></trkpt><trkpt lat="42.73815255280844" lon="11.179513041963931"><ele>26.0</ele><time>2026-03-22T14:18:34.959Z</time></trkpt><trkpt lat="42.73801159140298" lon="11.179622535513227"><ele>26.0</ele><time>2026-03-22T14:18:35.959Z</time></trkpt><trkpt lat="42.73786343645176" lon="11.179693697830823"><ele>26.0</ele><time>2026-03-22T14:18:36.959Z</time></trkpt><trkpt lat="42.73770775972131" lon="11.179713025784928"><ele>26.0</ele><time>2026-03-22T14:18:37.959Z</time></trkpt><trkpt lat="42.73753921617702" lon="11.179720446005177"><ele>28.0</ele><time>2026-03-22T14:18:38.959Z</time></trkpt><trkpt lat="42.73735745653183" lon="11.17972237734329"><ele>30.0</ele><time>2026-03-22T14:18:39.959Z</time></trkpt><trkpt lat="42.73717469858658" lon="11.179733491540752"><ele>32.0</ele><time>2026-03-22T14:18:40.959Z</time></trkpt><trkpt lat="42.737001515270144" lon="11.17977836062823"><ele>31.0</ele><time>2026-03-22T14:18:41.959Z</time></trkpt><trkpt lat="42.73683470899556" lon="11.179890310546872"><ele>30.0</ele><time>2026-03-22T14:18:42.959Z</time></trkpt><trkpt lat="42.73668816843767" lon="11.180038730200438"><ele>29.0</ele><time>2026-03-22T14:18:43.959Z</time></trkpt><trkpt lat="42.7365281908148" lon="11.180168042829866"><ele>29.0</ele><time>2026-03-22T14:18:44.959Z</time></trkpt><trkpt lat="42.73636588371526" lon="11.180318439787321"><ele>29.0</ele><time>2026-03-22T14:18:45.959Z</time></trkpt><trkpt lat="42.736194142261375" lon="11.180479410634227"><ele>29.0</ele><time>2026-03-22T14:18:46.959Z</time></trkpt><trkpt lat="42.73602582601962" lon="11.180634165539566"><ele>29.333333333333332</ele><time>2026-03-22T14:18:47.959Z</time></trkpt><trkpt lat="42.73587668824427" lon="11.180799574905214"><ele>29.666666666666664</ele><time>2026-03-22T14:18:48.959Z</time></trkpt><trkpt lat="42.73571300656419" lon="11.180925876225471"><ele>30.0</ele><time>2026-03-22T14:18:49.959Z</time></trkpt><trkpt lat="42.73556943259424" lon="11.181085494410954"><ele>30.0</ele><time>2026-03-22T14:18:50.959Z</time></trkpt><trkpt lat="42.735413045947794" lon="11.181215859460675"><ele>30.0</ele><time>2026-03-22T14:18:51.959Z</time></trkpt><trkpt lat="42.73525512545767" lon="11.181335381043773"><ele>30.0</ele><time>2026-03-22T14:18:52.959Z</time></trkpt><trkpt lat="42.73508147792696" lon="11.181417819173182"><ele>30.333333333333336</ele><time>2026-03-22T14:18:53.959Z</time></trkpt><trkpt lat="42.73490933685783" lon="11.181526917031546"><ele>30.666666666666668</ele><time>2026-03-22T14:18:54.959Z</time></trkpt><trkpt lat="42.73473568292117" lon="11.181657964503215"><ele>31.0</ele><time>2026-03-22T14:18:55.958Z</time></trkpt><trkpt lat="42.734569396276434" lon="11.181800986390742"><ele>31.0</ele><time>2026-03-22T14:18:56.958Z</time></trkpt><trkpt lat="42.73440480805851" lon="11.181949876734224"><ele>31.0</ele><time>2026-03-22T14:18:57.958Z</time></trkpt><trkpt lat="42.734242014903614" lon="11.182109150607651"><ele>31.0</ele><time>2026-03-22T14:18:58.958Z</time></trkpt><trkpt lat="42.73408728496651" lon="11.182283362938174"><ele>31.0</ele><time>2026-03-22T14:18:59.958Z</time></trkpt><trkpt lat="42.733939867070326" lon="11.182462915461603"><ele>31.0</ele><time>2026-03-22T14:19:00.958Z</time></trkpt><trkpt lat="42.733802536281694" lon="11.182630181977242"><ele>31.0</ele><time>2026-03-22T14:19:01.958Z</time></trkpt><trkpt lat="42.73367436920604" lon="11.182786287331698"><ele>32.0</ele><time>2026-03-22T14:19:02.958Z</time></trkpt><trkpt lat="42.733554056454714" lon="11.182932372454639"><ele>33.0</ele><time>2026-03-22T14:19:03.958Z</time></trkpt><trkpt lat="42.73343989476902" lon="11.183070728644335"><ele>34.0</ele><time>2026-03-22T14:19:04.958Z</time></trkpt><trkpt lat="42.733331930687534" lon="11.183201227866604"><ele>34.0</ele><time>2026-03-22T14:19:05.958Z</time></trkpt><trkpt lat="42.73323343560349" lon="11.18332013713532"><ele>34.0</ele><time>2026-03-22T14:19:06.958Z</time></trkpt><trkpt lat="42.7331512184884" lon="11.183424894705407"><ele>34.0</ele><time>2026-03-22T14:19:07.958Z</time></trkpt><trkpt lat="42.733091040527896" lon="11.183527833669375"><ele>34.0</ele><time>2026-03-22T14:19:08.958Z</time></trkpt><trkpt lat="42.73307418743348" lon="11.183653388662927"><ele>34.0</ele><time>2026-03-22T14:19:09.958Z</time></trkpt><trkpt lat="42.73311092702442" lon="11.183780770962592"><ele>34.0</ele><time>2026-03-22T14:19:10.958Z</time></trkpt><trkpt lat="42.73317288372664" lon="11.183884626562193"><ele>34.0</ele><time>2026-03-22T14:19:11.958Z</time></trkpt><trkpt lat="42.73323270965099" lon="11.183979236190533"><ele>34.0</ele><time>2026-03-22T14:19:12.958Z</time></trkpt><trkpt lat="42.733279926179776" lon="11.184068876573717"><ele>34.0</ele><time>2026-03-22T14:19:13.958Z</time></trkpt><trkpt lat="42.733301456807745" lon="11.184161349944189"><ele>34.0</ele><time>2026-03-22T14:19:14.958Z</time></trkpt><trkpt lat="42.73330194655205" lon="11.184268528204042"><ele>34.0</ele><time>2026-03-22T14:19:15.958Z</time></trkpt><trkpt lat="42.73327063754026" lon="11.184368873919002"><ele>33.75</ele><time>2026-03-22T14:19:16.958Z</time></trkpt><trkpt lat="42.733222732228036" lon="11.184489501252937"><ele>33.5</ele><time>2026-03-22T14:19:17.958Z</time></trkpt><trkpt lat="42.73316612043238" lon="11.184643612209344"><ele>33.25</ele><time>2026-03-22T14:19:18.958Z</time></trkpt><trkpt lat="42.733100128708976" lon="11.184823260035218"><ele>33.0</ele><time>2026-03-22T14:19:19.958Z</time></trkpt><trkpt lat="42.73304027548726" lon="11.185028877077157"><ele>33.0</ele><time>2026-03-22T14:19:20.958Z</time></trkpt><trkpt lat="42.7329457416076" lon="11.185242480876006"><ele>33.0</ele><time>2026-03-22T14:19:21.958Z</time></trkpt><trkpt lat="42.73285211406855" lon="11.185470953024803"><ele>33.0</ele><time>2026-03-22T14:19:22.958Z</time></trkpt><trkpt lat="42.7327626995383" lon="11.185709963014693"><ele>33.666666666666664</ele><time>2026-03-22T14:19:23.958Z</time></trkpt><trkpt lat="42.732673376928936" lon="11.185954118641606"><ele>34.33333333333333</ele><time>2026-03-22T14:19:24.958Z</time></trkpt><trkpt lat="42.7325791872652" lon="11.186209057502424"><ele>35.0</ele><time>2026-03-22T14:19:25.958Z</time></trkpt><trkpt lat="42.7324876444783" lon="11.18646954916393"><ele>35.33333333333333</ele><time>2026-03-22T14:19:26.957Z</time></trkpt><trkpt lat="42.7323925522442" lon="11.186736857892656"><ele>35.666666666666664</ele><time>2026-03-22T14:19:27.957Z</time></trkpt><trkpt lat="42.73229781603608" lon="11.18700206952659"><ele>36.0</ele><time>2026-03-22T14:19:28.957Z</time></trkpt><trkpt lat="42.73220974422607" lon="11.187263153435143"><ele>36.666666666666664</ele><time>2026-03-22T14:19:29.957Z</time></trkpt><trkpt lat="42.73211551339615" lon="11.187531242571996"><ele>37.33333333333333</ele><time>2026-03-22T14:19:30.957Z</time></trkpt><trkpt lat="42.73201513008775" lon="11.187800467693219"><ele>38.0</ele><time>2026-03-22T14:19:31.957Z</time></trkpt><trkpt lat="42.731914209784996" lon="11.188071478507544"><ele>39.666666666666664</ele><time>2026-03-22T14:19:32.957Z</time></trkpt><trkpt lat="42.7318021043969" lon="11.1883323515799"><ele>41.333333333333336</ele><time>2026-03-22T14:19:33.957Z</time></trkpt><trkpt lat="42.731704340675094" lon="11.188595597344833"><ele>43.0</ele><time>2026-03-22T14:19:34.957Z</time></trkpt><trkpt lat="42.73160640618979" lon="11.188856686828169"><ele>44.0</ele><time>2026-03-22T14:19:35.957Z</time></trkpt><trkpt lat="42.7315049769322" lon="11.189119928157467"><ele>45.0</ele><time>2026-03-22T14:19:36.957Z</time></trkpt><trkpt lat="42.731392941574164" lon="11.189380460145623"><ele>46.0</ele><time>2026-03-22T14:19:37.957Z</time></trkpt><trkpt lat="42.731278433868376" lon="11.189647683371717"><ele>48.5</ele><time>2026-03-22T14:19:38.957Z</time></trkpt><trkpt lat="42.73116468869351" lon="11.18991449931568"><ele>51.0</ele><time>2026-03-22T14:19:39.957Z</time></trkpt><trkpt lat="42.73104975537869" lon="11.190184102298057"><ele>51.33333333333333</ele><time>2026-03-22T14:19:40.957Z</time></trkpt><trkpt lat="42.73093734915876" lon="11.190447777424456"><ele>51.666666666666664</ele><time>2026-03-22T14:19:41.957Z</time></trkpt><trkpt lat="42.73082519613694" lon="11.190710459217726"><ele>52.0</ele><time>2026-03-22T14:19:42.957Z</time></trkpt><trkpt lat="42.7307148746029" lon="11.190967974349995"><ele>53.33333333333333</ele><time>2026-03-22T14:19:43.957Z</time></trkpt><trkpt lat="42.73061416757827" lon="11.19120404543481"><ele>54.66666666666667</ele><time>2026-03-22T14:19:44.957Z</time></trkpt><trkpt lat="42.73052076450625" lon="11.191430976043218"><ele>56.0</ele><time>2026-03-22T14:19:45.957Z</time></trkpt><trkpt lat="42.730439195194435" lon="11.191668825352725"><ele>58.0</ele><time>2026-03-22T14:19:46.957Z</time></trkpt><trkpt lat="42.730376435412325" lon="11.19192098875353"><ele>60.0</ele><time>2026-03-22T14:19:47.957Z</time></trkpt><trkpt lat="42.73032766987712" lon="11.192182475104351"><ele>62.0</ele><time>2026-03-22T14:19:48.957Z</time></trkpt><trkpt lat="42.73027750753824" lon="11.192440946567967"><ele>63.333333333333336</ele><time>2026-03-22T14:19:49.957Z</time></trkpt><trkpt lat="42.73022864819935" lon="11.19269239710318"><ele>64.66666666666667</ele><time>2026-03-22T14:19:50.957Z</time></trkpt><trkpt lat="42.73018014218247" lon="11.19294182250256"><ele>66.0</ele><time>2026-03-22T14:19:51.957Z</time></trkpt><trkpt lat="42.730129786675796" lon="11.193200758276387"><ele>68.0</ele><time>2026-03-22T14:19:52.957Z</time></trkpt><trkpt lat="42.73008324409549" lon="11.193440087384195"><ele>70.0</ele><time>2026-03-22T14:19:53.957Z</time></trkpt><trkpt lat="42.7300315901665" lon="11.193653761239782"><ele>72.0</ele><time>2026-03-22T14:19:54.957Z</time></trkpt><trkpt lat="42.729967230150685" lon="11.193846379903498"><ele>74.25</ele><time>2026-03-22T14:19:55.957Z</time></trkpt><trkpt lat="42.729889001456044" lon="11.194011227335752"><ele>76.5</ele><time>2026-03-22T14:19:56.956Z</time></trkpt><trkpt lat="42.729787635024174" lon="11.194136494468669"><ele>78.75</ele><time>2026-03-22T14:19:57.956Z</time></trkpt><trkpt lat="42.72966779072868" lon="11.194247175769753"><ele>81.0</ele><time>2026-03-22T14:19:58.956Z</time></trkpt><trkpt lat="42.729536136203635" lon="11.194352054077386"><ele>81.0</ele><time>2026-03-22T14:19:59.956Z</time></trkpt><trkpt lat="42.729406763702755" lon="11.194454682028397"><ele>81.0</ele><time>2026-03-22T14:20:00.956Z</time></trkpt><trkpt lat="42.7292749092517" lon="11.19455763802047"><ele>81.0</ele><time>2026-03-22T14:20:01.956Z</time></trkpt><trkpt lat="42.729150644322154" lon="11.194655164434575"><ele>81.0</ele><time>2026-03-22T14:20:02.956Z</time></trkpt><trkpt lat="42.72903504085576" lon="11.19474589310046"><ele>80.75</ele><time>2026-03-22T14:20:03.956Z</time></trkpt><trkpt lat="42.72892274717872" lon="11.194834031995512"><ele>80.5</ele><time>2026-03-22T14:20:04.956Z</time></trkpt><trkpt lat="42.728805738518886" lon="11.194925905168933"><ele>80.25</ele><time>2026-03-22T14:20:05.956Z</time></trkpt><trkpt lat="42.728692949994816" lon="11.195014464766034"><ele>80.0</ele><time>2026-03-22T14:20:06.956Z</time></trkpt><trkpt lat="42.72857844654718" lon="11.195102219858173"><ele>80.25</ele><time>2026-03-22T14:20:07.956Z</time></trkpt><trkpt lat="42.72846960115911" lon="11.195195451956883"><ele>80.5</ele><time>2026-03-22T14:20:08.956Z</time></trkpt><trkpt lat="42.72835897358681" lon="11.195256503013193"><ele>80.75</ele><time>2026-03-22T14:20:09.956Z</time></trkpt><trkpt lat="42.7282493398422" lon="11.195309380132604"><ele>81.0</ele><time>2026-03-22T14:20:10.956Z</time></trkpt><trkpt lat="42.72814158589013" lon="11.195348269001673"><ele>81.0</ele><time>2026-03-22T14:20:11.956Z</time></trkpt><trkpt lat="42.728037624012934" lon="11.195378284693165"><ele>81.0</ele><time>2026-03-22T14:20:12.956Z</time></trkpt><trkpt lat="42.727936675031096" lon="11.19541344569021"><ele>81.0</ele><time>2026-03-22T14:20:13.956Z</time></trkpt><trkpt lat="42.72783547815759" lon="11.195453937245084"><ele>81.0</ele><time>2026-03-22T14:20:14.956Z</time></trkpt><trkpt lat="42.727738159529196" lon="11.195498414582161"><ele>81.0</ele><time>2026-03-22T14:20:15.956Z</time></trkpt><trkpt lat="42.72763944712672" lon="11.195547148796592"><ele>80.6</ele><time>2026-03-22T14:20:16.956Z</time></trkpt><trkpt lat="42.72753640296497" lon="11.195601389540471"><ele>80.19999999999999</ele><time>2026-03-22T14:20:17.956Z</time></trkpt><trkpt lat="42.72743874965201" lon="11.1956638749611"><ele>79.80000000000001</ele><time>2026-03-22T14:20:18.956Z</time></trkpt><trkpt lat="42.72733031005808" lon="11.19571664054433"><ele>79.4</ele><time>2026-03-22T14:20:19.956Z</time></trkpt><trkpt lat="42.72721991416375" lon="11.195759205820552"><ele>79.0</ele><time>2026-03-22T14:20:20.956Z</time></trkpt><trkpt lat="42.727111909279316" lon="11.195823181866292"><ele>79.0</ele><time>2026-03-22T14:20:21.956Z</time></trkpt><trkpt lat="42.727006966737015" lon="11.195894462274378"><ele>79.0</ele><time>2026-03-22T14:20:22.956Z</time></trkpt><trkpt lat="42.72690582731555" lon="11.195968876401812"><ele>79.0</ele><time>2026-03-22T14:20:23.956Z</time></trkpt><trkpt lat="42.726826307251066" lon="11.196083589817826"><ele>79.0</ele><time>2026-03-22T14:20:24.956Z</time></trkpt><trkpt lat="42.726773649245224" lon="11.196219060500322"><ele>78.25</ele><time>2026-03-22T14:20:25.956Z</time></trkpt><trkpt lat="42.72674204439232" lon="11.196384846560585"><ele>77.5</ele><time>2026-03-22T14:20:26.955Z</time></trkpt><trkpt lat="42.72671911685313" lon="11.196561634304441"><ele>76.75</ele><time>2026-03-22T14:20:27.955Z</time></trkpt><trkpt lat="42.726695838775086" lon="11.196778963465464"><ele>76.0</ele><time>2026-03-22T14:20:28.955Z</time></trkpt><trkpt lat="42.72667256883432" lon="11.197011967512816"><ele>75.0</ele><time>2026-03-22T14:20:29.955Z</time></trkpt><trkpt lat="42.7266613467698" lon="11.197257755276256"><ele>74.0</ele><time>2026-03-22T14:20:30.955Z</time></trkpt><trkpt lat="42.726632069721454" lon="11.197515574673039"><ele>73.0</ele><time>2026-03-22T14:20:31.955Z</time></trkpt><trkpt lat="42.72660855725873" lon="11.197787705366814"><ele>72.66666666666666</ele><time>2026-03-22T14:20:32.955Z</time></trkpt><trkpt lat="42.726583607044354" lon="11.19805381449577"><ele>72.33333333333333</ele><time>2026-03-22T14:20:33.955Z</time></trkpt><trkpt lat="42.72655640445669" lon="11.198316104211353"><ele>72.0</ele><time>2026-03-22T14:20:34.955Z</time></trkpt><trkpt lat="42.72653177574349" lon="11.198566051621382"><ele>71.33333333333333</ele><time>2026-03-22T14:20:35.955Z</time></trkpt><trkpt lat="42.72649557076404" lon="11.198805378531766"><ele>70.66666666666666</ele><time>2026-03-22T14:20:36.955Z</time></trkpt><trkpt lat="42.72648590820206" lon="11.199032472650195"><ele>70.0</ele><time>2026-03-22T14:20:37.955Z</time></trkpt><trkpt lat="42.726452051609805" lon="11.199214747503841"><ele>69.0</ele><time>2026-03-22T14:20:38.955Z</time></trkpt><trkpt lat="42.72645499505507" lon="11.19939009527802"><ele>68.0</ele><time>2026-03-22T14:20:39.958Z</time></trkpt><trkpt lat="42.726489269038495" lon="11.199537164490662"><ele>67.0</ele><time>2026-03-22T14:20:40.958Z</time></trkpt><trkpt lat="42.72656599157306" lon="11.199654618572493"><ele>66.0</ele><time>2026-03-22T14:20:41.958Z</time></trkpt><trkpt lat="42.72667554332926" lon="11.19970609479053"><ele>66.0</ele><time>2026-03-22T14:20:42.957Z</time></trkpt><trkpt lat="42.72679713055928" lon="11.199737237527506"><ele>66.0</ele><time>2026-03-22T14:20:43.957Z</time></trkpt><trkpt lat="42.726935966639" lon="11.199761540933878"><ele>66.0</ele><time>2026-03-22T14:20:44.957Z</time></trkpt><trkpt lat="42.72709166928624" lon="11.199785070678422"><ele>66.0</ele><time>2026-03-22T14:20:45.957Z</time></trkpt><trkpt lat="42.7272654562618" lon="11.199820151997734"><ele>65.33333333333333</ele><time>2026-03-22T14:20:46.957Z</time></trkpt><trkpt lat="42.727453760050466" lon="11.199861844012787"><ele>64.66666666666666</ele><time>2026-03-22T14:20:47.957Z</time></trkpt><trkpt lat="42.727646933579024" lon="11.199903369228927"><ele>64.0</ele><time>2026-03-22T14:20:48.957Z</time></trkpt><trkpt lat="42.72785311452384" lon="11.199935708887288"><ele>64.0</ele><time>2026-03-22T14:20:49.958Z</time></trkpt><trkpt lat="42.728060687126074" lon="11.199974939305719"><ele>64.0</ele><time>2026-03-22T14:20:50.958Z</time></trkpt><trkpt lat="42.72827958062732" lon="11.200014432675633"><ele>64.0</ele><time>2026-03-22T14:20:51.958Z</time></trkpt><trkpt lat="42.72849336054173" lon="11.200055044644744"><ele>64.0</ele><time>2026-03-22T14:20:52.957Z</time></trkpt><trkpt lat="42.728690206383234" lon="11.20008978172843"><ele>64.0</ele><time>2026-03-22T14:20:53.957Z</time></trkpt><trkpt lat="42.728875208574536" lon="11.20012182534482"><ele>64.0</ele><time>2026-03-22T14:20:54.957Z</time></trkpt><trkpt lat="42.729044753314334" lon="11.200144888337885"><ele>64.0</ele><time>2026-03-22T14:20:55.957Z</time></trkpt><trkpt lat="42.729204483952316" lon="11.200169282810725"><ele>64.0</ele><time>2026-03-22T14:20:56.957Z</time></trkpt><trkpt lat="42.729349029100725" lon="11.200214478626062"><ele>64.0</ele><time>2026-03-22T14:20:57.957Z</time></trkpt><trkpt lat="42.72945765848523" lon="11.200279670910263"><ele>64.0</ele><time>2026-03-22T14:20:58.957Z</time></trkpt><trkpt lat="42.72951963908718" lon="11.200401039056443"><ele>64.0</ele><time>2026-03-22T14:20:59.957Z</time></trkpt><trkpt lat="42.729551355336916" lon="11.20052081256225"><ele>64.0</ele><time>2026-03-22T14:21:00.957Z</time></trkpt><trkpt lat="42.729552248700514" lon="11.20065392632731"><ele>64.0</ele><time>2026-03-22T14:21:01.957Z</time></trkpt><trkpt lat="42.729534804211724" lon="11.200803530340114"><ele>64.0</ele><time>2026-03-22T14:21:02.957Z</time></trkpt><trkpt lat="42.72951396636268" lon="11.200973397407163"><ele>64.0</ele><time>2026-03-22T14:21:03.957Z</time></trkpt><trkpt lat="42.72949179912532" lon="11.201151932371285"><ele>65.25</ele><time>2026-03-22T14:21:04.957Z</time></trkpt><trkpt lat="42.72946894866815" lon="11.201335969996986"><ele>66.5</ele><time>2026-03-22T14:21:05.957Z</time></trkpt><trkpt lat="42.72944415245654" lon="11.201535678729108"><ele>67.75</ele><time>2026-03-22T14:21:06.957Z</time></trkpt><trkpt lat="42.729416952226224" lon="11.201754749401012"><ele>69.0</ele><time>2026-03-22T14:21:07.957Z</time></trkpt><trkpt lat="42.7293883222038" lon="11.20198533565356"><ele>73.0</ele><time>2026-03-22T14:21:08.957Z</time></trkpt><trkpt lat="42.729357486068096" lon="11.202233689919487"><ele>77.0</ele><time>2026-03-22T14:21:09.957Z</time></trkpt><trkpt lat="42.72932589775729" lon="11.202487969023217"><ele>81.0</ele><time>2026-03-22T14:21:10.957Z</time></trkpt><trkpt lat="42.72929256386651" lon="11.202755672193172"><ele>83.0</ele><time>2026-03-22T14:21:11.957Z</time></trkpt><trkpt lat="42.729271987939846" lon="11.203038263728477"><ele>85.0</ele><time>2026-03-22T14:21:12.957Z</time></trkpt><trkpt lat="42.72923823277839" lon="11.20330978501729"><ele>87.0</ele><time>2026-03-22T14:21:13.957Z</time></trkpt><trkpt lat="42.72920717222698" lon="11.203575822738994"><ele>88.66666666666667</ele><time>2026-03-22T14:21:14.956Z</time></trkpt><trkpt lat="42.7291752048611" lon="11.203828417943557"><ele>90.33333333333334</ele><time>2026-03-22T14:21:15.956Z</time></trkpt><trkpt lat="42.72913000585128" lon="11.20405332384671"><ele>92.0</ele><time>2026-03-22T14:21:16.956Z</time></trkpt><trkpt lat="42.729103874764064" lon="11.20426848346877"><ele>93.75</ele><time>2026-03-22T14:21:17.956Z</time></trkpt><trkpt lat="42.729082259476954" lon="11.20447466972097"><ele>95.5</ele><time>2026-03-22T14:21:18.956Z</time></trkpt><trkpt lat="42.72908531912203" lon="11.204663824505733"><ele>97.25</ele><time>2026-03-22T14:21:19.956Z</time></trkpt><trkpt lat="42.729104877114096" lon="11.204849188899965"><ele>99.0</ele><time>2026-03-22T14:21:20.956Z</time></trkpt><trkpt lat="42.72914657268964" lon="11.205036420381642"><ele>100.0</ele><time>2026-03-22T14:21:21.956Z</time></trkpt><trkpt lat="42.729216052423354" lon="11.205219174835069"><ele>101.0</ele><time>2026-03-22T14:21:22.956Z</time></trkpt><trkpt lat="42.72929203332343" lon="11.205418809143953"><ele>102.0</ele><time>2026-03-22T14:21:23.956Z</time></trkpt><trkpt lat="42.72936466350503" lon="11.205619366581486"><ele>103.33333333333334</ele><time>2026-03-22T14:21:24.956Z</time></trkpt><trkpt lat="42.7294416352207" lon="11.205828181195026"><ele>104.66666666666667</ele><time>2026-03-22T14:21:25.956Z</time></trkpt><trkpt lat="42.72950453229126" lon="11.206050617556752"><ele>106.0</ele><time>2026-03-22T14:21:26.956Z</time></trkpt><trkpt lat="42.729580881703235" lon="11.206264088329018"><ele>106.0</ele><time>2026-03-22T14:21:27.956Z</time></trkpt><trkpt lat="42.729652165516804" lon="11.206450669844225"><ele>106.0</ele><time>2026-03-22T14:21:28.956Z</time></trkpt><trkpt lat="42.729721626172164" lon="11.206616403824293"><ele>106.0</ele><time>2026-03-22T14:21:29.956Z</time></trkpt><trkpt lat="42.72979830718365" lon="11.206769396127882"><ele>106.0</ele><time>2026-03-22T14:21:30.956Z</time></trkpt><trkpt lat="42.729895760617254" lon="11.206897678179805"><ele>107.0</ele><time>2026-03-22T14:21:31.956Z</time></trkpt><trkpt lat="42.72999309552228" lon="11.207045444013044"><ele>108.0</ele><time>2026-03-22T14:21:32.956Z</time></trkpt><trkpt lat="42.73009432199474" lon="11.207202609729867"><ele>109.0</ele><time>2026-03-22T14:21:33.956Z</time></trkpt><trkpt lat="42.73020812966038" lon="11.207357398267465"><ele>112.33333333333334</ele><time>2026-03-22T14:21:34.956Z</time></trkpt><trkpt lat="42.730333677718406" lon="11.20752082375619"><ele>115.66666666666666</ele><time>2026-03-22T14:21:35.956Z</time></trkpt><trkpt lat="42.73046809566844" lon="11.207700883468643"><ele>119.0</ele><time>2026-03-22T14:21:36.956Z</time></trkpt><trkpt lat="42.73060872303089" lon="11.207893008261184"><ele>119.0</ele><time>2026-03-22T14:21:37.956Z</time></trkpt><trkpt lat="42.73075533613535" lon="11.208093797554067"><ele>119.0</ele><time>2026-03-22T14:21:38.956Z</time></trkpt><trkpt lat="42.730902561443486" lon="11.20829385961224"><ele>119.0</ele><time>2026-03-22T14:21:39.956Z</time></trkpt><trkpt lat="42.731049525833356" lon="11.208488764204382"><ele>122.66666666666666</ele><time>2026-03-22T14:21:40.956Z</time></trkpt><trkpt lat="42.73119751829184" lon="11.208688185022725"><ele>126.33333333333334</ele><time>2026-03-22T14:21:41.956Z</time></trkpt><trkpt lat="42.731342478336096" lon="11.208885494106942"><ele>130.0</ele><time>2026-03-22T14:21:42.956Z</time></trkpt><trkpt lat="42.73148761526295" lon="11.209088243814094"><ele>130.0</ele><time>2026-03-22T14:21:43.956Z</time></trkpt><trkpt lat="42.7316349526987" lon="11.209287670998767"><ele>130.0</ele><time>2026-03-22T14:21:44.955Z</time></trkpt><trkpt lat="42.73178029213292" lon="11.209493710415014"><ele>130.0</ele><time>2026-03-22T14:21:45.955Z</time></trkpt><trkpt lat="42.7319308583665" lon="11.209696944161538"><ele>132.0</ele><time>2026-03-22T14:21:46.955Z</time></trkpt><trkpt lat="42.73208637493177" lon="11.209899388060105"><ele>134.0</ele><time>2026-03-22T14:21:47.955Z</time></trkpt><trkpt lat="42.73224602696342" lon="11.21011295893752"><ele>136.0</ele><time>2026-03-22T14:21:48.955Z</time></trkpt><trkpt lat="42.73239918651238" lon="11.210315841410608"><ele>136.0</ele><time>2026-03-22T14:21:49.955Z</time></trkpt><trkpt lat="42.732541031610594" lon="11.210489537350497"><ele>136.0</ele><time>2026-03-22T14:21:50.955Z</time></trkpt><trkpt lat="42.73266002599159" lon="11.210679943115668"><ele>136.0</ele><time>2026-03-22T14:21:51.955Z</time></trkpt><trkpt lat="42.73277175403" lon="11.210844443708911"><ele>136.6</ele><time>2026-03-22T14:21:52.955Z</time></trkpt><trkpt lat="42.73284798009674" lon="11.210977524215252"><ele>137.2</ele><time>2026-03-22T14:21:53.955Z</time></trkpt><trkpt lat="42.73287826361876" lon="11.211070435549706"><ele>137.8</ele><time>2026-03-22T14:21:54.955Z</time></trkpt><trkpt lat="42.73287953246863" lon="11.211251589921567"><ele>138.4</ele><time>2026-03-22T14:21:56.955Z</time></trkpt><trkpt lat="42.732863324446754" lon="11.21137941251272"><ele>139.0</ele><time>2026-03-22T14:21:57.955Z</time></trkpt><trkpt lat="42.732809009045084" lon="11.211698550202492"><ele>139.0</ele><time>2026-03-22T14:21:58.955Z</time></trkpt><trkpt lat="42.73277046983573" lon="11.211857476087093"><ele>139.0</ele><time>2026-03-22T14:21:59.955Z</time></trkpt><trkpt lat="42.73272730260919" lon="11.21203548671978"><ele>139.0</ele><time>2026-03-22T14:22:00.955Z</time></trkpt><trkpt lat="42.732678900660396" lon="11.21223508401491"><ele>139.0</ele><time>2026-03-22T14:22:01.955Z</time></trkpt><trkpt lat="42.73262780062538" lon="11.21244580752523"><ele>140.0</ele><time>2026-03-22T14:22:02.955Z</time></trkpt><trkpt lat="42.732574406565405" lon="11.212665991020113"><ele>141.0</ele><time>2026-03-22T14:22:03.955Z</time></trkpt><trkpt lat="42.732519620963146" lon="11.21289191287477"><ele>142.0</ele><time>2026-03-22T14:22:04.955Z</time></trkpt><trkpt lat="42.732463553444575" lon="11.213124817873531"><ele>143.0</ele><time>2026-03-22T14:22:05.955Z</time></trkpt><trkpt lat="42.73240584657848" lon="11.21336649320441"><ele>144.0</ele><time>2026-03-22T14:22:06.955Z</time></trkpt><trkpt lat="42.73234826840497" lon="11.213607629575833"><ele>145.0</ele><time>2026-03-22T14:22:07.955Z</time></trkpt><trkpt lat="42.73229086401168" lon="11.213848038153577"><ele>146.0</ele><time>2026-03-22T14:22:08.955Z</time></trkpt><trkpt lat="42.73223320411182" lon="11.214087268425265"><ele>147.0</ele><time>2026-03-22T14:22:09.955Z</time></trkpt><trkpt lat="42.73217382271822" lon="11.214323233205041"><ele>148.0</ele><time>2026-03-22T14:22:10.955Z</time></trkpt><trkpt lat="42.73211642378271" lon="11.214557960478365"><ele>148.0</ele><time>2026-03-22T14:22:11.955Z</time></trkpt><trkpt lat="42.73206199314241" lon="11.214788976030153"><ele>148.0</ele><time>2026-03-22T14:22:12.955Z</time></trkpt><trkpt lat="42.73200907398017" lon="11.21501357653556"><ele>148.0</ele><time>2026-03-22T14:22:13.955Z</time></trkpt><trkpt lat="42.73195837461355" lon="11.215228451692044"><ele>149.0</ele><time>2026-03-22T14:22:14.954Z</time></trkpt><trkpt lat="42.731906465059694" lon="11.215437823800249"><ele>150.0</ele><time>2026-03-22T14:22:15.954Z</time></trkpt><trkpt lat="42.73185186157673" lon="11.215637941601015"><ele>151.0</ele><time>2026-03-22T14:22:16.954Z</time></trkpt><trkpt lat="42.7317858951255" lon="11.21581631665667"><ele>151.25</ele><time>2026-03-22T14:22:17.954Z</time></trkpt><trkpt lat="42.731704507059625" lon="11.215954684428283"><ele>151.5</ele><time>2026-03-22T14:22:18.954Z</time></trkpt><trkpt lat="42.7316134985946" lon="11.21607918090614"><ele>151.75</ele><time>2026-03-22T14:22:19.954Z</time></trkpt><trkpt lat="42.73150859726308" lon="11.2162064342604"><ele>152.0</ele><time>2026-03-22T14:22:20.954Z</time></trkpt><trkpt lat="42.73138696147482" lon="11.216353104892928"><ele>152.33333333333331</ele><time>2026-03-22T14:22:21.954Z</time></trkpt><trkpt lat="42.73125104017334" lon="11.216510859171033"><ele>152.66666666666666</ele><time>2026-03-22T14:22:22.954Z</time></trkpt><trkpt lat="42.731104080815626" lon="11.216679002862366"><ele>153.0</ele><time>2026-03-22T14:22:23.954Z</time></trkpt><trkpt lat="42.73095196734325" lon="11.216852106612116"><ele>153.0</ele><time>2026-03-22T14:22:24.954Z</time></trkpt><trkpt lat="42.73079591474618" lon="11.217030173074033"><ele>153.0</ele><time>2026-03-22T14:22:25.954Z</time></trkpt><trkpt lat="42.73063246783098" lon="11.217219906129174"><ele>153.0</ele><time>2026-03-22T14:22:26.954Z</time></trkpt><trkpt lat="42.73046886766363" lon="11.21740981708534"><ele>153.0</ele><time>2026-03-22T14:22:27.954Z</time></trkpt><trkpt lat="42.73030378836017" lon="11.217601445059076"><ele>153.0</ele><time>2026-03-22T14:22:28.954Z</time></trkpt><trkpt lat="42.730139469072355" lon="11.217792190790302"><ele>153.0</ele><time>2026-03-22T14:22:29.954Z</time></trkpt><trkpt lat="42.72997395039088" lon="11.21798421416662"><ele>153.0</ele><time>2026-03-22T14:22:30.954Z</time></trkpt><trkpt lat="42.729807780224846" lon="11.218175473016743"><ele>153.0</ele><time>2026-03-22T14:22:31.954Z</time></trkpt><trkpt lat="42.72964030523445" lon="11.21836823370107"><ele>153.0</ele><time>2026-03-22T14:22:32.954Z</time></trkpt><trkpt lat="42.729474135497824" lon="11.218559492058686"><ele>153.66666666666666</ele><time>2026-03-22T14:22:33.954Z</time></trkpt><trkpt lat="42.729307556900174" lon="11.218751221006201"><ele>154.33333333333331</ele><time>2026-03-22T14:22:34.954Z</time></trkpt><trkpt lat="42.729143943088054" lon="11.218938578588398"><ele>155.0</ele><time>2026-03-22T14:22:35.954Z</time></trkpt><trkpt lat="42.72900288100979" lon="11.219101656670718"><ele>155.0</ele><time>2026-03-22T14:22:36.954Z</time></trkpt><trkpt lat="42.72886413899232" lon="11.219262222425217"><ele>155.0</ele><time>2026-03-22T14:22:37.954Z</time></trkpt><trkpt lat="42.72872519022562" lon="11.219425190480102"><ele>155.0</ele><time>2026-03-22T14:22:38.954Z</time></trkpt><trkpt lat="42.72859579680609" lon="11.219606352382428"><ele>156.0</ele><time>2026-03-22T14:22:39.954Z</time></trkpt><trkpt lat="42.72844778751231" lon="11.219748304411985"><ele>157.0</ele><time>2026-03-22T14:22:40.954Z</time></trkpt><trkpt lat="42.7283196956913" lon="11.219896081210791"><ele>158.0</ele><time>2026-03-22T14:22:41.954Z</time></trkpt><trkpt lat="42.72819930325017" lon="11.22003497539863"><ele>158.0</ele><time>2026-03-22T14:22:42.954Z</time></trkpt><trkpt lat="42.72807523792993" lon="11.220178106910138"><ele>158.0</ele><time>2026-03-22T14:22:43.954Z</time></trkpt><trkpt lat="42.72795600040431" lon="11.220315668701362"><ele>158.0</ele><time>2026-03-22T14:22:44.954Z</time></trkpt><trkpt lat="42.72784254932097" lon="11.220446554789591"><ele>157.66666666666666</ele><time>2026-03-22T14:22:45.956Z</time></trkpt><trkpt lat="42.727725211969954" lon="11.22058192439057"><ele>157.33333333333334</ele><time>2026-03-22T14:22:46.956Z</time></trkpt><trkpt lat="42.72760106016991" lon="11.220725155675403"><ele>157.0</ele><time>2026-03-22T14:22:47.956Z</time></trkpt><trkpt lat="42.72747244261189" lon="11.22087353900711"><ele>158.33333333333334</ele><time>2026-03-22T14:22:48.956Z</time></trkpt><trkpt lat="42.727337898293065" lon="11.221028759920676"><ele>159.66666666666666</ele><time>2026-03-22T14:22:49.956Z</time></trkpt><trkpt lat="42.72720237439792" lon="11.22118521231422"><ele>161.0</ele><time>2026-03-22T14:22:50.956Z</time></trkpt><trkpt lat="42.72707168667303" lon="11.221336117176286"><ele>162.0</ele><time>2026-03-22T14:22:51.956Z</time></trkpt><trkpt lat="42.72694238524334" lon="11.221485421288998"><ele>163.0</ele><time>2026-03-22T14:22:52.956Z</time></trkpt><trkpt lat="42.72681194388945" lon="11.221636041669301"><ele>164.0</ele><time>2026-03-22T14:22:53.956Z</time></trkpt><trkpt lat="42.72668111828154" lon="11.22178710574719"><ele>165.0</ele><time>2026-03-22T14:22:54.956Z</time></trkpt><trkpt lat="42.726549376186966" lon="11.221939228090351"><ele>166.0</ele><time>2026-03-22T14:22:55.956Z</time></trkpt><trkpt lat="42.72641510199748" lon="11.222094274240284"><ele>167.0</ele><time>2026-03-22T14:22:56.956Z</time></trkpt><trkpt lat="42.72628167442954" lon="11.22224834279862"><ele>167.66666666666666</ele><time>2026-03-22T14:22:57.956Z</time></trkpt><trkpt lat="42.726147659144026" lon="11.222403089991285"><ele>168.33333333333334</ele><time>2026-03-22T14:22:58.956Z</time></trkpt><trkpt lat="42.726013651122415" lon="11.222557245566104"><ele>169.0</ele><time>2026-03-22T14:22:59.956Z</time></trkpt><trkpt lat="42.72587859940289" lon="11.222712594461244"><ele>171.0</ele><time>2026-03-22T14:23:00.956Z</time></trkpt><trkpt lat="42.72573091626144" lon="11.222882473175508"><ele>173.0</ele><time>2026-03-22T14:23:01.956Z</time></trkpt><trkpt lat="42.725588494226386" lon="11.223046300080796"><ele>175.0</ele><time>2026-03-22T14:23:02.956Z</time></trkpt><trkpt lat="42.72544107527032" lon="11.223214352737422"><ele>174.66666666666669</ele><time>2026-03-22T14:23:03.956Z</time></trkpt><trkpt lat="42.72530571536019" lon="11.223408865901726"><ele>174.33333333333334</ele><time>2026-03-22T14:23:04.956Z</time></trkpt><trkpt lat="42.72515303678158" lon="11.223586693341074"><ele>174.0</ele><time>2026-03-22T14:23:05.956Z</time></trkpt><trkpt lat="42.724995472611205" lon="11.223768694095071"><ele>174.0</ele><time>2026-03-22T14:23:06.956Z</time></trkpt><trkpt lat="42.72483630647797" lon="11.223949761933566"><ele>174.0</ele><time>2026-03-22T14:23:07.956Z</time></trkpt><trkpt lat="42.72466481251862" lon="11.22410353621322"><ele>174.0</ele><time>2026-03-22T14:23:08.956Z</time></trkpt><trkpt lat="42.724518016730066" lon="11.22431099936667"><ele>173.66666666666666</ele><time>2026-03-22T14:23:09.956Z</time></trkpt><trkpt lat="42.72435694440091" lon="11.224499642672754"><ele>173.33333333333331</ele><time>2026-03-22T14:23:10.956Z</time></trkpt><trkpt lat="42.724194652317394" lon="11.224687449924355"><ele>173.0</ele><time>2026-03-22T14:23:11.956Z</time></trkpt><trkpt lat="42.724035572825336" lon="11.22487761310302"><ele>173.66666666666666</ele><time>2026-03-22T14:23:12.956Z</time></trkpt><trkpt lat="42.723853697193704" lon="11.22503408703056"><ele>174.33333333333334</ele><time>2026-03-22T14:23:13.956Z</time></trkpt><trkpt lat="42.72368628009543" lon="11.225225366405557"><ele>175.0</ele><time>2026-03-22T14:23:14.956Z</time></trkpt><trkpt lat="42.72352160728387" lon="11.225416176647768"><ele>175.0</ele><time>2026-03-22T14:23:15.956Z</time></trkpt><trkpt lat="42.72335628797276" lon="11.225607736001711"><ele>175.0</ele><time>2026-03-22T14:23:16.956Z</time></trkpt><trkpt lat="42.723188333984126" lon="11.225802451954982"><ele>175.0</ele><time>2026-03-22T14:23:17.956Z</time></trkpt><trkpt lat="42.723022090753176" lon="11.225995322577802"><ele>175.0</ele><time>2026-03-22T14:23:18.956Z</time></trkpt><trkpt lat="42.72285305889509" lon="11.226191428487104"><ele>175.0</ele><time>2026-03-22T14:23:19.956Z</time></trkpt><trkpt lat="42.72268458326523" lon="11.226387165491335"><ele>175.0</ele><time>2026-03-22T14:23:20.955Z</time></trkpt><trkpt lat="42.7225217772188" lon="11.22657638629647"><ele>175.66666666666669</ele><time>2026-03-22T14:23:21.955Z</time></trkpt><trkpt lat="42.722358666969164" lon="11.226765960662089"><ele>176.33333333333334</ele><time>2026-03-22T14:23:22.955Z</time></trkpt><trkpt lat="42.72220084961972" lon="11.226949383480768"><ele>177.0</ele><time>2026-03-22T14:23:23.955Z</time></trkpt><trkpt lat="42.722051326955416" lon="11.227153950112971"><ele>177.66666666666666</ele><time>2026-03-22T14:23:24.955Z</time></trkpt><trkpt lat="42.7218893291362" lon="11.227343842785842"><ele>178.33333333333331</ele><time>2026-03-22T14:23:25.955Z</time></trkpt><trkpt lat="42.72171581325912" lon="11.227516567884509"><ele>179.0</ele><time>2026-03-22T14:23:26.955Z</time></trkpt><trkpt lat="42.72155322402508" lon="11.227704707809728"><ele>179.0</ele><time>2026-03-22T14:23:27.955Z</time></trkpt><trkpt lat="42.721389607413776" lon="11.227894036571106"><ele>179.0</ele><time>2026-03-22T14:23:28.955Z</time></trkpt><trkpt lat="42.7212240905363" lon="11.228084993944988"><ele>179.0</ele><time>2026-03-22T14:23:29.955Z</time></trkpt><trkpt lat="42.72105976222024" lon="11.228273709465425"><ele>181.0</ele><time>2026-03-22T14:23:30.955Z</time></trkpt><trkpt lat="42.720894793218484" lon="11.228463160759365"><ele>183.0</ele><time>2026-03-22T14:23:31.955Z</time></trkpt><trkpt lat="42.7207287346923" lon="11.228653863269802"><ele>185.0</ele><time>2026-03-22T14:23:32.955Z</time></trkpt><trkpt lat="42.72056556505477" lon="11.228841248251697"><ele>185.0</ele><time>2026-03-22T14:23:33.955Z</time></trkpt><trkpt lat="42.72039987586458" lon="11.229032595453825"><ele>185.0</ele><time>2026-03-22T14:23:34.955Z</time></trkpt><trkpt lat="42.720239178289205" lon="11.229218076428385"><ele>185.0</ele><time>2026-03-22T14:23:35.955Z</time></trkpt><trkpt lat="42.72008182966699" lon="11.229399691044204"><ele>185.0</ele><time>2026-03-22T14:23:36.955Z</time></trkpt><trkpt lat="42.71992218471394" lon="11.229581840741002"><ele>185.0</ele><time>2026-03-22T14:23:37.955Z</time></trkpt><trkpt lat="42.71976211453043" lon="11.22976696386204"><ele>185.0</ele><time>2026-03-22T14:23:38.955Z</time></trkpt><trkpt lat="42.71960773074978" lon="11.229946611773903"><ele>185.0</ele><time>2026-03-22T14:23:39.955Z</time></trkpt><trkpt lat="42.71946995521818" lon="11.230135510331575"><ele>185.0</ele><time>2026-03-22T14:23:40.955Z</time></trkpt><trkpt lat="42.719342576054736" lon="11.230308213745056"><ele>185.0</ele><time>2026-03-22T14:23:41.955Z</time></trkpt><trkpt lat="42.71922671493746" lon="11.230504116864834"><ele>186.33333333333331</ele><time>2026-03-22T14:23:42.955Z</time></trkpt><trkpt lat="42.719097414404565" lon="11.23070577357978"><ele>187.66666666666666</ele><time>2026-03-22T14:23:43.955Z</time></trkpt><trkpt lat="42.71897133663735" lon="11.230924015759172"><ele>189.0</ele><time>2026-03-22T14:23:44.955Z</time></trkpt><trkpt lat="42.71884064412906" lon="11.231150246199444"><ele>189.0</ele><time>2026-03-22T14:23:45.955Z</time></trkpt><trkpt lat="42.71870799934275" lon="11.231379509644444"><ele>189.0</ele><time>2026-03-22T14:23:46.955Z</time></trkpt><trkpt lat="42.71857170304789" lon="11.231615303946999"><ele>189.0</ele><time>2026-03-22T14:23:47.955Z</time></trkpt><trkpt lat="42.71844303570004" lon="11.231842216424424"><ele>189.0</ele><time>2026-03-22T14:23:48.955Z</time></trkpt><trkpt lat="42.71831329083671" lon="11.232071029177938"><ele>189.0</ele><time>2026-03-22T14:23:49.955Z</time></trkpt><trkpt lat="42.7181822424125" lon="11.23230214088002"><ele>189.0</ele><time>2026-03-22T14:23:50.955Z</time></trkpt><trkpt lat="42.718051155468956" lon="11.232533725713912"><ele>189.33333333333334</ele><time>2026-03-22T14:23:51.954Z</time></trkpt><trkpt lat="42.71792082898312" lon="11.232763959375259"><ele>189.66666666666669</ele><time>2026-03-22T14:23:52.954Z</time></trkpt><trkpt lat="42.71779125422764" lon="11.232992865069578"><ele>190.0</ele><time>2026-03-22T14:23:53.954Z</time></trkpt><trkpt lat="42.717666027293596" lon="11.233214389822116"><ele>190.0</ele><time>2026-03-22T14:23:54.954Z</time></trkpt><trkpt lat="42.717544657522154" lon="11.233430053572743"><ele>190.0</ele><time>2026-03-22T14:23:55.954Z</time></trkpt><trkpt lat="42.71741887411388" lon="11.233651106655596"><ele>190.0</ele><time>2026-03-22T14:23:56.954Z</time></trkpt><trkpt lat="42.71729440723154" lon="11.233868595928039"><ele>189.33333333333334</ele><time>2026-03-22T14:23:57.954Z</time></trkpt><trkpt lat="42.7171663505818" lon="11.234092357834852"><ele>188.66666666666666</ele><time>2026-03-22T14:23:58.954Z</time></trkpt><trkpt lat="42.717036412679235" lon="11.234319406949716"><ele>188.0</ele><time>2026-03-22T14:23:59.954Z</time></trkpt><trkpt lat="42.716901315487924" lon="11.234554922555944"><ele>187.33333333333331</ele><time>2026-03-22T14:24:00.954Z</time></trkpt><trkpt lat="42.71676398022283" lon="11.234792471031419"><ele>186.66666666666666</ele><time>2026-03-22T14:24:01.954Z</time></trkpt><trkpt lat="42.716627049988546" lon="11.235030127419266"><ele>186.0</ele><time>2026-03-22T14:24:02.954Z</time></trkpt><trkpt lat="42.71649234724341" lon="11.23526513461722"><ele>185.33333333333334</ele><time>2026-03-22T14:24:03.954Z</time></trkpt><trkpt lat="42.71635818250687" lon="11.23549920321512"><ele>184.66666666666669</ele><time>2026-03-22T14:24:04.954Z</time></trkpt><trkpt lat="42.71622066060893" lon="11.23573907167599"><ele>184.0</ele><time>2026-03-22T14:24:05.954Z</time></trkpt><trkpt lat="42.71609181638513" lon="11.235963769168764"><ele>182.0</ele><time>2026-03-22T14:24:06.954Z</time></trkpt><trkpt lat="42.7159713052275" lon="11.236174407164782"><ele>180.0</ele><time>2026-03-22T14:24:07.954Z</time></trkpt><trkpt lat="42.71585098692084" lon="11.236386081841262"><ele>178.0</ele><time>2026-03-22T14:24:08.954Z</time></trkpt><trkpt lat="42.715736468574406" lon="11.236587552763067"><ele>178.0</ele><time>2026-03-22T14:24:09.954Z</time></trkpt><trkpt lat="42.71562832686841" lon="11.236777806263753"><ele>178.0</ele><time>2026-03-22T14:24:10.954Z</time></trkpt><trkpt lat="42.71552709110425" lon="11.236955910793133"><ele>178.0</ele><time>2026-03-22T14:24:11.954Z</time></trkpt><trkpt lat="42.715426732053785" lon="11.237132472914208"><ele>176.0</ele><time>2026-03-22T14:24:12.954Z</time></trkpt><trkpt lat="42.715321762663095" lon="11.237317146037546"><ele>174.0</ele><time>2026-03-22T14:24:13.954Z</time></trkpt><trkpt lat="42.71522909110266" lon="11.237515493810672"><ele>172.0</ele><time>2026-03-22T14:24:14.954Z</time></trkpt><trkpt lat="42.71511389355347" lon="11.237696651804596"><ele>172.0</ele><time>2026-03-22T14:24:15.954Z</time></trkpt><trkpt lat="42.7150068980393" lon="11.237887113050252"><ele>172.0</ele><time>2026-03-22T14:24:16.954Z</time></trkpt><trkpt lat="42.71490279974613" lon="11.23806939194335"><ele>172.0</ele><time>2026-03-22T14:24:17.954Z</time></trkpt><trkpt lat="42.71478916533974" lon="11.238247993203753"><ele>171.0</ele><time>2026-03-22T14:24:18.954Z</time></trkpt><trkpt lat="42.71465997695674" lon="11.238432164916183"><ele>170.0</ele><time>2026-03-22T14:24:19.954Z</time></trkpt><trkpt lat="42.71452554795011" lon="11.238615828525916"><ele>169.0</ele><time>2026-03-22T14:24:20.954Z</time></trkpt><trkpt lat="42.71438142089219" lon="11.23880777588035"><ele>166.66666666666669</ele><time>2026-03-22T14:24:21.953Z</time></trkpt><trkpt lat="42.71423538667415" lon="11.2390040864911"><ele>164.33333333333334</ele><time>2026-03-22T14:24:22.953Z</time></trkpt><trkpt lat="42.71408581352733" lon="11.23919999255823"><ele>162.0</ele><time>2026-03-22T14:24:23.953Z</time></trkpt><trkpt lat="42.71393610676911" lon="11.239395889184266"><ele>162.0</ele><time>2026-03-22T14:24:24.953Z</time></trkpt><trkpt lat="42.7137848110284" lon="11.23959932056433"><ele>162.0</ele><time>2026-03-22T14:24:25.953Z</time></trkpt><trkpt lat="42.71363368371057" lon="11.23979770311586"><ele>162.0</ele><time>2026-03-22T14:24:26.953Z</time></trkpt><trkpt lat="42.713486262286374" lon="11.239997984805015"><ele>160.33333333333334</ele><time>2026-03-22T14:24:27.953Z</time></trkpt><trkpt lat="42.713339708632226" lon="11.24019035494913"><ele>158.66666666666669</ele><time>2026-03-22T14:24:28.953Z</time></trkpt><trkpt lat="42.71319420866322" lon="11.240385201571282"><ele>157.0</ele><time>2026-03-22T14:24:29.953Z</time></trkpt><trkpt lat="42.71303931694963" lon="11.240589527199914"><ele>155.0</ele><time>2026-03-22T14:24:30.953Z</time></trkpt><trkpt lat="42.71288439467005" lon="11.240797217844605"><ele>153.0</ele><time>2026-03-22T14:24:31.953Z</time></trkpt><trkpt lat="42.71272729639746" lon="11.241011152501349"><ele>151.0</ele><time>2026-03-22T14:24:32.953Z</time></trkpt><trkpt lat="42.7125659762371" lon="11.241226545371378"><ele>150.0</ele><time>2026-03-22T14:24:33.953Z</time></trkpt><trkpt lat="42.71240183326097" lon="11.241440830188191"><ele>149.0</ele><time>2026-03-22T14:24:34.953Z</time></trkpt><trkpt lat="42.712246607989734" lon="11.241647232874051"><ele>148.0</ele><time>2026-03-22T14:24:35.953Z</time></trkpt><trkpt lat="42.712089958271946" lon="11.241848661113366"><ele>146.66666666666669</ele><time>2026-03-22T14:24:36.953Z</time></trkpt><trkpt lat="42.71194758937742" lon="11.242043951265284"><ele>145.33333333333334</ele><time>2026-03-22T14:24:37.953Z</time></trkpt><trkpt lat="42.711804622407534" lon="11.242230617079858"><ele>144.0</ele><time>2026-03-22T14:24:38.953Z</time></trkpt><trkpt lat="42.71166200733792" lon="11.242410272442584"><ele>141.33333333333334</ele><time>2026-03-22T14:24:39.953Z</time></trkpt><trkpt lat="42.71152479051801" lon="11.242588664068217"><ele>138.66666666666669</ele><time>2026-03-22T14:24:40.953Z</time></trkpt><trkpt lat="42.711392382536125" lon="11.242767593718622"><ele>136.0</ele><time>2026-03-22T14:24:41.953Z</time></trkpt><trkpt lat="42.711273743963204" lon="11.24294964421792"><ele>135.0</ele><time>2026-03-22T14:24:42.953Z</time></trkpt><trkpt lat="42.711177288801466" lon="11.243135797104078"><ele>134.0</ele><time>2026-03-22T14:24:43.953Z</time></trkpt><trkpt lat="42.71110425240485" lon="11.243320546954834"><ele>133.0</ele><time>2026-03-22T14:24:44.953Z</time></trkpt><trkpt lat="42.71105364606896" lon="11.243502709672564"><ele>131.5</ele><time>2026-03-22T14:24:45.953Z</time></trkpt><trkpt lat="42.711024930797784" lon="11.243688808031543"><ele>130.0</ele><time>2026-03-22T14:24:46.953Z</time></trkpt><trkpt lat="42.71102234412151" lon="11.243889817980376"><ele>128.5</ele><time>2026-03-22T14:24:47.953Z</time></trkpt><trkpt lat="42.71104155463065" lon="11.244107341465929"><ele>127.0</ele><time>2026-03-22T14:24:48.953Z</time></trkpt><trkpt lat="42.711088445420366" lon="11.244333657324852"><ele>127.0</ele><time>2026-03-22T14:24:49.953Z</time></trkpt><trkpt lat="42.71116468537414" lon="11.244550523632695"><ele>127.0</ele><time>2026-03-22T14:24:50.953Z</time></trkpt><trkpt lat="42.71125531884273" lon="11.24474612953303"><ele>127.0</ele><time>2026-03-22T14:24:51.955Z</time></trkpt><trkpt lat="42.71136347080599" lon="11.244920154481173"><ele>124.66666666666667</ele><time>2026-03-22T14:24:52.955Z</time></trkpt><trkpt lat="42.71148365370779" lon="11.245079094990759"><ele>122.33333333333334</ele><time>2026-03-22T14:24:53.955Z</time></trkpt><trkpt lat="42.71161734075222" lon="11.245221007831866"><ele>120.0</ele><time>2026-03-22T14:24:54.954Z</time></trkpt><trkpt lat="42.711773038463065" lon="11.24534807306857"><ele>120.33333333333334</ele><time>2026-03-22T14:24:55.955Z</time></trkpt><trkpt lat="42.711937971314924" lon="11.245471212771312"><ele>120.66666666666667</ele><time>2026-03-22T14:24:56.955Z</time></trkpt><trkpt lat="42.712102533926654" lon="11.245594945509716"><ele>121.0</ele><time>2026-03-22T14:24:57.954Z</time></trkpt><trkpt lat="42.712280376199075" lon="11.245726102772212"><ele>118.0</ele><time>2026-03-22T14:24:58.955Z</time></trkpt><trkpt lat="42.71245128606874" lon="11.24585984752686"><ele>115.0</ele><time>2026-03-22T14:24:59.955Z</time></trkpt><trkpt lat="42.71261675302297" lon="11.245979118090155"><ele>112.0</ele><time>2026-03-22T14:25:00.955Z</time></trkpt><trkpt lat="42.71277216733728" lon="11.246101570965305"><ele>112.0</ele><time>2026-03-22T14:25:01.954Z</time></trkpt><trkpt lat="42.71292536517911" lon="11.24621454219087"><ele>112.0</ele><time>2026-03-22T14:25:02.954Z</time></trkpt><trkpt lat="42.713062532704576" lon="11.24632268197769"><ele>112.0</ele><time>2026-03-22T14:25:03.954Z</time></trkpt><trkpt lat="42.71317982053919" lon="11.246443842679696"><ele>111.33333333333334</ele><time>2026-03-22T14:25:04.955Z</time></trkpt><trkpt lat="42.713285254192414" lon="11.246596773286244"><ele>110.66666666666666</ele><time>2026-03-22T14:25:05.955Z</time></trkpt><trkpt lat="42.713370005751976" lon="11.246772939449553"><ele>110.0</ele><time>2026-03-22T14:25:06.955Z</time></trkpt><trkpt lat="42.71344258905506" lon="11.24696619580856"><ele>110.0</ele><time>2026-03-22T14:25:07.955Z</time></trkpt><trkpt lat="42.713521273003344" lon="11.247175755727234"><ele>110.0</ele><time>2026-03-22T14:25:08.955Z</time></trkpt><trkpt lat="42.71360550404181" lon="11.247384246330471"><ele>110.0</ele><time>2026-03-22T14:25:09.955Z</time></trkpt><trkpt lat="42.713697764496146" lon="11.247602579605438"><ele>109.0</ele><time>2026-03-22T14:25:10.955Z</time></trkpt><trkpt lat="42.7137948879661" lon="11.247834164414396"><ele>108.0</ele><time>2026-03-22T14:25:11.955Z</time></trkpt><trkpt lat="42.71388098925649" lon="11.248055302821081"><ele>107.0</ele><time>2026-03-22T14:25:12.955Z</time></trkpt><trkpt lat="42.713962375588615" lon="11.248257677281504"><ele>109.0</ele><time>2026-03-22T14:25:13.954Z</time></trkpt><trkpt lat="42.71404228711175" lon="11.248443812257465"><ele>111.0</ele><time>2026-03-22T14:25:14.953Z</time></trkpt><trkpt lat="42.714125786210204" lon="11.24860426433877"><ele>113.0</ele><time>2026-03-22T14:25:15.951Z</time></trkpt><trkpt lat="42.7142237613243" lon="11.248725588020871"><ele>115.0</ele><time>2026-03-22T14:25:16.95Z</time></trkpt><trkpt lat="42.71432866990518" lon="11.248794165562524"><ele>114.16666666666667</ele><time>2026-03-22T14:25:17.949Z</time></trkpt><trkpt lat="42.71442721337449" lon="11.248835495295914"><ele>113.33333333333334</ele><time>2026-03-22T14:25:18.948Z</time></trkpt><trkpt lat="42.71450687575682" lon="11.248894229113453"><ele>112.5</ele><time>2026-03-22T14:25:19.947Z</time></trkpt><trkpt lat="42.71453568289931" lon="11.248989818604949"><ele>111.66666666666666</ele><time>2026-03-22T14:25:20.946Z</time></trkpt><trkpt lat="42.714531246736755" lon="11.249086753642834"><ele>110.83333333333333</ele><time>2026-03-22T14:25:21.945Z</time></trkpt><trkpt lat="42.71450489927805" lon="11.24916925462865"><ele>110.0</ele><time>2026-03-22T14:25:22.945Z</time></trkpt><trkpt lat="42.714406663426246" lon="11.249314343075943"><ele>113.8</ele><time>2026-03-22T14:25:24.943Z</time></trkpt><trkpt lat="42.714319622097555" lon="11.249322670950482"><ele>117.6</ele><time>2026-03-22T14:25:25.942Z</time></trkpt><trkpt lat="42.7142442160329" lon="11.24927350150493"><ele>121.4</ele><time>2026-03-22T14:25:26.942Z</time></trkpt><trkpt lat="42.714182771721106" lon="11.249179352527443"><ele>125.2</ele><time>2026-03-22T14:25:27.941Z</time></trkpt><trkpt lat="42.71411975701037" lon="11.24906604177439"><ele>129.0</ele><time>2026-03-22T14:25:28.941Z</time></trkpt><trkpt lat="42.714033986369536" lon="11.248977677893578"><ele>128.0</ele><time>2026-03-22T14:25:29.94Z</time></trkpt><trkpt lat="42.71392117774744" lon="11.248903523782817"><ele>127.0</ele><time>2026-03-22T14:25:30.94Z</time></trkpt><trkpt lat="42.71378251348119" lon="11.24886079373881"><ele>126.0</ele><time>2026-03-22T14:25:31.939Z</time></trkpt><trkpt lat="42.7136357072026" lon="11.248835180202935"><ele>125.0</ele><time>2026-03-22T14:25:32.939Z</time></trkpt><trkpt lat="42.71348847840872" lon="11.248813205638369"><ele>125.0</ele><time>2026-03-22T14:25:33.938Z</time></trkpt><trkpt lat="42.71333461298549" lon="11.248795999306283"><ele>125.0</ele><time>2026-03-22T14:25:34.938Z</time></trkpt><trkpt lat="42.7131754355033" lon="11.248779218825725"><ele>125.0</ele><time>2026-03-22T14:25:35.938Z</time></trkpt><trkpt lat="42.71301575456668" lon="11.248762480782533"><ele>125.0</ele><time>2026-03-22T14:25:36.937Z</time></trkpt><trkpt lat="42.71286008904685" lon="11.248746185159474"><ele>125.0</ele><time>2026-03-22T14:25:37.937Z</time></trkpt><trkpt lat="42.71270131108224" lon="11.248708015306292"><ele>125.0</ele><time>2026-03-22T14:25:38.937Z</time></trkpt><trkpt lat="42.71253888775921" lon="11.24868873519446"><ele>128.66666666666666</ele><time>2026-03-22T14:25:39.936Z</time></trkpt><trkpt lat="42.71237522814638" lon="11.24866930833102"><ele>132.33333333333334</ele><time>2026-03-22T14:25:40.936Z</time></trkpt><trkpt lat="42.71219789558614" lon="11.248648258451647"><ele>136.0</ele><time>2026-03-22T14:25:41.936Z</time></trkpt><trkpt lat="42.7120083743548" lon="11.248625761738152"><ele>137.33333333333334</ele><time>2026-03-22T14:25:42.935Z</time></trkpt><trkpt lat="42.71181796317052" lon="11.248603398266948"><ele>138.66666666666666</ele><time>2026-03-22T14:25:43.935Z</time></trkpt><trkpt lat="42.711654937484845" lon="11.24858531460561"><ele>140.0</ele><time>2026-03-22T14:25:44.935Z</time></trkpt><trkpt lat="42.7115060761994" lon="11.248574048922336"><ele>140.0</ele><time>2026-03-22T14:25:45.935Z</time></trkpt><trkpt lat="42.71136162751599" lon="11.248581331461725"><ele>140.0</ele><time>2026-03-22T14:25:46.935Z</time></trkpt><trkpt lat="42.711220019844916" lon="11.248617645274633"><ele>140.0</ele><time>2026-03-22T14:25:47.934Z</time></trkpt><trkpt lat="42.71108107216833" lon="11.248688144392188"><ele>140.0</ele><time>2026-03-22T14:25:48.934Z</time></trkpt><trkpt lat="42.71094545471961" lon="11.248796634936282"><ele>138.66666666666666</ele><time>2026-03-22T14:25:49.934Z</time></trkpt><trkpt lat="42.710830062455045" lon="11.248935102203555"><ele>137.33333333333334</ele><time>2026-03-22T14:25:50.934Z</time></trkpt><trkpt lat="42.71072640361238" lon="11.24909985038739"><ele>136.0</ele><time>2026-03-22T14:25:51.934Z</time></trkpt><trkpt lat="42.710646020030026" lon="11.249286548496421"><ele>141.33333333333334</ele><time>2026-03-22T14:25:52.934Z</time></trkpt><trkpt lat="42.71059078185007" lon="11.249498044734272"><ele>146.66666666666666</ele><time>2026-03-22T14:25:53.933Z</time></trkpt><trkpt lat="42.710558072131505" lon="11.249715452467317"><ele>152.0</ele><time>2026-03-22T14:25:54.933Z</time></trkpt><trkpt lat="42.71053896219763" lon="11.24993826389956"><ele>154.66666666666666</ele><time>2026-03-22T14:25:55.933Z</time></trkpt><trkpt lat="42.7105221807307" lon="11.250161360113976"><ele>157.33333333333334</ele><time>2026-03-22T14:25:56.933Z</time></trkpt><trkpt lat="42.710504296775525" lon="11.250394116245081"><ele>160.0</ele><time>2026-03-22T14:25:57.933Z</time></trkpt><trkpt lat="42.7104855763694" lon="11.250635879983186"><ele>162.0</ele><time>2026-03-22T14:25:58.933Z</time></trkpt><trkpt lat="42.71046382637851" lon="11.250884106109904"><ele>164.0</ele><time>2026-03-22T14:25:59.933Z</time></trkpt><trkpt lat="42.71044260796052" lon="11.251110984731874"><ele>166.0</ele><time>2026-03-22T14:26:00.933Z</time></trkpt><trkpt lat="42.710419174328244" lon="11.25132888056598"><ele>166.0</ele><time>2026-03-22T14:26:01.932Z</time></trkpt><trkpt lat="42.710384391265926" lon="11.251527895807946"><ele>166.0</ele><time>2026-03-22T14:26:02.932Z</time></trkpt><trkpt lat="42.710331793883654" lon="11.251706321285319"><ele>166.0</ele><time>2026-03-22T14:26:03.932Z</time></trkpt><trkpt lat="42.710252589484014" lon="11.251849930963193"><ele>166.0</ele><time>2026-03-22T14:26:04.932Z</time></trkpt><trkpt lat="42.710153049418" lon="11.25197511115856"><ele>166.0</ele><time>2026-03-22T14:26:05.932Z</time></trkpt><trkpt lat="42.710035540169436" lon="11.252060510074383"><ele>166.0</ele><time>2026-03-22T14:26:06.932Z</time></trkpt><trkpt lat="42.70991167662533" lon="11.252117087920796"><ele>166.0</ele><time>2026-03-22T14:26:07.932Z</time></trkpt><trkpt lat="42.70977611229783" lon="11.252172472217307"><ele>166.0</ele><time>2026-03-22T14:26:08.932Z</time></trkpt><trkpt lat="42.709629395502574" lon="11.252231390356345"><ele>165.33333333333334</ele><time>2026-03-22T14:26:09.932Z</time></trkpt><trkpt lat="42.70946953668347" lon="11.25229558414969"><ele>164.66666666666666</ele><time>2026-03-22T14:26:10.932Z</time></trkpt><trkpt lat="42.70930629953722" lon="11.252361134561866"><ele>164.0</ele><time>2026-03-22T14:26:11.932Z</time></trkpt><trkpt lat="42.7091403323112" lon="11.252427781293934"><ele>166.0</ele><time>2026-03-22T14:26:12.932Z</time></trkpt><trkpt lat="42.70896925564574" lon="11.252496479793022"><ele>168.0</ele><time>2026-03-22T14:26:13.932Z</time></trkpt><trkpt lat="42.708795970004424" lon="11.252566142727927"><ele>170.0</ele><time>2026-03-22T14:26:14.931Z</time></trkpt><trkpt lat="42.70862098792116" lon="11.252636591301181"><ele>171.0</ele><time>2026-03-22T14:26:15.931Z</time></trkpt><trkpt lat="42.708454540569704" lon="11.252703603747134"><ele>172.0</ele><time>2026-03-22T14:26:16.931Z</time></trkpt><trkpt lat="42.70830161822886" lon="11.25276668446439"><ele>173.0</ele><time>2026-03-22T14:26:17.931Z</time></trkpt><trkpt lat="42.708168732707215" lon="11.252847883189807"><ele>173.0</ele><time>2026-03-22T14:26:18.931Z</time></trkpt><trkpt lat="42.708038525477065" lon="11.25297835246578"><ele>173.0</ele><time>2026-03-22T14:26:19.931Z</time></trkpt><trkpt lat="42.707910648417354" lon="11.253117053498922"><ele>173.0</ele><time>2026-03-22T14:26:20.931Z</time></trkpt><trkpt lat="42.70777963744748" lon="11.253259638078411"><ele>174.0</ele><time>2026-03-22T14:26:21.931Z</time></trkpt><trkpt lat="42.70765477742722" lon="11.253395898681827"><ele>175.0</ele><time>2026-03-22T14:26:22.931Z</time></trkpt><trkpt lat="42.70753787805349" lon="11.25352347178168"><ele>176.0</ele><time>2026-03-22T14:26:23.931Z</time></trkpt><trkpt lat="42.707453223865734" lon="11.253615855467832"><ele>177.0</ele><time>2026-03-22T14:26:24.931Z</time></trkpt><trkpt lat="42.70737877465283" lon="11.253697040914712"><ele>177.0</ele><time>2026-03-22T14:26:25.931Z</time></trkpt><trkpt lat="42.70729260220214" lon="11.253790137479639"><ele>177.0</ele><time>2026-03-22T14:26:26.931Z</time></trkpt><trkpt lat="42.70720195565893" lon="11.253916511385912"><ele>177.0</ele><time>2026-03-22T14:26:27.931Z</time></trkpt><trkpt lat="42.70707703498754" lon="11.254023025937462"><ele>177.0</ele><time>2026-03-22T14:26:28.931Z</time></trkpt><trkpt lat="42.70695374602961" lon="11.2541562214053"><ele>179.33333333333334</ele><time>2026-03-22T14:26:29.931Z</time></trkpt><trkpt lat="42.706825498474004" lon="11.254294774063101"><ele>181.66666666666669</ele><time>2026-03-22T14:26:30.931Z</time></trkpt><trkpt lat="42.706693760509715" lon="11.254435835916569"><ele>184.0</ele><time>2026-03-22T14:26:31.931Z</time></trkpt><trkpt lat="42.70656136792398" lon="11.254577715713937"><ele>184.0</ele><time>2026-03-22T14:26:32.93Z</time></trkpt><trkpt lat="42.70643249839145" lon="11.254715712181866"><ele>184.0</ele><time>2026-03-22T14:26:33.93Z</time></trkpt><trkpt lat="42.70631613436462" lon="11.25484031746848"><ele>184.0</ele><time>2026-03-22T14:26:34.93Z</time></trkpt><trkpt lat="42.70619679674561" lon="11.254962707737944"><ele>185.0</ele><time>2026-03-22T14:26:35.93Z</time></trkpt><trkpt lat="42.70606696658986" lon="11.255066659433673"><ele>186.0</ele><time>2026-03-22T14:26:36.93Z</time></trkpt><trkpt lat="42.705911350382394" lon="11.255171079160663"><ele>187.0</ele><time>2026-03-22T14:26:37.93Z</time></trkpt><trkpt lat="42.70572682036104" lon="11.255265868499748"><ele>187.0</ele><time>2026-03-22T14:26:38.93Z</time></trkpt><trkpt lat="42.70553030701521" lon="11.255349156984982"><ele>187.0</ele><time>2026-03-22T14:26:39.93Z</time></trkpt><trkpt lat="42.705328684722694" lon="11.255432940999016"><ele>187.0</ele><time>2026-03-22T14:26:40.93Z</time></trkpt><trkpt lat="42.70512799410964" lon="11.255515953927059"><ele>188.0</ele><time>2026-03-22T14:26:41.93Z</time></trkpt><trkpt lat="42.704927676595645" lon="11.255620623290435"><ele>189.0</ele><time>2026-03-22T14:26:42.93Z</time></trkpt><trkpt lat="42.70472055650645" lon="11.255685721920894"><ele>190.0</ele><time>2026-03-22T14:26:43.93Z</time></trkpt><trkpt lat="42.70451015749159" lon="11.255760713477445"><ele>189.0</ele><time>2026-03-22T14:26:44.93Z</time></trkpt><trkpt lat="42.704322457381444" lon="11.25585071071548"><ele>188.0</ele><time>2026-03-22T14:26:45.93Z</time></trkpt><trkpt lat="42.70411370524722" lon="11.255956689891477"><ele>187.0</ele><time>2026-03-22T14:26:46.93Z</time></trkpt><trkpt lat="42.70392195676757" lon="11.256078468102592"><ele>187.0</ele><time>2026-03-22T14:26:47.93Z</time></trkpt><trkpt lat="42.703743228288566" lon="11.256204011833375"><ele>187.0</ele><time>2026-03-22T14:26:48.93Z</time></trkpt><trkpt lat="42.703570169713196" lon="11.256341822753514"><ele>187.0</ele><time>2026-03-22T14:26:49.93Z</time></trkpt><trkpt lat="42.70339045353718" lon="11.256472207871587"><ele>188.66666666666669</ele><time>2026-03-22T14:26:50.93Z</time></trkpt><trkpt lat="42.70320130795825" lon="11.256603594856214"><ele>190.33333333333334</ele><time>2026-03-22T14:26:51.93Z</time></trkpt><trkpt lat="42.70299341862439" lon="11.25671070027568"><ele>192.0</ele><time>2026-03-22T14:26:52.93Z</time></trkpt><trkpt lat="42.70278638191123" lon="11.256840502704279"><ele>190.66666666666666</ele><time>2026-03-22T14:26:53.93Z</time></trkpt><trkpt lat="42.702587837872855" lon="11.256964980621175"><ele>189.33333333333331</ele><time>2026-03-22T14:26:54.93Z</time></trkpt><trkpt lat="42.702392645724586" lon="11.25708699015328"><ele>188.0</ele><time>2026-03-22T14:26:55.929Z</time></trkpt><trkpt lat="42.702196930745245" lon="11.257209318863534"><ele>190.33333333333331</ele><time>2026-03-22T14:26:56.929Z</time></trkpt><trkpt lat="42.70199848649361" lon="11.257333633811571"><ele>192.66666666666666</ele><time>2026-03-22T14:26:57.932Z</time></trkpt><trkpt lat="42.7017995544259" lon="11.257458223884553"><ele>195.0</ele><time>2026-03-22T14:26:58.931Z</time></trkpt><trkpt lat="42.701597399081365" lon="11.257584473143138"><ele>195.0</ele><time>2026-03-22T14:26:59.931Z</time></trkpt><trkpt lat="42.7014125134734" lon="11.257699036107622"><ele>195.0</ele><time>2026-03-22T14:27:00.932Z</time></trkpt><trkpt lat="42.70123745803756" lon="11.25780750790255"><ele>195.0</ele><time>2026-03-22T14:27:01.932Z</time></trkpt><trkpt lat="42.70106201432127" lon="11.257916220280952"><ele>195.33333333333331</ele><time>2026-03-22T14:27:02.932Z</time></trkpt><trkpt lat="42.700890734298504" lon="11.258022352660468"><ele>195.66666666666666</ele><time>2026-03-22T14:27:03.932Z</time></trkpt><trkpt lat="42.70072417915814" lon="11.258125557300339"><ele>196.0</ele><time>2026-03-22T14:27:04.932Z</time></trkpt><trkpt lat="42.70055758324147" lon="11.258216251673186"><ele>198.0</ele><time>2026-03-22T14:27:05.932Z</time></trkpt><trkpt lat="42.70039294399256" lon="11.258286840565681"><ele>200.0</ele><time>2026-03-22T14:27:06.932Z</time></trkpt><trkpt lat="42.700218014312995" lon="11.258337842326368"><ele>202.0</ele><time>2026-03-22T14:27:07.931Z</time></trkpt><trkpt lat="42.700041270452346" lon="11.258367234110871"><ele>202.66666666666666</ele><time>2026-03-22T14:27:08.931Z</time></trkpt><trkpt lat="42.69983732058875" lon="11.258388676290872"><ele>203.33333333333331</ele><time>2026-03-22T14:27:09.932Z</time></trkpt><trkpt lat="42.699655311566275" lon="11.258402887709611"><ele>204.0</ele><time>2026-03-22T14:27:10.932Z</time></trkpt><trkpt lat="42.69946048935855" lon="11.258418099591015"><ele>204.0</ele><time>2026-03-22T14:27:11.932Z</time></trkpt><trkpt lat="42.69927143152981" lon="11.258432861383163"><ele>204.0</ele><time>2026-03-22T14:27:12.932Z</time></trkpt><trkpt lat="42.699081508177905" lon="11.258460665954635"><ele>204.0</ele><time>2026-03-22T14:27:13.932Z</time></trkpt><trkpt lat="42.698887390367574" lon="11.258465334958673"><ele>204.0</ele><time>2026-03-22T14:27:14.931Z</time></trkpt><trkpt lat="42.69868069464893" lon="11.25847898661474"><ele>204.0</ele><time>2026-03-22T14:27:15.931Z</time></trkpt><trkpt lat="42.69847398340963" lon="11.258493717355824"><ele>204.0</ele><time>2026-03-22T14:27:16.931Z</time></trkpt><trkpt lat="42.69826898644855" lon="11.258509527580923"><ele>204.66666666666669</ele><time>2026-03-22T14:27:17.931Z</time></trkpt><trkpt lat="42.69806435543139" lon="11.258526683943813"><ele>205.33333333333334</ele><time>2026-03-22T14:27:18.931Z</time></trkpt><trkpt lat="42.69785754680723" lon="11.258544692960227"><ele>206.0</ele><time>2026-03-22T14:27:19.931Z</time></trkpt><trkpt lat="42.6976494406977" lon="11.258562814963822"><ele>206.66666666666669</ele><time>2026-03-22T14:27:20.931Z</time></trkpt><trkpt lat="42.69743796562534" lon="11.258581230336254"><ele>207.33333333333331</ele><time>2026-03-22T14:27:21.931Z</time></trkpt><trkpt lat="42.69722692109837" lon="11.258599608220448"><ele>208.0</ele><time>2026-03-22T14:27:22.931Z</time></trkpt><trkpt lat="42.69702177012373" lon="11.258617222772001"><ele>207.33333333333331</ele><time>2026-03-22T14:27:23.931Z</time></trkpt><trkpt lat="42.69681512886168" lon="11.258634902589533"><ele>206.66666666666669</ele><time>2026-03-22T14:27:24.931Z</time></trkpt><trkpt lat="42.69660812872246" lon="11.25865261311149"><ele>206.0</ele><time>2026-03-22T14:27:25.931Z</time></trkpt><trkpt lat="42.69641525432794" lon="11.258669115062013"><ele>206.0</ele><time>2026-03-22T14:27:26.931Z</time></trkpt><trkpt lat="42.69621253963461" lon="11.258687345511923"><ele>206.0</ele><time>2026-03-22T14:27:27.931Z</time></trkpt><trkpt lat="42.695999975205496" lon="11.258706448779622"><ele>206.0</ele><time>2026-03-22T14:27:28.93Z</time></trkpt><trkpt lat="42.69577553773691" lon="11.258739018387022"><ele>204.5</ele><time>2026-03-22T14:27:29.93Z</time></trkpt><trkpt lat="42.69553699810124" lon="11.258749036114416"><ele>203.0</ele><time>2026-03-22T14:27:30.93Z</time></trkpt><trkpt lat="42.695299034974006" lon="11.258762539621516"><ele>201.0</ele><time>2026-03-22T14:27:31.93Z</time></trkpt><trkpt lat="42.69503952582379" lon="11.25878975436846"><ele>199.0</ele><time>2026-03-22T14:27:32.93Z</time></trkpt><trkpt lat="42.69482628907477" lon="11.258811259971582"><ele>199.0</ele><time>2026-03-22T14:27:33.93Z</time></trkpt><trkpt lat="42.69457162492328" lon="11.258834187924453"><ele>199.0</ele><time>2026-03-22T14:27:34.93Z</time></trkpt><trkpt lat="42.694308806941876" lon="11.258858362215683"><ele>198.5</ele><time>2026-03-22T14:27:35.93Z</time></trkpt><trkpt lat="42.69405010832194" lon="11.258882344036184"><ele>198.0</ele><time>2026-03-22T14:27:36.93Z</time></trkpt><trkpt lat="42.69379279746665" lon="11.25890626133625"><ele>197.0</ele><time>2026-03-22T14:27:37.93Z</time></trkpt><trkpt lat="42.6935328461774" lon="11.258930436472417"><ele>196.0</ele><time>2026-03-22T14:27:38.93Z</time></trkpt><trkpt lat="42.693274824557506" lon="11.258954432151171"><ele>196.0</ele><time>2026-03-22T14:27:39.929Z</time></trkpt><trkpt lat="42.69301693105346" lon="11.258978415914605"><ele>196.0</ele><time>2026-03-22T14:27:40.929Z</time></trkpt><trkpt lat="42.69275828059649" lon="11.259002470075442"><ele>195.5</ele><time>2026-03-22T14:27:41.929Z</time></trkpt><trkpt lat="42.692499822961494" lon="11.25902654729207"><ele>195.0</ele><time>2026-03-22T14:27:42.929Z</time></trkpt><trkpt lat="42.692239378087265" lon="11.259050826975944"><ele>195.0</ele><time>2026-03-22T14:27:43.929Z</time></trkpt><trkpt lat="42.69197970714933" lon="11.259075034510467"><ele>195.0</ele><time>2026-03-22T14:27:44.929Z</time></trkpt><trkpt lat="42.6917218474708" lon="11.259099073192939"><ele>196.5</ele><time>2026-03-22T14:27:45.929Z</time></trkpt><trkpt lat="42.69146562399081" lon="11.259123376299401"><ele>198.0</ele><time>2026-03-22T14:27:46.929Z</time></trkpt><trkpt lat="42.691227131326926" lon="11.259149320786324"><ele>198.33333333333331</ele><time>2026-03-22T14:27:47.929Z</time></trkpt><trkpt lat="42.69100889935406" lon="11.259169113156203"><ele>198.66666666666666</ele><time>2026-03-22T14:27:48.929Z</time></trkpt><trkpt lat="42.69080137915417" lon="11.25918837935361"><ele>199.0</ele><time>2026-03-22T14:27:49.929Z</time></trkpt><trkpt lat="42.690598781298306" lon="11.259203314652003"><ele>199.0</ele><time>2026-03-22T14:27:50.929Z</time></trkpt><trkpt lat="42.69040215876111" lon="11.259207240443976"><ele>199.0</ele><time>2026-03-22T14:27:51.929Z</time></trkpt><trkpt lat="42.69020365127975" lon="11.259230767019902"><ele>199.0</ele><time>2026-03-22T14:27:52.929Z</time></trkpt><trkpt lat="42.68999849732945" lon="11.259193861160908"><ele>199.0</ele><time>2026-03-22T14:27:53.929Z</time></trkpt><trkpt lat="42.68979052569584" lon="11.259193709004569"><ele>199.0</ele><time>2026-03-22T14:27:54.929Z</time></trkpt><trkpt lat="42.68956867163889" lon="11.259126820413021"><ele>199.0</ele><time>2026-03-22T14:27:55.929Z</time></trkpt><trkpt lat="42.68934038061092" lon="11.25907931820373"><ele>198.5</ele><time>2026-03-22T14:27:56.929Z</time></trkpt><trkpt lat="42.68911502349959" lon="11.259032087568839"><ele>198.0</ele><time>2026-03-22T14:27:57.929Z</time></trkpt><trkpt lat="42.688890063343976" lon="11.258986179878434"><ele>197.33333333333331</ele><time>2026-03-22T14:27:58.929Z</time></trkpt><trkpt lat="42.68866726840216" lon="11.258937373327155"><ele>196.66666666666666</ele><time>2026-03-22T14:27:59.929Z</time></trkpt><trkpt lat="42.68845730686576" lon="11.258866973857732"><ele>196.0</ele><time>2026-03-22T14:28:00.929Z</time></trkpt><trkpt lat="42.68823922664036" lon="11.258826927917715"><ele>196.0</ele><time>2026-03-22T14:28:01.929Z</time></trkpt><trkpt lat="42.68801943740157" lon="11.258795565605393"><ele>196.0</ele><time>2026-03-22T14:28:02.929Z</time></trkpt><trkpt lat="42.68779939491886" lon="11.258786158556129"><ele>196.0</ele><time>2026-03-22T14:28:03.929Z</time></trkpt><trkpt lat="42.687577819453836" lon="11.258795938837437"><ele>195.5</ele><time>2026-03-22T14:28:04.929Z</time></trkpt><trkpt lat="42.6873503744297" lon="11.258822567153349"><ele>195.0</ele><time>2026-03-22T14:28:05.928Z</time></trkpt><trkpt lat="42.68711878865774" lon="11.258855149450081"><ele>196.0</ele><time>2026-03-22T14:28:06.928Z</time></trkpt><trkpt lat="42.686880251094706" lon="11.258891545485575"><ele>197.0</ele><time>2026-03-22T14:28:07.928Z</time></trkpt><trkpt lat="42.68664180048376" lon="11.258920825662786"><ele>197.0</ele><time>2026-03-22T14:28:08.928Z</time></trkpt><trkpt lat="42.68640220818436" lon="11.258949479724308"><ele>197.0</ele><time>2026-03-22T14:28:09.928Z</time></trkpt><trkpt lat="42.68616625921005" lon="11.2589807748229"><ele>195.5</ele><time>2026-03-22T14:28:10.928Z</time></trkpt><trkpt lat="42.68592862088114" lon="11.259008283589349"><ele>194.0</ele><time>2026-03-22T14:28:11.928Z</time></trkpt><trkpt lat="42.68568945108486" lon="11.259039505177592"><ele>194.0</ele><time>2026-03-22T14:28:12.928Z</time></trkpt><trkpt lat="42.68545181425213" lon="11.259072102531594"><ele>194.0</ele><time>2026-03-22T14:28:13.928Z</time></trkpt><trkpt lat="42.685214525875644" lon="11.259103054327884"><ele>194.0</ele><time>2026-03-22T14:28:14.928Z</time></trkpt><trkpt lat="42.68497145194304" lon="11.259139208539386"><ele>194.0</ele><time>2026-03-22T14:28:15.928Z</time></trkpt><trkpt lat="42.68472847441136" lon="11.259168682040652"><ele>194.0</ele><time>2026-03-22T14:28:16.928Z</time></trkpt><trkpt lat="42.68449231050884" lon="11.259203555540555"><ele>194.0</ele><time>2026-03-22T14:28:17.928Z</time></trkpt><trkpt lat="42.684283524181026" lon="11.259224165279052"><ele>194.0</ele><time>2026-03-22T14:28:18.928Z</time></trkpt><trkpt lat="42.68407803582126" lon="11.259249089885952"><ele>194.33333333333334</ele><time>2026-03-22T14:28:19.928Z</time></trkpt><trkpt lat="42.68387392540265" lon="11.259278511561575"><ele>194.66666666666669</ele><time>2026-03-22T14:28:20.928Z</time></trkpt><trkpt lat="42.68366594112437" lon="11.259307688527326"><ele>195.0</ele><time>2026-03-22T14:28:21.928Z</time></trkpt><trkpt lat="42.68346002559926" lon="11.259331685550624"><ele>196.33333333333331</ele><time>2026-03-22T14:28:22.928Z</time></trkpt><trkpt lat="42.68326781755989" lon="11.259354010996951"><ele>197.66666666666666</ele><time>2026-03-22T14:28:23.928Z</time></trkpt><trkpt lat="42.6830677644991" lon="11.25938189938622"><ele>199.0</ele><time>2026-03-22T14:28:24.928Z</time></trkpt><trkpt lat="42.68286570411313" lon="11.259406546225119"><ele>199.0</ele><time>2026-03-22T14:28:25.928Z</time></trkpt><trkpt lat="42.68266737424766" lon="11.259428226436434"><ele>199.0</ele><time>2026-03-22T14:28:26.928Z</time></trkpt><trkpt lat="42.682464852866815" lon="11.25945134498778"><ele>199.0</ele><time>2026-03-22T14:28:27.928Z</time></trkpt><trkpt lat="42.68226226848923" lon="11.259472272091553"><ele>199.0</ele><time>2026-03-22T14:28:28.928Z</time></trkpt><trkpt lat="42.68206348412076" lon="11.259500113457168"><ele>199.0</ele><time>2026-03-22T14:28:29.928Z</time></trkpt><trkpt lat="42.68186623730696" lon="11.25952787776965"><ele>199.0</ele><time>2026-03-22T14:28:30.928Z</time></trkpt><trkpt lat="42.68166562145408" lon="11.25955500722532"><ele>198.33333333333331</ele><time>2026-03-22T14:28:31.927Z</time></trkpt><trkpt lat="42.681466046846595" lon="11.259578144423708"><ele>197.66666666666669</ele><time>2026-03-22T14:28:32.927Z</time></trkpt><trkpt lat="42.68126340657444" lon="11.259609144452572"><ele>197.0</ele><time>2026-03-22T14:28:33.927Z</time></trkpt><trkpt lat="42.68106741641128" lon="11.2596387982705"><ele>197.0</ele><time>2026-03-22T14:28:34.927Z</time></trkpt><trkpt lat="42.680866345264455" lon="11.259690527353158"><ele>197.0</ele><time>2026-03-22T14:28:35.927Z</time></trkpt><trkpt lat="42.68067077642361" lon="11.25976392476659"><ele>197.0</ele><time>2026-03-22T14:28:36.927Z</time></trkpt><trkpt lat="42.680481106187955" lon="11.259844428619138"><ele>198.33333333333334</ele><time>2026-03-22T14:28:37.927Z</time></trkpt><trkpt lat="42.68028950739522" lon="11.259917072337089"><ele>199.66666666666669</ele><time>2026-03-22T14:28:38.927Z</time></trkpt><trkpt lat="42.680097733446885" lon="11.259992649213899"><ele>201.0</ele><time>2026-03-22T14:28:39.927Z</time></trkpt><trkpt lat="42.67990766418926" lon="11.260063801682701"><ele>201.0</ele><time>2026-03-22T14:28:40.927Z</time></trkpt><trkpt lat="42.67971057644333" lon="11.260140377569474"><ele>201.0</ele><time>2026-03-22T14:28:41.927Z</time></trkpt><trkpt lat="42.67951953863025" lon="11.260216884021938"><ele>201.0</ele><time>2026-03-22T14:28:42.927Z</time></trkpt><trkpt lat="42.679333579558985" lon="11.260283957122082"><ele>201.33333333333331</ele><time>2026-03-22T14:28:43.927Z</time></trkpt><trkpt lat="42.67914627276721" lon="11.260353862334993"><ele>201.66666666666666</ele><time>2026-03-22T14:28:44.927Z</time></trkpt><trkpt lat="42.67896077664694" lon="11.260427501745637"><ele>202.0</ele><time>2026-03-22T14:28:45.927Z</time></trkpt><trkpt lat="42.678777757147635" lon="11.260499424039708"><ele>201.66666666666666</ele><time>2026-03-22T14:28:46.927Z</time></trkpt><trkpt lat="42.678598316226584" lon="11.260571406542793"><ele>201.33333333333331</ele><time>2026-03-22T14:28:47.927Z</time></trkpt><trkpt lat="42.67841079214565" lon="11.260635734696997"><ele>201.0</ele><time>2026-03-22T14:28:48.927Z</time></trkpt><trkpt lat="42.6782247793176" lon="11.260706109741232"><ele>202.0</ele><time>2026-03-22T14:28:49.927Z</time></trkpt><trkpt lat="42.67804992988393" lon="11.26077006815844"><ele>203.0</ele><time>2026-03-22T14:28:50.927Z</time></trkpt><trkpt lat="42.677872682127834" lon="11.260836137481459"><ele>204.0</ele><time>2026-03-22T14:28:51.927Z</time></trkpt><trkpt lat="42.677696809111474" lon="11.260902415231794"><ele>205.33333333333331</ele><time>2026-03-22T14:28:52.927Z</time></trkpt><trkpt lat="42.67752112891292" lon="11.260973702706806"><ele>206.66666666666666</ele><time>2026-03-22T14:28:53.927Z</time></trkpt><trkpt lat="42.677342937805435" lon="11.261044754763786"><ele>208.0</ele><time>2026-03-22T14:28:54.927Z</time></trkpt><trkpt lat="42.67716538258308" lon="11.26110899981364"><ele>208.0</ele><time>2026-03-22T14:28:55.927Z</time></trkpt><trkpt lat="42.67698890823536" lon="11.26117440649621"><ele>208.0</ele><time>2026-03-22T14:28:56.927Z</time></trkpt><trkpt lat="42.676810866594224" lon="11.26124451726445"><ele>208.0</ele><time>2026-03-22T14:28:57.926Z</time></trkpt><trkpt lat="42.67663060414947" lon="11.26131061261423"><ele>208.33333333333331</ele><time>2026-03-22T14:28:58.926Z</time></trkpt><trkpt lat="42.676452178680535" lon="11.261385130139637"><ele>208.66666666666669</ele><time>2026-03-22T14:28:59.926Z</time></trkpt><trkpt lat="42.67626225567387" lon="11.261407467610782"><ele>209.0</ele><time>2026-03-22T14:29:00.926Z</time></trkpt><trkpt lat="42.676081653208314" lon="11.261476332677654"><ele>209.66666666666669</ele><time>2026-03-22T14:29:01.926Z</time></trkpt><trkpt lat="42.67589622859264" lon="11.26154835562128"><ele>210.33333333333331</ele><time>2026-03-22T14:29:02.926Z</time></trkpt><trkpt lat="42.67571473866023" lon="11.26161891447379"><ele>211.0</ele><time>2026-03-22T14:29:03.928Z</time></trkpt><trkpt lat="42.67553292968146" lon="11.261689597395133"><ele>211.0</ele><time>2026-03-22T14:29:04.929Z</time></trkpt><trkpt lat="42.675344546197174" lon="11.261762836283514"><ele>211.0</ele><time>2026-03-22T14:29:05.929Z</time></trkpt><trkpt lat="42.67516073568664" lon="11.261834297369312"><ele>211.0</ele><time>2026-03-22T14:29:06.928Z</time></trkpt><trkpt lat="42.67497318665782" lon="11.261907036870149"><ele>211.66666666666666</ele><time>2026-03-22T14:29:07.929Z</time></trkpt><trkpt lat="42.67478697453238" lon="11.261977791657698"><ele>212.33333333333331</ele><time>2026-03-22T14:29:08.929Z</time></trkpt><trkpt lat="42.67460168567623" lon="11.262048195626376"><ele>213.0</ele><time>2026-03-22T14:29:09.928Z</time></trkpt><trkpt lat="42.67441536069625" lon="11.262118993281861"><ele>213.66666666666669</ele><time>2026-03-22T14:29:10.928Z</time></trkpt><trkpt lat="42.6742358721621" lon="11.262188021216188"><ele>214.33333333333334</ele><time>2026-03-22T14:29:11.928Z</time></trkpt><trkpt lat="42.67406999468458" lon="11.262252211321954"><ele>215.0</ele><time>2026-03-22T14:29:12.928Z</time></trkpt><trkpt lat="42.673912201817565" lon="11.262311679243947"><ele>213.33333333333334</ele><time>2026-03-22T14:29:13.928Z</time></trkpt><trkpt lat="42.67375969188615" lon="11.262364137689186"><ele>211.66666666666669</ele><time>2026-03-22T14:29:14.928Z</time></trkpt><trkpt lat="42.673596703243625" lon="11.262400425822234"><ele>210.0</ele><time>2026-03-22T14:29:15.929Z</time></trkpt><trkpt lat="42.6734332426843" lon="11.26238806736811"><ele>210.33333333333331</ele><time>2026-03-22T14:29:16.929Z</time></trkpt><trkpt lat="42.673266257817154" lon="11.262324807079105"><ele>210.66666666666666</ele><time>2026-03-22T14:29:17.929Z</time></trkpt><trkpt lat="42.67308851699593" lon="11.262226917078126"><ele>211.0</ele><time>2026-03-22T14:29:18.929Z</time></trkpt><trkpt lat="42.67288001338884" lon="11.262101907380929"><ele>209.0</ele><time>2026-03-22T14:29:19.929Z</time></trkpt><trkpt lat="42.67265255863023" lon="11.261983819276043"><ele>207.0</ele><time>2026-03-22T14:29:20.929Z</time></trkpt><trkpt lat="42.67240231479475" lon="11.261834136376319"><ele>207.0</ele><time>2026-03-22T14:29:21.928Z</time></trkpt><trkpt lat="42.67214537778317" lon="11.26165970427757"><ele>207.0</ele><time>2026-03-22T14:29:22.928Z</time></trkpt><trkpt lat="42.67191011932039" lon="11.261538756226491"><ele>209.33333333333331</ele><time>2026-03-22T14:29:23.928Z</time></trkpt><trkpt lat="42.671706320756094" lon="11.261416708860157"><ele>211.66666666666666</ele><time>2026-03-22T14:29:24.928Z</time></trkpt><trkpt lat="42.6715029211804" lon="11.261293784133352"><ele>214.0</ele><time>2026-03-22T14:29:25.928Z</time></trkpt><trkpt lat="42.67130070758247" lon="11.261165220760004"><ele>216.0</ele><time>2026-03-22T14:29:26.928Z</time></trkpt><trkpt lat="42.671101513701295" lon="11.26101099640498"><ele>218.0</ele><time>2026-03-22T14:29:27.928Z</time></trkpt><trkpt lat="42.6709115629199" lon="11.260856601947568"><ele>218.0</ele><time>2026-03-22T14:29:28.928Z</time></trkpt><trkpt lat="42.67072920406463" lon="11.260710918052148"><ele>218.0</ele><time>2026-03-22T14:29:29.928Z</time></trkpt><trkpt lat="42.67056362592007" lon="11.260585642590465"><ele>218.0</ele><time>2026-03-22T14:29:30.928Z</time></trkpt><trkpt lat="42.67039552084416" lon="11.260484026608292"><ele>219.66666666666669</ele><time>2026-03-22T14:29:31.928Z</time></trkpt><trkpt lat="42.67021759925605" lon="11.26040494071424"><ele>221.33333333333331</ele><time>2026-03-22T14:29:32.928Z</time></trkpt><trkpt lat="42.67002796588072" lon="11.260340298628558"><ele>223.0</ele><time>2026-03-22T14:29:33.928Z</time></trkpt><trkpt lat="42.669837726574926" lon="11.260289591189263"><ele>223.0</ele><time>2026-03-22T14:29:34.928Z</time></trkpt><trkpt lat="42.66965917066836" lon="11.260237974824882"><ele>223.0</ele><time>2026-03-22T14:29:35.928Z</time></trkpt><trkpt lat="42.66948131784086" lon="11.260187616359206"><ele>223.0</ele><time>2026-03-22T14:29:36.928Z</time></trkpt><trkpt lat="42.66930542711825" lon="11.260124995192244"><ele>226.0</ele><time>2026-03-22T14:29:37.928Z</time></trkpt><trkpt lat="42.669126923623864" lon="11.26007971202317"><ele>229.0</ele><time>2026-03-22T14:29:38.928Z</time></trkpt><trkpt lat="42.668952993740994" lon="11.260031313512659"><ele>232.0</ele><time>2026-03-22T14:29:39.928Z</time></trkpt><trkpt lat="42.66877761009344" lon="11.259982222073697"><ele>232.66666666666666</ele><time>2026-03-22T14:29:40.928Z</time></trkpt><trkpt lat="42.66860689778937" lon="11.259933415867554"><ele>233.33333333333331</ele><time>2026-03-22T14:29:41.928Z</time></trkpt><trkpt lat="42.668452668670696" lon="11.259886061481753"><ele>234.0</ele><time>2026-03-22T14:29:42.928Z</time></trkpt><trkpt lat="42.66831373304756" lon="11.259837983700098"><ele>236.25</ele><time>2026-03-22T14:29:43.928Z</time></trkpt><trkpt lat="42.66818825310387" lon="11.259776480916097"><ele>238.5</ele><time>2026-03-22T14:29:44.928Z</time></trkpt><trkpt lat="42.66806775788045" lon="11.25969899809496"><ele>240.75</ele><time>2026-03-22T14:29:45.928Z</time></trkpt><trkpt lat="42.66795309377553" lon="11.25960353566981"><ele>243.0</ele><time>2026-03-22T14:29:46.928Z</time></trkpt><trkpt lat="42.66784326620184" lon="11.25947741098141"><ele>242.0</ele><time>2026-03-22T14:29:47.927Z</time></trkpt><trkpt lat="42.667721825041674" lon="11.259331243103604"><ele>241.0</ele><time>2026-03-22T14:29:48.927Z</time></trkpt><trkpt lat="42.66758853109361" lon="11.259191504867058"><ele>240.0</ele><time>2026-03-22T14:29:49.927Z</time></trkpt><trkpt lat="42.667448017111056" lon="11.259035851401757"><ele>243.66666666666669</ele><time>2026-03-22T14:29:50.927Z</time></trkpt><trkpt lat="42.66731120979459" lon="11.258874939205231"><ele>247.33333333333334</ele><time>2026-03-22T14:29:51.927Z</time></trkpt><trkpt lat="42.66716938875732" lon="11.258718258467795"><ele>251.0</ele><time>2026-03-22T14:29:52.927Z</time></trkpt><trkpt lat="42.6670258267162" lon="11.258562143643147"><ele>251.66666666666669</ele><time>2026-03-22T14:29:53.927Z</time></trkpt><trkpt lat="42.666883769660174" lon="11.25840097303056"><ele>252.33333333333331</ele><time>2026-03-22T14:29:54.927Z</time></trkpt><trkpt lat="42.666738048584" lon="11.258237990991796"><ele>253.0</ele><time>2026-03-22T14:29:55.927Z</time></trkpt><trkpt lat="42.666582203053665" lon="11.258069185850466"><ele>253.0</ele><time>2026-03-22T14:29:56.927Z</time></trkpt><trkpt lat="42.66642896566044" lon="11.257896631575354"><ele>253.0</ele><time>2026-03-22T14:29:57.927Z</time></trkpt><trkpt lat="42.666282356083514" lon="11.25772521654431"><ele>253.0</ele><time>2026-03-22T14:29:58.927Z</time></trkpt><trkpt lat="42.66613216541312" lon="11.25755864737981"><ele>254.0</ele><time>2026-03-22T14:29:59.927Z</time></trkpt><trkpt lat="42.665978629501666" lon="11.257393513873046"><ele>255.0</ele><time>2026-03-22T14:30:00.927Z</time></trkpt><trkpt lat="42.66582706259365" lon="11.257226768213158"><ele>256.0</ele><time>2026-03-22T14:30:01.927Z</time></trkpt><trkpt lat="42.66568320719629" lon="11.257070370259598"><ele>256.0</ele><time>2026-03-22T14:30:02.927Z</time></trkpt><trkpt lat="42.66555038672068" lon="11.256920696570582"><ele>256.0</ele><time>2026-03-22T14:30:03.927Z</time></trkpt><trkpt lat="42.66542496593107" lon="11.25677186447075"><ele>256.0</ele><time>2026-03-22T14:30:04.927Z</time></trkpt><trkpt lat="42.665303907280936" lon="11.256639216969827"><ele>255.75</ele><time>2026-03-22T14:30:05.927Z</time></trkpt><trkpt lat="42.665190428927" lon="11.256540041958125"><ele>255.5</ele><time>2026-03-22T14:30:06.927Z</time></trkpt><trkpt lat="42.665078075806285" lon="11.256473982255297"><ele>255.25</ele><time>2026-03-22T14:30:07.927Z</time></trkpt><trkpt lat="42.66496025682279" lon="11.256469131660618"><ele>255.0</ele><time>2026-03-22T14:30:08.927Z</time></trkpt><trkpt lat="42.66484646029894" lon="11.256488908646384"><ele>255.0</ele><time>2026-03-22T14:30:09.927Z</time></trkpt><trkpt lat="42.664728781501296" lon="11.256538515390432"><ele>255.0</ele><time>2026-03-22T14:30:10.927Z</time></trkpt><trkpt lat="42.664604011537925" lon="11.256620273043849"><ele>255.0</ele><time>2026-03-22T14:30:11.927Z</time></trkpt><trkpt lat="42.664482488213345" lon="11.256673323828066"><ele>255.0</ele><time>2026-03-22T14:30:12.926Z</time></trkpt><trkpt lat="42.66435228045503" lon="11.256705383504032"><ele>255.5</ele><time>2026-03-22T14:30:13.926Z</time></trkpt><trkpt lat="42.664228384015885" lon="11.256696709516145"><ele>256.0</ele><time>2026-03-22T14:30:14.926Z</time></trkpt><trkpt lat="42.664103073020684" lon="11.25666226971872"><ele>256.5</ele><time>2026-03-22T14:30:15.926Z</time></trkpt><trkpt lat="42.66398338437046" lon="11.256585382101733"><ele>257.0</ele><time>2026-03-22T14:30:16.926Z</time></trkpt><trkpt lat="42.66386933719591" lon="11.256487146267066"><ele>257.0</ele><time>2026-03-22T14:30:17.926Z</time></trkpt><trkpt lat="42.663761321025866" lon="11.256386123482804"><ele>257.0</ele><time>2026-03-22T14:30:18.926Z</time></trkpt><trkpt lat="42.66366326145696" lon="11.256296450508733"><ele>257.0</ele><time>2026-03-22T14:30:19.926Z</time></trkpt><trkpt lat="42.66359201663284" lon="11.256220246771385"><ele>257.0</ele><time>2026-03-22T14:30:20.926Z</time></trkpt><trkpt lat="42.66351052536133" lon="11.256163660885381"><ele>257.0</ele><time>2026-03-22T14:30:22.926Z</time></trkpt><trkpt lat="42.66341333543905" lon="11.25619452072298"><ele>256.6</ele><time>2026-03-22T14:30:25.926Z</time></trkpt><trkpt lat="42.66336240184099" lon="11.256271721263118"><ele>256.2</ele><time>2026-03-22T14:30:26.926Z</time></trkpt><trkpt lat="42.66329306099287" lon="11.256364778913289"><ele>255.8</ele><time>2026-03-22T14:30:27.926Z</time></trkpt><trkpt lat="42.66318678754129" lon="11.256451503446057"><ele>255.4</ele><time>2026-03-22T14:30:28.926Z</time></trkpt><trkpt lat="42.663048644499" lon="11.25652920108772"><ele>255.0</ele><time>2026-03-22T14:30:29.926Z</time></trkpt><trkpt lat="42.662916957068774" lon="11.256610239877062"><ele>255.0</ele><time>2026-03-22T14:30:30.926Z</time></trkpt><trkpt lat="42.662795266411926" lon="11.256704344262927"><ele>255.0</ele><time>2026-03-22T14:30:31.926Z</time></trkpt><trkpt lat="42.66268277324071" lon="11.256819622666994"><ele>255.0</ele><time>2026-03-22T14:30:32.926Z</time></trkpt><trkpt lat="42.66258736966141" lon="11.256965152480849"><ele>255.0</ele><time>2026-03-22T14:30:33.926Z</time></trkpt><trkpt lat="42.662508999323066" lon="11.257128012810112"><ele>254.0</ele><time>2026-03-22T14:30:34.926Z</time></trkpt><trkpt lat="42.66242336375139" lon="11.25728934237013"><ele>253.0</ele><time>2026-03-22T14:30:35.926Z</time></trkpt><trkpt lat="42.662309871187404" lon="11.257442036409712"><ele>252.0</ele><time>2026-03-22T14:30:36.926Z</time></trkpt><trkpt lat="42.66217218075463" lon="11.25758096380977"><ele>252.0</ele><time>2026-03-22T14:30:37.926Z</time></trkpt><trkpt lat="42.66201483263926" lon="11.257708350556326"><ele>252.0</ele><time>2026-03-22T14:30:38.925Z</time></trkpt><trkpt lat="42.66184920675528" lon="11.257829764775801"><ele>252.0</ele><time>2026-03-22T14:30:39.925Z</time></trkpt><trkpt lat="42.66168766292869" lon="11.257946903019816"><ele>249.0</ele><time>2026-03-22T14:30:40.925Z</time></trkpt><trkpt lat="42.6615364521706" lon="11.258057151442634"><ele>246.0</ele><time>2026-03-22T14:30:41.925Z</time></trkpt><trkpt lat="42.66140006607223" lon="11.25816366880098"><ele>243.0</ele><time>2026-03-22T14:30:42.925Z</time></trkpt><trkpt lat="42.66127971087315" lon="11.258268055035488"><ele>243.0</ele><time>2026-03-22T14:30:43.925Z</time></trkpt><trkpt lat="42.66118557144153" lon="11.258388881621608"><ele>243.0</ele><time>2026-03-22T14:30:44.925Z</time></trkpt><trkpt lat="42.66111734987625" lon="11.258537926420068"><ele>243.0</ele><time>2026-03-22T14:30:45.925Z</time></trkpt><trkpt lat="42.661078950382965" lon="11.258701199977123"><ele>243.0</ele><time>2026-03-22T14:30:46.925Z</time></trkpt><trkpt lat="42.661015392000074" lon="11.258880031882308"><ele>243.5</ele><time>2026-03-22T14:30:47.925Z</time></trkpt><trkpt lat="42.661019924040225" lon="11.259078674078486"><ele>244.0</ele><time>2026-03-22T14:30:48.925Z</time></trkpt><trkpt lat="42.66102177673625" lon="11.259275621986296"><ele>244.5</ele><time>2026-03-22T14:30:49.925Z</time></trkpt><trkpt lat="42.661017519368755" lon="11.259455044019465"><ele>245.0</ele><time>2026-03-22T14:30:50.925Z</time></trkpt><trkpt lat="42.6609957114107" lon="11.259627178713751"><ele>245.0</ele><time>2026-03-22T14:30:51.925Z</time></trkpt><trkpt lat="42.66095464095856" lon="11.259766623988734"><ele>245.0</ele><time>2026-03-22T14:30:52.925Z</time></trkpt><trkpt lat="42.660892550703466" lon="11.259867934528263"><ele>245.0</ele><time>2026-03-22T14:30:53.925Z</time></trkpt><trkpt lat="42.6608047822742" lon="11.259958228099485"><ele>245.0</ele><time>2026-03-22T14:30:54.925Z</time></trkpt><trkpt lat="42.66068963613735" lon="11.26002366774809"><ele>245.0</ele><time>2026-03-22T14:30:55.925Z</time></trkpt><trkpt lat="42.66055135355019" lon="11.260084679087042"><ele>243.0</ele><time>2026-03-22T14:30:56.925Z</time></trkpt><trkpt lat="42.66039758148674" lon="11.260139870280064"><ele>241.0</ele><time>2026-03-22T14:30:57.925Z</time></trkpt><trkpt lat="42.66025125388235" lon="11.260196521569965"><ele>239.0</ele><time>2026-03-22T14:30:58.925Z</time></trkpt><trkpt lat="42.6601112962005" lon="11.260257377520453"><ele>239.0</ele><time>2026-03-22T14:30:59.925Z</time></trkpt><trkpt lat="42.65997613531116" lon="11.26033806959158"><ele>239.0</ele><time>2026-03-22T14:31:00.925Z</time></trkpt><trkpt lat="42.65985726740022" lon="11.26045506054876"><ele>239.0</ele><time>2026-03-22T14:31:01.925Z</time></trkpt><trkpt lat="42.659770235390944" lon="11.26058945103942"><ele>239.0</ele><time>2026-03-22T14:31:02.925Z</time></trkpt><trkpt lat="42.659724157865185" lon="11.260786589949529"><ele>238.25</ele><time>2026-03-22T14:31:03.925Z</time></trkpt><trkpt lat="42.65969663527399" lon="11.260967939004303"><ele>237.5</ele><time>2026-03-22T14:31:04.924Z</time></trkpt><trkpt lat="42.65971017619872" lon="11.261162167906487"><ele>236.75</ele><time>2026-03-22T14:31:05.924Z</time></trkpt><trkpt lat="42.6597604681099" lon="11.261341661668542"><ele>236.0</ele><time>2026-03-22T14:31:06.924Z</time></trkpt><trkpt lat="42.65983574363183" lon="11.26149508057218"><ele>236.0</ele><time>2026-03-22T14:31:07.924Z</time></trkpt><trkpt lat="42.65993471976436" lon="11.261622317888568"><ele>236.0</ele><time>2026-03-22T14:31:08.924Z</time></trkpt><trkpt lat="42.660043218728" lon="11.261743088692121"><ele>236.0</ele><time>2026-03-22T14:31:09.927Z</time></trkpt><trkpt lat="42.66016229049984" lon="11.261865743595232"><ele>236.0</ele><time>2026-03-22T14:31:10.927Z</time></trkpt><trkpt lat="42.660285320030006" lon="11.261990554651565"><ele>235.0</ele><time>2026-03-22T14:31:11.927Z</time></trkpt><trkpt lat="42.66041132114922" lon="11.262116979716568"><ele>234.0</ele><time>2026-03-22T14:31:12.926Z</time></trkpt><trkpt lat="42.6605373711549" lon="11.262242751826665"><ele>233.0</ele><time>2026-03-22T14:31:13.927Z</time></trkpt><trkpt lat="42.66066004861508" lon="11.262365158834337"><ele>234.75</ele><time>2026-03-22T14:31:14.927Z</time></trkpt><trkpt lat="42.66077660503383" lon="11.262487273795559"><ele>236.5</ele><time>2026-03-22T14:31:15.926Z</time></trkpt><trkpt lat="42.66088548453539" lon="11.262608734229458"><ele>238.25</ele><time>2026-03-22T14:31:16.927Z</time></trkpt><trkpt lat="42.660969319379156" lon="11.262732752183267"><ele>240.0</ele><time>2026-03-22T14:31:17.926Z</time></trkpt><trkpt lat="42.66102781756031" lon="11.262863371098703"><ele>240.0</ele><time>2026-03-22T14:31:18.926Z</time></trkpt><trkpt lat="42.66105374968884" lon="11.263007349577798"><ele>240.0</ele><time>2026-03-22T14:31:19.926Z</time></trkpt><trkpt lat="42.66106284534428" lon="11.263168099648171"><ele>240.0</ele><time>2026-03-22T14:31:20.926Z</time></trkpt><trkpt lat="42.661073285921624" lon="11.263361760375656"><ele>240.0</ele><time>2026-03-22T14:31:21.926Z</time></trkpt><trkpt lat="42.66108234346373" lon="11.26357676643804"><ele>241.75</ele><time>2026-03-22T14:31:22.926Z</time></trkpt><trkpt lat="42.66109083056111" lon="11.263793441484395"><ele>243.5</ele><time>2026-03-22T14:31:23.926Z</time></trkpt><trkpt lat="42.66109831140128" lon="11.263984427035771"><ele>245.25</ele><time>2026-03-22T14:31:24.926Z</time></trkpt><trkpt lat="42.661100997644205" lon="11.26413384555993"><ele>247.0</ele><time>2026-03-22T14:31:25.926Z</time></trkpt><trkpt lat="42.661101695416136" lon="11.264280455506341"><ele>247.5</ele><time>2026-03-22T14:31:26.926Z</time></trkpt><trkpt lat="42.66109423450009" lon="11.264422004551111"><ele>248.0</ele><time>2026-03-22T14:31:27.926Z</time></trkpt><trkpt lat="42.66106795226916" lon="11.264569205815489"><ele>248.5</ele><time>2026-03-22T14:31:28.926Z</time></trkpt><trkpt lat="42.66102244033891" lon="11.264726782095115"><ele>249.0</ele><time>2026-03-22T14:31:29.926Z</time></trkpt><trkpt lat="42.6609688620705" lon="11.264886714945613"><ele>249.0</ele><time>2026-03-22T14:31:30.926Z</time></trkpt><trkpt lat="42.66081368286079" lon="11.265336010870715"><ele>249.0</ele><time>2026-03-22T14:31:31.926Z</time></trkpt><trkpt lat="42.660755036144366" lon="11.26550849502844"><ele>249.25</ele><time>2026-03-22T14:31:32.925Z</time></trkpt><trkpt lat="42.66069486239608" lon="11.265687233613408"><ele>249.5</ele><time>2026-03-22T14:31:33.925Z</time></trkpt><trkpt lat="42.660632277674466" lon="11.265857491684098"><ele>249.75</ele><time>2026-03-22T14:31:34.925Z</time></trkpt><trkpt lat="42.66055590674692" lon="11.265991068583084"><ele>250.0</ele><time>2026-03-22T14:31:35.925Z</time></trkpt><trkpt lat="42.660471835395406" lon="11.266127999427706"><ele>250.0</ele><time>2026-03-22T14:31:36.925Z</time></trkpt><trkpt lat="42.66039814751601" lon="11.266285554032844"><ele>250.0</ele><time>2026-03-22T14:31:37.925Z</time></trkpt><trkpt lat="42.66035631060158" lon="11.266459599003861"><ele>250.0</ele><time>2026-03-22T14:31:38.925Z</time></trkpt><trkpt lat="42.660363535961466" lon="11.266646337027474"><ele>250.0</ele><time>2026-03-22T14:31:39.925Z</time></trkpt><trkpt lat="42.66040438674648" lon="11.266818097735841"><ele>248.75</ele><time>2026-03-22T14:31:40.925Z</time></trkpt><trkpt lat="42.66045582867844" lon="11.266984518472032"><ele>247.5</ele><time>2026-03-22T14:31:41.925Z</time></trkpt><trkpt lat="42.66053375888764" lon="11.267147732980694"><ele>246.25</ele><time>2026-03-22T14:31:42.925Z</time></trkpt><trkpt lat="42.660622945754305" lon="11.267322502779084"><ele>245.0</ele><time>2026-03-22T14:31:43.925Z</time></trkpt><trkpt lat="42.660708042347345" lon="11.267501334286552"><ele>245.0</ele><time>2026-03-22T14:31:44.925Z</time></trkpt><trkpt lat="42.66078461764584" lon="11.267673676013022"><ele>245.0</ele><time>2026-03-22T14:31:45.925Z</time></trkpt><trkpt lat="42.6608678480523" lon="11.267833303144982"><ele>245.0</ele><time>2026-03-22T14:31:46.925Z</time></trkpt><trkpt lat="42.66093744563528" lon="11.267997276299981"><ele>245.0</ele><time>2026-03-22T14:31:47.925Z</time></trkpt><trkpt lat="42.660966435602425" lon="11.268168503476607"><ele>244.50000000000003</ele><time>2026-03-22T14:31:48.925Z</time></trkpt><trkpt lat="42.6609627468956" lon="11.268327099868893"><ele>244.0</ele><time>2026-03-22T14:31:49.925Z</time></trkpt><trkpt lat="42.660935223835956" lon="11.268438165390368"><ele>243.5</ele><time>2026-03-22T14:31:50.925Z</time></trkpt><trkpt lat="42.66090214747187" lon="11.268521932505202"><ele>243.0</ele><time>2026-03-22T14:31:51.925Z</time></trkpt><trkpt lat="42.66085622779727" lon="11.268587181900433"><ele>242.50000000000003</ele><time>2026-03-22T14:31:52.925Z</time></trkpt><trkpt lat="42.6607989746043" lon="11.268656494710656"><ele>242.0</ele><time>2026-03-22T14:31:53.925Z</time></trkpt><trkpt lat="42.66072496881268" lon="11.268731922977029"><ele>242.0</ele><time>2026-03-22T14:31:54.925Z</time></trkpt><trkpt lat="42.660652847491114" lon="11.268797621768838"><ele>242.0</ele><time>2026-03-22T14:31:55.925Z</time></trkpt><trkpt lat="42.66057216479654" lon="11.268862663129935"><ele>242.0</ele><time>2026-03-22T14:31:56.925Z</time></trkpt><trkpt lat="42.66048194484982" lon="11.268934734470012"><ele>242.0</ele><time>2026-03-22T14:31:57.924Z</time></trkpt><trkpt lat="42.660384187700444" lon="11.269024549684818"><ele>242.0</ele><time>2026-03-22T14:31:58.924Z</time></trkpt><trkpt lat="42.660289912542424" lon="11.269126394225252"><ele>241.75</ele><time>2026-03-22T14:31:59.924Z</time></trkpt><trkpt lat="42.66020770490888" lon="11.26925155972135"><ele>241.5</ele><time>2026-03-22T14:32:00.924Z</time></trkpt><trkpt lat="42.66014295383524" lon="11.269400810929374"><ele>241.25</ele><time>2026-03-22T14:32:01.924Z</time></trkpt><trkpt lat="42.66010626077401" lon="11.269571164205965"><ele>241.0</ele><time>2026-03-22T14:32:02.924Z</time></trkpt><trkpt lat="42.66010264688162" lon="11.269757922973163"><ele>240.5</ele><time>2026-03-22T14:32:03.924Z</time></trkpt><trkpt lat="42.66013086678891" lon="11.26994226273452"><ele>240.0</ele><time>2026-03-22T14:32:04.924Z</time></trkpt><trkpt lat="42.660189077956474" lon="11.270098148571815"><ele>239.5</ele><time>2026-03-22T14:32:05.924Z</time></trkpt><trkpt lat="42.660271872445215" lon="11.270196875621183"><ele>239.0</ele><time>2026-03-22T14:32:06.924Z</time></trkpt><trkpt lat="42.6603294558619" lon="11.270285296578436"><ele>239.0</ele><time>2026-03-22T14:32:07.924Z</time></trkpt><trkpt lat="42.660353906247515" lon="11.27037822333168"><ele>238.99999999999997</ele><time>2026-03-22T14:32:09.924Z</time></trkpt><trkpt lat="42.66023119123054" lon="11.270405004036027"><ele>238.99999999999997</ele><time>2026-03-22T14:32:10.924Z</time></trkpt><trkpt lat="42.66016756028951" lon="11.270468264646553"><ele>239.0</ele><time>2026-03-22T14:32:11.924Z</time></trkpt><trkpt lat="42.66008681982377" lon="11.27054282948674"><ele>239.0</ele><time>2026-03-22T14:32:12.924Z</time></trkpt><trkpt lat="42.65998916811176" lon="11.27062437011797"><ele>237.66666666666669</ele><time>2026-03-22T14:32:13.924Z</time></trkpt><trkpt lat="42.65987421868351" lon="11.270718627720582"><ele>236.33333333333331</ele><time>2026-03-22T14:32:14.924Z</time></trkpt><trkpt lat="42.6597399831295" lon="11.270827968825293"><ele>235.0</ele><time>2026-03-22T14:32:15.924Z</time></trkpt><trkpt lat="42.65960235362051" lon="11.270935935543733"><ele>235.0</ele><time>2026-03-22T14:32:16.924Z</time></trkpt><trkpt lat="42.65946592539973" lon="11.27104262087767"><ele>235.0</ele><time>2026-03-22T14:32:17.924Z</time></trkpt><trkpt lat="42.659331920073505" lon="11.271141535600798"><ele>235.0</ele><time>2026-03-22T14:32:18.924Z</time></trkpt><trkpt lat="42.65918967508" lon="11.271223753917523"><ele>235.0</ele><time>2026-03-22T14:32:19.924Z</time></trkpt><trkpt lat="42.65905347110094" lon="11.271288810367569"><ele>235.0</ele><time>2026-03-22T14:32:20.924Z</time></trkpt><trkpt lat="42.65892050925" lon="11.271346692342489"><ele>235.0</ele><time>2026-03-22T14:32:21.924Z</time></trkpt><trkpt lat="42.658796427004376" lon="11.271402870583104"><ele>235.0</ele><time>2026-03-22T14:32:22.924Z</time></trkpt><trkpt lat="42.65866457835227" lon="11.271469123050684"><ele>232.0</ele><time>2026-03-22T14:32:23.923Z</time></trkpt><trkpt lat="42.65853949636635" lon="11.271557814315459"><ele>229.0</ele><time>2026-03-22T14:32:24.923Z</time></trkpt><trkpt lat="42.658427268695945" lon="11.271668777970035"><ele>226.0</ele><time>2026-03-22T14:32:25.923Z</time></trkpt><trkpt lat="42.65832994860306" lon="11.271795192114777"><ele>223.0</ele><time>2026-03-22T14:32:26.923Z</time></trkpt><trkpt lat="42.658235687752786" lon="11.271909587148503"><ele>222.99999999999997</ele><time>2026-03-22T14:32:27.923Z</time></trkpt><trkpt lat="42.658153286781875" lon="11.271996585718638"><ele>223.0</ele><time>2026-03-22T14:32:28.923Z</time></trkpt><trkpt lat="42.65807872966044" lon="11.272007943112806"><ele>223.0</ele><time>2026-03-22T14:32:29.923Z</time></trkpt><trkpt lat="42.65801162312151" lon="11.271996935949888"><ele>223.0</ele><time>2026-03-22T14:32:30.923Z</time></trkpt><trkpt lat="42.657939692604224" lon="11.27197923717752"><ele>222.99999999999997</ele><time>2026-03-22T14:32:31.923Z</time></trkpt><trkpt lat="42.6578390521474" lon="11.271954243680005"><ele>223.0</ele><time>2026-03-22T14:32:32.923Z</time></trkpt><trkpt lat="42.65772214343048" lon="11.271942710217221"><ele>222.0</ele><time>2026-03-22T14:32:33.923Z</time></trkpt><trkpt lat="42.65760468404601" lon="11.271890760581027"><ele>221.0</ele><time>2026-03-22T14:32:34.923Z</time></trkpt><trkpt lat="42.657477438758846" lon="11.271857298770527"><ele>220.0</ele><time>2026-03-22T14:32:35.923Z</time></trkpt><trkpt lat="42.657349202328284" lon="11.271840371331383"><ele>219.0</ele><time>2026-03-22T14:32:36.923Z</time></trkpt><trkpt lat="42.657213232163066" lon="11.27182458651194"><ele>219.0</ele><time>2026-03-22T14:32:37.923Z</time></trkpt><trkpt lat="42.65707532673023" lon="11.271823347323128"><ele>219.0</ele><time>2026-03-22T14:32:38.923Z</time></trkpt><trkpt lat="42.6569267250253" lon="11.27180534205959"><ele>219.0</ele><time>2026-03-22T14:32:39.923Z</time></trkpt><trkpt lat="42.65677083816105" lon="11.271827812013605"><ele>219.0</ele><time>2026-03-22T14:32:40.923Z</time></trkpt><trkpt lat="42.6566196567729" lon="11.271883824814985"><ele>219.0</ele><time>2026-03-22T14:32:41.923Z</time></trkpt><trkpt lat="42.6564765671534" lon="11.271946107268827"><ele>219.0</ele><time>2026-03-22T14:32:42.923Z</time></trkpt><trkpt lat="42.65633328575959" lon="11.272016396218797"><ele>219.0</ele><time>2026-03-22T14:32:43.923Z</time></trkpt><trkpt lat="42.65619925192636" lon="11.27208243529231"><ele>219.0</ele><time>2026-03-22T14:32:44.923Z</time></trkpt><trkpt lat="42.65607292036908" lon="11.272144555752453"><ele>219.0</ele><time>2026-03-22T14:32:45.923Z</time></trkpt><trkpt lat="42.65595281281528" lon="11.272201956510617"><ele>219.0</ele><time>2026-03-22T14:32:46.923Z</time></trkpt><trkpt lat="42.65584387522055" lon="11.272251710343177"><ele>219.0</ele><time>2026-03-22T14:32:47.923Z</time></trkpt><trkpt lat="42.65572986043384" lon="11.2722886023684"><ele>219.0</ele><time>2026-03-22T14:32:48.923Z</time></trkpt><trkpt lat="42.655620688487375" lon="11.272289574168044"><ele>219.0</ele><time>2026-03-22T14:32:49.922Z</time></trkpt><trkpt lat="42.65551617996526" lon="11.272266824256446"><ele>218.99999999999997</ele><time>2026-03-22T14:32:50.922Z</time></trkpt><trkpt lat="42.65541958097708" lon="11.27225841877186"><ele>218.99999999999997</ele><time>2026-03-22T14:32:51.922Z</time></trkpt><trkpt lat="42.655325904666526" lon="11.272225059217824"><ele>219.0</ele><time>2026-03-22T14:32:52.922Z</time></trkpt><trkpt lat="42.6552276293632" lon="11.27219279556364"><ele>219.0</ele><time>2026-03-22T14:32:53.922Z</time></trkpt><trkpt lat="42.65512093300212" lon="11.272160316534189"><ele>219.75</ele><time>2026-03-22T14:32:54.922Z</time></trkpt><trkpt lat="42.65500315514018" lon="11.272130712061399"><ele>220.5</ele><time>2026-03-22T14:32:55.922Z</time></trkpt><trkpt lat="42.654879462460464" lon="11.272106127448511"><ele>221.25</ele><time>2026-03-22T14:32:56.922Z</time></trkpt><trkpt lat="42.654749689634826" lon="11.272078472059837"><ele>222.0</ele><time>2026-03-22T14:32:57.922Z</time></trkpt><trkpt lat="42.65462421885463" lon="11.272056621657956"><ele>222.0</ele><time>2026-03-22T14:32:58.922Z</time></trkpt><trkpt lat="42.65450704435095" lon="11.272016120786864"><ele>222.0</ele><time>2026-03-22T14:32:59.922Z</time></trkpt><trkpt lat="42.654398856661956" lon="11.271995420113317"><ele>222.0</ele><time>2026-03-22T14:33:00.922Z</time></trkpt><trkpt lat="42.654289855636" lon="11.27197456343128"><ele>222.0</ele><time>2026-03-22T14:33:01.922Z</time></trkpt><trkpt lat="42.65416825359053" lon="11.271948596881876"><ele>221.25</ele><time>2026-03-22T14:33:02.922Z</time></trkpt><trkpt lat="42.654046145527076" lon="11.27193422180801"><ele>220.5</ele><time>2026-03-22T14:33:03.922Z</time></trkpt><trkpt lat="42.65392820599715" lon="11.271916037350126"><ele>219.75</ele><time>2026-03-22T14:33:04.922Z</time></trkpt><trkpt lat="42.65380763336148" lon="11.27189609189679"><ele>219.0</ele><time>2026-03-22T14:33:05.922Z</time></trkpt><trkpt lat="42.65367172716276" lon="11.271919379936733"><ele>219.66666666666669</ele><time>2026-03-22T14:33:06.922Z</time></trkpt><trkpt lat="42.653538004598055" lon="11.271972712004333"><ele>220.33333333333334</ele><time>2026-03-22T14:33:07.922Z</time></trkpt><trkpt lat="42.653378339136644" lon="11.271996604632061"><ele>221.0</ele><time>2026-03-22T14:33:08.922Z</time></trkpt><trkpt lat="42.65322170659884" lon="11.27200804507965"><ele>221.0</ele><time>2026-03-22T14:33:09.922Z</time></trkpt><trkpt lat="42.65308286974979" lon="11.272032397646806"><ele>221.0</ele><time>2026-03-22T14:33:10.922Z</time></trkpt><trkpt lat="42.652944203467726" lon="11.272048452669546"><ele>221.0</ele><time>2026-03-22T14:33:11.922Z</time></trkpt><trkpt lat="42.65282434657144" lon="11.272070009350516"><ele>221.0</ele><time>2026-03-22T14:33:12.922Z</time></trkpt><trkpt lat="42.652710712050215" lon="11.272107357152791"><ele>219.75</ele><time>2026-03-22T14:33:13.922Z</time></trkpt><trkpt lat="42.65259317924794" lon="11.272149936848706"><ele>218.5</ele><time>2026-03-22T14:33:14.922Z</time></trkpt><trkpt lat="42.652473756240255" lon="11.272227537428005"><ele>217.25</ele><time>2026-03-22T14:33:15.925Z</time></trkpt><trkpt lat="42.65236491257255" lon="11.272319390499556"><ele>216.0</ele><time>2026-03-22T14:33:16.924Z</time></trkpt><trkpt lat="42.652256399795704" lon="11.272440461481493"><ele>215.75</ele><time>2026-03-22T14:33:17.924Z</time></trkpt><trkpt lat="42.652132315846025" lon="11.272523701973292"><ele>215.5</ele><time>2026-03-22T14:33:18.924Z</time></trkpt><trkpt lat="42.65201712356048" lon="11.272561567181071"><ele>215.25</ele><time>2026-03-22T14:33:19.925Z</time></trkpt><trkpt lat="42.65189766853296" lon="11.272558297774122"><ele>215.0</ele><time>2026-03-22T14:33:20.924Z</time></trkpt><trkpt lat="42.651794700959705" lon="11.272524456019442"><ele>213.75</ele><time>2026-03-22T14:33:21.924Z</time></trkpt><trkpt lat="42.65166248625606" lon="11.272501499672105"><ele>212.5</ele><time>2026-03-22T14:33:22.924Z</time></trkpt><trkpt lat="42.651525741002395" lon="11.272471361994624"><ele>211.25</ele><time>2026-03-22T14:33:23.924Z</time></trkpt><trkpt lat="42.6513913588713" lon="11.272445674129564"><ele>210.0</ele><time>2026-03-22T14:33:24.924Z</time></trkpt><trkpt lat="42.65124954914485" lon="11.272433491605168"><ele>208.75</ele><time>2026-03-22T14:33:25.924Z</time></trkpt><trkpt lat="42.65110617027705" lon="11.272416670069212"><ele>207.5</ele><time>2026-03-22T14:33:26.924Z</time></trkpt><trkpt lat="42.65096644155589" lon="11.272392964681929"><ele>206.25</ele><time>2026-03-22T14:33:27.925Z</time></trkpt><trkpt lat="42.650835515134744" lon="11.272362115397748"><ele>205.0</ele><time>2026-03-22T14:33:28.924Z</time></trkpt><trkpt lat="42.65070103512588" lon="11.272343071873737"><ele>205.0</ele><time>2026-03-22T14:33:29.924Z</time></trkpt><trkpt lat="42.65056772842096" lon="11.272324089306867"><ele>205.0</ele><time>2026-03-22T14:33:30.924Z</time></trkpt><trkpt lat="42.650440265603734" lon="11.272302706676385"><ele>205.0</ele><time>2026-03-22T14:33:31.924Z</time></trkpt><trkpt lat="42.6503127297939" lon="11.272284463289976"><ele>205.0</ele><time>2026-03-22T14:33:32.924Z</time></trkpt><trkpt lat="42.65019012046982" lon="11.272295356183694"><ele>203.5</ele><time>2026-03-22T14:33:33.924Z</time></trkpt><trkpt lat="42.65005529410327" lon="11.272288233053333"><ele>202.0</ele><time>2026-03-22T14:33:34.924Z</time></trkpt><trkpt lat="42.64991628774971" lon="11.272317912727386"><ele>200.5</ele><time>2026-03-22T14:33:35.924Z</time></trkpt><trkpt lat="42.649774304589215" lon="11.272372325307773"><ele>199.0</ele><time>2026-03-22T14:33:36.924Z</time></trkpt><trkpt lat="42.649636664017436" lon="11.272398270441485"><ele>199.0</ele><time>2026-03-22T14:33:37.924Z</time></trkpt><trkpt lat="42.649505428606425" lon="11.272429178667354"><ele>199.0</ele><time>2026-03-22T14:33:38.924Z</time></trkpt><trkpt lat="42.64940124447277" lon="11.27244093596735"><ele>199.0</ele><time>2026-03-22T14:33:39.924Z</time></trkpt><trkpt lat="42.64930168989594" lon="11.272426337953865"><ele>199.0</ele><time>2026-03-22T14:33:40.924Z</time></trkpt><trkpt lat="42.64920804864983" lon="11.27237442257122"><ele>199.0</ele><time>2026-03-22T14:33:41.924Z</time></trkpt><trkpt lat="42.64911875993146" lon="11.272290013255313"><ele>198.5</ele><time>2026-03-22T14:33:42.924Z</time></trkpt><trkpt lat="42.64902372635014" lon="11.27221285339343"><ele>198.0</ele><time>2026-03-22T14:33:43.924Z</time></trkpt><trkpt lat="42.64891747091148" lon="11.272153650422034"><ele>197.5</ele><time>2026-03-22T14:33:44.924Z</time></trkpt><trkpt lat="42.648802649196796" lon="11.272126803592505"><ele>197.0</ele><time>2026-03-22T14:33:45.924Z</time></trkpt><trkpt lat="42.64868884445713" lon="11.272123365773929"><ele>197.39999999999998</ele><time>2026-03-22T14:33:46.924Z</time></trkpt><trkpt lat="42.64857780474785" lon="11.272144022871965"><ele>197.79999999999998</ele><time>2026-03-22T14:33:47.924Z</time></trkpt><trkpt lat="42.64847114627517" lon="11.272159789603696"><ele>198.2</ele><time>2026-03-22T14:33:48.923Z</time></trkpt><trkpt lat="42.6483754036212" lon="11.272203901864108"><ele>198.6</ele><time>2026-03-22T14:33:49.923Z</time></trkpt><trkpt lat="42.648284580639" lon="11.272266541469303"><ele>199.0</ele><time>2026-03-22T14:33:50.923Z</time></trkpt><trkpt lat="42.64821768078072" lon="11.27233908989119"><ele>199.0</ele><time>2026-03-22T14:33:51.923Z</time></trkpt><trkpt lat="42.64816925224078" lon="11.272483458202585"><ele>199.0</ele><time>2026-03-22T14:33:52.923Z</time></trkpt><trkpt lat="42.64815229978818" lon="11.272616744592156"><ele>199.0</ele><time>2026-03-22T14:33:53.923Z</time></trkpt><trkpt lat="42.64811471143983" lon="11.272693735207323"><ele>199.0</ele><time>2026-03-22T14:33:54.923Z</time></trkpt><trkpt lat="42.64798250344632" lon="11.272726202235598"><ele>199.0</ele><time>2026-03-22T14:33:56.923Z</time></trkpt><trkpt lat="42.64787162430438" lon="11.272720887481897"><ele>200.25</ele><time>2026-03-22T14:33:57.923Z</time></trkpt><trkpt lat="42.64774170686359" lon="11.272685961398103"><ele>201.5</ele><time>2026-03-22T14:33:58.923Z</time></trkpt><trkpt lat="42.647613778354994" lon="11.272653464148974"><ele>202.75</ele><time>2026-03-22T14:33:59.923Z</time></trkpt><trkpt lat="42.64747961759242" lon="11.272668870596315"><ele>204.0</ele><time>2026-03-22T14:34:00.923Z</time></trkpt><trkpt lat="42.647339615126555" lon="11.27271921875518"><ele>204.0</ele><time>2026-03-22T14:34:01.923Z</time></trkpt><trkpt lat="42.64720009596279" lon="11.27277885262834"><ele>204.0</ele><time>2026-03-22T14:34:02.923Z</time></trkpt><trkpt lat="42.64705790795693" lon="11.272839627076142"><ele>204.0</ele><time>2026-03-22T14:34:03.923Z</time></trkpt><trkpt lat="42.64690499115638" lon="11.272917886389573"><ele>207.0</ele><time>2026-03-22T14:34:04.923Z</time></trkpt><trkpt lat="42.646763429409475" lon="11.27301309220264"><ele>210.0</ele><time>2026-03-22T14:34:05.923Z</time></trkpt><trkpt lat="42.64662251809535" lon="11.273111352896365"><ele>213.0</ele><time>2026-03-22T14:34:06.923Z</time></trkpt><trkpt lat="42.64649678235449" lon="11.27320197732123"><ele>213.75</ele><time>2026-03-22T14:34:07.923Z</time></trkpt><trkpt lat="42.64635636900431" lon="11.273305809919803"><ele>214.5</ele><time>2026-03-22T14:34:08.923Z</time></trkpt><trkpt lat="42.64623159086875" lon="11.273397084156016"><ele>215.25</ele><time>2026-03-22T14:34:09.923Z</time></trkpt><trkpt lat="42.646110802267096" lon="11.273480232626722"><ele>216.0</ele><time>2026-03-22T14:34:10.923Z</time></trkpt><trkpt lat="42.64599145838066" lon="11.27353866610393"><ele>216.60000000000002</ele><time>2026-03-22T14:34:11.923Z</time></trkpt><trkpt lat="42.64588723514901" lon="11.273548840712138"><ele>217.20000000000002</ele><time>2026-03-22T14:34:12.923Z</time></trkpt><trkpt lat="42.64580073779083" lon="11.273517620621814"><ele>217.79999999999998</ele><time>2026-03-22T14:34:13.923Z</time></trkpt><trkpt lat="42.645727976810434" lon="11.273439679642042"><ele>218.39999999999998</ele><time>2026-03-22T14:34:14.922Z</time></trkpt><trkpt lat="42.64566127469412" lon="11.273319567413518"><ele>219.0</ele><time>2026-03-22T14:34:15.922Z</time></trkpt><trkpt lat="42.645612112255" lon="11.273167454488307"><ele>219.39999999999998</ele><time>2026-03-22T14:34:16.922Z</time></trkpt><trkpt lat="42.64557363247496" lon="11.273030912483152"><ele>219.79999999999998</ele><time>2026-03-22T14:34:17.922Z</time></trkpt><trkpt lat="42.645516117449525" lon="11.272923764032457"><ele>220.20000000000002</ele><time>2026-03-22T14:34:18.922Z</time></trkpt><trkpt lat="42.64540342278482" lon="11.272862895567108"><ele>220.60000000000002</ele><time>2026-03-22T14:34:20.922Z</time></trkpt><trkpt lat="42.64530773638676" lon="11.272893525519931"><ele>221.0</ele><time>2026-03-22T14:34:21.922Z</time></trkpt><trkpt lat="42.64522842790208" lon="11.272980196124875"><ele>223.5</ele><time>2026-03-22T14:34:22.922Z</time></trkpt><trkpt lat="42.645153978572296" lon="11.273133926522336"><ele>226.0</ele><time>2026-03-22T14:34:23.922Z</time></trkpt><trkpt lat="42.645075620458265" lon="11.273296521545833"><ele>228.5</ele><time>2026-03-22T14:34:24.922Z</time></trkpt><trkpt lat="42.64500027278704" lon="11.27346652493766"><ele>231.0</ele><time>2026-03-22T14:34:25.922Z</time></trkpt><trkpt lat="42.64494103616062" lon="11.273663990371176"><ele>231.0</ele><time>2026-03-22T14:34:26.922Z</time></trkpt><trkpt lat="42.644899332533996" lon="11.273888765938603"><ele>231.0</ele><time>2026-03-22T14:34:27.922Z</time></trkpt><trkpt lat="42.64487099813679" lon="11.274076609409653"><ele>231.0</ele><time>2026-03-22T14:34:28.922Z</time></trkpt><trkpt lat="42.64483034205597" lon="11.27424706803656"><ele>231.0</ele><time>2026-03-22T14:34:29.922Z</time></trkpt><trkpt lat="42.64476923721602" lon="11.274408308611674"><ele>230.5</ele><time>2026-03-22T14:34:30.922Z</time></trkpt><trkpt lat="42.64469484863556" lon="11.27457713313731"><ele>230.0</ele><time>2026-03-22T14:34:31.922Z</time></trkpt><trkpt lat="42.64462711279064" lon="11.274711520676435"><ele>229.5</ele><time>2026-03-22T14:34:32.922Z</time></trkpt><trkpt lat="42.64455415480535" lon="11.274832179197661"><ele>229.0</ele><time>2026-03-22T14:34:33.922Z</time></trkpt><trkpt lat="42.644475255364235" lon="11.274926936337764"><ele>231.39999999999998</ele><time>2026-03-22T14:34:34.922Z</time></trkpt><trkpt lat="42.644384239818976" lon="11.275012313277834"><ele>233.79999999999998</ele><time>2026-03-22T14:34:35.922Z</time></trkpt><trkpt lat="42.644287518173044" lon="11.275067789235075"><ele>236.20000000000002</ele><time>2026-03-22T14:34:36.922Z</time></trkpt><trkpt lat="42.644179093735715" lon="11.275099151930064"><ele>238.60000000000002</ele><time>2026-03-22T14:34:37.922Z</time></trkpt><trkpt lat="42.64408427866975" lon="11.275117659605751"><ele>241.0</ele><time>2026-03-22T14:34:38.922Z</time></trkpt><trkpt lat="42.64401812619383" lon="11.275125868076948"><ele>240.99999999999997</ele><time>2026-03-22T14:34:39.922Z</time></trkpt><trkpt lat="42.6439070790601" lon="11.275131813466198"><ele>241.0</ele><time>2026-03-22T14:34:41.921Z</time></trkpt><trkpt lat="42.64383904383419" lon="11.275120094680814"><ele>241.0</ele><time>2026-03-22T14:34:42.921Z</time></trkpt><trkpt lat="42.64376844663058" lon="11.275092415794028"><ele>241.0</ele><time>2026-03-22T14:34:43.921Z</time></trkpt><trkpt lat="42.64369079799544" lon="11.275062653798932"><ele>240.99999999999997</ele><time>2026-03-22T14:34:44.921Z</time></trkpt><trkpt lat="42.64361629785233" lon="11.274998045399725"><ele>241.0</ele><time>2026-03-22T14:34:45.921Z</time></trkpt><trkpt lat="42.643537159125955" lon="11.274922983112582"><ele>241.20000000000002</ele><time>2026-03-22T14:34:46.921Z</time></trkpt><trkpt lat="42.64345677747889" lon="11.2748398658682"><ele>241.40000000000003</ele><time>2026-03-22T14:34:47.921Z</time></trkpt><trkpt lat="42.64337813341653" lon="11.274741117749052"><ele>241.6</ele><time>2026-03-22T14:34:48.921Z</time></trkpt><trkpt lat="42.64330799467551" lon="11.274627247957323"><ele>241.8</ele><time>2026-03-22T14:34:49.921Z</time></trkpt><trkpt lat="42.643248920785965" lon="11.274516946766182"><ele>242.0</ele><time>2026-03-22T14:34:50.921Z</time></trkpt><trkpt lat="42.64319578401706" lon="11.27440312077874"><ele>243.0</ele><time>2026-03-22T14:34:51.921Z</time></trkpt><trkpt lat="42.64315725690321" lon="11.274286830925114"><ele>244.0</ele><time>2026-03-22T14:34:52.921Z</time></trkpt><trkpt lat="42.64313351242845" lon="11.27416154068024"><ele>245.0</ele><time>2026-03-22T14:34:53.921Z</time></trkpt><trkpt lat="42.64311952917974" lon="11.274021973519172"><ele>246.0</ele><time>2026-03-22T14:34:54.921Z</time></trkpt><trkpt lat="42.64311789869506" lon="11.273871321097099"><ele>247.0</ele><time>2026-03-22T14:34:55.921Z</time></trkpt><trkpt lat="42.64311137368062" lon="11.273724747583408"><ele>247.0</ele><time>2026-03-22T14:34:56.921Z</time></trkpt><trkpt lat="42.64307564176682" lon="11.273585678901407"><ele>247.0</ele><time>2026-03-22T14:34:57.921Z</time></trkpt><trkpt lat="42.64301025464556" lon="11.273475432729215"><ele>247.0</ele><time>2026-03-22T14:34:58.921Z</time></trkpt><trkpt lat="42.64292863184762" lon="11.27339956434683"><ele>247.0</ele><time>2026-03-22T14:34:59.921Z</time></trkpt><trkpt lat="42.64283675140692" lon="11.273332768931004"><ele>247.0</ele><time>2026-03-22T14:35:00.921Z</time></trkpt><trkpt lat="42.64273673385917" lon="11.273267519930936"><ele>245.25</ele><time>2026-03-22T14:35:01.921Z</time></trkpt><trkpt lat="42.6426202350575" lon="11.273213571290364"><ele>243.5</ele><time>2026-03-22T14:35:02.921Z</time></trkpt><trkpt lat="42.64249590579244" lon="11.273162946767613"><ele>241.75</ele><time>2026-03-22T14:35:03.921Z</time></trkpt><trkpt lat="42.64236361502688" lon="11.273111529289489"><ele>240.0</ele><time>2026-03-22T14:35:04.921Z</time></trkpt><trkpt lat="42.64221991405089" lon="11.27310724768291"><ele>240.0</ele><time>2026-03-22T14:35:05.921Z</time></trkpt><trkpt lat="42.6420731450722" lon="11.273126065497689"><ele>240.0</ele><time>2026-03-22T14:35:06.92Z</time></trkpt><trkpt lat="42.64193306421217" lon="11.27314166629065"><ele>240.0</ele><time>2026-03-22T14:35:07.92Z</time></trkpt><trkpt lat="42.64179463373776" lon="11.273139849640158"><ele>240.0</ele><time>2026-03-22T14:35:08.92Z</time></trkpt><trkpt lat="42.64165553057868" lon="11.273148857799018"><ele>240.25</ele><time>2026-03-22T14:35:09.92Z</time></trkpt><trkpt lat="42.64152059358246" lon="11.273124488217631"><ele>240.5</ele><time>2026-03-22T14:35:10.92Z</time></trkpt><trkpt lat="42.64139547695181" lon="11.273083289777343"><ele>240.75</ele><time>2026-03-22T14:35:11.92Z</time></trkpt><trkpt lat="42.64127448633577" lon="11.273022741988514"><ele>241.0</ele><time>2026-03-22T14:35:12.92Z</time></trkpt><trkpt lat="42.64114607943939" lon="11.272949966839533"><ele>240.75</ele><time>2026-03-22T14:35:13.92Z</time></trkpt><trkpt lat="42.6410134532472" lon="11.272864751075982"><ele>240.5</ele><time>2026-03-22T14:35:14.92Z</time></trkpt><trkpt lat="42.64088381093201" lon="11.272772590504786"><ele>240.25</ele><time>2026-03-22T14:35:15.92Z</time></trkpt><trkpt lat="42.64077627928589" lon="11.272672132009811"><ele>240.0</ele><time>2026-03-22T14:35:16.92Z</time></trkpt><trkpt lat="42.64070092206483" lon="11.272593425272632"><ele>240.0</ele><time>2026-03-22T14:35:17.92Z</time></trkpt><trkpt lat="42.64060740718797" lon="11.272528166383722"><ele>240.0</ele><time>2026-03-22T14:35:19.92Z</time></trkpt><trkpt lat="42.640480104052884" lon="11.272542171136369"><ele>240.0</ele><time>2026-03-22T14:35:21.922Z</time></trkpt><trkpt lat="42.64040178701426" lon="11.272612127340084"><ele>240.0</ele><time>2026-03-22T14:35:22.923Z</time></trkpt><trkpt lat="42.64030737655796" lon="11.272701356399335"><ele>240.0</ele><time>2026-03-22T14:35:23.922Z</time></trkpt><trkpt lat="42.640199011771635" lon="11.272810785321228"><ele>240.75</ele><time>2026-03-22T14:35:24.922Z</time></trkpt><trkpt lat="42.64009189362553" lon="11.272922327814756"><ele>241.5</ele><time>2026-03-22T14:35:25.922Z</time></trkpt><trkpt lat="42.63998098158644" lon="11.27303971035216"><ele>242.25</ele><time>2026-03-22T14:35:26.922Z</time></trkpt><trkpt lat="42.63987028141903" lon="11.273150326680385"><ele>243.0</ele><time>2026-03-22T14:35:27.922Z</time></trkpt><trkpt lat="42.639762628774776" lon="11.27325077602515"><ele>241.5</ele><time>2026-03-22T14:35:28.922Z</time></trkpt><trkpt lat="42.63966228720414" lon="11.273324720781591"><ele>240.0</ele><time>2026-03-22T14:35:29.922Z</time></trkpt><trkpt lat="42.63954954017351" lon="11.273385008888473"><ele>238.5</ele><time>2026-03-22T14:35:30.922Z</time></trkpt><trkpt lat="42.63941972525136" lon="11.273449216794692"><ele>237.0</ele><time>2026-03-22T14:35:31.922Z</time></trkpt><trkpt lat="42.639284530245924" lon="11.273516827495952"><ele>237.0</ele><time>2026-03-22T14:35:32.922Z</time></trkpt><trkpt lat="42.639151551686716" lon="11.273598133136337"><ele>237.0</ele><time>2026-03-22T14:35:33.922Z</time></trkpt><trkpt lat="42.639015628569744" lon="11.273708897785829"><ele>237.0</ele><time>2026-03-22T14:35:34.922Z</time></trkpt><trkpt lat="42.638885037768745" lon="11.273835548212116"><ele>236.0</ele><time>2026-03-22T14:35:35.922Z</time></trkpt><trkpt lat="42.63875656541413" lon="11.273963843502285"><ele>235.0</ele><time>2026-03-22T14:35:36.922Z</time></trkpt><trkpt lat="42.63863194145768" lon="11.274088037523052"><ele>234.0</ele><time>2026-03-22T14:35:37.922Z</time></trkpt><trkpt lat="42.638506008474735" lon="11.274212060917897"><ele>232.66666666666669</ele><time>2026-03-22T14:35:38.922Z</time></trkpt><trkpt lat="42.63838012087584" lon="11.274336695255036"><ele>231.33333333333334</ele><time>2026-03-22T14:35:39.922Z</time></trkpt><trkpt lat="42.6382572919043" lon="11.27446171324309"><ele>230.0</ele><time>2026-03-22T14:35:40.922Z</time></trkpt><trkpt lat="42.63813645357994" lon="11.27458592907195"><ele>230.0</ele><time>2026-03-22T14:35:41.922Z</time></trkpt><trkpt lat="42.63801974658141" lon="11.274702687360765"><ele>230.0</ele><time>2026-03-22T14:35:42.922Z</time></trkpt><trkpt lat="42.63790553919798" lon="11.274816944684844"><ele>230.0</ele><time>2026-03-22T14:35:43.922Z</time></trkpt><trkpt lat="42.63779145449112" lon="11.274931079589704"><ele>230.0</ele><time>2026-03-22T14:35:44.922Z</time></trkpt><trkpt lat="42.63767930155146" lon="11.275041998314213"><ele>229.0</ele><time>2026-03-22T14:35:45.922Z</time></trkpt><trkpt lat="42.637564368570416" lon="11.27515382977701"><ele>228.0</ele><time>2026-03-22T14:35:46.922Z</time></trkpt><trkpt lat="42.63745333572245" lon="11.275261866202179"><ele>227.0</ele><time>2026-03-22T14:35:47.922Z</time></trkpt><trkpt lat="42.63734645731003" lon="11.275370125669566"><ele>226.0</ele><time>2026-03-22T14:35:48.922Z</time></trkpt><trkpt lat="42.637257260662324" lon="11.275485127505021"><ele>224.25</ele><time>2026-03-22T14:35:49.922Z</time></trkpt><trkpt lat="42.63719866634102" lon="11.275654697705114"><ele>222.5</ele><time>2026-03-22T14:35:50.922Z</time></trkpt><trkpt lat="42.63717711461849" lon="11.275822776215817"><ele>220.75</ele><time>2026-03-22T14:35:51.922Z</time></trkpt><trkpt lat="42.63717131953253" lon="11.276003457646333"><ele>219.0</ele><time>2026-03-22T14:35:52.922Z</time></trkpt><trkpt lat="42.63716305372305" lon="11.27619897718853"><ele>219.0</ele><time>2026-03-22T14:35:53.921Z</time></trkpt><trkpt lat="42.63715464399565" lon="11.276397901164435"><ele>219.0</ele><time>2026-03-22T14:35:54.921Z</time></trkpt><trkpt lat="42.63714481716363" lon="11.276595630689911"><ele>219.0</ele><time>2026-03-22T14:35:55.921Z</time></trkpt><trkpt lat="42.63713987986079" lon="11.276796719390006"><ele>219.0</ele><time>2026-03-22T14:35:56.921Z</time></trkpt><trkpt lat="42.6371178099397" lon="11.276999639411208"><ele>220.0</ele><time>2026-03-22T14:35:57.921Z</time></trkpt><trkpt lat="42.63708708102893" lon="11.277201518420355"><ele>221.0</ele><time>2026-03-22T14:35:58.921Z</time></trkpt><trkpt lat="42.63704613031302" lon="11.277399047979959"><ele>222.0</ele><time>2026-03-22T14:35:59.921Z</time></trkpt><trkpt lat="42.63700588205033" lon="11.277589305575704"><ele>223.0</ele><time>2026-03-22T14:36:00.921Z</time></trkpt><trkpt lat="42.6369655678089" lon="11.277765143891852"><ele>224.0</ele><time>2026-03-22T14:36:01.921Z</time></trkpt><trkpt lat="42.63690383354725" lon="11.277920003591834"><ele>225.0</ele><time>2026-03-22T14:36:02.921Z</time></trkpt><trkpt lat="42.636849982946934" lon="11.278092431340482"><ele>226.0</ele><time>2026-03-22T14:36:03.921Z</time></trkpt><trkpt lat="42.636787732581105" lon="11.278279241560433"><ele>227.0</ele><time>2026-03-22T14:36:04.921Z</time></trkpt><trkpt lat="42.636721966984666" lon="11.278465442338918"><ele>228.33333333333334</ele><time>2026-03-22T14:36:05.921Z</time></trkpt><trkpt lat="42.63664974534529" lon="11.278641246776013"><ele>229.66666666666669</ele><time>2026-03-22T14:36:06.921Z</time></trkpt><trkpt lat="42.63656011780602" lon="11.278807458234311"><ele>231.0</ele><time>2026-03-22T14:36:07.921Z</time></trkpt><trkpt lat="42.63646198869018" lon="11.278982789537952"><ele>231.66666666666669</ele><time>2026-03-22T14:36:08.921Z</time></trkpt><trkpt lat="42.63636226700321" lon="11.279156963633652"><ele>232.33333333333334</ele><time>2026-03-22T14:36:09.921Z</time></trkpt><trkpt lat="42.63625957854874" lon="11.27933604604971"><ele>233.0</ele><time>2026-03-22T14:36:10.921Z</time></trkpt><trkpt lat="42.636161520038826" lon="11.279509741412754"><ele>230.33333333333334</ele><time>2026-03-22T14:36:11.921Z</time></trkpt><trkpt lat="42.636061918092445" lon="11.279687150189647"><ele>227.66666666666669</ele><time>2026-03-22T14:36:12.921Z</time></trkpt><trkpt lat="42.63597264325108" lon="11.279878441824305"><ele>225.0</ele><time>2026-03-22T14:36:13.921Z</time></trkpt><trkpt lat="42.63586469774878" lon="11.28003548411592"><ele>225.0</ele><time>2026-03-22T14:36:14.921Z</time></trkpt><trkpt lat="42.63577313214113" lon="11.280195174191602"><ele>225.0</ele><time>2026-03-22T14:36:15.921Z</time></trkpt><trkpt lat="42.635687074503515" lon="11.280352702663428"><ele>225.0</ele><time>2026-03-22T14:36:16.921Z</time></trkpt><trkpt lat="42.63561084873171" lon="11.280489878613102"><ele>225.0</ele><time>2026-03-22T14:36:17.921Z</time></trkpt><trkpt lat="42.63554114752184" lon="11.28060151229826"><ele>225.2</ele><time>2026-03-22T14:36:18.921Z</time></trkpt><trkpt lat="42.635472687463015" lon="11.280679043943698"><ele>225.4</ele><time>2026-03-22T14:36:19.92Z</time></trkpt><trkpt lat="42.635407011017904" lon="11.280729612319739"><ele>225.60000000000002</ele><time>2026-03-22T14:36:20.92Z</time></trkpt><trkpt lat="42.63532716129762" lon="11.280756247517482"><ele>225.8</ele><time>2026-03-22T14:36:21.92Z</time></trkpt><trkpt lat="42.63523024255978" lon="11.280765863837546"><ele>226.0</ele><time>2026-03-22T14:36:22.92Z</time></trkpt><trkpt lat="42.63511424905825" lon="11.280758181315296"><ele>227.5</ele><time>2026-03-22T14:36:23.92Z</time></trkpt><trkpt lat="42.63499185300998" lon="11.280751979055076"><ele>229.0</ele><time>2026-03-22T14:36:24.92Z</time></trkpt><trkpt lat="42.63484822887787" lon="11.280745198787704"><ele>230.5</ele><time>2026-03-22T14:36:25.92Z</time></trkpt><trkpt lat="42.634685860853374" lon="11.28073978801391"><ele>232.0</ele><time>2026-03-22T14:36:26.92Z</time></trkpt><trkpt lat="42.634522757413094" lon="11.280730774208862"><ele>233.33333333333331</ele><time>2026-03-22T14:36:27.92Z</time></trkpt><trkpt lat="42.63435211246282" lon="11.280726555650569"><ele>234.66666666666669</ele><time>2026-03-22T14:36:28.92Z</time></trkpt><trkpt lat="42.634196581250244" lon="11.280711779949518"><ele>236.0</ele><time>2026-03-22T14:36:29.92Z</time></trkpt><trkpt lat="42.63404514609324" lon="11.280708470616702"><ele>236.0</ele><time>2026-03-22T14:36:30.92Z</time></trkpt><trkpt lat="42.633906215927006" lon="11.280702523770659"><ele>236.0</ele><time>2026-03-22T14:36:31.92Z</time></trkpt><trkpt lat="42.63377128821112" lon="11.280692378925313"><ele>236.0</ele><time>2026-03-22T14:36:32.92Z</time></trkpt><trkpt lat="42.633629470449" lon="11.280668835496671"><ele>236.0</ele><time>2026-03-22T14:36:33.92Z</time></trkpt><trkpt lat="42.63348621469253" lon="11.280608780248432"><ele>236.25</ele><time>2026-03-22T14:36:34.92Z</time></trkpt><trkpt lat="42.63334310640753" lon="11.280545076015024"><ele>236.5</ele><time>2026-03-22T14:36:35.92Z</time></trkpt><trkpt lat="42.63322435420719" lon="11.28048513638288"><ele>236.75</ele><time>2026-03-22T14:36:36.92Z</time></trkpt><trkpt lat="42.6331082046113" lon="11.280429359202188"><ele>237.0</ele><time>2026-03-22T14:36:37.92Z</time></trkpt><trkpt lat="42.632979767680425" lon="11.280382768027023"><ele>237.0</ele><time>2026-03-22T14:36:38.92Z</time></trkpt><trkpt lat="42.63284958909426" lon="11.280334263268212"><ele>237.0</ele><time>2026-03-22T14:36:39.92Z</time></trkpt><trkpt lat="42.63271211193871" lon="11.280270105349473"><ele>237.0</ele><time>2026-03-22T14:36:40.92Z</time></trkpt><trkpt lat="42.63257563381925" lon="11.280204859562618"><ele>237.0</ele><time>2026-03-22T14:36:41.92Z</time></trkpt><trkpt lat="42.632431441406155" lon="11.280130512365334"><ele>237.66666666666669</ele><time>2026-03-22T14:36:42.92Z</time></trkpt><trkpt lat="42.632287708109224" lon="11.280038371196675"><ele>238.33333333333334</ele><time>2026-03-22T14:36:43.92Z</time></trkpt><trkpt lat="42.632140755590584" lon="11.2799380223811"><ele>239.0</ele><time>2026-03-22T14:36:44.919Z</time></trkpt><trkpt lat="42.63199538292272" lon="11.279837700873395"><ele>236.33333333333334</ele><time>2026-03-22T14:36:45.919Z</time></trkpt><trkpt lat="42.631842342720006" lon="11.279731186324865"><ele>233.66666666666669</ele><time>2026-03-22T14:36:46.919Z</time></trkpt><trkpt lat="42.63169246141421" lon="11.279624178201336"><ele>231.0</ele><time>2026-03-22T14:36:47.919Z</time></trkpt><trkpt lat="42.63154731199238" lon="11.279524171653229"><ele>231.0</ele><time>2026-03-22T14:36:48.919Z</time></trkpt><trkpt lat="42.631414339470645" lon="11.27942686405792"><ele>231.0</ele><time>2026-03-22T14:36:49.919Z</time></trkpt><trkpt lat="42.631291966365396" lon="11.279340469747087"><ele>231.0</ele><time>2026-03-22T14:36:50.919Z</time></trkpt><trkpt lat="42.63117775848892" lon="11.279273902245347"><ele>231.0</ele><time>2026-03-22T14:36:51.919Z</time></trkpt><trkpt lat="42.6310615520742" lon="11.279233751847944"><ele>230.75</ele><time>2026-03-22T14:36:52.919Z</time></trkpt><trkpt lat="42.63093604757326" lon="11.279219198860329"><ele>230.5</ele><time>2026-03-22T14:36:53.919Z</time></trkpt><trkpt lat="42.630805042655176" lon="11.279227804383757"><ele>230.25</ele><time>2026-03-22T14:36:54.919Z</time></trkpt><trkpt lat="42.63065700975625" lon="11.279218211772937"><ele>230.0</ele><time>2026-03-22T14:36:55.919Z</time></trkpt><trkpt lat="42.630518444021334" lon="11.279230793223618"><ele>230.0</ele><time>2026-03-22T14:36:56.919Z</time></trkpt><trkpt lat="42.63038665294267" lon="11.279250787994968"><ele>230.0</ele><time>2026-03-22T14:36:57.919Z</time></trkpt><trkpt lat="42.63025550485316" lon="11.279295313719265"><ele>230.0</ele><time>2026-03-22T14:36:58.919Z</time></trkpt><trkpt lat="42.63012076235039" lon="11.2793783512937"><ele>230.0</ele><time>2026-03-22T14:36:59.919Z</time></trkpt><trkpt lat="42.629986152607025" lon="11.279485058023228"><ele>231.0</ele><time>2026-03-22T14:37:00.919Z</time></trkpt><trkpt lat="42.629853737507915" lon="11.279600125785153"><ele>232.0</ele><time>2026-03-22T14:37:01.919Z</time></trkpt><trkpt lat="42.629719623123755" lon="11.279717550633624"><ele>233.0</ele><time>2026-03-22T14:37:02.919Z</time></trkpt><trkpt lat="42.62959419924773" lon="11.279831317949222"><ele>233.0</ele><time>2026-03-22T14:37:03.919Z</time></trkpt><trkpt lat="42.629475638261994" lon="11.27993989151621"><ele>233.0</ele><time>2026-03-22T14:37:04.919Z</time></trkpt><trkpt lat="42.629353853881554" lon="11.280051415454317"><ele>233.0</ele><time>2026-03-22T14:37:05.919Z</time></trkpt><trkpt lat="42.629222543280655" lon="11.280164449034269"><ele>233.0</ele><time>2026-03-22T14:37:06.919Z</time></trkpt><trkpt lat="42.6290863848609" lon="11.28026293003432"><ele>232.66666666666669</ele><time>2026-03-22T14:37:07.919Z</time></trkpt><trkpt lat="42.62893189186052" lon="11.280370012271733"><ele>232.33333333333331</ele><time>2026-03-22T14:37:08.919Z</time></trkpt><trkpt lat="42.62878228320892" lon="11.28047733967225"><ele>232.0</ele><time>2026-03-22T14:37:09.919Z</time></trkpt><trkpt lat="42.62863250000009" lon="11.280582801384371"><ele>229.33333333333331</ele><time>2026-03-22T14:37:10.918Z</time></trkpt><trkpt lat="42.62848698593821" lon="11.280683892803994"><ele>226.66666666666669</ele><time>2026-03-22T14:37:11.918Z</time></trkpt><trkpt lat="42.628351057441726" lon="11.28078296861823"><ele>224.0</ele><time>2026-03-22T14:37:12.918Z</time></trkpt><trkpt lat="42.62821239357591" lon="11.280893242019099"><ele>224.0</ele><time>2026-03-22T14:37:13.918Z</time></trkpt><trkpt lat="42.62805824372074" lon="11.280963652670273"><ele>224.0</ele><time>2026-03-22T14:37:14.918Z</time></trkpt><trkpt lat="42.62789434091092" lon="11.281024521683804"><ele>224.0</ele><time>2026-03-22T14:37:15.918Z</time></trkpt><trkpt lat="42.62771982684516" lon="11.281068182641725"><ele>223.0</ele><time>2026-03-22T14:37:16.918Z</time></trkpt><trkpt lat="42.62754381853599" lon="11.281134742340479"><ele>222.0</ele><time>2026-03-22T14:37:17.918Z</time></trkpt><trkpt lat="42.627371712719025" lon="11.281222045497913"><ele>221.0</ele><time>2026-03-22T14:37:18.918Z</time></trkpt><trkpt lat="42.627196864043164" lon="11.281278012381836"><ele>221.0</ele><time>2026-03-22T14:37:19.918Z</time></trkpt><trkpt lat="42.62702018634454" lon="11.28134488852148"><ele>221.0</ele><time>2026-03-22T14:37:20.918Z</time></trkpt><trkpt lat="42.62684618263798" lon="11.281409598158623"><ele>221.0</ele><time>2026-03-22T14:37:21.918Z</time></trkpt><trkpt lat="42.62667839534055" lon="11.281462700934172"><ele>223.0</ele><time>2026-03-22T14:37:22.918Z</time></trkpt><trkpt lat="42.62652280318695" lon="11.281518086424018"><ele>225.0</ele><time>2026-03-22T14:37:23.918Z</time></trkpt><trkpt lat="42.62637283243466" lon="11.281577041115712"><ele>227.0</ele><time>2026-03-22T14:37:24.918Z</time></trkpt><trkpt lat="42.626232611649115" lon="11.281633601631219"><ele>227.5</ele><time>2026-03-22T14:37:25.918Z</time></trkpt><trkpt lat="42.62610851862117" lon="11.281665699927341"><ele>228.0</ele><time>2026-03-22T14:37:26.918Z</time></trkpt><trkpt lat="42.6259807247906" lon="11.281719277330792"><ele>228.5</ele><time>2026-03-22T14:37:27.921Z</time></trkpt><trkpt lat="42.625850104197475" lon="11.281778418762928"><ele>229.0</ele><time>2026-03-22T14:37:28.92Z</time></trkpt><trkpt lat="42.62571149041104" lon="11.281822726279492"><ele>229.0</ele><time>2026-03-22T14:37:29.92Z</time></trkpt><trkpt lat="42.62558911309682" lon="11.281870472859822"><ele>229.0</ele><time>2026-03-22T14:37:30.92Z</time></trkpt><trkpt lat="42.62546735974864" lon="11.28191230370111"><ele>229.0</ele><time>2026-03-22T14:37:31.92Z</time></trkpt><trkpt lat="42.625342844282194" lon="11.281960331903777"><ele>229.0</ele><time>2026-03-22T14:37:32.92Z</time></trkpt><trkpt lat="42.62521251380588" lon="11.282013764075515"><ele>228.5</ele><time>2026-03-22T14:37:33.92Z</time></trkpt><trkpt lat="42.625077952503595" lon="11.28206751517625"><ele>228.0</ele><time>2026-03-22T14:37:34.92Z</time></trkpt><trkpt lat="42.62493580048669" lon="11.282134707373945"><ele>227.5</ele><time>2026-03-22T14:37:35.92Z</time></trkpt><trkpt lat="42.624794193990105" lon="11.28218456240061"><ele>227.0</ele><time>2026-03-22T14:37:36.92Z</time></trkpt><trkpt lat="42.624646862138256" lon="11.282256138343088"><ele>227.0</ele><time>2026-03-22T14:37:37.92Z</time></trkpt><trkpt lat="42.624493585613806" lon="11.282330877425249"><ele>227.0</ele><time>2026-03-22T14:37:38.92Z</time></trkpt><trkpt lat="42.624342337805516" lon="11.282403096669055"><ele>227.0</ele><time>2026-03-22T14:37:39.92Z</time></trkpt><trkpt lat="42.62418962732132" lon="11.282482852609728"><ele>224.33333333333334</ele><time>2026-03-22T14:37:40.92Z</time></trkpt><trkpt lat="42.62403851941503" lon="11.282557598113623"><ele>221.66666666666669</ele><time>2026-03-22T14:37:41.92Z</time></trkpt><trkpt lat="42.62388613034523" lon="11.282635348621254"><ele>219.0</ele><time>2026-03-22T14:37:42.92Z</time></trkpt><trkpt lat="42.62372964378705" lon="11.282712080190784"><ele>216.0</ele><time>2026-03-22T14:37:43.92Z</time></trkpt><trkpt lat="42.62357735508671" lon="11.282790232561979"><ele>213.0</ele><time>2026-03-22T14:37:44.92Z</time></trkpt><trkpt lat="42.623425535096835" lon="11.282865952435314"><ele>210.0</ele><time>2026-03-22T14:37:45.92Z</time></trkpt><trkpt lat="42.623271694045414" lon="11.28293257460268"><ele>210.0</ele><time>2026-03-22T14:37:46.92Z</time></trkpt><trkpt lat="42.623141030204806" lon="11.283042703754514"><ele>210.0</ele><time>2026-03-22T14:37:47.92Z</time></trkpt><trkpt lat="42.62302361408429" lon="11.283181240215384"><ele>210.0</ele><time>2026-03-22T14:37:48.92Z</time></trkpt><trkpt lat="42.622928018962924" lon="11.28333391933985"><ele>209.66666666666669</ele><time>2026-03-22T14:37:49.919Z</time></trkpt><trkpt lat="42.62285794213893" lon="11.283503722195958"><ele>209.33333333333334</ele><time>2026-03-22T14:37:50.919Z</time></trkpt><trkpt lat="42.62276381086371" lon="11.283679815095182"><ele>209.0</ele><time>2026-03-22T14:37:51.919Z</time></trkpt><trkpt lat="42.622674047526424" lon="11.283864943941708"><ele>207.75</ele><time>2026-03-22T14:37:52.919Z</time></trkpt><trkpt lat="42.622593152508045" lon="11.284032363447125"><ele>206.5</ele><time>2026-03-22T14:37:53.919Z</time></trkpt><trkpt lat="42.622516323558244" lon="11.284191366158783"><ele>205.25</ele><time>2026-03-22T14:37:54.919Z</time></trkpt><trkpt lat="42.62245078380706" lon="11.284373848517346"><ele>204.0</ele><time>2026-03-22T14:37:55.919Z</time></trkpt><trkpt lat="42.62237187407612" lon="11.284532148109758"><ele>204.0</ele><time>2026-03-22T14:37:56.919Z</time></trkpt><trkpt lat="42.6222929693256" lon="11.28468368382755"><ele>204.0</ele><time>2026-03-22T14:37:57.919Z</time></trkpt><trkpt lat="42.622216019526334" lon="11.284846445284192"><ele>204.0</ele><time>2026-03-22T14:37:58.919Z</time></trkpt><trkpt lat="42.62213920566386" lon="11.285015855102376"><ele>204.0</ele><time>2026-03-22T14:37:59.919Z</time></trkpt><trkpt lat="42.62204698050283" lon="11.285176595302438"><ele>203.75</ele><time>2026-03-22T14:38:00.919Z</time></trkpt><trkpt lat="42.6219707199402" lon="11.285340542772488"><ele>203.5</ele><time>2026-03-22T14:38:01.919Z</time></trkpt><trkpt lat="42.621917464681395" lon="11.285512797891357"><ele>203.25</ele><time>2026-03-22T14:38:02.919Z</time></trkpt><trkpt lat="42.62185398191511" lon="11.2856849319614"><ele>203.0</ele><time>2026-03-22T14:38:03.919Z</time></trkpt><trkpt lat="42.62178103726556" lon="11.285849284584545"><ele>203.75</ele><time>2026-03-22T14:38:04.919Z</time></trkpt><trkpt lat="42.62173277162265" lon="11.286012222668026"><ele>204.5</ele><time>2026-03-22T14:38:05.919Z</time></trkpt><trkpt lat="42.62170185018144" lon="11.286186485797591"><ele>205.25</ele><time>2026-03-22T14:38:06.919Z</time></trkpt><trkpt lat="42.621644367997746" lon="11.286325299416228"><ele>206.0</ele><time>2026-03-22T14:38:07.919Z</time></trkpt><trkpt lat="42.621606585352865" lon="11.286455411156544"><ele>204.4</ele><time>2026-03-22T14:38:08.919Z</time></trkpt><trkpt lat="42.62158556002883" lon="11.286585153721148"><ele>202.8</ele><time>2026-03-22T14:38:09.919Z</time></trkpt><trkpt lat="42.62154302705134" lon="11.286695836027787"><ele>201.20000000000002</ele><time>2026-03-22T14:38:10.919Z</time></trkpt><trkpt lat="42.62150900743245" lon="11.286798946212187"><ele>199.60000000000002</ele><time>2026-03-22T14:38:11.919Z</time></trkpt><trkpt lat="42.621473812250564" lon="11.28691585834939"><ele>198.0</ele><time>2026-03-22T14:38:12.919Z</time></trkpt><trkpt lat="42.621436625504515" lon="11.287057533162864"><ele>198.0</ele><time>2026-03-22T14:38:13.919Z</time></trkpt><trkpt lat="42.62138614851816" lon="11.287216944383843"><ele>198.0</ele><time>2026-03-22T14:38:14.919Z</time></trkpt><trkpt lat="42.62132276798363" lon="11.287382611075417"><ele>198.0</ele><time>2026-03-22T14:38:15.918Z</time></trkpt><trkpt lat="42.62124890304735" lon="11.287558297157283"><ele>198.0</ele><time>2026-03-22T14:38:16.918Z</time></trkpt><trkpt lat="42.62116698436244" lon="11.287737626758789"><ele>197.5</ele><time>2026-03-22T14:38:17.918Z</time></trkpt><trkpt lat="42.62108697607552" lon="11.28791139906299"><ele>197.0</ele><time>2026-03-22T14:38:18.918Z</time></trkpt><trkpt lat="42.62099425324544" lon="11.28806391428439"><ele>196.5</ele><time>2026-03-22T14:38:19.918Z</time></trkpt><trkpt lat="42.62091267878223" lon="11.288231280992608"><ele>196.0</ele><time>2026-03-22T14:38:20.918Z</time></trkpt><trkpt lat="42.62082933110129" lon="11.288409214786425"><ele>196.0</ele><time>2026-03-22T14:38:21.918Z</time></trkpt><trkpt lat="42.620751367259814" lon="11.288577244696484"><ele>196.0</ele><time>2026-03-22T14:38:22.918Z</time></trkpt><trkpt lat="42.6206731987473" lon="11.28873048032383"><ele>196.0</ele><time>2026-03-22T14:38:23.918Z</time></trkpt><trkpt lat="42.62058625094629" lon="11.288870815687671"><ele>196.0</ele><time>2026-03-22T14:38:24.918Z</time></trkpt><trkpt lat="42.620488522177936" lon="11.288998243496449"><ele>196.0</ele><time>2026-03-22T14:38:25.918Z</time></trkpt><trkpt lat="42.62037563795182" lon="11.289107200062295"><ele>196.0</ele><time>2026-03-22T14:38:26.918Z</time></trkpt><trkpt lat="42.62024803521122" lon="11.289222272116291"><ele>196.0</ele><time>2026-03-22T14:38:27.918Z</time></trkpt><trkpt lat="42.62011199471813" lon="11.289344797936993"><ele>199.66666666666666</ele><time>2026-03-22T14:38:28.918Z</time></trkpt><trkpt lat="42.61997246575222" lon="11.289474086411696"><ele>203.33333333333331</ele><time>2026-03-22T14:38:29.918Z</time></trkpt><trkpt lat="42.61983601357712" lon="11.289598638203351"><ele>207.0</ele><time>2026-03-22T14:38:30.918Z</time></trkpt><trkpt lat="42.6197093012894" lon="11.289715728098281"><ele>206.5</ele><time>2026-03-22T14:38:31.918Z</time></trkpt><trkpt lat="42.61959162944461" lon="11.28982746910578"><ele>206.0</ele><time>2026-03-22T14:38:32.918Z</time></trkpt><trkpt lat="42.6194730090434" lon="11.289934835391232"><ele>205.5</ele><time>2026-03-22T14:38:33.918Z</time></trkpt><trkpt lat="42.619357071739685" lon="11.29004342591478"><ele>205.0</ele><time>2026-03-22T14:38:34.918Z</time></trkpt><trkpt lat="42.6192509681459" lon="11.290156628057948"><ele>205.0</ele><time>2026-03-22T14:38:35.918Z</time></trkpt><trkpt lat="42.61915261882172" lon="11.290270162762615"><ele>205.0</ele><time>2026-03-22T14:38:36.918Z</time></trkpt><trkpt lat="42.61906045961152" lon="11.290410665546553"><ele>205.0</ele><time>2026-03-22T14:38:37.918Z</time></trkpt><trkpt lat="42.61894804884148" lon="11.290537615675351"><ele>205.0</ele><time>2026-03-22T14:38:38.918Z</time></trkpt><trkpt lat="42.6188489371801" lon="11.290665348140395"><ele>203.0</ele><time>2026-03-22T14:38:39.918Z</time></trkpt><trkpt lat="42.61874748984885" lon="11.290798144476819"><ele>201.0</ele><time>2026-03-22T14:38:40.918Z</time></trkpt><trkpt lat="42.61864086110338" lon="11.290915519805674"><ele>199.0</ele><time>2026-03-22T14:38:41.917Z</time></trkpt><trkpt lat="42.618529959693596" lon="11.29100461690731"><ele>197.0</ele><time>2026-03-22T14:38:42.917Z</time></trkpt><trkpt lat="42.61841150853387" lon="11.291052576700311"><ele>196.75</ele><time>2026-03-22T14:38:43.917Z</time></trkpt><trkpt lat="42.61828181436299" lon="11.291058851444575"><ele>196.5</ele><time>2026-03-22T14:38:44.917Z</time></trkpt><trkpt lat="42.61814112723527" lon="11.291045722331441"><ele>196.25</ele><time>2026-03-22T14:38:45.917Z</time></trkpt><trkpt lat="42.61798357173243" lon="11.291044057991005"><ele>196.0</ele><time>2026-03-22T14:38:46.917Z</time></trkpt><trkpt lat="42.61782099316695" lon="11.291040413477008"><ele>192.0</ele><time>2026-03-22T14:38:47.917Z</time></trkpt><trkpt lat="42.61766120531268" lon="11.291034522217092"><ele>188.0</ele><time>2026-03-22T14:38:48.917Z</time></trkpt><trkpt lat="42.6175054453171" lon="11.291029207677264"><ele>184.0</ele><time>2026-03-22T14:38:49.917Z</time></trkpt><trkpt lat="42.61734927381776" lon="11.291025468822582"><ele>184.0</ele><time>2026-03-22T14:38:50.917Z</time></trkpt><trkpt lat="42.617194552319056" lon="11.291018731189183"><ele>184.0</ele><time>2026-03-22T14:38:51.917Z</time></trkpt><trkpt lat="42.61703576999213" lon="11.291014990171114"><ele>184.0</ele><time>2026-03-22T14:38:52.917Z</time></trkpt><trkpt lat="42.61688112677105" lon="11.291012805206963"><ele>181.0</ele><time>2026-03-22T14:38:53.917Z</time></trkpt><trkpt lat="42.61671893719191" lon="11.29100380678386"><ele>178.0</ele><time>2026-03-22T14:38:54.917Z</time></trkpt><trkpt lat="42.61655791178833" lon="11.29102268912362"><ele>175.0</ele><time>2026-03-22T14:38:55.917Z</time></trkpt><trkpt lat="42.61640026265407" lon="11.29104336258538"><ele>175.0</ele><time>2026-03-22T14:38:56.917Z</time></trkpt><trkpt lat="42.616244920271946" lon="11.291064230330717"><ele>175.0</ele><time>2026-03-22T14:38:57.917Z</time></trkpt><trkpt lat="42.61609015777826" lon="11.291084771414498"><ele>175.0</ele><time>2026-03-22T14:38:58.917Z</time></trkpt><trkpt lat="42.61593223703714" lon="11.29110691602558"><ele>171.0</ele><time>2026-03-22T14:38:59.917Z</time></trkpt><trkpt lat="42.61577224459458" lon="11.291128974996589"><ele>167.0</ele><time>2026-03-22T14:39:00.917Z</time></trkpt><trkpt lat="42.61562296963428" lon="11.291150100191023"><ele>163.0</ele><time>2026-03-22T14:39:01.917Z</time></trkpt><trkpt lat="42.615478099545605" lon="11.291182581908455"><ele>163.0</ele><time>2026-03-22T14:39:02.917Z</time></trkpt><trkpt lat="42.61534239573606" lon="11.291252157546706"><ele>163.0</ele><time>2026-03-22T14:39:03.917Z</time></trkpt><trkpt lat="42.61522185021891" lon="11.29137440319464"><ele>163.0</ele><time>2026-03-22T14:39:04.917Z</time></trkpt><trkpt lat="42.6151173147101" lon="11.291493769385102"><ele>163.0</ele><time>2026-03-22T14:39:05.917Z</time></trkpt><trkpt lat="42.615028564171254" lon="11.291596609216853"><ele>162.33333333333334</ele><time>2026-03-22T14:39:06.916Z</time></trkpt><trkpt lat="42.61495704802107" lon="11.291677264791975"><ele>161.66666666666669</ele><time>2026-03-22T14:39:07.916Z</time></trkpt><trkpt lat="42.61489473739088" lon="11.291739007489808"><ele>161.0</ele><time>2026-03-22T14:39:08.916Z</time></trkpt><trkpt lat="42.61483837889121" lon="11.29178344117345"><ele>160.33333333333334</ele><time>2026-03-22T14:39:09.916Z</time></trkpt><trkpt lat="42.61477663141629" lon="11.291810879819776"><ele>159.66666666666666</ele><time>2026-03-22T14:39:10.916Z</time></trkpt><trkpt lat="42.614703594714435" lon="11.291820952913314"><ele>159.0</ele><time>2026-03-22T14:39:11.916Z</time></trkpt><trkpt lat="42.61461542778909" lon="11.291814912345762"><ele>159.0</ele><time>2026-03-22T14:39:12.916Z</time></trkpt><trkpt lat="42.61451094795065" lon="11.291801811109906"><ele>159.0</ele><time>2026-03-22T14:39:13.916Z</time></trkpt><trkpt lat="42.61438793530315" lon="11.291807326036082"><ele>159.0</ele><time>2026-03-22T14:39:14.916Z</time></trkpt><trkpt lat="42.614258309429474" lon="11.291767563448428"><ele>159.0</ele><time>2026-03-22T14:39:15.916Z</time></trkpt><trkpt lat="42.61411080853527" lon="11.291745669326716"><ele>155.0</ele><time>2026-03-22T14:39:16.916Z</time></trkpt><trkpt lat="42.613955223638996" lon="11.291722361440124"><ele>151.0</ele><time>2026-03-22T14:39:17.916Z</time></trkpt><trkpt lat="42.61378888284385" lon="11.291701534287537"><ele>147.0</ele><time>2026-03-22T14:39:18.916Z</time></trkpt><trkpt lat="42.61361623113631" lon="11.291690919514362"><ele>145.0</ele><time>2026-03-22T14:39:19.916Z</time></trkpt><trkpt lat="42.613432402887135" lon="11.291702095195417"><ele>143.0</ele><time>2026-03-22T14:39:20.916Z</time></trkpt><trkpt lat="42.613253409777954" lon="11.291729054466474"><ele>141.0</ele><time>2026-03-22T14:39:21.916Z</time></trkpt><trkpt lat="42.61308341833695" lon="11.291757426861308"><ele>141.0</ele><time>2026-03-22T14:39:22.916Z</time></trkpt><trkpt lat="42.61291640915843" lon="11.29178273008586"><ele>141.0</ele><time>2026-03-22T14:39:23.916Z</time></trkpt><trkpt lat="42.612749187703095" lon="11.2918081274495"><ele>141.0</ele><time>2026-03-22T14:39:24.916Z</time></trkpt><trkpt lat="42.612586262454634" lon="11.291837164323818"><ele>139.33333333333334</ele><time>2026-03-22T14:39:25.916Z</time></trkpt><trkpt lat="42.61242194294068" lon="11.291865515451875"><ele>137.66666666666669</ele><time>2026-03-22T14:39:26.916Z</time></trkpt><trkpt lat="42.612258115393296" lon="11.291893781694576"><ele>136.0</ele><time>2026-03-22T14:39:27.916Z</time></trkpt><trkpt lat="42.61209680003815" lon="11.291921614495713"><ele>134.33333333333334</ele><time>2026-03-22T14:39:28.916Z</time></trkpt><trkpt lat="42.611940349628156" lon="11.291946548440519"><ele>132.66666666666666</ele><time>2026-03-22T14:39:29.916Z</time></trkpt><trkpt lat="42.61178288671368" lon="11.291979247221008"><ele>131.0</ele><time>2026-03-22T14:39:30.916Z</time></trkpt><trkpt lat="42.61163124564349" lon="11.29203259948272"><ele>131.0</ele><time>2026-03-22T14:39:31.916Z</time></trkpt><trkpt lat="42.611479416947724" lon="11.292069614201452"><ele>131.0</ele><time>2026-03-22T14:39:32.915Z</time></trkpt><trkpt lat="42.611324644060836" lon="11.292102703894383"><ele>131.0</ele><time>2026-03-22T14:39:33.918Z</time></trkpt><trkpt lat="42.61116516554973" lon="11.292141368446698"><ele>129.0</ele><time>2026-03-22T14:39:34.918Z</time></trkpt><trkpt lat="42.610997391700835" lon="11.292189900701567"><ele>127.0</ele><time>2026-03-22T14:39:35.918Z</time></trkpt><trkpt lat="42.610836328538504" lon="11.292239871163279"><ele>125.0</ele><time>2026-03-22T14:39:36.918Z</time></trkpt><trkpt lat="42.61068058152093" lon="11.29228464047206"><ele>125.0</ele><time>2026-03-22T14:39:37.918Z</time></trkpt><trkpt lat="42.61052713941144" lon="11.29231754991814"><ele>125.0</ele><time>2026-03-22T14:39:38.918Z</time></trkpt><trkpt lat="42.610373734316845" lon="11.292349162055572"><ele>125.0</ele><time>2026-03-22T14:39:39.918Z</time></trkpt><trkpt lat="42.610224811529605" lon="11.292367013603048"><ele>123.25</ele><time>2026-03-22T14:39:40.918Z</time></trkpt><trkpt lat="42.61007888506676" lon="11.292374267331164"><ele>121.5</ele><time>2026-03-22T14:39:41.918Z</time></trkpt><trkpt lat="42.60993280054083" lon="11.292381739518913"><ele>119.75</ele><time>2026-03-22T14:39:42.918Z</time></trkpt><trkpt lat="42.609789156379755" lon="11.2923897889123"><ele>118.0</ele><time>2026-03-22T14:39:43.918Z</time></trkpt><trkpt lat="42.60964980445673" lon="11.292376868094138"><ele>118.0</ele><time>2026-03-22T14:39:44.918Z</time></trkpt><trkpt lat="42.609513852349515" lon="11.29238149821901"><ele>118.0</ele><time>2026-03-22T14:39:45.918Z</time></trkpt><trkpt lat="42.60938110894567" lon="11.292390929516193"><ele>118.0</ele><time>2026-03-22T14:39:46.918Z</time></trkpt><trkpt lat="42.609255050975044" lon="11.292407679957835"><ele>118.0</ele><time>2026-03-22T14:39:47.918Z</time></trkpt><trkpt lat="42.60914706629408" lon="11.292430930002864"><ele>117.60000000000001</ele><time>2026-03-22T14:39:48.918Z</time></trkpt><trkpt lat="42.609063255918954" lon="11.292456248856832"><ele>117.20000000000002</ele><time>2026-03-22T14:39:49.918Z</time></trkpt><trkpt lat="42.608981996709495" lon="11.292507152031709"><ele>116.8</ele><time>2026-03-22T14:39:51.918Z</time></trkpt><trkpt lat="42.609042548138234" lon="11.292463929929573"><ele>116.4</ele><time>2026-03-22T14:40:16.824Z</time></trkpt><trkpt lat="42.60909353350885" lon="11.292562533159643"><ele>116.0</ele><time>2026-03-22T14:45:41.811Z</time></trkpt><trkpt lat="42.60897500688673" lon="11.29249239317812"><ele>115.99999999999999</ele><time>2026-03-22T14:48:51.805Z</time></trkpt><trkpt lat="42.60890631299499" lon="11.292522284331854"><ele>116.0</ele><time>2026-03-22T14:49:20.803Z</time></trkpt><trkpt lat="42.60880238796192" lon="11.292567755567106"><ele>116.0</ele><time>2026-03-22T14:49:23.803Z</time></trkpt><trkpt lat="42.6087356769785" lon="11.292596944215964"><ele>116.0</ele><time>2026-03-22T14:49:24.803Z</time></trkpt><trkpt lat="42.608660609219115" lon="11.292629789281342"><ele>115.99999999999999</ele><time>2026-03-22T14:49:25.803Z</time></trkpt><trkpt lat="42.60857759859163" lon="11.29266735104684"><ele>116.0</ele><time>2026-03-22T14:49:26.803Z</time></trkpt><trkpt lat="42.60849252995846" lon="11.292705450723863"><ele>115.25</ele><time>2026-03-22T14:49:27.803Z</time></trkpt><trkpt lat="42.60839366434122" lon="11.292767413557003"><ele>114.5</ele><time>2026-03-22T14:49:28.803Z</time></trkpt><trkpt lat="42.60827718438929" lon="11.292792494869614"><ele>113.75</ele><time>2026-03-22T14:49:29.803Z</time></trkpt><trkpt lat="42.60815452651416" lon="11.292813592466269"><ele>113.0</ele><time>2026-03-22T14:49:30.803Z</time></trkpt><trkpt lat="42.60802246117878" lon="11.292840834844762"><ele>113.0</ele><time>2026-03-22T14:49:31.803Z</time></trkpt><trkpt lat="42.6078844475011" lon="11.292862060430876"><ele>113.0</ele><time>2026-03-22T14:49:32.803Z</time></trkpt><trkpt lat="42.60774546041357" lon="11.292884177369498"><ele>113.0</ele><time>2026-03-22T14:49:33.803Z</time></trkpt><trkpt lat="42.607613094967405" lon="11.292905160746802"><ele>113.0</ele><time>2026-03-22T14:49:34.803Z</time></trkpt><trkpt lat="42.60748641390288" lon="11.29292246571517"><ele>112.75</ele><time>2026-03-22T14:49:35.803Z</time></trkpt><trkpt lat="42.607354340768886" lon="11.292959992336186"><ele>112.5</ele><time>2026-03-22T14:49:36.803Z</time></trkpt><trkpt lat="42.6072294185067" lon="11.293032125061291"><ele>112.25</ele><time>2026-03-22T14:49:37.802Z</time></trkpt><trkpt lat="42.60711629393582" lon="11.293116735818439"><ele>112.0</ele><time>2026-03-22T14:49:38.802Z</time></trkpt><trkpt lat="42.60701466080697" lon="11.29319711613953"><ele>112.0</ele><time>2026-03-22T14:49:39.802Z</time></trkpt><trkpt lat="42.606921554135205" lon="11.293263817313683"><ele>111.99999999999999</ele><time>2026-03-22T14:49:40.802Z</time></trkpt><trkpt lat="42.606824033725474" lon="11.29327625436377"><ele>111.99999999999999</ele><time>2026-03-22T14:49:41.802Z</time></trkpt><trkpt lat="42.60672183111141" lon="11.293258902365842"><ele>112.0</ele><time>2026-03-22T14:49:42.802Z</time></trkpt><trkpt lat="42.60660965756225" lon="11.293207580601354"><ele>112.0</ele><time>2026-03-22T14:49:43.802Z</time></trkpt><trkpt lat="42.60649120715239" lon="11.293149243084466"><ele>110.75</ele><time>2026-03-22T14:49:44.802Z</time></trkpt><trkpt lat="42.60637202882333" lon="11.293080674249916"><ele>109.5</ele><time>2026-03-22T14:49:45.802Z</time></trkpt><trkpt lat="42.60623831140404" lon="11.293036074141249"><ele>108.25</ele><time>2026-03-22T14:49:46.802Z</time></trkpt><trkpt lat="42.60609218322461" lon="11.293006352943143"><ele>107.0</ele><time>2026-03-22T14:49:47.802Z</time></trkpt><trkpt lat="42.60595565844395" lon="11.292996549961119"><ele>106.25</ele><time>2026-03-22T14:49:48.802Z</time></trkpt><trkpt lat="42.60583495269342" lon="11.29299927187391"><ele>105.5</ele><time>2026-03-22T14:49:49.802Z</time></trkpt><trkpt lat="42.605722656554" lon="11.293000178040332"><ele>104.75</ele><time>2026-03-22T14:49:50.802Z</time></trkpt><trkpt lat="42.60561069276265" lon="11.293009469478623"><ele>104.0</ele><time>2026-03-22T14:49:51.802Z</time></trkpt><trkpt lat="42.605499259582864" lon="11.293001922691852"><ele>104.0</ele><time>2026-03-22T14:49:52.802Z</time></trkpt><trkpt lat="42.60538672791357" lon="11.293027853533404"><ele>104.0</ele><time>2026-03-22T14:49:53.802Z</time></trkpt><trkpt lat="42.60527646792569" lon="11.293062836383555"><ele>104.0</ele><time>2026-03-22T14:49:54.801Z</time></trkpt><trkpt lat="42.60516517681309" lon="11.293096346831904"><ele>104.0</ele><time>2026-03-22T14:49:55.801Z</time></trkpt><trkpt lat="42.60505569204971" lon="11.29310679974107"><ele>102.4</ele><time>2026-03-22T14:49:56.801Z</time></trkpt><trkpt lat="42.60494170156521" lon="11.293115763163085"><ele>100.80000000000001</ele><time>2026-03-22T14:49:57.801Z</time></trkpt><trkpt lat="42.60482869833145" lon="11.293101295987945"><ele>99.19999999999999</ele><time>2026-03-22T14:49:58.801Z</time></trkpt><trkpt lat="42.604721240317346" lon="11.29308341814863"><ele>97.6</ele><time>2026-03-22T14:49:59.801Z</time></trkpt><trkpt lat="42.60461447202279" lon="11.293076443568335"><ele>96.0</ele><time>2026-03-22T14:50:00.801Z</time></trkpt><trkpt lat="42.60452049598813" lon="11.293066515021467"><ele>94.4</ele><time>2026-03-22T14:50:01.801Z</time></trkpt><trkpt lat="42.604439488511076" lon="11.293047007787395"><ele>92.8</ele><time>2026-03-22T14:50:02.801Z</time></trkpt><trkpt lat="42.604358667398316" lon="11.293039112027703"><ele>91.2</ele><time>2026-03-22T14:50:04.803Z</time></trkpt><trkpt lat="42.60426738919443" lon="11.29292937547496"><ele>89.60000000000001</ele><time>2026-03-22T14:50:07.804Z</time></trkpt><trkpt lat="42.60422385540405" lon="11.292787929931908"><ele>88.0</ele><time>2026-03-22T14:50:09.803Z</time></trkpt><trkpt lat="42.60418070086386" lon="11.292698696678542"><ele>88.0</ele><time>2026-03-22T14:50:10.803Z</time></trkpt><trkpt lat="42.6041315695965" lon="11.292599224000854"><ele>88.0</ele><time>2026-03-22T14:50:11.803Z</time></trkpt><trkpt lat="42.604078234155665" lon="11.292496496168171"><ele>88.0</ele><time>2026-03-22T14:50:12.803Z</time></trkpt><trkpt lat="42.60401257299611" lon="11.292406618133677"><ele>88.0</ele><time>2026-03-22T14:50:13.804Z</time></trkpt><trkpt lat="42.60393074277677" lon="11.292324400604839"><ele>88.0</ele><time>2026-03-22T14:50:14.803Z</time></trkpt><trkpt lat="42.60383731645678" lon="11.29223539382011"><ele>87.75</ele><time>2026-03-22T14:50:15.803Z</time></trkpt><trkpt lat="42.60371962993881" lon="11.292175973531267"><ele>87.5</ele><time>2026-03-22T14:50:16.803Z</time></trkpt><trkpt lat="42.60359204900152" lon="11.292137122707732"><ele>87.25</ele><time>2026-03-22T14:50:17.803Z</time></trkpt><trkpt lat="42.60345809707862" lon="11.292116911724616"><ele>87.0</ele><time>2026-03-22T14:50:18.803Z</time></trkpt><trkpt lat="42.60332547165575" lon="11.292090452550799"><ele>86.5</ele><time>2026-03-22T14:50:19.803Z</time></trkpt><trkpt lat="42.603185920008976" lon="11.29205731522788"><ele>86.0</ele><time>2026-03-22T14:50:20.803Z</time></trkpt><trkpt lat="42.60306336030855" lon="11.291959923516382"><ele>85.5</ele><time>2026-03-22T14:50:21.803Z</time></trkpt><trkpt lat="42.602954729867854" lon="11.291846078369378"><ele>85.0</ele><time>2026-03-22T14:50:22.803Z</time></trkpt><trkpt lat="42.602850683093635" lon="11.29171791140582"><ele>84.5</ele><time>2026-03-22T14:50:23.803Z</time></trkpt><trkpt lat="42.6027608180105" lon="11.29158587917492"><ele>84.0</ele><time>2026-03-22T14:50:24.803Z</time></trkpt><trkpt lat="42.60268525933001" lon="11.291452217789907"><ele>83.5</ele><time>2026-03-22T14:50:25.803Z</time></trkpt><trkpt lat="42.6026211506249" lon="11.291301207829482"><ele>83.0</ele><time>2026-03-22T14:50:26.803Z</time></trkpt><trkpt lat="42.6025555196887" lon="11.291146124621452"><ele>83.0</ele><time>2026-03-22T14:50:27.803Z</time></trkpt><trkpt lat="42.602489233855906" lon="11.29099236464429"><ele>83.0</ele><time>2026-03-22T14:50:28.803Z</time></trkpt><trkpt lat="42.602415996526794" lon="11.29084712242308"><ele>83.0</ele><time>2026-03-22T14:50:29.803Z</time></trkpt><trkpt lat="42.602349653128556" lon="11.290702175716142"><ele>83.0</ele><time>2026-03-22T14:50:30.803Z</time></trkpt><trkpt lat="42.602282468505784" lon="11.290558673372935"><ele>82.0</ele><time>2026-03-22T14:50:31.803Z</time></trkpt><trkpt lat="42.602217985631206" lon="11.290425012895929"><ele>81.0</ele><time>2026-03-22T14:50:32.802Z</time></trkpt><trkpt lat="42.60215284520733" lon="11.29028405000435"><ele>80.0</ele><time>2026-03-22T14:50:33.802Z</time></trkpt><trkpt lat="42.60208731610406" lon="11.290134490691422"><ele>79.0</ele><time>2026-03-22T14:50:34.802Z</time></trkpt><trkpt lat="42.60202238698574" lon="11.289979989949636"><ele>80.75</ele><time>2026-03-22T14:50:35.802Z</time></trkpt><trkpt lat="42.60195742129752" lon="11.289818842345925"><ele>82.5</ele><time>2026-03-22T14:50:36.802Z</time></trkpt><trkpt lat="42.60189095565738" lon="11.289656650720158"><ele>84.25</ele><time>2026-03-22T14:50:37.802Z</time></trkpt><trkpt lat="42.601824023095055" lon="11.289497894879403"><ele>86.0</ele><time>2026-03-22T14:50:38.802Z</time></trkpt><trkpt lat="42.60175251993139" lon="11.289344911897416"><ele>86.0</ele><time>2026-03-22T14:50:39.802Z</time></trkpt><trkpt lat="42.601672441634" lon="11.28920105025975"><ele>86.0</ele><time>2026-03-22T14:50:40.802Z</time></trkpt><trkpt lat="42.601588343355246" lon="11.289065667398408"><ele>86.0</ele><time>2026-03-22T14:50:41.802Z</time></trkpt><trkpt lat="42.60149210835404" lon="11.288941026885295"><ele>86.0</ele><time>2026-03-22T14:50:42.802Z</time></trkpt><trkpt lat="42.601384897734555" lon="11.288837597186777"><ele>86.0</ele><time>2026-03-22T14:50:43.802Z</time></trkpt><trkpt lat="42.60127701102318" lon="11.288730822724268"><ele>86.0</ele><time>2026-03-22T14:50:44.802Z</time></trkpt><trkpt lat="42.60115358225909" lon="11.288653896109015"><ele>86.0</ele><time>2026-03-22T14:50:45.802Z</time></trkpt><trkpt lat="42.60101964522012" lon="11.288595885113471"><ele>86.0</ele><time>2026-03-22T14:50:46.802Z</time></trkpt><trkpt lat="42.60088519348454" lon="11.288554237124535"><ele>86.0</ele><time>2026-03-22T14:50:47.802Z</time></trkpt><trkpt lat="42.60074070140918" lon="11.288536189795705"><ele>86.0</ele><time>2026-03-22T14:50:48.802Z</time></trkpt><trkpt lat="42.600600153684454" lon="11.288513501044918"><ele>86.0</ele><time>2026-03-22T14:50:49.801Z</time></trkpt><trkpt lat="42.60046223673219" lon="11.28849139048353"><ele>86.0</ele><time>2026-03-22T14:50:50.801Z</time></trkpt><trkpt lat="42.60032349720038" lon="11.288469292173644"><ele>86.5</ele><time>2026-03-22T14:50:51.801Z</time></trkpt><trkpt lat="42.6001827700528" lon="11.288447262589846"><ele>87.0</ele><time>2026-03-22T14:50:52.801Z</time></trkpt><trkpt lat="42.60004423587045" lon="11.2884254586514"><ele>87.5</ele><time>2026-03-22T14:50:53.801Z</time></trkpt><trkpt lat="42.59990516465482" lon="11.288400447140157"><ele>88.0</ele><time>2026-03-22T14:50:54.801Z</time></trkpt><trkpt lat="42.59976357590535" lon="11.288372943604148"><ele>88.0</ele><time>2026-03-22T14:50:55.801Z</time></trkpt><trkpt lat="42.599617890840655" lon="11.288346481649391"><ele>88.0</ele><time>2026-03-22T14:50:56.801Z</time></trkpt><trkpt lat="42.59947221599539" lon="11.288325451758745"><ele>88.0</ele><time>2026-03-22T14:50:57.801Z</time></trkpt><trkpt lat="42.599320370513325" lon="11.288317137866159"><ele>88.0</ele><time>2026-03-22T14:50:58.801Z</time></trkpt><trkpt lat="42.59916731347307" lon="11.288288075808705"><ele>89.0</ele><time>2026-03-22T14:50:59.801Z</time></trkpt><trkpt lat="42.59901585286024" lon="11.288313148104164"><ele>90.0</ele><time>2026-03-22T14:51:00.801Z</time></trkpt><trkpt lat="42.598873028515655" lon="11.288375404992944"><ele>91.0</ele><time>2026-03-22T14:51:01.801Z</time></trkpt><trkpt lat="42.59873183820833" lon="11.288479627857768"><ele>90.0</ele><time>2026-03-22T14:51:02.801Z</time></trkpt><trkpt lat="42.59859586916865" lon="11.288590958263747"><ele>89.0</ele><time>2026-03-22T14:51:03.801Z</time></trkpt><trkpt lat="42.59846201632824" lon="11.288708977469243"><ele>88.0</ele><time>2026-03-22T14:51:04.801Z</time></trkpt><trkpt lat="42.598333745116626" lon="11.288823356285754"><ele>89.25</ele><time>2026-03-22T14:51:05.8Z</time></trkpt><trkpt lat="42.59820908097148" lon="11.288932399616188"><ele>90.5</ele><time>2026-03-22T14:51:06.8Z</time></trkpt><trkpt lat="42.59808674133109" lon="11.289036402686165"><ele>91.75</ele><time>2026-03-22T14:51:07.8Z</time></trkpt><trkpt lat="42.59796238433946" lon="11.289123543388094"><ele>93.0</ele><time>2026-03-22T14:51:08.8Z</time></trkpt><trkpt lat="42.597844502544845" lon="11.289168783783582"><ele>91.5</ele><time>2026-03-22T14:51:09.8Z</time></trkpt><trkpt lat="42.597714906084676" lon="11.289181357873934"><ele>90.0</ele><time>2026-03-22T14:51:10.8Z</time></trkpt><trkpt lat="42.597588595154605" lon="11.289173745705707"><ele>88.5</ele><time>2026-03-22T14:51:11.8Z</time></trkpt><trkpt lat="42.597466094727686" lon="11.289107259734603"><ele>87.0</ele><time>2026-03-22T14:51:12.8Z</time></trkpt><trkpt lat="42.59735373561586" lon="11.28900759162337"><ele>85.5</ele><time>2026-03-22T14:51:13.8Z</time></trkpt><trkpt lat="42.59725675149227" lon="11.28888038810903"><ele>84.0</ele><time>2026-03-22T14:51:14.8Z</time></trkpt><trkpt lat="42.59717740304852" lon="11.288731683575218"><ele>82.5</ele><time>2026-03-22T14:51:15.8Z</time></trkpt><trkpt lat="42.597119117063215" lon="11.288563093423058"><ele>81.0</ele><time>2026-03-22T14:51:16.8Z</time></trkpt><trkpt lat="42.5970657501084" lon="11.288379027430286"><ele>81.0</ele><time>2026-03-22T14:51:17.8Z</time></trkpt><trkpt lat="42.59700562242405" lon="11.288184977859952"><ele>81.0</ele><time>2026-03-22T14:51:18.8Z</time></trkpt><trkpt lat="42.59694776139205" lon="11.288004893058044"><ele>81.0</ele><time>2026-03-22T14:51:19.8Z</time></trkpt><trkpt lat="42.59689090799669" lon="11.287838866687022"><ele>81.0</ele><time>2026-03-22T14:51:20.8Z</time></trkpt><trkpt lat="42.59682609613779" lon="11.287678741374524"><ele>80.5</ele><time>2026-03-22T14:51:21.8Z</time></trkpt><trkpt lat="42.59675039980668" lon="11.28753014302101"><ele>80.0</ele><time>2026-03-22T14:51:22.799Z</time></trkpt><trkpt lat="42.596664061428086" lon="11.28738195089403"><ele>79.5</ele><time>2026-03-22T14:51:23.799Z</time></trkpt><trkpt lat="42.59656624796693" lon="11.287241519048246"><ele>79.0</ele><time>2026-03-22T14:51:24.799Z</time></trkpt><trkpt lat="42.59645430994531" lon="11.287112766614538"><ele>79.0</ele><time>2026-03-22T14:51:25.799Z</time></trkpt><trkpt lat="42.596325458683594" lon="11.286996632091453"><ele>79.0</ele><time>2026-03-22T14:51:26.799Z</time></trkpt><trkpt lat="42.59618175366835" lon="11.286906067777178"><ele>79.0</ele><time>2026-03-22T14:51:27.799Z</time></trkpt><trkpt lat="42.5960323385632" lon="11.286829883855155"><ele>79.66666666666666</ele><time>2026-03-22T14:51:28.799Z</time></trkpt><trkpt lat="42.59586927456466" lon="11.286781837150171"><ele>80.33333333333333</ele><time>2026-03-22T14:51:29.799Z</time></trkpt><trkpt lat="42.595702860232265" lon="11.286712534244222"><ele>81.0</ele><time>2026-03-22T14:51:30.799Z</time></trkpt><trkpt lat="42.595526483536744" lon="11.286687965150207"><ele>81.0</ele><time>2026-03-22T14:51:31.799Z</time></trkpt><trkpt lat="42.59534995023235" lon="11.2866721879765"><ele>81.0</ele><time>2026-03-22T14:51:32.799Z</time></trkpt><trkpt lat="42.59517175568213" lon="11.28665968478193"><ele>81.0</ele><time>2026-03-22T14:51:33.799Z</time></trkpt><trkpt lat="42.594992375282324" lon="11.286648720966987"><ele>81.66666666666667</ele><time>2026-03-22T14:51:34.799Z</time></trkpt><trkpt lat="42.59481376369872" lon="11.286638222310037"><ele>82.33333333333334</ele><time>2026-03-22T14:51:35.799Z</time></trkpt><trkpt lat="42.594641141915595" lon="11.286629586914549"><ele>83.0</ele><time>2026-03-22T14:51:36.799Z</time></trkpt><trkpt lat="42.594462175990834" lon="11.286620634171664"><ele>81.66666666666667</ele><time>2026-03-22T14:51:37.799Z</time></trkpt><trkpt lat="42.59428270860418" lon="11.28661040300146"><ele>80.33333333333333</ele><time>2026-03-22T14:51:38.799Z</time></trkpt><trkpt lat="42.59410308159678" lon="11.286600002549942"><ele>79.0</ele><time>2026-03-22T14:51:39.798Z</time></trkpt><trkpt lat="42.593925024346994" lon="11.286589776563659"><ele>79.0</ele><time>2026-03-22T14:51:40.798Z</time></trkpt><trkpt lat="42.59375305159159" lon="11.286579900013292"><ele>79.0</ele><time>2026-03-22T14:51:41.798Z</time></trkpt><trkpt lat="42.59358438383177" lon="11.286570213269933"><ele>79.0</ele><time>2026-03-22T14:51:42.798Z</time></trkpt><trkpt lat="42.59341403512217" lon="11.286560198081009"><ele>78.33333333333333</ele><time>2026-03-22T14:51:43.798Z</time></trkpt><trkpt lat="42.593244551047" lon="11.286550556259145"><ele>77.66666666666667</ele><time>2026-03-22T14:51:44.798Z</time></trkpt><trkpt lat="42.59307331863389" lon="11.28656018146468"><ele>77.0</ele><time>2026-03-22T14:51:45.798Z</time></trkpt><trkpt lat="42.5928992037019" lon="11.286530909573473"><ele>76.0</ele><time>2026-03-22T14:51:46.798Z</time></trkpt><trkpt lat="42.59272216134582" lon="11.286522428431763"><ele>75.0</ele><time>2026-03-22T14:51:47.798Z</time></trkpt><trkpt lat="42.5925412127269" lon="11.286513284238794"><ele>74.0</ele><time>2026-03-22T14:51:48.798Z</time></trkpt><trkpt lat="42.592359424759906" lon="11.286503148002687"><ele>74.0</ele><time>2026-03-22T14:51:49.798Z</time></trkpt><trkpt lat="42.592178023352474" lon="11.286492715582039"><ele>74.0</ele><time>2026-03-22T14:51:50.798Z</time></trkpt><trkpt lat="42.59199689395102" lon="11.286482298801893"><ele>74.0</ele><time>2026-03-22T14:51:51.798Z</time></trkpt><trkpt lat="42.59181335693581" lon="11.286471743554445"><ele>73.0</ele><time>2026-03-22T14:51:52.798Z</time></trkpt><trkpt lat="42.59162988610916" lon="11.28646119211834"><ele>72.0</ele><time>2026-03-22T14:51:53.798Z</time></trkpt><trkpt lat="42.59144274450529" lon="11.28648850788623"><ele>71.0</ele><time>2026-03-22T14:51:54.798Z</time></trkpt><trkpt lat="42.59125650076398" lon="11.286478227782876"><ele>69.66666666666667</ele><time>2026-03-22T14:51:55.798Z</time></trkpt><trkpt lat="42.591069000870164" lon="11.286469797042605"><ele>68.33333333333333</ele><time>2026-03-22T14:51:56.797Z</time></trkpt><trkpt lat="42.590880456172236" lon="11.286456445670693"><ele>67.0</ele><time>2026-03-22T14:51:57.797Z</time></trkpt><trkpt lat="42.590691012558246" lon="11.286406431759593"><ele>65.0</ele><time>2026-03-22T14:51:58.797Z</time></trkpt><trkpt lat="42.5905048641432" lon="11.286395570689855"><ele>63.0</ele><time>2026-03-22T14:51:59.797Z</time></trkpt><trkpt lat="42.590324544705815" lon="11.28638504973701"><ele>61.0</ele><time>2026-03-22T14:52:00.797Z</time></trkpt><trkpt lat="42.590149353907485" lon="11.286374651230794"><ele>61.0</ele><time>2026-03-22T14:52:01.797Z</time></trkpt><trkpt lat="42.58998072132612" lon="11.286364881130194"><ele>61.0</ele><time>2026-03-22T14:52:02.797Z</time></trkpt><trkpt lat="42.58982633806038" lon="11.286356386279788"><ele>61.0</ele><time>2026-03-22T14:52:03.797Z</time></trkpt><trkpt lat="42.58969072961435" lon="11.28634892451189"><ele>61.0</ele><time>2026-03-22T14:52:04.797Z</time></trkpt><trkpt lat="42.58957862266081" lon="11.286342755890248"><ele>60.99999999999999</ele><time>2026-03-22T14:52:05.797Z</time></trkpt><trkpt lat="42.58947756195283" lon="11.286336473353831"><ele>60.99999999999999</ele><time>2026-03-22T14:52:06.797Z</time></trkpt><trkpt lat="42.589390136345536" lon="11.28633063827089"><ele>61.0</ele><time>2026-03-22T14:52:07.797Z</time></trkpt><trkpt lat="42.58928155644236" lon="11.286323391276667"><ele>61.0</ele><time>2026-03-22T14:52:09.799Z</time></trkpt><trkpt lat="42.589233997192174" lon="11.28660269821899"><ele>61.75</ele><time>2026-03-22T14:52:11.798Z</time></trkpt><trkpt lat="42.589203665918006" lon="11.286719401116468"><ele>62.5</ele><time>2026-03-22T14:52:12.799Z</time></trkpt><trkpt lat="42.58919659004118" lon="11.286871359585163"><ele>63.25</ele><time>2026-03-22T14:52:13.798Z</time></trkpt><trkpt lat="42.589189750458964" lon="11.287055240426703"><ele>64.0</ele><time>2026-03-22T14:52:14.798Z</time></trkpt><trkpt lat="42.58918237004902" lon="11.287253661322257"><ele>64.33333333333333</ele><time>2026-03-22T14:52:15.799Z</time></trkpt><trkpt lat="42.58917348424355" lon="11.287454831728999"><ele>64.66666666666667</ele><time>2026-03-22T14:52:16.799Z</time></trkpt><trkpt lat="42.589163104072526" lon="11.287665082709436"><ele>65.0</ele><time>2026-03-22T14:52:17.799Z</time></trkpt><trkpt lat="42.58915310730783" lon="11.287872238729216"><ele>65.0</ele><time>2026-03-22T14:52:18.799Z</time></trkpt><trkpt lat="42.589145116447185" lon="11.288082995044656"><ele>65.0</ele><time>2026-03-22T14:52:19.798Z</time></trkpt><trkpt lat="42.589142790124676" lon="11.288283111370367"><ele>65.0</ele><time>2026-03-22T14:52:20.798Z</time></trkpt><trkpt lat="42.58914822078666" lon="11.288491648297684"><ele>65.33333333333334</ele><time>2026-03-22T14:52:21.798Z</time></trkpt><trkpt lat="42.58917022481514" lon="11.288709958000984"><ele>65.66666666666667</ele><time>2026-03-22T14:52:22.798Z</time></trkpt><trkpt lat="42.58920284141825" lon="11.288944087319054"><ele>66.0</ele><time>2026-03-22T14:52:23.798Z</time></trkpt><trkpt lat="42.58924015676118" lon="11.289179384344529"><ele>64.66666666666667</ele><time>2026-03-22T14:52:24.798Z</time></trkpt><trkpt lat="42.58927545477505" lon="11.28941419976476"><ele>63.333333333333336</ele><time>2026-03-22T14:52:25.798Z</time></trkpt><trkpt lat="42.589308927060266" lon="11.289643913400619"><ele>62.0</ele><time>2026-03-22T14:52:26.798Z</time></trkpt><trkpt lat="42.58934127886242" lon="11.28986559741184"><ele>61.333333333333336</ele><time>2026-03-22T14:52:27.798Z</time></trkpt><trkpt lat="42.58937369137013" lon="11.29008195452184"><ele>60.66666666666667</ele><time>2026-03-22T14:52:28.798Z</time></trkpt><trkpt lat="42.58939839974086" lon="11.29028257668914"><ele>60.0</ele><time>2026-03-22T14:52:29.798Z</time></trkpt><trkpt lat="42.589406730621256" lon="11.29048118307484"><ele>60.0</ele><time>2026-03-22T14:52:30.797Z</time></trkpt><trkpt lat="42.589431837641904" lon="11.290677783000646"><ele>60.0</ele><time>2026-03-22T14:52:31.797Z</time></trkpt><trkpt lat="42.589399930842106" lon="11.290875393286422"><ele>60.0</ele><time>2026-03-22T14:52:32.797Z</time></trkpt><trkpt lat="42.589355855441696" lon="11.291076007495796"><ele>60.0</ele><time>2026-03-22T14:52:33.797Z</time></trkpt><trkpt lat="42.58931058339095" lon="11.29128954109078"><ele>60.0</ele><time>2026-03-22T14:52:34.797Z</time></trkpt><trkpt lat="42.58920864707867" lon="11.291495247487681"><ele>60.0</ele><time>2026-03-22T14:52:35.797Z</time></trkpt><trkpt lat="42.589163566634014" lon="11.291710799440084"><ele>59.66666666666667</ele><time>2026-03-22T14:52:36.797Z</time></trkpt><trkpt lat="42.5891214487528" lon="11.29191773167065"><ele>59.333333333333336</ele><time>2026-03-22T14:52:37.797Z</time></trkpt><trkpt lat="42.58908472148855" lon="11.292127321395169"><ele>59.0</ele><time>2026-03-22T14:52:38.797Z</time></trkpt><trkpt lat="42.58906915171704" lon="11.292340785681244"><ele>58.333333333333336</ele><time>2026-03-22T14:52:39.797Z</time></trkpt><trkpt lat="42.58907219220189" lon="11.292562721656827"><ele>57.66666666666667</ele><time>2026-03-22T14:52:40.797Z</time></trkpt><trkpt lat="42.58909703541753" lon="11.292795016850995"><ele>57.0</ele><time>2026-03-22T14:52:41.797Z</time></trkpt><trkpt lat="42.58911985763492" lon="11.293029466464995"><ele>55.0</ele><time>2026-03-22T14:52:42.797Z</time></trkpt><trkpt lat="42.58914338005419" lon="11.29327493775054"><ele>53.0</ele><time>2026-03-22T14:52:43.797Z</time></trkpt><trkpt lat="42.58916904206394" lon="11.293532794598713"><ele>51.0</ele><time>2026-03-22T14:52:44.797Z</time></trkpt><trkpt lat="42.589196878822186" lon="11.293802707373741"><ele>50.33333333333333</ele><time>2026-03-22T14:52:45.797Z</time></trkpt><trkpt lat="42.58922433301728" lon="11.294077394153097"><ele>49.666666666666664</ele><time>2026-03-22T14:52:46.797Z</time></trkpt><trkpt lat="42.58924845047307" lon="11.294337288770985"><ele>49.0</ele><time>2026-03-22T14:52:47.796Z</time></trkpt><trkpt lat="42.58926746312079" lon="11.294585600011155"><ele>49.33333333333333</ele><time>2026-03-22T14:52:48.796Z</time></trkpt><trkpt lat="42.58927954488163" lon="11.294828058038762"><ele>49.66666666666667</ele><time>2026-03-22T14:52:49.796Z</time></trkpt><trkpt lat="42.58928637137047" lon="11.295059844073487"><ele>50.0</ele><time>2026-03-22T14:52:50.796Z</time></trkpt><trkpt lat="42.58928774617539" lon="11.295260925562404"><ele>50.0</ele><time>2026-03-22T14:52:51.796Z</time></trkpt><trkpt lat="42.58927961360525" lon="11.295429793013726"><ele>50.0</ele><time>2026-03-22T14:52:52.796Z</time></trkpt><trkpt lat="42.58924888050122" lon="11.29558031190473"><ele>50.0</ele><time>2026-03-22T14:52:53.796Z</time></trkpt><trkpt lat="42.589190749700386" lon="11.295706505429713"><ele>50.0</ele><time>2026-03-22T14:52:54.796Z</time></trkpt><trkpt lat="42.589105826635034" lon="11.295819874507668"><ele>48.75</ele><time>2026-03-22T14:52:55.796Z</time></trkpt><trkpt lat="42.58900033088731" lon="11.295916872799257"><ele>47.5</ele><time>2026-03-22T14:52:56.796Z</time></trkpt><trkpt lat="42.588875121760985" lon="11.295994728854954"><ele>46.25</ele><time>2026-03-22T14:52:57.796Z</time></trkpt><trkpt lat="42.58873024287445" lon="11.29607946708937"><ele>45.0</ele><time>2026-03-22T14:52:58.796Z</time></trkpt><trkpt lat="42.588578149581735" lon="11.296168424942824"><ele>44.666666666666664</ele><time>2026-03-22T14:52:59.796Z</time></trkpt><trkpt lat="42.58842007750318" lon="11.296263624509143"><ele>44.33333333333333</ele><time>2026-03-22T14:53:00.796Z</time></trkpt><trkpt lat="42.58825550853484" lon="11.296361227804459"><ele>44.0</ele><time>2026-03-22T14:53:01.796Z</time></trkpt><trkpt lat="42.588084060369894" lon="11.296461661066934"><ele>44.0</ele><time>2026-03-22T14:53:02.796Z</time></trkpt><trkpt lat="42.58791485689474" lon="11.29656098819511"><ele>44.0</ele><time>2026-03-22T14:53:03.795Z</time></trkpt><trkpt lat="42.58775446486266" lon="11.296656692663765"><ele>44.0</ele><time>2026-03-22T14:53:04.795Z</time></trkpt><trkpt lat="42.587600071125614" lon="11.296748818081966"><ele>44.0</ele><time>2026-03-22T14:53:05.795Z</time></trkpt><trkpt lat="42.58745488119415" lon="11.296836170160686"><ele>44.0</ele><time>2026-03-22T14:53:06.795Z</time></trkpt><trkpt lat="42.58732153552105" lon="11.296926227706692"><ele>44.0</ele><time>2026-03-22T14:53:07.795Z</time></trkpt><trkpt lat="42.58719481985806" lon="11.297042442470584"><ele>44.0</ele><time>2026-03-22T14:53:08.795Z</time></trkpt><trkpt lat="42.58709048994748" lon="11.297197955186654"><ele>44.0</ele><time>2026-03-22T14:53:09.795Z</time></trkpt><trkpt lat="42.58700574854723" lon="11.297388334380582"><ele>44.0</ele><time>2026-03-22T14:53:10.795Z</time></trkpt><trkpt lat="42.586925434070324" lon="11.297585321972816"><ele>44.33333333333333</ele><time>2026-03-22T14:53:11.795Z</time></trkpt><trkpt lat="42.58683690504182" lon="11.297795709899338"><ele>44.666666666666664</ele><time>2026-03-22T14:53:12.795Z</time></trkpt><trkpt lat="42.586745228127455" lon="11.298016604305078"><ele>45.0</ele><time>2026-03-22T14:53:13.795Z</time></trkpt><trkpt lat="42.5866536111393" lon="11.298239641539201"><ele>46.66666666666667</ele><time>2026-03-22T14:53:14.795Z</time></trkpt><trkpt lat="42.586555823159216" lon="11.29847770183388"><ele>48.333333333333336</ele><time>2026-03-22T14:53:15.795Z</time></trkpt><trkpt lat="42.58645399996294" lon="11.298726235679236"><ele>50.0</ele><time>2026-03-22T14:53:16.795Z</time></trkpt><trkpt lat="42.58635246729202" lon="11.298974209665797"><ele>52.0</ele><time>2026-03-22T14:53:17.795Z</time></trkpt><trkpt lat="42.58625051960158" lon="11.299223197216175"><ele>54.0</ele><time>2026-03-22T14:53:18.795Z</time></trkpt><trkpt lat="42.586151457545625" lon="11.299459995663522"><ele>56.0</ele><time>2026-03-22T14:53:19.795Z</time></trkpt><trkpt lat="42.586050544744914" lon="11.29969658131405"><ele>58.333333333333336</ele><time>2026-03-22T14:53:20.794Z</time></trkpt><trkpt lat="42.5859545593338" lon="11.299926874800239"><ele>60.66666666666667</ele><time>2026-03-22T14:53:21.794Z</time></trkpt><trkpt lat="42.58586695800596" lon="11.300141054557384"><ele>63.0</ele><time>2026-03-22T14:53:22.794Z</time></trkpt><trkpt lat="42.585782243161134" lon="11.300347443272747"><ele>63.0</ele><time>2026-03-22T14:53:23.794Z</time></trkpt><trkpt lat="42.585699995521956" lon="11.300547336357107"><ele>63.0</ele><time>2026-03-22T14:53:24.794Z</time></trkpt><trkpt lat="42.58562103076874" lon="11.300738717347913"><ele>63.0</ele><time>2026-03-22T14:53:25.794Z</time></trkpt><trkpt lat="42.58554109112741" lon="11.300939126447867"><ele>62.66666666666667</ele><time>2026-03-22T14:53:26.794Z</time></trkpt><trkpt lat="42.5854606261584" lon="11.301146029057762"><ele>62.333333333333336</ele><time>2026-03-22T14:53:27.794Z</time></trkpt><trkpt lat="42.585377149391675" lon="11.301363024036815"><ele>62.0</ele><time>2026-03-22T14:53:28.794Z</time></trkpt><trkpt lat="42.5852908900908" lon="11.3015886918382"><ele>61.0</ele><time>2026-03-22T14:53:29.794Z</time></trkpt><trkpt lat="42.58520318466806" lon="11.301818143151726"><ele>60.0</ele><time>2026-03-22T14:53:30.794Z</time></trkpt><trkpt lat="42.58511296083904" lon="11.302054182957793"><ele>59.0</ele><time>2026-03-22T14:53:31.794Z</time></trkpt><trkpt lat="42.58502367225865" lon="11.302287776000599"><ele>58.66666666666667</ele><time>2026-03-22T14:53:32.794Z</time></trkpt><trkpt lat="42.58493189896414" lon="11.302527869190898"><ele>58.33333333333333</ele><time>2026-03-22T14:53:33.794Z</time></trkpt><trkpt lat="42.5848407790682" lon="11.302765716642178"><ele>58.0</ele><time>2026-03-22T14:53:34.794Z</time></trkpt><trkpt lat="42.58474735396792" lon="11.303005937673875"><ele>58.0</ele><time>2026-03-22T14:53:35.794Z</time></trkpt><trkpt lat="42.584654834718854" lon="11.303243829243836"><ele>58.0</ele><time>2026-03-22T14:53:36.794Z</time></trkpt><trkpt lat="42.58456357973681" lon="11.303478470400734"><ele>58.0</ele><time>2026-03-22T14:53:37.793Z</time></trkpt><trkpt lat="42.58447327637644" lon="11.303710664474984"><ele>58.666666666666664</ele><time>2026-03-22T14:53:38.793Z</time></trkpt><trkpt lat="42.58438411609325" lon="11.30394075360781"><ele>59.33333333333333</ele><time>2026-03-22T14:53:39.793Z</time></trkpt><trkpt lat="42.58429505476876" lon="11.304172666021376"><ele>60.0</ele><time>2026-03-22T14:53:40.793Z</time></trkpt><trkpt lat="42.58420757782628" lon="11.304400318364161"><ele>60.0</ele><time>2026-03-22T14:53:41.793Z</time></trkpt><trkpt lat="42.58411838339755" lon="11.30463244015493"><ele>60.0</ele><time>2026-03-22T14:53:42.793Z</time></trkpt><trkpt lat="42.58402887932161" lon="11.30486536789084"><ele>60.0</ele><time>2026-03-22T14:53:43.793Z</time></trkpt><trkpt lat="42.58393981400754" lon="11.305097196107708"><ele>60.66666666666667</ele><time>2026-03-22T14:53:44.793Z</time></trkpt><trkpt lat="42.583852546872826" lon="11.305324357243322"><ele>61.333333333333336</ele><time>2026-03-22T14:53:45.793Z</time></trkpt><trkpt lat="42.583769730288104" lon="11.305539933341244"><ele>62.0</ele><time>2026-03-22T14:53:46.793Z</time></trkpt><trkpt lat="42.583689826194714" lon="11.305740292917157"><ele>62.333333333333336</ele><time>2026-03-22T14:53:47.793Z</time></trkpt><trkpt lat="42.58361298191026" lon="11.30593418614643"><ele>62.66666666666667</ele><time>2026-03-22T14:53:48.793Z</time></trkpt><trkpt lat="42.583543587129576" lon="11.306127870645547"><ele>63.0</ele><time>2026-03-22T14:53:49.793Z</time></trkpt><trkpt lat="42.583485081762724" lon="11.306325606866247"><ele>63.33333333333333</ele><time>2026-03-22T14:53:50.793Z</time></trkpt><trkpt lat="42.583442528927776" lon="11.306520263193406"><ele>63.666666666666664</ele><time>2026-03-22T14:53:51.793Z</time></trkpt><trkpt lat="42.58342484007846" lon="11.306736981123493"><ele>64.0</ele><time>2026-03-22T14:53:52.793Z</time></trkpt><trkpt lat="42.58344035910306" lon="11.306943412596773"><ele>64.0</ele><time>2026-03-22T14:53:53.793Z</time></trkpt><trkpt lat="42.5834681172196" lon="11.307144646258747"><ele>64.0</ele><time>2026-03-22T14:53:54.792Z</time></trkpt><trkpt lat="42.58350751778989" lon="11.307347843117382"><ele>64.0</ele><time>2026-03-22T14:53:55.792Z</time></trkpt><trkpt lat="42.583550613773006" lon="11.307558924978546"><ele>64.0</ele><time>2026-03-22T14:53:56.792Z</time></trkpt><trkpt lat="42.583599056381374" lon="11.307785078162334"><ele>64.0</ele><time>2026-03-22T14:53:57.792Z</time></trkpt><trkpt lat="42.583648113390836" lon="11.308014793473205"><ele>64.0</ele><time>2026-03-22T14:53:58.792Z</time></trkpt><trkpt lat="42.58369920351509" lon="11.308254029120251"><ele>64.0</ele><time>2026-03-22T14:53:59.792Z</time></trkpt><trkpt lat="42.58374836520958" lon="11.30848292217707"><ele>64.0</ele><time>2026-03-22T14:54:00.792Z</time></trkpt><trkpt lat="42.58379883798453" lon="11.308705543229019"><ele>64.0</ele><time>2026-03-22T14:54:01.792Z</time></trkpt><trkpt lat="42.58383999200418" lon="11.308917826070266"><ele>64.0</ele><time>2026-03-22T14:54:02.792Z</time></trkpt><trkpt lat="42.58386185865324" lon="11.309123757280522"><ele>64.0</ele><time>2026-03-22T14:54:03.792Z</time></trkpt><trkpt lat="42.583843052191234" lon="11.309303681918623"><ele>64.0</ele><time>2026-03-22T14:54:04.792Z</time></trkpt><trkpt lat="42.58380249513797" lon="11.309482039364246"><ele>64.0</ele><time>2026-03-22T14:54:05.792Z</time></trkpt><trkpt lat="42.58374494185332" lon="11.309661761734732"><ele>64.0</ele><time>2026-03-22T14:54:06.792Z</time></trkpt><trkpt lat="42.58367364838537" lon="11.309846441890231"><ele>64.0</ele><time>2026-03-22T14:54:07.792Z</time></trkpt><trkpt lat="42.58359196939989" lon="11.310051364756818"><ele>64.0</ele><time>2026-03-22T14:54:08.792Z</time></trkpt><trkpt lat="42.58350302852517" lon="11.310265992850406"><ele>64.0</ele><time>2026-03-22T14:54:09.792Z</time></trkpt><trkpt lat="42.58340863427403" lon="11.310493566019582"><ele>64.0</ele><time>2026-03-22T14:54:10.792Z</time></trkpt><trkpt lat="42.58331349597453" lon="11.310722933010625"><ele>64.0</ele><time>2026-03-22T14:54:11.791Z</time></trkpt><trkpt lat="42.583214131322855" lon="11.310962489576692"><ele>65.33333333333333</ele><time>2026-03-22T14:54:12.791Z</time></trkpt><trkpt lat="42.58310923488135" lon="11.311215382367289"><ele>66.66666666666667</ele><time>2026-03-22T14:54:13.791Z</time></trkpt><trkpt lat="42.58300411179125" lon="11.311468821712145"><ele>68.0</ele><time>2026-03-22T14:54:14.791Z</time></trkpt><trkpt lat="42.58289690793911" lon="11.311727278056503"><ele>70.0</ele><time>2026-03-22T14:54:15.794Z</time></trkpt><trkpt lat="42.582788404957945" lon="11.31198886540418"><ele>72.0</ele><time>2026-03-22T14:54:16.794Z</time></trkpt><trkpt lat="42.582678334964825" lon="11.31225423070839"><ele>74.0</ele><time>2026-03-22T14:54:17.794Z</time></trkpt><trkpt lat="42.58256931457251" lon="11.31251706617586"><ele>74.66666666666667</ele><time>2026-03-22T14:54:18.794Z</time></trkpt><trkpt lat="42.582467986216415" lon="11.312771230398058"><ele>75.33333333333333</ele><time>2026-03-22T14:54:19.794Z</time></trkpt><trkpt lat="42.582383730117044" lon="11.313025575398823"><ele>76.0</ele><time>2026-03-22T14:54:20.794Z</time></trkpt><trkpt lat="42.58232281106346" lon="11.313291986264808"><ele>77.0</ele><time>2026-03-22T14:54:21.793Z</time></trkpt><trkpt lat="42.58227969046998" lon="11.313570722147267"><ele>78.0</ele><time>2026-03-22T14:54:22.794Z</time></trkpt><trkpt lat="42.582246366968114" lon="11.313850949922578"><ele>79.0</ele><time>2026-03-22T14:54:23.794Z</time></trkpt><trkpt lat="42.582215265970525" lon="11.314130905383156"><ele>80.0</ele><time>2026-03-22T14:54:24.793Z</time></trkpt><trkpt lat="42.58218511879107" lon="11.314407602717404"><ele>81.0</ele><time>2026-03-22T14:54:25.794Z</time></trkpt><trkpt lat="42.582155400375385" lon="11.314693959870834"><ele>82.0</ele><time>2026-03-22T14:54:26.794Z</time></trkpt><trkpt lat="42.582125737454" lon="11.314979782683753"><ele>82.66666666666666</ele><time>2026-03-22T14:54:27.794Z</time></trkpt><trkpt lat="42.5820961548472" lon="11.315264831593108"><ele>83.33333333333333</ele><time>2026-03-22T14:54:28.794Z</time></trkpt><trkpt lat="42.582072556245166" lon="11.315528597909623"><ele>84.0</ele><time>2026-03-22T14:54:29.794Z</time></trkpt><trkpt lat="42.582057867133194" lon="11.315776367891202"><ele>84.66666666666667</ele><time>2026-03-22T14:54:30.794Z</time></trkpt><trkpt lat="42.58204836760031" lon="11.316028655832735"><ele>85.33333333333334</ele><time>2026-03-22T14:54:31.794Z</time></trkpt><trkpt lat="42.582053287294855" lon="11.316282902668716"><ele>86.0</ele><time>2026-03-22T14:54:32.794Z</time></trkpt><trkpt lat="42.582061868788124" lon="11.31652653688574"><ele>86.66666666666667</ele><time>2026-03-22T14:54:33.794Z</time></trkpt><trkpt lat="42.58207491525339" lon="11.316767375459301"><ele>87.33333333333333</ele><time>2026-03-22T14:54:34.794Z</time></trkpt><trkpt lat="42.582089868428824" lon="11.317012693442862"><ele>88.0</ele><time>2026-03-22T14:54:35.794Z</time></trkpt><trkpt lat="42.582105179746264" lon="11.317265814538118"><ele>88.0</ele><time>2026-03-22T14:54:36.793Z</time></trkpt><trkpt lat="42.582119420688734" lon="11.317501241167964"><ele>88.0</ele><time>2026-03-22T14:54:37.793Z</time></trkpt><trkpt lat="42.58213345032388" lon="11.317733173952954"><ele>88.0</ele><time>2026-03-22T14:54:38.793Z</time></trkpt><trkpt lat="42.582143185724135" lon="11.317943050093556"><ele>87.60000000000001</ele><time>2026-03-22T14:54:39.793Z</time></trkpt><trkpt lat="42.58213973178606" lon="11.31812026553453"><ele>87.2</ele><time>2026-03-22T14:54:40.793Z</time></trkpt><trkpt lat="42.58211216010827" lon="11.3182522869859"><ele>86.8</ele><time>2026-03-22T14:54:41.793Z</time></trkpt><trkpt lat="42.582067456150995" lon="11.318379101290011"><ele>86.4</ele><time>2026-03-22T14:54:42.793Z</time></trkpt><trkpt lat="42.58200422025854" lon="11.318492437508434"><ele>86.0</ele><time>2026-03-22T14:54:43.793Z</time></trkpt><trkpt lat="42.58191824557098" lon="11.31861146295244"><ele>86.0</ele><time>2026-03-22T14:54:44.793Z</time></trkpt><trkpt lat="42.58180971638019" lon="11.318738724296376"><ele>86.0</ele><time>2026-03-22T14:54:45.793Z</time></trkpt><trkpt lat="42.58168934772052" lon="11.318861105215992"><ele>86.0</ele><time>2026-03-22T14:54:46.793Z</time></trkpt><trkpt lat="42.58155073698028" lon="11.31898319593725"><ele>87.0</ele><time>2026-03-22T14:54:47.793Z</time></trkpt><trkpt lat="42.58140564895931" lon="11.319114497752457"><ele>88.0</ele><time>2026-03-22T14:54:48.793Z</time></trkpt><trkpt lat="42.581260594791445" lon="11.31924597952258"><ele>89.0</ele><time>2026-03-22T14:54:49.793Z</time></trkpt><trkpt lat="42.58111051161259" lon="11.319380534247832"><ele>89.33333333333334</ele><time>2026-03-22T14:54:50.793Z</time></trkpt><trkpt lat="42.580957039986124" lon="11.319517188874622"><ele>89.66666666666667</ele><time>2026-03-22T14:54:51.793Z</time></trkpt><trkpt lat="42.58080289356407" lon="11.319654442845788"><ele>90.0</ele><time>2026-03-22T14:54:52.793Z</time></trkpt><trkpt lat="42.580649813278356" lon="11.319793787972559"><ele>90.0</ele><time>2026-03-22T14:54:53.792Z</time></trkpt><trkpt lat="42.58049850273032" lon="11.3199426673076"><ele>90.0</ele><time>2026-03-22T14:54:54.792Z</time></trkpt><trkpt lat="42.580360008878294" lon="11.320108770077315"><ele>90.0</ele><time>2026-03-22T14:54:55.792Z</time></trkpt><trkpt lat="42.58022953348962" lon="11.320283677373515"><ele>90.0</ele><time>2026-03-22T14:54:56.792Z</time></trkpt><trkpt lat="42.5801016802466" lon="11.320464310209417"><ele>90.0</ele><time>2026-03-22T14:54:57.792Z</time></trkpt><trkpt lat="42.579971933634404" lon="11.320648498369373"><ele>90.0</ele><time>2026-03-22T14:54:58.792Z</time></trkpt><trkpt lat="42.579840148934565" lon="11.32083557997031"><ele>90.0</ele><time>2026-03-22T14:54:59.792Z</time></trkpt><trkpt lat="42.57970735978801" lon="11.321033247847106"><ele>90.0</ele><time>2026-03-22T14:55:00.792Z</time></trkpt><trkpt lat="42.5795786025638" lon="11.321238099139222"><ele>90.0</ele><time>2026-03-22T14:55:01.792Z</time></trkpt><trkpt lat="42.57945188293983" lon="11.321462470444214"><ele>87.66666666666667</ele><time>2026-03-22T14:55:02.792Z</time></trkpt><trkpt lat="42.57933367506321" lon="11.32169425497217"><ele>85.33333333333334</ele><time>2026-03-22T14:55:03.792Z</time></trkpt><trkpt lat="42.579213885798175" lon="11.321931976483347"><ele>83.0</ele><time>2026-03-22T14:55:04.792Z</time></trkpt><trkpt lat="42.57909592049212" lon="11.322169838547348"><ele>83.66666666666667</ele><time>2026-03-22T14:55:05.792Z</time></trkpt><trkpt lat="42.578965091709065" lon="11.322399441863928"><ele>84.33333333333333</ele><time>2026-03-22T14:55:06.792Z</time></trkpt><trkpt lat="42.57881676062161" lon="11.322607636543559"><ele>85.0</ele><time>2026-03-22T14:55:07.792Z</time></trkpt><trkpt lat="42.5786632470387" lon="11.3228175717148"><ele>85.0</ele><time>2026-03-22T14:55:08.792Z</time></trkpt><trkpt lat="42.57851075874195" lon="11.323023297895231"><ele>85.0</ele><time>2026-03-22T14:55:09.792Z</time></trkpt><trkpt lat="42.57836308450168" lon="11.323222121198746"><ele>85.0</ele><time>2026-03-22T14:55:10.791Z</time></trkpt><trkpt lat="42.5782249538799" lon="11.32341113368947"><ele>85.33333333333333</ele><time>2026-03-22T14:55:11.791Z</time></trkpt><trkpt lat="42.57808403166565" lon="11.323603965862928"><ele>85.66666666666667</ele><time>2026-03-22T14:55:12.791Z</time></trkpt><trkpt lat="42.57794279863717" lon="11.323797223793305"><ele>86.0</ele><time>2026-03-22T14:55:13.791Z</time></trkpt><trkpt lat="42.57779874489735" lon="11.323992409061587"><ele>87.0</ele><time>2026-03-22T14:55:14.791Z</time></trkpt><trkpt lat="42.57765053488779" lon="11.324191999523082"><ele>88.0</ele><time>2026-03-22T14:55:15.791Z</time></trkpt><trkpt lat="42.57750485105771" lon="11.32439043795487"><ele>89.0</ele><time>2026-03-22T14:55:16.791Z</time></trkpt><trkpt lat="42.577365511565674" lon="11.324580234472883"><ele>90.33333333333334</ele><time>2026-03-22T14:55:17.792Z</time></trkpt><trkpt lat="42.57723594228962" lon="11.32475094409893"><ele>91.66666666666667</ele><time>2026-03-22T14:55:18.793Z</time></trkpt><trkpt lat="42.577109869988824" lon="11.324913092561555"><ele>93.0</ele><time>2026-03-22T14:55:19.795Z</time></trkpt><trkpt lat="42.57697515481996" lon="11.325058744540504"><ele>93.0</ele><time>2026-03-22T14:55:20.796Z</time></trkpt><trkpt lat="42.576829486039216" lon="11.325176735567146"><ele>93.0</ele><time>2026-03-22T14:55:21.797Z</time></trkpt><trkpt lat="42.57666708139824" lon="11.325288597503118"><ele>93.0</ele><time>2026-03-22T14:55:22.799Z</time></trkpt><trkpt lat="42.576496646522976" lon="11.325388548334608"><ele>93.0</ele><time>2026-03-22T14:55:23.8Z</time></trkpt><trkpt lat="42.57631213967075" lon="11.325482536898896"><ele>93.0</ele><time>2026-03-22T14:55:24.801Z</time></trkpt><trkpt lat="42.57612235050539" lon="11.325576683521952"><ele>93.0</ele><time>2026-03-22T14:55:25.802Z</time></trkpt><trkpt lat="42.57593783445851" lon="11.325668212719743"><ele>94.0</ele><time>2026-03-22T14:55:26.803Z</time></trkpt><trkpt lat="42.57575833090664" lon="11.325757255516697"><ele>95.0</ele><time>2026-03-22T14:55:27.803Z</time></trkpt><trkpt lat="42.57557486212311" lon="11.3258697928527"><ele>96.0</ele><time>2026-03-22T14:55:28.804Z</time></trkpt><trkpt lat="42.575398285642244" lon="11.325994525846365"><ele>96.0</ele><time>2026-03-22T14:55:29.805Z</time></trkpt><trkpt lat="42.575224966367195" lon="11.326120007222157"><ele>96.0</ele><time>2026-03-22T14:55:30.806Z</time></trkpt><trkpt lat="42.575051975600914" lon="11.32624803664834"><ele>96.0</ele><time>2026-03-22T14:55:31.806Z</time></trkpt><trkpt lat="42.57487908716643" lon="11.326377169603484"><ele>97.66666666666666</ele><time>2026-03-22T14:55:32.807Z</time></trkpt><trkpt lat="42.57470794895558" lon="11.326505064250622"><ele>99.33333333333333</ele><time>2026-03-22T14:55:33.807Z</time></trkpt><trkpt lat="42.57453550063377" lon="11.326640375632627"><ele>101.0</ele><time>2026-03-22T14:55:34.808Z</time></trkpt><trkpt lat="42.57436551746558" lon="11.326783283706504"><ele>101.0</ele><time>2026-03-22T14:55:35.808Z</time></trkpt><trkpt lat="42.57420263544904" lon="11.326932691097108"><ele>101.0</ele><time>2026-03-22T14:55:36.809Z</time></trkpt><trkpt lat="42.574041805034284" lon="11.327091682389264"><ele>101.0</ele><time>2026-03-22T14:55:37.809Z</time></trkpt><trkpt lat="42.5738939569926" lon="11.327243656997096"><ele>101.33333333333333</ele><time>2026-03-22T14:55:38.81Z</time></trkpt><trkpt lat="42.573744822185745" lon="11.327396954417726"><ele>101.66666666666666</ele><time>2026-03-22T14:55:39.81Z</time></trkpt><trkpt lat="42.573594922177705" lon="11.327550759998642"><ele>102.0</ele><time>2026-03-22T14:55:40.81Z</time></trkpt><trkpt lat="42.5734436914316" lon="11.327705695938771"><ele>102.0</ele><time>2026-03-22T14:55:41.811Z</time></trkpt><trkpt lat="42.573291895481965" lon="11.327859011859873"><ele>102.0</ele><time>2026-03-22T14:55:42.811Z</time></trkpt><trkpt lat="42.57314041423622" lon="11.328009735691213"><ele>102.0</ele><time>2026-03-22T14:55:43.811Z</time></trkpt><trkpt lat="42.57299527858881" lon="11.328146002038041"><ele>101.66666666666666</ele><time>2026-03-22T14:55:44.811Z</time></trkpt><trkpt lat="42.57284748723226" lon="11.328275986300719"><ele>101.33333333333333</ele><time>2026-03-22T14:55:45.812Z</time></trkpt><trkpt lat="42.57269314789671" lon="11.328380296372162"><ele>101.0</ele><time>2026-03-22T14:55:46.812Z</time></trkpt><trkpt lat="42.57252886580307" lon="11.328467122961237"><ele>101.0</ele><time>2026-03-22T14:55:47.812Z</time></trkpt><trkpt lat="42.57235354740993" lon="11.328536452067723"><ele>101.0</ele><time>2026-03-22T14:55:48.812Z</time></trkpt><trkpt lat="42.57217478626509" lon="11.328599459073942"><ele>101.0</ele><time>2026-03-22T14:55:49.812Z</time></trkpt><trkpt lat="42.57198915755184" lon="11.3286630285368"><ele>99.66666666666666</ele><time>2026-03-22T14:55:50.812Z</time></trkpt><trkpt lat="42.57179895225427" lon="11.328728166908869"><ele>98.33333333333334</ele><time>2026-03-22T14:55:51.813Z</time></trkpt><trkpt lat="42.57160483484347" lon="11.32879464338289"><ele>97.0</ele><time>2026-03-22T14:55:52.813Z</time></trkpt><trkpt lat="42.571409257087886" lon="11.328861619954102"><ele>96.33333333333334</ele><time>2026-03-22T14:55:53.813Z</time></trkpt><trkpt lat="42.57121349793742" lon="11.3289286586534"><ele>95.66666666666667</ele><time>2026-03-22T14:55:54.813Z</time></trkpt><trkpt lat="42.57101766701806" lon="11.328995399858226"><ele>95.0</ele><time>2026-03-22T14:55:55.813Z</time></trkpt><trkpt lat="42.570826257670305" lon="11.32905969809217"><ele>95.0</ele><time>2026-03-22T14:55:56.813Z</time></trkpt><trkpt lat="42.570641448292726" lon="11.329121779277841"><ele>95.0</ele><time>2026-03-22T14:55:57.813Z</time></trkpt><trkpt lat="42.57045302505533" lon="11.32918507441338"><ele>95.0</ele><time>2026-03-22T14:55:58.813Z</time></trkpt><trkpt lat="42.570261928226586" lon="11.329249267667587"><ele>95.0</ele><time>2026-03-22T14:55:59.813Z</time></trkpt><trkpt lat="42.57006436845221" lon="11.329316674940547"><ele>95.0</ele><time>2026-03-22T14:56:00.813Z</time></trkpt><trkpt lat="42.569861965532795" lon="11.329381578556893"><ele>95.0</ele><time>2026-03-22T14:56:01.813Z</time></trkpt><trkpt lat="42.56964681585185" lon="11.329430965439649"><ele>95.0</ele><time>2026-03-22T14:56:02.813Z</time></trkpt><trkpt lat="42.56942828931425" lon="11.329465297753258"><ele>95.0</ele><time>2026-03-22T14:56:03.813Z</time></trkpt><trkpt lat="42.56921449473773" lon="11.32949706074313"><ele>95.0</ele><time>2026-03-22T14:56:04.814Z</time></trkpt><trkpt lat="42.569013042166766" lon="11.329529564456454"><ele>95.0</ele><time>2026-03-22T14:56:05.814Z</time></trkpt><trkpt lat="42.56882535426295" lon="11.329559847289461"><ele>95.0</ele><time>2026-03-22T14:56:06.814Z</time></trkpt><trkpt lat="42.56865062581911" lon="11.32959783604408"><ele>95.0</ele><time>2026-03-22T14:56:07.814Z</time></trkpt><trkpt lat="42.568486002326914" lon="11.329690262291956"><ele>93.0</ele><time>2026-03-22T14:56:08.814Z</time></trkpt><trkpt lat="42.56832848987726" lon="11.329791482054144"><ele>91.0</ele><time>2026-03-22T14:56:09.814Z</time></trkpt><trkpt lat="42.568221022131645" lon="11.329948517189523"><ele>89.0</ele><time>2026-03-22T14:56:10.814Z</time></trkpt><trkpt lat="42.568136786124704" lon="11.330125173738951"><ele>89.0</ele><time>2026-03-22T14:56:11.814Z</time></trkpt><trkpt lat="42.56804670513682" lon="11.33030682847808"><ele>89.0</ele><time>2026-03-22T14:56:12.814Z</time></trkpt><trkpt lat="42.567956196907836" lon="11.330489344777513"><ele>89.0</ele><time>2026-03-22T14:56:13.814Z</time></trkpt><trkpt lat="42.567870852844386" lon="11.330661447107405"><ele>89.5</ele><time>2026-03-22T14:56:14.814Z</time></trkpt><trkpt lat="42.567814966262496" lon="11.33084581053676"><ele>90.0</ele><time>2026-03-22T14:56:15.814Z</time></trkpt><trkpt lat="42.56775091628787" lon="11.331032498622479"><ele>90.5</ele><time>2026-03-22T14:56:16.814Z</time></trkpt><trkpt lat="42.56766385699873" lon="11.331182165103094"><ele>91.0</ele><time>2026-03-22T14:56:17.814Z</time></trkpt><trkpt lat="42.56758522250119" lon="11.331343345620498"><ele>89.6</ele><time>2026-03-22T14:56:18.813Z</time></trkpt><trkpt lat="42.56751427652982" lon="11.331466088090254"><ele>88.19999999999999</ele><time>2026-03-22T14:56:19.813Z</time></trkpt><trkpt lat="42.56743743337759" lon="11.331549065742763"><ele>86.80000000000001</ele><time>2026-03-22T14:56:20.813Z</time></trkpt><trkpt lat="42.56734277160665" lon="11.331593661081158"><ele>85.4</ele><time>2026-03-22T14:56:21.816Z</time></trkpt><trkpt lat="42.56724897916752" lon="11.331583035390283"><ele>84.0</ele><time>2026-03-22T14:56:22.816Z</time></trkpt><trkpt lat="42.56715732100718" lon="11.331524587241182"><ele>84.0</ele><time>2026-03-22T14:56:23.816Z</time></trkpt><trkpt lat="42.56706073277526" lon="11.331436379997003"><ele>84.0</ele><time>2026-03-22T14:56:24.816Z</time></trkpt><trkpt lat="42.56695059312489" lon="11.331352864378871"><ele>84.0</ele><time>2026-03-22T14:56:25.815Z</time></trkpt><trkpt lat="42.56683617224267" lon="11.331275155156325"><ele>84.0</ele><time>2026-03-22T14:56:26.815Z</time></trkpt><trkpt lat="42.56670444465896" lon="11.331200210952673"><ele>83.5</ele><time>2026-03-22T14:56:27.815Z</time></trkpt><trkpt lat="42.56655877749004" lon="11.331133593313126"><ele>83.0</ele><time>2026-03-22T14:56:28.816Z</time></trkpt><trkpt lat="42.56642730979201" lon="11.331054811541279"><ele>82.5</ele><time>2026-03-22T14:56:29.816Z</time></trkpt><trkpt lat="42.56628669558059" lon="11.33099066891185"><ele>82.0</ele><time>2026-03-22T14:56:30.815Z</time></trkpt><trkpt lat="42.56613871505492" lon="11.330957399769556"><ele>82.0</ele><time>2026-03-22T14:56:31.815Z</time></trkpt><trkpt lat="42.565964165238" lon="11.330914270598674"><ele>82.0</ele><time>2026-03-22T14:56:32.815Z</time></trkpt><trkpt lat="42.56576727551615" lon="11.330943966794182"><ele>82.0</ele><time>2026-03-22T14:56:33.816Z</time></trkpt><trkpt lat="42.56558284673002" lon="11.33099827840109"><ele>82.0</ele><time>2026-03-22T14:56:34.815Z</time></trkpt><trkpt lat="42.56539751605222" lon="11.331053491977695"><ele>82.0</ele><time>2026-03-22T14:56:35.815Z</time></trkpt><trkpt lat="42.56520657224443" lon="11.331114793875404"><ele>82.0</ele><time>2026-03-22T14:56:36.815Z</time></trkpt><trkpt lat="42.565006337559915" lon="11.331176430382396"><ele>81.33333333333333</ele><time>2026-03-22T14:56:37.815Z</time></trkpt><trkpt lat="42.564806055630555" lon="11.331235289369461"><ele>80.66666666666667</ele><time>2026-03-22T14:56:38.815Z</time></trkpt><trkpt lat="42.56461042616619" lon="11.331293093224035"><ele>80.0</ele><time>2026-03-22T14:56:39.815Z</time></trkpt><trkpt lat="42.56442443800855" lon="11.331349495731706"><ele>77.0</ele><time>2026-03-22T14:56:40.815Z</time></trkpt><trkpt lat="42.5642396623669" lon="11.331405530530473"><ele>74.0</ele><time>2026-03-22T14:56:41.815Z</time></trkpt><trkpt lat="42.564054064835155" lon="11.331466639110364"><ele>71.0</ele><time>2026-03-22T14:56:42.815Z</time></trkpt><trkpt lat="42.56387742323589" lon="11.331544048174072"><ele>71.0</ele><time>2026-03-22T14:56:43.815Z</time></trkpt><trkpt lat="42.56370932187034" lon="11.331657806689416"><ele>71.0</ele><time>2026-03-22T14:56:44.815Z</time></trkpt><trkpt lat="42.56354689127832" lon="11.33178992788568"><ele>71.0</ele><time>2026-03-22T14:56:45.815Z</time></trkpt><trkpt lat="42.56338430548213" lon="11.331933779548153"><ele>70.0</ele><time>2026-03-22T14:56:46.815Z</time></trkpt><trkpt lat="42.56321521275634" lon="11.332082856826691"><ele>69.0</ele><time>2026-03-22T14:56:47.815Z</time></trkpt><trkpt lat="42.56304668335498" lon="11.332231437490423"><ele>68.0</ele><time>2026-03-22T14:56:48.815Z</time></trkpt><trkpt lat="42.56287839247879" lon="11.332379807862035"><ele>68.66666666666667</ele><time>2026-03-22T14:56:49.814Z</time></trkpt><trkpt lat="42.56270916105629" lon="11.332529605100017"><ele>69.33333333333333</ele><time>2026-03-22T14:56:50.814Z</time></trkpt><trkpt lat="42.562539658994375" lon="11.332680013379653"><ele>70.0</ele><time>2026-03-22T14:56:51.814Z</time></trkpt><trkpt lat="42.56237515296004" lon="11.332826459659291"><ele>70.0</ele><time>2026-03-22T14:56:52.814Z</time></trkpt><trkpt lat="42.56221232423493" lon="11.332972184092727"><ele>70.0</ele><time>2026-03-22T14:56:53.814Z</time></trkpt><trkpt lat="42.56205251243147" lon="11.333113280565573"><ele>70.0</ele><time>2026-03-22T14:56:54.814Z</time></trkpt><trkpt lat="42.56189161076867" lon="11.333252941540264"><ele>69.0</ele><time>2026-03-22T14:56:55.814Z</time></trkpt><trkpt lat="42.56173618670012" lon="11.33338844415313"><ele>68.0</ele><time>2026-03-22T14:56:56.814Z</time></trkpt><trkpt lat="42.56158228490332" lon="11.333524307965837"><ele>67.0</ele><time>2026-03-22T14:56:57.814Z</time></trkpt><trkpt lat="42.56142660319345" lon="11.33366210169068"><ele>67.0</ele><time>2026-03-22T14:56:58.814Z</time></trkpt><trkpt lat="42.561275973182006" lon="11.333796845154298"><ele>67.0</ele><time>2026-03-22T14:56:59.814Z</time></trkpt><trkpt lat="42.561127464652806" lon="11.333930750153533"><ele>67.0</ele><time>2026-03-22T14:57:00.814Z</time></trkpt><trkpt lat="42.56098142859348" lon="11.334064271008396"><ele>66.0</ele><time>2026-03-22T14:57:01.814Z</time></trkpt><trkpt lat="42.56084158404799" lon="11.334183572720647"><ele>65.0</ele><time>2026-03-22T14:57:02.814Z</time></trkpt><trkpt lat="42.560709248234836" lon="11.33428238619772"><ele>64.0</ele><time>2026-03-22T14:57:03.814Z</time></trkpt><trkpt lat="42.560579246353015" lon="11.334348336378904"><ele>64.0</ele><time>2026-03-22T14:57:04.814Z</time></trkpt><trkpt lat="42.56045213051625" lon="11.334377922261513"><ele>64.0</ele><time>2026-03-22T14:57:05.814Z</time></trkpt><trkpt lat="42.56031578485294" lon="11.334370948468194"><ele>64.0</ele><time>2026-03-22T14:57:06.814Z</time></trkpt><trkpt lat="42.56017212185376" lon="11.334346751540204"><ele>64.0</ele><time>2026-03-22T14:57:07.814Z</time></trkpt><trkpt lat="42.560020286327855" lon="11.334309589267747"><ele>64.0</ele><time>2026-03-22T14:57:08.813Z</time></trkpt><trkpt lat="42.559858470089054" lon="11.334262507836504"><ele>64.0</ele><time>2026-03-22T14:57:09.813Z</time></trkpt><trkpt lat="42.5596903510806" lon="11.33421267239976"><ele>64.0</ele><time>2026-03-22T14:57:10.813Z</time></trkpt><trkpt lat="42.559513155600754" lon="11.334161096862985"><ele>61.666666666666664</ele><time>2026-03-22T14:57:11.813Z</time></trkpt><trkpt lat="42.55933396571223" lon="11.334109972870959"><ele>59.33333333333333</ele><time>2026-03-22T14:57:12.813Z</time></trkpt><trkpt lat="42.55915357491347" lon="11.334058662576146"><ele>57.0</ele><time>2026-03-22T14:57:13.813Z</time></trkpt><trkpt lat="42.55897048643761" lon="11.334006982278181"><ele>57.0</ele><time>2026-03-22T14:57:14.813Z</time></trkpt><trkpt lat="42.55878673053556" lon="11.33395780896909"><ele>57.0</ele><time>2026-03-22T14:57:15.813Z</time></trkpt><trkpt lat="42.55859989561835" lon="11.333929448254343"><ele>57.0</ele><time>2026-03-22T14:57:16.813Z</time></trkpt><trkpt lat="42.55842015470405" lon="11.333856393354328"><ele>55.66666666666667</ele><time>2026-03-22T14:57:17.813Z</time></trkpt><trkpt lat="42.55823544375234" lon="11.333803626098252"><ele>54.333333333333336</ele><time>2026-03-22T14:57:18.813Z</time></trkpt><trkpt lat="42.558048974872705" lon="11.333751290854636"><ele>53.0</ele><time>2026-03-22T14:57:19.813Z</time></trkpt><trkpt lat="42.557861571065715" lon="11.333699780561481"><ele>52.66666666666667</ele><time>2026-03-22T14:57:20.813Z</time></trkpt><trkpt lat="42.55767576124837" lon="11.33365004168819"><ele>52.33333333333333</ele><time>2026-03-22T14:57:21.813Z</time></trkpt><trkpt lat="42.5574882095658" lon="11.333602713028167"><ele>52.0</ele><time>2026-03-22T14:57:22.813Z</time></trkpt><trkpt lat="42.5573015627846" lon="11.333566877961783"><ele>52.0</ele><time>2026-03-22T14:57:23.813Z</time></trkpt><trkpt lat="42.55711415158318" lon="11.333556150324796"><ele>52.0</ele><time>2026-03-22T14:57:24.813Z</time></trkpt><trkpt lat="42.556923144464804" lon="11.33355795056747"><ele>52.0</ele><time>2026-03-22T14:57:25.813Z</time></trkpt><trkpt lat="42.55673180497264" lon="11.333563455464656"><ele>51.33333333333333</ele><time>2026-03-22T14:57:26.813Z</time></trkpt><trkpt lat="42.556538750833376" lon="11.333568351601285"><ele>50.66666666666667</ele><time>2026-03-22T14:57:27.812Z</time></trkpt><trkpt lat="42.55634102519891" lon="11.333573719886877"><ele>50.0</ele><time>2026-03-22T14:57:28.812Z</time></trkpt><trkpt lat="42.55614532274781" lon="11.333579948016293"><ele>47.66666666666667</ele><time>2026-03-22T14:57:29.812Z</time></trkpt><trkpt lat="42.555948051721224" lon="11.333586226063208"><ele>45.333333333333336</ele><time>2026-03-22T14:57:30.812Z</time></trkpt><trkpt lat="42.55575291113413" lon="11.333591886023592"><ele>43.0</ele><time>2026-03-22T14:57:31.812Z</time></trkpt><trkpt lat="42.55556223428368" lon="11.333597187906364"><ele>43.0</ele><time>2026-03-22T14:57:32.812Z</time></trkpt><trkpt lat="42.55537062107238" lon="11.333602515817356"><ele>43.0</ele><time>2026-03-22T14:57:33.812Z</time></trkpt><trkpt lat="42.55518075789031" lon="11.333607795063564"><ele>43.0</ele><time>2026-03-22T14:57:34.812Z</time></trkpt><trkpt lat="42.55499185689366" lon="11.333613047566606"><ele>43.333333333333336</ele><time>2026-03-22T14:57:35.812Z</time></trkpt><trkpt lat="42.55481226853437" lon="11.33361804112032"><ele>43.666666666666664</ele><time>2026-03-22T14:57:36.812Z</time></trkpt><trkpt lat="42.55462469318035" lon="11.333623256757628"><ele>44.0</ele><time>2026-03-22T14:57:37.812Z</time></trkpt><trkpt lat="42.55443082634448" lon="11.333628518349734"><ele>42.666666666666664</ele><time>2026-03-22T14:57:38.812Z</time></trkpt><trkpt lat="42.554236230616894" lon="11.333633511169996"><ele>41.333333333333336</ele><time>2026-03-22T14:57:39.812Z</time></trkpt><trkpt lat="42.55404284338626" lon="11.333638472972302"><ele>40.0</ele><time>2026-03-22T14:57:40.812Z</time></trkpt><trkpt lat="42.553849399575" lon="11.333643436233801"><ele>38.66666666666667</ele><time>2026-03-22T14:57:41.812Z</time></trkpt><trkpt lat="42.55366082293253" lon="11.333648274612738"><ele>37.333333333333336</ele><time>2026-03-22T14:57:42.812Z</time></trkpt><trkpt lat="42.55347623180773" lon="11.333653010732679"><ele>36.0</ele><time>2026-03-22T14:57:43.812Z</time></trkpt><trkpt lat="42.55329158025624" lon="11.33365774840757"><ele>36.0</ele><time>2026-03-22T14:57:44.812Z</time></trkpt><trkpt lat="42.55311425168876" lon="11.333662298194346"><ele>36.0</ele><time>2026-03-22T14:57:45.812Z</time></trkpt><trkpt lat="42.55293836569377" lon="11.333667127536357"><ele>36.0</ele><time>2026-03-22T14:57:46.811Z</time></trkpt><trkpt lat="42.552757784759436" lon="11.333672164475912"><ele>35.0</ele><time>2026-03-22T14:57:47.811Z</time></trkpt><trkpt lat="42.55257731766564" lon="11.33367719996043"><ele>34.0</ele><time>2026-03-22T14:57:48.811Z</time></trkpt><trkpt lat="42.55239369891791" lon="11.333682321630409"><ele>33.0</ele><time>2026-03-22T14:57:49.811Z</time></trkpt><trkpt lat="42.55220328403332" lon="11.333687632870063"><ele>32.666666666666664</ele><time>2026-03-22T14:57:50.811Z</time></trkpt><trkpt lat="42.552005586515065" lon="11.33369311618792"><ele>32.33333333333333</ele><time>2026-03-22T14:57:51.811Z</time></trkpt><trkpt lat="42.551802272882334" lon="11.333698729805192"><ele>32.0</ele><time>2026-03-22T14:57:52.811Z</time></trkpt><trkpt lat="42.55159292177023" lon="11.333704510123807"><ele>32.0</ele><time>2026-03-22T14:57:53.811Z</time></trkpt><trkpt lat="42.551386009170514" lon="11.333710223115515"><ele>32.0</ele><time>2026-03-22T14:57:54.811Z</time></trkpt><trkpt lat="42.55118726463145" lon="11.333715710582402"><ele>32.0</ele><time>2026-03-22T14:57:55.811Z</time></trkpt><trkpt lat="42.55098932790459" lon="11.333721175737777"><ele>31.666666666666664</ele><time>2026-03-22T14:57:56.811Z</time></trkpt><trkpt lat="42.5507912897893" lon="11.333726295261506"><ele>31.333333333333336</ele><time>2026-03-22T14:57:57.811Z</time></trkpt><trkpt lat="42.550594686803876" lon="11.333731106388251"><ele>31.0</ele><time>2026-03-22T14:57:58.811Z</time></trkpt><trkpt lat="42.55040501882286" lon="11.333769245402213"><ele>30.666666666666668</ele><time>2026-03-22T14:57:59.811Z</time></trkpt><trkpt lat="42.55021709081465" lon="11.33377488616506"><ele>30.333333333333336</ele><time>2026-03-22T14:58:00.811Z</time></trkpt><trkpt lat="42.55003422169889" lon="11.333782055838014"><ele>30.0</ele><time>2026-03-22T14:58:01.811Z</time></trkpt><trkpt lat="42.549854117963925" lon="11.33378969640882"><ele>30.0</ele><time>2026-03-22T14:58:02.811Z</time></trkpt><trkpt lat="42.549673180275754" lon="11.333753366208027"><ele>30.0</ele><time>2026-03-22T14:58:03.811Z</time></trkpt><trkpt lat="42.54949216413053" lon="11.333758090767699"><ele>30.0</ele><time>2026-03-22T14:58:04.81Z</time></trkpt><trkpt lat="42.54930865297221" lon="11.33376288044962"><ele>30.0</ele><time>2026-03-22T14:58:05.81Z</time></trkpt><trkpt lat="42.5491291798215" lon="11.333767701183797"><ele>30.0</ele><time>2026-03-22T14:58:06.81Z</time></trkpt><trkpt lat="42.54896059557974" lon="11.333771315074705"><ele>30.0</ele><time>2026-03-22T14:58:07.81Z</time></trkpt><trkpt lat="42.548813046476575" lon="11.333773007146707"><ele>29.0</ele><time>2026-03-22T14:58:08.81Z</time></trkpt><trkpt lat="42.548686762048554" lon="11.333774455360816"><ele>28.0</ele><time>2026-03-22T14:58:09.81Z</time></trkpt><trkpt lat="42.54856858839622" lon="11.333795632257909"><ele>27.0</ele><time>2026-03-22T14:58:10.81Z</time></trkpt><trkpt lat="42.54845406496653" lon="11.333849873972904"><ele>26.0</ele><time>2026-03-22T14:58:11.81Z</time></trkpt><trkpt lat="42.54835649306736" lon="11.33395510502"><ele>25.25</ele><time>2026-03-22T14:58:12.81Z</time></trkpt><trkpt lat="42.54828223721153" lon="11.334092290619216"><ele>24.5</ele><time>2026-03-22T14:58:13.81Z</time></trkpt><trkpt lat="42.548218884993425" lon="11.334223901773253"><ele>23.75</ele><time>2026-03-22T14:58:14.81Z</time></trkpt><trkpt lat="42.54814973468098" lon="11.334369023346056"><ele>23.0</ele><time>2026-03-22T14:58:15.81Z</time></trkpt><trkpt lat="42.54807768224018" lon="11.334523357719018"><ele>23.0</ele><time>2026-03-22T14:58:16.81Z</time></trkpt><trkpt lat="42.54799490183508" lon="11.334680349663369"><ele>23.0</ele><time>2026-03-22T14:58:17.81Z</time></trkpt><trkpt lat="42.54790144165073" lon="11.334839348870272"><ele>23.0</ele><time>2026-03-22T14:58:18.81Z</time></trkpt><trkpt lat="42.547795366980424" lon="11.334986461276031"><ele>23.0</ele><time>2026-03-22T14:58:19.81Z</time></trkpt><trkpt lat="42.54767693284459" lon="11.33512240648799"><ele>22.0</ele><time>2026-03-22T14:58:20.81Z</time></trkpt><trkpt lat="42.54754478336929" lon="11.335239684186163"><ele>21.0</ele><time>2026-03-22T14:58:21.81Z</time></trkpt><trkpt lat="42.547403538278644" lon="11.335326212064437"><ele>20.0</ele><time>2026-03-22T14:58:22.81Z</time></trkpt><trkpt lat="42.54725097816818" lon="11.335395352380907"><ele>20.0</ele><time>2026-03-22T14:58:23.809Z</time></trkpt><trkpt lat="42.547088652225554" lon="11.335447792392417"><ele>20.0</ele><time>2026-03-22T14:58:24.809Z</time></trkpt><trkpt lat="42.54691875419661" lon="11.335497282536874"><ele>20.0</ele><time>2026-03-22T14:58:25.809Z</time></trkpt><trkpt lat="42.546747801570106" lon="11.335547145808286"><ele>19.0</ele><time>2026-03-22T14:58:26.809Z</time></trkpt><trkpt lat="42.546574638420005" lon="11.335598849931834"><ele>18.0</ele><time>2026-03-22T14:58:27.812Z</time></trkpt><trkpt lat="42.546399781179026" lon="11.335651196998132"><ele>17.0</ele><time>2026-03-22T14:58:28.812Z</time></trkpt><trkpt lat="42.546222948621896" lon="11.335704135421992"><ele>17.333333333333336</ele><time>2026-03-22T14:58:29.812Z</time></trkpt><trkpt lat="42.54604547980423" lon="11.335757264323304"><ele>17.666666666666668</ele><time>2026-03-22T14:58:30.812Z</time></trkpt><trkpt lat="42.545868007863724" lon="11.335810394163577"><ele>18.0</ele><time>2026-03-22T14:58:31.812Z</time></trkpt><trkpt lat="42.545689300610334" lon="11.335863893813604"><ele>18.0</ele><time>2026-03-22T14:58:32.812Z</time></trkpt><trkpt lat="42.54550997447718" lon="11.335917578741885"><ele>18.0</ele><time>2026-03-22T14:58:33.812Z</time></trkpt><trkpt lat="42.54532803755298" lon="11.335972045265844"><ele>18.0</ele><time>2026-03-22T14:58:34.812Z</time></trkpt><trkpt lat="42.54514614099868" lon="11.336026499697871"><ele>18.333333333333332</ele><time>2026-03-22T14:58:35.812Z</time></trkpt><trkpt lat="42.54496222214401" lon="11.336081432014216"><ele>18.666666666666664</ele><time>2026-03-22T14:58:36.812Z</time></trkpt><trkpt lat="42.54477711630086" lon="11.336135915354273"><ele>19.0</ele><time>2026-03-22T14:58:37.811Z</time></trkpt><trkpt lat="42.544593348158195" lon="11.336190936409418"><ele>18.0</ele><time>2026-03-22T14:58:38.811Z</time></trkpt><trkpt lat="42.54440925040648" lon="11.33624605615045"><ele>17.0</ele><time>2026-03-22T14:58:39.811Z</time></trkpt><trkpt lat="42.54422282344655" lon="11.336301873274435"><ele>16.0</ele><time>2026-03-22T14:58:40.812Z</time></trkpt><trkpt lat="42.54404216648896" lon="11.336355695308939"><ele>16.333333333333332</ele><time>2026-03-22T14:58:41.812Z</time></trkpt><trkpt lat="42.54387114603448" lon="11.336406418321742"><ele>16.666666666666668</ele><time>2026-03-22T14:58:42.812Z</time></trkpt><trkpt lat="42.543706645499356" lon="11.336455207599126"><ele>17.0</ele><time>2026-03-22T14:58:43.812Z</time></trkpt><trkpt lat="42.54355053217204" lon="11.3365015093446"><ele>17.0</ele><time>2026-03-22T14:58:44.811Z</time></trkpt><trkpt lat="42.54339991981499" lon="11.336546706102652"><ele>17.0</ele><time>2026-03-22T14:58:45.811Z</time></trkpt><trkpt lat="42.54324868316609" lon="11.336590153845853"><ele>17.0</ele><time>2026-03-22T14:58:46.811Z</time></trkpt><trkpt lat="42.54309553650923" lon="11.336643184497184"><ele>17.0</ele><time>2026-03-22T14:58:47.811Z</time></trkpt><trkpt lat="42.542942180399706" lon="11.336705497886031"><ele>17.0</ele><time>2026-03-22T14:58:48.811Z</time></trkpt><trkpt lat="42.542783266769966" lon="11.336787674330713"><ele>17.0</ele><time>2026-03-22T14:58:49.811Z</time></trkpt><trkpt lat="42.5426261198788" lon="11.336893813267833"><ele>17.333333333333336</ele><time>2026-03-22T14:58:50.811Z</time></trkpt><trkpt lat="42.54247015216384" lon="11.337022894157752"><ele>17.666666666666668</ele><time>2026-03-22T14:58:51.811Z</time></trkpt><trkpt lat="42.54232215620736" lon="11.3371630790381"><ele>18.0</ele><time>2026-03-22T14:58:52.811Z</time></trkpt><trkpt lat="42.54217905248948" lon="11.337330523733229"><ele>18.0</ele><time>2026-03-22T14:58:53.811Z</time></trkpt><trkpt lat="42.542045630278764" lon="11.337521951673574"><ele>18.0</ele><time>2026-03-22T14:58:54.811Z</time></trkpt><trkpt lat="42.54192697186517" lon="11.337722993284238"><ele>18.0</ele><time>2026-03-22T14:58:55.811Z</time></trkpt><trkpt lat="42.54182138420652" lon="11.337937442463902"><ele>18.0</ele><time>2026-03-22T14:58:56.811Z</time></trkpt><trkpt lat="42.54172288920714" lon="11.338161624905638"><ele>18.0</ele><time>2026-03-22T14:58:57.811Z</time></trkpt><trkpt lat="42.541626589630155" lon="11.33837772734411"><ele>18.0</ele><time>2026-03-22T14:58:58.811Z</time></trkpt><trkpt lat="42.54152807464014" lon="11.338596076904809"><ele>18.0</ele><time>2026-03-22T14:58:59.811Z</time></trkpt><trkpt lat="42.541426916128344" lon="11.338820495764086"><ele>18.0</ele><time>2026-03-22T14:59:00.811Z</time></trkpt><trkpt lat="42.54132776248356" lon="11.339042967165959"><ele>18.0</ele><time>2026-03-22T14:59:01.811Z</time></trkpt><trkpt lat="42.541227260830816" lon="11.339268463177838"><ele>18.333333333333332</ele><time>2026-03-22T14:59:02.81Z</time></trkpt><trkpt lat="42.54112597872138" lon="11.33949570991316"><ele>18.666666666666664</ele><time>2026-03-22T14:59:03.81Z</time></trkpt><trkpt lat="42.54102395899624" lon="11.339724611566483"><ele>19.0</ele><time>2026-03-22T14:59:04.81Z</time></trkpt><trkpt lat="42.54092081723969" lon="11.3399556952999"><ele>19.333333333333332</ele><time>2026-03-22T14:59:05.81Z</time></trkpt><trkpt lat="42.54081837996951" lon="11.340184373321836"><ele>19.666666666666668</ele><time>2026-03-22T14:59:06.81Z</time></trkpt><trkpt lat="42.54072314057884" lon="11.340396982888604"><ele>20.0</ele><time>2026-03-22T14:59:07.81Z</time></trkpt><trkpt lat="42.540632864418036" lon="11.340598512915586"><ele>20.5</ele><time>2026-03-22T14:59:08.81Z</time></trkpt><trkpt lat="42.540554643059075" lon="11.340773132081441"><ele>21.0</ele><time>2026-03-22T14:59:09.81Z</time></trkpt><trkpt lat="42.540484752625346" lon="11.340929155134528"><ele>21.5</ele><time>2026-03-22T14:59:10.81Z</time></trkpt><trkpt lat="42.540417113494264" lon="11.341078710944235"><ele>22.0</ele><time>2026-03-22T14:59:11.81Z</time></trkpt><trkpt lat="42.54037086270433" lon="11.341225965035871"><ele>22.400000000000002</ele><time>2026-03-22T14:59:12.81Z</time></trkpt><trkpt lat="42.540309172756196" lon="11.341342303366934"><ele>22.8</ele><time>2026-03-22T14:59:13.81Z</time></trkpt><trkpt lat="42.540258673356675" lon="11.341421157056992"><ele>23.2</ele><time>2026-03-22T14:59:14.81Z</time></trkpt><trkpt lat="42.540220977063726" lon="11.341521033914766"><ele>23.6</ele><time>2026-03-22T14:59:15.81Z</time></trkpt><trkpt lat="42.540169921601866" lon="11.341617255710794"><ele>24.0</ele><time>2026-03-22T14:59:18.81Z</time></trkpt><trkpt lat="42.540260107590534" lon="11.34184367994839"><ele>24.0</ele><time>2026-03-22T14:59:20.81Z</time></trkpt><trkpt lat="42.54032714718884" lon="11.341945783085887"><ele>24.0</ele><time>2026-03-22T14:59:21.809Z</time></trkpt><trkpt lat="42.540414939536184" lon="11.342030667440497"><ele>24.0</ele><time>2026-03-22T14:59:22.809Z</time></trkpt><trkpt lat="42.540512734305345" lon="11.342117060853187"><ele>24.0</ele><time>2026-03-22T14:59:23.809Z</time></trkpt><trkpt lat="42.5406058741744" lon="11.34222025814232"><ele>24.0</ele><time>2026-03-22T14:59:24.809Z</time></trkpt><trkpt lat="42.540702748628" lon="11.342321255335602"><ele>24.5</ele><time>2026-03-22T14:59:25.809Z</time></trkpt><trkpt lat="42.540798186797744" lon="11.342418979063968"><ele>25.0</ele><time>2026-03-22T14:59:26.809Z</time></trkpt><trkpt lat="42.5408954593156" lon="11.342524603626634"><ele>25.5</ele><time>2026-03-22T14:59:27.809Z</time></trkpt><trkpt lat="42.54099937673348" lon="11.34262985770451"><ele>26.0</ele><time>2026-03-22T14:59:28.809Z</time></trkpt><trkpt lat="42.541107107665006" lon="11.342733254473181"><ele>26.0</ele><time>2026-03-22T14:59:29.809Z</time></trkpt><trkpt lat="42.54121460128422" lon="11.342839815064023"><ele>26.0</ele><time>2026-03-22T14:59:30.809Z</time></trkpt><trkpt lat="42.54132160239394" lon="11.342951497243984"><ele>26.0</ele><time>2026-03-22T14:59:31.809Z</time></trkpt><trkpt lat="42.54143585197138" lon="11.343063988266891"><ele>26.0</ele><time>2026-03-22T14:59:32.809Z</time></trkpt><trkpt lat="42.54155394804661" lon="11.343177265771978"><ele>26.333333333333332</ele><time>2026-03-22T14:59:33.809Z</time></trkpt><trkpt lat="42.54167274859948" lon="11.34329633148205"><ele>26.666666666666664</ele><time>2026-03-22T14:59:34.809Z</time></trkpt><trkpt lat="42.541797231217515" lon="11.343415937521366"><ele>27.0</ele><time>2026-03-22T14:59:35.809Z</time></trkpt><trkpt lat="42.54192674543726" lon="11.343538481970928"><ele>28.0</ele><time>2026-03-22T14:59:36.809Z</time></trkpt><trkpt lat="42.54205791277253" lon="11.343667594332384"><ele>29.0</ele><time>2026-03-22T14:59:37.809Z</time></trkpt><trkpt lat="42.54219205680017" lon="11.343802227677475"><ele>30.0</ele><time>2026-03-22T14:59:38.809Z</time></trkpt><trkpt lat="42.54232863471216" lon="11.343935930114158"><ele>30.0</ele><time>2026-03-22T14:59:39.808Z</time></trkpt><trkpt lat="42.54246876732742" lon="11.34407758157534"><ele>30.0</ele><time>2026-03-22T14:59:40.808Z</time></trkpt><trkpt lat="42.54260806225908" lon="11.344234346160468"><ele>30.0</ele><time>2026-03-22T14:59:41.808Z</time></trkpt><trkpt lat="42.54274545253851" lon="11.344394623741666"><ele>29.333333333333336</ele><time>2026-03-22T14:59:42.808Z</time></trkpt><trkpt lat="42.54288477997956" lon="11.344562924696948"><ele>28.666666666666668</ele><time>2026-03-22T14:59:43.808Z</time></trkpt><trkpt lat="42.5430209514731" lon="11.34473952437785"><ele>28.0</ele><time>2026-03-22T14:59:44.808Z</time></trkpt><trkpt lat="42.54315892761106" lon="11.344911722552085"><ele>28.0</ele><time>2026-03-22T14:59:45.808Z</time></trkpt><trkpt lat="42.543294709280346" lon="11.345085695118039"><ele>28.0</ele><time>2026-03-22T14:59:46.808Z</time></trkpt><trkpt lat="42.54342986922893" lon="11.345257260500148"><ele>28.0</ele><time>2026-03-22T14:59:47.808Z</time></trkpt><trkpt lat="42.54356856965586" lon="11.345426808481099"><ele>26.666666666666668</ele><time>2026-03-22T14:59:48.808Z</time></trkpt><trkpt lat="42.54371155167106" lon="11.345590931684415"><ele>25.333333333333336</ele><time>2026-03-22T14:59:49.808Z</time></trkpt><trkpt lat="42.54385772007591" lon="11.345753077220264"><ele>24.0</ele><time>2026-03-22T14:59:50.808Z</time></trkpt><trkpt lat="42.54400713908337" lon="11.345917053413105"><ele>24.0</ele><time>2026-03-22T14:59:51.808Z</time></trkpt><trkpt lat="42.544155859610335" lon="11.346086652108925"><ele>24.0</ele><time>2026-03-22T14:59:52.808Z</time></trkpt><trkpt lat="42.544301610478136" lon="11.346254034638681"><ele>24.0</ele><time>2026-03-22T14:59:53.808Z</time></trkpt><trkpt lat="42.54444882178106" lon="11.346417591770805"><ele>23.0</ele><time>2026-03-22T14:59:54.808Z</time></trkpt><trkpt lat="42.54459604907077" lon="11.346577262970158"><ele>22.0</ele><time>2026-03-22T14:59:55.808Z</time></trkpt><trkpt lat="42.54474000613192" lon="11.346734563526267"><ele>21.0</ele><time>2026-03-22T14:59:56.808Z</time></trkpt><trkpt lat="42.54488479352013" lon="11.346894312765379"><ele>21.0</ele><time>2026-03-22T14:59:57.808Z</time></trkpt><trkpt lat="42.54503199066274" lon="11.347053005496385"><ele>21.0</ele><time>2026-03-22T14:59:58.807Z</time></trkpt><trkpt lat="42.54517717799998" lon="11.347215224395255"><ele>21.0</ele><time>2026-03-22T14:59:59.807Z</time></trkpt><trkpt lat="42.54532684449197" lon="11.347376347225135"><ele>20.666666666666668</ele><time>2026-03-22T15:00:00.807Z</time></trkpt><trkpt lat="42.54548131610116" lon="11.347531141290672"><ele>20.333333333333336</ele><time>2026-03-22T15:00:01.807Z</time></trkpt><trkpt lat="42.54563448202164" lon="11.347681545305006"><ele>20.0</ele><time>2026-03-22T15:00:02.807Z</time></trkpt><trkpt lat="42.545780076844096" lon="11.34782585413772"><ele>20.0</ele><time>2026-03-22T15:00:03.807Z</time></trkpt><trkpt lat="42.54591676656358" lon="11.347979741854624"><ele>20.0</ele><time>2026-03-22T15:00:04.807Z</time></trkpt><trkpt lat="42.54601921379646" lon="11.348173191507431"><ele>20.0</ele><time>2026-03-22T15:00:05.807Z</time></trkpt><trkpt lat="42.54609747512456" lon="11.348362468958051"><ele>20.333333333333336</ele><time>2026-03-22T15:00:06.807Z</time></trkpt><trkpt lat="42.54615158162924" lon="11.348563022021684"><ele>20.666666666666668</ele><time>2026-03-22T15:00:07.807Z</time></trkpt><trkpt lat="42.54622878442991" lon="11.348777796164113"><ele>21.0</ele><time>2026-03-22T15:00:08.807Z</time></trkpt><trkpt lat="42.5462586682686" lon="11.349008589126216"><ele>21.0</ele><time>2026-03-22T15:00:09.807Z</time></trkpt><trkpt lat="42.546277324727" lon="11.349240773378627"><ele>21.0</ele><time>2026-03-22T15:00:10.807Z</time></trkpt><trkpt lat="42.54629752725995" lon="11.349480191534113"><ele>21.0</ele><time>2026-03-22T15:00:11.807Z</time></trkpt><trkpt lat="42.54629321468063" lon="11.349733612187821"><ele>21.0</ele><time>2026-03-22T15:00:12.807Z</time></trkpt><trkpt lat="42.546322205933194" lon="11.349982192458926"><ele>21.0</ele><time>2026-03-22T15:00:13.807Z</time></trkpt><trkpt lat="42.5463552801909" lon="11.35022886617109"><ele>21.0</ele><time>2026-03-22T15:00:14.807Z</time></trkpt><trkpt lat="42.54639324132631" lon="11.35047349370228"><ele>21.666666666666668</ele><time>2026-03-22T15:00:15.807Z</time></trkpt><trkpt lat="42.54643323713835" lon="11.350716884501095"><ele>22.333333333333336</ele><time>2026-03-22T15:00:16.807Z</time></trkpt><trkpt lat="42.546477084438706" lon="11.350968085201833"><ele>23.0</ele><time>2026-03-22T15:00:17.806Z</time></trkpt><trkpt lat="42.54652573922243" lon="11.351219112219372"><ele>23.666666666666668</ele><time>2026-03-22T15:00:18.806Z</time></trkpt><trkpt lat="42.54657950860679" lon="11.35147062422228"><ele>24.333333333333336</ele><time>2026-03-22T15:00:19.806Z</time></trkpt><trkpt lat="42.54666289676562" lon="11.351710793597759"><ele>25.0</ele><time>2026-03-22T15:00:20.806Z</time></trkpt><trkpt lat="42.546747567084665" lon="11.351949661982058"><ele>25.0</ele><time>2026-03-22T15:00:21.806Z</time></trkpt><trkpt lat="42.54684369764246" lon="11.352181233424226"><ele>25.0</ele><time>2026-03-22T15:00:22.806Z</time></trkpt><trkpt lat="42.546950970129274" lon="11.352409165638866"><ele>25.0</ele><time>2026-03-22T15:00:23.806Z</time></trkpt><trkpt lat="42.54706841701309" lon="11.352636957793965"><ele>25.333333333333336</ele><time>2026-03-22T15:00:24.806Z</time></trkpt><trkpt lat="42.54719352629627" lon="11.352854355995202"><ele>25.666666666666664</ele><time>2026-03-22T15:00:25.806Z</time></trkpt><trkpt lat="42.547331940722216" lon="11.353048117942732"><ele>26.0</ele><time>2026-03-22T15:00:26.806Z</time></trkpt><trkpt lat="42.547470900935245" lon="11.353231884290903"><ele>27.0</ele><time>2026-03-22T15:00:27.806Z</time></trkpt><trkpt lat="42.54760630400015" lon="11.353412544045291"><ele>28.0</ele><time>2026-03-22T15:00:28.806Z</time></trkpt><trkpt lat="42.54773693652795" lon="11.353586323194595"><ele>29.0</ele><time>2026-03-22T15:00:29.806Z</time></trkpt><trkpt lat="42.54786080963814" lon="11.353769724446014"><ele>30.0</ele><time>2026-03-22T15:00:30.806Z</time></trkpt><trkpt lat="42.54798583803642" lon="11.353966795490551"><ele>31.0</ele><time>2026-03-22T15:00:31.806Z</time></trkpt><trkpt lat="42.54809281177541" lon="11.354183547670557"><ele>32.0</ele><time>2026-03-22T15:00:32.806Z</time></trkpt><trkpt lat="42.548197251375335" lon="11.354416147140556"><ele>32.0</ele><time>2026-03-22T15:00:33.808Z</time></trkpt><trkpt lat="42.54829776430215" lon="11.354650046056747"><ele>32.0</ele><time>2026-03-22T15:00:34.808Z</time></trkpt><trkpt lat="42.54840175460359" lon="11.354883962211472"><ele>32.0</ele><time>2026-03-22T15:00:35.808Z</time></trkpt><trkpt lat="42.54849660421695" lon="11.355104556610227"><ele>33.0</ele><time>2026-03-22T15:00:36.808Z</time></trkpt><trkpt lat="42.54858418801836" lon="11.355314297120472"><ele>34.0</ele><time>2026-03-22T15:00:37.808Z</time></trkpt><trkpt lat="42.548677127847256" lon="11.355523458049259"><ele>35.0</ele><time>2026-03-22T15:00:38.808Z</time></trkpt><trkpt lat="42.54877028292269" lon="11.355727963472173"><ele>35.0</ele><time>2026-03-22T15:00:39.808Z</time></trkpt><trkpt lat="42.54886470058742" lon="11.355928314241554"><ele>35.0</ele><time>2026-03-22T15:00:40.807Z</time></trkpt><trkpt lat="42.54896850036716" lon="11.356120445564112"><ele>35.0</ele><time>2026-03-22T15:00:41.807Z</time></trkpt><trkpt lat="42.549089027344735" lon="11.356300840996397"><ele>35.0</ele><time>2026-03-22T15:00:42.808Z</time></trkpt><trkpt lat="42.5492199571739" lon="11.356480288614259"><ele>35.0</ele><time>2026-03-22T15:00:43.808Z</time></trkpt><trkpt lat="42.5493517709335" lon="11.356665883517556"><ele>35.0</ele><time>2026-03-22T15:00:44.808Z</time></trkpt><trkpt lat="42.54948911427015" lon="11.356856955022481"><ele>35.33333333333333</ele><time>2026-03-22T15:00:45.807Z</time></trkpt><trkpt lat="42.54963282365215" lon="11.357045822184485"><ele>35.666666666666664</ele><time>2026-03-22T15:00:46.808Z</time></trkpt><trkpt lat="42.5497793512876" lon="11.357239706714454"><ele>36.0</ele><time>2026-03-22T15:00:47.808Z</time></trkpt><trkpt lat="42.54993072839928" lon="11.357438986059552"><ele>36.0</ele><time>2026-03-22T15:00:48.808Z</time></trkpt><trkpt lat="42.550084161909645" lon="11.357639806542155"><ele>36.0</ele><time>2026-03-22T15:00:49.808Z</time></trkpt><trkpt lat="42.550240727201924" lon="11.357846781715192"><ele>36.0</ele><time>2026-03-22T15:00:50.808Z</time></trkpt><trkpt lat="42.55039900614355" lon="11.358056267220086"><ele>37.0</ele><time>2026-03-22T15:00:51.808Z</time></trkpt><trkpt lat="42.55055803485172" lon="11.358269300723745"><ele>38.0</ele><time>2026-03-22T15:00:52.808Z</time></trkpt><trkpt lat="42.55072140985738" lon="11.358478125735203"><ele>39.0</ele><time>2026-03-22T15:00:53.808Z</time></trkpt><trkpt lat="42.55087914066937" lon="11.358681576964502"><ele>39.333333333333336</ele><time>2026-03-22T15:00:54.807Z</time></trkpt><trkpt lat="42.55103608869754" lon="11.358887192663365"><ele>39.66666666666667</ele><time>2026-03-22T15:00:55.807Z</time></trkpt><trkpt lat="42.55118485859837" lon="11.359096678293895"><ele>40.0</ele><time>2026-03-22T15:00:56.807Z</time></trkpt><trkpt lat="42.55133026983221" lon="11.359312045715154"><ele>40.0</ele><time>2026-03-22T15:00:57.807Z</time></trkpt><trkpt lat="42.55146691710645" lon="11.359532896797434"><ele>40.0</ele><time>2026-03-22T15:00:58.807Z</time></trkpt><trkpt lat="42.55159676925653" lon="11.359765229793975"><ele>40.0</ele><time>2026-03-22T15:00:59.807Z</time></trkpt><trkpt lat="42.551701008377506" lon="11.360016944840318"><ele>40.66666666666667</ele><time>2026-03-22T15:01:00.807Z</time></trkpt><trkpt lat="42.55181026576977" lon="11.360263375224754"><ele>41.333333333333336</ele><time>2026-03-22T15:01:01.807Z</time></trkpt><trkpt lat="42.55190690358346" lon="11.360497518345063"><ele>42.0</ele><time>2026-03-22T15:01:02.807Z</time></trkpt><trkpt lat="42.55199013956993" lon="11.360735972420407"><ele>42.666666666666664</ele><time>2026-03-22T15:01:03.807Z</time></trkpt><trkpt lat="42.552063504154894" lon="11.360978406315844"><ele>43.33333333333333</ele><time>2026-03-22T15:01:04.807Z</time></trkpt><trkpt lat="42.5521318236626" lon="11.361211020842878"><ele>44.0</ele><time>2026-03-22T15:01:05.807Z</time></trkpt><trkpt lat="42.55219825134299" lon="11.361438814769118"><ele>44.0</ele><time>2026-03-22T15:01:06.807Z</time></trkpt><trkpt lat="42.55226498035624" lon="11.361668894945122"><ele>44.0</ele><time>2026-03-22T15:01:07.807Z</time></trkpt><trkpt lat="42.55233484517564" lon="11.361909787264093"><ele>44.0</ele><time>2026-03-22T15:01:08.807Z</time></trkpt><trkpt lat="42.55239976655561" lon="11.362133634549481"><ele>45.0</ele><time>2026-03-22T15:01:09.807Z</time></trkpt><trkpt lat="42.552464164206796" lon="11.362355676383668"><ele>46.0</ele><time>2026-03-22T15:01:10.807Z</time></trkpt><trkpt lat="42.552612208855194" lon="11.362866130909193"><ele>46.66666666666667</ele><time>2026-03-22T15:01:11.807Z</time></trkpt><trkpt lat="42.552684892024885" lon="11.363116740864095"><ele>47.333333333333336</ele><time>2026-03-22T15:01:12.806Z</time></trkpt><trkpt lat="42.55275705474092" lon="11.363365556124593"><ele>48.0</ele><time>2026-03-22T15:01:13.806Z</time></trkpt><trkpt lat="42.552828972597275" lon="11.363613527222885"><ele>48.0</ele><time>2026-03-22T15:01:14.806Z</time></trkpt><trkpt lat="42.55290073975612" lon="11.3638580369166"><ele>48.0</ele><time>2026-03-22T15:01:15.806Z</time></trkpt><trkpt lat="42.55297284013385" lon="11.364100665397206"><ele>48.0</ele><time>2026-03-22T15:01:16.806Z</time></trkpt><trkpt lat="42.55304515667091" lon="11.364332458941536"><ele>47.666666666666664</ele><time>2026-03-22T15:01:17.806Z</time></trkpt><trkpt lat="42.553116988419795" lon="11.36455061547988"><ele>47.33333333333333</ele><time>2026-03-22T15:01:18.806Z</time></trkpt><trkpt lat="42.55318551921563" lon="11.364759075230852"><ele>47.0</ele><time>2026-03-22T15:01:19.806Z</time></trkpt><trkpt lat="42.55325537395222" lon="11.364955535314763"><ele>47.0</ele><time>2026-03-22T15:01:20.806Z</time></trkpt><trkpt lat="42.55333506969118" lon="11.365135290287215"><ele>47.0</ele><time>2026-03-22T15:01:21.806Z</time></trkpt><trkpt lat="42.55342428323956" lon="11.36528816837166"><ele>47.0</ele><time>2026-03-22T15:01:22.806Z</time></trkpt><trkpt lat="42.55349527750328" lon="11.365448838614908"><ele>47.0</ele><time>2026-03-22T15:01:23.806Z</time></trkpt><trkpt lat="42.553562927138" lon="11.365583568938641"><ele>47.0</ele><time>2026-03-22T15:01:24.806Z</time></trkpt><trkpt lat="42.55362588349235" lon="11.365700943283533"><ele>47.0</ele><time>2026-03-22T15:01:25.806Z</time></trkpt><trkpt lat="42.55363087058435" lon="11.365829470177758"><ele>47.0</ele><time>2026-03-22T15:01:26.806Z</time></trkpt><trkpt lat="42.553646388037805" lon="11.365952909816066"><ele>47.0</ele><time>2026-03-22T15:01:27.806Z</time></trkpt><trkpt lat="42.55361584613959" lon="11.36607605189101"><ele>47.0</ele><time>2026-03-22T15:01:28.806Z</time></trkpt><trkpt lat="42.55369341806198" lon="11.366196574824961"><ele>47.0</ele><time>2026-03-22T15:01:29.806Z</time></trkpt><trkpt lat="42.553732124782435" lon="11.36632495113555"><ele>47.0</ele><time>2026-03-22T15:01:30.806Z</time></trkpt><trkpt lat="42.55379611235142" lon="11.3664441023806"><ele>47.0</ele><time>2026-03-22T15:01:31.805Z</time></trkpt><trkpt lat="42.55386534816273" lon="11.366575579403776"><ele>47.0</ele><time>2026-03-22T15:01:32.805Z</time></trkpt><trkpt lat="42.55384564697969" lon="11.366747232740229"><ele>47.25</ele><time>2026-03-22T15:01:33.805Z</time></trkpt><trkpt lat="42.55386418473606" lon="11.366939284443262"><ele>47.5</ele><time>2026-03-22T15:01:34.805Z</time></trkpt><trkpt lat="42.55388982644022" lon="11.367133864447808"><ele>47.75</ele><time>2026-03-22T15:01:35.805Z</time></trkpt><trkpt lat="42.55393831570679" lon="11.367332477733358"><ele>48.0</ele><time>2026-03-22T15:01:36.805Z</time></trkpt><trkpt lat="42.55399445199915" lon="11.367535700047714"><ele>48.0</ele><time>2026-03-22T15:01:37.805Z</time></trkpt><trkpt lat="42.554054644772215" lon="11.367744923171264"><ele>48.0</ele><time>2026-03-22T15:01:38.805Z</time></trkpt><trkpt lat="42.554117156361215" lon="11.367960663938252"><ele>48.0</ele><time>2026-03-22T15:01:39.805Z</time></trkpt><trkpt lat="42.55417556439974" lon="11.36818294407878"><ele>48.33333333333333</ele><time>2026-03-22T15:01:40.805Z</time></trkpt><trkpt lat="42.5542197091993" lon="11.368414203910799"><ele>48.666666666666664</ele><time>2026-03-22T15:01:41.805Z</time></trkpt><trkpt lat="42.554250498764155" lon="11.36865115793445"><ele>49.0</ele><time>2026-03-22T15:01:42.805Z</time></trkpt><trkpt lat="42.55426417855741" lon="11.368895172516236"><ele>48.33333333333333</ele><time>2026-03-22T15:01:43.805Z</time></trkpt><trkpt lat="42.55426604608067" lon="11.369148984720141"><ele>47.666666666666664</ele><time>2026-03-22T15:01:44.805Z</time></trkpt><trkpt lat="42.55426353232818" lon="11.369405999099703"><ele>47.0</ele><time>2026-03-22T15:01:45.805Z</time></trkpt><trkpt lat="42.55425999525833" lon="11.3696656135144"><ele>47.33333333333333</ele><time>2026-03-22T15:01:46.805Z</time></trkpt><trkpt lat="42.55425645487127" lon="11.369925471440197"><ele>47.666666666666664</ele><time>2026-03-22T15:01:47.805Z</time></trkpt><trkpt lat="42.55425289856245" lon="11.3701885033799"><ele>48.0</ele><time>2026-03-22T15:01:48.805Z</time></trkpt><trkpt lat="42.55424948841457" lon="11.370443866701407"><ele>48.66666666666667</ele><time>2026-03-22T15:01:49.805Z</time></trkpt><trkpt lat="42.554246730341895" lon="11.370700292855126"><ele>49.333333333333336</ele><time>2026-03-22T15:01:50.804Z</time></trkpt><trkpt lat="42.554245745905305" lon="11.370959606902236"><ele>50.0</ele><time>2026-03-22T15:01:51.804Z</time></trkpt><trkpt lat="42.55424703224764" lon="11.3712147843606"><ele>49.333333333333336</ele><time>2026-03-22T15:01:52.804Z</time></trkpt><trkpt lat="42.55425019984705" lon="11.37146517764333"><ele>48.66666666666667</ele><time>2026-03-22T15:01:53.804Z</time></trkpt><trkpt lat="42.554258110266744" lon="11.371716856988305"><ele>48.0</ele><time>2026-03-22T15:01:54.804Z</time></trkpt><trkpt lat="42.554272051740405" lon="11.371970842715163"><ele>46.666666666666664</ele><time>2026-03-22T15:01:55.804Z</time></trkpt><trkpt lat="42.55428932149971" lon="11.372221214540032"><ele>45.33333333333333</ele><time>2026-03-22T15:01:56.804Z</time></trkpt><trkpt lat="42.55430950843525" lon="11.372469442819334"><ele>44.0</ele><time>2026-03-22T15:01:57.804Z</time></trkpt><trkpt lat="42.55434590480727" lon="11.372719058075043"><ele>44.0</ele><time>2026-03-22T15:01:58.804Z</time></trkpt><trkpt lat="42.5543695346071" lon="11.372975190684269"><ele>44.0</ele><time>2026-03-22T15:01:59.804Z</time></trkpt><trkpt lat="42.554395643979134" lon="11.373240974931715"><ele>44.0</ele><time>2026-03-22T15:02:00.804Z</time></trkpt><trkpt lat="42.55442451989246" lon="11.373517328729053"><ele>42.666666666666664</ele><time>2026-03-22T15:02:01.804Z</time></trkpt><trkpt lat="42.55443657015986" lon="11.373803098486043"><ele>41.333333333333336</ele><time>2026-03-22T15:02:02.804Z</time></trkpt><trkpt lat="42.55446380929616" lon="11.374088692565604"><ele>40.0</ele><time>2026-03-22T15:02:03.804Z</time></trkpt><trkpt lat="42.55450566040936" lon="11.374377682825019"><ele>38.333333333333336</ele><time>2026-03-22T15:02:04.804Z</time></trkpt><trkpt lat="42.554534383636465" lon="11.374676769646019"><ele>36.666666666666664</ele><time>2026-03-22T15:02:05.804Z</time></trkpt><trkpt lat="42.55456582090732" lon="11.374980253693458"><ele>35.0</ele><time>2026-03-22T15:02:06.804Z</time></trkpt><trkpt lat="42.55457998027673" lon="11.375287268132375"><ele>32.5</ele><time>2026-03-22T15:02:07.804Z</time></trkpt><trkpt lat="42.554609411400016" lon="11.37559470773347"><ele>30.0</ele><time>2026-03-22T15:02:08.803Z</time></trkpt><trkpt lat="42.55463849431546" lon="11.375898509852755"><ele>30.0</ele><time>2026-03-22T15:02:09.803Z</time></trkpt><trkpt lat="42.55466737445117" lon="11.376200193749476"><ele>30.0</ele><time>2026-03-22T15:02:10.803Z</time></trkpt><trkpt lat="42.55469645907638" lon="11.376504013793637"><ele>31.0</ele><time>2026-03-22T15:02:11.803Z</time></trkpt><trkpt lat="42.554725466263505" lon="11.37680702487467"><ele>32.0</ele><time>2026-03-22T15:02:12.803Z</time></trkpt><trkpt lat="42.55475173793547" lon="11.377109264753127"><ele>33.0</ele><time>2026-03-22T15:02:13.803Z</time></trkpt><trkpt lat="42.55476848299867" lon="11.377410100784669"><ele>33.0</ele><time>2026-03-22T15:02:14.803Z</time></trkpt><trkpt lat="42.554773642891135" lon="11.377712512269358"><ele>33.0</ele><time>2026-03-22T15:02:15.803Z</time></trkpt><trkpt lat="42.554768359050065" lon="11.378017342239751"><ele>33.0</ele><time>2026-03-22T15:02:16.803Z</time></trkpt><trkpt lat="42.554761456781534" lon="11.378325705587741"><ele>33.0</ele><time>2026-03-22T15:02:17.803Z</time></trkpt><trkpt lat="42.55475521878446" lon="11.378632240199398"><ele>33.0</ele><time>2026-03-22T15:02:18.803Z</time></trkpt><trkpt lat="42.55474900982537" lon="11.37893734774789"><ele>33.0</ele><time>2026-03-22T15:02:19.803Z</time></trkpt><trkpt lat="42.5547428738022" lon="11.379238871119533"><ele>33.0</ele><time>2026-03-22T15:02:20.803Z</time></trkpt><trkpt lat="42.554736826254675" lon="11.379536047078757"><ele>33.0</ele><time>2026-03-22T15:02:21.803Z</time></trkpt><trkpt lat="42.55473062891983" lon="11.379825443330423"><ele>33.666666666666664</ele><time>2026-03-22T15:02:22.803Z</time></trkpt><trkpt lat="42.55472360831389" lon="11.380112183898023"><ele>34.33333333333333</ele><time>2026-03-22T15:02:23.803Z</time></trkpt><trkpt lat="42.55471814815385" lon="11.380395270328288"><ele>35.0</ele><time>2026-03-22T15:02:24.803Z</time></trkpt><trkpt lat="42.554712787272685" lon="11.380673810858523"><ele>35.33333333333333</ele><time>2026-03-22T15:02:25.803Z</time></trkpt><trkpt lat="42.55470774604704" lon="11.38096188715903"><ele>35.666666666666664</ele><time>2026-03-22T15:02:26.803Z</time></trkpt><trkpt lat="42.55471418107951" lon="11.381249733432705"><ele>36.0</ele><time>2026-03-22T15:02:27.802Z</time></trkpt><trkpt lat="42.55475362804435" lon="11.381527981849361"><ele>36.666666666666664</ele><time>2026-03-22T15:02:28.802Z</time></trkpt><trkpt lat="42.55476414794838" lon="11.381804779692988"><ele>37.33333333333333</ele><time>2026-03-22T15:02:29.802Z</time></trkpt><trkpt lat="42.55479004487502" lon="11.382081769647495"><ele>38.0</ele><time>2026-03-22T15:02:30.802Z</time></trkpt><trkpt lat="42.55481795352459" lon="11.382357106551323"><ele>38.0</ele><time>2026-03-22T15:02:31.802Z</time></trkpt><trkpt lat="42.55487736370336" lon="11.382612377859495"><ele>38.0</ele><time>2026-03-22T15:02:32.802Z</time></trkpt><trkpt lat="42.5548859370956" lon="11.382861146601645"><ele>38.0</ele><time>2026-03-22T15:02:33.802Z</time></trkpt><trkpt lat="42.55486195614514" lon="11.383092294135551"><ele>38.0</ele><time>2026-03-22T15:02:34.802Z</time></trkpt><trkpt lat="42.55480744161118" lon="11.383304741286643"><ele>38.0</ele><time>2026-03-22T15:02:35.802Z</time></trkpt><trkpt lat="42.55472962735284" lon="11.383491508988728"><ele>38.0</ele><time>2026-03-22T15:02:36.802Z</time></trkpt><trkpt lat="42.554636525221476" lon="11.383652385308675"><ele>37.33333333333333</ele><time>2026-03-22T15:02:37.802Z</time></trkpt><trkpt lat="42.554515506008414" lon="11.3837713846753"><ele>36.666666666666664</ele><time>2026-03-22T15:02:38.802Z</time></trkpt><trkpt lat="42.554373393362106" lon="11.383871357801093"><ele>36.0</ele><time>2026-03-22T15:02:39.804Z</time></trkpt><trkpt lat="42.55421793873916" lon="11.383939613588977"><ele>35.666666666666664</ele><time>2026-03-22T15:02:40.804Z</time></trkpt><trkpt lat="42.55404340871607" lon="11.383987536772601"><ele>35.33333333333333</ele><time>2026-03-22T15:02:41.804Z</time></trkpt><trkpt lat="42.55386349564554" lon="11.384061241180367"><ele>35.0</ele><time>2026-03-22T15:02:42.804Z</time></trkpt><trkpt lat="42.55368728801826" lon="11.384129740948163"><ele>35.0</ele><time>2026-03-22T15:02:43.804Z</time></trkpt><trkpt lat="42.553506051741195" lon="11.384198015535999"><ele>35.0</ele><time>2026-03-22T15:02:44.804Z</time></trkpt><trkpt lat="42.55332887390904" lon="11.384267885797268"><ele>35.0</ele><time>2026-03-22T15:02:45.803Z</time></trkpt><trkpt lat="42.55314367611618" lon="11.384343141195766"><ele>35.0</ele><time>2026-03-22T15:02:46.803Z</time></trkpt><trkpt lat="42.55295397126164" lon="11.38441991720581"><ele>35.0</ele><time>2026-03-22T15:02:47.803Z</time></trkpt><trkpt lat="42.55276506994938" lon="11.384498563542426"><ele>35.0</ele><time>2026-03-22T15:02:48.803Z</time></trkpt><trkpt lat="42.55257225987888" lon="11.384576604457342"><ele>34.666666666666664</ele><time>2026-03-22T15:02:49.804Z</time></trkpt><trkpt lat="42.552383925548014" lon="11.384653176785118"><ele>34.333333333333336</ele><time>2026-03-22T15:02:50.804Z</time></trkpt><trkpt lat="42.55219296553619" lon="11.38473364720002"><ele>34.0</ele><time>2026-03-22T15:02:51.804Z</time></trkpt><trkpt lat="42.55200326099562" lon="11.384815137484367"><ele>36.66666666666667</ele><time>2026-03-22T15:02:52.804Z</time></trkpt><trkpt lat="42.55181323990095" lon="11.384898838922945"><ele>39.333333333333336</ele><time>2026-03-22T15:02:53.804Z</time></trkpt><trkpt lat="42.55163202463382" lon="11.38498774595187"><ele>42.0</ele><time>2026-03-22T15:02:54.804Z</time></trkpt><trkpt lat="42.551461623250844" lon="11.385097849177814"><ele>42.0</ele><time>2026-03-22T15:02:55.804Z</time></trkpt><trkpt lat="42.55129963080388" lon="11.385238963064912"><ele>42.0</ele><time>2026-03-22T15:02:56.804Z</time></trkpt><trkpt lat="42.55115201722564" lon="11.38540652249005"><ele>42.0</ele><time>2026-03-22T15:02:57.804Z</time></trkpt><trkpt lat="42.551025855434254" lon="11.38560415397929"><ele>43.666666666666664</ele><time>2026-03-22T15:02:58.804Z</time></trkpt><trkpt lat="42.55091228017915" lon="11.385811210375175"><ele>45.33333333333333</ele><time>2026-03-22T15:02:59.804Z</time></trkpt><trkpt lat="42.550821621529956" lon="11.386057241105572"><ele>47.0</ele><time>2026-03-22T15:03:00.804Z</time></trkpt><trkpt lat="42.55074838593993" lon="11.386315083123895"><ele>47.0</ele><time>2026-03-22T15:03:01.804Z</time></trkpt><trkpt lat="42.55069894118478" lon="11.386583164988714"><ele>47.0</ele><time>2026-03-22T15:03:02.804Z</time></trkpt><trkpt lat="42.550669509273" lon="11.386859026191027"><ele>47.0</ele><time>2026-03-22T15:03:03.803Z</time></trkpt><trkpt lat="42.550644162189464" lon="11.387144516273615"><ele>46.666666666666664</ele><time>2026-03-22T15:03:04.803Z</time></trkpt><trkpt lat="42.55062098494572" lon="11.387433788744227"><ele>46.333333333333336</ele><time>2026-03-22T15:03:05.803Z</time></trkpt><trkpt lat="42.55059283817059" lon="11.387724172375817"><ele>46.0</ele><time>2026-03-22T15:03:06.803Z</time></trkpt><trkpt lat="42.55055647077437" lon="11.388027311918602"><ele>46.0</ele><time>2026-03-22T15:03:07.803Z</time></trkpt><trkpt lat="42.55051948400715" lon="11.388334224153969"><ele>46.0</ele><time>2026-03-22T15:03:08.803Z</time></trkpt><trkpt lat="42.55047810260582" lon="11.388644100226356"><ele>48.5</ele><time>2026-03-22T15:03:09.803Z</time></trkpt><trkpt lat="42.55044230329335" lon="11.388957453570237"><ele>51.0</ele><time>2026-03-22T15:03:10.803Z</time></trkpt><trkpt lat="42.550413134361044" lon="11.389267150353577"><ele>51.0</ele><time>2026-03-22T15:03:11.803Z</time></trkpt><trkpt lat="42.55037928874483" lon="11.38957662574542"><ele>51.0</ele><time>2026-03-22T15:03:12.803Z</time></trkpt><trkpt lat="42.55034150427003" lon="11.389886818317253"><ele>45.0</ele><time>2026-03-22T15:03:13.803Z</time></trkpt><trkpt lat="42.55030157658944" lon="11.390196113131715"><ele>39.0</ele><time>2026-03-22T15:03:14.803Z</time></trkpt><trkpt lat="42.55026278050176" lon="11.390510840665408"><ele>39.0</ele><time>2026-03-22T15:03:15.803Z</time></trkpt><trkpt lat="42.55022931678141" lon="11.39082425529815"><ele>39.0</ele><time>2026-03-22T15:03:16.803Z</time></trkpt><trkpt lat="42.55019983347917" lon="11.391133438445761"><ele>39.0</ele><time>2026-03-22T15:03:17.803Z</time></trkpt><trkpt lat="42.55016652142686" lon="11.391442740741622"><ele>39.0</ele><time>2026-03-22T15:03:18.803Z</time></trkpt><trkpt lat="42.55012571019341" lon="11.391754169943558"><ele>39.0</ele><time>2026-03-22T15:03:19.803Z</time></trkpt><trkpt lat="42.550079667146235" lon="11.392065554761407"><ele>39.0</ele><time>2026-03-22T15:03:20.803Z</time></trkpt><trkpt lat="42.55002978697294" lon="11.392371644372982"><ele>40.5</ele><time>2026-03-22T15:03:21.803Z</time></trkpt><trkpt lat="42.54998076336071" lon="11.392670042865904"><ele>42.0</ele><time>2026-03-22T15:03:22.802Z</time></trkpt><trkpt lat="42.54992547031532" lon="11.392982677223076"><ele>43.5</ele><time>2026-03-22T15:03:23.802Z</time></trkpt><trkpt lat="42.54987561884252" lon="11.393290550399067"><ele>45.0</ele><time>2026-03-22T15:03:24.802Z</time></trkpt><trkpt lat="42.54982902816818" lon="11.393598622728904"><ele>46.0</ele><time>2026-03-22T15:03:25.802Z</time></trkpt><trkpt lat="42.54977932628342" lon="11.393905724849143"><ele>47.0</ele><time>2026-03-22T15:03:26.802Z</time></trkpt><trkpt lat="42.549727854620485" lon="11.394215713805139"><ele>47.0</ele><time>2026-03-22T15:03:27.802Z</time></trkpt><trkpt lat="42.54967548563272" lon="11.394524716704868"><ele>47.0</ele><time>2026-03-22T15:03:28.802Z</time></trkpt><trkpt lat="42.549617177429006" lon="11.394831408700005"><ele>49.5</ele><time>2026-03-22T15:03:29.802Z</time></trkpt><trkpt lat="42.54955617620714" lon="11.39513678926947"><ele>52.0</ele><time>2026-03-22T15:03:30.802Z</time></trkpt><trkpt lat="42.549504713647934" lon="11.395441698887666"><ele>46.0</ele><time>2026-03-22T15:03:31.802Z</time></trkpt><trkpt lat="42.549450999066856" lon="11.39574047137041"><ele>40.0</ele><time>2026-03-22T15:03:32.802Z</time></trkpt><trkpt lat="42.54939516633121" lon="11.396039544119242"><ele>40.0</ele><time>2026-03-22T15:03:33.802Z</time></trkpt><trkpt lat="42.549340754890785" lon="11.39633430217085"><ele>40.0</ele><time>2026-03-22T15:03:34.802Z</time></trkpt><trkpt lat="42.54928535903779" lon="11.396621526230053"><ele>40.0</ele><time>2026-03-22T15:03:35.802Z</time></trkpt><trkpt lat="42.549180246292075" lon="11.396870560403968"><ele>40.333333333333336</ele><time>2026-03-22T15:03:36.802Z</time></trkpt><trkpt lat="42.54912997700753" lon="11.397134677504573"><ele>40.666666666666664</ele><time>2026-03-22T15:03:37.802Z</time></trkpt><trkpt lat="42.54907929932127" lon="11.397400940404346"><ele>41.0</ele><time>2026-03-22T15:03:38.802Z</time></trkpt><trkpt lat="42.549024233969774" lon="11.397665226144326"><ele>41.666666666666664</ele><time>2026-03-22T15:03:39.802Z</time></trkpt><trkpt lat="42.54895305470679" lon="11.39791313132733"><ele>42.333333333333336</ele><time>2026-03-22T15:03:40.801Z</time></trkpt><trkpt lat="42.54886530466966" lon="11.398164489223333"><ele>43.0</ele><time>2026-03-22T15:03:41.801Z</time></trkpt><trkpt lat="42.548769355297104" lon="11.398420287802875"><ele>43.333333333333336</ele><time>2026-03-22T15:03:42.801Z</time></trkpt><trkpt lat="42.54867099195983" lon="11.39867075160689"><ele>43.666666666666664</ele><time>2026-03-22T15:03:43.801Z</time></trkpt><trkpt lat="42.54855884817848" lon="11.398929656433594"><ele>44.0</ele><time>2026-03-22T15:03:44.801Z</time></trkpt><trkpt lat="42.54843290837166" lon="11.399172110007738"><ele>44.0</ele><time>2026-03-22T15:03:45.801Z</time></trkpt><trkpt lat="42.5482962629619" lon="11.39940463941369"><ele>44.0</ele><time>2026-03-22T15:03:46.801Z</time></trkpt><trkpt lat="42.54816003436401" lon="11.399632507316966"><ele>44.0</ele><time>2026-03-22T15:03:47.801Z</time></trkpt><trkpt lat="42.5480213573226" lon="11.399865711851747"><ele>44.33333333333333</ele><time>2026-03-22T15:03:48.801Z</time></trkpt><trkpt lat="42.5478855257552" lon="11.400100209564696"><ele>44.666666666666664</ele><time>2026-03-22T15:03:49.801Z</time></trkpt><trkpt lat="42.54775007254311" lon="11.400335087228346"><ele>45.0</ele><time>2026-03-22T15:03:50.801Z</time></trkpt><trkpt lat="42.547618180753226" lon="11.400568698028746"><ele>45.0</ele><time>2026-03-22T15:03:51.801Z</time></trkpt><trkpt lat="42.5474875012547" lon="11.400807941403468"><ele>45.0</ele><time>2026-03-22T15:03:52.801Z</time></trkpt><trkpt lat="42.54736062299272" lon="11.40104166359738"><ele>45.0</ele><time>2026-03-22T15:03:53.801Z</time></trkpt><trkpt lat="42.54723238220911" lon="11.40128265960964"><ele>43.666666666666664</ele><time>2026-03-22T15:03:54.801Z</time></trkpt><trkpt lat="42.547122213176806" lon="11.401519312503147"><ele>42.33333333333333</ele><time>2026-03-22T15:03:55.801Z</time></trkpt><trkpt lat="42.547019549419325" lon="11.40175070119481"><ele>41.0</ele><time>2026-03-22T15:03:56.801Z</time></trkpt><trkpt lat="42.54692906141992" lon="11.40199638085833"><ele>41.666666666666664</ele><time>2026-03-22T15:03:57.801Z</time></trkpt><trkpt lat="42.54684873634251" lon="11.40225461605103"><ele>42.333333333333336</ele><time>2026-03-22T15:03:58.801Z</time></trkpt><trkpt lat="42.54676630126998" lon="11.402522614341263"><ele>43.0</ele><time>2026-03-22T15:03:59.8Z</time></trkpt><trkpt lat="42.54667217899547" lon="11.402796048860374"><ele>44.333333333333336</ele><time>2026-03-22T15:04:00.8Z</time></trkpt><trkpt lat="42.54657067936344" lon="11.403070726713683"><ele>45.666666666666664</ele><time>2026-03-22T15:04:01.8Z</time></trkpt><trkpt lat="42.546468675743775" lon="11.403339294412746"><ele>47.0</ele><time>2026-03-22T15:04:02.8Z</time></trkpt><trkpt lat="42.54636853132287" lon="11.403600556937395"><ele>48.33333333333333</ele><time>2026-03-22T15:04:03.8Z</time></trkpt><trkpt lat="42.546264788617115" lon="11.403863066079134"><ele>49.666666666666664</ele><time>2026-03-22T15:04:04.8Z</time></trkpt><trkpt lat="42.54615845083337" lon="11.404122166663853"><ele>51.0</ele><time>2026-03-22T15:04:05.8Z</time></trkpt><trkpt lat="42.546047891847834" lon="11.404351364958961"><ele>49.666666666666664</ele><time>2026-03-22T15:04:06.8Z</time></trkpt><trkpt lat="42.545931317227925" lon="11.404571565605183"><ele>48.33333333333333</ele><time>2026-03-22T15:04:07.8Z</time></trkpt><trkpt lat="42.54580937089218" lon="11.404799864964493"><ele>47.0</ele><time>2026-03-22T15:04:08.8Z</time></trkpt><trkpt lat="42.54569350391896" lon="11.405019577529194"><ele>47.0</ele><time>2026-03-22T15:04:09.8Z</time></trkpt><trkpt lat="42.54558622569633" lon="11.405232029453513"><ele>47.0</ele><time>2026-03-22T15:04:10.8Z</time></trkpt><trkpt lat="42.545489014627236" lon="11.405436339567284"><ele>47.0</ele><time>2026-03-22T15:04:11.8Z</time></trkpt><trkpt lat="42.54540100353602" lon="11.40563380544917"><ele>46.75</ele><time>2026-03-22T15:04:12.8Z</time></trkpt><trkpt lat="42.545327489769264" lon="11.405803468443096"><ele>46.5</ele><time>2026-03-22T15:04:13.8Z</time></trkpt><trkpt lat="42.54525942370428" lon="11.40596155784158"><ele>46.25</ele><time>2026-03-22T15:04:14.8Z</time></trkpt><trkpt lat="42.54519432794161" lon="11.406117889698946"><ele>46.0</ele><time>2026-03-22T15:04:15.8Z</time></trkpt><trkpt lat="42.54513005887069" lon="11.406274849503198"><ele>46.25</ele><time>2026-03-22T15:04:16.8Z</time></trkpt><trkpt lat="42.54506903501708" lon="11.406424685723264"><ele>46.5</ele><time>2026-03-22T15:04:17.8Z</time></trkpt><trkpt lat="42.545011481343266" lon="11.406570242484966"><ele>46.75</ele><time>2026-03-22T15:04:18.799Z</time></trkpt><trkpt lat="42.544953899896896" lon="11.406721397942496"><ele>47.0</ele><time>2026-03-22T15:04:19.799Z</time></trkpt><trkpt lat="42.54490890161257" lon="11.406878730615526"><ele>47.0</ele><time>2026-03-22T15:04:20.799Z</time></trkpt><trkpt lat="42.54487230134929" lon="11.407045240772081"><ele>47.0</ele><time>2026-03-22T15:04:21.799Z</time></trkpt><trkpt lat="42.544871339058766" lon="11.40723025919768"><ele>47.0</ele><time>2026-03-22T15:04:22.799Z</time></trkpt><trkpt lat="42.5448670895038" lon="11.40741079388994"><ele>47.0</ele><time>2026-03-22T15:04:23.799Z</time></trkpt><trkpt lat="42.54488215180394" lon="11.407591757803768"><ele>47.0</ele><time>2026-03-22T15:04:24.799Z</time></trkpt><trkpt lat="42.54493662125708" lon="11.407772171517673"><ele>47.0</ele><time>2026-03-22T15:04:25.799Z</time></trkpt><trkpt lat="42.544993002834055" lon="11.40795955560457"><ele>47.0</ele><time>2026-03-22T15:04:26.799Z</time></trkpt><trkpt lat="42.54505581571299" lon="11.408130031697135"><ele>47.0</ele><time>2026-03-22T15:04:27.799Z</time></trkpt><trkpt lat="42.54515181714169" lon="11.408350043034122"><ele>46.666666666666664</ele><time>2026-03-22T15:04:28.799Z</time></trkpt><trkpt lat="42.545252043793454" lon="11.408595598109539"><ele>46.333333333333336</ele><time>2026-03-22T15:04:29.799Z</time></trkpt><trkpt lat="42.5453679767306" lon="11.408843883956001"><ele>46.0</ele><time>2026-03-22T15:04:30.799Z</time></trkpt><trkpt lat="42.545472779147445" lon="11.409115919859813"><ele>46.66666666666667</ele><time>2026-03-22T15:04:31.799Z</time></trkpt><trkpt lat="42.54558306256511" lon="11.409370754902945"><ele>47.333333333333336</ele><time>2026-03-22T15:04:32.799Z</time></trkpt><trkpt lat="42.54563877245132" lon="11.409637827586485"><ele>48.0</ele><time>2026-03-22T15:04:33.799Z</time></trkpt><trkpt lat="42.54567209511346" lon="11.409891592824671"><ele>48.0</ele><time>2026-03-22T15:04:34.799Z</time></trkpt><trkpt lat="42.545665642727606" lon="11.41014407164638"><ele>48.0</ele><time>2026-03-22T15:04:35.799Z</time></trkpt><trkpt lat="42.54565083044502" lon="11.410414287167459"><ele>48.0</ele><time>2026-03-22T15:04:36.798Z</time></trkpt><trkpt lat="42.54563450038604" lon="11.410703631593266"><ele>48.0</ele><time>2026-03-22T15:04:37.798Z</time></trkpt><trkpt lat="42.54561811785092" lon="11.41100334135374"><ele>48.0</ele><time>2026-03-22T15:04:38.798Z</time></trkpt><trkpt lat="42.54560934605282" lon="11.411304205357954"><ele>48.0</ele><time>2026-03-22T15:04:39.798Z</time></trkpt><trkpt lat="42.54563486661678" lon="11.41160680205028"><ele>48.0</ele><time>2026-03-22T15:04:40.798Z</time></trkpt><trkpt lat="42.545684083357116" lon="11.411902567168584"><ele>48.0</ele><time>2026-03-22T15:04:41.798Z</time></trkpt><trkpt lat="42.545738679200966" lon="11.41220010459967"><ele>48.0</ele><time>2026-03-22T15:04:42.798Z</time></trkpt><trkpt lat="42.54579385448639" lon="11.41250349089129"><ele>48.0</ele><time>2026-03-22T15:04:43.798Z</time></trkpt><trkpt lat="42.54584976714527" lon="11.412810576951454"><ele>48.0</ele><time>2026-03-22T15:04:44.798Z</time></trkpt><trkpt lat="42.54590724584155" lon="11.413124293733107"><ele>48.0</ele><time>2026-03-22T15:04:45.8Z</time></trkpt><trkpt lat="42.54596488814046" lon="11.413438903369794"><ele>48.0</ele><time>2026-03-22T15:04:46.8Z</time></trkpt><trkpt lat="42.54602282357268" lon="11.413755112872423"><ele>47.5</ele><time>2026-03-22T15:04:47.799Z</time></trkpt><trkpt lat="42.546081178592" lon="11.414073612415402"><ele>47.0</ele><time>2026-03-22T15:04:48.8Z</time></trkpt><trkpt lat="42.546138142024645" lon="11.414384516779295"><ele>47.0</ele><time>2026-03-22T15:04:49.8Z</time></trkpt><trkpt lat="42.5461879378821" lon="11.41466570121883"><ele>47.0</ele><time>2026-03-22T15:04:50.8Z</time></trkpt><trkpt lat="42.54623261601099" lon="11.414920790160778"><ele>47.0</ele><time>2026-03-22T15:04:51.8Z</time></trkpt><trkpt lat="42.5462827008599" lon="11.415159700857386"><ele>47.0</ele><time>2026-03-22T15:04:52.799Z</time></trkpt><trkpt lat="42.546374464579536" lon="11.41537273821266"><ele>47.0</ele><time>2026-03-22T15:04:53.799Z</time></trkpt><trkpt lat="42.54647579748057" lon="11.415566372730355"><ele>47.0</ele><time>2026-03-22T15:04:54.8Z</time></trkpt><trkpt lat="42.54660854028565" lon="11.415752086612208"><ele>47.33333333333333</ele><time>2026-03-22T15:04:55.8Z</time></trkpt><trkpt lat="42.546773051793735" lon="11.4159264014227"><ele>47.666666666666664</ele><time>2026-03-22T15:04:56.8Z</time></trkpt><trkpt lat="42.546937550845925" lon="11.416121011607835"><ele>48.0</ele><time>2026-03-22T15:04:57.8Z</time></trkpt><trkpt lat="42.54710193082551" lon="11.416326339331032"><ele>49.66666666666667</ele><time>2026-03-22T15:04:58.8Z</time></trkpt><trkpt lat="42.547261290522755" lon="11.416533056470605"><ele>51.333333333333336</ele><time>2026-03-22T15:04:59.8Z</time></trkpt><trkpt lat="42.54742390644708" lon="11.41674640258338"><ele>53.0</ele><time>2026-03-22T15:05:00.8Z</time></trkpt><trkpt lat="42.54758190021342" lon="11.416966187449308"><ele>53.0</ele><time>2026-03-22T15:05:01.8Z</time></trkpt><trkpt lat="42.54771848630182" lon="11.417183765849066"><ele>53.0</ele><time>2026-03-22T15:05:02.8Z</time></trkpt><trkpt lat="42.54784377675873" lon="11.4173891606527"><ele>53.0</ele><time>2026-03-22T15:05:03.8Z</time></trkpt><trkpt lat="42.547972934082296" lon="11.41760260756653"><ele>54.0</ele><time>2026-03-22T15:05:04.8Z</time></trkpt><trkpt lat="42.5481068299105" lon="11.417818139777538"><ele>55.0</ele><time>2026-03-22T15:05:05.799Z</time></trkpt><trkpt lat="42.548261569593244" lon="11.418009595678862"><ele>56.0</ele><time>2026-03-22T15:05:06.798Z</time></trkpt><trkpt lat="42.54843645874456" lon="11.41817472054779"><ele>56.0</ele><time>2026-03-22T15:05:07.798Z</time></trkpt><trkpt lat="42.54863827987089" lon="11.418310744426673"><ele>56.0</ele><time>2026-03-22T15:05:08.798Z</time></trkpt><trkpt lat="42.54885725505496" lon="11.418413135748382"><ele>57.5</ele><time>2026-03-22T15:05:09.798Z</time></trkpt><trkpt lat="42.549085516123014" lon="11.418497143483302"><ele>59.0</ele><time>2026-03-22T15:05:10.798Z</time></trkpt><trkpt lat="42.54932244066533" lon="11.418562275628227"><ele>57.5</ele><time>2026-03-22T15:05:11.798Z</time></trkpt><trkpt lat="42.54956509436836" lon="11.418628110900151"><ele>56.0</ele><time>2026-03-22T15:05:12.798Z</time></trkpt><trkpt lat="42.549807269232254" lon="11.41870155484383"><ele>56.0</ele><time>2026-03-22T15:05:13.798Z</time></trkpt><trkpt lat="42.55005261660491" lon="11.418784652814399"><ele>56.0</ele><time>2026-03-22T15:05:14.798Z</time></trkpt><trkpt lat="42.5502989698891" lon="11.418877851699142"><ele>55.0</ele><time>2026-03-22T15:05:15.798Z</time></trkpt><trkpt lat="42.5505497832212" lon="11.418984085387033"><ele>54.0</ele><time>2026-03-22T15:05:16.798Z</time></trkpt><trkpt lat="42.55079338365145" lon="11.419109073974246"><ele>54.0</ele><time>2026-03-22T15:05:17.798Z</time></trkpt><trkpt lat="42.55103751094475" lon="11.419239745570339"><ele>54.0</ele><time>2026-03-22T15:05:18.798Z</time></trkpt><trkpt lat="42.551271094011874" lon="11.419370794465232"><ele>54.5</ele><time>2026-03-22T15:05:19.798Z</time></trkpt><trkpt lat="42.55149096388907" lon="11.419494044439606"><ele>55.0</ele><time>2026-03-22T15:05:20.798Z</time></trkpt><trkpt lat="42.55169436253931" lon="11.419607612750424"><ele>55.0</ele><time>2026-03-22T15:05:21.798Z</time></trkpt><trkpt lat="42.551884030840895" lon="11.419715525001115"><ele>55.0</ele><time>2026-03-22T15:05:22.798Z</time></trkpt><trkpt lat="42.55206606593378" lon="11.41981662184302"><ele>55.0</ele><time>2026-03-22T15:05:23.798Z</time></trkpt><trkpt lat="42.55225211099817" lon="11.419917335742579"><ele>56.33333333333333</ele><time>2026-03-22T15:05:24.797Z</time></trkpt><trkpt lat="42.5524414774913" lon="11.420015763359764"><ele>57.66666666666667</ele><time>2026-03-22T15:05:25.797Z</time></trkpt><trkpt lat="42.55262881623764" lon="11.420116324792323"><ele>59.0</ele><time>2026-03-22T15:05:26.797Z</time></trkpt><trkpt lat="42.55281689791797" lon="11.420219498727635"><ele>58.333333333333336</ele><time>2026-03-22T15:05:27.797Z</time></trkpt><trkpt lat="42.5530064124161" lon="11.42032364408636"><ele>57.66666666666667</ele><time>2026-03-22T15:05:28.797Z</time></trkpt><trkpt lat="42.553196639522454" lon="11.420432010983314"><ele>57.0</ele><time>2026-03-22T15:05:29.797Z</time></trkpt><trkpt lat="42.55339313670418" lon="11.420541853799733"><ele>56.66666666666667</ele><time>2026-03-22T15:05:30.797Z</time></trkpt><trkpt lat="42.55360058810116" lon="11.420652400880668"><ele>56.333333333333336</ele><time>2026-03-22T15:05:31.797Z</time></trkpt><trkpt lat="42.55380935417323" lon="11.420767830683396"><ele>56.0</ele><time>2026-03-22T15:05:32.797Z</time></trkpt><trkpt lat="42.554021038270996" lon="11.420886190733324"><ele>55.0</ele><time>2026-03-22T15:05:33.797Z</time></trkpt><trkpt lat="42.55423649465914" lon="11.421003836059942"><ele>54.0</ele><time>2026-03-22T15:05:34.797Z</time></trkpt><trkpt lat="42.5544562691452" lon="11.42112412802936"><ele>55.0</ele><time>2026-03-22T15:05:35.797Z</time></trkpt><trkpt lat="42.55467558898718" lon="11.421248168026633"><ele>56.0</ele><time>2026-03-22T15:05:36.797Z</time></trkpt><trkpt lat="42.55489647862347" lon="11.42137481595053"><ele>56.0</ele><time>2026-03-22T15:05:37.797Z</time></trkpt><trkpt lat="42.555119144558645" lon="11.421498234799794"><ele>56.0</ele><time>2026-03-22T15:05:38.797Z</time></trkpt><trkpt lat="42.55533851804573" lon="11.421618156478289"><ele>57.0</ele><time>2026-03-22T15:05:39.797Z</time></trkpt><trkpt lat="42.55555913286557" lon="11.42173677615969"><ele>58.0</ele><time>2026-03-22T15:05:40.797Z</time></trkpt><trkpt lat="42.55578360925287" lon="11.421857558434374"><ele>58.0</ele><time>2026-03-22T15:05:41.797Z</time></trkpt><trkpt lat="42.556004465143545" lon="11.421981032032482"><ele>58.0</ele><time>2026-03-22T15:05:42.796Z</time></trkpt><trkpt lat="42.55622687909833" lon="11.42210181720271"><ele>60.5</ele><time>2026-03-22T15:05:43.796Z</time></trkpt><trkpt lat="42.556447202595514" lon="11.42222471428306"><ele>63.0</ele><time>2026-03-22T15:05:44.796Z</time></trkpt><trkpt lat="42.556664935660194" lon="11.422346956371928"><ele>63.0</ele><time>2026-03-22T15:05:45.796Z</time></trkpt><trkpt lat="42.55688353913229" lon="11.422470002711316"><ele>63.0</ele><time>2026-03-22T15:05:46.796Z</time></trkpt><trkpt lat="42.55710319908916" lon="11.422593629648063"><ele>64.0</ele><time>2026-03-22T15:05:47.796Z</time></trkpt><trkpt lat="42.55732159899607" lon="11.422712230450994"><ele>65.0</ele><time>2026-03-22T15:05:48.796Z</time></trkpt><trkpt lat="42.55753997817578" lon="11.422832097445228"><ele>65.0</ele><time>2026-03-22T15:05:49.796Z</time></trkpt><trkpt lat="42.55775618023958" lon="11.422952138430567"><ele>65.0</ele><time>2026-03-22T15:05:50.796Z</time></trkpt><trkpt lat="42.55797587999546" lon="11.42307391708209"><ele>63.5</ele><time>2026-03-22T15:05:51.796Z</time></trkpt><trkpt lat="42.55819331881445" lon="11.423194306152814"><ele>62.0</ele><time>2026-03-22T15:05:52.796Z</time></trkpt><trkpt lat="42.55840875888412" lon="11.423315718540602"><ele>62.0</ele><time>2026-03-22T15:05:53.796Z</time></trkpt><trkpt lat="42.55862610935978" lon="11.423437103766373"><ele>62.0</ele><time>2026-03-22T15:05:54.796Z</time></trkpt><trkpt lat="42.55884131534655" lon="11.423556315508238"><ele>62.0</ele><time>2026-03-22T15:05:55.796Z</time></trkpt><trkpt lat="42.55905422306768" lon="11.423674930796258"><ele>62.0</ele><time>2026-03-22T15:05:56.796Z</time></trkpt><trkpt lat="42.55926960837352" lon="11.423797620806813"><ele>62.5</ele><time>2026-03-22T15:05:57.796Z</time></trkpt><trkpt lat="42.559485716163564" lon="11.423919345671674"><ele>63.0</ele><time>2026-03-22T15:05:58.796Z</time></trkpt><trkpt lat="42.55970084962269" lon="11.424037858052772"><ele>63.0</ele><time>2026-03-22T15:05:59.796Z</time></trkpt><trkpt lat="42.5599137734907" lon="11.424155165789267"><ele>63.0</ele><time>2026-03-22T15:06:00.796Z</time></trkpt><trkpt lat="42.560127331832405" lon="11.424273506548221"><ele>63.0</ele><time>2026-03-22T15:06:01.795Z</time></trkpt><trkpt lat="42.56033946064856" lon="11.42439273187182"><ele>63.0</ele><time>2026-03-22T15:06:02.795Z</time></trkpt><trkpt lat="42.560548276028946" lon="11.424511446217563"><ele>64.0</ele><time>2026-03-22T15:06:03.795Z</time></trkpt><trkpt lat="42.5607603111421" lon="11.42462661829203"><ele>65.0</ele><time>2026-03-22T15:06:04.795Z</time></trkpt><trkpt lat="42.56097211273873" lon="11.424743890760267"><ele>65.0</ele><time>2026-03-22T15:06:05.795Z</time></trkpt><trkpt lat="42.561183098848495" lon="11.42485929625889"><ele>65.0</ele><time>2026-03-22T15:06:06.795Z</time></trkpt><trkpt lat="42.56139165377147" lon="11.424978527712206"><ele>64.33333333333334</ele><time>2026-03-22T15:06:07.795Z</time></trkpt><trkpt lat="42.561593344370344" lon="11.425089519687369"><ele>63.66666666666667</ele><time>2026-03-22T15:06:08.795Z</time></trkpt><trkpt lat="42.56179624657234" lon="11.425207815363631"><ele>63.0</ele><time>2026-03-22T15:06:09.795Z</time></trkpt><trkpt lat="42.56199515461236" lon="11.425330938693468"><ele>64.66666666666667</ele><time>2026-03-22T15:06:10.795Z</time></trkpt><trkpt lat="42.56218837546284" lon="11.42547077015073"><ele>66.33333333333334</ele><time>2026-03-22T15:06:11.795Z</time></trkpt><trkpt lat="42.56236772282764" lon="11.425634113855097"><ele>68.0</ele><time>2026-03-22T15:06:12.795Z</time></trkpt><trkpt lat="42.56253375983412" lon="11.425835900812414"><ele>68.0</ele><time>2026-03-22T15:06:13.795Z</time></trkpt><trkpt lat="42.562696170372334" lon="11.426058866712808"><ele>68.0</ele><time>2026-03-22T15:06:14.795Z</time></trkpt><trkpt lat="42.56283742269019" lon="11.426296091066831"><ele>69.5</ele><time>2026-03-22T15:06:15.795Z</time></trkpt><trkpt lat="42.56298553306621" lon="11.426539533781998"><ele>71.0</ele><time>2026-03-22T15:06:16.795Z</time></trkpt><trkpt lat="42.56313936120741" lon="11.4267858875924"><ele>71.0</ele><time>2026-03-22T15:06:17.795Z</time></trkpt><trkpt lat="42.563299443844365" lon="11.427025460760094"><ele>71.0</ele><time>2026-03-22T15:06:18.795Z</time></trkpt><trkpt lat="42.56345602068796" lon="11.427268058110508"><ele>69.0</ele><time>2026-03-22T15:06:19.795Z</time></trkpt><trkpt lat="42.56361065080344" lon="11.427510213880803"><ele>67.0</ele><time>2026-03-22T15:06:20.794Z</time></trkpt><trkpt lat="42.563764270939274" lon="11.42775298901735"><ele>68.5</ele><time>2026-03-22T15:06:21.794Z</time></trkpt><trkpt lat="42.563916632859645" lon="11.427996983664036"><ele>70.0</ele><time>2026-03-22T15:06:22.794Z</time></trkpt><trkpt lat="42.56406583132324" lon="11.428237215445098"><ele>70.0</ele><time>2026-03-22T15:06:23.794Z</time></trkpt><trkpt lat="42.56421623803336" lon="11.428475108097718"><ele>70.0</ele><time>2026-03-22T15:06:24.794Z</time></trkpt><trkpt lat="42.56436611995127" lon="11.42870733188065"><ele>70.0</ele><time>2026-03-22T15:06:25.794Z</time></trkpt><trkpt lat="42.564517623427044" lon="11.428941420730023"><ele>70.0</ele><time>2026-03-22T15:06:26.794Z</time></trkpt><trkpt lat="42.56466655171056" lon="11.42917443284413"><ele>70.0</ele><time>2026-03-22T15:06:27.794Z</time></trkpt><trkpt lat="42.56481725757739" lon="11.429415591266054"><ele>70.0</ele><time>2026-03-22T15:06:28.794Z</time></trkpt><trkpt lat="42.564961618071806" lon="11.429647280575429"><ele>69.66666666666666</ele><time>2026-03-22T15:06:29.794Z</time></trkpt><trkpt lat="42.56510617821357" lon="11.429880782569212"><ele>69.33333333333333</ele><time>2026-03-22T15:06:30.794Z</time></trkpt><trkpt lat="42.565256723805504" lon="11.430104506790256"><ele>69.0</ele><time>2026-03-22T15:06:31.794Z</time></trkpt><trkpt lat="42.56541986240862" lon="11.43031041728618"><ele>69.33333333333333</ele><time>2026-03-22T15:06:32.794Z</time></trkpt><trkpt lat="42.565589127519694" lon="11.430496410105128"><ele>69.66666666666666</ele><time>2026-03-22T15:06:33.794Z</time></trkpt><trkpt lat="42.56576429083996" lon="11.430664711255732"><ele>70.0</ele><time>2026-03-22T15:06:34.794Z</time></trkpt><trkpt lat="42.565939719313555" lon="11.430823002865989"><ele>70.0</ele><time>2026-03-22T15:06:35.794Z</time></trkpt><trkpt lat="42.56612966248063" lon="11.430952288294154"><ele>70.0</ele><time>2026-03-22T15:06:36.794Z</time></trkpt><trkpt lat="42.56632542095256" lon="11.43104845184858"><ele>70.0</ele><time>2026-03-22T15:06:37.794Z</time></trkpt><trkpt lat="42.56652932224827" lon="11.431111483781727"><ele>70.66666666666666</ele><time>2026-03-22T15:06:38.793Z</time></trkpt><trkpt lat="42.566738639605354" lon="11.431133734455452"><ele>71.33333333333333</ele><time>2026-03-22T15:06:39.793Z</time></trkpt><trkpt lat="42.5669569637933" lon="11.431138809918059"><ele>72.0</ele><time>2026-03-22T15:06:40.793Z</time></trkpt><trkpt lat="42.567173431928225" lon="11.43113630067047"><ele>72.33333333333333</ele><time>2026-03-22T15:06:41.793Z</time></trkpt><trkpt lat="42.56739076540037" lon="11.431147045177445"><ele>72.66666666666666</ele><time>2026-03-22T15:06:42.793Z</time></trkpt><trkpt lat="42.56758758530758" lon="11.431169855972444"><ele>73.0</ele><time>2026-03-22T15:06:43.793Z</time></trkpt><trkpt lat="42.56777546758647" lon="11.431188955355191"><ele>73.0</ele><time>2026-03-22T15:06:44.793Z</time></trkpt><trkpt lat="42.56794916750453" lon="11.431206254015597"><ele>73.0</ele><time>2026-03-22T15:06:45.793Z</time></trkpt><trkpt lat="42.56812457507039" lon="11.431221976859938"><ele>73.0</ele><time>2026-03-22T15:06:46.793Z</time></trkpt><trkpt lat="42.568302369990356" lon="11.431226582719841"><ele>73.0</ele><time>2026-03-22T15:06:47.793Z</time></trkpt><trkpt lat="42.56847233273395" lon="11.431236870116617"><ele>73.0</ele><time>2026-03-22T15:06:48.793Z</time></trkpt><trkpt lat="42.56863643547576" lon="11.431249678673868"><ele>73.0</ele><time>2026-03-22T15:06:49.793Z</time></trkpt><trkpt lat="42.56879064214797" lon="11.431261181884592"><ele>73.5</ele><time>2026-03-22T15:06:50.793Z</time></trkpt><trkpt lat="42.568942400418855" lon="11.431273099812383"><ele>74.0</ele><time>2026-03-22T15:06:51.795Z</time></trkpt><trkpt lat="42.56908167309064" lon="11.431294295555391"><ele>74.5</ele><time>2026-03-22T15:06:52.795Z</time></trkpt><trkpt lat="42.56921370891106" lon="11.431314775701445"><ele>75.0</ele><time>2026-03-22T15:06:53.795Z</time></trkpt><trkpt lat="42.56934910748356" lon="11.431356861961506"><ele>75.0</ele><time>2026-03-22T15:06:54.795Z</time></trkpt><trkpt lat="42.56948483900493" lon="11.431470260183186"><ele>75.0</ele><time>2026-03-22T15:06:55.795Z</time></trkpt><trkpt lat="42.56962795594612" lon="11.431606730540715"><ele>75.0</ele><time>2026-03-22T15:06:56.795Z</time></trkpt><trkpt lat="42.569792632177936" lon="11.431768502057482"><ele>75.5</ele><time>2026-03-22T15:06:57.794Z</time></trkpt><trkpt lat="42.56997151359969" lon="11.431947867598806"><ele>76.0</ele><time>2026-03-22T15:06:58.794Z</time></trkpt><trkpt lat="42.57017158680232" lon="11.43213086561545"><ele>77.0</ele><time>2026-03-22T15:06:59.794Z</time></trkpt><trkpt lat="42.5703704204236" lon="11.43234335350891"><ele>78.0</ele><time>2026-03-22T15:07:00.794Z</time></trkpt><trkpt lat="42.57056363813736" lon="11.43254004055444"><ele>78.0</ele><time>2026-03-22T15:07:01.795Z</time></trkpt><trkpt lat="42.57074124825905" lon="11.432751098293467"><ele>78.0</ele><time>2026-03-22T15:07:02.795Z</time></trkpt><trkpt lat="42.570892662047214" lon="11.432982640890692"><ele>77.0</ele><time>2026-03-22T15:07:03.794Z</time></trkpt><trkpt lat="42.57104049261431" lon="11.433216310454313"><ele>76.0</ele><time>2026-03-22T15:07:04.794Z</time></trkpt><trkpt lat="42.57119950958238" lon="11.433436437746803"><ele>77.66666666666666</ele><time>2026-03-22T15:07:05.794Z</time></trkpt><trkpt lat="42.57132759778394" lon="11.433675123770852"><ele>79.33333333333333</ele><time>2026-03-22T15:07:06.794Z</time></trkpt><trkpt lat="42.57147976332158" lon="11.433886881509451"><ele>81.0</ele><time>2026-03-22T15:07:07.794Z</time></trkpt><trkpt lat="42.57162054092471" lon="11.434115312714098"><ele>81.0</ele><time>2026-03-22T15:07:08.794Z</time></trkpt><trkpt lat="42.57176380477271" lon="11.434349308012303"><ele>81.0</ele><time>2026-03-22T15:07:09.794Z</time></trkpt><trkpt lat="42.571905731884215" lon="11.434579950738256"><ele>81.0</ele><time>2026-03-22T15:07:10.794Z</time></trkpt><trkpt lat="42.57204185857412" lon="11.434794767580344"><ele>82.0</ele><time>2026-03-22T15:07:11.794Z</time></trkpt><trkpt lat="42.57217568671221" lon="11.434998841868756"><ele>83.0</ele><time>2026-03-22T15:07:12.794Z</time></trkpt><trkpt lat="42.57229425440363" lon="11.435191571504264"><ele>84.0</ele><time>2026-03-22T15:07:13.794Z</time></trkpt><trkpt lat="42.57240851448426" lon="11.435368888536221"><ele>82.66666666666667</ele><time>2026-03-22T15:07:14.794Z</time></trkpt><trkpt lat="42.57252281611296" lon="11.43552673208784"><ele>81.33333333333334</ele><time>2026-03-22T15:07:15.794Z</time></trkpt><trkpt lat="42.572650297987146" lon="11.435643806848129"><ele>80.0</ele><time>2026-03-22T15:07:16.794Z</time></trkpt><trkpt lat="42.57279252734691" lon="11.435727759905788"><ele>81.66666666666667</ele><time>2026-03-22T15:07:17.794Z</time></trkpt><trkpt lat="42.572956065881" lon="11.43577134642544"><ele>83.33333333333333</ele><time>2026-03-22T15:07:18.794Z</time></trkpt><trkpt lat="42.57312422915419" lon="11.435802943823928"><ele>85.0</ele><time>2026-03-22T15:07:19.794Z</time></trkpt><trkpt lat="42.57328940835865" lon="11.435861877863346"><ele>85.0</ele><time>2026-03-22T15:07:20.794Z</time></trkpt><trkpt lat="42.57343233644448" lon="11.435965633505617"><ele>85.0</ele><time>2026-03-22T15:07:21.794Z</time></trkpt><trkpt lat="42.573555645788275" lon="11.43610408325733"><ele>85.0</ele><time>2026-03-22T15:07:22.793Z</time></trkpt><trkpt lat="42.57363957508561" lon="11.436292035074226"><ele>86.33333333333333</ele><time>2026-03-22T15:07:23.793Z</time></trkpt><trkpt lat="42.573743556996426" lon="11.43647865713629"><ele>87.66666666666667</ele><time>2026-03-22T15:07:24.793Z</time></trkpt><trkpt lat="42.573840159457035" lon="11.436691199600237"><ele>89.0</ele><time>2026-03-22T15:07:25.793Z</time></trkpt><trkpt lat="42.573952117453274" lon="11.436902774937682"><ele>89.0</ele><time>2026-03-22T15:07:26.793Z</time></trkpt><trkpt lat="42.57406999888006" lon="11.437124054701309"><ele>89.0</ele><time>2026-03-22T15:07:27.793Z</time></trkpt><trkpt lat="42.574191309061455" lon="11.437364087756743"><ele>89.0</ele><time>2026-03-22T15:07:28.793Z</time></trkpt><trkpt lat="42.574319257734025" lon="11.437611570603538"><ele>89.33333333333334</ele><time>2026-03-22T15:07:29.793Z</time></trkpt><trkpt lat="42.574430898899955" lon="11.437873134853403"><ele>89.66666666666667</ele><time>2026-03-22T15:07:30.793Z</time></trkpt><trkpt lat="42.57455517908374" lon="11.438121087269998"><ele>90.0</ele><time>2026-03-22T15:07:31.793Z</time></trkpt><trkpt lat="42.574677678799105" lon="11.438365488035592"><ele>90.66666666666667</ele><time>2026-03-22T15:07:32.793Z</time></trkpt><trkpt lat="42.574812596019875" lon="11.438596135158464"><ele>91.33333333333334</ele><time>2026-03-22T15:07:33.793Z</time></trkpt><trkpt lat="42.57492873642101" lon="11.438829389221144"><ele>92.0</ele><time>2026-03-22T15:07:34.793Z</time></trkpt><trkpt lat="42.575051721835955" lon="11.439052039607501"><ele>92.66666666666667</ele><time>2026-03-22T15:07:35.793Z</time></trkpt><trkpt lat="42.575187477750795" lon="11.43925625448234"><ele>93.33333333333333</ele><time>2026-03-22T15:07:36.793Z</time></trkpt><trkpt lat="42.57533348201495" lon="11.439445246946264"><ele>94.0</ele><time>2026-03-22T15:07:37.793Z</time></trkpt><trkpt lat="42.57547851992196" lon="11.43960697603449"><ele>94.66666666666666</ele><time>2026-03-22T15:07:38.793Z</time></trkpt><trkpt lat="42.5756218885178" lon="11.439765308143945"><ele>95.33333333333333</ele><time>2026-03-22T15:07:39.793Z</time></trkpt><trkpt lat="42.575760121874154" lon="11.43991612504256"><ele>96.0</ele><time>2026-03-22T15:07:40.792Z</time></trkpt><trkpt lat="42.57588850365059" lon="11.440071963809418"><ele>96.0</ele><time>2026-03-22T15:07:41.792Z</time></trkpt><trkpt lat="42.57601079091588" lon="11.440216113893953"><ele>96.0</ele><time>2026-03-22T15:07:42.792Z</time></trkpt><trkpt lat="42.57612872667163" lon="11.440354463062846"><ele>96.0</ele><time>2026-03-22T15:07:43.792Z</time></trkpt><trkpt lat="42.576252629574654" lon="11.440492554081782"><ele>98.0</ele><time>2026-03-22T15:07:44.792Z</time></trkpt><trkpt lat="42.57636270211228" lon="11.44064956304521"><ele>100.0</ele><time>2026-03-22T15:07:45.792Z</time></trkpt><trkpt lat="42.57643688141784" lon="11.440842906174556"><ele>102.0</ele><time>2026-03-22T15:07:46.792Z</time></trkpt><trkpt lat="42.57650636007502" lon="11.441018889146985"><ele>102.0</ele><time>2026-03-22T15:07:47.792Z</time></trkpt><trkpt lat="42.576549268173835" lon="11.441204820079998"><ele>102.0</ele><time>2026-03-22T15:07:48.792Z</time></trkpt><trkpt lat="42.576555946271384" lon="11.441402690010879"><ele>102.0</ele><time>2026-03-22T15:07:49.792Z</time></trkpt><trkpt lat="42.57654391569494" lon="11.44162249456986"><ele>101.0</ele><time>2026-03-22T15:07:50.792Z</time></trkpt><trkpt lat="42.57653010035025" lon="11.441857005540584"><ele>100.0</ele><time>2026-03-22T15:07:51.792Z</time></trkpt><trkpt lat="42.5765121932086" lon="11.44209280047546"><ele>99.0</ele><time>2026-03-22T15:07:52.792Z</time></trkpt><trkpt lat="42.57649141671874" lon="11.442337946700752"><ele>99.25</ele><time>2026-03-22T15:07:53.792Z</time></trkpt><trkpt lat="42.5764788556042" lon="11.442538888419968"><ele>99.5</ele><time>2026-03-22T15:07:54.792Z</time></trkpt><trkpt lat="42.5764529544184" lon="11.442723555586708"><ele>99.75</ele><time>2026-03-22T15:07:55.792Z</time></trkpt><trkpt lat="42.57641396844138" lon="11.442905914964014"><ele>100.0</ele><time>2026-03-22T15:07:56.792Z</time></trkpt><trkpt lat="42.57635133215739" lon="11.443066642097799"><ele>100.0</ele><time>2026-03-22T15:07:57.792Z</time></trkpt><trkpt lat="42.576377246878394" lon="11.44329522689656"><ele>100.0</ele><time>2026-03-22T15:07:58.792Z</time></trkpt><trkpt lat="42.576187618639075" lon="11.443362197338326"><ele>100.0</ele><time>2026-03-22T15:07:59.791Z</time></trkpt><trkpt lat="42.57606440033104" lon="11.443474700357854"><ele>99.0</ele><time>2026-03-22T15:08:00.791Z</time></trkpt><trkpt lat="42.57593839860898" lon="11.443578811232689"><ele>98.0</ele><time>2026-03-22T15:08:01.791Z</time></trkpt><trkpt lat="42.575820910072565" lon="11.443663138187896"><ele>97.0</ele><time>2026-03-22T15:08:02.791Z</time></trkpt><trkpt lat="42.57570361710673" lon="11.443706963133499"><ele>96.0</ele><time>2026-03-22T15:08:03.791Z</time></trkpt><trkpt lat="42.575586557477536" lon="11.443699587797724"><ele>96.0</ele><time>2026-03-22T15:08:04.791Z</time></trkpt><trkpt lat="42.57547913705991" lon="11.443735694569552"><ele>96.0</ele><time>2026-03-22T15:08:05.791Z</time></trkpt><trkpt lat="42.57539967509146" lon="11.443814620411601"><ele>96.0</ele><time>2026-03-22T15:08:06.791Z</time></trkpt><trkpt lat="42.57537572348203" lon="11.44395276890871"><ele>96.0</ele><time>2026-03-22T15:08:07.791Z</time></trkpt><trkpt lat="42.575369664061846" lon="11.4440775901724"><ele>96.0</ele><time>2026-03-22T15:08:08.791Z</time></trkpt><trkpt lat="42.57538285805892" lon="11.44422163235518"><ele>96.75</ele><time>2026-03-22T15:08:09.791Z</time></trkpt><trkpt lat="42.57539768857381" lon="11.444369408131648"><ele>97.5</ele><time>2026-03-22T15:08:10.791Z</time></trkpt><trkpt lat="42.57538691660288" lon="11.444535167005858"><ele>98.25</ele><time>2026-03-22T15:08:11.791Z</time></trkpt><trkpt lat="42.575333233927765" lon="11.444702760954593"><ele>99.0</ele><time>2026-03-22T15:08:12.791Z</time></trkpt><trkpt lat="42.57526715888183" lon="11.444877993454096"><ele>99.0</ele><time>2026-03-22T15:08:13.791Z</time></trkpt><trkpt lat="42.57519891384115" lon="11.445067394687747"><ele>99.0</ele><time>2026-03-22T15:08:14.791Z</time></trkpt><trkpt lat="42.575137847975036" lon="11.445273386007017"><ele>99.0</ele><time>2026-03-22T15:08:15.791Z</time></trkpt><trkpt lat="42.57506331340341" lon="11.445490260360302"><ele>101.33333333333334</ele><time>2026-03-22T15:08:16.791Z</time></trkpt><trkpt lat="42.5749903872685" lon="11.445710856978005"><ele>103.66666666666667</ele><time>2026-03-22T15:08:17.791Z</time></trkpt><trkpt lat="42.574918290023724" lon="11.44593943003128"><ele>106.0</ele><time>2026-03-22T15:08:18.79Z</time></trkpt><trkpt lat="42.57484922091338" lon="11.446178152710177"><ele>109.33333333333334</ele><time>2026-03-22T15:08:19.79Z</time></trkpt><trkpt lat="42.57478981491922" lon="11.446425470388105"><ele>112.66666666666666</ele><time>2026-03-22T15:08:20.79Z</time></trkpt><trkpt lat="42.57474442143773" lon="11.446688749807045"><ele>116.0</ele><time>2026-03-22T15:08:21.79Z</time></trkpt><trkpt lat="42.574706084899375" lon="11.44695779214489"><ele>119.33333333333333</ele><time>2026-03-22T15:08:22.79Z</time></trkpt><trkpt lat="42.57464507020095" lon="11.447226815258567"><ele>122.66666666666666</ele><time>2026-03-22T15:08:23.79Z</time></trkpt><trkpt lat="42.57459793939465" lon="11.447503885580783"><ele>126.0</ele><time>2026-03-22T15:08:24.79Z</time></trkpt><trkpt lat="42.57455865089837" lon="11.447796936426036"><ele>124.33333333333334</ele><time>2026-03-22T15:08:25.79Z</time></trkpt><trkpt lat="42.574507356158136" lon="11.44808452578794"><ele>122.66666666666667</ele><time>2026-03-22T15:08:26.79Z</time></trkpt><trkpt lat="42.5744605668319" lon="11.448372173994416"><ele>121.0</ele><time>2026-03-22T15:08:27.79Z</time></trkpt><trkpt lat="42.57441438753976" lon="11.448666467372421"><ele>121.66666666666667</ele><time>2026-03-22T15:08:28.79Z</time></trkpt><trkpt lat="42.57436730638133" lon="11.448962266630282"><ele>122.33333333333334</ele><time>2026-03-22T15:08:29.79Z</time></trkpt><trkpt lat="42.574319316266795" lon="11.44925616134262"><ele>123.0</ele><time>2026-03-22T15:08:30.79Z</time></trkpt><trkpt lat="42.57427425177083" lon="11.449546723074732"><ele>125.33333333333334</ele><time>2026-03-22T15:08:31.79Z</time></trkpt><trkpt lat="42.574216150660995" lon="11.449826290144534"><ele>127.66666666666667</ele><time>2026-03-22T15:08:32.79Z</time></trkpt><trkpt lat="42.574207931767724" lon="11.450116413288923"><ele>130.0</ele><time>2026-03-22T15:08:33.79Z</time></trkpt><trkpt lat="42.574198693841176" lon="11.450412630345228"><ele>131.33333333333334</ele><time>2026-03-22T15:08:34.79Z</time></trkpt><trkpt lat="42.574194517630026" lon="11.450704028104802"><ele>132.66666666666666</ele><time>2026-03-22T15:08:35.79Z</time></trkpt><trkpt lat="42.57419404238186" lon="11.45096629953766"><ele>134.0</ele><time>2026-03-22T15:08:36.789Z</time></trkpt><trkpt lat="42.57419978150947" lon="11.451218307835111"><ele>135.0</ele><time>2026-03-22T15:08:37.789Z</time></trkpt><trkpt lat="42.57422719581042" lon="11.451463534434115"><ele>136.0</ele><time>2026-03-22T15:08:38.789Z</time></trkpt><trkpt lat="42.57427701493809" lon="11.451704587970374"><ele>137.0</ele><time>2026-03-22T15:08:39.789Z</time></trkpt><trkpt lat="42.574341527462416" lon="11.451951979672886"><ele>139.33333333333331</ele><time>2026-03-22T15:08:40.789Z</time></trkpt><trkpt lat="42.57442334247041" lon="11.452191283884215"><ele>141.66666666666666</ele><time>2026-03-22T15:08:41.789Z</time></trkpt><trkpt lat="42.574521573073504" lon="11.452425897566362"><ele>144.0</ele><time>2026-03-22T15:08:42.789Z</time></trkpt><trkpt lat="42.57463789243295" lon="11.452648474337396"><ele>144.66666666666666</ele><time>2026-03-22T15:08:43.789Z</time></trkpt><trkpt lat="42.57477284347187" lon="11.452862465556228"><ele>145.33333333333331</ele><time>2026-03-22T15:08:44.789Z</time></trkpt><trkpt lat="42.574907925694504" lon="11.45307695971699"><ele>146.0</ele><time>2026-03-22T15:08:45.789Z</time></trkpt><trkpt lat="42.5750325820374" lon="11.453306440176462"><ele>146.0</ele><time>2026-03-22T15:08:46.789Z</time></trkpt><trkpt lat="42.57514709809197" lon="11.45355946693758"><ele>146.0</ele><time>2026-03-22T15:08:47.789Z</time></trkpt><trkpt lat="42.57524621494629" lon="11.453823772058389"><ele>146.0</ele><time>2026-03-22T15:08:48.789Z</time></trkpt><trkpt lat="42.57531519937252" lon="11.454099393225663"><ele>148.33333333333331</ele><time>2026-03-22T15:08:49.789Z</time></trkpt><trkpt lat="42.5753543694694" lon="11.454385667694872"><ele>150.66666666666666</ele><time>2026-03-22T15:08:50.789Z</time></trkpt><trkpt lat="42.575373706079006" lon="11.454675411816105"><ele>153.0</ele><time>2026-03-22T15:08:51.789Z</time></trkpt><trkpt lat="42.5753582347813" lon="11.454968971916161"><ele>155.0</ele><time>2026-03-22T15:08:52.789Z</time></trkpt><trkpt lat="42.575304765776536" lon="11.455255886865327"><ele>157.0</ele><time>2026-03-22T15:08:53.789Z</time></trkpt><trkpt lat="42.57524181935154" lon="11.455534254272159"><ele>159.0</ele><time>2026-03-22T15:08:54.789Z</time></trkpt><trkpt lat="42.57515652580147" lon="11.455793750913392"><ele>159.66666666666666</ele><time>2026-03-22T15:08:55.788Z</time></trkpt><trkpt lat="42.575050439527764" lon="11.456035629767191"><ele>160.33333333333331</ele><time>2026-03-22T15:08:56.788Z</time></trkpt><trkpt lat="42.57492289995727" lon="11.456267621269157"><ele>161.0</ele><time>2026-03-22T15:08:57.791Z</time></trkpt><trkpt lat="42.57477238050233" lon="11.456468347876212"><ele>161.0</ele><time>2026-03-22T15:08:58.791Z</time></trkpt><trkpt lat="42.57460668496831" lon="11.456653589002158"><ele>161.0</ele><time>2026-03-22T15:08:59.791Z</time></trkpt><trkpt lat="42.57443597570089" lon="11.456840882184895"><ele>161.0</ele><time>2026-03-22T15:09:00.791Z</time></trkpt><trkpt lat="42.57425882187877" lon="11.457032832380499"><ele>165.0</ele><time>2026-03-22T15:09:01.79Z</time></trkpt><trkpt lat="42.574081623107986" lon="11.457224813916337"><ele>169.0</ele><time>2026-03-22T15:09:02.79Z</time></trkpt><trkpt lat="42.573913005321494" lon="11.457434242390944"><ele>169.0</ele><time>2026-03-22T15:09:03.791Z</time></trkpt><trkpt lat="42.573735668166485" lon="11.457625928444056"><ele>169.0</ele><time>2026-03-22T15:09:04.791Z</time></trkpt><trkpt lat="42.57354957937686" lon="11.45780395196556"><ele>166.0</ele><time>2026-03-22T15:09:05.791Z</time></trkpt><trkpt lat="42.573374113023135" lon="11.458009422016033"><ele>163.0</ele><time>2026-03-22T15:09:06.79Z</time></trkpt><trkpt lat="42.57323294234971" lon="11.45824737257484"><ele>163.0</ele><time>2026-03-22T15:09:07.791Z</time></trkpt><trkpt lat="42.5730852327551" lon="11.458466862298465"><ele>163.0</ele><time>2026-03-22T15:09:08.791Z</time></trkpt><trkpt lat="42.57296452169499" lon="11.458727664442206"><ele>163.0</ele><time>2026-03-22T15:09:09.79Z</time></trkpt><trkpt lat="42.57287006891408" lon="11.459009286018647"><ele>156.5</ele><time>2026-03-22T15:09:10.791Z</time></trkpt><trkpt lat="42.572780525617546" lon="11.45929909945758"><ele>150.0</ele><time>2026-03-22T15:09:11.79Z</time></trkpt><trkpt lat="42.5727031235636" lon="11.45961486578821"><ele>148.5</ele><time>2026-03-22T15:09:12.79Z</time></trkpt><trkpt lat="42.57263300496845" lon="11.459936077172161"><ele>147.0</ele><time>2026-03-22T15:09:13.79Z</time></trkpt><trkpt lat="42.57255967259625" lon="11.460263479556502"><ele>149.0</ele><time>2026-03-22T15:09:14.79Z</time></trkpt><trkpt lat="42.5724660156342" lon="11.460573887513638"><ele>151.0</ele><time>2026-03-22T15:09:15.79Z</time></trkpt><trkpt lat="42.57240199337651" lon="11.460901116598482"><ele>151.0</ele><time>2026-03-22T15:09:16.79Z</time></trkpt><trkpt lat="42.57232112972317" lon="11.46121252644587"><ele>151.0</ele><time>2026-03-22T15:09:17.79Z</time></trkpt><trkpt lat="42.572247636134364" lon="11.461513768960204"><ele>156.0</ele><time>2026-03-22T15:09:18.79Z</time></trkpt><trkpt lat="42.5721683931235" lon="11.46181651118537"><ele>161.0</ele><time>2026-03-22T15:09:19.79Z</time></trkpt><trkpt lat="42.572097467081576" lon="11.46211164583972"><ele>157.5</ele><time>2026-03-22T15:09:20.79Z</time></trkpt><trkpt lat="42.57201720098631" lon="11.462398156820575"><ele>154.0</ele><time>2026-03-22T15:09:21.79Z</time></trkpt><trkpt lat="42.572013673712036" lon="11.462712552985982"><ele>155.5</ele><time>2026-03-22T15:09:22.79Z</time></trkpt><trkpt lat="42.57200077163862" lon="11.463022263108062"><ele>157.0</ele><time>2026-03-22T15:09:23.79Z</time></trkpt><trkpt lat="42.57199878236632" lon="11.463339064574347"><ele>166.5</ele><time>2026-03-22T15:09:24.79Z</time></trkpt><trkpt lat="42.5720254433558" lon="11.463654551860122"><ele>176.0</ele><time>2026-03-22T15:09:25.79Z</time></trkpt><trkpt lat="42.572073533325934" lon="11.463979776172625"><ele>176.0</ele><time>2026-03-22T15:09:26.79Z</time></trkpt><trkpt lat="42.572122184241316" lon="11.464303579469997"><ele>176.0</ele><time>2026-03-22T15:09:27.79Z</time></trkpt><trkpt lat="42.572161100518734" lon="11.464629930425145"><ele>171.5</ele><time>2026-03-22T15:09:28.79Z</time></trkpt><trkpt lat="42.57219862204943" lon="11.464950011574748"><ele>167.0</ele><time>2026-03-22T15:09:29.79Z</time></trkpt><trkpt lat="42.572231856602166" lon="11.465254397932465"><ele>169.0</ele><time>2026-03-22T15:09:30.789Z</time></trkpt><trkpt lat="42.57226029295596" lon="11.465555387474343"><ele>171.0</ele><time>2026-03-22T15:09:31.789Z</time></trkpt><trkpt lat="42.572287155453" lon="11.465860903691777"><ele>171.0</ele><time>2026-03-22T15:09:32.789Z</time></trkpt><trkpt lat="42.57230962632463" lon="11.466165920544352"><ele>171.0</ele><time>2026-03-22T15:09:33.789Z</time></trkpt><trkpt lat="42.572325242155415" lon="11.466472419078029"><ele>173.5</ele><time>2026-03-22T15:09:34.789Z</time></trkpt><trkpt lat="42.572338759499964" lon="11.466775456423163"><ele>176.0</ele><time>2026-03-22T15:09:35.789Z</time></trkpt><trkpt lat="42.572349395532356" lon="11.467087808976432"><ele>179.0</ele><time>2026-03-22T15:09:36.789Z</time></trkpt><trkpt lat="42.57237082862214" lon="11.467399445045256"><ele>182.0</ele><time>2026-03-22T15:09:37.789Z</time></trkpt><trkpt lat="42.572401032712044" lon="11.467696092122852"><ele>184.66666666666666</ele><time>2026-03-22T15:09:38.789Z</time></trkpt><trkpt lat="42.57241766242615" lon="11.467980878528127"><ele>187.33333333333334</ele><time>2026-03-22T15:09:39.789Z</time></trkpt><trkpt lat="42.57240615042771" lon="11.468241658715032"><ele>190.0</ele><time>2026-03-22T15:09:40.789Z</time></trkpt><trkpt lat="42.57236117534283" lon="11.468474598877036"><ele>190.0</ele><time>2026-03-22T15:09:41.789Z</time></trkpt><trkpt lat="42.572303645341776" lon="11.468684886256153"><ele>190.0</ele><time>2026-03-22T15:09:42.789Z</time></trkpt><trkpt lat="42.572254894244" lon="11.468889648923753"><ele>190.0</ele><time>2026-03-22T15:09:43.789Z</time></trkpt><trkpt lat="42.57224130434539" lon="11.46908688437181"><ele>190.0</ele><time>2026-03-22T15:09:44.789Z</time></trkpt><trkpt lat="42.57226419954789" lon="11.46927150825829"><ele>190.0</ele><time>2026-03-22T15:09:45.789Z</time></trkpt><trkpt lat="42.572306544022936" lon="11.469446190213983"><ele>190.0</ele><time>2026-03-22T15:09:46.789Z</time></trkpt><trkpt lat="42.57238257113579" lon="11.469613647485781"><ele>190.0</ele><time>2026-03-22T15:09:47.789Z</time></trkpt><trkpt lat="42.57249585896378" lon="11.469747141594794"><ele>190.0</ele><time>2026-03-22T15:09:48.789Z</time></trkpt><trkpt lat="42.57262438059602" lon="11.469843200799405"><ele>190.0</ele><time>2026-03-22T15:09:49.788Z</time></trkpt><trkpt lat="42.57276184532871" lon="11.469916689311992"><ele>190.0</ele><time>2026-03-22T15:09:50.788Z</time></trkpt><trkpt lat="42.572898167239835" lon="11.469991622706365"><ele>190.0</ele><time>2026-03-22T15:09:51.788Z</time></trkpt><trkpt lat="42.57301587592151" lon="11.470104483861961"><ele>192.75</ele><time>2026-03-22T15:09:52.788Z</time></trkpt><trkpt lat="42.57311096328018" lon="11.470253608845606"><ele>195.5</ele><time>2026-03-22T15:09:53.788Z</time></trkpt><trkpt lat="42.57317947066709" lon="11.470432445081686"><ele>198.25</ele><time>2026-03-22T15:09:54.788Z</time></trkpt><trkpt lat="42.57320840930195" lon="11.470628687272415"><ele>201.0</ele><time>2026-03-22T15:09:55.788Z</time></trkpt><trkpt lat="42.57323899844851" lon="11.470816379159947"><ele>201.0</ele><time>2026-03-22T15:09:56.788Z</time></trkpt><trkpt lat="42.573309000486766" lon="11.47100581893403"><ele>201.0</ele><time>2026-03-22T15:09:57.788Z</time></trkpt><trkpt lat="42.57341277446455" lon="11.471159080229512"><ele>201.0</ele><time>2026-03-22T15:09:58.788Z</time></trkpt><trkpt lat="42.57353356201944" lon="11.471285388574772"><ele>204.66666666666669</ele><time>2026-03-22T15:09:59.788Z</time></trkpt><trkpt lat="42.57368953938967" lon="11.471380056727586"><ele>208.33333333333334</ele><time>2026-03-22T15:10:00.788Z</time></trkpt><trkpt lat="42.57384184277799" lon="11.471469638727722"><ele>212.0</ele><time>2026-03-22T15:10:01.788Z</time></trkpt><trkpt lat="42.57397114090225" lon="11.47159252247219"><ele>212.0</ele><time>2026-03-22T15:10:02.788Z</time></trkpt><trkpt lat="42.57407756399944" lon="11.471768414510263"><ele>212.0</ele><time>2026-03-22T15:10:03.788Z</time></trkpt><trkpt lat="42.57416788417364" lon="11.471975390690417"><ele>212.0</ele><time>2026-03-22T15:10:04.788Z</time></trkpt><trkpt lat="42.5742548286525" lon="11.472193147538214"><ele>210.66666666666669</ele><time>2026-03-22T15:10:05.788Z</time></trkpt><trkpt lat="42.57434320165823" lon="11.472400230722489"><ele>209.33333333333331</ele><time>2026-03-22T15:10:06.788Z</time></trkpt><trkpt lat="42.57444530375044" lon="11.472592897687125"><ele>208.0</ele><time>2026-03-22T15:10:07.787Z</time></trkpt><trkpt lat="42.57457890741587" lon="11.472779039805515"><ele>211.0</ele><time>2026-03-22T15:10:08.787Z</time></trkpt><trkpt lat="42.57471834087752" lon="11.472954974046909"><ele>214.0</ele><time>2026-03-22T15:10:09.787Z</time></trkpt><trkpt lat="42.574866509330306" lon="11.473124851046988"><ele>217.0</ele><time>2026-03-22T15:10:10.787Z</time></trkpt><trkpt lat="42.57501449888078" lon="11.47328889638017"><ele>217.0</ele><time>2026-03-22T15:10:11.787Z</time></trkpt><trkpt lat="42.57516931784235" lon="11.473427143475805"><ele>217.0</ele><time>2026-03-22T15:10:12.787Z</time></trkpt><trkpt lat="42.57532424795428" lon="11.473547750687256"><ele>217.0</ele><time>2026-03-22T15:10:13.787Z</time></trkpt><trkpt lat="42.57545748392016" lon="11.473668992405866"><ele>220.33333333333331</ele><time>2026-03-22T15:10:14.787Z</time></trkpt><trkpt lat="42.5755765044369" lon="11.473807153699147"><ele>223.66666666666669</ele><time>2026-03-22T15:10:15.787Z</time></trkpt><trkpt lat="42.57567398974477" lon="11.473987623542252"><ele>227.0</ele><time>2026-03-22T15:10:16.787Z</time></trkpt><trkpt lat="42.57574843096092" lon="11.474193156923286"><ele>227.0</ele><time>2026-03-22T15:10:17.787Z</time></trkpt><trkpt lat="42.57581612559508" lon="11.474424253459656"><ele>227.0</ele><time>2026-03-22T15:10:18.787Z</time></trkpt><trkpt lat="42.575871849440084" lon="11.47466498320965"><ele>227.0</ele><time>2026-03-22T15:10:19.787Z</time></trkpt><trkpt lat="42.57593224290418" lon="11.474906307511025"><ele>227.66666666666669</ele><time>2026-03-22T15:10:20.787Z</time></trkpt><trkpt lat="42.576004867235206" lon="11.475148455415217"><ele>228.33333333333331</ele><time>2026-03-22T15:10:21.787Z</time></trkpt><trkpt lat="42.57607645993025" lon="11.475401521178151"><ele>229.0</ele><time>2026-03-22T15:10:22.787Z</time></trkpt><trkpt lat="42.57614945788876" lon="11.475662988578133"><ele>232.33333333333331</ele><time>2026-03-22T15:10:23.787Z</time></trkpt><trkpt lat="42.576225941670046" lon="11.475935881906194"><ele>235.66666666666669</ele><time>2026-03-22T15:10:24.787Z</time></trkpt><trkpt lat="42.57630562802115" lon="11.47621482105966"><ele>239.0</ele><time>2026-03-22T15:10:25.787Z</time></trkpt><trkpt lat="42.57638941514938" lon="11.476499103230202"><ele>239.0</ele><time>2026-03-22T15:10:26.786Z</time></trkpt><trkpt lat="42.576464683686005" lon="11.476791404867488"><ele>239.0</ele><time>2026-03-22T15:10:27.786Z</time></trkpt><trkpt lat="42.57653532918476" lon="11.477093057889393"><ele>237.5</ele><time>2026-03-22T15:10:28.786Z</time></trkpt><trkpt lat="42.57656241773845" lon="11.477409114004553"><ele>236.0</ele><time>2026-03-22T15:10:29.786Z</time></trkpt><trkpt lat="42.57658869357107" lon="11.477733506883395"><ele>235.5</ele><time>2026-03-22T15:10:30.787Z</time></trkpt><trkpt lat="42.576613205683906" lon="11.478065419220986"><ele>235.0</ele><time>2026-03-22T15:10:31.789Z</time></trkpt><trkpt lat="42.5766377576877" lon="11.47840430142277"><ele>235.0</ele><time>2026-03-22T15:10:32.792Z</time></trkpt><trkpt lat="42.57666278534809" lon="11.478741760147903"><ele>235.0</ele><time>2026-03-22T15:10:33.794Z</time></trkpt><trkpt lat="42.57670273490741" lon="11.47907792963718"><ele>237.5</ele><time>2026-03-22T15:10:34.796Z</time></trkpt><trkpt lat="42.576726949653626" lon="11.479412359613399"><ele>240.0</ele><time>2026-03-22T15:10:35.798Z</time></trkpt><trkpt lat="42.57673363569387" lon="11.47974759554923"><ele>242.5</ele><time>2026-03-22T15:10:36.8Z</time></trkpt><trkpt lat="42.576756526304614" lon="11.480072494239565"><ele>245.0</ele><time>2026-03-22T15:10:37.801Z</time></trkpt><trkpt lat="42.57677943847926" lon="11.480391437936037"><ele>245.5</ele><time>2026-03-22T15:10:38.803Z</time></trkpt><trkpt lat="42.57681129986718" lon="11.480710573980172"><ele>246.0</ele><time>2026-03-22T15:10:39.805Z</time></trkpt><trkpt lat="42.57685537879425" lon="11.481025333093305"><ele>245.5</ele><time>2026-03-22T15:10:40.806Z</time></trkpt><trkpt lat="42.57691257655567" lon="11.48133461242777"><ele>245.0</ele><time>2026-03-22T15:10:41.807Z</time></trkpt><trkpt lat="42.57698257199632" lon="11.481637547892419"><ele>245.33333333333334</ele><time>2026-03-22T15:10:42.809Z</time></trkpt><trkpt lat="42.57705842217741" lon="11.481930361412909"><ele>245.66666666666669</ele><time>2026-03-22T15:10:43.81Z</time></trkpt><trkpt lat="42.57713468026953" lon="11.482210145868041"><ele>246.0</ele><time>2026-03-22T15:10:44.811Z</time></trkpt><trkpt lat="42.577207979937185" lon="11.48247720367097"><ele>247.0</ele><time>2026-03-22T15:10:45.812Z</time></trkpt><trkpt lat="42.57728915468049" lon="11.482724066377754"><ele>248.0</ele><time>2026-03-22T15:10:46.813Z</time></trkpt><trkpt lat="42.57735343172072" lon="11.482971063085662"><ele>249.0</ele><time>2026-03-22T15:10:47.814Z</time></trkpt><trkpt lat="42.5774191576548" lon="11.483216557501999"><ele>250.66666666666669</ele><time>2026-03-22T15:10:48.814Z</time></trkpt><trkpt lat="42.57748735036891" lon="11.48346101936565"><ele>252.33333333333334</ele><time>2026-03-22T15:10:49.815Z</time></trkpt><trkpt lat="42.57755853855474" lon="11.48370178267081"><ele>254.0</ele><time>2026-03-22T15:10:50.816Z</time></trkpt><trkpt lat="42.57761437016453" lon="11.483940742628219"><ele>254.0</ele><time>2026-03-22T15:10:51.817Z</time></trkpt><trkpt lat="42.577684485736675" lon="11.484180476168584"><ele>254.0</ele><time>2026-03-22T15:10:52.817Z</time></trkpt><trkpt lat="42.57775388857737" lon="11.484424218629727"><ele>254.0</ele><time>2026-03-22T15:10:53.818Z</time></trkpt><trkpt lat="42.57782045950143" lon="11.484670761634511"><ele>254.66666666666669</ele><time>2026-03-22T15:10:54.818Z</time></trkpt><trkpt lat="42.57788838281995" lon="11.484923842976773"><ele>255.33333333333331</ele><time>2026-03-22T15:10:55.819Z</time></trkpt><trkpt lat="42.577953635637705" lon="11.48517281825855"><ele>256.0</ele><time>2026-03-22T15:10:56.819Z</time></trkpt><trkpt lat="42.57802407555554" lon="11.485423386480447"><ele>255.33333333333331</ele><time>2026-03-22T15:10:57.82Z</time></trkpt><trkpt lat="42.578087917023616" lon="11.48568109500143"><ele>254.66666666666669</ele><time>2026-03-22T15:10:58.82Z</time></trkpt><trkpt lat="42.578153644905754" lon="11.485943131425648"><ele>254.0</ele><time>2026-03-22T15:10:59.821Z</time></trkpt><trkpt lat="42.57821870907309" lon="11.486206052089518"><ele>253.66666666666669</ele><time>2026-03-22T15:11:00.821Z</time></trkpt><trkpt lat="42.578286561670296" lon="11.486465640619631"><ele>253.33333333333331</ele><time>2026-03-22T15:11:01.821Z</time></trkpt><trkpt lat="42.5783602581293" lon="11.486724330566059"><ele>253.0</ele><time>2026-03-22T15:11:02.822Z</time></trkpt><trkpt lat="42.57844066448411" lon="11.486982227778938"><ele>253.66666666666666</ele><time>2026-03-22T15:11:03.825Z</time></trkpt><trkpt lat="42.57853534952345" lon="11.487225587381584"><ele>254.33333333333331</ele><time>2026-03-22T15:11:04.825Z</time></trkpt><trkpt lat="42.578617195735276" lon="11.487485432148189"><ele>255.0</ele><time>2026-03-22T15:11:05.825Z</time></trkpt><trkpt lat="42.57870796831327" lon="11.487738998468636"><ele>253.33333333333331</ele><time>2026-03-22T15:11:06.825Z</time></trkpt><trkpt lat="42.57879450331898" lon="11.487980728182752"><ele>251.66666666666666</ele><time>2026-03-22T15:11:07.825Z</time></trkpt><trkpt lat="42.57888606037736" lon="11.488199896301143"><ele>250.0</ele><time>2026-03-22T15:11:08.825Z</time></trkpt><trkpt lat="42.57896961678248" lon="11.488433708684092"><ele>250.0</ele><time>2026-03-22T15:11:09.826Z</time></trkpt><trkpt lat="42.579052022319075" lon="11.488661252935618"><ele>250.0</ele><time>2026-03-22T15:11:10.826Z</time></trkpt><trkpt lat="42.57912179617228" lon="11.48889587967485"><ele>250.0</ele><time>2026-03-22T15:11:11.826Z</time></trkpt><trkpt lat="42.5792044739151" lon="11.489129100812134"><ele>249.33333333333331</ele><time>2026-03-22T15:11:12.826Z</time></trkpt><trkpt lat="42.57928548194659" lon="11.489362891119509"><ele>248.66666666666669</ele><time>2026-03-22T15:11:13.827Z</time></trkpt><trkpt lat="42.579355978778445" lon="11.489587071185504"><ele>248.0</ele><time>2026-03-22T15:11:14.827Z</time></trkpt><trkpt lat="42.57942632107161" lon="11.489814793997363"><ele>247.66666666666669</ele><time>2026-03-22T15:11:15.826Z</time></trkpt><trkpt lat="42.579501852416605" lon="11.49006177942347"><ele>247.33333333333331</ele><time>2026-03-22T15:11:16.827Z</time></trkpt><trkpt lat="42.57958119528062" lon="11.490320661643468"><ele>247.0</ele><time>2026-03-22T15:11:17.827Z</time></trkpt><trkpt lat="42.579662551407125" lon="11.490584394712783"><ele>247.0</ele><time>2026-03-22T15:11:18.827Z</time></trkpt><trkpt lat="42.57974427079283" lon="11.490847069101717"><ele>247.0</ele><time>2026-03-22T15:11:19.827Z</time></trkpt><trkpt lat="42.57982488237275" lon="11.491093241219486"><ele>247.0</ele><time>2026-03-22T15:11:20.827Z</time></trkpt><trkpt lat="42.57992116310326" lon="11.491333678649546"><ele>245.66666666666666</ele><time>2026-03-22T15:11:21.827Z</time></trkpt><trkpt lat="42.580043205232805" lon="11.491554658061924"><ele>244.33333333333331</ele><time>2026-03-22T15:11:22.827Z</time></trkpt><trkpt lat="42.58019091716474" lon="11.491758132903218"><ele>243.0</ele><time>2026-03-22T15:11:23.827Z</time></trkpt><trkpt lat="42.58035891741512" lon="11.49193291063777"><ele>245.66666666666669</ele><time>2026-03-22T15:11:24.827Z</time></trkpt><trkpt lat="42.580544921804986" lon="11.492054921155644"><ele>248.33333333333334</ele><time>2026-03-22T15:11:25.828Z</time></trkpt><trkpt lat="42.58072307040357" lon="11.492177396984285"><ele>251.0</ele><time>2026-03-22T15:11:26.828Z</time></trkpt><trkpt lat="42.580879879865684" lon="11.492286864928541"><ele>251.0</ele><time>2026-03-22T15:11:27.828Z</time></trkpt><trkpt lat="42.581008161214505" lon="11.492397831811164"><ele>251.0</ele><time>2026-03-22T15:11:28.828Z</time></trkpt><trkpt lat="42.58110551840052" lon="11.49251208291165"><ele>251.0</ele><time>2026-03-22T15:11:29.828Z</time></trkpt><trkpt lat="42.58113393647932" lon="11.492669190264005"><ele>251.0</ele><time>2026-03-22T15:11:30.828Z</time></trkpt><trkpt lat="42.581149782721155" lon="11.4928360946788"><ele>253.0</ele><time>2026-03-22T15:11:31.828Z</time></trkpt><trkpt lat="42.581157063255944" lon="11.493032111590551"><ele>255.0</ele><time>2026-03-22T15:11:32.828Z</time></trkpt><trkpt lat="42.58116899616103" lon="11.493247377367398"><ele>257.0</ele><time>2026-03-22T15:11:33.828Z</time></trkpt><trkpt lat="42.58119904144033" lon="11.493475521436922"><ele>259.0</ele><time>2026-03-22T15:11:34.828Z</time></trkpt><trkpt lat="42.58125650097506" lon="11.49370235928301"><ele>261.0</ele><time>2026-03-22T15:11:35.828Z</time></trkpt><trkpt lat="42.58134477158125" lon="11.493919649046235"><ele>263.0</ele><time>2026-03-22T15:11:36.828Z</time></trkpt><trkpt lat="42.581463179206025" lon="11.494122157018971"><ele>263.0</ele><time>2026-03-22T15:11:37.828Z</time></trkpt><trkpt lat="42.58159780825063" lon="11.49432033190347"><ele>263.0</ele><time>2026-03-22T15:11:38.828Z</time></trkpt><trkpt lat="42.58173609339028" lon="11.494525986764776"><ele>263.0</ele><time>2026-03-22T15:11:39.828Z</time></trkpt><trkpt lat="42.581882657097076" lon="11.494740497086745"><ele>264.6666666666667</ele><time>2026-03-22T15:11:40.828Z</time></trkpt><trkpt lat="42.58203375680294" lon="11.494964095946838"><ele>266.3333333333333</ele><time>2026-03-22T15:11:41.828Z</time></trkpt><trkpt lat="42.58218112366168" lon="11.495179451090422"><ele>268.0</ele><time>2026-03-22T15:11:42.828Z</time></trkpt><trkpt lat="42.582312102228315" lon="11.495388437318951"><ele>267.3333333333333</ele><time>2026-03-22T15:11:43.828Z</time></trkpt><trkpt lat="42.58238809365833" lon="11.495618896068574"><ele>266.6666666666667</ele><time>2026-03-22T15:11:44.827Z</time></trkpt><trkpt lat="42.58248530175027" lon="11.495827260484095"><ele>266.0</ele><time>2026-03-22T15:11:45.827Z</time></trkpt><trkpt lat="42.58260698977438" lon="11.495996708893426"><ele>266.0</ele><time>2026-03-22T15:11:46.827Z</time></trkpt><trkpt lat="42.58273976196369" lon="11.496148523077283"><ele>266.0</ele><time>2026-03-22T15:11:47.827Z</time></trkpt><trkpt lat="42.58288919728072" lon="11.496274436094941"><ele>266.0</ele><time>2026-03-22T15:11:48.827Z</time></trkpt><trkpt lat="42.58304847704286" lon="11.496366670173023"><ele>267.33333333333337</ele><time>2026-03-22T15:11:49.827Z</time></trkpt><trkpt lat="42.58322389516713" lon="11.496402639950398"><ele>268.6666666666667</ele><time>2026-03-22T15:11:50.827Z</time></trkpt><trkpt lat="42.583404210738685" lon="11.496423208902627"><ele>270.0</ele><time>2026-03-22T15:11:51.827Z</time></trkpt><trkpt lat="42.58356371828008" lon="11.496463285505783"><ele>270.6666666666667</ele><time>2026-03-22T15:11:52.827Z</time></trkpt><trkpt lat="42.58370999519576" lon="11.496532812768114"><ele>271.33333333333337</ele><time>2026-03-22T15:11:53.827Z</time></trkpt><trkpt lat="42.5838552024447" lon="11.4966389352695"><ele>272.0</ele><time>2026-03-22T15:11:54.827Z</time></trkpt><trkpt lat="42.58401150227108" lon="11.496759780971047"><ele>272.0</ele><time>2026-03-22T15:11:55.827Z</time></trkpt><trkpt lat="42.58418017739675" lon="11.496898701914771"><ele>272.0</ele><time>2026-03-22T15:11:56.827Z</time></trkpt><trkpt lat="42.58435537539524" lon="11.4970366559376"><ele>272.0</ele><time>2026-03-22T15:11:57.827Z</time></trkpt><trkpt lat="42.58453933128743" lon="11.497176861892493"><ele>272.6666666666667</ele><time>2026-03-22T15:11:58.827Z</time></trkpt><trkpt lat="42.58473461761238" lon="11.497313310075697"><ele>273.3333333333333</ele><time>2026-03-22T15:11:59.827Z</time></trkpt><trkpt lat="42.58494191470385" lon="11.497428421069865"><ele>274.0</ele><time>2026-03-22T15:12:00.827Z</time></trkpt><trkpt lat="42.58515760384745" lon="11.497521968096004"><ele>276.5</ele><time>2026-03-22T15:12:01.827Z</time></trkpt><trkpt lat="42.5853795449085" lon="11.497601519113177"><ele>279.0</ele><time>2026-03-22T15:12:02.827Z</time></trkpt><trkpt lat="42.58560392103976" lon="11.497685508710731"><ele>279.0</ele><time>2026-03-22T15:12:03.827Z</time></trkpt><trkpt lat="42.58582572131626" lon="11.497772570782518"><ele>279.0</ele><time>2026-03-22T15:12:04.827Z</time></trkpt><trkpt lat="42.58604346671557" lon="11.497856848588555"><ele>279.5</ele><time>2026-03-22T15:12:05.827Z</time></trkpt><trkpt lat="42.586257331026175" lon="11.497950624647515"><ele>280.0</ele><time>2026-03-22T15:12:06.827Z</time></trkpt><trkpt lat="42.58646890249559" lon="11.498061335679681"><ele>280.0</ele><time>2026-03-22T15:12:07.827Z</time></trkpt><trkpt lat="42.58667354992908" lon="11.49819335965864"><ele>280.0</ele><time>2026-03-22T15:12:08.827Z</time></trkpt><trkpt lat="42.586877379389975" lon="11.498333702165837"><ele>285.0</ele><time>2026-03-22T15:12:09.827Z</time></trkpt><trkpt lat="42.58708423043923" lon="11.498468354219495"><ele>290.0</ele><time>2026-03-22T15:12:10.827Z</time></trkpt><trkpt lat="42.587284648384816" lon="11.49859989646945"><ele>290.0</ele><time>2026-03-22T15:12:11.827Z</time></trkpt><trkpt lat="42.58747529782923" lon="11.49873017005998"><ele>290.0</ele><time>2026-03-22T15:12:12.827Z</time></trkpt><trkpt lat="42.587660291867614" lon="11.4988643113184"><ele>290.0</ele><time>2026-03-22T15:12:13.826Z</time></trkpt><trkpt lat="42.587835319062556" lon="11.499001250235853"><ele>289.33333333333337</ele><time>2026-03-22T15:12:14.826Z</time></trkpt><trkpt lat="42.5879873564449" lon="11.499150296858186"><ele>288.6666666666667</ele><time>2026-03-22T15:12:15.826Z</time></trkpt><trkpt lat="42.58809648366143" lon="11.499280591193678"><ele>288.0</ele><time>2026-03-22T15:12:16.826Z</time></trkpt><trkpt lat="42.58831156985033" lon="11.499586675451628"><ele>287.6666666666667</ele><time>2026-03-22T15:12:17.826Z</time></trkpt><trkpt lat="42.5884336085428" lon="11.499813905028446"><ele>287.33333333333337</ele><time>2026-03-22T15:12:18.826Z</time></trkpt><trkpt lat="42.58860194774994" lon="11.500015164788095"><ele>287.0</ele><time>2026-03-22T15:12:19.826Z</time></trkpt><trkpt lat="42.588723850155496" lon="11.500277025141141"><ele>290.5</ele><time>2026-03-22T15:12:20.826Z</time></trkpt><trkpt lat="42.58885372301708" lon="11.500541669215561"><ele>294.0</ele><time>2026-03-22T15:12:21.826Z</time></trkpt><trkpt lat="42.58899151881608" lon="11.50080791542521"><ele>294.0</ele><time>2026-03-22T15:12:22.826Z</time></trkpt><trkpt lat="42.589088543098434" lon="11.501071764606435"><ele>294.0</ele><time>2026-03-22T15:12:23.826Z</time></trkpt><trkpt lat="42.58920560035275" lon="11.501295110026033"><ele>294.0</ele><time>2026-03-22T15:12:24.826Z</time></trkpt><trkpt lat="42.58931716741289" lon="11.501507693578782"><ele>291.3333333333333</ele><time>2026-03-22T15:12:25.826Z</time></trkpt><trkpt lat="42.58941859604849" lon="11.501700344914674"><ele>288.66666666666663</ele><time>2026-03-22T15:12:26.826Z</time></trkpt><trkpt lat="42.58950595441708" lon="11.501871011620386"><ele>286.0</ele><time>2026-03-22T15:12:27.826Z</time></trkpt><trkpt lat="42.58957835584042" lon="11.502014144392788"><ele>289.2</ele><time>2026-03-22T15:12:28.826Z</time></trkpt><trkpt lat="42.58962344127831" lon="11.502128902629506"><ele>292.40000000000003</ele><time>2026-03-22T15:12:29.826Z</time></trkpt><trkpt lat="42.58966164144443" lon="11.502230816471483"><ele>295.6</ele><time>2026-03-22T15:12:30.826Z</time></trkpt><trkpt lat="42.589690791836816" lon="11.50232043299916"><ele>298.8</ele><time>2026-03-22T15:12:31.826Z</time></trkpt><trkpt lat="42.589720956613874" lon="11.50242438206308"><ele>302.0</ele><time>2026-03-22T15:12:33.826Z</time></trkpt><trkpt lat="42.58973086865233" lon="11.502581592707878"><ele>302.0</ele><time>2026-03-22T15:13:52.825Z</time></trkpt><trkpt lat="42.58973827646746" lon="11.502678778898009"><ele>302.0</ele><time>2026-03-22T15:13:53.824Z</time></trkpt><trkpt lat="42.58974145960844" lon="11.502783266171102"><ele>302.0</ele><time>2026-03-22T15:13:54.824Z</time></trkpt><trkpt lat="42.58974031659135" lon="11.502888187210301"><ele>302.0</ele><time>2026-03-22T15:13:55.824Z</time></trkpt><trkpt lat="42.58974031336518" lon="11.502989316748913"><ele>302.0</ele><time>2026-03-22T15:13:56.824Z</time></trkpt><trkpt lat="42.58972749759542" lon="11.503090045279402"><ele>302.0</ele><time>2026-03-22T15:13:57.824Z</time></trkpt><trkpt lat="42.58970884629361" lon="11.503195889855938"><ele>301.2</ele><time>2026-03-22T15:13:58.824Z</time></trkpt><trkpt lat="42.589690804801265" lon="11.503318849985193"><ele>300.4</ele><time>2026-03-22T15:13:59.824Z</time></trkpt><trkpt lat="42.58967054723333" lon="11.503453931917106"><ele>299.6</ele><time>2026-03-22T15:14:00.824Z</time></trkpt><trkpt lat="42.589658134889" lon="11.503604898744156"><ele>298.8</ele><time>2026-03-22T15:14:01.824Z</time></trkpt><trkpt lat="42.58964814896319" lon="11.503762376357107"><ele>298.0</ele><time>2026-03-22T15:14:02.824Z</time></trkpt><trkpt lat="42.589642010834304" lon="11.503930412822212"><ele>297.25</ele><time>2026-03-22T15:14:03.824Z</time></trkpt><trkpt lat="42.58960697480236" lon="11.504095088469187"><ele>296.5</ele><time>2026-03-22T15:14:04.824Z</time></trkpt><trkpt lat="42.58958456424622" lon="11.50429956514665"><ele>295.75</ele><time>2026-03-22T15:14:05.824Z</time></trkpt><trkpt lat="42.58952531290776" lon="11.504494146413087"><ele>295.0</ele><time>2026-03-22T15:14:06.824Z</time></trkpt><trkpt lat="42.58949474502236" lon="11.504680290650489"><ele>299.0</ele><time>2026-03-22T15:14:07.824Z</time></trkpt><trkpt lat="42.58946518299086" lon="11.504867481111122"><ele>303.0</ele><time>2026-03-22T15:14:08.824Z</time></trkpt><trkpt lat="42.58942411488613" lon="11.505048051689485"><ele>307.0</ele><time>2026-03-22T15:14:09.824Z</time></trkpt><trkpt lat="42.589345910312026" lon="11.505201564216646"><ele>311.0</ele><time>2026-03-22T15:14:10.824Z</time></trkpt><trkpt lat="42.58925333463966" lon="11.505341779589363"><ele>310.25</ele><time>2026-03-22T15:14:11.824Z</time></trkpt><trkpt lat="42.5891405589802" lon="11.50544056435113"><ele>309.5</ele><time>2026-03-22T15:14:12.824Z</time></trkpt><trkpt lat="42.5890143812781" lon="11.505507336252935"><ele>308.75</ele><time>2026-03-22T15:14:13.824Z</time></trkpt><trkpt lat="42.58886828641163" lon="11.50560146864065"><ele>308.0</ele><time>2026-03-22T15:14:14.824Z</time></trkpt><trkpt lat="42.58870241375819" lon="11.505710667710694"><ele>310.33333333333337</ele><time>2026-03-22T15:14:15.823Z</time></trkpt><trkpt lat="42.58853664873754" lon="11.505819041225758"><ele>312.6666666666667</ele><time>2026-03-22T15:14:16.823Z</time></trkpt><trkpt lat="42.588393973335094" lon="11.505911988131569"><ele>315.0</ele><time>2026-03-22T15:14:17.823Z</time></trkpt><trkpt lat="42.58825578473178" lon="11.506000569445401"><ele>315.0</ele><time>2026-03-22T15:14:18.823Z</time></trkpt><trkpt lat="42.588126719790054" lon="11.506077272256043"><ele>315.0</ele><time>2026-03-22T15:14:19.823Z</time></trkpt><trkpt lat="42.587992087858176" lon="11.506131351379372"><ele>315.0</ele><time>2026-03-22T15:14:20.823Z</time></trkpt><trkpt lat="42.587852372038284" lon="11.506151729307998"><ele>315.0</ele><time>2026-03-22T15:14:21.823Z</time></trkpt><trkpt lat="42.58769535426174" lon="11.506139910214005"><ele>314.6666666666667</ele><time>2026-03-22T15:14:22.823Z</time></trkpt><trkpt lat="42.58752309758723" lon="11.506130828077582"><ele>314.33333333333337</ele><time>2026-03-22T15:14:23.823Z</time></trkpt><trkpt lat="42.58735906786488" lon="11.50612647331656"><ele>314.0</ele><time>2026-03-22T15:14:24.823Z</time></trkpt><trkpt lat="42.58720152580381" lon="11.506170956367963"><ele>314.0</ele><time>2026-03-22T15:14:25.823Z</time></trkpt><trkpt lat="42.58704939631031" lon="11.506232990731363"><ele>314.0</ele><time>2026-03-22T15:14:26.823Z</time></trkpt><trkpt lat="42.58690150321554" lon="11.506328146012347"><ele>314.0</ele><time>2026-03-22T15:14:27.823Z</time></trkpt><trkpt lat="42.586764187272045" lon="11.506460420752475"><ele>317.0</ele><time>2026-03-22T15:14:28.823Z</time></trkpt><trkpt lat="42.58662567417921" lon="11.506555848515099"><ele>320.0</ele><time>2026-03-22T15:14:29.823Z</time></trkpt><trkpt lat="42.586485160280205" lon="11.506645198336773"><ele>323.0</ele><time>2026-03-22T15:14:30.823Z</time></trkpt><trkpt lat="42.586324990061875" lon="11.506715771021108"><ele>321.0</ele><time>2026-03-22T15:14:31.823Z</time></trkpt><trkpt lat="42.58615712550896" lon="11.506781788324355"><ele>319.0</ele><time>2026-03-22T15:14:32.823Z</time></trkpt><trkpt lat="42.58603074058258" lon="11.506844777303673"><ele>317.0</ele><time>2026-03-22T15:14:33.823Z</time></trkpt><trkpt lat="42.585941561383606" lon="11.506935623673295"><ele>315.0</ele><time>2026-03-22T15:14:34.823Z</time></trkpt><trkpt lat="42.58586336259437" lon="11.50703335634922"><ele>316.2</ele><time>2026-03-22T15:14:35.823Z</time></trkpt><trkpt lat="42.585823869020594" lon="11.50717025487774"><ele>317.4</ele><time>2026-03-22T15:14:36.823Z</time></trkpt><trkpt lat="42.58582587314144" lon="11.507308191171834"><ele>318.6</ele><time>2026-03-22T15:14:37.822Z</time></trkpt><trkpt lat="42.58586288466318" lon="11.507448807138463"><ele>319.8</ele><time>2026-03-22T15:14:38.822Z</time></trkpt><trkpt lat="42.58593763203487" lon="11.5075826761577"><ele>321.0</ele><time>2026-03-22T15:14:39.822Z</time></trkpt><trkpt lat="42.5860339864525" lon="11.507695557886732"><ele>321.0</ele><time>2026-03-22T15:14:40.822Z</time></trkpt><trkpt lat="42.586152726819584" lon="11.507807114804848"><ele>321.0</ele><time>2026-03-22T15:14:41.822Z</time></trkpt><trkpt lat="42.58627970361539" lon="11.507906326834325"><ele>321.0</ele><time>2026-03-22T15:14:42.822Z</time></trkpt><trkpt lat="42.586411358399616" lon="11.507967084779244"><ele>321.0</ele><time>2026-03-22T15:14:43.822Z</time></trkpt><trkpt lat="42.58655474300544" lon="11.507997281242519"><ele>324.0</ele><time>2026-03-22T15:14:44.822Z</time></trkpt><trkpt lat="42.586711492953285" lon="11.508006236426334"><ele>327.0</ele><time>2026-03-22T15:14:45.822Z</time></trkpt><trkpt lat="42.58687034026182" lon="11.508021603042652"><ele>330.0</ele><time>2026-03-22T15:14:46.822Z</time></trkpt><trkpt lat="42.58702663848306" lon="11.508066320464618"><ele>332.5</ele><time>2026-03-22T15:14:47.822Z</time></trkpt><trkpt lat="42.58717810480316" lon="11.508118329251124"><ele>335.0</ele><time>2026-03-22T15:14:48.822Z</time></trkpt><trkpt lat="42.587315419120685" lon="11.508179127230946"><ele>337.5</ele><time>2026-03-22T15:14:49.822Z</time></trkpt><trkpt lat="42.58745153586212" lon="11.508242362531023"><ele>340.0</ele><time>2026-03-22T15:14:50.822Z</time></trkpt><trkpt lat="42.587594595439555" lon="11.508306027269935"><ele>340.0</ele><time>2026-03-22T15:14:51.822Z</time></trkpt><trkpt lat="42.58775054144514" lon="11.508303345473767"><ele>340.0</ele><time>2026-03-22T15:14:52.822Z</time></trkpt><trkpt lat="42.58791783295676" lon="11.508281563409898"><ele>340.0</ele><time>2026-03-22T15:14:53.822Z</time></trkpt><trkpt lat="42.58808510376288" lon="11.508249291116945"><ele>343.66666666666663</ele><time>2026-03-22T15:14:54.822Z</time></trkpt><trkpt lat="42.58825345750447" lon="11.508216585639989"><ele>347.3333333333333</ele><time>2026-03-22T15:14:55.822Z</time></trkpt><trkpt lat="42.58842482522113" lon="11.50819231065954"><ele>351.0</ele><time>2026-03-22T15:14:56.822Z</time></trkpt><trkpt lat="42.58859157697057" lon="11.508178959705331"><ele>352.25</ele><time>2026-03-22T15:14:57.822Z</time></trkpt><trkpt lat="42.588744471205615" lon="11.508144952127681"><ele>353.5</ele><time>2026-03-22T15:14:58.822Z</time></trkpt><trkpt lat="42.588879503847075" lon="11.508105531268725"><ele>354.75</ele><time>2026-03-22T15:14:59.822Z</time></trkpt><trkpt lat="42.58900400311455" lon="11.508078571106806"><ele>356.0</ele><time>2026-03-22T15:15:00.821Z</time></trkpt><trkpt lat="42.58911713230482" lon="11.508082416248538"><ele>356.0</ele><time>2026-03-22T15:15:01.821Z</time></trkpt><trkpt lat="42.5892210699754" lon="11.508129629596159"><ele>356.0</ele><time>2026-03-22T15:15:02.821Z</time></trkpt><trkpt lat="42.58931687802866" lon="11.5082153334502"><ele>356.0</ele><time>2026-03-22T15:15:03.821Z</time></trkpt><trkpt lat="42.58941229752668" lon="11.508309304293421"><ele>356.0</ele><time>2026-03-22T15:15:04.821Z</time></trkpt><trkpt lat="42.58951973650744" lon="11.508368280965106"><ele>355.4</ele><time>2026-03-22T15:15:05.821Z</time></trkpt><trkpt lat="42.58962707166029" lon="11.508381624458327"><ele>354.8</ele><time>2026-03-22T15:15:06.821Z</time></trkpt><trkpt lat="42.58974131730965" lon="11.508348302016786"><ele>354.2</ele><time>2026-03-22T15:15:07.821Z</time></trkpt><trkpt lat="42.58985245881274" lon="11.508286465370052"><ele>353.59999999999997</ele><time>2026-03-22T15:15:08.821Z</time></trkpt><trkpt lat="42.58994838788422" lon="11.508243062141982"><ele>353.0</ele><time>2026-03-22T15:15:09.821Z</time></trkpt><trkpt lat="42.59002734125368" lon="11.508224424586423"><ele>353.0</ele><time>2026-03-22T15:15:10.821Z</time></trkpt><trkpt lat="42.590097116868456" lon="11.508263323293644"><ele>353.0</ele><time>2026-03-22T15:15:11.821Z</time></trkpt><trkpt lat="42.59014271754216" lon="11.508340799179377"><ele>353.0</ele><time>2026-03-22T15:15:12.821Z</time></trkpt><trkpt lat="42.59014190358017" lon="11.508435420508182"><ele>353.0</ele><time>2026-03-22T15:15:13.821Z</time></trkpt><trkpt lat="42.59009294994355" lon="11.508524887787384"><ele>353.0</ele><time>2026-03-22T15:15:14.823Z</time></trkpt><trkpt lat="42.590001416875076" lon="11.50856993947463"><ele>353.0</ele><time>2026-03-22T15:15:15.823Z</time></trkpt><trkpt lat="42.58988686278205" lon="11.508618800533018"><ele>353.0</ele><time>2026-03-22T15:15:16.823Z</time></trkpt><trkpt lat="42.589773750006984" lon="11.508692313336999"><ele>353.0</ele><time>2026-03-22T15:15:17.823Z</time></trkpt><trkpt lat="42.589661497728045" lon="11.508733968523158"><ele>353.0</ele><time>2026-03-22T15:15:18.823Z</time></trkpt><trkpt lat="42.58957004750549" lon="11.508806356943058"><ele>353.0</ele><time>2026-03-22T15:15:19.823Z</time></trkpt><trkpt lat="42.589484898512374" lon="11.508915029039445"><ele>356.25</ele><time>2026-03-22T15:15:20.823Z</time></trkpt><trkpt lat="42.58940333278671" lon="11.509037776297477"><ele>359.5</ele><time>2026-03-22T15:15:21.823Z</time></trkpt><trkpt lat="42.589317280813376" lon="11.509173646813165"><ele>362.75</ele><time>2026-03-22T15:15:22.823Z</time></trkpt><trkpt lat="42.58922474013312" lon="11.509324821830175"><ele>366.0</ele><time>2026-03-22T15:15:23.823Z</time></trkpt><trkpt lat="42.58914699746851" lon="11.5094824235776"><ele>366.75</ele><time>2026-03-22T15:15:24.823Z</time></trkpt><trkpt lat="42.58908089607525" lon="11.509646376861793"><ele>367.5</ele><time>2026-03-22T15:15:25.823Z</time></trkpt><trkpt lat="42.58902764582354" lon="11.509802244190675"><ele>368.25</ele><time>2026-03-22T15:15:26.823Z</time></trkpt><trkpt lat="42.588995068085474" lon="11.509963853184708"><ele>369.0</ele><time>2026-03-22T15:15:27.822Z</time></trkpt><trkpt lat="42.58898853586678" lon="11.510138028495188"><ele>369.0</ele><time>2026-03-22T15:15:28.822Z</time></trkpt><trkpt lat="42.58901423652629" lon="11.51032000231663"><ele>369.0</ele><time>2026-03-22T15:15:29.822Z</time></trkpt><trkpt lat="42.58905793830096" lon="11.510480940692636"><ele>369.0</ele><time>2026-03-22T15:15:30.822Z</time></trkpt><trkpt lat="42.58910047991186" lon="11.51062534732765"><ele>369.0</ele><time>2026-03-22T15:15:31.822Z</time></trkpt><trkpt lat="42.58914209776272" lon="11.51076015203209"><ele>370.0</ele><time>2026-03-22T15:15:32.822Z</time></trkpt><trkpt lat="42.58918182653381" lon="11.51089157537902"><ele>371.0</ele><time>2026-03-22T15:15:33.822Z</time></trkpt><trkpt lat="42.58921733288849" lon="11.511016438273684"><ele>372.0</ele><time>2026-03-22T15:15:34.822Z</time></trkpt><trkpt lat="42.589248341475894" lon="11.511147197017065"><ele>373.0</ele><time>2026-03-22T15:15:35.822Z</time></trkpt><trkpt lat="42.58926506163306" lon="11.511282906159956"><ele>374.0</ele><time>2026-03-22T15:15:36.822Z</time></trkpt><trkpt lat="42.58925396365184" lon="11.511420438173193"><ele>375.4</ele><time>2026-03-22T15:15:37.822Z</time></trkpt><trkpt lat="42.589215065640225" lon="11.511539873503976"><ele>376.79999999999995</ele><time>2026-03-22T15:15:38.822Z</time></trkpt><trkpt lat="42.589191822109896" lon="11.51165641748037"><ele>378.20000000000005</ele><time>2026-03-22T15:15:39.822Z</time></trkpt><trkpt lat="42.589154687978315" lon="11.511763596829539"><ele>379.6</ele><time>2026-03-22T15:15:40.822Z</time></trkpt><trkpt lat="42.58910710696452" lon="11.51186439021058"><ele>381.0</ele><time>2026-03-22T15:15:41.822Z</time></trkpt><trkpt lat="42.589089428873706" lon="11.511994548052094"><ele>382.1666666666667</ele><time>2026-03-22T15:15:42.822Z</time></trkpt><trkpt lat="42.58909649518711" lon="11.512125080463372"><ele>383.33333333333337</ele><time>2026-03-22T15:15:43.822Z</time></trkpt><trkpt lat="42.589093691049406" lon="11.512249433215812"><ele>384.5</ele><time>2026-03-22T15:15:44.822Z</time></trkpt><trkpt lat="42.589105512603545" lon="11.512370439558122"><ele>385.6666666666667</ele><time>2026-03-22T15:15:45.822Z</time></trkpt><trkpt lat="42.58911759231246" lon="11.512483881976864"><ele>386.83333333333337</ele><time>2026-03-22T15:15:46.822Z</time></trkpt><trkpt lat="42.58913822780929" lon="11.51259238525198"><ele>388.0</ele><time>2026-03-22T15:15:47.821Z</time></trkpt><trkpt lat="42.589164795079" lon="11.51270068047278"><ele>388.00000000000006</ele><time>2026-03-22T15:15:48.821Z</time></trkpt><trkpt lat="42.589207595433095" lon="11.512811795386371"><ele>388.0</ele><time>2026-03-22T15:15:49.821Z</time></trkpt><trkpt lat="42.58925794543774" lon="11.512917720083141"><ele>388.0</ele><time>2026-03-22T15:15:50.821Z</time></trkpt><trkpt lat="42.58931900411617" lon="11.513012273000221"><ele>388.0</ele><time>2026-03-22T15:15:51.821Z</time></trkpt><trkpt lat="42.589368443543535" lon="11.513105764729657"><ele>388.00000000000006</ele><time>2026-03-22T15:15:52.821Z</time></trkpt><trkpt lat="42.58941928669105" lon="11.513195872449156"><ele>388.0</ele><time>2026-03-22T15:15:53.821Z</time></trkpt><trkpt lat="42.58946916625052" lon="11.513284693576377"><ele>387.79999999999995</ele><time>2026-03-22T15:15:54.821Z</time></trkpt><trkpt lat="42.589522714289785" lon="11.513382948312758"><ele>387.6</ele><time>2026-03-22T15:15:55.821Z</time></trkpt><trkpt lat="42.589566402760425" lon="11.513493538144601"><ele>387.4</ele><time>2026-03-22T15:15:56.821Z</time></trkpt><trkpt lat="42.58957902353918" lon="11.513623370836285"><ele>387.20000000000005</ele><time>2026-03-22T15:15:57.821Z</time></trkpt><trkpt lat="42.58958429305018" lon="11.51374866737811"><ele>387.0</ele><time>2026-03-22T15:15:58.821Z</time></trkpt><trkpt lat="42.58957693194381" lon="11.513882107268891"><ele>386.0</ele><time>2026-03-22T15:15:59.821Z</time></trkpt><trkpt lat="42.58955112818" lon="11.514019760642556"><ele>385.0</ele><time>2026-03-22T15:16:00.821Z</time></trkpt><trkpt lat="42.589506788437966" lon="11.514154159358908"><ele>384.0</ele><time>2026-03-22T15:16:01.821Z</time></trkpt><trkpt lat="42.589456435493624" lon="11.514305744502959"><ele>383.0</ele><time>2026-03-22T15:16:02.821Z</time></trkpt><trkpt lat="42.58940617378774" lon="11.514456616996556"><ele>386.79999999999995</ele><time>2026-03-22T15:16:03.821Z</time></trkpt><trkpt lat="42.589361780836434" lon="11.51458987303078"><ele>390.6</ele><time>2026-03-22T15:16:04.821Z</time></trkpt><trkpt lat="42.58933545253851" lon="11.514719381035258"><ele>394.4</ele><time>2026-03-22T15:16:05.821Z</time></trkpt><trkpt lat="42.58927615057815" lon="11.514814593293577"><ele>398.20000000000005</ele><time>2026-03-22T15:16:06.821Z</time></trkpt><trkpt lat="42.5892433724607" lon="11.514938978455135"><ele>402.0</ele><time>2026-03-22T15:16:07.821Z</time></trkpt><trkpt lat="42.58920709154776" lon="11.515066521781344"><ele>402.0</ele><time>2026-03-22T15:16:08.821Z</time></trkpt><trkpt lat="42.58917372643342" lon="11.515193117703356"><ele>402.0</ele><time>2026-03-22T15:16:09.82Z</time></trkpt><trkpt lat="42.58914015526993" lon="11.515318882139105"><ele>402.0</ele><time>2026-03-22T15:16:10.82Z</time></trkpt><trkpt lat="42.58911345580031" lon="11.515455114749273"><ele>402.0</ele><time>2026-03-22T15:16:11.82Z</time></trkpt><trkpt lat="42.58906683151115" lon="11.51557806719377"><ele>402.0</ele><time>2026-03-22T15:16:12.82Z</time></trkpt><trkpt lat="42.589041001452586" lon="11.51571371488424"><ele>401.8</ele><time>2026-03-22T15:16:13.82Z</time></trkpt><trkpt lat="42.58902016138627" lon="11.515854555819491"><ele>401.6</ele><time>2026-03-22T15:16:14.82Z</time></trkpt><trkpt lat="42.58899318594222" lon="11.515990488163721"><ele>401.40000000000003</ele><time>2026-03-22T15:16:15.82Z</time></trkpt><trkpt lat="42.58896580905108" lon="11.516126868929861"><ele>401.20000000000005</ele><time>2026-03-22T15:16:16.82Z</time></trkpt><trkpt lat="42.58893859171543" lon="11.516270224461877"><ele>401.0</ele><time>2026-03-22T15:16:17.82Z</time></trkpt><trkpt lat="42.58891756445113" lon="11.516401321155723"><ele>400.0</ele><time>2026-03-22T15:16:18.82Z</time></trkpt><trkpt lat="42.588894687784666" lon="11.516525542469099"><ele>399.0</ele><time>2026-03-22T15:16:19.82Z</time></trkpt><trkpt lat="42.58886915121274" lon="11.516658634213856"><ele>398.0</ele><time>2026-03-22T15:16:20.82Z</time></trkpt><trkpt lat="42.58884192258602" lon="11.516785242610368"><ele>397.0</ele><time>2026-03-22T15:16:21.82Z</time></trkpt><trkpt lat="42.58881691557598" lon="11.516910731107897"><ele>396.0</ele><time>2026-03-22T15:16:22.82Z</time></trkpt><trkpt lat="42.588795423961905" lon="11.517039975134685"><ele>394.4</ele><time>2026-03-22T15:16:23.82Z</time></trkpt><trkpt lat="42.58876996073252" lon="11.517159228810659"><ele>392.8</ele><time>2026-03-22T15:16:24.82Z</time></trkpt><trkpt lat="42.58874633795321" lon="11.517283993202822"><ele>391.2</ele><time>2026-03-22T15:16:25.82Z</time></trkpt><trkpt lat="42.58872130142225" lon="11.517397079618313"><ele>389.59999999999997</ele><time>2026-03-22T15:16:26.82Z</time></trkpt><trkpt lat="42.58868682149007" lon="11.517516585861978"><ele>388.0</ele><time>2026-03-22T15:16:27.82Z</time></trkpt><trkpt lat="42.58865149096571" lon="11.517633584311646"><ele>388.83333333333337</ele><time>2026-03-22T15:16:28.82Z</time></trkpt><trkpt lat="42.58861561186348" lon="11.517749680602606"><ele>389.6666666666667</ele><time>2026-03-22T15:16:29.82Z</time></trkpt><trkpt lat="42.58857644961172" lon="11.517866951134119"><ele>390.5</ele><time>2026-03-22T15:16:30.82Z</time></trkpt><trkpt lat="42.58853578721478" lon="11.517977048872583"><ele>391.33333333333337</ele><time>2026-03-22T15:16:31.819Z</time></trkpt><trkpt lat="42.58849861474375" lon="11.518078086021942"><ele>392.1666666666667</ele><time>2026-03-22T15:16:32.819Z</time></trkpt><trkpt lat="42.58847895183718" lon="11.518163661198122"><ele>393.0</ele><time>2026-03-22T15:16:33.819Z</time></trkpt><trkpt lat="42.58842319040399" lon="11.518295713505518"><ele>393.0</ele><time>2026-03-22T15:16:35.819Z</time></trkpt><trkpt lat="42.588384570921036" lon="11.518440438030067"><ele>393.0</ele><time>2026-03-22T15:16:37.819Z</time></trkpt><trkpt lat="42.58833739958962" lon="11.51858508183853"><ele>393.0</ele><time>2026-03-22T15:16:39.819Z</time></trkpt><trkpt lat="42.58829769382512" lon="11.518715022851417"><ele>393.0</ele><time>2026-03-22T15:16:41.819Z</time></trkpt><trkpt lat="42.58828971188604" lon="11.518807058001356"><ele>393.0</ele><time>2026-03-22T15:16:43.819Z</time></trkpt><trkpt lat="42.58828240867629" lon="11.518894312409923"><ele>392.8571428571429</ele><time>2026-03-22T15:16:45.819Z</time></trkpt><trkpt lat="42.58826376337923" lon="11.518998399596159"><ele>392.7142857142857</ele><time>2026-03-22T15:16:51.819Z</time></trkpt><trkpt lat="42.58823946826455" lon="11.519114574664542"><ele>392.57142857142856</ele><time>2026-03-22T15:16:53.819Z</time></trkpt><trkpt lat="42.58821936625514" lon="11.519203398897849"><ele>392.42857142857144</ele><time>2026-03-22T15:16:54.818Z</time></trkpt><trkpt lat="42.58821042360638" lon="11.519289667030346"><ele>392.2857142857143</ele><time>2026-03-22T15:16:55.818Z</time></trkpt><trkpt lat="42.588220863205784" lon="11.519378249792295"><ele>392.14285714285717</ele><time>2026-03-22T15:16:56.818Z</time></trkpt><trkpt lat="42.58823587671447" lon="11.519480957846907"><ele>392.0</ele><time>2026-03-22T15:16:57.818Z</time></trkpt><trkpt lat="42.588257372979406" lon="11.519601923494381"><ele>393.0</ele><time>2026-03-22T15:16:58.818Z</time></trkpt><trkpt lat="42.588258226020685" lon="11.519718968219289"><ele>394.0</ele><time>2026-03-22T15:16:59.818Z</time></trkpt><trkpt lat="42.588239509139065" lon="11.51984213064977"><ele>395.0</ele><time>2026-03-22T15:17:00.818Z</time></trkpt><trkpt lat="42.58817778746765" lon="11.519941786912504"><ele>396.0</ele><time>2026-03-22T15:17:01.818Z</time></trkpt><trkpt lat="42.588096845473565" lon="11.520048218940744"><ele>397.0</ele><time>2026-03-22T15:17:02.818Z</time></trkpt><trkpt lat="42.588015911451535" lon="11.520167152965552"><ele>397.0</ele><time>2026-03-22T15:17:03.818Z</time></trkpt><trkpt lat="42.587952234458534" lon="11.520264065328172"><ele>397.0</ele><time>2026-03-22T15:17:04.818Z</time></trkpt><trkpt lat="42.587896099627315" lon="11.52035869169466"><ele>397.0</ele><time>2026-03-22T15:17:05.818Z</time></trkpt><trkpt lat="42.58783547236228" lon="11.520470399763749"><ele>397.0</ele><time>2026-03-22T15:17:06.818Z</time></trkpt><trkpt lat="42.58777293511507" lon="11.520593778747875"><ele>397.0</ele><time>2026-03-22T15:17:07.818Z</time></trkpt><trkpt lat="42.58769809058425" lon="11.520741677271335"><ele>397.0</ele><time>2026-03-22T15:17:08.818Z</time></trkpt><trkpt lat="42.5876123892341" lon="11.520911151848642"><ele>397.0</ele><time>2026-03-22T15:17:09.818Z</time></trkpt><trkpt lat="42.587521256216526" lon="11.521091367626004"><ele>397.0</ele><time>2026-03-22T15:17:10.818Z</time></trkpt><trkpt lat="42.58743432571358" lon="11.521259636561767"><ele>396.75</ele><time>2026-03-22T15:17:11.818Z</time></trkpt><trkpt lat="42.58737504501544" lon="11.521425601085772"><ele>396.5</ele><time>2026-03-22T15:17:12.818Z</time></trkpt><trkpt lat="42.58730187093991" lon="11.521568183945584"><ele>396.25</ele><time>2026-03-22T15:17:13.818Z</time></trkpt><trkpt lat="42.58723148128856" lon="11.52170127814733"><ele>396.0</ele><time>2026-03-22T15:17:14.818Z</time></trkpt><trkpt lat="42.58716770726523" lon="11.521830842205881"><ele>396.0</ele><time>2026-03-22T15:17:15.818Z</time></trkpt><trkpt lat="42.58706853601551" lon="11.52193464034439"><ele>396.0</ele><time>2026-03-22T15:17:16.817Z</time></trkpt><trkpt lat="42.58698511957485" lon="11.52201978249115"><ele>396.0</ele><time>2026-03-22T15:17:17.817Z</time></trkpt><trkpt lat="42.5868821799756" lon="11.522080617860706"><ele>396.0</ele><time>2026-03-22T15:17:18.817Z</time></trkpt><trkpt lat="42.586764750836714" lon="11.522135819121608"><ele>395.25</ele><time>2026-03-22T15:17:19.82Z</time></trkpt><trkpt lat="42.58665076353374" lon="11.522183643135723"><ele>394.5</ele><time>2026-03-22T15:17:20.82Z</time></trkpt><trkpt lat="42.58653068844936" lon="11.522239511865248"><ele>393.75</ele><time>2026-03-22T15:17:21.82Z</time></trkpt><trkpt lat="42.58641434689082" lon="11.522295731568427"><ele>393.0</ele><time>2026-03-22T15:17:22.821Z</time></trkpt><trkpt lat="42.58629604397673" lon="11.522359704502604"><ele>393.0</ele><time>2026-03-22T15:17:23.82Z</time></trkpt><trkpt lat="42.586185270879945" lon="11.522457468289936"><ele>393.0</ele><time>2026-03-22T15:17:24.82Z</time></trkpt><trkpt lat="42.58608388283875" lon="11.52255003537543"><ele>393.0</ele><time>2026-03-22T15:17:25.82Z</time></trkpt><trkpt lat="42.58598384678175" lon="11.522656718790232"><ele>393.0</ele><time>2026-03-22T15:17:26.82Z</time></trkpt><trkpt lat="42.58589093515227" lon="11.522774123097639"><ele>391.0</ele><time>2026-03-22T15:17:27.82Z</time></trkpt><trkpt lat="42.58579238542195" lon="11.522909045497949"><ele>389.0</ele><time>2026-03-22T15:17:28.82Z</time></trkpt><trkpt lat="42.58571395685668" lon="11.523047588111368"><ele>387.0</ele><time>2026-03-22T15:17:29.82Z</time></trkpt><trkpt lat="42.585623932457445" lon="11.523182415460658"><ele>385.0</ele><time>2026-03-22T15:17:30.82Z</time></trkpt><trkpt lat="42.585526489572" lon="11.52331362837812"><ele>385.0</ele><time>2026-03-22T15:17:31.819Z</time></trkpt><trkpt lat="42.5853935513384" lon="11.523404173265087"><ele>385.0</ele><time>2026-03-22T15:17:32.82Z</time></trkpt><trkpt lat="42.58525809190946" lon="11.52351175849946"><ele>385.0</ele><time>2026-03-22T15:17:33.82Z</time></trkpt><trkpt lat="42.58512054403325" lon="11.523619841582768"><ele>384.4</ele><time>2026-03-22T15:17:34.82Z</time></trkpt><trkpt lat="42.58499389577977" lon="11.523722880340998"><ele>383.8</ele><time>2026-03-22T15:17:35.82Z</time></trkpt><trkpt lat="42.584884993352944" lon="11.52379406237726"><ele>383.20000000000005</ele><time>2026-03-22T15:17:36.82Z</time></trkpt><trkpt lat="42.58479955874017" lon="11.523868575987459"><ele>382.6</ele><time>2026-03-22T15:17:37.82Z</time></trkpt><trkpt lat="42.58473937648058" lon="11.52391759954852"><ele>382.0</ele><time>2026-03-22T15:17:38.819Z</time></trkpt><trkpt lat="42.58466164398685" lon="11.523946670151663"><ele>381.0</ele><time>2026-03-22T15:17:40.819Z</time></trkpt><trkpt lat="42.58455899327348" lon="11.524075904978348"><ele>380.0</ele><time>2026-03-22T15:17:42.819Z</time></trkpt><trkpt lat="42.58450994552417" lon="11.524182719473357"><ele>379.0</ele><time>2026-03-22T15:17:43.819Z</time></trkpt><trkpt lat="42.58445014328694" lon="11.524312954734588"><ele>378.0</ele><time>2026-03-22T15:17:44.819Z</time></trkpt><trkpt lat="42.584394532672775" lon="11.524464112484365"><ele>374.75</ele><time>2026-03-22T15:17:45.819Z</time></trkpt><trkpt lat="42.58431411378497" lon="11.524598904143197"><ele>371.5</ele><time>2026-03-22T15:17:46.819Z</time></trkpt><trkpt lat="42.584206782501305" lon="11.524701220553748"><ele>368.25</ele><time>2026-03-22T15:17:47.819Z</time></trkpt><trkpt lat="42.58409046935198" lon="11.524829851512203"><ele>365.0</ele><time>2026-03-22T15:17:48.819Z</time></trkpt><trkpt lat="42.58396846059663" lon="11.524963402972508"><ele>365.0</ele><time>2026-03-22T15:17:49.819Z</time></trkpt><trkpt lat="42.58385015153635" lon="11.525112290929759"><ele>365.0</ele><time>2026-03-22T15:17:50.819Z</time></trkpt><trkpt lat="42.58371790500038" lon="11.525225509708418"><ele>365.0</ele><time>2026-03-22T15:17:51.819Z</time></trkpt><trkpt lat="42.58359423813641" lon="11.525355054211655"><ele>364.33333333333337</ele><time>2026-03-22T15:17:52.819Z</time></trkpt><trkpt lat="42.5834763931393" lon="11.525480975935611"><ele>363.6666666666667</ele><time>2026-03-22T15:17:53.819Z</time></trkpt><trkpt lat="42.583364544400006" lon="11.52562238888088"><ele>363.0</ele><time>2026-03-22T15:17:54.819Z</time></trkpt><trkpt lat="42.58323681853967" lon="11.525728851218105"><ele>363.0</ele><time>2026-03-22T15:17:55.819Z</time></trkpt><trkpt lat="42.583091397129635" lon="11.525790861657514"><ele>363.0</ele><time>2026-03-22T15:17:56.819Z</time></trkpt><trkpt lat="42.58294739617314" lon="11.525825488697674"><ele>363.0</ele><time>2026-03-22T15:17:57.819Z</time></trkpt><trkpt lat="42.58278614088481" lon="11.52580935667124"><ele>361.6666666666667</ele><time>2026-03-22T15:17:58.819Z</time></trkpt><trkpt lat="42.58262516397288" lon="11.525814756134386"><ele>360.33333333333337</ele><time>2026-03-22T15:17:59.819Z</time></trkpt><trkpt lat="42.58246780073596" lon="11.525803279287388"><ele>359.0</ele><time>2026-03-22T15:18:00.818Z</time></trkpt><trkpt lat="42.582326642383066" lon="11.525803917857298"><ele>359.0</ele><time>2026-03-22T15:18:01.818Z</time></trkpt><trkpt lat="42.58219718658272" lon="11.525837776831994"><ele>359.0</ele><time>2026-03-22T15:18:02.818Z</time></trkpt><trkpt lat="42.58206891098133" lon="11.525895784876257"><ele>359.0</ele><time>2026-03-22T15:18:03.818Z</time></trkpt><trkpt lat="42.581968958443206" lon="11.526043364216505"><ele>359.0</ele><time>2026-03-22T15:18:04.818Z</time></trkpt><trkpt lat="42.581867998461476" lon="11.526192468716472"><ele>354.33333333333337</ele><time>2026-03-22T15:18:05.818Z</time></trkpt><trkpt lat="42.5817476712866" lon="11.526328098529241"><ele>349.6666666666667</ele><time>2026-03-22T15:18:06.818Z</time></trkpt><trkpt lat="42.58162525736896" lon="11.526472418665392"><ele>345.0</ele><time>2026-03-22T15:18:07.818Z</time></trkpt><trkpt lat="42.58149943927475" lon="11.526618558782996"><ele>345.0</ele><time>2026-03-22T15:18:08.818Z</time></trkpt><trkpt lat="42.58136530085634" lon="11.526766171037552"><ele>345.0</ele><time>2026-03-22T15:18:09.818Z</time></trkpt><trkpt lat="42.58123220732751" lon="11.526904845659942"><ele>345.0</ele><time>2026-03-22T15:18:10.818Z</time></trkpt><trkpt lat="42.58109873681362" lon="11.527040152180016"><ele>345.3333333333333</ele><time>2026-03-22T15:18:11.818Z</time></trkpt><trkpt lat="42.58096834853499" lon="11.52717237949599"><ele>345.66666666666663</ele><time>2026-03-22T15:18:12.818Z</time></trkpt><trkpt lat="42.58084057868056" lon="11.527302001621786"><ele>346.0</ele><time>2026-03-22T15:18:13.818Z</time></trkpt><trkpt lat="42.5807158207521" lon="11.527428679491294"><ele>346.0</ele><time>2026-03-22T15:18:14.818Z</time></trkpt><trkpt lat="42.58059374860218" lon="11.527552630244994"><ele>346.0</ele><time>2026-03-22T15:18:15.818Z</time></trkpt><trkpt lat="42.5804755035224" lon="11.527670404665729"><ele>346.0</ele><time>2026-03-22T15:18:16.818Z</time></trkpt><trkpt lat="42.580357374850884" lon="11.527780140916553"><ele>346.0</ele><time>2026-03-22T15:18:17.818Z</time></trkpt><trkpt lat="42.58024071364228" lon="11.527853667500588"><ele>343.75</ele><time>2026-03-22T15:18:18.818Z</time></trkpt><trkpt lat="42.58011226164212" lon="11.52788908433728"><ele>341.5</ele><time>2026-03-22T15:18:19.818Z</time></trkpt><trkpt lat="42.579982414974154" lon="11.5278777219871"><ele>339.25</ele><time>2026-03-22T15:18:20.818Z</time></trkpt><trkpt lat="42.579844687205764" lon="11.527838274362676"><ele>337.0</ele><time>2026-03-22T15:18:21.818Z</time></trkpt><trkpt lat="42.57970158342946" lon="11.527792923713337"><ele>337.0</ele><time>2026-03-22T15:18:22.817Z</time></trkpt><trkpt lat="42.57955207053717" lon="11.527744365826896"><ele>337.0</ele><time>2026-03-22T15:18:23.817Z</time></trkpt><trkpt lat="42.57940011534671" lon="11.52769501474917"><ele>337.0</ele><time>2026-03-22T15:18:24.817Z</time></trkpt><trkpt lat="42.57925197993367" lon="11.527662998333327"><ele>335.0</ele><time>2026-03-22T15:18:25.817Z</time></trkpt><trkpt lat="42.57910082494295" lon="11.527674603910388"><ele>333.0</ele><time>2026-03-22T15:18:26.817Z</time></trkpt><trkpt lat="42.57895590456804" lon="11.527717034761181"><ele>331.0</ele><time>2026-03-22T15:18:27.817Z</time></trkpt><trkpt lat="42.578802511711785" lon="11.527778990345011"><ele>328.66666666666663</ele><time>2026-03-22T15:18:28.817Z</time></trkpt><trkpt lat="42.57864915188016" lon="11.527823949021641"><ele>326.3333333333333</ele><time>2026-03-22T15:18:29.817Z</time></trkpt><trkpt lat="42.57849343925606" lon="11.52781659584382"><ele>324.0</ele><time>2026-03-22T15:18:30.817Z</time></trkpt><trkpt lat="42.57835216683868" lon="11.527758709694863"><ele>324.0</ele><time>2026-03-22T15:18:31.817Z</time></trkpt><trkpt lat="42.57821052925766" lon="11.527718480713327"><ele>324.0</ele><time>2026-03-22T15:18:32.817Z</time></trkpt><trkpt lat="42.578073063443846" lon="11.527661195115021"><ele>324.0</ele><time>2026-03-22T15:18:33.817Z</time></trkpt><trkpt lat="42.57792605280519" lon="11.527671210923476"><ele>324.0</ele><time>2026-03-22T15:18:34.817Z</time></trkpt><trkpt lat="42.57778007645218" lon="11.527744146749525"><ele>322.6666666666667</ele><time>2026-03-22T15:18:35.817Z</time></trkpt><trkpt lat="42.577651704599226" lon="11.527878234167925"><ele>321.33333333333337</ele><time>2026-03-22T15:18:36.817Z</time></trkpt><trkpt lat="42.57753730100084" lon="11.528007998893543"><ele>320.0</ele><time>2026-03-22T15:18:37.817Z</time></trkpt><trkpt lat="42.57741708521454" lon="11.528105465071167"><ele>322.0</ele><time>2026-03-22T15:18:38.817Z</time></trkpt><trkpt lat="42.57728237490605" lon="11.528146025203277"><ele>324.0</ele><time>2026-03-22T15:18:39.817Z</time></trkpt><trkpt lat="42.57714762992609" lon="11.528132541242728"><ele>326.0</ele><time>2026-03-22T15:18:40.817Z</time></trkpt><trkpt lat="42.57700386764743" lon="11.528089689140746"><ele>328.0</ele><time>2026-03-22T15:18:41.817Z</time></trkpt><trkpt lat="42.57685035540616" lon="11.528018963542701"><ele>328.0</ele><time>2026-03-22T15:18:42.817Z</time></trkpt><trkpt lat="42.57668941401788" lon="11.527947240584512"><ele>328.0</ele><time>2026-03-22T15:18:43.817Z</time></trkpt><trkpt lat="42.57653742190846" lon="11.527884996522827"><ele>328.0</ele><time>2026-03-22T15:18:44.816Z</time></trkpt><trkpt lat="42.57637882646544" lon="11.527838942423198"><ele>322.66666666666663</ele><time>2026-03-22T15:18:45.816Z</time></trkpt><trkpt lat="42.5762114494269" lon="11.52780844096004"><ele>317.3333333333333</ele><time>2026-03-22T15:18:46.816Z</time></trkpt><trkpt lat="42.576028892221586" lon="11.52781535199292"><ele>312.0</ele><time>2026-03-22T15:18:47.816Z</time></trkpt><trkpt lat="42.57584305378014" lon="11.527835528797896"><ele>310.6666666666667</ele><time>2026-03-22T15:18:48.816Z</time></trkpt><trkpt lat="42.57565244349948" lon="11.5278572041712"><ele>309.33333333333337</ele><time>2026-03-22T15:18:49.816Z</time></trkpt><trkpt lat="42.57546550647157" lon="11.527875917069657"><ele>308.0</ele><time>2026-03-22T15:18:50.816Z</time></trkpt><trkpt lat="42.57528504038811" lon="11.527890531153473"><ele>310.33333333333337</ele><time>2026-03-22T15:18:51.816Z</time></trkpt><trkpt lat="42.57512089108151" lon="11.527908226990526"><ele>312.6666666666667</ele><time>2026-03-22T15:18:52.816Z</time></trkpt><trkpt lat="42.57496807359322" lon="11.52793604613898"><ele>315.0</ele><time>2026-03-22T15:18:53.816Z</time></trkpt><trkpt lat="42.574823637641494" lon="11.527999819346187"><ele>315.0</ele><time>2026-03-22T15:18:54.816Z</time></trkpt><trkpt lat="42.574698036974844" lon="11.528114662522169"><ele>315.0</ele><time>2026-03-22T15:18:55.816Z</time></trkpt><trkpt lat="42.57459179220795" lon="11.528270334304162"><ele>315.0</ele><time>2026-03-22T15:18:56.816Z</time></trkpt><trkpt lat="42.57449177639506" lon="11.528432940393744"><ele>311.6666666666667</ele><time>2026-03-22T15:18:57.816Z</time></trkpt><trkpt lat="42.574388700994795" lon="11.528612782386201"><ele>308.33333333333337</ele><time>2026-03-22T15:18:58.816Z</time></trkpt><trkpt lat="42.57428262647923" lon="11.528788375145304"><ele>305.0</ele><time>2026-03-22T15:18:59.816Z</time></trkpt><trkpt lat="42.57418013979292" lon="11.528983534212008"><ele>305.0</ele><time>2026-03-22T15:19:00.816Z</time></trkpt><trkpt lat="42.574104199400374" lon="11.529204324213788"><ele>305.0</ele><time>2026-03-22T15:19:01.816Z</time></trkpt><trkpt lat="42.5740342291528" lon="11.52943624684641"><ele>305.0</ele><time>2026-03-22T15:19:02.816Z</time></trkpt><trkpt lat="42.573977565814495" lon="11.529674210527542"><ele>306.0</ele><time>2026-03-22T15:19:03.816Z</time></trkpt><trkpt lat="42.57393059279699" lon="11.529924084627778"><ele>307.0</ele><time>2026-03-22T15:19:04.816Z</time></trkpt><trkpt lat="42.57388699887533" lon="11.530169298601072"><ele>308.0</ele><time>2026-03-22T15:19:05.816Z</time></trkpt><trkpt lat="42.573845321890545" lon="11.530406328675006"><ele>308.0</ele><time>2026-03-22T15:19:06.815Z</time></trkpt><trkpt lat="42.573804403618865" lon="11.530639043749611"><ele>308.0</ele><time>2026-03-22T15:19:07.815Z</time></trkpt><trkpt lat="42.57376362513565" lon="11.530870963793456"><ele>308.0</ele><time>2026-03-22T15:19:08.815Z</time></trkpt><trkpt lat="42.57372252617044" lon="11.531096925505315"><ele>307.33333333333337</ele><time>2026-03-22T15:19:09.815Z</time></trkpt><trkpt lat="42.573681050366524" lon="11.531313594376968"><ele>306.6666666666667</ele><time>2026-03-22T15:19:10.815Z</time></trkpt><trkpt lat="42.57363554811944" lon="11.531519354731234"><ele>306.0</ele><time>2026-03-22T15:19:11.815Z</time></trkpt><trkpt lat="42.573584707668424" lon="11.531714510980757"><ele>306.0</ele><time>2026-03-22T15:19:12.815Z</time></trkpt><trkpt lat="42.57350619470168" lon="11.531879772868818"><ele>306.0</ele><time>2026-03-22T15:19:13.815Z</time></trkpt><trkpt lat="42.57340669504231" lon="11.53200682248101"><ele>306.0</ele><time>2026-03-22T15:19:14.815Z</time></trkpt><trkpt lat="42.573290900489326" lon="11.532082491804973"><ele>306.0</ele><time>2026-03-22T15:19:15.815Z</time></trkpt><trkpt lat="42.57316132536409" lon="11.532119161937523"><ele>305.6666666666667</ele><time>2026-03-22T15:19:16.815Z</time></trkpt><trkpt lat="42.57301674914922" lon="11.532151331803158"><ele>305.33333333333337</ele><time>2026-03-22T15:19:17.815Z</time></trkpt><trkpt lat="42.572863131930646" lon="11.532181903267107"><ele>305.0</ele><time>2026-03-22T15:19:18.815Z</time></trkpt><trkpt lat="42.57269580951803" lon="11.532215339843855"><ele>305.0</ele><time>2026-03-22T15:19:19.815Z</time></trkpt><trkpt lat="42.572508531279155" lon="11.532249798437466"><ele>305.0</ele><time>2026-03-22T15:19:20.815Z</time></trkpt><trkpt lat="42.57231380393658" lon="11.532304328028648"><ele>305.0</ele><time>2026-03-22T15:19:21.815Z</time></trkpt><trkpt lat="42.572130819676765" lon="11.532332452964516"><ele>304.0</ele><time>2026-03-22T15:19:22.815Z</time></trkpt><trkpt lat="42.57195019206169" lon="11.53236015666497"><ele>303.0</ele><time>2026-03-22T15:19:23.815Z</time></trkpt><trkpt lat="42.57177763550437" lon="11.53238996096667"><ele>302.0</ele><time>2026-03-22T15:19:24.815Z</time></trkpt><trkpt lat="42.57160651687529" lon="11.532435960956859"><ele>302.0</ele><time>2026-03-22T15:19:25.817Z</time></trkpt><trkpt lat="42.57144117603028" lon="11.532508587452464"><ele>302.0</ele><time>2026-03-22T15:19:26.817Z</time></trkpt><trkpt lat="42.571283948216376" lon="11.532613702625131"><ele>302.0</ele><time>2026-03-22T15:19:27.817Z</time></trkpt><trkpt lat="42.57113191348866" lon="11.532753365262122"><ele>300.33333333333337</ele><time>2026-03-22T15:19:28.817Z</time></trkpt><trkpt lat="42.57098194093407" lon="11.532901351282849"><ele>298.6666666666667</ele><time>2026-03-22T15:19:29.817Z</time></trkpt><trkpt lat="42.57083194193949" lon="11.533038494332944"><ele>297.0</ele><time>2026-03-22T15:19:30.817Z</time></trkpt><trkpt lat="42.57069207792042" lon="11.533152977977037"><ele>297.0</ele><time>2026-03-22T15:19:31.817Z</time></trkpt><trkpt lat="42.570590453720094" lon="11.533302975867752"><ele>297.0</ele><time>2026-03-22T15:19:32.817Z</time></trkpt><trkpt lat="42.570526474317894" lon="11.533482278953588"><ele>297.0</ele><time>2026-03-22T15:19:33.817Z</time></trkpt><trkpt lat="42.57049963452902" lon="11.533674252684111"><ele>297.0</ele><time>2026-03-22T15:19:34.817Z</time></trkpt><trkpt lat="42.5705275584021" lon="11.533876524847622"><ele>296.3333333333333</ele><time>2026-03-22T15:19:35.817Z</time></trkpt><trkpt lat="42.570560629053205" lon="11.5340743483922"><ele>295.66666666666663</ele><time>2026-03-22T15:19:36.817Z</time></trkpt><trkpt lat="42.57061917823433" lon="11.534264700534889"><ele>295.0</ele><time>2026-03-22T15:19:37.817Z</time></trkpt><trkpt lat="42.57070008493938" lon="11.534445234603803"><ele>294.0</ele><time>2026-03-22T15:19:38.817Z</time></trkpt><trkpt lat="42.5708001432635" lon="11.534608727129969"><ele>293.0</ele><time>2026-03-22T15:19:39.817Z</time></trkpt><trkpt lat="42.570919422352" lon="11.5347457562849"><ele>292.0</ele><time>2026-03-22T15:19:40.817Z</time></trkpt><trkpt lat="42.571054940429114" lon="11.534856256439026"><ele>294.66666666666663</ele><time>2026-03-22T15:19:41.817Z</time></trkpt><trkpt lat="42.57119131517623" lon="11.534954067653858"><ele>297.3333333333333</ele><time>2026-03-22T15:19:42.816Z</time></trkpt><trkpt lat="42.57132408433059" lon="11.535052611992883"><ele>300.0</ele><time>2026-03-22T15:19:43.816Z</time></trkpt><trkpt lat="42.571443190091976" lon="11.535167333638945"><ele>300.0</ele><time>2026-03-22T15:19:44.816Z</time></trkpt><trkpt lat="42.57153886211095" lon="11.535301399525611"><ele>300.0</ele><time>2026-03-22T15:19:45.816Z</time></trkpt><trkpt lat="42.571620379423045" lon="11.535457213231009"><ele>300.0</ele><time>2026-03-22T15:19:46.816Z</time></trkpt><trkpt lat="42.57169251226794" lon="11.535626675096657"><ele>300.0</ele><time>2026-03-22T15:19:47.816Z</time></trkpt><trkpt lat="42.57174791264629" lon="11.535820035778617"><ele>298.0</ele><time>2026-03-22T15:19:48.816Z</time></trkpt><trkpt lat="42.57181904481932" lon="11.536009121191455"><ele>296.0</ele><time>2026-03-22T15:19:49.816Z</time></trkpt><trkpt lat="42.57189393545809" lon="11.536207487780844"><ele>294.0</ele><time>2026-03-22T15:19:50.816Z</time></trkpt><trkpt lat="42.571965987768266" lon="11.53640635613408"><ele>294.75</ele><time>2026-03-22T15:19:51.816Z</time></trkpt><trkpt lat="42.5720359496518" lon="11.53660146837803"><ele>295.5</ele><time>2026-03-22T15:19:52.816Z</time></trkpt><trkpt lat="42.57209010065889" lon="11.536790998390911"><ele>296.25</ele><time>2026-03-22T15:19:53.816Z</time></trkpt><trkpt lat="42.57210460011436" lon="11.536977267617686"><ele>297.0</ele><time>2026-03-22T15:19:54.816Z</time></trkpt><trkpt lat="42.57209551262703" lon="11.537157868137756"><ele>294.5</ele><time>2026-03-22T15:19:55.816Z</time></trkpt><trkpt lat="42.572043959398954" lon="11.53731915118943"><ele>292.0</ele><time>2026-03-22T15:19:56.816Z</time></trkpt><trkpt lat="42.57196315278277" lon="11.537460252767877"><ele>289.5</ele><time>2026-03-22T15:19:57.816Z</time></trkpt><trkpt lat="42.57185657437104" lon="11.537582787888473"><ele>287.0</ele><time>2026-03-22T15:19:58.816Z</time></trkpt><trkpt lat="42.5717315530999" lon="11.537696602984804"><ele>283.0</ele><time>2026-03-22T15:19:59.816Z</time></trkpt><trkpt lat="42.571596463265244" lon="11.537813608128761"><ele>279.0</ele><time>2026-03-22T15:20:00.816Z</time></trkpt><trkpt lat="42.57145006220891" lon="11.537939910641642"><ele>275.0</ele><time>2026-03-22T15:20:01.816Z</time></trkpt><trkpt lat="42.5712937116851" lon="11.538071436193995"><ele>272.33333333333337</ele><time>2026-03-22T15:20:02.816Z</time></trkpt><trkpt lat="42.57113451618246" lon="11.538211366709875"><ele>269.6666666666667</ele><time>2026-03-22T15:20:03.816Z</time></trkpt><trkpt lat="42.570976027569266" lon="11.538351452163019"><ele>267.0</ele><time>2026-03-22T15:20:04.815Z</time></trkpt><trkpt lat="42.57082312876297" lon="11.538486597032904"><ele>267.0</ele><time>2026-03-22T15:20:05.815Z</time></trkpt><trkpt lat="42.57067401358817" lon="11.538617567777445"><ele>267.0</ele><time>2026-03-22T15:20:06.815Z</time></trkpt><trkpt lat="42.57052394911693" lon="11.538748931232242"><ele>267.0</ele><time>2026-03-22T15:20:07.815Z</time></trkpt><trkpt lat="42.57037448437155" lon="11.538879769575527"><ele>264.3333333333333</ele><time>2026-03-22T15:20:08.815Z</time></trkpt><trkpt lat="42.57022530321703" lon="11.539010359679342"><ele>261.66666666666663</ele><time>2026-03-22T15:20:09.815Z</time></trkpt><trkpt lat="42.57007918745516" lon="11.539138655630893"><ele>259.0</ele><time>2026-03-22T15:20:10.815Z</time></trkpt><trkpt lat="42.569930685638745" lon="11.53927037422996"><ele>259.0</ele><time>2026-03-22T15:20:11.815Z</time></trkpt><trkpt lat="42.56977809480783" lon="11.539405719778475"><ele>259.0</ele><time>2026-03-22T15:20:12.815Z</time></trkpt><trkpt lat="42.56961970356929" lon="11.539546210246137"><ele>259.0</ele><time>2026-03-22T15:20:13.815Z</time></trkpt><trkpt lat="42.56945551336936" lon="11.539691844333095"><ele>257.3333333333333</ele><time>2026-03-22T15:20:14.815Z</time></trkpt><trkpt lat="42.56928206822524" lon="11.539845687417145"><ele>255.66666666666669</ele><time>2026-03-22T15:20:15.815Z</time></trkpt><trkpt lat="42.56910083951639" lon="11.540006039664458"><ele>254.0</ele><time>2026-03-22T15:20:16.815Z</time></trkpt><trkpt lat="42.5689098087818" lon="11.54017499257568"><ele>254.0</ele><time>2026-03-22T15:20:17.815Z</time></trkpt><trkpt lat="42.568717496417406" lon="11.54036511040604"><ele>254.0</ele><time>2026-03-22T15:20:18.815Z</time></trkpt><trkpt lat="42.56851156160695" lon="11.540542589774258"><ele>255.0</ele><time>2026-03-22T15:20:19.815Z</time></trkpt><trkpt lat="42.56830075262034" lon="11.5407215026862"><ele>256.0</ele><time>2026-03-22T15:20:20.815Z</time></trkpt><trkpt lat="42.568094200299385" lon="11.540901762493649"><ele>256.0</ele><time>2026-03-22T15:20:21.815Z</time></trkpt><trkpt lat="42.567890907749415" lon="11.54108195068407"><ele>256.0</ele><time>2026-03-22T15:20:22.815Z</time></trkpt><trkpt lat="42.56768376253614" lon="11.541265488519581"><ele>254.5</ele><time>2026-03-22T15:20:23.815Z</time></trkpt><trkpt lat="42.567479319613746" lon="11.54144964718364"><ele>253.0</ele><time>2026-03-22T15:20:24.815Z</time></trkpt><trkpt lat="42.56727755878401" lon="11.541632762621047"><ele>253.0</ele><time>2026-03-22T15:20:25.815Z</time></trkpt><trkpt lat="42.5670735033964" lon="11.541811293149355"><ele>253.0</ele><time>2026-03-22T15:20:26.815Z</time></trkpt><trkpt lat="42.566877374577885" lon="11.541989509522965"><ele>253.5</ele><time>2026-03-22T15:20:27.814Z</time></trkpt><trkpt lat="42.566675122045964" lon="11.542145100241735"><ele>254.0</ele><time>2026-03-22T15:20:28.814Z</time></trkpt><trkpt lat="42.566482659487534" lon="11.542316079222463"><ele>254.0</ele><time>2026-03-22T15:20:29.814Z</time></trkpt><trkpt lat="42.566294971350366" lon="11.542483197201877"><ele>254.0</ele><time>2026-03-22T15:20:30.814Z</time></trkpt><trkpt lat="42.566109755498246" lon="11.542648113978432"><ele>254.0</ele><time>2026-03-22T15:20:31.814Z</time></trkpt><trkpt lat="42.56592652459373" lon="11.542811697401422"><ele>253.33333333333334</ele><time>2026-03-22T15:20:32.814Z</time></trkpt><trkpt lat="42.565755703621015" lon="11.542964009967308"><ele>252.66666666666669</ele><time>2026-03-22T15:20:33.814Z</time></trkpt><trkpt lat="42.56558599106078" lon="11.543114269409942"><ele>252.0</ele><time>2026-03-22T15:20:34.814Z</time></trkpt><trkpt lat="42.56541099739547" lon="11.543263761758299"><ele>254.66666666666669</ele><time>2026-03-22T15:20:35.814Z</time></trkpt><trkpt lat="42.56523775145695" lon="11.54340648964912"><ele>257.33333333333337</ele><time>2026-03-22T15:20:36.814Z</time></trkpt><trkpt lat="42.56506433401368" lon="11.543542554727043"><ele>260.0</ele><time>2026-03-22T15:20:37.814Z</time></trkpt><trkpt lat="42.56489024379581" lon="11.543675671504438"><ele>259.6666666666667</ele><time>2026-03-22T15:20:38.814Z</time></trkpt><trkpt lat="42.56471200577336" lon="11.54381196096143"><ele>259.3333333333333</ele><time>2026-03-22T15:20:39.814Z</time></trkpt><trkpt lat="42.56452404275208" lon="11.543955685846115"><ele>259.0</ele><time>2026-03-22T15:20:40.814Z</time></trkpt><trkpt lat="42.564339756759956" lon="11.544123804193243"><ele>259.0</ele><time>2026-03-22T15:20:41.814Z</time></trkpt><trkpt lat="42.56415443743195" lon="11.544252674584556"><ele>259.0</ele><time>2026-03-22T15:20:42.814Z</time></trkpt><trkpt lat="42.563983510064894" lon="11.544382283680033"><ele>259.0</ele><time>2026-03-22T15:20:43.814Z</time></trkpt><trkpt lat="42.56380866349814" lon="11.544533044066116"><ele>258.0</ele><time>2026-03-22T15:20:44.814Z</time></trkpt><trkpt lat="42.56363758557014" lon="11.544683372525125"><ele>257.0</ele><time>2026-03-22T15:20:45.814Z</time></trkpt><trkpt lat="42.56348309617021" lon="11.544857210128514"><ele>256.0</ele><time>2026-03-22T15:20:46.814Z</time></trkpt><trkpt lat="42.563330877788935" lon="11.545055917650703"><ele>256.0</ele><time>2026-03-22T15:20:47.814Z</time></trkpt><trkpt lat="42.563178281064225" lon="11.545254422129235"><ele>256.0</ele><time>2026-03-22T15:20:48.814Z</time></trkpt><trkpt lat="42.563018123282696" lon="11.545422801678756"><ele>256.0</ele><time>2026-03-22T15:20:49.813Z</time></trkpt><trkpt lat="42.56287112620488" lon="11.545599166269552"><ele>255.66666666666666</ele><time>2026-03-22T15:20:50.813Z</time></trkpt><trkpt lat="42.56273517567814" lon="11.54576620700804"><ele>255.33333333333331</ele><time>2026-03-22T15:20:51.813Z</time></trkpt><trkpt lat="42.56258957525961" lon="11.545931519251987"><ele>255.0</ele><time>2026-03-22T15:20:52.813Z</time></trkpt><trkpt lat="42.56243432904622" lon="11.546078384984197"><ele>255.0</ele><time>2026-03-22T15:20:53.813Z</time></trkpt><trkpt lat="42.56226751315435" lon="11.546198731725896"><ele>255.0</ele><time>2026-03-22T15:20:54.813Z</time></trkpt><trkpt lat="42.56208590511536" lon="11.546292861645805"><ele>255.0</ele><time>2026-03-22T15:20:55.813Z</time></trkpt><trkpt lat="42.56189727649734" lon="11.546396540525487"><ele>252.0</ele><time>2026-03-22T15:20:56.813Z</time></trkpt><trkpt lat="42.561688325178395" lon="11.546511180374562"><ele>249.0</ele><time>2026-03-22T15:20:57.813Z</time></trkpt><trkpt lat="42.561467298326015" lon="11.546629682794048"><ele>249.0</ele><time>2026-03-22T15:20:58.813Z</time></trkpt><trkpt lat="42.56124980442615" lon="11.546745017175962"><ele>249.0</ele><time>2026-03-22T15:20:59.813Z</time></trkpt><trkpt lat="42.561039646142966" lon="11.546860400596003"><ele>248.5</ele><time>2026-03-22T15:21:00.813Z</time></trkpt><trkpt lat="42.56082161135219" lon="11.546973503999805"><ele>248.0</ele><time>2026-03-22T15:21:01.813Z</time></trkpt><trkpt lat="42.56060705346842" lon="11.547089558831793"><ele>247.66666666666669</ele><time>2026-03-22T15:21:02.813Z</time></trkpt><trkpt lat="42.56039840546789" lon="11.547200519478272"><ele>247.33333333333331</ele><time>2026-03-22T15:21:03.813Z</time></trkpt><trkpt lat="42.56018829225881" lon="11.54730949941751"><ele>247.0</ele><time>2026-03-22T15:21:04.813Z</time></trkpt><trkpt lat="42.55999272369611" lon="11.547407923028217"><ele>247.66666666666666</ele><time>2026-03-22T15:21:05.813Z</time></trkpt><trkpt lat="42.55980523475423" lon="11.547519972768193"><ele>248.33333333333331</ele><time>2026-03-22T15:21:06.813Z</time></trkpt><trkpt lat="42.559603153978266" lon="11.547631479293479"><ele>249.0</ele><time>2026-03-22T15:21:07.813Z</time></trkpt><trkpt lat="42.559384848105445" lon="11.547745209496274"><ele>249.5</ele><time>2026-03-22T15:21:08.813Z</time></trkpt><trkpt lat="42.55916050174406" lon="11.54785816439852"><ele>250.0</ele><time>2026-03-22T15:21:09.813Z</time></trkpt><trkpt lat="42.558935092075316" lon="11.547975552386344"><ele>250.0</ele><time>2026-03-22T15:21:10.813Z</time></trkpt><trkpt lat="42.55871391436402" lon="11.548094210279055"><ele>250.0</ele><time>2026-03-22T15:21:11.812Z</time></trkpt><trkpt lat="42.55849638882811" lon="11.548210478839676"><ele>249.33333333333331</ele><time>2026-03-22T15:21:12.812Z</time></trkpt><trkpt lat="42.55829165910412" lon="11.548320380627079"><ele>248.66666666666669</ele><time>2026-03-22T15:21:13.812Z</time></trkpt><trkpt lat="42.55811476922333" lon="11.548423153222577"><ele>248.0</ele><time>2026-03-22T15:21:14.812Z</time></trkpt><trkpt lat="42.55794257401593" lon="11.548519298857737"><ele>248.0</ele><time>2026-03-22T15:21:15.812Z</time></trkpt><trkpt lat="42.557794641710174" lon="11.548620237855884"><ele>248.0</ele><time>2026-03-22T15:21:16.812Z</time></trkpt><trkpt lat="42.55770071210882" lon="11.548714754197608"><ele>248.0</ele><time>2026-03-22T15:21:17.812Z</time></trkpt><trkpt lat="42.55757465502281" lon="11.548831742322319"><ele>248.0</ele><time>2026-03-22T15:21:18.812Z</time></trkpt><trkpt lat="42.55743097916059" lon="11.54897813456168"><ele>248.0</ele><time>2026-03-22T15:21:19.812Z</time></trkpt><trkpt lat="42.55727605054192" lon="11.549149062647972"><ele>248.0</ele><time>2026-03-22T15:21:20.812Z</time></trkpt><trkpt lat="42.55711603864383" lon="11.549322503042056"><ele>248.0</ele><time>2026-03-22T15:21:21.812Z</time></trkpt><trkpt lat="42.55695648528512" lon="11.549495924996512"><ele>249.0</ele><time>2026-03-22T15:21:22.812Z</time></trkpt><trkpt lat="42.556796135283776" lon="11.549666985041629"><ele>250.0</ele><time>2026-03-22T15:21:23.812Z</time></trkpt><trkpt lat="42.55663384778294" lon="11.54983825265026"><ele>251.0</ele><time>2026-03-22T15:21:24.812Z</time></trkpt><trkpt lat="42.55647239454073" lon="11.550009373981846"><ele>251.0</ele><time>2026-03-22T15:21:25.812Z</time></trkpt><trkpt lat="42.556311853930985" lon="11.550176771098762"><ele>251.0</ele><time>2026-03-22T15:21:26.812Z</time></trkpt><trkpt lat="42.55615115935975" lon="11.550341255103215"><ele>251.0</ele><time>2026-03-22T15:21:27.812Z</time></trkpt><trkpt lat="42.55599706937198" lon="11.550509509378374"><ele>251.0</ele><time>2026-03-22T15:21:28.812Z</time></trkpt><trkpt lat="42.555830666971765" lon="11.550686056854628"><ele>251.0</ele><time>2026-03-22T15:21:29.812Z</time></trkpt><trkpt lat="42.55566389543598" lon="11.550854382353432"><ele>251.0</ele><time>2026-03-22T15:21:30.812Z</time></trkpt><trkpt lat="42.555495881777944" lon="11.551026723319975"><ele>251.33333333333334</ele><time>2026-03-22T15:21:31.814Z</time></trkpt><trkpt lat="42.55533128623123" lon="11.55120176628893"><ele>251.66666666666669</ele><time>2026-03-22T15:21:32.814Z</time></trkpt><trkpt lat="42.55516605915471" lon="11.551377526607432"><ele>252.0</ele><time>2026-03-22T15:21:33.814Z</time></trkpt><trkpt lat="42.554991293772694" lon="11.551558300621416"><ele>252.0</ele><time>2026-03-22T15:21:34.814Z</time></trkpt><trkpt lat="42.55483448125325" lon="11.55173034302871"><ele>252.0</ele><time>2026-03-22T15:21:35.814Z</time></trkpt><trkpt lat="42.554676915521654" lon="11.551884839991176"><ele>252.0</ele><time>2026-03-22T15:21:36.814Z</time></trkpt><trkpt lat="42.554522238586706" lon="11.552043641459388"><ele>252.33333333333331</ele><time>2026-03-22T15:21:37.814Z</time></trkpt><trkpt lat="42.554359239194255" lon="11.552232217446571"><ele>252.66666666666666</ele><time>2026-03-22T15:21:38.814Z</time></trkpt><trkpt lat="42.55418818182077" lon="11.552400869148592"><ele>253.0</ele><time>2026-03-22T15:21:39.814Z</time></trkpt><trkpt lat="42.55402334878713" lon="11.552571350627632"><ele>253.0</ele><time>2026-03-22T15:21:40.814Z</time></trkpt><trkpt lat="42.55385712390082" lon="11.552746823287203"><ele>253.0</ele><time>2026-03-22T15:21:41.814Z</time></trkpt><trkpt lat="42.553694797258764" lon="11.552922684625933"><ele>253.0</ele><time>2026-03-22T15:21:42.814Z</time></trkpt><trkpt lat="42.553528181026365" lon="11.553099894001452"><ele>253.0</ele><time>2026-03-22T15:21:43.813Z</time></trkpt><trkpt lat="42.55336192275502" lon="11.553263780951266"><ele>253.0</ele><time>2026-03-22T15:21:44.814Z</time></trkpt><trkpt lat="42.55319464184832" lon="11.553439927379754"><ele>253.0</ele><time>2026-03-22T15:21:45.814Z</time></trkpt><trkpt lat="42.5530238469196" lon="11.5536168309293"><ele>253.66666666666666</ele><time>2026-03-22T15:21:46.813Z</time></trkpt><trkpt lat="42.55286293811875" lon="11.55378224354343"><ele>254.33333333333331</ele><time>2026-03-22T15:21:47.813Z</time></trkpt><trkpt lat="42.55269665266436" lon="11.553952175942921"><ele>255.0</ele><time>2026-03-22T15:21:48.813Z</time></trkpt><trkpt lat="42.55252744649328" lon="11.55412386522671"><ele>255.0</ele><time>2026-03-22T15:21:49.813Z</time></trkpt><trkpt lat="42.55236231391861" lon="11.554293180603452"><ele>255.0</ele><time>2026-03-22T15:21:50.813Z</time></trkpt><trkpt lat="42.55219294423344" lon="11.554474408174745"><ele>255.0</ele><time>2026-03-22T15:21:51.813Z</time></trkpt><trkpt lat="42.552030883067765" lon="11.554649097289818"><ele>256.3333333333333</ele><time>2026-03-22T15:21:52.813Z</time></trkpt><trkpt lat="42.55185981852919" lon="11.554828196772926"><ele>257.66666666666663</ele><time>2026-03-22T15:21:53.813Z</time></trkpt><trkpt lat="42.551679662412795" lon="11.555014046485363"><ele>259.0</ele><time>2026-03-22T15:21:54.813Z</time></trkpt><trkpt lat="42.55151761549162" lon="11.555193575048774"><ele>259.0</ele><time>2026-03-22T15:21:55.813Z</time></trkpt><trkpt lat="42.55133132034338" lon="11.555342856075681"><ele>259.0</ele><time>2026-03-22T15:21:56.813Z</time></trkpt><trkpt lat="42.55116174951636" lon="11.555522044150983"><ele>259.0</ele><time>2026-03-22T15:21:57.813Z</time></trkpt><trkpt lat="42.55099929249093" lon="11.555693184091265"><ele>255.66666666666666</ele><time>2026-03-22T15:21:58.813Z</time></trkpt><trkpt lat="42.550848609873896" lon="11.555852433465533"><ele>252.33333333333331</ele><time>2026-03-22T15:21:59.813Z</time></trkpt><trkpt lat="42.55070323078155" lon="11.556006258972998"><ele>249.0</ele><time>2026-03-22T15:22:00.813Z</time></trkpt><trkpt lat="42.55055797575977" lon="11.556140957593632"><ele>248.66666666666669</ele><time>2026-03-22T15:22:01.813Z</time></trkpt><trkpt lat="42.55041619986907" lon="11.556234003605384"><ele>248.33333333333334</ele><time>2026-03-22T15:22:02.813Z</time></trkpt><trkpt lat="42.550253111275026" lon="11.556299395666448"><ele>248.0</ele><time>2026-03-22T15:22:03.813Z</time></trkpt><trkpt lat="42.55006395671047" lon="11.556355139743207"><ele>248.0</ele><time>2026-03-22T15:22:04.813Z</time></trkpt><trkpt lat="42.54987242523745" lon="11.556405768554196"><ele>248.0</ele><time>2026-03-22T15:22:05.813Z</time></trkpt><trkpt lat="42.549659216270435" lon="11.55647566820091"><ele>248.0</ele><time>2026-03-22T15:22:06.813Z</time></trkpt><trkpt lat="42.54946505179219" lon="11.556532114068968"><ele>245.33333333333334</ele><time>2026-03-22T15:22:07.813Z</time></trkpt><trkpt lat="42.549305716709085" lon="11.556555570469426"><ele>242.66666666666669</ele><time>2026-03-22T15:22:08.812Z</time></trkpt><trkpt lat="42.54913718132754" lon="11.556595969118867"><ele>240.0</ele><time>2026-03-22T15:22:09.812Z</time></trkpt><trkpt lat="42.54898600379963" lon="11.556607137146468"><ele>240.0</ele><time>2026-03-22T15:22:10.812Z</time></trkpt><trkpt lat="42.54878556819008" lon="11.556579393117602"><ele>240.0</ele><time>2026-03-22T15:22:11.812Z</time></trkpt><trkpt lat="42.54859362519266" lon="11.556544498578312"><ele>240.0</ele><time>2026-03-22T15:22:12.812Z</time></trkpt><trkpt lat="42.54840409331575" lon="11.556530890498749"><ele>237.66666666666669</ele><time>2026-03-22T15:22:13.812Z</time></trkpt><trkpt lat="42.548230832952754" lon="11.556477105712469"><ele>235.33333333333334</ele><time>2026-03-22T15:22:14.812Z</time></trkpt><trkpt lat="42.54805978269353" lon="11.556466789709196"><ele>233.0</ele><time>2026-03-22T15:22:15.812Z</time></trkpt><trkpt lat="42.5478872166166" lon="11.55642882388592"><ele>233.0</ele><time>2026-03-22T15:22:16.812Z</time></trkpt><trkpt lat="42.54771050527765" lon="11.556395217522198"><ele>233.0</ele><time>2026-03-22T15:22:17.812Z</time></trkpt><trkpt lat="42.54753533038659" lon="11.556368049729054"><ele>233.0</ele><time>2026-03-22T15:22:18.812Z</time></trkpt><trkpt lat="42.547376826814315" lon="11.556320049761664"><ele>233.0</ele><time>2026-03-22T15:22:19.812Z</time></trkpt><trkpt lat="42.54723523978972" lon="11.556319396229764"><ele>233.0</ele><time>2026-03-22T15:22:20.812Z</time></trkpt><trkpt lat="42.54711847661909" lon="11.556297744166926"><ele>233.0</ele><time>2026-03-22T15:22:21.812Z</time></trkpt><trkpt lat="42.547013334002244" lon="11.556332285690704"><ele>233.0</ele><time>2026-03-22T15:22:22.812Z</time></trkpt><trkpt lat="42.546931166706656" lon="11.556442930611334"><ele>230.25</ele><time>2026-03-22T15:22:23.812Z</time></trkpt><trkpt lat="42.54686222474767" lon="11.556577546997"><ele>227.5</ele><time>2026-03-22T15:22:24.812Z</time></trkpt><trkpt lat="42.54682011716055" lon="11.556746564819449"><ele>224.75</ele><time>2026-03-22T15:22:25.812Z</time></trkpt><trkpt lat="42.546782002705754" lon="11.556960699278386"><ele>222.0</ele><time>2026-03-22T15:22:26.812Z</time></trkpt><trkpt lat="42.54675061479206" lon="11.55717119447599"><ele>222.0</ele><time>2026-03-22T15:22:27.812Z</time></trkpt><trkpt lat="42.5467229298249" lon="11.557356856767461"><ele>222.0</ele><time>2026-03-22T15:22:28.812Z</time></trkpt><trkpt lat="42.54669608936239" lon="11.557529097235678"><ele>222.0</ele><time>2026-03-22T15:22:29.812Z</time></trkpt><trkpt lat="42.54665584479365" lon="11.55769029164349"><ele>222.0</ele><time>2026-03-22T15:22:30.811Z</time></trkpt><trkpt lat="42.546585072420314" lon="11.557810680042621"><ele>220.25</ele><time>2026-03-22T15:22:31.811Z</time></trkpt><trkpt lat="42.546495308305836" lon="11.557904049934587"><ele>218.5</ele><time>2026-03-22T15:22:32.811Z</time></trkpt><trkpt lat="42.54637993496164" lon="11.557948301545762"><ele>216.75</ele><time>2026-03-22T15:22:33.811Z</time></trkpt><trkpt lat="42.54625018852382" lon="11.557995784209728"><ele>215.0</ele><time>2026-03-22T15:22:34.811Z</time></trkpt><trkpt lat="42.54612968583092" lon="11.558049706206896"><ele>215.0</ele><time>2026-03-22T15:22:35.811Z</time></trkpt><trkpt lat="42.54602128129155" lon="11.558158443741764"><ele>215.0</ele><time>2026-03-22T15:22:36.811Z</time></trkpt><trkpt lat="42.54593955469692" lon="11.558316877651755"><ele>215.0</ele><time>2026-03-22T15:22:37.811Z</time></trkpt><trkpt lat="42.545870117706635" lon="11.5584943630397"><ele>215.0</ele><time>2026-03-22T15:22:38.811Z</time></trkpt><trkpt lat="42.545802849247494" lon="11.55867302020131"><ele>218.5</ele><time>2026-03-22T15:22:39.811Z</time></trkpt><trkpt lat="42.54572081616784" lon="11.558840791286439"><ele>222.0</ele><time>2026-03-22T15:22:40.811Z</time></trkpt><trkpt lat="42.545648371882415" lon="11.558996609603987"><ele>225.5</ele><time>2026-03-22T15:22:41.811Z</time></trkpt><trkpt lat="42.54555716432604" lon="11.559124156734688"><ele>229.0</ele><time>2026-03-22T15:22:42.811Z</time></trkpt><trkpt lat="42.54544450543995" lon="11.559182318789455"><ele>226.75</ele><time>2026-03-22T15:22:43.811Z</time></trkpt><trkpt lat="42.54533573298964" lon="11.55920245658987"><ele>224.5</ele><time>2026-03-22T15:22:44.811Z</time></trkpt><trkpt lat="42.54521907808857" lon="11.559180781237144"><ele>222.25</ele><time>2026-03-22T15:22:45.811Z</time></trkpt><trkpt lat="42.545109635016196" lon="11.559130875040806"><ele>220.0</ele><time>2026-03-22T15:22:46.811Z</time></trkpt><trkpt lat="42.544987036001956" lon="11.559087745153924"><ele>220.0</ele><time>2026-03-22T15:22:47.811Z</time></trkpt><trkpt lat="42.544869151436394" lon="11.55902466403305"><ele>220.0</ele><time>2026-03-22T15:22:48.811Z</time></trkpt><trkpt lat="42.544738491962136" lon="11.558989179582941"><ele>220.0</ele><time>2026-03-22T15:22:49.811Z</time></trkpt><trkpt lat="42.54460212360364" lon="11.558989990969746"><ele>220.0</ele><time>2026-03-22T15:22:50.811Z</time></trkpt><trkpt lat="42.54446506653718" lon="11.559035101003712"><ele>215.66666666666666</ele><time>2026-03-22T15:22:51.811Z</time></trkpt><trkpt lat="42.544325262867005" lon="11.559112123917737"><ele>211.33333333333331</ele><time>2026-03-22T15:22:52.81Z</time></trkpt><trkpt lat="42.54418332599515" lon="11.559220324147015"><ele>207.0</ele><time>2026-03-22T15:22:53.81Z</time></trkpt><trkpt lat="42.54403896469373" lon="11.559331618410816"><ele>207.0</ele><time>2026-03-22T15:22:54.81Z</time></trkpt><trkpt lat="42.543890466956384" lon="11.559423920121706"><ele>207.0</ele><time>2026-03-22T15:22:55.81Z</time></trkpt><trkpt lat="42.543759941154995" lon="11.55954459408017"><ele>207.0</ele><time>2026-03-22T15:22:56.81Z</time></trkpt><trkpt lat="42.5436635731247" lon="11.559715576876764"><ele>205.0</ele><time>2026-03-22T15:22:57.81Z</time></trkpt><trkpt lat="42.54357120679176" lon="11.559867488002087"><ele>203.0</ele><time>2026-03-22T15:22:58.81Z</time></trkpt><trkpt lat="42.543470250329094" lon="11.560030360350126"><ele>201.0</ele><time>2026-03-22T15:22:59.81Z</time></trkpt><trkpt lat="42.543349797242094" lon="11.560148917509268"><ele>201.0</ele><time>2026-03-22T15:23:00.81Z</time></trkpt><trkpt lat="42.54322628814785" lon="11.560245233132324"><ele>201.0</ele><time>2026-03-22T15:23:01.81Z</time></trkpt><trkpt lat="42.54309090926336" lon="11.560307055533404"><ele>201.0</ele><time>2026-03-22T15:23:02.81Z</time></trkpt><trkpt lat="42.542961426804325" lon="11.560360774504456"><ele>201.0</ele><time>2026-03-22T15:23:03.81Z</time></trkpt><trkpt lat="42.54284417234202" lon="11.560408385952117"><ele>197.8</ele><time>2026-03-22T15:23:04.81Z</time></trkpt><trkpt lat="42.54274145675986" lon="11.560461239176098"><ele>194.60000000000002</ele><time>2026-03-22T15:23:05.81Z</time></trkpt><trkpt lat="42.54265910434842" lon="11.560559210913686"><ele>191.4</ele><time>2026-03-22T15:23:06.81Z</time></trkpt><trkpt lat="42.54258158407692" lon="11.560671142313712"><ele>188.2</ele><time>2026-03-22T15:23:07.81Z</time></trkpt><trkpt lat="42.54255433508313" lon="11.560808933429351"><ele>185.0</ele><time>2026-03-22T15:23:08.81Z</time></trkpt><trkpt lat="42.542554702552444" lon="11.560979367372461"><ele>185.0</ele><time>2026-03-22T15:23:09.81Z</time></trkpt><trkpt lat="42.54258025909561" lon="11.5611567521819"><ele>185.0</ele><time>2026-03-22T15:23:10.81Z</time></trkpt><trkpt lat="42.542625604618536" lon="11.561347474525059"><ele>185.0</ele><time>2026-03-22T15:23:11.81Z</time></trkpt><trkpt lat="42.54267492605871" lon="11.56154670557389"><ele>185.0</ele><time>2026-03-22T15:23:12.81Z</time></trkpt><trkpt lat="42.54271204440729" lon="11.561732551807943"><ele>184.25</ele><time>2026-03-22T15:23:13.81Z</time></trkpt><trkpt lat="42.542703792193954" lon="11.56191690485814"><ele>183.5</ele><time>2026-03-22T15:23:14.809Z</time></trkpt><trkpt lat="42.54268474905045" lon="11.562096132183175"><ele>182.75</ele><time>2026-03-22T15:23:15.809Z</time></trkpt><trkpt lat="42.54262614380654" lon="11.562267624277933"><ele>182.0</ele><time>2026-03-22T15:23:16.809Z</time></trkpt><trkpt lat="42.5425481947688" lon="11.562441696422171"><ele>182.0</ele><time>2026-03-22T15:23:17.809Z</time></trkpt><trkpt lat="42.542463006169335" lon="11.562635238630754"><ele>182.0</ele><time>2026-03-22T15:23:18.809Z</time></trkpt><trkpt lat="42.54238283540174" lon="11.562849461332522"><ele>182.0</ele><time>2026-03-22T15:23:19.809Z</time></trkpt><trkpt lat="42.5422949698104" lon="11.563048470972774"><ele>177.33333333333331</ele><time>2026-03-22T15:23:20.809Z</time></trkpt><trkpt lat="42.54221136493185" lon="11.56324456069766"><ele>172.66666666666666</ele><time>2026-03-22T15:23:21.809Z</time></trkpt><trkpt lat="42.542105392227974" lon="11.563419104482795"><ele>168.0</ele><time>2026-03-22T15:23:22.809Z</time></trkpt><trkpt lat="42.5420196394268" lon="11.56359176173802"><ele>168.75</ele><time>2026-03-22T15:23:23.809Z</time></trkpt><trkpt lat="42.541933650413526" lon="11.56376327930641"><ele>169.5</ele><time>2026-03-22T15:23:24.809Z</time></trkpt><trkpt lat="42.541849374854166" lon="11.563931378190045"><ele>170.25</ele><time>2026-03-22T15:23:25.809Z</time></trkpt><trkpt lat="42.541774177320995" lon="11.56408482302158"><ele>171.0</ele><time>2026-03-22T15:23:26.809Z</time></trkpt><trkpt lat="42.54171957277027" lon="11.564228596451589"><ele>171.0</ele><time>2026-03-22T15:23:27.809Z</time></trkpt><trkpt lat="42.541685065403634" lon="11.564384572424805"><ele>171.0</ele><time>2026-03-22T15:23:28.809Z</time></trkpt><trkpt lat="42.54169431068653" lon="11.564553570893223"><ele>171.0</ele><time>2026-03-22T15:23:29.809Z</time></trkpt><trkpt lat="42.541703482080166" lon="11.564735769306756"><ele>171.0</ele><time>2026-03-22T15:23:30.809Z</time></trkpt><trkpt lat="42.54173507423425" lon="11.564928550231434"><ele>171.5</ele><time>2026-03-22T15:23:31.809Z</time></trkpt><trkpt lat="42.5417758574136" lon="11.565113797618858"><ele>172.0</ele><time>2026-03-22T15:23:32.809Z</time></trkpt><trkpt lat="42.54176728918882" lon="11.565293548442655"><ele>172.5</ele><time>2026-03-22T15:23:33.809Z</time></trkpt><trkpt lat="42.541715732788745" lon="11.565456632504723"><ele>173.0</ele><time>2026-03-22T15:23:34.809Z</time></trkpt><trkpt lat="42.54166535357289" lon="11.565636476427816"><ele>173.66666666666666</ele><time>2026-03-22T15:23:35.809Z</time></trkpt><trkpt lat="42.54161113067829" lon="11.565831915662645"><ele>174.33333333333334</ele><time>2026-03-22T15:23:36.809Z</time></trkpt><trkpt lat="42.54156453055384" lon="11.566046847311819"><ele>175.0</ele><time>2026-03-22T15:23:37.81Z</time></trkpt><trkpt lat="42.54153017326817" lon="11.566271352282575"><ele>175.0</ele><time>2026-03-22T15:23:38.811Z</time></trkpt><trkpt lat="42.54152187444479" lon="11.566501424288612"><ele>175.0</ele><time>2026-03-22T15:23:39.81Z</time></trkpt><trkpt lat="42.54151003435327" lon="11.566731562608512"><ele>175.0</ele><time>2026-03-22T15:23:40.811Z</time></trkpt><trkpt lat="42.54150742099132" lon="11.566960352595165"><ele>176.66666666666669</ele><time>2026-03-22T15:23:41.811Z</time></trkpt><trkpt lat="42.54149769935169" lon="11.567198475456838"><ele>178.33333333333334</ele><time>2026-03-22T15:23:42.811Z</time></trkpt><trkpt lat="42.54146805871738" lon="11.567416913543106"><ele>180.0</ele><time>2026-03-22T15:23:43.811Z</time></trkpt><trkpt lat="42.541418633328625" lon="11.56762274996541"><ele>180.0</ele><time>2026-03-22T15:23:44.811Z</time></trkpt><trkpt lat="42.54134680334603" lon="11.567808811364593"><ele>180.0</ele><time>2026-03-22T15:23:45.811Z</time></trkpt><trkpt lat="42.54126286653343" lon="11.567984513141031"><ele>180.0</ele><time>2026-03-22T15:23:46.81Z</time></trkpt><trkpt lat="42.541170285260236" lon="11.568168258617758"><ele>169.66666666666666</ele><time>2026-03-22T15:23:47.811Z</time></trkpt><trkpt lat="42.54108270050071" lon="11.568342065934152"><ele>159.33333333333331</ele><time>2026-03-22T15:23:48.811Z</time></trkpt><trkpt lat="42.54100048928153" lon="11.568521581969392"><ele>149.0</ele><time>2026-03-22T15:23:49.811Z</time></trkpt><trkpt lat="42.54093876185182" lon="11.568734087056685"><ele>149.0</ele><time>2026-03-22T15:23:50.811Z</time></trkpt><trkpt lat="42.54090916305286" lon="11.568959011390076"><ele>149.0</ele><time>2026-03-22T15:23:51.811Z</time></trkpt><trkpt lat="42.540878842180156" lon="11.569185949366235"><ele>149.0</ele><time>2026-03-22T15:23:52.811Z</time></trkpt><trkpt lat="42.540865147259865" lon="11.569426430402777"><ele>148.33333333333331</ele><time>2026-03-22T15:23:53.811Z</time></trkpt><trkpt lat="42.54084976807394" lon="11.56966036282466"><ele>147.66666666666666</ele><time>2026-03-22T15:23:54.811Z</time></trkpt><trkpt lat="42.54084992514489" lon="11.569910418825346"><ele>147.0</ele><time>2026-03-22T15:23:55.81Z</time></trkpt><trkpt lat="42.54088480601886" lon="11.570180362807148"><ele>146.33333333333334</ele><time>2026-03-22T15:23:56.81Z</time></trkpt><trkpt lat="42.540918648463894" lon="11.57045571306329"><ele>145.66666666666669</ele><time>2026-03-22T15:23:57.81Z</time></trkpt><trkpt lat="42.540948753608525" lon="11.570733633903387"><ele>145.0</ele><time>2026-03-22T15:23:58.81Z</time></trkpt><trkpt lat="42.540974456137064" lon="11.571008999527933"><ele>144.66666666666669</ele><time>2026-03-22T15:23:59.81Z</time></trkpt><trkpt lat="42.540998203275215" lon="11.571259409501993"><ele>144.33333333333334</ele><time>2026-03-22T15:24:00.81Z</time></trkpt><trkpt lat="42.54101903636262" lon="11.571503293567588"><ele>144.0</ele><time>2026-03-22T15:24:01.81Z</time></trkpt><trkpt lat="42.54105236832195" lon="11.57175150739682"><ele>144.0</ele><time>2026-03-22T15:24:02.81Z</time></trkpt><trkpt lat="42.541107777837176" lon="11.571989820238596"><ele>144.0</ele><time>2026-03-22T15:24:03.81Z</time></trkpt><trkpt lat="42.541173269513465" lon="11.572228025595797"><ele>144.0</ele><time>2026-03-22T15:24:04.81Z</time></trkpt><trkpt lat="42.54124349839999" lon="11.572455524739711"><ele>144.66666666666666</ele><time>2026-03-22T15:24:05.81Z</time></trkpt><trkpt lat="42.5413029455269" lon="11.572686201335376"><ele>145.33333333333331</ele><time>2026-03-22T15:24:06.81Z</time></trkpt><trkpt lat="42.54136603419222" lon="11.57292314815672"><ele>146.0</ele><time>2026-03-22T15:24:07.81Z</time></trkpt><trkpt lat="42.54144141929942" lon="11.57315276026415"><ele>146.0</ele><time>2026-03-22T15:24:08.81Z</time></trkpt><trkpt lat="42.54148423511604" lon="11.573386514271222"><ele>146.0</ele><time>2026-03-22T15:24:09.81Z</time></trkpt><trkpt lat="42.54153992621937" lon="11.573611782395508"><ele>146.0</ele><time>2026-03-22T15:24:10.81Z</time></trkpt><trkpt lat="42.54158164649231" lon="11.573837857426403"><ele>142.33333333333331</ele><time>2026-03-22T15:24:11.81Z</time></trkpt><trkpt lat="42.54161360490723" lon="11.57406723106043"><ele>138.66666666666666</ele><time>2026-03-22T15:24:12.81Z</time></trkpt><trkpt lat="42.54167610652554" lon="11.574279380379819"><ele>135.0</ele><time>2026-03-22T15:24:13.81Z</time></trkpt><trkpt lat="42.54175303442408" lon="11.574457530345962"><ele>133.0</ele><time>2026-03-22T15:24:14.81Z</time></trkpt><trkpt lat="42.54180280605165" lon="11.57464163454236"><ele>131.0</ele><time>2026-03-22T15:24:15.81Z</time></trkpt><trkpt lat="42.54178651376401" lon="11.574820792266467"><ele>129.0</ele><time>2026-03-22T15:24:16.81Z</time></trkpt><trkpt lat="42.54176117757427" lon="11.574989926116295"><ele>127.0</ele><time>2026-03-22T15:24:17.809Z</time></trkpt><trkpt lat="42.54171486461586" lon="11.575188017628175"><ele>125.0</ele><time>2026-03-22T15:24:18.809Z</time></trkpt><trkpt lat="42.54165744352873" lon="11.575415498607473"><ele>123.0</ele><time>2026-03-22T15:24:19.809Z</time></trkpt><trkpt lat="42.54159331987676" lon="11.575670552878941"><ele>121.0</ele><time>2026-03-22T15:24:20.809Z</time></trkpt><trkpt lat="42.54152374631913" lon="11.575947560720127"><ele>120.5</ele><time>2026-03-22T15:24:21.809Z</time></trkpt><trkpt lat="42.54145110821076" lon="11.576236770055848"><ele>120.0</ele><time>2026-03-22T15:24:22.809Z</time></trkpt><trkpt lat="42.541377276358986" lon="11.57653215273943"><ele>120.0</ele><time>2026-03-22T15:24:23.809Z</time></trkpt><trkpt lat="42.54130148919381" lon="11.576835381840063"><ele>120.0</ele><time>2026-03-22T15:24:24.809Z</time></trkpt><trkpt lat="42.541224135245685" lon="11.577144879734034"><ele>117.0</ele><time>2026-03-22T15:24:25.809Z</time></trkpt><trkpt lat="42.54114722028445" lon="11.577452200124261"><ele>114.0</ele><time>2026-03-22T15:24:26.809Z</time></trkpt><trkpt lat="42.541071366909556" lon="11.577754105544898"><ele>114.0</ele><time>2026-03-22T15:24:27.809Z</time></trkpt><trkpt lat="42.540997826552534" lon="11.578046804895177"><ele>114.0</ele><time>2026-03-22T15:24:28.809Z</time></trkpt><trkpt lat="42.54092644839869" lon="11.578330898408614"><ele>114.0</ele><time>2026-03-22T15:24:29.809Z</time></trkpt><trkpt lat="42.54085882962731" lon="11.578600029143999"><ele>113.33333333333334</ele><time>2026-03-22T15:24:30.809Z</time></trkpt><trkpt lat="42.54079281211771" lon="11.578859668207508"><ele>112.66666666666667</ele><time>2026-03-22T15:24:31.809Z</time></trkpt><trkpt lat="42.54072899450628" lon="11.57910836806605"><ele>112.0</ele><time>2026-03-22T15:24:32.809Z</time></trkpt><trkpt lat="42.54066433848508" lon="11.579360335259354"><ele>112.0</ele><time>2026-03-22T15:24:33.809Z</time></trkpt><trkpt lat="42.54059742445486" lon="11.5796244275334"><ele>112.0</ele><time>2026-03-22T15:24:34.809Z</time></trkpt><trkpt lat="42.54052546664781" lon="11.579911192534553"><ele>112.0</ele><time>2026-03-22T15:24:35.809Z</time></trkpt><trkpt lat="42.540447957543336" lon="11.580220080484352"><ele>110.0</ele><time>2026-03-22T15:24:36.809Z</time></trkpt><trkpt lat="42.54036558305102" lon="11.580548357900847"><ele>108.0</ele><time>2026-03-22T15:24:37.809Z</time></trkpt><trkpt lat="42.540276317132225" lon="11.580904098892221"><ele>107.0</ele><time>2026-03-22T15:24:38.809Z</time></trkpt><trkpt lat="42.540182440745085" lon="11.581278213441857"><ele>106.0</ele><time>2026-03-22T15:24:39.809Z</time></trkpt><trkpt lat="42.540089129112204" lon="11.581650077340415"><ele>106.0</ele><time>2026-03-22T15:24:40.808Z</time></trkpt><trkpt lat="42.539994639819824" lon="11.582026634458993"><ele>106.0</ele><time>2026-03-22T15:24:41.808Z</time></trkpt><trkpt lat="42.53990199648215" lon="11.58239583506203"><ele>106.0</ele><time>2026-03-22T15:24:42.808Z</time></trkpt><trkpt lat="42.539809841769994" lon="11.5827630884254"><ele>106.0</ele><time>2026-03-22T15:24:43.808Z</time></trkpt><trkpt lat="42.5397198084947" lon="11.583121887481445"><ele>105.5</ele><time>2026-03-22T15:24:44.808Z</time></trkpt><trkpt lat="42.53963318800804" lon="11.583466044205625"><ele>105.0</ele><time>2026-03-22T15:24:45.808Z</time></trkpt><trkpt lat="42.539549278600354" lon="11.583798815629411"><ele>107.5</ele><time>2026-03-22T15:24:46.808Z</time></trkpt><trkpt lat="42.53947122082253" lon="11.584102663437212"><ele>110.0</ele><time>2026-03-22T15:24:47.808Z</time></trkpt><trkpt lat="42.539395530124054" lon="11.584397297144625"><ele>110.0</ele><time>2026-03-22T15:24:48.808Z</time></trkpt><trkpt lat="42.53934220997495" lon="11.584604347217839"><ele>110.0</ele><time>2026-03-22T15:24:49.808Z</time></trkpt><trkpt lat="42.5392850079191" lon="11.584781452498472"><ele>110.0</ele><time>2026-03-22T15:24:50.808Z</time></trkpt><trkpt lat="42.5391798852467" lon="11.584944812787883"><ele>110.0</ele><time>2026-03-22T15:24:51.808Z</time></trkpt><trkpt lat="42.5390610869087" lon="11.585075373086491"><ele>110.0</ele><time>2026-03-22T15:24:52.808Z</time></trkpt><trkpt lat="42.53892498658504" lon="11.585205378019367"><ele>110.0</ele><time>2026-03-22T15:24:53.808Z</time></trkpt><trkpt lat="42.538779366197936" lon="11.58534190702447"><ele>111.33333333333333</ele><time>2026-03-22T15:24:54.808Z</time></trkpt><trkpt lat="42.538627201683305" lon="11.58548687500937"><ele>112.66666666666666</ele><time>2026-03-22T15:24:55.808Z</time></trkpt><trkpt lat="42.53847063349378" lon="11.585636737776733"><ele>114.0</ele><time>2026-03-22T15:24:56.808Z</time></trkpt><trkpt lat="42.53830500508679" lon="11.585797843210205"><ele>114.0</ele><time>2026-03-22T15:24:57.808Z</time></trkpt><trkpt lat="42.53813395356689" lon="11.585965560508278"><ele>114.0</ele><time>2026-03-22T15:24:58.808Z</time></trkpt><trkpt lat="42.53796841482815" lon="11.586125694145855"><ele>114.0</ele><time>2026-03-22T15:24:59.808Z</time></trkpt><trkpt lat="42.53781755046869" lon="11.58627995667887"><ele>114.66666666666666</ele><time>2026-03-22T15:25:00.808Z</time></trkpt><trkpt lat="42.53768236716315" lon="11.58646394881884"><ele>115.33333333333333</ele><time>2026-03-22T15:25:01.808Z</time></trkpt><trkpt lat="42.537570203043515" lon="11.586674142014376"><ele>116.0</ele><time>2026-03-22T15:25:02.807Z</time></trkpt><trkpt lat="42.53746365744207" lon="11.586910937951737"><ele>114.0</ele><time>2026-03-22T15:25:03.807Z</time></trkpt><trkpt lat="42.5373541534542" lon="11.58715589623336"><ele>112.0</ele><time>2026-03-22T15:25:04.807Z</time></trkpt><trkpt lat="42.537240888669196" lon="11.587404349872882"><ele>110.0</ele><time>2026-03-22T15:25:05.807Z</time></trkpt><trkpt lat="42.537143061278194" lon="11.587618871885676"><ele>110.0</ele><time>2026-03-22T15:25:06.807Z</time></trkpt><trkpt lat="42.53705667211811" lon="11.587777356595193"><ele>110.0</ele><time>2026-03-22T15:25:07.807Z</time></trkpt><trkpt lat="42.53697812681643" lon="11.587871799231573"><ele>110.0</ele><time>2026-03-22T15:25:08.807Z</time></trkpt><trkpt lat="42.53687531724007" lon="11.587942871386536"><ele>110.0</ele><time>2026-03-22T15:25:09.807Z</time></trkpt><trkpt lat="42.53675790618327" lon="11.58797277404056"><ele>110.66666666666666</ele><time>2026-03-22T15:25:10.807Z</time></trkpt><trkpt lat="42.53661312003401" lon="11.588004790948306"><ele>111.33333333333334</ele><time>2026-03-22T15:25:11.807Z</time></trkpt><trkpt lat="42.536465761035096" lon="11.588059295019608"><ele>112.0</ele><time>2026-03-22T15:25:12.807Z</time></trkpt><trkpt lat="42.53631155201693" lon="11.588077300466898"><ele>112.0</ele><time>2026-03-22T15:25:13.807Z</time></trkpt><trkpt lat="42.53620419617524" lon="11.588097507032556"><ele>112.0</ele><time>2026-03-22T15:25:14.807Z</time></trkpt><trkpt lat="42.53612810400659" lon="11.588126682995574"><ele>112.0</ele><time>2026-03-22T15:25:15.807Z</time></trkpt><trkpt lat="42.53604132875027" lon="11.588162436692897"><ele>112.0</ele><time>2026-03-22T15:25:16.807Z</time></trkpt><trkpt lat="42.53567154909953" lon="11.588492131678182"><ele>112.0</ele><time>2026-03-22T15:25:17.807Z</time></trkpt><trkpt lat="42.535556792908835" lon="11.588632002633652"><ele>112.0</ele><time>2026-03-22T15:25:18.807Z</time></trkpt><trkpt lat="42.53544304134864" lon="11.588757906073942"><ele>112.0</ele><time>2026-03-22T15:25:19.807Z</time></trkpt><trkpt lat="42.53533497445968" lon="11.588875808111048"><ele>112.0</ele><time>2026-03-22T15:25:20.807Z</time></trkpt><trkpt lat="42.535222429961074" lon="11.58900059961067"><ele>112.33333333333334</ele><time>2026-03-22T15:25:21.807Z</time></trkpt><trkpt lat="42.53508748674073" lon="11.589122873312714"><ele>112.66666666666666</ele><time>2026-03-22T15:25:22.807Z</time></trkpt><trkpt lat="42.534959007099005" lon="11.589288087551253"><ele>113.0</ele><time>2026-03-22T15:25:23.807Z</time></trkpt><trkpt lat="42.53481067712029" lon="11.589442764335287"><ele>111.66666666666666</ele><time>2026-03-22T15:25:24.806Z</time></trkpt><trkpt lat="42.53465365696936" lon="11.589588546998602"><ele>110.33333333333334</ele><time>2026-03-22T15:25:25.806Z</time></trkpt><trkpt lat="42.53452243345112" lon="11.58974884704097"><ele>109.0</ele><time>2026-03-22T15:25:26.806Z</time></trkpt><trkpt lat="42.534372254209046" lon="11.58982486127331"><ele>112.33333333333334</ele><time>2026-03-22T15:25:27.806Z</time></trkpt><trkpt lat="42.53422755696103" lon="11.58987541205098"><ele>115.66666666666666</ele><time>2026-03-22T15:25:28.806Z</time></trkpt><trkpt lat="42.53407512899879" lon="11.589895955157045"><ele>119.0</ele><time>2026-03-22T15:25:29.806Z</time></trkpt><trkpt lat="42.533905493242834" lon="11.589912224097047"><ele>119.0</ele><time>2026-03-22T15:25:30.806Z</time></trkpt><trkpt lat="42.533731968668526" lon="11.589915153868965"><ele>119.0</ele><time>2026-03-22T15:25:31.806Z</time></trkpt><trkpt lat="42.533539458234245" lon="11.589895857732941"><ele>119.0</ele><time>2026-03-22T15:25:32.806Z</time></trkpt><trkpt lat="42.53336216502237" lon="11.589877893094924"><ele>121.0</ele><time>2026-03-22T15:25:33.804Z</time></trkpt><trkpt lat="42.53320047718956" lon="11.589882499779732"><ele>123.0</ele><time>2026-03-22T15:25:34.803Z</time></trkpt><trkpt lat="42.53303146311638" lon="11.58992809024963"><ele>125.0</ele><time>2026-03-22T15:25:35.801Z</time></trkpt><trkpt lat="42.532865409972715" lon="11.590016045594972"><ele>128.66666666666666</ele><time>2026-03-22T15:25:36.8Z</time></trkpt><trkpt lat="42.53269995514922" lon="11.590106728953083"><ele>132.33333333333334</ele><time>2026-03-22T15:25:37.799Z</time></trkpt><trkpt lat="42.532532559801616" lon="11.59021074816979"><ele>136.0</ele><time>2026-03-22T15:25:38.798Z</time></trkpt><trkpt lat="42.53236114082497" lon="11.590318465674574"><ele>136.33333333333334</ele><time>2026-03-22T15:25:39.797Z</time></trkpt><trkpt lat="42.532196752410535" lon="11.590453920757833"><ele>136.66666666666666</ele><time>2026-03-22T15:25:40.796Z</time></trkpt><trkpt lat="42.53203423050345" lon="11.590587667748812"><ele>137.0</ele><time>2026-03-22T15:25:41.795Z</time></trkpt><trkpt lat="42.531886809725144" lon="11.590734611155716"><ele>137.0</ele><time>2026-03-22T15:25:42.794Z</time></trkpt><trkpt lat="42.531728767668056" lon="11.5908921424439"><ele>137.0</ele><time>2026-03-22T15:25:43.795Z</time></trkpt><trkpt lat="42.53157503022959" lon="11.591055723785656"><ele>137.0</ele><time>2026-03-22T15:25:44.794Z</time></trkpt><trkpt lat="42.53149441172148" lon="11.591428080011266"><ele>142.0</ele><time>2026-03-22T15:25:45.793Z</time></trkpt><trkpt lat="42.53134343683288" lon="11.59169711989548"><ele>147.0</ele><time>2026-03-22T15:25:46.792Z</time></trkpt><trkpt lat="42.53118531432487" lon="11.591953799040363"><ele>137.0</ele><time>2026-03-22T15:25:47.791Z</time></trkpt><trkpt lat="42.531034144603886" lon="11.592205111369124"><ele>127.0</ele><time>2026-03-22T15:25:48.791Z</time></trkpt><trkpt lat="42.530884317954005" lon="11.592463490942087"><ele>127.0</ele><time>2026-03-22T15:25:49.791Z</time></trkpt><trkpt lat="42.530744583369945" lon="11.592706304280275"><ele>127.0</ele><time>2026-03-22T15:25:50.79Z</time></trkpt><trkpt lat="42.530594309207316" lon="11.59292513220848"><ele>127.0</ele><time>2026-03-22T15:25:51.789Z</time></trkpt><trkpt lat="42.5304407717283" lon="11.593141002650912"><ele>132.0</ele><time>2026-03-22T15:25:52.79Z</time></trkpt><trkpt lat="42.530293083591275" lon="11.593311458507513"><ele>137.0</ele><time>2026-03-22T15:25:53.788Z</time></trkpt><trkpt lat="42.530161181738066" lon="11.593433728077208"><ele>142.0</ele><time>2026-03-22T15:25:54.788Z</time></trkpt><trkpt lat="42.53005230603273" lon="11.593570866058146"><ele>138.0</ele><time>2026-03-22T15:25:55.788Z</time></trkpt><trkpt lat="42.52997129497951" lon="11.593744662574537"><ele>134.0</ele><time>2026-03-22T15:25:56.787Z</time></trkpt><trkpt lat="42.52992446296643" lon="11.59392095958638"><ele>130.0</ele><time>2026-03-22T15:25:57.787Z</time></trkpt><trkpt lat="42.5299059006266" lon="11.59411719057862"><ele>126.0</ele><time>2026-03-22T15:25:58.786Z</time></trkpt><trkpt lat="42.529892692589776" lon="11.59434833959865"><ele>124.0</ele><time>2026-03-22T15:25:59.786Z</time></trkpt><trkpt lat="42.52985361141751" lon="11.594617010086862"><ele>122.0</ele><time>2026-03-22T15:26:00.786Z</time></trkpt><trkpt lat="42.529810746696036" lon="11.594888655030067"><ele>120.0</ele><time>2026-03-22T15:26:01.785Z</time></trkpt><trkpt lat="42.52976110197442" lon="11.595133807013745"><ele>117.33333333333334</ele><time>2026-03-22T15:26:02.785Z</time></trkpt><trkpt lat="42.52971395546132" lon="11.595340372883653"><ele>114.66666666666667</ele><time>2026-03-22T15:26:03.785Z</time></trkpt><trkpt lat="42.529637969426346" lon="11.59551438578588"><ele>112.0</ele><time>2026-03-22T15:26:04.785Z</time></trkpt><trkpt lat="42.52954943581272" lon="11.59568274608489"><ele>119.66666666666667</ele><time>2026-03-22T15:26:05.784Z</time></trkpt><trkpt lat="42.529453050923145" lon="11.595867661138158"><ele>127.33333333333334</ele><time>2026-03-22T15:26:06.784Z</time></trkpt><trkpt lat="42.5293860562719" lon="11.596081557815266"><ele>135.0</ele><time>2026-03-22T15:26:07.784Z</time></trkpt><trkpt lat="42.52935237557219" lon="11.596313532261524"><ele>136.0</ele><time>2026-03-22T15:26:08.784Z</time></trkpt><trkpt lat="42.529339615856074" lon="11.596572978131578"><ele>137.0</ele><time>2026-03-22T15:26:09.783Z</time></trkpt><trkpt lat="42.52933626012831" lon="11.596833922083741"><ele>138.0</ele><time>2026-03-22T15:26:10.783Z</time></trkpt><trkpt lat="42.52931216419" lon="11.597082470793609"><ele>135.33333333333334</ele><time>2026-03-22T15:26:11.783Z</time></trkpt><trkpt lat="42.52925911481979" lon="11.597308670253614"><ele>132.66666666666669</ele><time>2026-03-22T15:26:12.783Z</time></trkpt><trkpt lat="42.52914272401974" lon="11.59750263111321"><ele>130.0</ele><time>2026-03-22T15:26:13.783Z</time></trkpt><trkpt lat="42.52904104127857" lon="11.597733664422913"><ele>124.33333333333334</ele><time>2026-03-22T15:26:14.783Z</time></trkpt><trkpt lat="42.52893156941521" lon="11.597972906994384"><ele>118.66666666666666</ele><time>2026-03-22T15:26:15.782Z</time></trkpt><trkpt lat="42.52881970483906" lon="11.598185873083748"><ele>113.0</ele><time>2026-03-22T15:26:16.782Z</time></trkpt><trkpt lat="42.52869013687294" lon="11.59838188442879"><ele>116.0</ele><time>2026-03-22T15:26:17.782Z</time></trkpt><trkpt lat="42.528549264983724" lon="11.598560100846283"><ele>119.0</ele><time>2026-03-22T15:26:18.782Z</time></trkpt><trkpt lat="42.52841326718969" lon="11.598740049745642"><ele>122.0</ele><time>2026-03-22T15:26:19.782Z</time></trkpt><trkpt lat="42.52829613483332" lon="11.598935164262492"><ele>122.0</ele><time>2026-03-22T15:26:20.782Z</time></trkpt><trkpt lat="42.528228494947626" lon="11.599151140336604"><ele>122.0</ele><time>2026-03-22T15:26:21.782Z</time></trkpt><trkpt lat="42.52820859080532" lon="11.599374783749985"><ele>122.0</ele><time>2026-03-22T15:26:22.781Z</time></trkpt><trkpt lat="42.528126072356265" lon="11.599570483810119"><ele>117.66666666666666</ele><time>2026-03-22T15:26:23.781Z</time></trkpt><trkpt lat="42.528025998240146" lon="11.599786773620323"><ele>113.33333333333334</ele><time>2026-03-22T15:26:24.781Z</time></trkpt><trkpt lat="42.52791524635915" lon="11.600014146717893"><ele>109.0</ele><time>2026-03-22T15:26:25.781Z</time></trkpt><trkpt lat="42.52779126598577" lon="11.60026445168969"><ele>116.0</ele><time>2026-03-22T15:26:26.781Z</time></trkpt><trkpt lat="42.5276660703799" lon="11.600525116623725"><ele>123.0</ele><time>2026-03-22T15:26:27.781Z</time></trkpt><trkpt lat="42.52754773172297" lon="11.600762230694837"><ele>130.0</ele><time>2026-03-22T15:26:28.781Z</time></trkpt><trkpt lat="42.5274485905107" lon="11.600983021365716"><ele>130.0</ele><time>2026-03-22T15:26:29.781Z</time></trkpt><trkpt lat="42.52739003313587" lon="11.601159962576792"><ele>130.0</ele><time>2026-03-22T15:26:30.781Z</time></trkpt><trkpt lat="42.527371499270735" lon="11.601267556539543"><ele>130.0</ele><time>2026-03-22T15:26:31.781Z</time></trkpt><trkpt lat="42.527410406730546" lon="11.601345153203066"><ele>130.0</ele><time>2026-03-22T15:26:32.781Z</time></trkpt><trkpt lat="42.52745333375028" lon="11.601439833069838"><ele>130.0</ele><time>2026-03-22T15:26:33.78Z</time></trkpt><trkpt lat="42.52752353450554" lon="11.601566798367971"><ele>125.25</ele><time>2026-03-22T15:26:34.78Z</time></trkpt><trkpt lat="42.52760690970849" lon="11.601684540635153"><ele>120.5</ele><time>2026-03-22T15:26:35.78Z</time></trkpt><trkpt lat="42.52769873465618" lon="11.60180628591519"><ele>115.75</ele><time>2026-03-22T15:26:36.78Z</time></trkpt><trkpt lat="42.52779360844108" lon="11.60193339362908"><ele>111.0</ele><time>2026-03-22T15:26:37.78Z</time></trkpt><trkpt lat="42.52789202881864" lon="11.60206577985509"><ele>114.75</ele><time>2026-03-22T15:26:38.78Z</time></trkpt><trkpt lat="42.52798796325555" lon="11.602201554360065"><ele>118.5</ele><time>2026-03-22T15:26:39.78Z</time></trkpt><trkpt lat="42.52807537845491" lon="11.602327404468014"><ele>122.25</ele><time>2026-03-22T15:26:40.78Z</time></trkpt><trkpt lat="42.528140587827785" lon="11.602446311577335"><ele>126.0</ele><time>2026-03-22T15:26:41.78Z</time></trkpt><trkpt lat="42.52817535646512" lon="11.602555787150136"><ele>126.0</ele><time>2026-03-22T15:26:42.78Z</time></trkpt><trkpt lat="42.528160039876894" lon="11.60267786998055"><ele>126.0</ele><time>2026-03-22T15:26:43.78Z</time></trkpt><trkpt lat="42.52808864344759" lon="11.602747563637422"><ele>126.0</ele><time>2026-03-22T15:26:44.78Z</time></trkpt><trkpt lat="42.52805785264123" lon="11.602867361617001"><ele>126.0</ele><time>2026-03-22T15:26:45.78Z</time></trkpt><trkpt lat="42.52803532700019" lon="11.603026611322122"><ele>126.0</ele><time>2026-03-22T15:26:46.779Z</time></trkpt><trkpt lat="42.528029701658234" lon="11.603186468774268"><ele>127.75</ele><time>2026-03-22T15:26:47.779Z</time></trkpt><trkpt lat="42.52804856640357" lon="11.603351598566881"><ele>129.5</ele><time>2026-03-22T15:26:48.779Z</time></trkpt><trkpt lat="42.52806790163379" lon="11.603518997797854"><ele>131.25</ele><time>2026-03-22T15:26:49.779Z</time></trkpt><trkpt lat="42.52808416353098" lon="11.603690404948933"><ele>133.0</ele><time>2026-03-22T15:26:50.779Z</time></trkpt><trkpt lat="42.52811084965963" lon="11.60386457010632"><ele>133.0</ele><time>2026-03-22T15:26:51.779Z</time></trkpt><trkpt lat="42.528134698412785" lon="11.604053062341007"><ele>133.0</ele><time>2026-03-22T15:26:52.779Z</time></trkpt><trkpt lat="42.52811200578497" lon="11.604247753755658"><ele>133.0</ele><time>2026-03-22T15:26:53.779Z</time></trkpt><trkpt lat="42.528124880926285" lon="11.604445843554096"><ele>133.0</ele><time>2026-03-22T15:26:54.779Z</time></trkpt><trkpt lat="42.52814044513462" lon="11.604649926604717"><ele>132.75</ele><time>2026-03-22T15:26:55.779Z</time></trkpt><trkpt lat="42.52815602499013" lon="11.60485604267793"><ele>132.5</ele><time>2026-03-22T15:26:56.779Z</time></trkpt><trkpt lat="42.528168878072016" lon="11.605042476751981"><ele>132.25</ele><time>2026-03-22T15:26:57.779Z</time></trkpt><trkpt lat="42.52818181355936" lon="11.605221699244124"><ele>132.0</ele><time>2026-03-22T15:26:58.779Z</time></trkpt><trkpt lat="42.52819913331705" lon="11.605391035096027"><ele>130.0</ele><time>2026-03-22T15:26:59.779Z</time></trkpt><trkpt lat="42.528232007718245" lon="11.605560220466172"><ele>128.0</ele><time>2026-03-22T15:27:00.779Z</time></trkpt><trkpt lat="42.52828948110918" lon="11.605715723149256"><ele>126.0</ele><time>2026-03-22T15:27:01.779Z</time></trkpt><trkpt lat="42.52836621559677" lon="11.605846306960212"><ele>124.0</ele><time>2026-03-22T15:27:02.779Z</time></trkpt><trkpt lat="42.52845889403282" lon="11.605970861586824"><ele>124.0</ele><time>2026-03-22T15:27:03.778Z</time></trkpt><trkpt lat="42.52857643691744" lon="11.60605616504956"><ele>124.0</ele><time>2026-03-22T15:27:04.778Z</time></trkpt><trkpt lat="42.52869563301702" lon="11.60609541166771"><ele>124.0</ele><time>2026-03-22T15:27:05.778Z</time></trkpt><trkpt lat="42.5288257996953" lon="11.606089790535322"><ele>124.0</ele><time>2026-03-22T15:27:06.778Z</time></trkpt><trkpt lat="42.52895065947385" lon="11.606079281345693"><ele>130.0</ele><time>2026-03-22T15:27:07.778Z</time></trkpt><trkpt lat="42.52909807779689" lon="11.606046242229754"><ele>136.0</ele><time>2026-03-22T15:27:08.778Z</time></trkpt><trkpt lat="42.529254244020734" lon="11.60605006227281"><ele>142.0</ele><time>2026-03-22T15:27:09.778Z</time></trkpt><trkpt lat="42.52941324483502" lon="11.6060415766242"><ele>143.25</ele><time>2026-03-22T15:27:10.778Z</time></trkpt><trkpt lat="42.52957734287737" lon="11.606030236668401"><ele>144.5</ele><time>2026-03-22T15:27:11.778Z</time></trkpt><trkpt lat="42.52972184352769" lon="11.606027065457496"><ele>145.75</ele><time>2026-03-22T15:27:12.778Z</time></trkpt><trkpt lat="42.52984002206251" lon="11.606035988575515"><ele>147.0</ele><time>2026-03-22T15:27:13.778Z</time></trkpt><trkpt lat="42.52996756013977" lon="11.606060388523371"><ele>147.0</ele><time>2026-03-22T15:27:14.778Z</time></trkpt><trkpt lat="42.53007397732376" lon="11.606125690137853"><ele>147.0</ele><time>2026-03-22T15:27:15.778Z</time></trkpt><trkpt lat="42.53017184672284" lon="11.606226585968544"><ele>147.0</ele><time>2026-03-22T15:27:16.778Z</time></trkpt><trkpt lat="42.53024710346368" lon="11.606384472068854"><ele>147.0</ele><time>2026-03-22T15:27:17.778Z</time></trkpt><trkpt lat="42.530350273334854" lon="11.606539064262382"><ele>147.0</ele><time>2026-03-22T15:27:18.778Z</time></trkpt><trkpt lat="42.53046260091659" lon="11.606698768712736"><ele>147.0</ele><time>2026-03-22T15:27:19.778Z</time></trkpt><trkpt lat="42.53058308715104" lon="11.606875937141448"><ele>147.0</ele><time>2026-03-22T15:27:20.778Z</time></trkpt><trkpt lat="42.530702205153695" lon="11.607018607199892"><ele>147.0</ele><time>2026-03-22T15:27:21.778Z</time></trkpt><trkpt lat="42.53081098800818" lon="11.607177345957457"><ele>147.0</ele><time>2026-03-22T15:27:22.777Z</time></trkpt><trkpt lat="42.53093440252041" lon="11.60729746847726"><ele>147.0</ele><time>2026-03-22T15:27:23.777Z</time></trkpt><trkpt lat="42.53106518361873" lon="11.607399883817251"><ele>147.0</ele><time>2026-03-22T15:27:24.777Z</time></trkpt><trkpt lat="42.53120877136171" lon="11.607483112123763"><ele>147.0</ele><time>2026-03-22T15:27:25.777Z</time></trkpt><trkpt lat="42.53134010355085" lon="11.607565303038303"><ele>147.0</ele><time>2026-03-22T15:27:26.777Z</time></trkpt><trkpt lat="42.531462512468586" lon="11.607667753974928"><ele>147.0</ele><time>2026-03-22T15:27:27.777Z</time></trkpt><trkpt lat="42.53154986559919" lon="11.607826113926501"><ele>149.75</ele><time>2026-03-22T15:27:28.777Z</time></trkpt><trkpt lat="42.53163144484986" lon="11.607990263025997"><ele>152.5</ele><time>2026-03-22T15:27:29.777Z</time></trkpt><trkpt lat="42.53171497571926" lon="11.608162180765138"><ele>155.25</ele><time>2026-03-22T15:27:30.777Z</time></trkpt><trkpt lat="42.53181957934914" lon="11.608299039019048"><ele>158.0</ele><time>2026-03-22T15:27:31.777Z</time></trkpt><trkpt lat="42.531923516539166" lon="11.608412650449239"><ele>158.0</ele><time>2026-03-22T15:27:32.777Z</time></trkpt><trkpt lat="42.532053561035724" lon="11.608483679165538"><ele>158.0</ele><time>2026-03-22T15:27:33.777Z</time></trkpt><trkpt lat="42.53220633990336" lon="11.608512439149854"><ele>158.0</ele><time>2026-03-22T15:27:34.777Z</time></trkpt><trkpt lat="42.532366710970315" lon="11.608526027395012"><ele>158.33333333333331</ele><time>2026-03-22T15:27:35.777Z</time></trkpt><trkpt lat="42.532536595671395" lon="11.608540115385564"><ele>158.66666666666666</ele><time>2026-03-22T15:27:36.777Z</time></trkpt><trkpt lat="42.53271143510584" lon="11.608559496676417"><ele>159.0</ele><time>2026-03-22T15:27:37.777Z</time></trkpt><trkpt lat="42.53289195201275" lon="11.608590850531801"><ele>159.0</ele><time>2026-03-22T15:27:38.777Z</time></trkpt><trkpt lat="42.53307175821429" lon="11.608640412387793"><ele>159.0</ele><time>2026-03-22T15:27:39.777Z</time></trkpt><trkpt lat="42.53325587131525" lon="11.608712704649491"><ele>159.0</ele><time>2026-03-22T15:27:40.777Z</time></trkpt><trkpt lat="42.53344157443517" lon="11.608794028618751"><ele>159.0</ele><time>2026-03-22T15:27:41.777Z</time></trkpt><trkpt lat="42.533617299687144" lon="11.608906475698337"><ele>159.0</ele><time>2026-03-22T15:27:42.776Z</time></trkpt><trkpt lat="42.533775906917334" lon="11.60902629836094"><ele>159.0</ele><time>2026-03-22T15:27:43.776Z</time></trkpt><trkpt lat="42.53392960825502" lon="11.609188333180237"><ele>159.33333333333334</ele><time>2026-03-22T15:27:44.776Z</time></trkpt><trkpt lat="42.53408103883992" lon="11.609352036292169"><ele>159.66666666666669</ele><time>2026-03-22T15:27:45.776Z</time></trkpt><trkpt lat="42.534240150802816" lon="11.609520412369578"><ele>160.0</ele><time>2026-03-22T15:27:46.776Z</time></trkpt><trkpt lat="42.5344087781958" lon="11.609698129312227"><ele>161.0</ele><time>2026-03-22T15:27:47.776Z</time></trkpt><trkpt lat="42.53456328402691" lon="11.6098621423512"><ele>162.0</ele><time>2026-03-22T15:27:48.776Z</time></trkpt><trkpt lat="42.53471898731985" lon="11.61002742676764"><ele>163.0</ele><time>2026-03-22T15:27:49.779Z</time></trkpt><trkpt lat="42.53486272757527" lon="11.610180011869843"><ele>162.33333333333334</ele><time>2026-03-22T15:27:50.778Z</time></trkpt><trkpt lat="42.535002068342145" lon="11.610327926797464"><ele>161.66666666666666</ele><time>2026-03-22T15:27:51.778Z</time></trkpt><trkpt lat="42.53512996828802" lon="11.610463279350633"><ele>161.0</ele><time>2026-03-22T15:27:52.778Z</time></trkpt><trkpt lat="42.53523441465128" lon="11.610580416594189"><ele>161.0</ele><time>2026-03-22T15:27:53.778Z</time></trkpt><trkpt lat="42.53531768090279" lon="11.610699992110836"><ele>161.0</ele><time>2026-03-22T15:27:54.778Z</time></trkpt><trkpt lat="42.53537429945185" lon="11.610828696252296"><ele>161.0</ele><time>2026-03-22T15:27:55.778Z</time></trkpt><trkpt lat="42.53539960308181" lon="11.610970687652575"><ele>161.0</ele><time>2026-03-22T15:27:56.778Z</time></trkpt><trkpt lat="42.5353908673926" lon="11.611121238178248"><ele>161.5</ele><time>2026-03-22T15:27:57.778Z</time></trkpt><trkpt lat="42.53534847571827" lon="11.611268169753636"><ele>162.0</ele><time>2026-03-22T15:27:58.779Z</time></trkpt><trkpt lat="42.53528767737169" lon="11.611419155478666"><ele>162.5</ele><time>2026-03-22T15:27:59.778Z</time></trkpt><trkpt lat="42.53520926458276" lon="11.611580280024993"><ele>163.0</ele><time>2026-03-22T15:28:00.778Z</time></trkpt><trkpt lat="42.535121020814735" lon="11.611764513455482"><ele>163.0</ele><time>2026-03-22T15:28:01.778Z</time></trkpt><trkpt lat="42.53502882892013" lon="11.611961088197338"><ele>163.0</ele><time>2026-03-22T15:28:02.778Z</time></trkpt><trkpt lat="42.53492784817952" lon="11.612169446360541"><ele>163.0</ele><time>2026-03-22T15:28:03.778Z</time></trkpt><trkpt lat="42.53481860022856" lon="11.612394863204797"><ele>163.33333333333334</ele><time>2026-03-22T15:28:04.778Z</time></trkpt><trkpt lat="42.5347178375799" lon="11.612607009422417"><ele>163.66666666666666</ele><time>2026-03-22T15:28:05.778Z</time></trkpt><trkpt lat="42.53461463335486" lon="11.612824047873"><ele>164.0</ele><time>2026-03-22T15:28:06.778Z</time></trkpt><trkpt lat="42.534513612241355" lon="11.61303072856297"><ele>164.0</ele><time>2026-03-22T15:28:07.778Z</time></trkpt><trkpt lat="42.53441817344162" lon="11.613237373772424"><ele>164.0</ele><time>2026-03-22T15:28:08.778Z</time></trkpt><trkpt lat="42.53432361256275" lon="11.613437596812512"><ele>164.0</ele><time>2026-03-22T15:28:09.778Z</time></trkpt><trkpt lat="42.534234923298385" lon="11.61363133249654"><ele>164.66666666666666</ele><time>2026-03-22T15:28:10.778Z</time></trkpt><trkpt lat="42.53415872833352" lon="11.613833374312135"><ele>165.33333333333334</ele><time>2026-03-22T15:28:11.778Z</time></trkpt><trkpt lat="42.534111261993786" lon="11.614053199646497"><ele>166.0</ele><time>2026-03-22T15:28:12.778Z</time></trkpt><trkpt lat="42.5340935789734" lon="11.614271635107908"><ele>166.0</ele><time>2026-03-22T15:28:13.778Z</time></trkpt><trkpt lat="42.534100374407764" lon="11.614487466953477"><ele>166.0</ele><time>2026-03-22T15:28:14.778Z</time></trkpt><trkpt lat="42.534131578526356" lon="11.614706763979106"><ele>166.0</ele><time>2026-03-22T15:28:15.778Z</time></trkpt><trkpt lat="42.53417177569501" lon="11.61493218657237"><ele>167.0</ele><time>2026-03-22T15:28:16.778Z</time></trkpt><trkpt lat="42.53421160723551" lon="11.615171527265774"><ele>168.0</ele><time>2026-03-22T15:28:17.778Z</time></trkpt><trkpt lat="42.534252745129564" lon="11.615420125597499"><ele>169.0</ele><time>2026-03-22T15:28:18.778Z</time></trkpt><trkpt lat="42.53429540384213" lon="11.61567324367289"><ele>170.66666666666669</ele><time>2026-03-22T15:28:19.778Z</time></trkpt><trkpt lat="42.5343506577177" lon="11.615941147770652"><ele>172.33333333333334</ele><time>2026-03-22T15:28:20.778Z</time></trkpt><trkpt lat="42.53439888242276" lon="11.616216732195442"><ele>174.0</ele><time>2026-03-22T15:28:21.777Z</time></trkpt><trkpt lat="42.5344318177732" lon="11.616510928739618"><ele>174.5</ele><time>2026-03-22T15:28:22.777Z</time></trkpt><trkpt lat="42.53445261093483" lon="11.616824673015936"><ele>175.0</ele><time>2026-03-22T15:28:23.777Z</time></trkpt><trkpt lat="42.53450346135421" lon="11.617123995084192"><ele>175.33333333333334</ele><time>2026-03-22T15:28:24.777Z</time></trkpt><trkpt lat="42.534576564496675" lon="11.617415098562075"><ele>175.66666666666666</ele><time>2026-03-22T15:28:25.777Z</time></trkpt><trkpt lat="42.53463773491411" lon="11.617702382030236"><ele>176.0</ele><time>2026-03-22T15:28:26.777Z</time></trkpt><trkpt lat="42.534671465145685" lon="11.61797827794602"><ele>177.0</ele><time>2026-03-22T15:28:27.777Z</time></trkpt><trkpt lat="42.53470667544077" lon="11.61824327185371"><ele>178.0</ele><time>2026-03-22T15:28:28.777Z</time></trkpt><trkpt lat="42.53476468694708" lon="11.618506412362832"><ele>179.0</ele><time>2026-03-22T15:28:29.777Z</time></trkpt><trkpt lat="42.534807969919605" lon="11.618779122384876"><ele>179.0</ele><time>2026-03-22T15:28:30.777Z</time></trkpt><trkpt lat="42.534849051561714" lon="11.619044680400842"><ele>179.0</ele><time>2026-03-22T15:28:31.777Z</time></trkpt><trkpt lat="42.534894252216006" lon="11.619283864022474"><ele>179.0</ele><time>2026-03-22T15:28:32.777Z</time></trkpt><trkpt lat="42.534946545594416" lon="11.619519735729673"><ele>178.33333333333331</ele><time>2026-03-22T15:28:33.777Z</time></trkpt><trkpt lat="42.53499990797191" lon="11.619758480316001"><ele>177.66666666666666</ele><time>2026-03-22T15:28:34.777Z</time></trkpt><trkpt lat="42.53502736827771" lon="11.619998701507553"><ele>177.0</ele><time>2026-03-22T15:28:35.777Z</time></trkpt><trkpt lat="42.53506811313523" lon="11.62023902953625"><ele>177.66666666666666</ele><time>2026-03-22T15:28:36.777Z</time></trkpt><trkpt lat="42.53510860517202" lon="11.6204787926305"><ele>178.33333333333331</ele><time>2026-03-22T15:28:37.777Z</time></trkpt><trkpt lat="42.5351492765968" lon="11.620719617912002"><ele>179.0</ele><time>2026-03-22T15:28:38.777Z</time></trkpt><trkpt lat="42.535190581181396" lon="11.620964681601738"><ele>179.33333333333331</ele><time>2026-03-22T15:28:39.777Z</time></trkpt><trkpt lat="42.53524717140593" lon="11.62120787750046"><ele>179.66666666666666</ele><time>2026-03-22T15:28:40.777Z</time></trkpt><trkpt lat="42.53528757784397" lon="11.621458857669378"><ele>180.0</ele><time>2026-03-22T15:28:41.776Z</time></trkpt><trkpt lat="42.53532670017298" lon="11.621710879218957"><ele>180.0</ele><time>2026-03-22T15:28:42.776Z</time></trkpt><trkpt lat="42.53535912429452" lon="11.621968832601807"><ele>180.0</ele><time>2026-03-22T15:28:43.776Z</time></trkpt><trkpt lat="42.53541389686865" lon="11.622214356546726"><ele>180.0</ele><time>2026-03-22T15:28:44.776Z</time></trkpt><trkpt lat="42.53550057791734" lon="11.622438489387314"><ele>181.66666666666666</ele><time>2026-03-22T15:28:45.776Z</time></trkpt><trkpt lat="42.535586244124524" lon="11.622666797618301"><ele>183.33333333333331</ele><time>2026-03-22T15:28:46.776Z</time></trkpt><trkpt lat="42.53568609569388" lon="11.622884854633684"><ele>185.0</ele><time>2026-03-22T15:28:47.776Z</time></trkpt><trkpt lat="42.535786886216975" lon="11.623078725643293"><ele>185.33333333333331</ele><time>2026-03-22T15:28:48.776Z</time></trkpt><trkpt lat="42.53588695178075" lon="11.62326214947333"><ele>185.66666666666666</ele><time>2026-03-22T15:28:49.776Z</time></trkpt><trkpt lat="42.53598981551454" lon="11.62346066793831"><ele>186.0</ele><time>2026-03-22T15:28:50.776Z</time></trkpt><trkpt lat="42.53609713433619" lon="11.62366580100637"><ele>186.33333333333334</ele><time>2026-03-22T15:28:51.776Z</time></trkpt><trkpt lat="42.536206670561334" lon="11.6238725466812"><ele>186.66666666666669</ele><time>2026-03-22T15:28:52.776Z</time></trkpt><trkpt lat="42.536318988037436" lon="11.624086640561591"><ele>187.0</ele><time>2026-03-22T15:28:53.776Z</time></trkpt><trkpt lat="42.536420941799946" lon="11.62431245818184"><ele>187.0</ele><time>2026-03-22T15:28:54.776Z</time></trkpt><trkpt lat="42.53654346384281" lon="11.624515661414803"><ele>187.0</ele><time>2026-03-22T15:28:55.776Z</time></trkpt><trkpt lat="42.53665774252556" lon="11.624737088290196"><ele>187.0</ele><time>2026-03-22T15:28:56.776Z</time></trkpt><trkpt lat="42.53677378626715" lon="11.624963601403513"><ele>187.0</ele><time>2026-03-22T15:28:57.776Z</time></trkpt><trkpt lat="42.53689206055415" lon="11.625188484942834"><ele>187.0</ele><time>2026-03-22T15:28:58.776Z</time></trkpt><trkpt lat="42.537007508016366" lon="11.62542242955692"><ele>187.0</ele><time>2026-03-22T15:28:59.776Z</time></trkpt><trkpt lat="42.53712220390073" lon="11.625647256884506"><ele>187.33333333333334</ele><time>2026-03-22T15:29:00.775Z</time></trkpt><trkpt lat="42.53723297796941" lon="11.625888587982129"><ele>187.66666666666666</ele><time>2026-03-22T15:29:01.775Z</time></trkpt><trkpt lat="42.53735325096144" lon="11.6261250511104"><ele>188.0</ele><time>2026-03-22T15:29:02.775Z</time></trkpt><trkpt lat="42.537469221739855" lon="11.626353055788238"><ele>188.0</ele><time>2026-03-22T15:29:03.775Z</time></trkpt><trkpt lat="42.53759412308147" lon="11.626591803426471"><ele>188.0</ele><time>2026-03-22T15:29:04.775Z</time></trkpt><trkpt lat="42.53771314291855" lon="11.62682415782706"><ele>188.0</ele><time>2026-03-22T15:29:05.775Z</time></trkpt><trkpt lat="42.5378391042264" lon="11.627066683106172"><ele>188.66666666666666</ele><time>2026-03-22T15:29:06.775Z</time></trkpt><trkpt lat="42.537961606776776" lon="11.627306226445024"><ele>189.33333333333334</ele><time>2026-03-22T15:29:07.775Z</time></trkpt><trkpt lat="42.538083178094794" lon="11.62754394887859"><ele>190.0</ele><time>2026-03-22T15:29:08.775Z</time></trkpt><trkpt lat="42.53820637480182" lon="11.627783849053753"><ele>189.33333333333334</ele><time>2026-03-22T15:29:09.775Z</time></trkpt><trkpt lat="42.53832874939498" lon="11.628019247158957"><ele>188.66666666666666</ele><time>2026-03-22T15:29:10.775Z</time></trkpt><trkpt lat="42.53845769426197" lon="11.628267283862263"><ele>188.0</ele><time>2026-03-22T15:29:11.775Z</time></trkpt><trkpt lat="42.53858513002751" lon="11.628516135522515"><ele>189.0</ele><time>2026-03-22T15:29:12.775Z</time></trkpt><trkpt lat="42.538718111911024" lon="11.628775938211842"><ele>190.0</ele><time>2026-03-22T15:29:13.775Z</time></trkpt><trkpt lat="42.53884731657357" lon="11.629030109029772"><ele>190.0</ele><time>2026-03-22T15:29:14.775Z</time></trkpt><trkpt lat="42.538977131863625" lon="11.629285680476789"><ele>190.0</ele><time>2026-03-22T15:29:15.775Z</time></trkpt><trkpt lat="42.5391145311997" lon="11.629556182960041"><ele>190.0</ele><time>2026-03-22T15:29:16.775Z</time></trkpt><trkpt lat="42.53926082126256" lon="11.629844188845253"><ele>190.0</ele><time>2026-03-22T15:29:17.775Z</time></trkpt><trkpt lat="42.53940679063565" lon="11.630131563335343"><ele>191.5</ele><time>2026-03-22T15:29:18.775Z</time></trkpt><trkpt lat="42.53955812632671" lon="11.630422269727047"><ele>193.0</ele><time>2026-03-22T15:29:19.775Z</time></trkpt><trkpt lat="42.53970128010509" lon="11.630697221188992"><ele>193.0</ele><time>2026-03-22T15:29:20.774Z</time></trkpt><trkpt lat="42.5398296352332" lon="11.630947028031688"><ele>193.0</ele><time>2026-03-22T15:29:21.774Z</time></trkpt><trkpt lat="42.53997315534869" lon="11.631227805751772"><ele>194.0</ele><time>2026-03-22T15:29:22.774Z</time></trkpt><trkpt lat="42.54011763412522" lon="11.631510459103701"><ele>195.0</ele><time>2026-03-22T15:29:23.774Z</time></trkpt><trkpt lat="42.54025177632978" lon="11.631773044150261"><ele>195.66666666666669</ele><time>2026-03-22T15:29:24.774Z</time></trkpt><trkpt lat="42.540376836906155" lon="11.632019903191917"><ele>196.33333333333334</ele><time>2026-03-22T15:29:25.774Z</time></trkpt><trkpt lat="42.54050424321472" lon="11.632265676718525"><ele>197.0</ele><time>2026-03-22T15:29:26.774Z</time></trkpt><trkpt lat="42.54062569950215" lon="11.632504886771839"><ele>198.0</ele><time>2026-03-22T15:29:27.774Z</time></trkpt><trkpt lat="42.54075402267632" lon="11.632748555334855"><ele>199.0</ele><time>2026-03-22T15:29:28.774Z</time></trkpt><trkpt lat="42.54088748566787" lon="11.633004913811396"><ele>200.5</ele><time>2026-03-22T15:29:29.774Z</time></trkpt><trkpt lat="42.54102676831509" lon="11.633279181887694"><ele>202.0</ele><time>2026-03-22T15:29:30.774Z</time></trkpt><trkpt lat="42.54117462621783" lon="11.633574224023608"><ele>202.0</ele><time>2026-03-22T15:29:31.774Z</time></trkpt><trkpt lat="42.54132739388595" lon="11.633879056833859"><ele>202.0</ele><time>2026-03-22T15:29:32.774Z</time></trkpt><trkpt lat="42.54148358775625" lon="11.634183878313888"><ele>202.0</ele><time>2026-03-22T15:29:33.774Z</time></trkpt><trkpt lat="42.54167235576117" lon="11.634421906591925"><ele>202.0</ele><time>2026-03-22T15:29:34.774Z</time></trkpt><trkpt lat="42.5417949246064" lon="11.634681682879158"><ele>202.0</ele><time>2026-03-22T15:29:35.774Z</time></trkpt><trkpt lat="42.54190410320634" lon="11.634941613730483"><ele>202.0</ele><time>2026-03-22T15:29:36.774Z</time></trkpt><trkpt lat="42.54202780178914" lon="11.635182010082634"><ele>202.0</ele><time>2026-03-22T15:29:37.774Z</time></trkpt><trkpt lat="42.54215226495171" lon="11.63541772939218"><ele>203.66666666666666</ele><time>2026-03-22T15:29:38.774Z</time></trkpt><trkpt lat="42.54226371627047" lon="11.63565396225141"><ele>205.33333333333331</ele><time>2026-03-22T15:29:39.774Z</time></trkpt><trkpt lat="42.542355778278996" lon="11.635903068347305"><ele>207.0</ele><time>2026-03-22T15:29:40.773Z</time></trkpt><trkpt lat="42.54243886272876" lon="11.636158204527824"><ele>207.0</ele><time>2026-03-22T15:29:41.773Z</time></trkpt><trkpt lat="42.54249990443744" lon="11.63642916114845"><ele>207.0</ele><time>2026-03-22T15:29:42.773Z</time></trkpt><trkpt lat="42.54254875428963" lon="11.63671966536245"><ele>207.0</ele><time>2026-03-22T15:29:43.773Z</time></trkpt><trkpt lat="42.542581768710725" lon="11.63702815554586"><ele>206.5</ele><time>2026-03-22T15:29:44.773Z</time></trkpt><trkpt lat="42.54261854175529" lon="11.637349521181608"><ele>206.0</ele><time>2026-03-22T15:29:45.773Z</time></trkpt><trkpt lat="42.54265181979367" lon="11.63767934735542"><ele>206.0</ele><time>2026-03-22T15:29:46.773Z</time></trkpt><trkpt lat="42.5426870346545" lon="11.638002485216564"><ele>206.0</ele><time>2026-03-22T15:29:47.773Z</time></trkpt><trkpt lat="42.542726097038326" lon="11.638325028870895"><ele>205.5</ele><time>2026-03-22T15:29:48.773Z</time></trkpt><trkpt lat="42.5427639312123" lon="11.63865019379853"><ele>205.0</ele><time>2026-03-22T15:29:49.773Z</time></trkpt><trkpt lat="42.542801353896216" lon="11.638967741078314"><ele>205.0</ele><time>2026-03-22T15:29:50.773Z</time></trkpt><trkpt lat="42.54284235413509" lon="11.639272932519525"><ele>205.0</ele><time>2026-03-22T15:29:51.773Z</time></trkpt><trkpt lat="42.542881852249586" lon="11.639566778351215"><ele>205.0</ele><time>2026-03-22T15:29:52.773Z</time></trkpt><trkpt lat="42.542915437622234" lon="11.639867338922"><ele>204.5</ele><time>2026-03-22T15:29:53.773Z</time></trkpt><trkpt lat="42.54295211895738" lon="11.640174068827143"><ele>204.0</ele><time>2026-03-22T15:29:54.773Z</time></trkpt><trkpt lat="42.54298840372828" lon="11.640483387531635"><ele>204.0</ele><time>2026-03-22T15:29:55.775Z</time></trkpt><trkpt lat="42.54302811038473" lon="11.640794907842963"><ele>204.0</ele><time>2026-03-22T15:29:56.775Z</time></trkpt><trkpt lat="42.543064800328594" lon="11.641104802180624"><ele>204.0</ele><time>2026-03-22T15:29:57.775Z</time></trkpt><trkpt lat="42.54310232046657" lon="11.641418616364543"><ele>204.0</ele><time>2026-03-22T15:29:58.775Z</time></trkpt><trkpt lat="42.54314355003995" lon="11.641729297998635"><ele>207.0</ele><time>2026-03-22T15:29:59.775Z</time></trkpt><trkpt lat="42.543182860565786" lon="11.642038389688581"><ele>210.0</ele><time>2026-03-22T15:30:00.775Z</time></trkpt><trkpt lat="42.54322280644545" lon="11.642342191326184"><ele>210.0</ele><time>2026-03-22T15:30:01.774Z</time></trkpt><trkpt lat="42.543266578458464" lon="11.64264171401902"><ele>210.0</ele><time>2026-03-22T15:30:02.775Z</time></trkpt><trkpt lat="42.54330776928637" lon="11.642932432655195"><ele>210.0</ele><time>2026-03-22T15:30:03.775Z</time></trkpt><trkpt lat="42.54334903864263" lon="11.643228340975204"><ele>210.0</ele><time>2026-03-22T15:30:04.774Z</time></trkpt><trkpt lat="42.54338740511233" lon="11.643531090330065"><ele>210.0</ele><time>2026-03-22T15:30:05.775Z</time></trkpt><trkpt lat="42.54342054730719" lon="11.643828376578629"><ele>210.0</ele><time>2026-03-22T15:30:06.775Z</time></trkpt><trkpt lat="42.5434620685781" lon="11.644123804907423"><ele>210.0</ele><time>2026-03-22T15:30:07.774Z</time></trkpt><trkpt lat="42.543495289619585" lon="11.644416230560951"><ele>210.0</ele><time>2026-03-22T15:30:08.774Z</time></trkpt><trkpt lat="42.54352688901863" lon="11.64471155307045"><ele>210.0</ele><time>2026-03-22T15:30:09.774Z</time></trkpt><trkpt lat="42.54356391379566" lon="11.645006447190017"><ele>210.0</ele><time>2026-03-22T15:30:10.774Z</time></trkpt><trkpt lat="42.543607451068745" lon="11.645293924879454"><ele>210.0</ele><time>2026-03-22T15:30:11.774Z</time></trkpt><trkpt lat="42.54365149781822" lon="11.64559234435125"><ele>210.0</ele><time>2026-03-22T15:30:12.774Z</time></trkpt><trkpt lat="42.543695543759455" lon="11.645884522775113"><ele>211.0</ele><time>2026-03-22T15:30:13.774Z</time></trkpt><trkpt lat="42.54372596124589" lon="11.646180010432648"><ele>212.0</ele><time>2026-03-22T15:30:14.774Z</time></trkpt><trkpt lat="42.543761563310014" lon="11.64647427299062"><ele>213.0</ele><time>2026-03-22T15:30:15.774Z</time></trkpt><trkpt lat="42.5437922603729" lon="11.646768152700812"><ele>213.33333333333331</ele><time>2026-03-22T15:30:16.774Z</time></trkpt><trkpt lat="42.54383345533096" lon="11.647060833168322"><ele>213.66666666666666</ele><time>2026-03-22T15:30:17.774Z</time></trkpt><trkpt lat="42.54387099893398" lon="11.647352352375584"><ele>214.0</ele><time>2026-03-22T15:30:18.774Z</time></trkpt><trkpt lat="42.54390999528458" lon="11.647647320296297"><ele>215.0</ele><time>2026-03-22T15:30:19.774Z</time></trkpt><trkpt lat="42.54394861585973" lon="11.647944243978962"><ele>216.0</ele><time>2026-03-22T15:30:20.774Z</time></trkpt><trkpt lat="42.54398832276845" lon="11.648243173700964"><ele>217.0</ele><time>2026-03-22T15:30:21.774Z</time></trkpt><trkpt lat="42.54402761689251" lon="11.648542648458198"><ele>218.0</ele><time>2026-03-22T15:30:22.774Z</time></trkpt><trkpt lat="42.54406517490734" lon="11.648841786092422"><ele>219.0</ele><time>2026-03-22T15:30:23.773Z</time></trkpt><trkpt lat="42.54410481011398" lon="11.6491345577016"><ele>220.0</ele><time>2026-03-22T15:30:24.773Z</time></trkpt><trkpt lat="42.54414034993323" lon="11.649428681337689"><ele>221.33333333333331</ele><time>2026-03-22T15:30:25.773Z</time></trkpt><trkpt lat="42.544178541192835" lon="11.649719712567995"><ele>222.66666666666669</ele><time>2026-03-22T15:30:26.773Z</time></trkpt><trkpt lat="42.54421684646303" lon="11.650018701847978"><ele>224.0</ele><time>2026-03-22T15:30:27.773Z</time></trkpt><trkpt lat="42.54425455641079" lon="11.650312376256352"><ele>224.33333333333334</ele><time>2026-03-22T15:30:28.773Z</time></trkpt><trkpt lat="42.54428886242857" lon="11.650597003906116"><ele>224.66666666666669</ele><time>2026-03-22T15:30:29.773Z</time></trkpt><trkpt lat="42.544321292743625" lon="11.650854881947156"><ele>225.0</ele><time>2026-03-22T15:30:30.773Z</time></trkpt><trkpt lat="42.54436370621914" lon="11.651109594370167"><ele>225.0</ele><time>2026-03-22T15:30:31.773Z</time></trkpt><trkpt lat="42.5443978311726" lon="11.651339661814356"><ele>225.0</ele><time>2026-03-22T15:30:32.773Z</time></trkpt><trkpt lat="42.54441975673613" lon="11.65156279733355"><ele>225.0</ele><time>2026-03-22T15:30:33.773Z</time></trkpt><trkpt lat="42.54444480293479" lon="11.651777752547686"><ele>225.0</ele><time>2026-03-22T15:30:34.773Z</time></trkpt><trkpt lat="42.54445990321821" lon="11.651978266337482"><ele>225.0</ele><time>2026-03-22T15:30:35.773Z</time></trkpt><trkpt lat="42.54445777961114" lon="11.65213790664707"><ele>225.0</ele><time>2026-03-22T15:30:36.773Z</time></trkpt><trkpt lat="42.54443301587825" lon="11.652254686505072"><ele>225.0</ele><time>2026-03-22T15:30:37.773Z</time></trkpt><trkpt lat="42.544361656687485" lon="11.65235722877626"><ele>225.0</ele><time>2026-03-22T15:30:39.773Z</time></trkpt><trkpt lat="42.54433328974767" lon="11.65251063966501"><ele>225.0</ele><time>2026-03-22T15:30:41.773Z</time></trkpt><trkpt lat="42.54422541052783" lon="11.652550112618068"><ele>225.0</ele><time>2026-03-22T15:30:42.773Z</time></trkpt><trkpt lat="42.544145405256955" lon="11.652658641759073"><ele>225.0</ele><time>2026-03-22T15:30:43.772Z</time></trkpt><trkpt lat="42.54404824855793" lon="11.65280071918157"><ele>226.0</ele><time>2026-03-22T15:30:44.772Z</time></trkpt><trkpt lat="42.543947998668514" lon="11.652963265176009"><ele>227.0</ele><time>2026-03-22T15:30:45.772Z</time></trkpt><trkpt lat="42.54384675998997" lon="11.653161132849895"><ele>228.0</ele><time>2026-03-22T15:30:46.772Z</time></trkpt><trkpt lat="42.543765175874164" lon="11.653362521030882"><ele>228.66666666666669</ele><time>2026-03-22T15:30:47.772Z</time></trkpt><trkpt lat="42.54370676793625" lon="11.65358961303932"><ele>229.33333333333334</ele><time>2026-03-22T15:30:48.772Z</time></trkpt><trkpt lat="42.54365169995266" lon="11.653832185974498"><ele>230.0</ele><time>2026-03-22T15:30:49.772Z</time></trkpt><trkpt lat="42.543601932962346" lon="11.65408548594427"><ele>230.0</ele><time>2026-03-22T15:30:50.772Z</time></trkpt><trkpt lat="42.543553150946785" lon="11.654339614988894"><ele>230.0</ele><time>2026-03-22T15:30:51.772Z</time></trkpt><trkpt lat="42.543507677791794" lon="11.65457859970714"><ele>230.0</ele><time>2026-03-22T15:30:52.772Z</time></trkpt><trkpt lat="42.54346507911798" lon="11.654802843685768"><ele>231.66666666666669</ele><time>2026-03-22T15:30:53.772Z</time></trkpt><trkpt lat="42.54343244257492" lon="11.655015037964041"><ele>233.33333333333331</ele><time>2026-03-22T15:30:54.772Z</time></trkpt><trkpt lat="42.54342154654594" lon="11.655231151350891"><ele>235.0</ele><time>2026-03-22T15:30:55.772Z</time></trkpt><trkpt lat="42.543454426837265" lon="11.655428568470873"><ele>236.33333333333331</ele><time>2026-03-22T15:30:56.772Z</time></trkpt><trkpt lat="42.54349173033463" lon="11.655618733530716"><ele>237.66666666666669</ele><time>2026-03-22T15:30:57.772Z</time></trkpt><trkpt lat="42.54356246960859" lon="11.655813974775754"><ele>239.0</ele><time>2026-03-22T15:30:58.772Z</time></trkpt><trkpt lat="42.54364269151601" lon="11.656019460553765"><ele>239.66666666666669</ele><time>2026-03-22T15:30:59.772Z</time></trkpt><trkpt lat="42.54373453474432" lon="11.656235090059258"><ele>240.33333333333331</ele><time>2026-03-22T15:31:00.772Z</time></trkpt><trkpt lat="42.54383944080763" lon="11.656457457626077"><ele>241.0</ele><time>2026-03-22T15:31:01.772Z</time></trkpt><trkpt lat="42.5439321106926" lon="11.656717242155135"><ele>240.33333333333331</ele><time>2026-03-22T15:31:02.772Z</time></trkpt><trkpt lat="42.544038639706976" lon="11.656970447563582"><ele>239.66666666666669</ele><time>2026-03-22T15:31:03.771Z</time></trkpt><trkpt lat="42.54414384894384" lon="11.65722269451248"><ele>239.0</ele><time>2026-03-22T15:31:04.771Z</time></trkpt><trkpt lat="42.54424683601183" lon="11.657468510839761"><ele>239.0</ele><time>2026-03-22T15:31:05.771Z</time></trkpt><trkpt lat="42.544352948716906" lon="11.65772178803678"><ele>239.0</ele><time>2026-03-22T15:31:06.771Z</time></trkpt><trkpt lat="42.54445881255945" lon="11.65797447089611"><ele>239.0</ele><time>2026-03-22T15:31:07.771Z</time></trkpt><trkpt lat="42.544565154174265" lon="11.658224422440515"><ele>240.33333333333334</ele><time>2026-03-22T15:31:08.771Z</time></trkpt><trkpt lat="42.544670961448425" lon="11.65847185890755"><ele>241.66666666666669</ele><time>2026-03-22T15:31:09.771Z</time></trkpt><trkpt lat="42.54479163792503" lon="11.65871300493562"><ele>243.0</ele><time>2026-03-22T15:31:10.771Z</time></trkpt><trkpt lat="42.544892294223025" lon="11.658957167822939"><ele>243.33333333333331</ele><time>2026-03-22T15:31:11.771Z</time></trkpt><trkpt lat="42.54498831528766" lon="11.659181758287035"><ele>243.66666666666666</ele><time>2026-03-22T15:31:12.771Z</time></trkpt><trkpt lat="42.545068485869955" lon="11.659411569639111"><ele>244.0</ele><time>2026-03-22T15:31:13.771Z</time></trkpt><trkpt lat="42.54516713423195" lon="11.659644951127472"><ele>244.0</ele><time>2026-03-22T15:31:14.771Z</time></trkpt><trkpt lat="42.54526039789296" lon="11.659865593403465"><ele>244.0</ele><time>2026-03-22T15:31:15.771Z</time></trkpt><trkpt lat="42.54536081465816" lon="11.660103158645667"><ele>244.0</ele><time>2026-03-22T15:31:16.771Z</time></trkpt><trkpt lat="42.5454587102839" lon="11.660336133548254"><ele>246.33333333333331</ele><time>2026-03-22T15:31:17.771Z</time></trkpt><trkpt lat="42.545561442453376" lon="11.66058097278532"><ele>248.66666666666669</ele><time>2026-03-22T15:31:18.771Z</time></trkpt><trkpt lat="42.54565887437363" lon="11.660819674026559"><ele>251.0</ele><time>2026-03-22T15:31:19.771Z</time></trkpt><trkpt lat="42.54575360868297" lon="11.661051766402641"><ele>249.66666666666669</ele><time>2026-03-22T15:31:20.771Z</time></trkpt><trkpt lat="42.54584122716866" lon="11.661266425500038"><ele>248.33333333333331</ele><time>2026-03-22T15:31:21.771Z</time></trkpt><trkpt lat="42.54591542082981" lon="11.661469353910464"><ele>247.0</ele><time>2026-03-22T15:31:22.771Z</time></trkpt><trkpt lat="42.5459658024294" lon="11.66167658237896"><ele>247.0</ele><time>2026-03-22T15:31:23.77Z</time></trkpt><trkpt lat="42.545981777616966" lon="11.661878124975226"><ele>247.0</ele><time>2026-03-22T15:31:24.77Z</time></trkpt><trkpt lat="42.54597147304745" lon="11.662088396332837"><ele>247.0</ele><time>2026-03-22T15:31:25.77Z</time></trkpt><trkpt lat="42.54595071958354" lon="11.66231820638565"><ele>246.66666666666666</ele><time>2026-03-22T15:31:26.77Z</time></trkpt><trkpt lat="42.545926910498274" lon="11.662555919105403"><ele>246.33333333333331</ele><time>2026-03-22T15:31:27.77Z</time></trkpt><trkpt lat="42.545909553046094" lon="11.662801666408901"><ele>246.0</ele><time>2026-03-22T15:31:28.77Z</time></trkpt><trkpt lat="42.54591166013237" lon="11.663052901004773"><ele>246.66666666666669</ele><time>2026-03-22T15:31:29.77Z</time></trkpt><trkpt lat="42.545941209507745" lon="11.663297519839432"><ele>247.33333333333334</ele><time>2026-03-22T15:31:30.77Z</time></trkpt><trkpt lat="42.54597063687189" lon="11.663550595504221"><ele>248.0</ele><time>2026-03-22T15:31:31.77Z</time></trkpt><trkpt lat="42.54600847000414" lon="11.663788032870388"><ele>248.0</ele><time>2026-03-22T15:31:32.77Z</time></trkpt><trkpt lat="42.546048948305234" lon="11.664011014956785"><ele>248.0</ele><time>2026-03-22T15:31:33.77Z</time></trkpt><trkpt lat="42.54606580140317" lon="11.66422700717765"><ele>248.0</ele><time>2026-03-22T15:31:34.77Z</time></trkpt><trkpt lat="42.54609446663816" lon="11.66443149840159"><ele>246.75</ele><time>2026-03-22T15:31:35.77Z</time></trkpt><trkpt lat="42.546120215501" lon="11.664629889914533"><ele>245.5</ele><time>2026-03-22T15:31:36.77Z</time></trkpt><trkpt lat="42.5461302770604" lon="11.664822702684338"><ele>244.25</ele><time>2026-03-22T15:31:37.77Z</time></trkpt><trkpt lat="42.546119070589796" lon="11.66500686835669"><ele>243.0</ele><time>2026-03-22T15:31:38.77Z</time></trkpt><trkpt lat="42.54609062654391" lon="11.665188097585993"><ele>243.75</ele><time>2026-03-22T15:31:39.77Z</time></trkpt><trkpt lat="42.546055598192986" lon="11.665370454369926"><ele>244.5</ele><time>2026-03-22T15:31:40.77Z</time></trkpt><trkpt lat="42.54602762517354" lon="11.665547945817233"><ele>245.25</ele><time>2026-03-22T15:31:41.77Z</time></trkpt><trkpt lat="42.54599211954688" lon="11.665738802992829"><ele>246.0</ele><time>2026-03-22T15:31:42.77Z</time></trkpt><trkpt lat="42.54595377955026" lon="11.665923862799156"><ele>246.0</ele><time>2026-03-22T15:31:43.769Z</time></trkpt><trkpt lat="42.54591869395588" lon="11.666102966367713"><ele>246.0</ele><time>2026-03-22T15:31:44.769Z</time></trkpt><trkpt lat="42.54587151057342" lon="11.666260573776748"><ele>246.0</ele><time>2026-03-22T15:31:45.769Z</time></trkpt><trkpt lat="42.54583608104918" lon="11.666431340277468"><ele>246.0</ele><time>2026-03-22T15:31:46.769Z</time></trkpt><trkpt lat="42.545798236763005" lon="11.66661374564655"><ele>246.75</ele><time>2026-03-22T15:31:47.769Z</time></trkpt><trkpt lat="42.545776170168836" lon="11.666804787544098"><ele>247.5</ele><time>2026-03-22T15:31:48.769Z</time></trkpt><trkpt lat="42.54574550776962" lon="11.666999985609284"><ele>248.25</ele><time>2026-03-22T15:31:49.769Z</time></trkpt><trkpt lat="42.54570913693384" lon="11.667210231191609"><ele>249.0</ele><time>2026-03-22T15:31:50.769Z</time></trkpt><trkpt lat="42.54569633304719" lon="11.667459995063155"><ele>249.33333333333331</ele><time>2026-03-22T15:31:51.769Z</time></trkpt><trkpt lat="42.545698028810854" lon="11.667745464744753"><ele>249.66666666666666</ele><time>2026-03-22T15:31:52.769Z</time></trkpt><trkpt lat="42.54567861752288" lon="11.668067730856583"><ele>250.0</ele><time>2026-03-22T15:31:53.769Z</time></trkpt><trkpt lat="42.54564397327025" lon="11.668409690544438"><ele>248.0</ele><time>2026-03-22T15:31:54.769Z</time></trkpt><trkpt lat="42.545625301257616" lon="11.668755240815452"><ele>246.0</ele><time>2026-03-22T15:31:55.769Z</time></trkpt><trkpt lat="42.545607307744184" lon="11.669079368572545"><ele>246.0</ele><time>2026-03-22T15:31:56.769Z</time></trkpt><trkpt lat="42.54558957604985" lon="11.669396275545415"><ele>246.0</ele><time>2026-03-22T15:31:57.769Z</time></trkpt><trkpt lat="42.545572624789294" lon="11.669682997666113"><ele>246.0</ele><time>2026-03-22T15:31:58.769Z</time></trkpt><trkpt lat="42.54555232610259" lon="11.669940870063584"><ele>247.66666666666669</ele><time>2026-03-22T15:31:59.769Z</time></trkpt><trkpt lat="42.54550778591147" lon="11.670175360631664"><ele>249.33333333333334</ele><time>2026-03-22T15:32:00.769Z</time></trkpt><trkpt lat="42.545428534351835" lon="11.670390240409805"><ele>251.0</ele><time>2026-03-22T15:32:01.771Z</time></trkpt><trkpt lat="42.54532519673454" lon="11.670554093623387"><ele>251.0</ele><time>2026-03-22T15:32:02.771Z</time></trkpt><trkpt lat="42.545212792040445" lon="11.670715252393077"><ele>251.0</ele><time>2026-03-22T15:32:03.771Z</time></trkpt><trkpt lat="42.545081240288674" lon="11.670895985024785"><ele>251.0</ele><time>2026-03-22T15:32:04.771Z</time></trkpt><trkpt lat="42.5449393464134" lon="11.671085670566871"><ele>251.66666666666669</ele><time>2026-03-22T15:32:05.771Z</time></trkpt><trkpt lat="42.54479552787957" lon="11.671279686637435"><ele>252.33333333333331</ele><time>2026-03-22T15:32:06.771Z</time></trkpt><trkpt lat="42.544645851091786" lon="11.671481605552692"><ele>253.0</ele><time>2026-03-22T15:32:07.771Z</time></trkpt><trkpt lat="42.54449216008764" lon="11.67168893985488"><ele>253.66666666666666</ele><time>2026-03-22T15:32:08.771Z</time></trkpt><trkpt lat="42.544334318255714" lon="11.671898659964773"><ele>254.33333333333331</ele><time>2026-03-22T15:32:09.771Z</time></trkpt><trkpt lat="42.54418208919727" lon="11.672102812962478"><ele>255.0</ele><time>2026-03-22T15:32:10.771Z</time></trkpt><trkpt lat="42.54403890014844" lon="11.672295263558267"><ele>256.6666666666667</ele><time>2026-03-22T15:32:11.771Z</time></trkpt><trkpt lat="42.54391576574614" lon="11.672460760072397"><ele>258.33333333333337</ele><time>2026-03-22T15:32:12.771Z</time></trkpt><trkpt lat="42.5437969353963" lon="11.67262047182595"><ele>260.0</ele><time>2026-03-22T15:32:13.771Z</time></trkpt><trkpt lat="42.54367902782729" lon="11.67277875243358"><ele>260.0</ele><time>2026-03-22T15:32:14.77Z</time></trkpt><trkpt lat="42.54356630512016" lon="11.672928932060064"><ele>260.0</ele><time>2026-03-22T15:32:15.77Z</time></trkpt><trkpt lat="42.54345737777872" lon="11.6730772400382"><ele>260.0</ele><time>2026-03-22T15:32:16.77Z</time></trkpt><trkpt lat="42.54335567442438" lon="11.673235040851907"><ele>260.0</ele><time>2026-03-22T15:32:17.77Z</time></trkpt><trkpt lat="42.54327446825391" lon="11.673410051708112"><ele>260.0</ele><time>2026-03-22T15:32:18.77Z</time></trkpt><trkpt lat="42.543220670547434" lon="11.673605407267774"><ele>260.0</ele><time>2026-03-22T15:32:19.77Z</time></trkpt><trkpt lat="42.543200526009834" lon="11.673821852687523"><ele>259.0</ele><time>2026-03-22T15:32:20.77Z</time></trkpt><trkpt lat="42.543196183577656" lon="11.674045184340216"><ele>258.0</ele><time>2026-03-22T15:32:21.77Z</time></trkpt><trkpt lat="42.54319531446131" lon="11.674276022283587"><ele>257.0</ele><time>2026-03-22T15:32:22.77Z</time></trkpt><trkpt lat="42.543195246613365" lon="11.6745309579525"><ele>256.6666666666667</ele><time>2026-03-22T15:32:23.77Z</time></trkpt><trkpt lat="42.54319524661404" lon="11.674800073437904"><ele>256.3333333333333</ele><time>2026-03-22T15:32:24.77Z</time></trkpt><trkpt lat="42.5431952466138" lon="11.675082470086041"><ele>256.0</ele><time>2026-03-22T15:32:25.77Z</time></trkpt><trkpt lat="42.54319524661345" lon="11.675379268574167"><ele>255.33333333333331</ele><time>2026-03-22T15:32:26.77Z</time></trkpt><trkpt lat="42.54319500263886" lon="11.675678158954911"><ele>254.66666666666669</ele><time>2026-03-22T15:32:27.77Z</time></trkpt><trkpt lat="42.54319459892856" lon="11.67597762959519"><ele>254.0</ele><time>2026-03-22T15:32:28.77Z</time></trkpt><trkpt lat="42.54319408583262" lon="11.676276744476283"><ele>256.0</ele><time>2026-03-22T15:32:29.77Z</time></trkpt><trkpt lat="42.54319284192421" lon="11.67656926938961"><ele>258.0</ele><time>2026-03-22T15:32:30.77Z</time></trkpt><trkpt lat="42.54319162309857" lon="11.676855895762461"><ele>260.0</ele><time>2026-03-22T15:32:31.77Z</time></trkpt><trkpt lat="42.54319166881723" lon="11.677135924352635"><ele>260.6666666666667</ele><time>2026-03-22T15:32:32.77Z</time></trkpt><trkpt lat="42.543192246583565" lon="11.677397773516663"><ele>261.3333333333333</ele><time>2026-03-22T15:32:33.769Z</time></trkpt><trkpt lat="42.54319166066536" lon="11.677662607741714"><ele>262.0</ele><time>2026-03-22T15:32:34.769Z</time></trkpt><trkpt lat="42.54320033794124" lon="11.677926279046671"><ele>260.3333333333333</ele><time>2026-03-22T15:32:35.769Z</time></trkpt><trkpt lat="42.54318893365083" lon="11.678184209104721"><ele>258.6666666666667</ele><time>2026-03-22T15:32:36.769Z</time></trkpt><trkpt lat="42.54316196517747" lon="11.678435759654773"><ele>257.0</ele><time>2026-03-22T15:32:37.769Z</time></trkpt><trkpt lat="42.54313126007754" lon="11.678684446340243"><ele>256.0</ele><time>2026-03-22T15:32:38.769Z</time></trkpt><trkpt lat="42.54310296113371" lon="11.678936366202592"><ele>255.0</ele><time>2026-03-22T15:32:39.769Z</time></trkpt><trkpt lat="42.543080985307654" lon="11.679198940680145"><ele>254.0</ele><time>2026-03-22T15:32:40.769Z</time></trkpt><trkpt lat="42.5430647240388" lon="11.679474760673507"><ele>254.0</ele><time>2026-03-22T15:32:41.769Z</time></trkpt><trkpt lat="42.54305190529436" lon="11.67973866701157"><ele>254.0</ele><time>2026-03-22T15:32:42.769Z</time></trkpt><trkpt lat="42.5430415130275" lon="11.6799970361331"><ele>254.0</ele><time>2026-03-22T15:32:43.769Z</time></trkpt><trkpt lat="42.5430398599949" lon="11.680250730106065"><ele>251.0</ele><time>2026-03-22T15:32:44.769Z</time></trkpt><trkpt lat="42.543065901451506" lon="11.680499311502025"><ele>248.0</ele><time>2026-03-22T15:32:45.769Z</time></trkpt><trkpt lat="42.54312258910898" lon="11.680746943505099"><ele>245.0</ele><time>2026-03-22T15:32:46.769Z</time></trkpt><trkpt lat="42.543187138763045" lon="11.68099394676832"><ele>240.33333333333334</ele><time>2026-03-22T15:32:47.769Z</time></trkpt><trkpt lat="42.54325592237035" lon="11.681240546963828"><ele>235.66666666666669</ele><time>2026-03-22T15:32:48.769Z</time></trkpt><trkpt lat="42.54332761105128" lon="11.681496051035488"><ele>231.0</ele><time>2026-03-22T15:32:49.769Z</time></trkpt><trkpt lat="42.54339978524961" lon="11.68174975082639"><ele>226.33333333333331</ele><time>2026-03-22T15:32:50.769Z</time></trkpt><trkpt lat="42.54348028309573" lon="11.682032709232729"><ele>221.66666666666666</ele><time>2026-03-22T15:32:51.769Z</time></trkpt><trkpt lat="42.54356004676922" lon="11.682313086791652"><ele>217.0</ele><time>2026-03-22T15:32:52.769Z</time></trkpt><trkpt lat="42.54363103410696" lon="11.682572692352739"><ele>216.66666666666666</ele><time>2026-03-22T15:32:53.768Z</time></trkpt><trkpt lat="42.54370000058626" lon="11.682825029157943"><ele>216.33333333333331</ele><time>2026-03-22T15:32:54.768Z</time></trkpt><trkpt lat="42.54375999998071" lon="11.683058191668696"><ele>216.0</ele><time>2026-03-22T15:32:55.768Z</time></trkpt><trkpt lat="42.543801857068026" lon="11.683251540126161"><ele>220.5</ele><time>2026-03-22T15:32:56.768Z</time></trkpt><trkpt lat="42.543819209501535" lon="11.683410355607418"><ele>225.0</ele><time>2026-03-22T15:32:57.768Z</time></trkpt><trkpt lat="42.54381929708464" lon="11.68357284617615"><ele>229.5</ele><time>2026-03-22T15:32:58.768Z</time></trkpt><trkpt lat="42.543803397045046" lon="11.683728167360918"><ele>234.0</ele><time>2026-03-22T15:32:59.768Z</time></trkpt><trkpt lat="42.54378120613479" lon="11.683877896018497"><ele>234.0</ele><time>2026-03-22T15:33:00.768Z</time></trkpt><trkpt lat="42.54375354676115" lon="11.684034197230257"><ele>234.0</ele><time>2026-03-22T15:33:01.768Z</time></trkpt><trkpt lat="42.54371930230918" lon="11.6842106105313"><ele>234.0</ele><time>2026-03-22T15:33:02.768Z</time></trkpt><trkpt lat="42.54368101075721" lon="11.684405487207597"><ele>234.0</ele><time>2026-03-22T15:33:03.768Z</time></trkpt><trkpt lat="42.54364193692112" lon="11.684604345150744"><ele>231.33333333333331</ele><time>2026-03-22T15:33:04.768Z</time></trkpt><trkpt lat="42.54360109428267" lon="11.684813348383805"><ele>228.66666666666666</ele><time>2026-03-22T15:33:05.768Z</time></trkpt><trkpt lat="42.54356011118198" lon="11.685025612879148"><ele>226.0</ele><time>2026-03-22T15:33:06.768Z</time></trkpt><trkpt lat="42.54351760041588" lon="11.685245789558927"><ele>226.66666666666666</ele><time>2026-03-22T15:33:07.768Z</time></trkpt><trkpt lat="42.543473252079544" lon="11.685475760347453"><ele>227.33333333333331</ele><time>2026-03-22T15:33:08.768Z</time></trkpt><trkpt lat="42.5434303181726" lon="11.685700066775732"><ele>228.0</ele><time>2026-03-22T15:33:09.768Z</time></trkpt><trkpt lat="42.543385907995386" lon="11.685932085931771"><ele>229.0</ele><time>2026-03-22T15:33:10.768Z</time></trkpt><trkpt lat="42.54334072794774" lon="11.686168127265312"><ele>230.0</ele><time>2026-03-22T15:33:11.768Z</time></trkpt><trkpt lat="42.54329630457662" lon="11.686400215421925"><ele>231.0</ele><time>2026-03-22T15:33:12.768Z</time></trkpt><trkpt lat="42.54325067347682" lon="11.686634826562832"><ele>231.0</ele><time>2026-03-22T15:33:13.767Z</time></trkpt><trkpt lat="42.543205499349945" lon="11.686864027091797"><ele>231.0</ele><time>2026-03-22T15:33:14.767Z</time></trkpt><trkpt lat="42.54316226783272" lon="11.687083436180323"><ele>231.0</ele><time>2026-03-22T15:33:15.767Z</time></trkpt><trkpt lat="42.54311901722782" lon="11.687305882482978"><ele>230.66666666666669</ele><time>2026-03-22T15:33:16.767Z</time></trkpt><trkpt lat="42.54307590564074" lon="11.68752761377249"><ele>230.33333333333334</ele><time>2026-03-22T15:33:17.767Z</time></trkpt><trkpt lat="42.543034752707634" lon="11.68773927136533"><ele>230.0</ele><time>2026-03-22T15:33:18.767Z</time></trkpt><trkpt lat="42.54299363701161" lon="11.687951076415162"><ele>227.66666666666669</ele><time>2026-03-22T15:33:19.767Z</time></trkpt><trkpt lat="42.54296351641381" lon="11.688172453680295"><ele>225.33333333333331</ele><time>2026-03-22T15:33:20.767Z</time></trkpt><trkpt lat="42.54297201063951" lon="11.688391570992616"><ele>223.0</ele><time>2026-03-22T15:33:21.767Z</time></trkpt><trkpt lat="42.54302516539039" lon="11.68859689286707"><ele>218.66666666666666</ele><time>2026-03-22T15:33:22.767Z</time></trkpt><trkpt lat="42.543113183624925" lon="11.688768332219624"><ele>214.33333333333331</ele><time>2026-03-22T15:33:23.767Z</time></trkpt><trkpt lat="42.54322756746976" lon="11.688893104690703"><ele>210.0</ele><time>2026-03-22T15:33:24.767Z</time></trkpt><trkpt lat="42.54335268177208" lon="11.689009755413577"><ele>210.0</ele><time>2026-03-22T15:33:25.767Z</time></trkpt><trkpt lat="42.5435005767542" lon="11.689115048590603"><ele>210.0</ele><time>2026-03-22T15:33:26.767Z</time></trkpt><trkpt lat="42.54366509817377" lon="11.689229888168514"><ele>210.0</ele><time>2026-03-22T15:33:27.767Z</time></trkpt><trkpt lat="42.54383364126933" lon="11.689358940561586"><ele>211.0</ele><time>2026-03-22T15:33:28.767Z</time></trkpt><trkpt lat="42.5440110097967" lon="11.689499725546426"><ele>212.0</ele><time>2026-03-22T15:33:29.767Z</time></trkpt><trkpt lat="42.54418522063688" lon="11.68962635429693"><ele>213.0</ele><time>2026-03-22T15:33:30.767Z</time></trkpt><trkpt lat="42.54434885996855" lon="11.689752016436938"><ele>213.0</ele><time>2026-03-22T15:33:31.767Z</time></trkpt><trkpt lat="42.54449732980937" lon="11.689875949299845"><ele>213.0</ele><time>2026-03-22T15:33:32.767Z</time></trkpt><trkpt lat="42.5446155882717" lon="11.69001332110985"><ele>213.0</ele><time>2026-03-22T15:33:33.766Z</time></trkpt><trkpt lat="42.54470727871143" lon="11.690167316350971"><ele>212.5</ele><time>2026-03-22T15:33:34.766Z</time></trkpt><trkpt lat="42.544739956844445" lon="11.6903577927129"><ele>212.0</ele><time>2026-03-22T15:33:35.766Z</time></trkpt><trkpt lat="42.54477119296055" lon="11.6905394919933"><ele>211.5</ele><time>2026-03-22T15:33:36.766Z</time></trkpt><trkpt lat="42.544801749369654" lon="11.690729369045624"><ele>211.0</ele><time>2026-03-22T15:33:37.766Z</time></trkpt><trkpt lat="42.544848237668766" lon="11.690920539070783"><ele>211.0</ele><time>2026-03-22T15:33:38.766Z</time></trkpt><trkpt lat="42.54493146265207" lon="11.691085649681996"><ele>211.0</ele><time>2026-03-22T15:33:39.766Z</time></trkpt><trkpt lat="42.54502563094878" lon="11.691238213446809"><ele>211.0</ele><time>2026-03-22T15:33:40.766Z</time></trkpt><trkpt lat="42.54515019483169" lon="11.69136337929233"><ele>211.0</ele><time>2026-03-22T15:33:41.766Z</time></trkpt><trkpt lat="42.54530168427995" lon="11.69146556949207"><ele>209.66666666666666</ele><time>2026-03-22T15:33:42.766Z</time></trkpt><trkpt lat="42.54546459502816" lon="11.691563476463946"><ele>208.33333333333331</ele><time>2026-03-22T15:33:43.766Z</time></trkpt><trkpt lat="42.54562996849533" lon="11.691678562679332"><ele>207.0</ele><time>2026-03-22T15:33:44.766Z</time></trkpt><trkpt lat="42.54580842087607" lon="11.691797349360321"><ele>206.33333333333331</ele><time>2026-03-22T15:33:45.766Z</time></trkpt><trkpt lat="42.54600221356318" lon="11.69192440837831"><ele>205.66666666666666</ele><time>2026-03-22T15:33:46.766Z</time></trkpt><trkpt lat="42.546188842158465" lon="11.692047724307763"><ele>205.0</ele><time>2026-03-22T15:33:47.766Z</time></trkpt><trkpt lat="42.54637182975797" lon="11.692169358007119"><ele>206.33333333333331</ele><time>2026-03-22T15:33:48.766Z</time></trkpt><trkpt lat="42.54656279089096" lon="11.69230372950781"><ele>207.66666666666669</ele><time>2026-03-22T15:33:49.766Z</time></trkpt><trkpt lat="42.54674950033694" lon="11.692435431477403"><ele>209.0</ele><time>2026-03-22T15:33:50.766Z</time></trkpt><trkpt lat="42.54693086108974" lon="11.692566296832318"><ele>211.0</ele><time>2026-03-22T15:33:51.766Z</time></trkpt><trkpt lat="42.54710928678528" lon="11.692692509998547"><ele>213.0</ele><time>2026-03-22T15:33:52.766Z</time></trkpt><trkpt lat="42.547275180601744" lon="11.692811067614054"><ele>215.0</ele><time>2026-03-22T15:33:53.765Z</time></trkpt><trkpt lat="42.547431249322045" lon="11.692927241536875"><ele>215.0</ele><time>2026-03-22T15:33:54.765Z</time></trkpt><trkpt lat="42.547580060326396" lon="11.69303582847918"><ele>215.0</ele><time>2026-03-22T15:33:55.765Z</time></trkpt><trkpt lat="42.5477121981537" lon="11.693160766678625"><ele>215.0</ele><time>2026-03-22T15:33:56.765Z</time></trkpt><trkpt lat="42.54783090489871" lon="11.6933105194012"><ele>215.0</ele><time>2026-03-22T15:33:57.765Z</time></trkpt><trkpt lat="42.54793493369847" lon="11.693479420789112"><ele>215.0</ele><time>2026-03-22T15:33:58.765Z</time></trkpt><trkpt lat="42.54803409487428" lon="11.693664301699467"><ele>215.0</ele><time>2026-03-22T15:33:59.765Z</time></trkpt><trkpt lat="42.54813506288989" lon="11.69385365224635"><ele>215.0</ele><time>2026-03-22T15:34:00.765Z</time></trkpt><trkpt lat="42.548235856370596" lon="11.694041537931662"><ele>215.0</ele><time>2026-03-22T15:34:01.765Z</time></trkpt><trkpt lat="42.54833201726195" lon="11.694214996301028"><ele>215.0</ele><time>2026-03-22T15:34:02.765Z</time></trkpt><trkpt lat="42.54842893645874" lon="11.694379310568278"><ele>214.0</ele><time>2026-03-22T15:34:03.765Z</time></trkpt><trkpt lat="42.54849591750228" lon="11.694550726271991"><ele>213.0</ele><time>2026-03-22T15:34:04.765Z</time></trkpt><trkpt lat="42.548532017312624" lon="11.694717006129189"><ele>212.0</ele><time>2026-03-22T15:34:05.765Z</time></trkpt><trkpt lat="42.54854395079627" lon="11.694887505342395"><ele>211.0</ele><time>2026-03-22T15:34:06.768Z</time></trkpt><trkpt lat="42.5485297247814" lon="11.695054978857028"><ele>211.0</ele><time>2026-03-22T15:34:07.768Z</time></trkpt><trkpt lat="42.54848952914563" lon="11.695214466229327"><ele>211.0</ele><time>2026-03-22T15:34:08.768Z</time></trkpt><trkpt lat="42.548449717512895" lon="11.695405708434496"><ele>211.0</ele><time>2026-03-22T15:34:09.768Z</time></trkpt><trkpt lat="42.548384801082726" lon="11.6955886928067"><ele>211.0</ele><time>2026-03-22T15:34:10.767Z</time></trkpt><trkpt lat="42.54833169607" lon="11.695797774893155"><ele>212.0</ele><time>2026-03-22T15:34:11.767Z</time></trkpt><trkpt lat="42.54827630364318" lon="11.696017999737746"><ele>213.0</ele><time>2026-03-22T15:34:12.767Z</time></trkpt><trkpt lat="42.54821947293117" lon="11.69624394278562"><ele>214.0</ele><time>2026-03-22T15:34:13.767Z</time></trkpt><trkpt lat="42.548160226708006" lon="11.696479488981918"><ele>215.66666666666666</ele><time>2026-03-22T15:34:14.767Z</time></trkpt><trkpt lat="42.54810425086487" lon="11.696701622653263"><ele>217.33333333333331</ele><time>2026-03-22T15:34:15.767Z</time></trkpt><trkpt lat="42.54805019110707" lon="11.696915825910619"><ele>219.0</ele><time>2026-03-22T15:34:16.767Z</time></trkpt><trkpt lat="42.54799900991915" lon="11.697118627251688"><ele>224.33333333333331</ele><time>2026-03-22T15:34:17.767Z</time></trkpt><trkpt lat="42.54795364674337" lon="11.697324678107051"><ele>229.66666666666666</ele><time>2026-03-22T15:34:18.767Z</time></trkpt><trkpt lat="42.547913635930676" lon="11.697531454260316"><ele>235.0</ele><time>2026-03-22T15:34:19.767Z</time></trkpt><trkpt lat="42.54788116604078" lon="11.697741524190615"><ele>232.66666666666666</ele><time>2026-03-22T15:34:20.766Z</time></trkpt><trkpt lat="42.54785951467784" lon="11.697952535910835"><ele>230.33333333333331</ele><time>2026-03-22T15:34:21.766Z</time></trkpt><trkpt lat="42.54785107757824" lon="11.698167387633335"><ele>228.0</ele><time>2026-03-22T15:34:22.766Z</time></trkpt><trkpt lat="42.5478600573712" lon="11.698355512633551"><ele>228.0</ele><time>2026-03-22T15:34:23.766Z</time></trkpt><trkpt lat="42.54786234654636" lon="11.698536885736456"><ele>228.0</ele><time>2026-03-22T15:34:24.766Z</time></trkpt><trkpt lat="42.54785279262231" lon="11.698698120047588"><ele>228.0</ele><time>2026-03-22T15:34:25.766Z</time></trkpt><trkpt lat="42.54782421098004" lon="11.698841770725915"><ele>228.0</ele><time>2026-03-22T15:34:26.766Z</time></trkpt><trkpt lat="42.547782270312446" lon="11.698961636508052"><ele>229.60000000000002</ele><time>2026-03-22T15:34:27.766Z</time></trkpt><trkpt lat="42.54772433722258" lon="11.699075725058423"><ele>231.20000000000002</ele><time>2026-03-22T15:34:28.766Z</time></trkpt><trkpt lat="42.547659049335515" lon="11.699186574625076"><ele>232.8</ele><time>2026-03-22T15:34:29.766Z</time></trkpt><trkpt lat="42.54759112154039" lon="11.699301068717952"><ele>234.4</ele><time>2026-03-22T15:34:30.766Z</time></trkpt><trkpt lat="42.54752238941821" lon="11.699447086087448"><ele>236.0</ele><time>2026-03-22T15:34:31.766Z</time></trkpt><trkpt lat="42.547467881154006" lon="11.699607532658863"><ele>238.0</ele><time>2026-03-22T15:34:32.766Z</time></trkpt><trkpt lat="42.54743789891722" lon="11.699783455331936"><ele>240.0</ele><time>2026-03-22T15:34:33.766Z</time></trkpt><trkpt lat="42.54743788207864" lon="11.699979057563219"><ele>242.0</ele><time>2026-03-22T15:34:34.766Z</time></trkpt><trkpt lat="42.54745432780784" lon="11.70018284774339"><ele>244.0</ele><time>2026-03-22T15:34:35.766Z</time></trkpt><trkpt lat="42.54747660907752" lon="11.700391233548904"><ele>244.0</ele><time>2026-03-22T15:34:36.766Z</time></trkpt><trkpt lat="42.5474997985518" lon="11.700609399444778"><ele>244.0</ele><time>2026-03-22T15:34:37.766Z</time></trkpt><trkpt lat="42.54752563889094" lon="11.700846946988667"><ele>244.0</ele><time>2026-03-22T15:34:38.766Z</time></trkpt><trkpt lat="42.54755250363176" lon="11.701093911497376"><ele>244.0</ele><time>2026-03-22T15:34:39.765Z</time></trkpt><trkpt lat="42.5475800004739" lon="11.701353103471298"><ele>244.0</ele><time>2026-03-22T15:34:40.765Z</time></trkpt><trkpt lat="42.547607651556" lon="11.701615405080092"><ele>244.0</ele><time>2026-03-22T15:34:41.765Z</time></trkpt><trkpt lat="42.54763577165046" lon="11.701882155816573"><ele>244.66666666666666</ele><time>2026-03-22T15:34:42.765Z</time></trkpt><trkpt lat="42.54766443211641" lon="11.70215403255352"><ele>245.33333333333331</ele><time>2026-03-22T15:34:43.765Z</time></trkpt><trkpt lat="42.547692175877046" lon="11.702423504061741"><ele>246.0</ele><time>2026-03-22T15:34:44.765Z</time></trkpt><trkpt lat="42.54771933151929" lon="11.702688743658117"><ele>246.33333333333331</ele><time>2026-03-22T15:34:45.765Z</time></trkpt><trkpt lat="42.5477460832208" lon="11.702950037716365"><ele>246.66666666666666</ele><time>2026-03-22T15:34:46.765Z</time></trkpt><trkpt lat="42.54777185993705" lon="11.703197469495315"><ele>247.0</ele><time>2026-03-22T15:34:47.765Z</time></trkpt><trkpt lat="42.54781172262369" lon="11.703424225655331"><ele>247.0</ele><time>2026-03-22T15:34:48.765Z</time></trkpt><trkpt lat="42.54783201807643" lon="11.70364844097824"><ele>247.0</ele><time>2026-03-22T15:34:49.765Z</time></trkpt><trkpt lat="42.54785788447549" lon="11.703872498844683"><ele>247.0</ele><time>2026-03-22T15:34:50.765Z</time></trkpt><trkpt lat="42.54789429455057" lon="11.704096693453298"><ele>249.66666666666666</ele><time>2026-03-22T15:34:51.765Z</time></trkpt><trkpt lat="42.5479487490598" lon="11.704319621561176"><ele>252.33333333333331</ele><time>2026-03-22T15:34:52.765Z</time></trkpt><trkpt lat="42.54801553784881" lon="11.704543695619067"><ele>255.0</ele><time>2026-03-22T15:34:53.765Z</time></trkpt><trkpt lat="42.54809137825259" lon="11.704773128180657"><ele>255.0</ele><time>2026-03-22T15:34:54.765Z</time></trkpt><trkpt lat="42.548174837070775" lon="11.705005969128548"><ele>255.0</ele><time>2026-03-22T15:34:55.765Z</time></trkpt><trkpt lat="42.54825534871982" lon="11.705221258879407"><ele>255.0</ele><time>2026-03-22T15:34:56.765Z</time></trkpt><trkpt lat="42.548316744348114" lon="11.705435231195954"><ele>255.33333333333331</ele><time>2026-03-22T15:34:57.765Z</time></trkpt><trkpt lat="42.54838591991885" lon="11.70564092475712"><ele>255.66666666666666</ele><time>2026-03-22T15:34:58.765Z</time></trkpt><trkpt lat="42.548440163598855" lon="11.705856646038155"><ele>256.0</ele><time>2026-03-22T15:34:59.764Z</time></trkpt><trkpt lat="42.548480651892774" lon="11.706088590076781"><ele>256.0</ele><time>2026-03-22T15:35:00.764Z</time></trkpt><trkpt lat="42.548521309560925" lon="11.706337013227598"><ele>256.0</ele><time>2026-03-22T15:35:01.764Z</time></trkpt><trkpt lat="42.548561896614" lon="11.706590288040948"><ele>256.0</ele><time>2026-03-22T15:35:02.764Z</time></trkpt><trkpt lat="42.54860364836759" lon="11.706851972180143"><ele>258.0</ele><time>2026-03-22T15:35:03.764Z</time></trkpt><trkpt lat="42.54864661660363" lon="11.707113851861596"><ele>260.0</ele><time>2026-03-22T15:35:04.764Z</time></trkpt><trkpt lat="42.54869056949534" lon="11.707377604521938"><ele>262.0</ele><time>2026-03-22T15:35:05.764Z</time></trkpt><trkpt lat="42.54873119295383" lon="11.707621378302195"><ele>263.3333333333333</ele><time>2026-03-22T15:35:06.764Z</time></trkpt><trkpt lat="42.54876941680869" lon="11.707850878939214"><ele>264.6666666666667</ele><time>2026-03-22T15:35:07.764Z</time></trkpt><trkpt lat="42.54880528787175" lon="11.708066289610777"><ele>266.0</ele><time>2026-03-22T15:35:08.764Z</time></trkpt><trkpt lat="42.54883991028922" lon="11.708274202243771"><ele>266.0</ele><time>2026-03-22T15:35:09.764Z</time></trkpt><trkpt lat="42.54887253813486" lon="11.708473579169944"><ele>266.0</ele><time>2026-03-22T15:35:10.764Z</time></trkpt><trkpt lat="42.5489048678871" lon="11.70867476680239"><ele>266.0</ele><time>2026-03-22T15:35:11.764Z</time></trkpt><trkpt lat="42.548935605340574" lon="11.708865743201784"><ele>266.0</ele><time>2026-03-22T15:35:12.764Z</time></trkpt><trkpt lat="42.54898069939305" lon="11.709041416254188"><ele>266.0</ele><time>2026-03-22T15:35:13.764Z</time></trkpt><trkpt lat="42.54900657069157" lon="11.709216936925559"><ele>266.0</ele><time>2026-03-22T15:35:14.764Z</time></trkpt><trkpt lat="42.54903339176697" lon="11.709382567854611"><ele>266.0</ele><time>2026-03-22T15:35:15.764Z</time></trkpt><trkpt lat="42.54904572107655" lon="11.709546003947734"><ele>266.0</ele><time>2026-03-22T15:35:16.764Z</time></trkpt><trkpt lat="42.54907069672296" lon="11.709697332059182"><ele>266.0</ele><time>2026-03-22T15:35:17.764Z</time></trkpt><trkpt lat="42.54909817420067" lon="11.709862068898564"><ele>266.0</ele><time>2026-03-22T15:35:18.764Z</time></trkpt><trkpt lat="42.549130825605275" lon="11.710057825271322"><ele>266.0</ele><time>2026-03-22T15:35:19.763Z</time></trkpt><trkpt lat="42.549168617588" lon="11.710284275191428"><ele>266.0</ele><time>2026-03-22T15:35:20.763Z</time></trkpt><trkpt lat="42.549256595212334" lon="11.71051743262917"><ele>267.33333333333337</ele><time>2026-03-22T15:35:21.763Z</time></trkpt><trkpt lat="42.549287869955144" lon="11.710770356350093"><ele>268.6666666666667</ele><time>2026-03-22T15:35:22.763Z</time></trkpt><trkpt lat="42.549318747966474" lon="11.711009011494319"><ele>270.0</ele><time>2026-03-22T15:35:23.763Z</time></trkpt><trkpt lat="42.549346706078246" lon="11.711222947446457"><ele>272.0</ele><time>2026-03-22T15:35:24.763Z</time></trkpt><trkpt lat="42.54934327460993" lon="11.711440890111358"><ele>274.0</ele><time>2026-03-22T15:35:25.763Z</time></trkpt><trkpt lat="42.549335576009675" lon="11.711641019341783"><ele>276.0</ele><time>2026-03-22T15:35:26.763Z</time></trkpt><trkpt lat="42.549290594914716" lon="11.711825487893785"><ele>274.6666666666667</ele><time>2026-03-22T15:35:27.763Z</time></trkpt><trkpt lat="42.54921281107431" lon="11.71199632404748"><ele>273.33333333333337</ele><time>2026-03-22T15:35:28.763Z</time></trkpt><trkpt lat="42.54911290807657" lon="11.712163518916109"><ele>272.0</ele><time>2026-03-22T15:35:29.763Z</time></trkpt><trkpt lat="42.54898376505733" lon="11.712363903936149"><ele>272.0</ele><time>2026-03-22T15:35:30.763Z</time></trkpt><trkpt lat="42.54883648399211" lon="11.712594581465073"><ele>272.0</ele><time>2026-03-22T15:35:31.763Z</time></trkpt><trkpt lat="42.54866725891279" lon="11.712843099601601"><ele>276.0</ele><time>2026-03-22T15:35:32.763Z</time></trkpt><trkpt lat="42.54847357535132" lon="11.713113057541479"><ele>280.0</ele><time>2026-03-22T15:35:33.763Z</time></trkpt><trkpt lat="42.548285048092076" lon="11.713403957361876"><ele>280.0</ele><time>2026-03-22T15:35:34.763Z</time></trkpt><trkpt lat="42.548208210946356" lon="11.71360264647702"><ele>280.0</ele><time>2026-03-22T15:35:36.763Z</time></trkpt><trkpt lat="42.54808068795165" lon="11.713806418330519"><ele>280.0</ele><time>2026-03-22T15:35:37.763Z</time></trkpt><trkpt lat="42.54796663702572" lon="11.713988181534893"><ele>282.3333333333333</ele><time>2026-03-22T15:35:38.763Z</time></trkpt><trkpt lat="42.54785919243561" lon="11.714156362384486"><ele>284.6666666666667</ele><time>2026-03-22T15:35:39.762Z</time></trkpt><trkpt lat="42.54775406858685" lon="11.714307004267532"><ele>287.0</ele><time>2026-03-22T15:35:40.762Z</time></trkpt><trkpt lat="42.54763694189322" lon="11.714427740302847"><ele>287.0</ele><time>2026-03-22T15:35:41.762Z</time></trkpt><trkpt lat="42.54750082207025" lon="11.714524897341654"><ele>287.0</ele><time>2026-03-22T15:35:42.762Z</time></trkpt><trkpt lat="42.54733876810325" lon="11.714616834260074"><ele>287.0</ele><time>2026-03-22T15:35:43.762Z</time></trkpt><trkpt lat="42.54715577656137" lon="11.714719215445985"><ele>287.0</ele><time>2026-03-22T15:35:44.762Z</time></trkpt><trkpt lat="42.5469680237284" lon="11.714824260523384"><ele>287.0</ele><time>2026-03-22T15:35:45.762Z</time></trkpt><trkpt lat="42.54678318578504" lon="11.714927552726111"><ele>287.0</ele><time>2026-03-22T15:35:46.762Z</time></trkpt><trkpt lat="42.54660359991866" lon="11.715026603217645"><ele>287.0</ele><time>2026-03-22T15:35:47.762Z</time></trkpt><trkpt lat="42.54644023040033" lon="11.715118917425851"><ele>287.0</ele><time>2026-03-22T15:35:48.762Z</time></trkpt><trkpt lat="42.54629549645514" lon="11.715210589033354"><ele>287.0</ele><time>2026-03-22T15:35:49.762Z</time></trkpt><trkpt lat="42.54616628511457" lon="11.715327803779456"><ele>289.0</ele><time>2026-03-22T15:35:50.762Z</time></trkpt><trkpt lat="42.54607881926915" lon="11.715487198486352"><ele>291.0</ele><time>2026-03-22T15:35:51.762Z</time></trkpt><trkpt lat="42.546003011536015" lon="11.715634650349514"><ele>293.0</ele><time>2026-03-22T15:35:52.762Z</time></trkpt><trkpt lat="42.54595372666519" lon="11.715808249441437"><ele>295.0</ele><time>2026-03-22T15:35:53.762Z</time></trkpt><trkpt lat="42.54593079110092" lon="11.715996728468763"><ele>298.0</ele><time>2026-03-22T15:35:54.762Z</time></trkpt><trkpt lat="42.545922292305036" lon="11.716217061427619"><ele>301.0</ele><time>2026-03-22T15:35:55.762Z</time></trkpt><trkpt lat="42.545913160468274" lon="11.716453513489611"><ele>304.0</ele><time>2026-03-22T15:35:56.762Z</time></trkpt><trkpt lat="42.545882206820394" lon="11.716698406181958"><ele>305.66666666666663</ele><time>2026-03-22T15:35:57.762Z</time></trkpt><trkpt lat="42.545863408927666" lon="11.717009062307838"><ele>307.3333333333333</ele><time>2026-03-22T15:35:58.762Z</time></trkpt><trkpt lat="42.54581749271566" lon="11.717263301672173"><ele>309.0</ele><time>2026-03-22T15:35:59.761Z</time></trkpt><trkpt lat="42.545769358737324" lon="11.717501416398777"><ele>310.0</ele><time>2026-03-22T15:36:00.761Z</time></trkpt><trkpt lat="42.545708930365954" lon="11.717744768122095"><ele>311.0</ele><time>2026-03-22T15:36:01.761Z</time></trkpt><trkpt lat="42.54564435176502" lon="11.717981539893893"><ele>312.0</ele><time>2026-03-22T15:36:02.761Z</time></trkpt><trkpt lat="42.54558098795586" lon="11.718202174353415"><ele>312.0</ele><time>2026-03-22T15:36:03.761Z</time></trkpt><trkpt lat="42.54555264130518" lon="11.718423084253413"><ele>312.0</ele><time>2026-03-22T15:36:04.761Z</time></trkpt><trkpt lat="42.545518070048246" lon="11.718644132365728"><ele>312.0</ele><time>2026-03-22T15:36:05.761Z</time></trkpt><trkpt lat="42.54550708048347" lon="11.718884570424853"><ele>315.0</ele><time>2026-03-22T15:36:06.761Z</time></trkpt><trkpt lat="42.545500496386495" lon="11.719131828735382"><ele>318.0</ele><time>2026-03-22T15:36:07.761Z</time></trkpt><trkpt lat="42.54550362716156" lon="11.719377142451265"><ele>321.0</ele><time>2026-03-22T15:36:08.761Z</time></trkpt><trkpt lat="42.545508986856795" lon="11.719616042396177"><ele>322.25</ele><time>2026-03-22T15:36:09.761Z</time></trkpt><trkpt lat="42.545520577256426" lon="11.719832886504484"><ele>323.5</ele><time>2026-03-22T15:36:10.761Z</time></trkpt><trkpt lat="42.54553398800562" lon="11.720025779334138"><ele>324.75</ele><time>2026-03-22T15:36:11.761Z</time></trkpt><trkpt lat="42.545553500486704" lon="11.720207043706315"><ele>326.0</ele><time>2026-03-22T15:36:12.764Z</time></trkpt><trkpt lat="42.54557867525574" lon="11.720374633536132"><ele>326.75</ele><time>2026-03-22T15:36:13.764Z</time></trkpt><trkpt lat="42.545609016316455" lon="11.72052894814735"><ele>327.5</ele><time>2026-03-22T15:36:14.764Z</time></trkpt><trkpt lat="42.54563705385481" lon="11.720691007368654"><ele>328.25</ele><time>2026-03-22T15:36:15.763Z</time></trkpt><trkpt lat="42.545676565599166" lon="11.720848619882487"><ele>329.0</ele><time>2026-03-22T15:36:16.763Z</time></trkpt><trkpt lat="42.5457357013463" lon="11.720993818015572"><ele>329.5</ele><time>2026-03-22T15:36:17.763Z</time></trkpt><trkpt lat="42.54580583835053" lon="11.721121423025801"><ele>330.0</ele><time>2026-03-22T15:36:18.764Z</time></trkpt><trkpt lat="42.545879938342004" lon="11.721258805141687"><ele>330.5</ele><time>2026-03-22T15:36:19.763Z</time></trkpt><trkpt lat="42.5459566932576" lon="11.721369572685136"><ele>331.0</ele><time>2026-03-22T15:36:20.763Z</time></trkpt><trkpt lat="42.5460168701593" lon="11.721492670975449"><ele>331.0</ele><time>2026-03-22T15:36:21.763Z</time></trkpt><trkpt lat="42.54608116129796" lon="11.721612209596787"><ele>331.0</ele><time>2026-03-22T15:36:22.763Z</time></trkpt><trkpt lat="42.5461500381386" lon="11.721721640641688"><ele>331.0</ele><time>2026-03-22T15:36:23.763Z</time></trkpt><trkpt lat="42.54621517626603" lon="11.72183118328603"><ele>331.0</ele><time>2026-03-22T15:36:24.763Z</time></trkpt><trkpt lat="42.54627961877299" lon="11.721943184152822"><ele>331.0</ele><time>2026-03-22T15:36:25.763Z</time></trkpt><trkpt lat="42.54635614567161" lon="11.722054942800085"><ele>332.6</ele><time>2026-03-22T15:36:26.763Z</time></trkpt><trkpt lat="42.54642139177597" lon="11.722164941673185"><ele>334.20000000000005</ele><time>2026-03-22T15:36:27.763Z</time></trkpt><trkpt lat="42.546480999950504" lon="11.722276628182069"><ele>335.79999999999995</ele><time>2026-03-22T15:36:28.763Z</time></trkpt><trkpt lat="42.54654354947029" lon="11.722379677605671"><ele>337.4</ele><time>2026-03-22T15:36:29.763Z</time></trkpt><trkpt lat="42.54658913918013" lon="11.722488216292813"><ele>339.0</ele><time>2026-03-22T15:36:30.763Z</time></trkpt><trkpt lat="42.54660765195205" lon="11.722613769016101"><ele>339.4</ele><time>2026-03-22T15:36:31.763Z</time></trkpt><trkpt lat="42.54660991906123" lon="11.722736331621364"><ele>339.79999999999995</ele><time>2026-03-22T15:36:32.763Z</time></trkpt><trkpt lat="42.54660730858912" lon="11.722863631377276"><ele>340.20000000000005</ele><time>2026-03-22T15:36:33.763Z</time></trkpt><trkpt lat="42.546608436454925" lon="11.72300389776556"><ele>340.6</ele><time>2026-03-22T15:36:34.763Z</time></trkpt><trkpt lat="42.54661032923797" lon="11.723147449732597"><ele>341.0</ele><time>2026-03-22T15:36:35.763Z</time></trkpt><trkpt lat="42.54661222943196" lon="11.723291563472731"><ele>341.0</ele><time>2026-03-22T15:36:36.763Z</time></trkpt><trkpt lat="42.54661418758564" lon="11.72344007321711"><ele>341.0</ele><time>2026-03-22T15:36:37.763Z</time></trkpt><trkpt lat="42.54661618817039" lon="11.723591800859513"><ele>341.0</ele><time>2026-03-22T15:36:38.763Z</time></trkpt><trkpt lat="42.54661812858443" lon="11.72373896493798"><ele>341.0</ele><time>2026-03-22T15:36:39.763Z</time></trkpt><trkpt lat="42.54662030293556" lon="11.723903871841431"><ele>341.25</ele><time>2026-03-22T15:36:40.763Z</time></trkpt><trkpt lat="42.546622472707156" lon="11.724068431958303"><ele>341.5</ele><time>2026-03-22T15:36:41.763Z</time></trkpt><trkpt lat="42.54662428406007" lon="11.724229354792625"><ele>341.75</ele><time>2026-03-22T15:36:42.763Z</time></trkpt><trkpt lat="42.546627815847046" lon="11.72439302461487"><ele>342.0</ele><time>2026-03-22T15:36:43.762Z</time></trkpt><trkpt lat="42.54663258143556" lon="11.724550085710577"><ele>342.5</ele><time>2026-03-22T15:36:44.762Z</time></trkpt><trkpt lat="42.54664246139592" lon="11.7247030158662"><ele>343.0</ele><time>2026-03-22T15:36:45.762Z</time></trkpt><trkpt lat="42.54666741713233" lon="11.72485927074143"><ele>343.5</ele><time>2026-03-22T15:36:46.762Z</time></trkpt><trkpt lat="42.54669833419636" lon="11.725020096418449"><ele>344.0</ele><time>2026-03-22T15:36:47.762Z</time></trkpt><trkpt lat="42.546785988463064" lon="11.725169103713974"><ele>344.5</ele><time>2026-03-22T15:36:48.762Z</time></trkpt><trkpt lat="42.546836234560544" lon="11.725346687837263"><ele>345.0</ele><time>2026-03-22T15:36:49.762Z</time></trkpt><trkpt lat="42.54690210777603" lon="11.725521951587318"><ele>345.5</ele><time>2026-03-22T15:36:50.762Z</time></trkpt><trkpt lat="42.54696968712302" lon="11.725703445686184"><ele>346.0</ele><time>2026-03-22T15:36:51.762Z</time></trkpt><trkpt lat="42.547035824452294" lon="11.725882253338444"><ele>346.5</ele><time>2026-03-22T15:36:52.762Z</time></trkpt><trkpt lat="42.54710308643014" lon="11.726054424113476"><ele>347.0</ele><time>2026-03-22T15:36:53.762Z</time></trkpt><trkpt lat="42.54719833653412" lon="11.726201364474676"><ele>347.5</ele><time>2026-03-22T15:36:54.762Z</time></trkpt><trkpt lat="42.54728673520308" lon="11.72634979434314"><ele>348.0</ele><time>2026-03-22T15:36:55.762Z</time></trkpt><trkpt lat="42.54739378823525" lon="11.726485351955974"><ele>348.75</ele><time>2026-03-22T15:36:56.762Z</time></trkpt><trkpt lat="42.54750258714808" lon="11.726614711755973"><ele>349.5</ele><time>2026-03-22T15:36:57.762Z</time></trkpt><trkpt lat="42.547596991615684" lon="11.726736294157433"><ele>350.25</ele><time>2026-03-22T15:36:58.762Z</time></trkpt><trkpt lat="42.54768778920726" lon="11.726845986798185"><ele>351.0</ele><time>2026-03-22T15:36:59.762Z</time></trkpt><trkpt lat="42.54777581469979" lon="11.726953017235338"><ele>351.4</ele><time>2026-03-22T15:37:00.762Z</time></trkpt><trkpt lat="42.547858629093426" lon="11.727055041203927"><ele>351.8</ele><time>2026-03-22T15:37:01.762Z</time></trkpt><trkpt lat="42.54794082388047" lon="11.727158786502693"><ele>352.2</ele><time>2026-03-22T15:37:02.762Z</time></trkpt><trkpt lat="42.548023619681196" lon="11.727259634054239"><ele>352.59999999999997</ele><time>2026-03-22T15:37:03.761Z</time></trkpt><trkpt lat="42.548105731335795" lon="11.727365733548874"><ele>353.0</ele><time>2026-03-22T15:37:04.761Z</time></trkpt><trkpt lat="42.548190173945194" lon="11.727471578103007"><ele>353.75</ele><time>2026-03-22T15:37:05.761Z</time></trkpt><trkpt lat="42.548278832987755" lon="11.727578633797215"><ele>354.5</ele><time>2026-03-22T15:37:06.761Z</time></trkpt><trkpt lat="42.548366350270335" lon="11.727693611331718"><ele>355.25</ele><time>2026-03-22T15:37:07.761Z</time></trkpt><trkpt lat="42.54845561158711" lon="11.727813489695393"><ele>356.0</ele><time>2026-03-22T15:37:08.761Z</time></trkpt><trkpt lat="42.54854659499653" lon="11.727934086265254"><ele>356.25</ele><time>2026-03-22T15:37:09.761Z</time></trkpt><trkpt lat="42.54864115445937" lon="11.72805015689054"><ele>356.5</ele><time>2026-03-22T15:37:10.761Z</time></trkpt><trkpt lat="42.548742397108164" lon="11.728166699743168"><ele>356.75</ele><time>2026-03-22T15:37:11.761Z</time></trkpt><trkpt lat="42.54885036889163" lon="11.728284630879983"><ele>357.0</ele><time>2026-03-22T15:37:12.761Z</time></trkpt><trkpt lat="42.5489498916483" lon="11.728414055619895"><ele>358.0</ele><time>2026-03-22T15:37:13.761Z</time></trkpt><trkpt lat="42.54905056126748" lon="11.728559624328996"><ele>359.0</ele><time>2026-03-22T15:37:14.761Z</time></trkpt><trkpt lat="42.54913602546115" lon="11.728710694293255"><ele>360.0</ele><time>2026-03-22T15:37:15.761Z</time></trkpt><trkpt lat="42.54920261245112" lon="11.72889034099097"><ele>361.0</ele><time>2026-03-22T15:37:16.761Z</time></trkpt><trkpt lat="42.549260305186856" lon="11.729075183963793"><ele>361.0</ele><time>2026-03-22T15:37:17.761Z</time></trkpt><trkpt lat="42.54931851106221" lon="11.729268570897682"><ele>361.0</ele><time>2026-03-22T15:37:18.761Z</time></trkpt><trkpt lat="42.54937664675345" lon="11.729468405643868"><ele>361.0</ele><time>2026-03-22T15:37:19.761Z</time></trkpt><trkpt lat="42.54943344829123" lon="11.729665465249287"><ele>361.25</ele><time>2026-03-22T15:37:20.761Z</time></trkpt><trkpt lat="42.54948811564414" lon="11.729854312562937"><ele>361.5</ele><time>2026-03-22T15:37:21.761Z</time></trkpt><trkpt lat="42.549558480223475" lon="11.730032927776433"><ele>361.75</ele><time>2026-03-22T15:37:22.761Z</time></trkpt><trkpt lat="42.549597361985434" lon="11.730225966137645"><ele>362.0</ele><time>2026-03-22T15:37:23.76Z</time></trkpt><trkpt lat="42.54965233968235" lon="11.730413000288616"><ele>362.5</ele><time>2026-03-22T15:37:24.76Z</time></trkpt><trkpt lat="42.549730485328595" lon="11.730583116852888"><ele>363.0</ele><time>2026-03-22T15:37:25.76Z</time></trkpt><trkpt lat="42.54980862105582" lon="11.73074534733467"><ele>363.5</ele><time>2026-03-22T15:37:26.76Z</time></trkpt><trkpt lat="42.54990583286501" lon="11.73087970679203"><ele>364.0</ele><time>2026-03-22T15:37:27.76Z</time></trkpt><trkpt lat="42.550016275353414" lon="11.730984971769194"><ele>364.75</ele><time>2026-03-22T15:37:28.76Z</time></trkpt><trkpt lat="42.550141518521094" lon="11.731058262277138"><ele>365.5</ele><time>2026-03-22T15:37:29.76Z</time></trkpt><trkpt lat="42.55027215161969" lon="11.731108137014942"><ele>366.25</ele><time>2026-03-22T15:37:30.76Z</time></trkpt><trkpt lat="42.55040448221079" lon="11.731164395073604"><ele>367.0</ele><time>2026-03-22T15:37:31.76Z</time></trkpt><trkpt lat="42.55051845697138" lon="11.731220415210602"><ele>367.6</ele><time>2026-03-22T15:37:32.76Z</time></trkpt><trkpt lat="42.55061120953044" lon="11.73127429232853"><ele>368.20000000000005</ele><time>2026-03-22T15:37:33.76Z</time></trkpt><trkpt lat="42.550688084462685" lon="11.731325579875389"><ele>368.8</ele><time>2026-03-22T15:37:34.76Z</time></trkpt><trkpt lat="42.55075977847983" lon="11.731398254229916"><ele>369.4</ele><time>2026-03-22T15:37:35.76Z</time></trkpt><trkpt lat="42.55082704689453" lon="11.731499738950108"><ele>370.0</ele><time>2026-03-22T15:37:36.76Z</time></trkpt><trkpt lat="42.550850664994286" lon="11.731644737971962"><ele>370.0</ele><time>2026-03-22T15:37:37.76Z</time></trkpt><trkpt lat="42.55087203711046" lon="11.731800519496602"><ele>370.0</ele><time>2026-03-22T15:37:38.76Z</time></trkpt><trkpt lat="42.55089210951737" lon="11.73198650489192"><ele>370.0</ele><time>2026-03-22T15:37:39.76Z</time></trkpt><trkpt lat="42.5509264826377" lon="11.732170099768865"><ele>370.0</ele><time>2026-03-22T15:37:40.76Z</time></trkpt><trkpt lat="42.5509265331117" lon="11.73236746221769"><ele>370.25</ele><time>2026-03-22T15:37:41.76Z</time></trkpt><trkpt lat="42.55094150589248" lon="11.732562902839703"><ele>370.5</ele><time>2026-03-22T15:37:42.76Z</time></trkpt><trkpt lat="42.550959471262246" lon="11.732760178069226"><ele>370.75</ele><time>2026-03-22T15:37:43.759Z</time></trkpt><trkpt lat="42.55097550048448" lon="11.732958900109624"><ele>371.0</ele><time>2026-03-22T15:37:44.759Z</time></trkpt><trkpt lat="42.55099083324062" lon="11.733157939727327"><ele>371.5</ele><time>2026-03-22T15:37:45.759Z</time></trkpt><trkpt lat="42.55100578566021" lon="11.733352042084922"><ele>372.0</ele><time>2026-03-22T15:37:46.759Z</time></trkpt><trkpt lat="42.55101952064238" lon="11.733532992425038"><ele>372.5</ele><time>2026-03-22T15:37:47.759Z</time></trkpt><trkpt lat="42.55103249537752" lon="11.733704867720947"><ele>373.0</ele><time>2026-03-22T15:37:48.759Z</time></trkpt><trkpt lat="42.55104435711981" lon="11.733861999112209"><ele>374.75</ele><time>2026-03-22T15:37:49.759Z</time></trkpt><trkpt lat="42.551055949710694" lon="11.734015562816358"><ele>376.5</ele><time>2026-03-22T15:37:50.759Z</time></trkpt><trkpt lat="42.551067350558384" lon="11.734170350376216"><ele>378.25</ele><time>2026-03-22T15:37:51.759Z</time></trkpt><trkpt lat="42.551077780226244" lon="11.734310775032933"><ele>380.0</ele><time>2026-03-22T15:37:52.759Z</time></trkpt><trkpt lat="42.55108958493681" lon="11.734469713329096"><ele>380.25</ele><time>2026-03-22T15:37:53.759Z</time></trkpt><trkpt lat="42.55110152943958" lon="11.734630533652673"><ele>380.5</ele><time>2026-03-22T15:37:54.759Z</time></trkpt><trkpt lat="42.551112966097186" lon="11.73478451653721"><ele>380.75</ele><time>2026-03-22T15:37:55.759Z</time></trkpt><trkpt lat="42.55112509006791" lon="11.734947753183564"><ele>381.0</ele><time>2026-03-22T15:37:56.759Z</time></trkpt><trkpt lat="42.55113647115022" lon="11.73510256663769"><ele>381.5</ele><time>2026-03-22T15:37:57.759Z</time></trkpt><trkpt lat="42.55114809962285" lon="11.735261632783134"><ele>382.0</ele><time>2026-03-22T15:37:58.759Z</time></trkpt><trkpt lat="42.55115976317122" lon="11.735421178422348"><ele>382.5</ele><time>2026-03-22T15:37:59.759Z</time></trkpt><trkpt lat="42.55117130291182" lon="11.735579772527727"><ele>383.0</ele><time>2026-03-22T15:38:00.759Z</time></trkpt><trkpt lat="42.55118260812388" lon="11.735739415026647"><ele>383.0</ele><time>2026-03-22T15:38:01.759Z</time></trkpt><trkpt lat="42.55119370152217" lon="11.73589606654148"><ele>383.0</ele><time>2026-03-22T15:38:02.759Z</time></trkpt><trkpt lat="42.551204767999685" lon="11.736052337872962"><ele>383.0</ele><time>2026-03-22T15:38:03.758Z</time></trkpt><trkpt lat="42.5512161518026" lon="11.736214014243917"><ele>383.0</ele><time>2026-03-22T15:38:04.758Z</time></trkpt><trkpt lat="42.55122702393177" lon="11.736376408083844"><ele>383.75</ele><time>2026-03-22T15:38:05.758Z</time></trkpt><trkpt lat="42.55123833924465" lon="11.736537364404397"><ele>384.5</ele><time>2026-03-22T15:38:06.758Z</time></trkpt><trkpt lat="42.55124858820264" lon="11.736696221218894"><ele>385.25</ele><time>2026-03-22T15:38:07.758Z</time></trkpt><trkpt lat="42.55125944020874" lon="11.736859362202406"><ele>386.0</ele><time>2026-03-22T15:38:08.758Z</time></trkpt><trkpt lat="42.55127183540963" lon="11.737021680349416"><ele>386.25</ele><time>2026-03-22T15:38:09.758Z</time></trkpt><trkpt lat="42.55128489314343" lon="11.737183979639735"><ele>386.5</ele><time>2026-03-22T15:38:10.758Z</time></trkpt><trkpt lat="42.551297721584206" lon="11.737341400728377"><ele>386.75</ele><time>2026-03-22T15:38:11.758Z</time></trkpt><trkpt lat="42.55131061376135" lon="11.7374996039794"><ele>387.0</ele><time>2026-03-22T15:38:12.758Z</time></trkpt><trkpt lat="42.55132372513177" lon="11.737660496987735"><ele>387.5</ele><time>2026-03-22T15:38:13.758Z</time></trkpt><trkpt lat="42.55133659303959" lon="11.737818402412946"><ele>388.0</ele><time>2026-03-22T15:38:14.758Z</time></trkpt><trkpt lat="42.551349895967704" lon="11.737981646052049"><ele>388.5</ele><time>2026-03-22T15:38:15.758Z</time></trkpt><trkpt lat="42.551363576519144" lon="11.73814952370246"><ele>389.0</ele><time>2026-03-22T15:38:16.758Z</time></trkpt><trkpt lat="42.551377685063706" lon="11.738329021117108"><ele>389.0</ele><time>2026-03-22T15:38:17.758Z</time></trkpt><trkpt lat="42.55139208667306" lon="11.73851959747984"><ele>389.0</ele><time>2026-03-22T15:38:18.76Z</time></trkpt><trkpt lat="42.55140541717419" lon="11.738722550567143"><ele>389.0</ele><time>2026-03-22T15:38:19.76Z</time></trkpt><trkpt lat="42.55141658188675" lon="11.738927777630005"><ele>389.0</ele><time>2026-03-22T15:38:20.76Z</time></trkpt><trkpt lat="42.55142274910152" lon="11.739131883021072"><ele>388.3333333333333</ele><time>2026-03-22T15:38:21.76Z</time></trkpt><trkpt lat="42.551417079883755" lon="11.739342917230026"><ele>387.66666666666663</ele><time>2026-03-22T15:38:22.76Z</time></trkpt><trkpt lat="42.55139071434296" lon="11.739556574773527"><ele>387.0</ele><time>2026-03-22T15:38:23.76Z</time></trkpt><trkpt lat="42.55133765552664" lon="11.739788263479308"><ele>387.0</ele><time>2026-03-22T15:38:24.76Z</time></trkpt><trkpt lat="42.55127640079052" lon="11.74003769038883"><ele>387.0</ele><time>2026-03-22T15:38:25.76Z</time></trkpt><trkpt lat="42.551227394757795" lon="11.74030491478796"><ele>387.0</ele><time>2026-03-22T15:38:26.76Z</time></trkpt><trkpt lat="42.55119933922452" lon="11.740579638778554"><ele>386.33333333333337</ele><time>2026-03-22T15:38:27.76Z</time></trkpt><trkpt lat="42.551178894198095" lon="11.740858376108633"><ele>385.6666666666667</ele><time>2026-03-22T15:38:28.76Z</time></trkpt><trkpt lat="42.551158975214186" lon="11.741128438257011"><ele>385.0</ele><time>2026-03-22T15:38:29.76Z</time></trkpt><trkpt lat="42.55113800303992" lon="11.741388885521582"><ele>385.0</ele><time>2026-03-22T15:38:30.76Z</time></trkpt><trkpt lat="42.551104043619915" lon="11.741645914424765"><ele>385.0</ele><time>2026-03-22T15:38:31.759Z</time></trkpt><trkpt lat="42.55105624006124" lon="11.74188558181172"><ele>385.0</ele><time>2026-03-22T15:38:32.759Z</time></trkpt><trkpt lat="42.55098550636389" lon="11.742104407554447"><ele>384.6666666666667</ele><time>2026-03-22T15:38:33.759Z</time></trkpt><trkpt lat="42.55088504782122" lon="11.742304685677277"><ele>384.33333333333337</ele><time>2026-03-22T15:38:34.759Z</time></trkpt><trkpt lat="42.55076402502638" lon="11.742474247929133"><ele>384.0</ele><time>2026-03-22T15:38:35.759Z</time></trkpt><trkpt lat="42.55062181045176" lon="11.742628609209035"><ele>384.0</ele><time>2026-03-22T15:38:36.759Z</time></trkpt><trkpt lat="42.55046858434129" lon="11.742780726651715"><ele>384.0</ele><time>2026-03-22T15:38:37.759Z</time></trkpt><trkpt lat="42.550317266012556" lon="11.742925265621084"><ele>384.0</ele><time>2026-03-22T15:38:38.759Z</time></trkpt><trkpt lat="42.5501715237583" lon="11.74306420207528"><ele>381.3333333333333</ele><time>2026-03-22T15:38:39.759Z</time></trkpt><trkpt lat="42.55003404946604" lon="11.743205503329092"><ele>378.66666666666663</ele><time>2026-03-22T15:38:40.759Z</time></trkpt><trkpt lat="42.54991411479639" lon="11.743387834803963"><ele>376.0</ele><time>2026-03-22T15:38:41.759Z</time></trkpt><trkpt lat="42.54982624355185" lon="11.74361435898843"><ele>375.0</ele><time>2026-03-22T15:38:42.759Z</time></trkpt><trkpt lat="42.54977444520801" lon="11.74386213480605"><ele>374.0</ele><time>2026-03-22T15:38:43.759Z</time></trkpt><trkpt lat="42.54975117641951" lon="11.744113690243813"><ele>373.0</ele><time>2026-03-22T15:38:44.759Z</time></trkpt><trkpt lat="42.54975960638684" lon="11.74437442470297"><ele>372.3333333333333</ele><time>2026-03-22T15:38:45.759Z</time></trkpt><trkpt lat="42.54979842045755" lon="11.744625717873015"><ele>371.6666666666667</ele><time>2026-03-22T15:38:46.759Z</time></trkpt><trkpt lat="42.549858898967095" lon="11.744875405052245"><ele>371.0</ele><time>2026-03-22T15:38:47.759Z</time></trkpt><trkpt lat="42.54991754259926" lon="11.745125411101474"><ele>370.6666666666667</ele><time>2026-03-22T15:38:48.759Z</time></trkpt><trkpt lat="42.54995770537586" lon="11.74536398422921"><ele>370.3333333333333</ele><time>2026-03-22T15:38:49.759Z</time></trkpt><trkpt lat="42.549945965543394" lon="11.745585729637899"><ele>370.0</ele><time>2026-03-22T15:38:50.759Z</time></trkpt><trkpt lat="42.54990732134767" lon="11.745802827767966"><ele>370.0</ele><time>2026-03-22T15:38:51.758Z</time></trkpt><trkpt lat="42.549865601237315" lon="11.746035923675853"><ele>370.0</ele><time>2026-03-22T15:38:52.758Z</time></trkpt><trkpt lat="42.54983575732428" lon="11.746287174764294"><ele>370.0</ele><time>2026-03-22T15:38:53.758Z</time></trkpt><trkpt lat="42.54983121486552" lon="11.746560195209574"><ele>370.3333333333333</ele><time>2026-03-22T15:38:54.758Z</time></trkpt><trkpt lat="42.54982698066302" lon="11.746833381654675"><ele>370.6666666666667</ele><time>2026-03-22T15:38:55.758Z</time></trkpt><trkpt lat="42.54980796041613" lon="11.74709697047458"><ele>371.0</ele><time>2026-03-22T15:38:56.758Z</time></trkpt><trkpt lat="42.54976912294444" lon="11.747352079578386"><ele>371.0</ele><time>2026-03-22T15:38:57.758Z</time></trkpt><trkpt lat="42.54973327415518" lon="11.747590767670703"><ele>371.0</ele><time>2026-03-22T15:38:58.758Z</time></trkpt><trkpt lat="42.549731663007" lon="11.747826990456144"><ele>371.0</ele><time>2026-03-22T15:38:59.758Z</time></trkpt><trkpt lat="42.549786255443124" lon="11.748043455590702"><ele>372.33333333333337</ele><time>2026-03-22T15:39:00.758Z</time></trkpt><trkpt lat="42.54987765366532" lon="11.74822566984781"><ele>373.6666666666667</ele><time>2026-03-22T15:39:01.758Z</time></trkpt><trkpt lat="42.549979208904475" lon="11.748400063074184"><ele>375.0</ele><time>2026-03-22T15:39:02.758Z</time></trkpt><trkpt lat="42.55007896050202" lon="11.748587765422323"><ele>376.0</ele><time>2026-03-22T15:39:03.758Z</time></trkpt><trkpt lat="42.550176865533864" lon="11.748771645626174"><ele>377.0</ele><time>2026-03-22T15:39:04.758Z</time></trkpt><trkpt lat="42.55023583384651" lon="11.748963856328773"><ele>378.0</ele><time>2026-03-22T15:39:05.758Z</time></trkpt><trkpt lat="42.55026418968163" lon="11.749157577072305"><ele>378.0</ele><time>2026-03-22T15:39:06.758Z</time></trkpt><trkpt lat="42.550222791075996" lon="11.749331463948556"><ele>378.0</ele><time>2026-03-22T15:39:07.758Z</time></trkpt><trkpt lat="42.55016671149211" lon="11.749509236890821"><ele>378.0</ele><time>2026-03-22T15:39:08.758Z</time></trkpt><trkpt lat="42.55009851338728" lon="11.74971397015321"><ele>378.0</ele><time>2026-03-22T15:39:09.758Z</time></trkpt><trkpt lat="42.550022567971254" lon="11.749929299048933"><ele>379.6666666666667</ele><time>2026-03-22T15:39:10.758Z</time></trkpt><trkpt lat="42.54994564178365" lon="11.750155934384306"><ele>381.33333333333337</ele><time>2026-03-22T15:39:11.757Z</time></trkpt><trkpt lat="42.54986999260119" lon="11.750384440807613"><ele>383.0</ele><time>2026-03-22T15:39:12.757Z</time></trkpt><trkpt lat="42.54979926955611" lon="11.750615768727192"><ele>385.6666666666667</ele><time>2026-03-22T15:39:13.757Z</time></trkpt><trkpt lat="42.54973677786869" lon="11.75082752942395"><ele>388.33333333333337</ele><time>2026-03-22T15:39:14.757Z</time></trkpt><trkpt lat="42.54967356189625" lon="11.751027264412626"><ele>391.0</ele><time>2026-03-22T15:39:15.757Z</time></trkpt><trkpt lat="42.549601893992694" lon="11.751215427699076"><ele>392.33333333333337</ele><time>2026-03-22T15:39:16.757Z</time></trkpt><trkpt lat="42.54951818254947" lon="11.75140323951334"><ele>393.66666666666663</ele><time>2026-03-22T15:39:17.757Z</time></trkpt><trkpt lat="42.54943055287056" lon="11.751596016120963"><ele>395.0</ele><time>2026-03-22T15:39:18.757Z</time></trkpt><trkpt lat="42.549351014938544" lon="11.751787368235766"><ele>395.66666666666663</ele><time>2026-03-22T15:39:19.757Z</time></trkpt><trkpt lat="42.54928070621633" lon="11.75199035579671"><ele>396.33333333333337</ele><time>2026-03-22T15:39:20.757Z</time></trkpt><trkpt lat="42.54922505555501" lon="11.752198149353838"><ele>397.0</ele><time>2026-03-22T15:39:21.757Z</time></trkpt><trkpt lat="42.5492041708466" lon="11.752422160598536"><ele>397.0</ele><time>2026-03-22T15:39:22.757Z</time></trkpt><trkpt lat="42.54920475724176" lon="11.752628225957533"><ele>397.0</ele><time>2026-03-22T15:39:23.757Z</time></trkpt><trkpt lat="42.54921193280962" lon="11.752835800961638"><ele>397.0</ele><time>2026-03-22T15:39:24.757Z</time></trkpt><trkpt lat="42.5492219338154" lon="11.753044147350055"><ele>397.33333333333337</ele><time>2026-03-22T15:39:25.757Z</time></trkpt><trkpt lat="42.54923286794279" lon="11.75325733944621"><ele>397.66666666666663</ele><time>2026-03-22T15:39:26.757Z</time></trkpt><trkpt lat="42.54925443280089" lon="11.753474494288405"><ele>398.0</ele><time>2026-03-22T15:39:27.757Z</time></trkpt><trkpt lat="42.54930055573563" lon="11.753694710784472"><ele>397.3333333333333</ele><time>2026-03-22T15:39:28.757Z</time></trkpt><trkpt lat="42.54935665228559" lon="11.753902450506073"><ele>396.66666666666663</ele><time>2026-03-22T15:39:29.757Z</time></trkpt><trkpt lat="42.549418800901336" lon="11.754106491429871"><ele>396.0</ele><time>2026-03-22T15:39:30.757Z</time></trkpt><trkpt lat="42.54948080549324" lon="11.754302707487911"><ele>395.0</ele><time>2026-03-22T15:39:31.756Z</time></trkpt><trkpt lat="42.54954259394272" lon="11.754498239485027"><ele>394.0</ele><time>2026-03-22T15:39:32.756Z</time></trkpt><trkpt lat="42.549602018337474" lon="11.754686290427559"><ele>393.0</ele><time>2026-03-22T15:39:33.756Z</time></trkpt><trkpt lat="42.549654386184365" lon="11.754872156229276"><ele>393.0</ele><time>2026-03-22T15:39:34.756Z</time></trkpt><trkpt lat="42.54968988852899" lon="11.7550614642651"><ele>393.0</ele><time>2026-03-22T15:39:35.756Z</time></trkpt><trkpt lat="42.549693757330736" lon="11.755254839296809"><ele>393.0</ele><time>2026-03-22T15:39:36.756Z</time></trkpt><trkpt lat="42.5496501261724" lon="11.755432139282805"><ele>393.0</ele><time>2026-03-22T15:39:37.756Z</time></trkpt><trkpt lat="42.54956955998661" lon="11.755583355139034"><ele>390.0</ele><time>2026-03-22T15:39:38.756Z</time></trkpt><trkpt lat="42.54945923121571" lon="11.755710695146801"><ele>387.0</ele><time>2026-03-22T15:39:39.756Z</time></trkpt><trkpt lat="42.54932371074339" lon="11.755842286840993"><ele>384.0</ele><time>2026-03-22T15:39:40.756Z</time></trkpt><trkpt lat="42.5491767287574" lon="11.755973671036346"><ele>389.33333333333337</ele><time>2026-03-22T15:39:41.756Z</time></trkpt><trkpt lat="42.5490279718498" lon="11.7561048163347"><ele>394.6666666666667</ele><time>2026-03-22T15:39:42.756Z</time></trkpt><trkpt lat="42.548886544937105" lon="11.756215702274257"><ele>400.0</ele><time>2026-03-22T15:39:43.756Z</time></trkpt><trkpt lat="42.54873162832762" lon="11.756270669894068"><ele>397.33333333333337</ele><time>2026-03-22T15:39:44.756Z</time></trkpt><trkpt lat="42.54855818952621" lon="11.756266458747186"><ele>394.66666666666663</ele><time>2026-03-22T15:39:45.756Z</time></trkpt><trkpt lat="42.54835849916173" lon="11.75623714274415"><ele>392.0</ele><time>2026-03-22T15:39:46.756Z</time></trkpt><trkpt lat="42.548172765447454" lon="11.756225963566557"><ele>392.0</ele><time>2026-03-22T15:39:47.756Z</time></trkpt><trkpt lat="42.54800288804892" lon="11.75618557533077"><ele>392.0</ele><time>2026-03-22T15:39:48.756Z</time></trkpt><trkpt lat="42.5478342494118" lon="11.756163624564397"><ele>392.0</ele><time>2026-03-22T15:39:49.756Z</time></trkpt><trkpt lat="42.54767024491022" lon="11.756155820699224"><ele>390.0</ele><time>2026-03-22T15:39:50.756Z</time></trkpt><trkpt lat="42.54750336498773" lon="11.756234717725686"><ele>388.0</ele><time>2026-03-22T15:39:51.755Z</time></trkpt><trkpt lat="42.547336034479976" lon="11.75631609094117"><ele>386.0</ele><time>2026-03-22T15:39:52.755Z</time></trkpt><trkpt lat="42.54717667545066" lon="11.756414562959455"><ele>381.0</ele><time>2026-03-22T15:39:53.755Z</time></trkpt><trkpt lat="42.54702711483695" lon="11.756506700067305"><ele>376.0</ele><time>2026-03-22T15:39:54.755Z</time></trkpt><trkpt lat="42.546889995060646" lon="11.756621495549185"><ele>371.0</ele><time>2026-03-22T15:39:55.755Z</time></trkpt><trkpt lat="42.546772100017904" lon="11.756763811151277"><ele>375.0</ele><time>2026-03-22T15:39:56.755Z</time></trkpt><trkpt lat="42.546689337034" lon="11.756930495177444"><ele>379.0</ele><time>2026-03-22T15:39:57.755Z</time></trkpt><trkpt lat="42.546639591481096" lon="11.757113951572013"><ele>383.0</ele><time>2026-03-22T15:39:58.755Z</time></trkpt><trkpt lat="42.546614246948785" lon="11.757315902305763"><ele>387.0</ele><time>2026-03-22T15:39:59.755Z</time></trkpt><trkpt lat="42.54657793653655" lon="11.757532474383083"><ele>389.0</ele><time>2026-03-22T15:40:00.755Z</time></trkpt><trkpt lat="42.546529047514206" lon="11.757734938331286"><ele>391.0</ele><time>2026-03-22T15:40:01.755Z</time></trkpt><trkpt lat="42.54646374695218" lon="11.757912735175248"><ele>393.0</ele><time>2026-03-22T15:40:02.755Z</time></trkpt><trkpt lat="42.546362023421466" lon="11.758043846685739"><ele>395.0</ele><time>2026-03-22T15:40:03.755Z</time></trkpt><trkpt lat="42.54626905536819" lon="11.758170422724511"><ele>394.5</ele><time>2026-03-22T15:40:04.755Z</time></trkpt><trkpt lat="42.54615427389099" lon="11.758250065796597"><ele>394.0</ele><time>2026-03-22T15:40:05.755Z</time></trkpt><trkpt lat="42.546032175183655" lon="11.758269328954235"><ele>393.5</ele><time>2026-03-22T15:40:06.755Z</time></trkpt><trkpt lat="42.54592915352445" lon="11.758331222635237"><ele>393.0</ele><time>2026-03-22T15:40:07.755Z</time></trkpt><trkpt lat="42.54584318539433" lon="11.758426692640143"><ele>391.59999999999997</ele><time>2026-03-22T15:40:08.755Z</time></trkpt><trkpt lat="42.54578572426029" lon="11.758542681889631"><ele>390.2</ele><time>2026-03-22T15:40:09.755Z</time></trkpt><trkpt lat="42.54576594533086" lon="11.758679782915342"><ele>388.8</ele><time>2026-03-22T15:40:10.755Z</time></trkpt><trkpt lat="42.54571609590884" lon="11.758783604092123"><ele>387.4</ele><time>2026-03-22T15:40:11.754Z</time></trkpt><trkpt lat="42.54565608170279" lon="11.75887003617456"><ele>386.0</ele><time>2026-03-22T15:40:12.754Z</time></trkpt><trkpt lat="42.545587780403636" lon="11.758944366791663"><ele>386.0</ele><time>2026-03-22T15:40:13.754Z</time></trkpt><trkpt lat="42.545497205354685" lon="11.758965963263421"><ele>386.0</ele><time>2026-03-22T15:40:14.754Z</time></trkpt><trkpt lat="42.545409328590765" lon="11.759032143691401"><ele>386.0</ele><time>2026-03-22T15:40:15.754Z</time></trkpt><trkpt lat="42.545320002356775" lon="11.75909941579833"><ele>386.0</ele><time>2026-03-22T15:40:16.754Z</time></trkpt><trkpt lat="42.545228275807" lon="11.759168495687629"><ele>386.0</ele><time>2026-03-22T15:40:17.754Z</time></trkpt><trkpt lat="42.54513344651761" lon="11.759239912130218"><ele>387.20000000000005</ele><time>2026-03-22T15:40:18.754Z</time></trkpt><trkpt lat="42.545039474873406" lon="11.759313884196283"><ele>388.40000000000003</ele><time>2026-03-22T15:40:19.754Z</time></trkpt><trkpt lat="42.544949296176824" lon="11.75939435127177"><ele>389.6</ele><time>2026-03-22T15:40:20.754Z</time></trkpt><trkpt lat="42.54486408879109" lon="11.759497231654931"><ele>390.8</ele><time>2026-03-22T15:40:21.754Z</time></trkpt><trkpt lat="42.54479265172706" lon="11.759613311056276"><ele>392.0</ele><time>2026-03-22T15:40:22.754Z</time></trkpt><trkpt lat="42.54472638798293" lon="11.759728486429092"><ele>392.0</ele><time>2026-03-22T15:40:23.754Z</time></trkpt><trkpt lat="42.544661194826" lon="11.759845675366343"><ele>392.0</ele><time>2026-03-22T15:40:24.756Z</time></trkpt><trkpt lat="42.544597287631525" lon="11.759963111992027"><ele>392.0</ele><time>2026-03-22T15:40:25.756Z</time></trkpt><trkpt lat="42.54453610241744" lon="11.760078132565237"><ele>392.0</ele><time>2026-03-22T15:40:26.756Z</time></trkpt><trkpt lat="42.544478039911205" lon="11.760194760560335"><ele>392.0</ele><time>2026-03-22T15:40:27.756Z</time></trkpt><trkpt lat="42.544435920035156" lon="11.760330988854333"><ele>397.25</ele><time>2026-03-22T15:40:28.756Z</time></trkpt><trkpt lat="42.54443732504353" lon="11.760485978782267"><ele>402.5</ele><time>2026-03-22T15:40:29.755Z</time></trkpt><trkpt lat="42.54443237548463" lon="11.760641728979174"><ele>407.75</ele><time>2026-03-22T15:40:30.756Z</time></trkpt><trkpt lat="42.544434762010496" lon="11.760803651931125"><ele>413.0</ele><time>2026-03-22T15:40:31.756Z</time></trkpt><trkpt lat="42.54443730603033" lon="11.760965260494372"><ele>413.5</ele><time>2026-03-22T15:40:32.846Z</time></trkpt><trkpt lat="42.544417299918024" lon="11.761132402656163"><ele>414.0</ele><time>2026-03-22T15:40:33.846Z</time></trkpt><trkpt lat="42.54442606563696" lon="11.761300656683849"><ele>414.5</ele><time>2026-03-22T15:40:34.847Z</time></trkpt><trkpt lat="42.544435379982225" lon="11.761466901380915"><ele>415.0</ele><time>2026-03-22T15:40:35.847Z</time></trkpt><trkpt lat="42.544444886662085" lon="11.761636579022742"><ele>415.0</ele><time>2026-03-22T15:40:36.846Z</time></trkpt><trkpt lat="42.54445435176897" lon="11.761805518365783"><ele>415.0</ele><time>2026-03-22T15:40:37.847Z</time></trkpt><trkpt lat="42.54446454202348" lon="11.76197631662542"><ele>415.0</ele><time>2026-03-22T15:40:38.847Z</time></trkpt><trkpt lat="42.54450353965432" lon="11.762147099874465"><ele>415.0</ele><time>2026-03-22T15:40:39.847Z</time></trkpt><trkpt lat="42.54452408291718" lon="11.76231825695978"><ele>416.0</ele><time>2026-03-22T15:40:40.847Z</time></trkpt><trkpt lat="42.54456203424571" lon="11.762483561619826"><ele>417.0</ele><time>2026-03-22T15:40:41.847Z</time></trkpt><trkpt lat="42.54461078897665" lon="11.762642669027926"><ele>418.0</ele><time>2026-03-22T15:40:42.847Z</time></trkpt><trkpt lat="42.5446410696894" lon="11.7628078062225"><ele>419.0</ele><time>2026-03-22T15:40:43.847Z</time></trkpt><trkpt lat="42.54468640008987" lon="11.762967433511925"><ele>419.0</ele><time>2026-03-22T15:40:44.847Z</time></trkpt><trkpt lat="42.54474286061347" lon="11.763116783638926"><ele>419.0</ele><time>2026-03-22T15:40:45.847Z</time></trkpt><trkpt lat="42.54476630286433" lon="11.763282414451535"><ele>419.0</ele><time>2026-03-22T15:40:46.847Z</time></trkpt><trkpt lat="42.54481076936531" lon="11.763430083095018"><ele>419.0</ele><time>2026-03-22T15:40:47.847Z</time></trkpt><trkpt lat="42.544859260766756" lon="11.763582027295193"><ele>420.75</ele><time>2026-03-22T15:40:48.847Z</time></trkpt><trkpt lat="42.54490106342049" lon="11.763737328704313"><ele>422.5</ele><time>2026-03-22T15:40:49.847Z</time></trkpt><trkpt lat="42.54493999941119" lon="11.763894552682896"><ele>424.25</ele><time>2026-03-22T15:40:50.847Z</time></trkpt><trkpt lat="42.544982709038955" lon="11.764045670532337"><ele>426.0</ele><time>2026-03-22T15:40:51.847Z</time></trkpt><trkpt lat="42.5450217875261" lon="11.764188992129824"><ele>426.0</ele><time>2026-03-22T15:40:52.847Z</time></trkpt><trkpt lat="42.54506306536436" lon="11.76431519487646"><ele>426.0</ele><time>2026-03-22T15:40:53.847Z</time></trkpt><trkpt lat="42.545093192729695" lon="11.764430529654708"><ele>426.0</ele><time>2026-03-22T15:40:54.847Z</time></trkpt><trkpt lat="42.545121597102444" lon="11.76454427368557"><ele>426.0</ele><time>2026-03-22T15:40:55.847Z</time></trkpt><trkpt lat="42.54515257447068" lon="11.764653112027691"><ele>426.0</ele><time>2026-03-22T15:40:56.847Z</time></trkpt><trkpt lat="42.54519965982244" lon="11.764764986259173"><ele>426.4</ele><time>2026-03-22T15:40:57.847Z</time></trkpt><trkpt lat="42.5452469051349" lon="11.764878833741426"><ele>426.8</ele><time>2026-03-22T15:40:58.847Z</time></trkpt><trkpt lat="42.545305161708455" lon="11.764987935311915"><ele>427.19999999999993</ele><time>2026-03-22T15:40:59.847Z</time></trkpt><trkpt lat="42.54537602893249" lon="11.765091594650677"><ele>427.59999999999997</ele><time>2026-03-22T15:41:00.847Z</time></trkpt><trkpt lat="42.54544577822677" lon="11.765198270462685"><ele>428.0</ele><time>2026-03-22T15:41:01.847Z</time></trkpt><trkpt lat="42.545522917957214" lon="11.765302004116315"><ele>428.25</ele><time>2026-03-22T15:41:02.847Z</time></trkpt><trkpt lat="42.54559611382653" lon="11.76540826589576"><ele>428.5</ele><time>2026-03-22T15:41:03.847Z</time></trkpt><trkpt lat="42.54566409430941" lon="11.765521087241495"><ele>428.75</ele><time>2026-03-22T15:41:04.847Z</time></trkpt><trkpt lat="42.5457413490795" lon="11.765642577558774"><ele>429.0</ele><time>2026-03-22T15:41:05.847Z</time></trkpt><trkpt lat="42.545810777049766" lon="11.765772882461171"><ele>429.0</ele><time>2026-03-22T15:41:06.847Z</time></trkpt><trkpt lat="42.545873765867256" lon="11.76590163986598"><ele>429.0</ele><time>2026-03-22T15:41:07.847Z</time></trkpt><trkpt lat="42.545930735064154" lon="11.766027634267012"><ele>429.0</ele><time>2026-03-22T15:41:08.847Z</time></trkpt><trkpt lat="42.54598247920328" lon="11.766156349988634"><ele>429.0</ele><time>2026-03-22T15:41:09.847Z</time></trkpt><trkpt lat="42.54602666674339" lon="11.766288212822179"><ele>429.0</ele><time>2026-03-22T15:41:10.847Z</time></trkpt><trkpt lat="42.54606254280687" lon="11.766429283321422"><ele>428.79999999999995</ele><time>2026-03-22T15:41:11.847Z</time></trkpt><trkpt lat="42.546089328390565" lon="11.76657261556189"><ele>428.59999999999997</ele><time>2026-03-22T15:41:12.847Z</time></trkpt><trkpt lat="42.546111350824056" lon="11.766711039516485"><ele>428.4</ele><time>2026-03-22T15:41:13.847Z</time></trkpt><trkpt lat="42.546124949521385" lon="11.766846574661091"><ele>428.2</ele><time>2026-03-22T15:41:14.847Z</time></trkpt><trkpt lat="42.54614115062231" lon="11.76698447973648"><ele>428.0</ele><time>2026-03-22T15:41:15.847Z</time></trkpt><trkpt lat="42.54615280229723" lon="11.767124843036648"><ele>428.0</ele><time>2026-03-22T15:41:16.847Z</time></trkpt><trkpt lat="42.546158174281594" lon="11.767267786858207"><ele>428.0</ele><time>2026-03-22T15:41:17.847Z</time></trkpt><trkpt lat="42.546164829451605" lon="11.767422129453623"><ele>428.0</ele><time>2026-03-22T15:41:18.847Z</time></trkpt><trkpt lat="42.54617699353038" lon="11.767578863610193"><ele>428.0</ele><time>2026-03-22T15:41:19.846Z</time></trkpt><trkpt lat="42.546186951442365" lon="11.76774292944864"><ele>429.0</ele><time>2026-03-22T15:41:20.846Z</time></trkpt><trkpt lat="42.54620325087221" lon="11.767909223270085"><ele>430.0</ele><time>2026-03-22T15:41:21.846Z</time></trkpt><trkpt lat="42.546218997269584" lon="11.76808440384061"><ele>431.0</ele><time>2026-03-22T15:41:22.846Z</time></trkpt><trkpt lat="42.546225646070006" lon="11.768265506603699"><ele>432.0</ele><time>2026-03-22T15:41:23.846Z</time></trkpt><trkpt lat="42.5462239079708" lon="11.768445844983978"><ele>433.25</ele><time>2026-03-22T15:41:24.846Z</time></trkpt><trkpt lat="42.54619856419953" lon="11.768622004352757"><ele>434.5</ele><time>2026-03-22T15:41:25.846Z</time></trkpt><trkpt lat="42.54617720214778" lon="11.76879608709304"><ele>435.75</ele><time>2026-03-22T15:41:26.846Z</time></trkpt><trkpt lat="42.54614976444292" lon="11.768971511659995"><ele>437.0</ele><time>2026-03-22T15:41:27.846Z</time></trkpt><trkpt lat="42.54611662906893" lon="11.76914215640029"><ele>437.0</ele><time>2026-03-22T15:41:28.846Z</time></trkpt><trkpt lat="42.54607775567758" lon="11.769313887567938"><ele>437.0</ele><time>2026-03-22T15:41:29.846Z</time></trkpt><trkpt lat="42.54603247103893" lon="11.769481818771197"><ele>437.0</ele><time>2026-03-22T15:41:30.846Z</time></trkpt><trkpt lat="42.545979273832494" lon="11.769643153680722"><ele>437.0</ele><time>2026-03-22T15:41:31.846Z</time></trkpt><trkpt lat="42.54591117690903" lon="11.769807877910937"><ele>438.0</ele><time>2026-03-22T15:41:32.846Z</time></trkpt><trkpt lat="42.5458343046307" lon="11.76996963597213"><ele>439.0</ele><time>2026-03-22T15:41:33.846Z</time></trkpt><trkpt lat="42.54574788539085" lon="11.770140769690531"><ele>440.0</ele><time>2026-03-22T15:41:34.846Z</time></trkpt><trkpt lat="42.54566347127906" lon="11.770307932728898"><ele>441.0</ele><time>2026-03-22T15:41:35.846Z</time></trkpt><trkpt lat="42.545561425769634" lon="11.77051001088149"><ele>441.0</ele><time>2026-03-22T15:41:36.846Z</time></trkpt><trkpt lat="42.5454555934917" lon="11.770717759465397"><ele>441.0</ele><time>2026-03-22T15:41:37.846Z</time></trkpt><trkpt lat="42.54534389725179" lon="11.770940564135039"><ele>441.0</ele><time>2026-03-22T15:41:38.846Z</time></trkpt><trkpt lat="42.54522895298695" lon="11.771172600034445"><ele>441.0</ele><time>2026-03-22T15:41:39.846Z</time></trkpt><trkpt lat="42.54511699486334" lon="11.771400626211836"><ele>441.0</ele><time>2026-03-22T15:41:40.846Z</time></trkpt><trkpt lat="42.545008460745855" lon="11.771623126957953"><ele>441.0</ele><time>2026-03-22T15:41:41.846Z</time></trkpt><trkpt lat="42.544908972542835" lon="11.771841265638177"><ele>440.0</ele><time>2026-03-22T15:41:42.846Z</time></trkpt><trkpt lat="42.544826816004026" lon="11.772068639867612"><ele>439.0</ele><time>2026-03-22T15:41:43.846Z</time></trkpt><trkpt lat="42.54477289206624" lon="11.772307217761533"><ele>438.0</ele><time>2026-03-22T15:41:44.846Z</time></trkpt><trkpt lat="42.54476110771878" lon="11.772564268527079"><ele>437.66666666666663</ele><time>2026-03-22T15:41:45.846Z</time></trkpt><trkpt lat="42.54478981640219" lon="11.772810107188212"><ele>437.3333333333333</ele><time>2026-03-22T15:41:46.846Z</time></trkpt><trkpt lat="42.544818914804246" lon="11.773067276500788"><ele>437.0</ele><time>2026-03-22T15:41:47.846Z</time></trkpt><trkpt lat="42.54485635728896" lon="11.773326039893778"><ele>437.66666666666663</ele><time>2026-03-22T15:41:48.846Z</time></trkpt><trkpt lat="42.544892561302575" lon="11.77359796148993"><ele>438.33333333333337</ele><time>2026-03-22T15:41:49.846Z</time></trkpt><trkpt lat="42.54497489817984" lon="11.773852203255034"><ele>439.0</ele><time>2026-03-22T15:41:50.846Z</time></trkpt><trkpt lat="42.545044910380334" lon="11.774108377631483"><ele>438.0</ele><time>2026-03-22T15:41:51.846Z</time></trkpt><trkpt lat="42.54511143510629" lon="11.774367825547488"><ele>437.0</ele><time>2026-03-22T15:41:52.846Z</time></trkpt><trkpt lat="42.54516346677812" lon="11.774633662840888"><ele>436.0</ele><time>2026-03-22T15:41:53.845Z</time></trkpt><trkpt lat="42.54517500365296" lon="11.774906227508863"><ele>436.0</ele><time>2026-03-22T15:41:54.845Z</time></trkpt><trkpt lat="42.54518917288471" lon="11.7751754499031"><ele>436.0</ele><time>2026-03-22T15:41:55.845Z</time></trkpt><trkpt lat="42.54520002885928" lon="11.775431987080172"><ele>436.0</ele><time>2026-03-22T15:41:56.845Z</time></trkpt><trkpt lat="42.545212704046335" lon="11.775685404309257"><ele>435.6666666666667</ele><time>2026-03-22T15:41:57.845Z</time></trkpt><trkpt lat="42.54522538479055" lon="11.775933873196916"><ele>435.33333333333337</ele><time>2026-03-22T15:41:58.845Z</time></trkpt><trkpt lat="42.54523916594349" lon="11.776167533449275"><ele>435.0</ele><time>2026-03-22T15:41:59.845Z</time></trkpt><trkpt lat="42.545251839678606" lon="11.776382417254583"><ele>435.75</ele><time>2026-03-22T15:42:00.845Z</time></trkpt><trkpt lat="42.54526711535758" lon="11.776569139070252"><ele>436.5</ele><time>2026-03-22T15:42:01.845Z</time></trkpt><trkpt lat="42.545281686366174" lon="11.776736356489296"><ele>437.25</ele><time>2026-03-22T15:42:02.845Z</time></trkpt><trkpt lat="42.545293896106905" lon="11.776898693515424"><ele>438.0</ele><time>2026-03-22T15:42:03.845Z</time></trkpt><trkpt lat="42.545313724786816" lon="11.777056104600044"><ele>438.0</ele><time>2026-03-22T15:42:04.845Z</time></trkpt><trkpt lat="42.54534367890027" lon="11.777207708551648"><ele>438.0</ele><time>2026-03-22T15:42:05.845Z</time></trkpt><trkpt lat="42.54538514939388" lon="11.777360188828302"><ele>438.0</ele><time>2026-03-22T15:42:06.845Z</time></trkpt><trkpt lat="42.54543524141004" lon="11.777516295644926"><ele>438.0</ele><time>2026-03-22T15:42:07.845Z</time></trkpt><trkpt lat="42.54550061519181" lon="11.777673716879915"><ele>437.75</ele><time>2026-03-22T15:42:08.845Z</time></trkpt><trkpt lat="42.5455615432008" lon="11.777819517589284"><ele>437.5</ele><time>2026-03-22T15:42:09.845Z</time></trkpt><trkpt lat="42.54563012601633" lon="11.777957768209765"><ele>437.25</ele><time>2026-03-22T15:42:10.845Z</time></trkpt><trkpt lat="42.5457049506384" lon="11.778086980565174"><ele>437.0</ele><time>2026-03-22T15:42:11.845Z</time></trkpt><trkpt lat="42.54579519447885" lon="11.778204855708465"><ele>437.0</ele><time>2026-03-22T15:42:12.845Z</time></trkpt><trkpt lat="42.545894720242735" lon="11.778304000236075"><ele>437.0</ele><time>2026-03-22T15:42:13.845Z</time></trkpt><trkpt lat="42.546005327908205" lon="11.778387871173118"><ele>437.0</ele><time>2026-03-22T15:42:14.845Z</time></trkpt><trkpt lat="42.54612082657678" lon="11.778471583010104"><ele>437.0</ele><time>2026-03-22T15:42:15.845Z</time></trkpt><trkpt lat="42.54623780717028" lon="11.778551319374369"><ele>437.0</ele><time>2026-03-22T15:42:16.845Z</time></trkpt><trkpt lat="42.5463560649295" lon="11.77862851789535"><ele>437.0</ele><time>2026-03-22T15:42:17.845Z</time></trkpt><trkpt lat="42.5464804373911" lon="11.778709956546296"><ele>437.0</ele><time>2026-03-22T15:42:18.845Z</time></trkpt><trkpt lat="42.54660205776925" lon="11.778792283021515"><ele>437.0</ele><time>2026-03-22T15:42:19.845Z</time></trkpt><trkpt lat="42.546718143106744" lon="11.77887561051103"><ele>437.0</ele><time>2026-03-22T15:42:20.845Z</time></trkpt><trkpt lat="42.546829430015926" lon="11.77897010702231"><ele>437.0</ele><time>2026-03-22T15:42:21.845Z</time></trkpt><trkpt lat="42.54693645372925" lon="11.77909206730323"><ele>437.0</ele><time>2026-03-22T15:42:22.845Z</time></trkpt><trkpt lat="42.54702511880204" lon="11.779263911070366"><ele>437.0</ele><time>2026-03-22T15:42:23.845Z</time></trkpt><trkpt lat="42.5471231911056" lon="11.779460059704363"><ele>438.0</ele><time>2026-03-22T15:42:24.845Z</time></trkpt><trkpt lat="42.54722480452241" lon="11.779687782020195"><ele>439.0</ele><time>2026-03-22T15:42:25.844Z</time></trkpt><trkpt lat="42.547339247128846" lon="11.779939322990446"><ele>440.0</ele><time>2026-03-22T15:42:26.844Z</time></trkpt><trkpt lat="42.54745963592936" lon="11.780203933645248"><ele>443.0</ele><time>2026-03-22T15:42:27.844Z</time></trkpt><trkpt lat="42.54758705447659" lon="11.780483995436834"><ele>446.0</ele><time>2026-03-22T15:42:28.844Z</time></trkpt><trkpt lat="42.547718280682254" lon="11.780772813478722"><ele>449.0</ele><time>2026-03-22T15:42:29.844Z</time></trkpt><trkpt lat="42.54784913057983" lon="11.781061304862417"><ele>452.0</ele><time>2026-03-22T15:42:30.846Z</time></trkpt><trkpt lat="42.547974150167086" lon="11.781337914604777"><ele>452.0</ele><time>2026-03-22T15:42:31.847Z</time></trkpt><trkpt lat="42.548090620052804" lon="11.781604321671287"><ele>452.0</ele><time>2026-03-22T15:42:32.847Z</time></trkpt><trkpt lat="42.54819967080958" lon="11.781875478765102"><ele>454.5</ele><time>2026-03-22T15:42:33.847Z</time></trkpt><trkpt lat="42.54830055713507" lon="11.782158321334476"><ele>457.0</ele><time>2026-03-22T15:42:34.847Z</time></trkpt><trkpt lat="42.54839154364223" lon="11.782458906179963"><ele>456.5</ele><time>2026-03-22T15:42:35.847Z</time></trkpt><trkpt lat="42.54847635203434" lon="11.78277208356846"><ele>456.0</ele><time>2026-03-22T15:42:36.847Z</time></trkpt><trkpt lat="42.54857802091555" lon="11.783081033588347"><ele>456.0</ele><time>2026-03-22T15:42:37.847Z</time></trkpt><trkpt lat="42.5486634641284" lon="11.783394999612026"><ele>456.0</ele><time>2026-03-22T15:42:38.847Z</time></trkpt><trkpt lat="42.54875234154049" lon="11.783711490649837"><ele>458.5</ele><time>2026-03-22T15:42:39.847Z</time></trkpt><trkpt lat="42.54882316235064" lon="11.784034917271562"><ele>461.0</ele><time>2026-03-22T15:42:40.847Z</time></trkpt><trkpt lat="42.54892017761765" lon="11.784333092160802"><ele>463.5</ele><time>2026-03-22T15:42:41.847Z</time></trkpt><trkpt lat="42.54898757447335" lon="11.784638354421322"><ele>466.0</ele><time>2026-03-22T15:42:42.846Z</time></trkpt><trkpt lat="42.54906645337571" lon="11.784927869510154"><ele>466.5</ele><time>2026-03-22T15:42:43.847Z</time></trkpt><trkpt lat="42.54914559379166" lon="11.78521714663805"><ele>467.0</ele><time>2026-03-22T15:42:44.847Z</time></trkpt><trkpt lat="42.54922538610346" lon="11.785507046519106"><ele>467.0</ele><time>2026-03-22T15:42:45.847Z</time></trkpt><trkpt lat="42.54930648443502" lon="11.78579551076233"><ele>467.0</ele><time>2026-03-22T15:42:46.846Z</time></trkpt><trkpt lat="42.549383983883274" lon="11.786060744547228"><ele>467.0</ele><time>2026-03-22T15:42:47.846Z</time></trkpt><trkpt lat="42.54946146184007" lon="11.78632257014586"><ele>465.0</ele><time>2026-03-22T15:42:48.846Z</time></trkpt><trkpt lat="42.5495331838032" lon="11.786564943764196"><ele>463.0</ele><time>2026-03-22T15:42:49.846Z</time></trkpt><trkpt lat="42.54960136395132" lon="11.786800311069891"><ele>461.0</ele><time>2026-03-22T15:42:50.846Z</time></trkpt><trkpt lat="42.54966266601912" lon="11.787028926110347"><ele>460.66666666666663</ele><time>2026-03-22T15:42:51.846Z</time></trkpt><trkpt lat="42.54971852521881" lon="11.787255270037626"><ele>460.33333333333337</ele><time>2026-03-22T15:42:52.846Z</time></trkpt><trkpt lat="42.549766171867525" lon="11.787478651615151"><ele>460.0</ele><time>2026-03-22T15:42:53.846Z</time></trkpt><trkpt lat="42.54980927612325" lon="11.787698860048405"><ele>460.0</ele><time>2026-03-22T15:42:54.846Z</time></trkpt><trkpt lat="42.549841958588395" lon="11.787909908000817"><ele>460.0</ele><time>2026-03-22T15:42:55.846Z</time></trkpt><trkpt lat="42.54986015138998" lon="11.78811937223058"><ele>460.0</ele><time>2026-03-22T15:42:56.846Z</time></trkpt><trkpt lat="42.549864207878" lon="11.788325377480593"><ele>460.33333333333337</ele><time>2026-03-22T15:42:57.846Z</time></trkpt><trkpt lat="42.54986246367334" lon="11.788545238931244"><ele>460.66666666666663</ele><time>2026-03-22T15:42:58.845Z</time></trkpt><trkpt lat="42.54985879232067" lon="11.788755624867537"><ele>461.0</ele><time>2026-03-22T15:42:59.845Z</time></trkpt><trkpt lat="42.549855052713475" lon="11.78895523612047"><ele>461.0</ele><time>2026-03-22T15:43:00.845Z</time></trkpt><trkpt lat="42.54985204388664" lon="11.789152361454677"><ele>461.0</ele><time>2026-03-22T15:43:01.845Z</time></trkpt><trkpt lat="42.54985069494132" lon="11.789345943557523"><ele>461.0</ele><time>2026-03-22T15:43:02.845Z</time></trkpt><trkpt lat="42.549860313659" lon="11.789545233071735"><ele>461.0</ele><time>2026-03-22T15:43:03.845Z</time></trkpt><trkpt lat="42.54987987877331" lon="11.789743759999734"><ele>462.3333333333333</ele><time>2026-03-22T15:43:04.845Z</time></trkpt><trkpt lat="42.54993019543262" lon="11.789941400465276"><ele>463.66666666666663</ele><time>2026-03-22T15:43:05.845Z</time></trkpt><trkpt lat="42.54996458783338" lon="11.790153652790806"><ele>465.0</ele><time>2026-03-22T15:43:06.845Z</time></trkpt><trkpt lat="42.55003528565683" lon="11.790372257399872"><ele>465.0</ele><time>2026-03-22T15:43:07.845Z</time></trkpt><trkpt lat="42.55013660805656" lon="11.790622592655193"><ele>465.0</ele><time>2026-03-22T15:43:08.845Z</time></trkpt><trkpt lat="42.55025805888104" lon="11.790886956915031"><ele>465.0</ele><time>2026-03-22T15:43:09.845Z</time></trkpt><trkpt lat="42.55038018667087" lon="11.791142953730917"><ele>466.0</ele><time>2026-03-22T15:43:10.845Z</time></trkpt><trkpt lat="42.550497939816424" lon="11.791389098112775"><ele>467.0</ele><time>2026-03-22T15:43:11.845Z</time></trkpt><trkpt lat="42.5506357338388" lon="11.791634127442231"><ele>468.0</ele><time>2026-03-22T15:43:12.845Z</time></trkpt><trkpt lat="42.55075924870878" lon="11.791904994195365"><ele>472.5</ele><time>2026-03-22T15:43:13.845Z</time></trkpt><trkpt lat="42.55090757646202" lon="11.792175721827075"><ele>477.0</ele><time>2026-03-22T15:43:14.845Z</time></trkpt><trkpt lat="42.551065931068955" lon="11.792449865368914"><ele>478.5</ele><time>2026-03-22T15:43:15.845Z</time></trkpt><trkpt lat="42.55124353497084" lon="11.792715850566083"><ele>480.0</ele><time>2026-03-22T15:43:16.845Z</time></trkpt><trkpt lat="42.55140940728491" lon="11.792992510716747"><ele>480.0</ele><time>2026-03-22T15:43:17.845Z</time></trkpt><trkpt lat="42.55156982877125" lon="11.793236310094725"><ele>480.0</ele><time>2026-03-22T15:43:18.845Z</time></trkpt><trkpt lat="42.55172024202589" lon="11.79346720000525"><ele>485.0</ele><time>2026-03-22T15:43:19.845Z</time></trkpt><trkpt lat="42.55186615650494" lon="11.79370903866485"><ele>490.0</ele><time>2026-03-22T15:43:20.845Z</time></trkpt><trkpt lat="42.552007255541696" lon="11.793965251023034"><ele>488.0</ele><time>2026-03-22T15:43:21.845Z</time></trkpt><trkpt lat="42.55213837743863" lon="11.79423539080117"><ele>486.0</ele><time>2026-03-22T15:43:22.845Z</time></trkpt><trkpt lat="42.55225238376402" lon="11.794502679842552"><ele>486.0</ele><time>2026-03-22T15:43:23.845Z</time></trkpt><trkpt lat="42.55236128345569" lon="11.794774718896754"><ele>486.0</ele><time>2026-03-22T15:43:24.845Z</time></trkpt><trkpt lat="42.55250960743888" lon="11.795029269597489"><ele>488.0</ele><time>2026-03-22T15:43:25.845Z</time></trkpt><trkpt lat="42.55268510993611" lon="11.795249147298362"><ele>490.0</ele><time>2026-03-22T15:43:26.845Z</time></trkpt><trkpt lat="42.552865899101285" lon="11.795465351632028"><ele>490.5</ele><time>2026-03-22T15:43:27.845Z</time></trkpt><trkpt lat="42.55304827310836" lon="11.795681135017889"><ele>491.0</ele><time>2026-03-22T15:43:28.845Z</time></trkpt><trkpt lat="42.55322787293341" lon="11.795912016997756"><ele>493.0</ele><time>2026-03-22T15:43:29.844Z</time></trkpt><trkpt lat="42.553397841344136" lon="11.796156174961336"><ele>495.0</ele><time>2026-03-22T15:43:30.844Z</time></trkpt><trkpt lat="42.55355724072772" lon="11.796400954033324"><ele>494.5</ele><time>2026-03-22T15:43:31.844Z</time></trkpt><trkpt lat="42.5537154424766" lon="11.796636249937077"><ele>494.0</ele><time>2026-03-22T15:43:32.844Z</time></trkpt><trkpt lat="42.55387699521942" lon="11.796881792282978"><ele>496.0</ele><time>2026-03-22T15:43:33.844Z</time></trkpt><trkpt lat="42.55402548328873" lon="11.797118826348921"><ele>498.0</ele><time>2026-03-22T15:43:34.844Z</time></trkpt><trkpt lat="42.55416770058758" lon="11.79735007932458"><ele>498.0</ele><time>2026-03-22T15:43:35.844Z</time></trkpt><trkpt lat="42.55430644643295" lon="11.797583873839207"><ele>498.0</ele><time>2026-03-22T15:43:36.844Z</time></trkpt><trkpt lat="42.554438716729116" lon="11.797832902267565"><ele>498.0</ele><time>2026-03-22T15:43:37.844Z</time></trkpt><trkpt lat="42.55456357379019" lon="11.798095085857412"><ele>496.5</ele><time>2026-03-22T15:43:38.844Z</time></trkpt><trkpt lat="42.55467589249214" lon="11.79837919300668"><ele>495.0</ele><time>2026-03-22T15:43:39.844Z</time></trkpt><trkpt lat="42.55483838708949" lon="11.798625766255562"><ele>495.0</ele><time>2026-03-22T15:43:40.844Z</time></trkpt><trkpt lat="42.55499319219254" lon="11.798869228609096"><ele>495.0</ele><time>2026-03-22T15:43:41.844Z</time></trkpt><trkpt lat="42.555156301109726" lon="11.799105695007897"><ele>495.0</ele><time>2026-03-22T15:43:42.844Z</time></trkpt><trkpt lat="42.555348878474774" lon="11.799325114314692"><ele>495.0</ele><time>2026-03-22T15:43:43.844Z</time></trkpt><trkpt lat="42.55552615472077" lon="11.799570484035446"><ele>496.5</ele><time>2026-03-22T15:43:44.844Z</time></trkpt><trkpt lat="42.555717036608684" lon="11.799803713101625"><ele>498.0</ele><time>2026-03-22T15:43:45.844Z</time></trkpt><trkpt lat="42.55596581577931" lon="11.799951544117013"><ele>498.0</ele><time>2026-03-22T15:43:46.844Z</time></trkpt><trkpt lat="42.55617104850058" lon="11.800150414417184"><ele>498.0</ele><time>2026-03-22T15:43:47.844Z</time></trkpt><trkpt lat="42.556366174301225" lon="11.800336717404164"><ele>499.0</ele><time>2026-03-22T15:43:48.844Z</time></trkpt><trkpt lat="42.55655456263152" lon="11.800517467311215"><ele>500.0</ele><time>2026-03-22T15:43:49.844Z</time></trkpt><trkpt lat="42.55674048276504" lon="11.80070405961361"><ele>500.0</ele><time>2026-03-22T15:43:50.844Z</time></trkpt><trkpt lat="42.556917891252496" lon="11.800890843897173"><ele>500.0</ele><time>2026-03-22T15:43:51.844Z</time></trkpt><trkpt lat="42.55708346351888" lon="11.801094824828672"><ele>500.0</ele><time>2026-03-22T15:43:52.844Z</time></trkpt><trkpt lat="42.55723159152927" lon="11.801317896803242"><ele>502.5</ele><time>2026-03-22T15:43:53.844Z</time></trkpt><trkpt lat="42.55735173058113" lon="11.801571445684598"><ele>505.0</ele><time>2026-03-22T15:43:54.844Z</time></trkpt><trkpt lat="42.55746204649431" lon="11.801851652536145"><ele>505.0</ele><time>2026-03-22T15:43:55.844Z</time></trkpt><trkpt lat="42.55757581564081" lon="11.802142571541026"><ele>505.0</ele><time>2026-03-22T15:43:56.844Z</time></trkpt><trkpt lat="42.55768185360051" lon="11.802422313051736"><ele>503.6666666666667</ele><time>2026-03-22T15:43:57.844Z</time></trkpt><trkpt lat="42.55777975086242" lon="11.802694118329192"><ele>502.33333333333337</ele><time>2026-03-22T15:43:58.844Z</time></trkpt><trkpt lat="42.55788478739678" lon="11.802954280783277"><ele>501.0</ele><time>2026-03-22T15:43:59.844Z</time></trkpt><trkpt lat="42.55801320322074" lon="11.803198781196315"><ele>501.0</ele><time>2026-03-22T15:44:00.844Z</time></trkpt><trkpt lat="42.55816846542781" lon="11.803405413365104"><ele>501.0</ele><time>2026-03-22T15:44:01.843Z</time></trkpt><trkpt lat="42.55833739663005" lon="11.803579656611193"><ele>501.0</ele><time>2026-03-22T15:44:02.843Z</time></trkpt><trkpt lat="42.55849864403984" lon="11.803740328557794"><ele>502.0</ele><time>2026-03-22T15:44:03.843Z</time></trkpt><trkpt lat="42.55863750218497" lon="11.803923101108754"><ele>503.0</ele><time>2026-03-22T15:44:04.843Z</time></trkpt><trkpt lat="42.55876782155277" lon="11.804129205564218"><ele>504.0</ele><time>2026-03-22T15:44:05.843Z</time></trkpt><trkpt lat="42.55885793310066" lon="11.804355255272494"><ele>507.33333333333337</ele><time>2026-03-22T15:44:06.843Z</time></trkpt><trkpt lat="42.558922466407836" lon="11.804618743595563"><ele>510.6666666666667</ele><time>2026-03-22T15:44:07.843Z</time></trkpt><trkpt lat="42.558964749094024" lon="11.804865678738576"><ele>514.0</ele><time>2026-03-22T15:44:08.843Z</time></trkpt><trkpt lat="42.55896053118902" lon="11.80508999754156"><ele>512.6666666666667</ele><time>2026-03-22T15:44:09.843Z</time></trkpt><trkpt lat="42.55893136921106" lon="11.805335691420899"><ele>511.33333333333337</ele><time>2026-03-22T15:44:10.843Z</time></trkpt><trkpt lat="42.55889667393775" lon="11.805618028268302"><ele>510.0</ele><time>2026-03-22T15:44:11.843Z</time></trkpt><trkpt lat="42.5588678792701" lon="11.805922149856913"><ele>511.0</ele><time>2026-03-22T15:44:12.843Z</time></trkpt><trkpt lat="42.5588486867862" lon="11.806240306748286"><ele>512.0</ele><time>2026-03-22T15:44:13.843Z</time></trkpt><trkpt lat="42.558831020371464" lon="11.806559423899744"><ele>514.3333333333333</ele><time>2026-03-22T15:44:14.843Z</time></trkpt><trkpt lat="42.55882258557435" lon="11.806863023077694"><ele>516.6666666666666</ele><time>2026-03-22T15:44:15.843Z</time></trkpt><trkpt lat="42.55882057623725" lon="11.807138106820622"><ele>519.0</ele><time>2026-03-22T15:44:16.843Z</time></trkpt><trkpt lat="42.55885252403416" lon="11.807396510395469"><ele>519.0</ele><time>2026-03-22T15:44:17.843Z</time></trkpt><trkpt lat="42.55891439653819" lon="11.807646447946503"><ele>519.0</ele><time>2026-03-22T15:44:18.843Z</time></trkpt><trkpt lat="42.55900968191766" lon="11.807878600837444"><ele>519.0</ele><time>2026-03-22T15:44:19.843Z</time></trkpt><trkpt lat="42.55911436259386" lon="11.808104684527041"><ele>519.3333333333334</ele><time>2026-03-22T15:44:20.843Z</time></trkpt><trkpt lat="42.55922076987899" lon="11.808299622979764"><ele>519.6666666666667</ele><time>2026-03-22T15:44:21.843Z</time></trkpt><trkpt lat="42.55934882071673" lon="11.808505527644405"><ele>520.0</ele><time>2026-03-22T15:44:22.843Z</time></trkpt><trkpt lat="42.559451345993786" lon="11.808724195857566"><ele>520.0</ele><time>2026-03-22T15:44:23.843Z</time></trkpt><trkpt lat="42.559510886325796" lon="11.808973125979502"><ele>520.0</ele><time>2026-03-22T15:44:24.843Z</time></trkpt><trkpt lat="42.55953945902161" lon="11.809274337688887"><ele>520.0</ele><time>2026-03-22T15:44:25.843Z</time></trkpt><trkpt lat="42.55956540351603" lon="11.809523014037513"><ele>519.75</ele><time>2026-03-22T15:44:26.843Z</time></trkpt><trkpt lat="42.55958909127166" lon="11.80973084647467"><ele>519.5</ele><time>2026-03-22T15:44:27.843Z</time></trkpt><trkpt lat="42.55959770567961" lon="11.809917752568147"><ele>519.25</ele><time>2026-03-22T15:44:28.843Z</time></trkpt><trkpt lat="42.55956777598269" lon="11.810112102349505"><ele>519.0</ele><time>2026-03-22T15:44:29.843Z</time></trkpt><trkpt lat="42.559531139130605" lon="11.81029762157796"><ele>519.6</ele><time>2026-03-22T15:44:30.843Z</time></trkpt><trkpt lat="42.559507715398304" lon="11.810426561672747"><ele>520.2</ele><time>2026-03-22T15:44:31.843Z</time></trkpt><trkpt lat="42.55948439829393" lon="11.810535878817271"><ele>520.8000000000001</ele><time>2026-03-22T15:44:32.843Z</time></trkpt><trkpt lat="42.559464241266454" lon="11.810703140366112"><ele>521.4</ele><time>2026-03-22T15:44:34.842Z</time></trkpt><trkpt lat="42.559440111687806" lon="11.810782610363415"><ele>522.0</ele><time>2026-03-22T15:44:36.844Z</time></trkpt><trkpt lat="42.55947180888028" lon="11.810882559132699"><ele>522.0</ele><time>2026-03-22T15:44:56.844Z</time></trkpt><trkpt lat="42.559529508581804" lon="11.810936139355919"><ele>522.0</ele><time>2026-03-22T15:44:57.844Z</time></trkpt><trkpt lat="42.55962100512897" lon="11.810972453954651"><ele>522.0</ele><time>2026-03-22T15:44:58.844Z</time></trkpt><trkpt lat="42.55972787517159" lon="11.810994955854358"><ele>522.0</ele><time>2026-03-22T15:44:59.844Z</time></trkpt><trkpt lat="42.55984977404884" lon="11.811025116737193"><ele>522.0</ele><time>2026-03-22T15:45:00.844Z</time></trkpt><trkpt lat="42.55999218441988" lon="11.81107250333508"><ele>522.3333333333334</ele><time>2026-03-22T15:45:01.844Z</time></trkpt><trkpt lat="42.56014595706787" lon="11.811133919233507"><ele>522.6666666666667</ele><time>2026-03-22T15:45:02.844Z</time></trkpt><trkpt lat="42.56030538796907" lon="11.811202538851244"><ele>523.0</ele><time>2026-03-22T15:45:03.844Z</time></trkpt><trkpt lat="42.56047171705167" lon="11.811311911461418"><ele>521.0</ele><time>2026-03-22T15:45:04.844Z</time></trkpt><trkpt lat="42.5606424471333" lon="11.811434639191905"><ele>519.0</ele><time>2026-03-22T15:45:05.844Z</time></trkpt><trkpt lat="42.56082534495873" lon="11.811585165623"><ele>517.0</ele><time>2026-03-22T15:45:06.844Z</time></trkpt><trkpt lat="42.56101084948031" lon="11.811740383007383"><ele>516.0</ele><time>2026-03-22T15:45:07.844Z</time></trkpt><trkpt lat="42.5611920336199" lon="11.811907884571744"><ele>515.0</ele><time>2026-03-22T15:45:08.844Z</time></trkpt><trkpt lat="42.561365965772836" lon="11.812094942453644"><ele>514.0</ele><time>2026-03-22T15:45:09.844Z</time></trkpt><trkpt lat="42.56152971584272" lon="11.81230385034702"><ele>514.0</ele><time>2026-03-22T15:45:10.844Z</time></trkpt><trkpt lat="42.56167431927022" lon="11.812505734727463"><ele>514.0</ele><time>2026-03-22T15:45:11.844Z</time></trkpt><trkpt lat="42.56179440488276" lon="11.812708970254436"><ele>514.0</ele><time>2026-03-22T15:45:12.844Z</time></trkpt><trkpt lat="42.561907669066294" lon="11.812935244970507"><ele>513.3333333333334</ele><time>2026-03-22T15:45:13.844Z</time></trkpt><trkpt lat="42.562019638002575" lon="11.813176568158099"><ele>512.6666666666666</ele><time>2026-03-22T15:45:14.844Z</time></trkpt><trkpt lat="42.56212524314366" lon="11.813412035304802"><ele>512.0</ele><time>2026-03-22T15:45:15.844Z</time></trkpt><trkpt lat="42.56223594222636" lon="11.813638120261624"><ele>511.66666666666663</ele><time>2026-03-22T15:45:16.843Z</time></trkpt><trkpt lat="42.56234612127437" lon="11.8138720946663"><ele>511.33333333333337</ele><time>2026-03-22T15:45:17.843Z</time></trkpt><trkpt lat="42.5624617516443" lon="11.814100362235614"><ele>511.0</ele><time>2026-03-22T15:45:18.843Z</time></trkpt><trkpt lat="42.56258345056601" lon="11.814351660672882"><ele>514.6666666666667</ele><time>2026-03-22T15:45:19.843Z</time></trkpt><trkpt lat="42.5627079058645" lon="11.814612978076779"><ele>518.3333333333334</ele><time>2026-03-22T15:45:20.843Z</time></trkpt><trkpt lat="42.56281319346503" lon="11.814856769434224"><ele>522.0</ele><time>2026-03-22T15:45:21.843Z</time></trkpt><trkpt lat="42.56292716316759" lon="11.815099424932004"><ele>521.0</ele><time>2026-03-22T15:45:22.843Z</time></trkpt><trkpt lat="42.56306368425639" lon="11.815390239839019"><ele>520.0</ele><time>2026-03-22T15:45:23.843Z</time></trkpt><trkpt lat="42.563179357817795" lon="11.815637315767272"><ele>520.0</ele><time>2026-03-22T15:45:24.843Z</time></trkpt><trkpt lat="42.56329372015486" lon="11.81588146920766"><ele>520.0</ele><time>2026-03-22T15:45:25.843Z</time></trkpt><trkpt lat="42.563411582382955" lon="11.816135012714835"><ele>520.0</ele><time>2026-03-22T15:45:26.843Z</time></trkpt><trkpt lat="42.56353139592799" lon="11.81639366334966"><ele>519.0</ele><time>2026-03-22T15:45:27.843Z</time></trkpt><trkpt lat="42.56365092500033" lon="11.816648280311297"><ele>518.0</ele><time>2026-03-22T15:45:28.843Z</time></trkpt><trkpt lat="42.5637701886866" lon="11.816884102285455"><ele>517.0</ele><time>2026-03-22T15:45:29.843Z</time></trkpt><trkpt lat="42.563905666142574" lon="11.817098239321115"><ele>517.0</ele><time>2026-03-22T15:45:30.843Z</time></trkpt><trkpt lat="42.56403967087714" lon="11.817271060032162"><ele>517.0</ele><time>2026-03-22T15:45:31.843Z</time></trkpt><trkpt lat="42.56418487509216" lon="11.817438861196006"><ele>517.0</ele><time>2026-03-22T15:45:32.843Z</time></trkpt><trkpt lat="42.564341961419544" lon="11.817584911989467"><ele>517.3333333333334</ele><time>2026-03-22T15:45:33.843Z</time></trkpt><trkpt lat="42.56449151069556" lon="11.817749722968387"><ele>517.6666666666666</ele><time>2026-03-22T15:45:34.843Z</time></trkpt><trkpt lat="42.56463367228275" lon="11.81789152763686"><ele>518.0</ele><time>2026-03-22T15:45:35.843Z</time></trkpt><trkpt lat="42.564771417889695" lon="11.81802140909042"><ele>518.0</ele><time>2026-03-22T15:45:36.843Z</time></trkpt><trkpt lat="42.564921478582086" lon="11.818133554575656"><ele>518.0</ele><time>2026-03-22T15:45:37.843Z</time></trkpt><trkpt lat="42.56507390420222" lon="11.818220638155275"><ele>518.0</ele><time>2026-03-22T15:45:38.843Z</time></trkpt><trkpt lat="42.565237687086224" lon="11.818277452842072"><ele>517.6666666666666</ele><time>2026-03-22T15:45:39.843Z</time></trkpt><trkpt lat="42.56539674808239" lon="11.818309515563394"><ele>517.3333333333334</ele><time>2026-03-22T15:45:40.843Z</time></trkpt><trkpt lat="42.565559923632605" lon="11.818319636423855"><ele>517.0</ele><time>2026-03-22T15:45:41.843Z</time></trkpt><trkpt lat="42.56570809531649" lon="11.818321003219046"><ele>517.0</ele><time>2026-03-22T15:45:42.843Z</time></trkpt><trkpt lat="42.56585129815349" lon="11.818339030150923"><ele>517.0</ele><time>2026-03-22T15:45:43.843Z</time></trkpt><trkpt lat="42.565984702897254" lon="11.818359343207629"><ele>517.0</ele><time>2026-03-22T15:45:44.843Z</time></trkpt><trkpt lat="42.56610434751388" lon="11.818370950734849"><ele>517.0</ele><time>2026-03-22T15:45:45.843Z</time></trkpt><trkpt lat="42.56621204708123" lon="11.818386105993094"><ele>517.0</ele><time>2026-03-22T15:45:46.843Z</time></trkpt><trkpt lat="42.566302458712194" lon="11.818406266953065"><ele>517.0</ele><time>2026-03-22T15:45:47.842Z</time></trkpt><trkpt lat="42.566372791559616" lon="11.81845454104544"><ele>517.0</ele><time>2026-03-22T15:45:48.842Z</time></trkpt><trkpt lat="42.56641995151019" lon="11.818539087121017"><ele>517.0</ele><time>2026-03-22T15:45:49.842Z</time></trkpt><trkpt lat="42.56641804140864" lon="11.818640052011721"><ele>517.0</ele><time>2026-03-22T15:45:50.842Z</time></trkpt><trkpt lat="42.56643868666933" lon="11.818733730178002"><ele>517.0</ele><time>2026-03-22T15:45:51.842Z</time></trkpt><trkpt lat="42.56625995426135" lon="11.81863504321423"><ele>517.0</ele><time>2026-03-22T15:45:52.842Z</time></trkpt><trkpt lat="42.56619835724142" lon="11.81872317020462"><ele>517.0</ele><time>2026-03-22T15:45:53.842Z</time></trkpt><trkpt lat="42.566182493928494" lon="11.81905871695142"><ele>517.0</ele><time>2026-03-22T15:45:54.842Z</time></trkpt><trkpt lat="42.56618682387599" lon="11.819179256769552"><ele>517.0</ele><time>2026-03-22T15:45:55.842Z</time></trkpt><trkpt lat="42.56619253810493" lon="11.819299172900154"><ele>517.2</ele><time>2026-03-22T15:45:56.842Z</time></trkpt><trkpt lat="42.56620406713678" lon="11.819419509997255"><ele>517.4000000000001</ele><time>2026-03-22T15:45:57.842Z</time></trkpt><trkpt lat="42.56621271664785" lon="11.819516015776628"><ele>517.5999999999999</ele><time>2026-03-22T15:45:58.842Z</time></trkpt><trkpt lat="42.56622117277192" lon="11.81961036388534"><ele>517.8</ele><time>2026-03-22T15:45:59.842Z</time></trkpt><trkpt lat="42.56630242012244" lon="11.819706620990313"><ele>518.0</ele><time>2026-03-22T15:46:00.842Z</time></trkpt><trkpt lat="42.566347269676555" lon="11.819864421511747"><ele>518.0</ele><time>2026-03-22T15:46:02.842Z</time></trkpt><trkpt lat="42.56636340741486" lon="11.819954549555376"><ele>518.0</ele><time>2026-03-22T15:46:03.842Z</time></trkpt><trkpt lat="42.56647122228334" lon="11.819940810667697"><ele>518.0</ele><time>2026-03-22T15:46:04.842Z</time></trkpt><trkpt lat="42.5663333737734" lon="11.820187033055717"><ele>518.0</ele><time>2026-03-22T15:46:05.842Z</time></trkpt><trkpt lat="42.56632523391006" lon="11.820296533176847"><ele>518.8</ele><time>2026-03-22T15:46:06.842Z</time></trkpt><trkpt lat="42.56632031656691" lon="11.820419031411545"><ele>519.5999999999999</ele><time>2026-03-22T15:46:07.842Z</time></trkpt><trkpt lat="42.56631511115266" lon="11.820571966213802"><ele>520.4000000000001</ele><time>2026-03-22T15:46:08.842Z</time></trkpt><trkpt lat="42.566311871208775" lon="11.820718579071835"><ele>521.2</ele><time>2026-03-22T15:46:09.842Z</time></trkpt><trkpt lat="42.56630599439904" lon="11.820893987435907"><ele>522.0</ele><time>2026-03-22T15:46:10.842Z</time></trkpt><trkpt lat="42.566292396123416" lon="11.821093014064198"><ele>522.25</ele><time>2026-03-22T15:46:11.842Z</time></trkpt><trkpt lat="42.56626172695739" lon="11.821294888440786"><ele>522.5</ele><time>2026-03-22T15:46:12.842Z</time></trkpt><trkpt lat="42.56624032371529" lon="11.821496641077838"><ele>522.75</ele><time>2026-03-22T15:46:13.842Z</time></trkpt><trkpt lat="42.5662193306629" lon="11.821685417005384"><ele>523.0</ele><time>2026-03-22T15:46:14.842Z</time></trkpt><trkpt lat="42.566206116956224" lon="11.821858843781603"><ele>525.4</ele><time>2026-03-22T15:46:15.842Z</time></trkpt><trkpt lat="42.56618940300694" lon="11.822021004282748"><ele>527.8</ele><time>2026-03-22T15:46:16.842Z</time></trkpt><trkpt lat="42.566174265434164" lon="11.82217187656144"><ele>530.2</ele><time>2026-03-22T15:46:17.842Z</time></trkpt><trkpt lat="42.566165945206535" lon="11.822311110324664"><ele>532.6</ele><time>2026-03-22T15:46:18.842Z</time></trkpt><trkpt lat="42.56615395514117" lon="11.822445073654032"><ele>535.0</ele><time>2026-03-22T15:46:19.841Z</time></trkpt><trkpt lat="42.56614425841737" lon="11.822569734700457"><ele>534.6</ele><time>2026-03-22T15:46:20.841Z</time></trkpt><trkpt lat="42.566139783772904" lon="11.82268915561687"><ele>534.2</ele><time>2026-03-22T15:46:21.841Z</time></trkpt><trkpt lat="42.56613511848929" lon="11.822809055471003"><ele>533.8</ele><time>2026-03-22T15:46:22.841Z</time></trkpt><trkpt lat="42.56612764082801" lon="11.822929317872331"><ele>533.4</ele><time>2026-03-22T15:46:23.841Z</time></trkpt><trkpt lat="42.566120278987846" lon="11.823053725541051"><ele>533.0</ele><time>2026-03-22T15:46:24.841Z</time></trkpt><trkpt lat="42.56611516946639" lon="11.823187795535073"><ele>533.0</ele><time>2026-03-22T15:46:25.841Z</time></trkpt><trkpt lat="42.566110040304885" lon="11.823334641489607"><ele>533.0</ele><time>2026-03-22T15:46:26.841Z</time></trkpt><trkpt lat="42.566105139156825" lon="11.823474484514971"><ele>533.0</ele><time>2026-03-22T15:46:27.841Z</time></trkpt><trkpt lat="42.566106351493445" lon="11.823599747009036"><ele>533.0</ele><time>2026-03-22T15:46:28.841Z</time></trkpt><trkpt lat="42.5661126138797" lon="11.823699121679741"><ele>533.0</ele><time>2026-03-22T15:46:29.841Z</time></trkpt><trkpt lat="42.566122262695174" lon="11.823783873797595"><ele>533.0</ele><time>2026-03-22T15:46:30.841Z</time></trkpt><trkpt lat="42.566165621787704" lon="11.823939898833874"><ele>532.25</ele><time>2026-03-22T15:46:32.841Z</time></trkpt><trkpt lat="42.56622038432898" lon="11.824026200699823"><ele>531.5</ele><time>2026-03-22T15:46:33.841Z</time></trkpt><trkpt lat="42.566301926930194" lon="11.824126294648313"><ele>530.75</ele><time>2026-03-22T15:46:34.841Z</time></trkpt><trkpt lat="42.56639728192005" lon="11.82424576965365"><ele>530.0</ele><time>2026-03-22T15:46:35.841Z</time></trkpt><trkpt lat="42.56648247464012" lon="11.824376406298343"><ele>529.8</ele><time>2026-03-22T15:46:36.841Z</time></trkpt><trkpt lat="42.56656835719912" lon="11.824508040534992"><ele>529.6</ele><time>2026-03-22T15:46:37.841Z</time></trkpt><trkpt lat="42.566652173444346" lon="11.824636130198481"><ele>529.4</ele><time>2026-03-22T15:46:38.841Z</time></trkpt><trkpt lat="42.566717435977644" lon="11.824739086232745"><ele>529.2</ele><time>2026-03-22T15:46:39.841Z</time></trkpt><trkpt lat="42.56677227400613" lon="11.82482599967239"><ele>529.0</ele><time>2026-03-22T15:46:40.841Z</time></trkpt><trkpt lat="42.56682763277835" lon="11.824925323733783"><ele>529.0</ele><time>2026-03-22T15:46:41.841Z</time></trkpt><trkpt lat="42.56689434788824" lon="11.825028698016846"><ele>529.0</ele><time>2026-03-22T15:46:42.843Z</time></trkpt><trkpt lat="42.56695641441752" lon="11.825164102888847"><ele>529.0</ele><time>2026-03-22T15:46:43.843Z</time></trkpt><trkpt lat="42.56701290910226" lon="11.82532137977012"><ele>529.0</ele><time>2026-03-22T15:46:44.843Z</time></trkpt><trkpt lat="42.56706432545383" lon="11.825483722358"><ele>526.75</ele><time>2026-03-22T15:46:45.842Z</time></trkpt><trkpt lat="42.56711076640173" lon="11.825654312352352"><ele>524.5</ele><time>2026-03-22T15:46:46.842Z</time></trkpt><trkpt lat="42.567151097634614" lon="11.825834823948329"><ele>522.25</ele><time>2026-03-22T15:46:47.842Z</time></trkpt><trkpt lat="42.56716927229582" lon="11.826016669554344"><ele>520.0</ele><time>2026-03-22T15:46:48.842Z</time></trkpt><trkpt lat="42.567197796230936" lon="11.826176791352081"><ele>518.5</ele><time>2026-03-22T15:46:49.843Z</time></trkpt><trkpt lat="42.56723342147502" lon="11.82633771605714"><ele>517.0</ele><time>2026-03-22T15:46:50.843Z</time></trkpt><trkpt lat="42.56727608934123" lon="11.826494197429778"><ele>515.5</ele><time>2026-03-22T15:46:51.842Z</time></trkpt><trkpt lat="42.567310038927545" lon="11.826642375624086"><ele>514.0</ele><time>2026-03-22T15:46:52.843Z</time></trkpt><trkpt lat="42.5673256308083" lon="11.826798867225374"><ele>511.0</ele><time>2026-03-22T15:46:53.843Z</time></trkpt><trkpt lat="42.567322602377544" lon="11.82694465065784"><ele>508.0</ele><time>2026-03-22T15:46:54.842Z</time></trkpt><trkpt lat="42.567323454465615" lon="11.827081679628925"><ele>505.0</ele><time>2026-03-22T15:46:55.842Z</time></trkpt><trkpt lat="42.567334885582255" lon="11.82722085244465"><ele>502.0</ele><time>2026-03-22T15:46:56.842Z</time></trkpt><trkpt lat="42.56737105852469" lon="11.827360421110216"><ele>499.0</ele><time>2026-03-22T15:46:57.842Z</time></trkpt><trkpt lat="42.56742186685822" lon="11.827493300684251"><ele>499.0</ele><time>2026-03-22T15:46:58.842Z</time></trkpt><trkpt lat="42.56749338561302" lon="11.827615504801377"><ele>499.0</ele><time>2026-03-22T15:46:59.842Z</time></trkpt><trkpt lat="42.56757633521779" lon="11.827726438902593"><ele>499.0</ele><time>2026-03-22T15:47:00.842Z</time></trkpt><trkpt lat="42.56766598860492" lon="11.827830949630842"><ele>499.0</ele><time>2026-03-22T15:47:01.842Z</time></trkpt><trkpt lat="42.567746064501726" lon="11.827936786718462"><ele>497.50000000000006</ele><time>2026-03-22T15:47:02.842Z</time></trkpt><trkpt lat="42.5678233101522" lon="11.82803522995489"><ele>496.0</ele><time>2026-03-22T15:47:03.842Z</time></trkpt><trkpt lat="42.567890515001984" lon="11.828121434810942"><ele>494.5</ele><time>2026-03-22T15:47:04.842Z</time></trkpt><trkpt lat="42.56794090270423" lon="11.82820464766996"><ele>493.0</ele><time>2026-03-22T15:47:05.842Z</time></trkpt><trkpt lat="42.567984975852774" lon="11.82829561660154"><ele>491.50000000000006</ele><time>2026-03-22T15:47:06.842Z</time></trkpt><trkpt lat="42.568018651758194" lon="11.828369092597121"><ele>490.0</ele><time>2026-03-22T15:47:07.842Z</time></trkpt><trkpt lat="42.56806801803598" lon="11.828483751632609"><ele>488.33333333333337</ele><time>2026-03-22T15:47:09.842Z</time></trkpt><trkpt lat="42.568082987043844" lon="11.828570123447456"><ele>486.6666666666667</ele><time>2026-03-22T15:47:10.842Z</time></trkpt><trkpt lat="42.56816672762898" lon="11.82862418349573"><ele>485.0</ele><time>2026-03-22T15:47:11.842Z</time></trkpt><trkpt lat="42.56821911178847" lon="11.828687086410332"><ele>483.33333333333337</ele><time>2026-03-22T15:47:13.842Z</time></trkpt><trkpt lat="42.56813724798971" lon="11.828794694528247"><ele>481.6666666666667</ele><time>2026-03-22T15:47:16.842Z</time></trkpt><trkpt lat="42.56807235359898" lon="11.828846656828283"><ele>480.0</ele><time>2026-03-22T15:47:18.842Z</time></trkpt><trkpt lat="42.568011199614304" lon="11.82889415307463"><ele>480.0</ele><time>2026-03-22T15:47:22.842Z</time></trkpt><trkpt lat="42.567953811293236" lon="11.82893872467738"><ele>480.0</ele><time>2026-03-22T15:47:32.841Z</time></trkpt><trkpt lat="42.56789505198762" lon="11.828984361069363"><ele>480.0</ele><time>2026-03-22T15:47:34.841Z</time></trkpt><trkpt lat="42.56781069187327" lon="11.829049651789171"><ele>480.0</ele><time>2026-03-22T15:47:36.841Z</time></trkpt><trkpt lat="42.56772216812606" lon="11.829117839696524"><ele>480.0</ele><time>2026-03-22T15:47:38.841Z</time></trkpt><trkpt lat="42.56761509960233" lon="11.82920160177119"><ele>480.0</ele><time>2026-03-22T15:47:40.841Z</time></trkpt><trkpt lat="42.56755297703404" lon="11.829257655492189"><ele>480.0</ele><time>2026-03-22T15:47:41.841Z</time></trkpt><trkpt lat="42.56748540997548" lon="11.82930532197281"><ele>480.0</ele><time>2026-03-22T15:47:42.841Z</time></trkpt><trkpt lat="42.5674197193045" lon="11.829352392379802"><ele>480.0</ele><time>2026-03-22T15:47:43.841Z</time></trkpt><trkpt lat="42.56736032796601" lon="11.829399759896754"><ele>480.0</ele><time>2026-03-22T15:47:44.841Z</time></trkpt><trkpt lat="42.567265438003616" lon="11.829472124885502"><ele>480.0</ele><time>2026-03-22T15:47:46.841Z</time></trkpt><trkpt lat="42.56720201870667" lon="11.829533906452612"><ele>479.42857142857144</ele><time>2026-03-22T15:47:49.841Z</time></trkpt><trkpt lat="42.567147630651554" lon="11.82958287539776"><ele>478.85714285714283</ele><time>2026-03-22T15:47:54.841Z</time></trkpt><trkpt lat="42.56707151010459" lon="11.829652269127951"><ele>478.2857142857143</ele><time>2026-03-22T15:48:01.84Z</time></trkpt><trkpt lat="42.56711915100884" lon="11.829595152424025"><ele>477.7142857142857</ele><time>2026-03-22T15:48:20.84Z</time></trkpt><trkpt lat="42.56718901036619" lon="11.829601864542031"><ele>477.1428571428571</ele><time>2026-03-22T16:03:54.854Z</time></trkpt><trkpt lat="42.56724194282282" lon="11.829543062458306"><ele>476.57142857142856</ele><time>2026-03-22T16:04:20.853Z</time></trkpt><trkpt lat="42.56732023591522" lon="11.829486101477723"><ele>476.0</ele><time>2026-03-22T16:04:23.853Z</time></trkpt><trkpt lat="42.56738927294884" lon="11.829433319961442"><ele>476.0</ele><time>2026-03-22T16:04:25.853Z</time></trkpt><trkpt lat="42.56745804098395" lon="11.829373487765604"><ele>476.0</ele><time>2026-03-22T16:04:27.853Z</time></trkpt><trkpt lat="42.56754070871325" lon="11.829330467262746"><ele>476.0</ele><time>2026-03-22T16:04:29.853Z</time></trkpt><trkpt lat="42.56764313857793" lon="11.829255506308062"><ele>476.0</ele><time>2026-03-22T16:04:31.853Z</time></trkpt><trkpt lat="42.56772869901053" lon="11.82918145163376"><ele>476.0</ele><time>2026-03-22T16:04:33.853Z</time></trkpt><trkpt lat="42.56781930784659" lon="11.829103956023085"><ele>476.8</ele><time>2026-03-22T16:04:35.853Z</time></trkpt><trkpt lat="42.567916460809116" lon="11.829049133414491"><ele>477.6</ele><time>2026-03-22T16:04:37.853Z</time></trkpt><trkpt lat="42.56799697928132" lon="11.828998787887427"><ele>478.4</ele><time>2026-03-22T16:04:39.853Z</time></trkpt><trkpt lat="42.5680742033248" lon="11.828911335159125"><ele>479.2</ele><time>2026-03-22T16:04:41.853Z</time></trkpt><trkpt lat="42.568159950545336" lon="11.828813423678275"><ele>480.0</ele><time>2026-03-22T16:04:43.853Z</time></trkpt><trkpt lat="42.56821698268076" lon="11.828746507400524"><ele>480.0</ele><time>2026-03-22T16:04:45.853Z</time></trkpt><trkpt lat="42.56823240091223" lon="11.82862670477711"><ele>480.0</ele><time>2026-03-22T16:04:50.852Z</time></trkpt><trkpt lat="42.56818566689936" lon="11.828523604262296"><ele>480.0</ele><time>2026-03-22T16:04:52.852Z</time></trkpt><trkpt lat="42.56811119304174" lon="11.828510707028986"><ele>480.0</ele><time>2026-03-22T16:04:54.852Z</time></trkpt><trkpt lat="42.568037189823" lon="11.828451833683982"><ele>480.0</ele><time>2026-03-22T16:04:56.852Z</time></trkpt><trkpt lat="42.567946120690756" lon="11.82841201474861"><ele>480.0</ele><time>2026-03-22T16:04:58.852Z</time></trkpt><trkpt lat="42.56783075580748" lon="11.828329448498447"><ele>480.8333333333333</ele><time>2026-03-22T16:05:00.852Z</time></trkpt><trkpt lat="42.56777259843783" lon="11.828276922311355"><ele>481.66666666666663</ele><time>2026-03-22T16:05:01.852Z</time></trkpt><trkpt lat="42.56770077374494" lon="11.828210456023948"><ele>482.5</ele><time>2026-03-22T16:05:02.852Z</time></trkpt><trkpt lat="42.56762351927104" lon="11.828152286880407"><ele>483.3333333333333</ele><time>2026-03-22T16:05:03.852Z</time></trkpt><trkpt lat="42.567543974060904" lon="11.828090961424632"><ele>484.16666666666663</ele><time>2026-03-22T16:05:04.852Z</time></trkpt><trkpt lat="42.56746774504029" lon="11.828032436104035"><ele>485.0</ele><time>2026-03-22T16:05:05.852Z</time></trkpt><trkpt lat="42.56739652378517" lon="11.827967695464121"><ele>485.0</ele><time>2026-03-22T16:05:06.852Z</time></trkpt><trkpt lat="42.56732978422385" lon="11.827900559359353"><ele>485.0</ele><time>2026-03-22T16:05:07.852Z</time></trkpt><trkpt lat="42.56726740315631" lon="11.827819567818741"><ele>485.0</ele><time>2026-03-22T16:05:08.852Z</time></trkpt><trkpt lat="42.567198420231456" lon="11.827735291275868"><ele>485.0</ele><time>2026-03-22T16:05:09.852Z</time></trkpt><trkpt lat="42.567123219076535" lon="11.827658128975214"><ele>485.0</ele><time>2026-03-22T16:05:10.852Z</time></trkpt><trkpt lat="42.56704178024419" lon="11.827579192901107"><ele>486.5</ele><time>2026-03-22T16:05:11.852Z</time></trkpt><trkpt lat="42.56694630700175" lon="11.827504096573254"><ele>488.0</ele><time>2026-03-22T16:05:12.852Z</time></trkpt><trkpt lat="42.56685044731893" lon="11.827434409968072"><ele>489.5</ele><time>2026-03-22T16:05:13.852Z</time></trkpt><trkpt lat="42.56674276522747" lon="11.827379047108389"><ele>491.0</ele><time>2026-03-22T16:05:14.852Z</time></trkpt><trkpt lat="42.56663414243203" lon="11.827315393557356"><ele>491.0</ele><time>2026-03-22T16:05:15.852Z</time></trkpt><trkpt lat="42.56651579553847" lon="11.827289121509045"><ele>491.0</ele><time>2026-03-22T16:05:16.852Z</time></trkpt><trkpt lat="42.5664094462725" lon="11.827257509753197"><ele>491.0</ele><time>2026-03-22T16:05:17.852Z</time></trkpt><trkpt lat="42.56630257460815" lon="11.827223648965326"><ele>491.0</ele><time>2026-03-22T16:05:18.852Z</time></trkpt><trkpt lat="42.56618916008501" lon="11.827199019967939"><ele>490.25</ele><time>2026-03-22T16:05:19.852Z</time></trkpt><trkpt lat="42.566067693644044" lon="11.827162188229899"><ele>489.5</ele><time>2026-03-22T16:05:20.852Z</time></trkpt><trkpt lat="42.565950111212736" lon="11.827121911418006"><ele>488.75</ele><time>2026-03-22T16:05:21.852Z</time></trkpt><trkpt lat="42.56584082110201" lon="11.827084709212967"><ele>488.0</ele><time>2026-03-22T16:05:22.852Z</time></trkpt><trkpt lat="42.565733323713204" lon="11.82706632150431"><ele>488.0</ele><time>2026-03-22T16:05:23.852Z</time></trkpt><trkpt lat="42.56563685509648" lon="11.827054142495129"><ele>487.99999999999994</ele><time>2026-03-22T16:05:24.852Z</time></trkpt><trkpt lat="42.56554459477884" lon="11.827035647500312"><ele>487.99999999999994</ele><time>2026-03-22T16:05:25.852Z</time></trkpt><trkpt lat="42.56545067009417" lon="11.827060884527025"><ele>488.0</ele><time>2026-03-22T16:05:26.852Z</time></trkpt><trkpt lat="42.56537024584075" lon="11.827141237802687"><ele>488.0</ele><time>2026-03-22T16:05:27.851Z</time></trkpt><trkpt lat="42.56528357582496" lon="11.827202053359997"><ele>489.2</ele><time>2026-03-22T16:05:28.851Z</time></trkpt><trkpt lat="42.56521855725982" lon="11.82729428173961"><ele>490.4</ele><time>2026-03-22T16:05:29.851Z</time></trkpt><trkpt lat="42.56517475668436" lon="11.82742783943325"><ele>491.59999999999997</ele><time>2026-03-22T16:05:30.851Z</time></trkpt><trkpt lat="42.565145612384995" lon="11.827566280962204"><ele>492.79999999999995</ele><time>2026-03-22T16:05:31.851Z</time></trkpt><trkpt lat="42.56511710927479" lon="11.827714203584934"><ele>494.0</ele><time>2026-03-22T16:05:32.851Z</time></trkpt><trkpt lat="42.56510178345554" lon="11.827880744573624"><ele>494.0</ele><time>2026-03-22T16:05:33.851Z</time></trkpt><trkpt lat="42.56506093279817" lon="11.828019429685558"><ele>494.0</ele><time>2026-03-22T16:05:34.851Z</time></trkpt><trkpt lat="42.56502100925448" lon="11.828149602454195"><ele>494.0</ele><time>2026-03-22T16:05:35.853Z</time></trkpt><trkpt lat="42.56496146198088" lon="11.828264302386511"><ele>494.0</ele><time>2026-03-22T16:05:36.853Z</time></trkpt><trkpt lat="42.56488873344414" lon="11.828347671992754"><ele>494.0</ele><time>2026-03-22T16:05:37.853Z</time></trkpt><trkpt lat="42.564799939247585" lon="11.828399318370666"><ele>494.0</ele><time>2026-03-22T16:05:38.853Z</time></trkpt><trkpt lat="42.564710557450326" lon="11.828431887918722"><ele>494.0</ele><time>2026-03-22T16:05:39.853Z</time></trkpt><trkpt lat="42.564603740498264" lon="11.828442553698718"><ele>494.0</ele><time>2026-03-22T16:05:40.853Z</time></trkpt><trkpt lat="42.56449893738388" lon="11.828459315176527"><ele>494.0</ele><time>2026-03-22T16:05:41.853Z</time></trkpt><trkpt lat="42.564401252363346" lon="11.828495461577209"><ele>494.0</ele><time>2026-03-22T16:05:42.853Z</time></trkpt><trkpt lat="42.56430769033663" lon="11.82853047568797"><ele>494.6</ele><time>2026-03-22T16:05:43.853Z</time></trkpt><trkpt lat="42.564224539453555" lon="11.82856502239342"><ele>495.2</ele><time>2026-03-22T16:05:44.853Z</time></trkpt><trkpt lat="42.56413346469995" lon="11.828597669954197"><ele>495.80000000000007</ele><time>2026-03-22T16:05:45.853Z</time></trkpt><trkpt lat="42.564035247309704" lon="11.828625958916618"><ele>496.40000000000003</ele><time>2026-03-22T16:05:46.853Z</time></trkpt><trkpt lat="42.563922042393195" lon="11.828656069380157"><ele>497.0</ele><time>2026-03-22T16:05:47.853Z</time></trkpt><trkpt lat="42.563808942781925" lon="11.828682538003568"><ele>498.75</ele><time>2026-03-22T16:05:48.853Z</time></trkpt><trkpt lat="42.56369251963576" lon="11.82870851954057"><ele>500.5</ele><time>2026-03-22T16:05:49.853Z</time></trkpt><trkpt lat="42.56357964417807" lon="11.82873824873923"><ele>502.25</ele><time>2026-03-22T16:05:50.853Z</time></trkpt><trkpt lat="42.56346645192625" lon="11.828770354871535"><ele>504.0</ele><time>2026-03-22T16:05:51.853Z</time></trkpt><trkpt lat="42.563357766449315" lon="11.828782722890013"><ele>504.0</ele><time>2026-03-22T16:05:52.853Z</time></trkpt><trkpt lat="42.563245214870705" lon="11.828812344891356"><ele>504.0</ele><time>2026-03-22T16:05:53.853Z</time></trkpt><trkpt lat="42.56313397356532" lon="11.828844314557944"><ele>504.0</ele><time>2026-03-22T16:05:54.853Z</time></trkpt><trkpt lat="42.56302062754623" lon="11.828879877467964"><ele>504.0</ele><time>2026-03-22T16:05:55.853Z</time></trkpt><trkpt lat="42.56290725321911" lon="11.828911213304472"><ele>504.3333333333333</ele><time>2026-03-22T16:05:56.853Z</time></trkpt><trkpt lat="42.56280523870401" lon="11.828923796954163"><ele>504.66666666666663</ele><time>2026-03-22T16:05:57.853Z</time></trkpt><trkpt lat="42.56272578460121" lon="11.828922068811387"><ele>505.0</ele><time>2026-03-22T16:05:58.853Z</time></trkpt><trkpt lat="42.56264195096478" lon="11.828916395056165"><ele>505.3333333333333</ele><time>2026-03-22T16:06:00.853Z</time></trkpt><trkpt lat="42.56257027059385" lon="11.82891308107808"><ele>505.66666666666663</ele><time>2026-03-22T16:06:06.853Z</time></trkpt><trkpt lat="42.56250001172143" lon="11.829021129200141"><ele>506.0</ele><time>2026-03-22T16:06:08.853Z</time></trkpt><trkpt lat="42.56249554153185" lon="11.829155621600425"><ele>506.0</ele><time>2026-03-22T16:06:09.853Z</time></trkpt><trkpt lat="42.56249071771176" lon="11.829300840912433"><ele>506.0</ele><time>2026-03-22T16:06:10.853Z</time></trkpt><trkpt lat="42.56249456898607" lon="11.829484066038647"><ele>506.0</ele><time>2026-03-22T16:06:11.853Z</time></trkpt><trkpt lat="42.56249966067204" lon="11.829672257320336"><ele>506.0</ele><time>2026-03-22T16:06:12.852Z</time></trkpt><trkpt lat="42.562513769072474" lon="11.829854347550995"><ele>504.75</ele><time>2026-03-22T16:06:13.852Z</time></trkpt><trkpt lat="42.56252865343233" lon="11.830019366243937"><ele>503.5</ele><time>2026-03-22T16:06:14.852Z</time></trkpt><trkpt lat="42.5625423841594" lon="11.83018304747683"><ele>502.25</ele><time>2026-03-22T16:06:15.852Z</time></trkpt><trkpt lat="42.56255769141304" lon="11.830349932257388"><ele>501.0</ele><time>2026-03-22T16:06:16.852Z</time></trkpt><trkpt lat="42.562574230280966" lon="11.83051035103394"><ele>500.3333333333333</ele><time>2026-03-22T16:06:17.852Z</time></trkpt><trkpt lat="42.562588038256884" lon="11.830661985458681"><ele>499.66666666666663</ele><time>2026-03-22T16:06:18.852Z</time></trkpt><trkpt lat="42.56259174277761" lon="11.830790112519859"><ele>499.0</ele><time>2026-03-22T16:06:19.852Z</time></trkpt><trkpt lat="42.56257067248364" lon="11.830896057147413"><ele>498.3333333333333</ele><time>2026-03-22T16:06:20.852Z</time></trkpt><trkpt lat="42.56252667356555" lon="11.830987394162126"><ele>497.66666666666663</ele><time>2026-03-22T16:06:21.852Z</time></trkpt><trkpt lat="42.56247287935604" lon="11.831056352479337"><ele>497.0</ele><time>2026-03-22T16:06:22.852Z</time></trkpt><trkpt lat="42.56242154215383" lon="11.831109791146451"><ele>496.25</ele><time>2026-03-22T16:06:23.852Z</time></trkpt><trkpt lat="42.5623445937224" lon="11.831169241604321"><ele>495.5</ele><time>2026-03-22T16:06:25.852Z</time></trkpt><trkpt lat="42.56224565777526" lon="11.831283144956108"><ele>494.75</ele><time>2026-03-22T16:06:27.852Z</time></trkpt><trkpt lat="42.56227098027711" lon="11.831460310722452"><ele>494.0</ele><time>2026-03-22T16:06:28.852Z</time></trkpt><trkpt lat="42.56227943767362" lon="11.83161054738651"><ele>494.0</ele><time>2026-03-22T16:06:29.852Z</time></trkpt><trkpt lat="42.562290850039126" lon="11.831770757641793"><ele>494.0</ele><time>2026-03-22T16:06:30.852Z</time></trkpt><trkpt lat="42.56230936273547" lon="11.831948848721547"><ele>494.0</ele><time>2026-03-22T16:06:31.852Z</time></trkpt><trkpt lat="42.562327705361604" lon="11.83213539671936"><ele>494.0</ele><time>2026-03-22T16:06:32.852Z</time></trkpt><trkpt lat="42.562347909818286" lon="11.832333593018582"><ele>492.66666666666663</ele><time>2026-03-22T16:06:33.852Z</time></trkpt><trkpt lat="42.56237240297455" lon="11.832545286247349"><ele>491.33333333333337</ele><time>2026-03-22T16:06:34.852Z</time></trkpt><trkpt lat="42.56239540581418" lon="11.832767034868118"><ele>490.0</ele><time>2026-03-22T16:06:35.852Z</time></trkpt><trkpt lat="42.56241447169862" lon="11.8329859791778"><ele>489.33333333333337</ele><time>2026-03-22T16:06:36.852Z</time></trkpt><trkpt lat="42.56243483712906" lon="11.833207356563712"><ele>488.66666666666663</ele><time>2026-03-22T16:06:37.852Z</time></trkpt><trkpt lat="42.56245725696237" lon="11.833425762160436"><ele>488.0</ele><time>2026-03-22T16:06:38.852Z</time></trkpt><trkpt lat="42.562480210027715" lon="11.83364650579823"><ele>487.0</ele><time>2026-03-22T16:06:39.852Z</time></trkpt><trkpt lat="42.56250289792996" lon="11.833868859635846"><ele>486.0</ele><time>2026-03-22T16:06:40.852Z</time></trkpt><trkpt lat="42.562525887856054" lon="11.834096312925983"><ele>485.0</ele><time>2026-03-22T16:06:41.852Z</time></trkpt><trkpt lat="42.56254588518363" lon="11.834323822421917"><ele>483.66666666666663</ele><time>2026-03-22T16:06:42.852Z</time></trkpt><trkpt lat="42.56256609249753" lon="11.834549352603032"><ele>482.33333333333337</ele><time>2026-03-22T16:06:43.852Z</time></trkpt><trkpt lat="42.562590554028986" lon="11.834779638738715"><ele>481.0</ele><time>2026-03-22T16:06:44.852Z</time></trkpt><trkpt lat="42.56261472331904" lon="11.835014791828756"><ele>481.0</ele><time>2026-03-22T16:06:45.852Z</time></trkpt><trkpt lat="42.562637746005834" lon="11.835251963308028"><ele>481.0</ele><time>2026-03-22T16:06:46.852Z</time></trkpt><trkpt lat="42.562662216042234" lon="11.835486394858872"><ele>481.0</ele><time>2026-03-22T16:06:47.852Z</time></trkpt><trkpt lat="42.562687989566726" lon="11.83572096632085"><ele>481.0</ele><time>2026-03-22T16:06:48.852Z</time></trkpt><trkpt lat="42.562712525328024" lon="11.835950727526857"><ele>481.0</ele><time>2026-03-22T16:06:49.851Z</time></trkpt><trkpt lat="42.562738832545314" lon="11.836179663182454"><ele>481.0</ele><time>2026-03-22T16:06:50.851Z</time></trkpt><trkpt lat="42.562771357743436" lon="11.83640802432281"><ele>481.6666666666667</ele><time>2026-03-22T16:06:51.851Z</time></trkpt><trkpt lat="42.5628178554509" lon="11.836636349184326"><ele>482.33333333333337</ele><time>2026-03-22T16:06:52.851Z</time></trkpt><trkpt lat="42.5628779382923" lon="11.836861910198111"><ele>483.0</ele><time>2026-03-22T16:06:53.851Z</time></trkpt><trkpt lat="42.56294397600596" lon="11.837085559626859"><ele>480.33333333333337</ele><time>2026-03-22T16:06:54.851Z</time></trkpt><trkpt lat="42.56300868134225" lon="11.837314215955413"><ele>477.6666666666667</ele><time>2026-03-22T16:06:55.851Z</time></trkpt><trkpt lat="42.56307282883945" lon="11.837544022963552"><ele>475.0</ele><time>2026-03-22T16:06:56.851Z</time></trkpt><trkpt lat="42.56314237870277" lon="11.837772653742716"><ele>474.0</ele><time>2026-03-22T16:06:57.851Z</time></trkpt><trkpt lat="42.56321126128379" lon="11.837999797917771"><ele>473.0</ele><time>2026-03-22T16:06:58.851Z</time></trkpt><trkpt lat="42.563285992966996" lon="11.838224061439368"><ele>472.0</ele><time>2026-03-22T16:06:59.851Z</time></trkpt><trkpt lat="42.563361990331146" lon="11.83845574320181"><ele>471.6666666666667</ele><time>2026-03-22T16:07:00.851Z</time></trkpt><trkpt lat="42.56344110921461" lon="11.838697729094205"><ele>471.33333333333337</ele><time>2026-03-22T16:07:01.851Z</time></trkpt><trkpt lat="42.56352006070411" lon="11.83894611106931"><ele>471.0</ele><time>2026-03-22T16:07:02.851Z</time></trkpt><trkpt lat="42.5635927780733" lon="11.83920042010703"><ele>471.0</ele><time>2026-03-22T16:07:03.851Z</time></trkpt><trkpt lat="42.5636707383372" lon="11.839458015397598"><ele>471.0</ele><time>2026-03-22T16:07:04.851Z</time></trkpt><trkpt lat="42.56374796349261" lon="11.839717261956576"><ele>471.0</ele><time>2026-03-22T16:07:05.851Z</time></trkpt><trkpt lat="42.56382808162888" lon="11.839978123031944"><ele>467.66666666666663</ele><time>2026-03-22T16:07:06.851Z</time></trkpt><trkpt lat="42.56390670031489" lon="11.84023075047347"><ele>464.3333333333333</ele><time>2026-03-22T16:07:07.851Z</time></trkpt><trkpt lat="42.56398154989701" lon="11.840477190749496"><ele>461.0</ele><time>2026-03-22T16:07:08.851Z</time></trkpt><trkpt lat="42.56405653286293" lon="11.840716601637853"><ele>461.0</ele><time>2026-03-22T16:07:09.851Z</time></trkpt><trkpt lat="42.564136598304586" lon="11.84096109127814"><ele>461.0</ele><time>2026-03-22T16:07:10.851Z</time></trkpt><trkpt lat="42.564213701565485" lon="11.841207477588679"><ele>461.0</ele><time>2026-03-22T16:07:11.851Z</time></trkpt><trkpt lat="42.56429082512044" lon="11.841452419900605"><ele>459.66666666666663</ele><time>2026-03-22T16:07:12.851Z</time></trkpt><trkpt lat="42.564367459258264" lon="11.841700032279212"><ele>458.33333333333337</ele><time>2026-03-22T16:07:13.851Z</time></trkpt><trkpt lat="42.56444446231262" lon="11.841950674932763"><ele>457.0</ele><time>2026-03-22T16:07:14.851Z</time></trkpt><trkpt lat="42.56451859086767" lon="11.842201688140976"><ele>452.6666666666667</ele><time>2026-03-22T16:07:15.851Z</time></trkpt><trkpt lat="42.56459670090381" lon="11.8424557807344"><ele>448.33333333333337</ele><time>2026-03-22T16:07:16.851Z</time></trkpt><trkpt lat="42.5646719693012" lon="11.842709174679783"><ele>444.0</ele><time>2026-03-22T16:07:17.851Z</time></trkpt><trkpt lat="42.56474816473862" lon="11.84296331787429"><ele>444.0</ele><time>2026-03-22T16:07:18.851Z</time></trkpt><trkpt lat="42.564828048680006" lon="11.843219056342155"><ele>444.0</ele><time>2026-03-22T16:07:19.851Z</time></trkpt><trkpt lat="42.56490825953725" lon="11.84347408492839"><ele>444.0</ele><time>2026-03-22T16:07:20.851Z</time></trkpt><trkpt lat="42.56498873892288" lon="11.843733150721842"><ele>443.66666666666663</ele><time>2026-03-22T16:07:21.851Z</time></trkpt><trkpt lat="42.56506860500669" lon="11.843996008637406"><ele>443.3333333333333</ele><time>2026-03-22T16:07:22.851Z</time></trkpt><trkpt lat="42.56514611261505" lon="11.84425820214945"><ele>443.0</ele><time>2026-03-22T16:07:23.851Z</time></trkpt><trkpt lat="42.565224687221196" lon="11.844526858346542"><ele>440.66666666666663</ele><time>2026-03-22T16:07:24.851Z</time></trkpt><trkpt lat="42.565297712216584" lon="11.844804304904725"><ele>438.33333333333337</ele><time>2026-03-22T16:07:25.851Z</time></trkpt><trkpt lat="42.56537113527239" lon="11.845079096849762"><ele>436.0</ele><time>2026-03-22T16:07:26.85Z</time></trkpt><trkpt lat="42.56544339807175" lon="11.845348119121821"><ele>433.33333333333337</ele><time>2026-03-22T16:07:27.85Z</time></trkpt><trkpt lat="42.56553041610727" lon="11.84561692630961"><ele>430.66666666666663</ele><time>2026-03-22T16:07:28.85Z</time></trkpt><trkpt lat="42.5656161332957" lon="11.845883078765876"><ele>428.0</ele><time>2026-03-22T16:07:29.85Z</time></trkpt><trkpt lat="42.565702145731855" lon="11.846150001077806"><ele>427.3333333333333</ele><time>2026-03-22T16:07:30.85Z</time></trkpt><trkpt lat="42.56577492299139" lon="11.846407878444518"><ele>426.66666666666663</ele><time>2026-03-22T16:07:31.85Z</time></trkpt><trkpt lat="42.56585184697418" lon="11.846673070968228"><ele>426.0</ele><time>2026-03-22T16:07:32.85Z</time></trkpt><trkpt lat="42.565931117108796" lon="11.846932705187072"><ele>424.0</ele><time>2026-03-22T16:07:33.85Z</time></trkpt><trkpt lat="42.56601375398375" lon="11.84718152073039"><ele>422.0</ele><time>2026-03-22T16:07:34.85Z</time></trkpt><trkpt lat="42.56609986615596" lon="11.847438152062358"><ele>420.0</ele><time>2026-03-22T16:07:35.85Z</time></trkpt><trkpt lat="42.56619578739129" lon="11.84769220808569"><ele>417.0</ele><time>2026-03-22T16:07:36.85Z</time></trkpt><trkpt lat="42.566295502775034" lon="11.847965241582298"><ele>414.0</ele><time>2026-03-22T16:07:37.85Z</time></trkpt><trkpt lat="42.566407738630865" lon="11.848234560391097"><ele>412.5</ele><time>2026-03-22T16:07:38.85Z</time></trkpt><trkpt lat="42.56650990037261" lon="11.848529967443092"><ele>411.0</ele><time>2026-03-22T16:07:39.85Z</time></trkpt><trkpt lat="42.5666372019123" lon="11.8488246868106"><ele>411.0</ele><time>2026-03-22T16:07:40.85Z</time></trkpt><trkpt lat="42.56677382132105" lon="11.849131955549778"><ele>411.0</ele><time>2026-03-22T16:07:41.853Z</time></trkpt><trkpt lat="42.566914447381514" lon="11.849448235584138"><ele>412.0</ele><time>2026-03-22T16:07:42.852Z</time></trkpt><trkpt lat="42.56706057901461" lon="11.849780119142242"><ele>413.0</ele><time>2026-03-22T16:07:43.852Z</time></trkpt><trkpt lat="42.56718738928224" lon="11.84996808021782"><ele>411.0</ele><time>2026-03-22T16:07:45.853Z</time></trkpt><trkpt lat="42.567304779229055" lon="11.850221239010835"><ele>409.0</ele><time>2026-03-22T16:07:46.853Z</time></trkpt><trkpt lat="42.56741876949607" lon="11.850477241164235"><ele>407.0</ele><time>2026-03-22T16:07:47.852Z</time></trkpt><trkpt lat="42.5675293559844" lon="11.850726493479907"><ele>404.3333333333333</ele><time>2026-03-22T16:07:48.852Z</time></trkpt><trkpt lat="42.56764124852653" lon="11.850976390628471"><ele>401.66666666666663</ele><time>2026-03-22T16:07:49.852Z</time></trkpt><trkpt lat="42.567750385253014" lon="11.85122418271931"><ele>399.0</ele><time>2026-03-22T16:07:50.852Z</time></trkpt><trkpt lat="42.56785159610445" lon="11.851476961207165"><ele>403.66666666666663</ele><time>2026-03-22T16:07:51.853Z</time></trkpt><trkpt lat="42.56793874703749" lon="11.85173979375653"><ele>408.3333333333333</ele><time>2026-03-22T16:07:52.853Z</time></trkpt><trkpt lat="42.56801586519577" lon="11.85201527579429"><ele>413.0</ele><time>2026-03-22T16:07:53.852Z</time></trkpt><trkpt lat="42.568080568558194" lon="11.852301560290995"><ele>413.0</ele><time>2026-03-22T16:07:54.852Z</time></trkpt><trkpt lat="42.56814893625015" lon="11.852591369771595"><ele>413.0</ele><time>2026-03-22T16:07:55.852Z</time></trkpt><trkpt lat="42.56821366855" lon="11.852871862062717"><ele>413.0</ele><time>2026-03-22T16:07:56.852Z</time></trkpt><trkpt lat="42.568270749273985" lon="11.853150252814403"><ele>410.66666666666663</ele><time>2026-03-22T16:07:57.852Z</time></trkpt><trkpt lat="42.568326218188595" lon="11.853423416178494"><ele>408.33333333333337</ele><time>2026-03-22T16:07:58.852Z</time></trkpt><trkpt lat="42.56837461231446" lon="11.853698264539268"><ele>406.0</ele><time>2026-03-22T16:07:59.852Z</time></trkpt><trkpt lat="42.56841301176832" lon="11.853980528708098"><ele>404.33333333333337</ele><time>2026-03-22T16:08:00.852Z</time></trkpt><trkpt lat="42.56844200405231" lon="11.854263661808876"><ele>402.66666666666663</ele><time>2026-03-22T16:08:01.851Z</time></trkpt><trkpt lat="42.56846510565157" lon="11.854555500112308"><ele>401.0</ele><time>2026-03-22T16:08:02.851Z</time></trkpt><trkpt lat="42.56847711196115" lon="11.854855600294817"><ele>398.0</ele><time>2026-03-22T16:08:03.851Z</time></trkpt><trkpt lat="42.56848150824914" lon="11.855164205275672"><ele>395.0</ele><time>2026-03-22T16:08:04.851Z</time></trkpt><trkpt lat="42.56847137903902" lon="11.855477652414974"><ele>395.0</ele><time>2026-03-22T16:08:05.851Z</time></trkpt><trkpt lat="42.568457985671245" lon="11.8557760010649"><ele>395.0</ele><time>2026-03-22T16:08:06.851Z</time></trkpt><trkpt lat="42.568438988987396" lon="11.85606535127755"><ele>395.0</ele><time>2026-03-22T16:08:07.851Z</time></trkpt><trkpt lat="42.56841556444004" lon="11.856347489422332"><ele>394.0</ele><time>2026-03-22T16:08:08.851Z</time></trkpt><trkpt lat="42.56838815393268" lon="11.856611689233079"><ele>393.0</ele><time>2026-03-22T16:08:09.851Z</time></trkpt><trkpt lat="42.568354962567014" lon="11.856867951588285"><ele>392.0</ele><time>2026-03-22T16:08:10.851Z</time></trkpt><trkpt lat="42.56828088995747" lon="11.857098658242334"><ele>391.66666666666663</ele><time>2026-03-22T16:08:11.851Z</time></trkpt><trkpt lat="42.56822191168897" lon="11.857336691598539"><ele>391.33333333333337</ele><time>2026-03-22T16:08:12.851Z</time></trkpt><trkpt lat="42.56814577607953" lon="11.857581631456743"><ele>391.0</ele><time>2026-03-22T16:08:13.851Z</time></trkpt><trkpt lat="42.568064220171834" lon="11.857815862288144"><ele>391.6666666666667</ele><time>2026-03-22T16:08:14.851Z</time></trkpt><trkpt lat="42.56798500652871" lon="11.858049205371996"><ele>392.33333333333337</ele><time>2026-03-22T16:08:15.851Z</time></trkpt><trkpt lat="42.5679204269123" lon="11.858282843976438"><ele>393.0</ele><time>2026-03-22T16:08:16.851Z</time></trkpt><trkpt lat="42.56787321120627" lon="11.858535630412197"><ele>389.0</ele><time>2026-03-22T16:08:17.851Z</time></trkpt><trkpt lat="42.56784778370899" lon="11.858803966486823"><ele>385.0</ele><time>2026-03-22T16:08:18.851Z</time></trkpt><trkpt lat="42.56784593947699" lon="11.85907796319272"><ele>381.0</ele><time>2026-03-22T16:08:19.851Z</time></trkpt><trkpt lat="42.56785553649488" lon="11.859344419322031"><ele>380.6666666666667</ele><time>2026-03-22T16:08:20.851Z</time></trkpt><trkpt lat="42.56786764433971" lon="11.859604894244747"><ele>380.33333333333337</ele><time>2026-03-22T16:08:21.851Z</time></trkpt><trkpt lat="42.56787605427018" lon="11.859869044466086"><ele>380.0</ele><time>2026-03-22T16:08:22.851Z</time></trkpt><trkpt lat="42.56787937201048" lon="11.860138418522796"><ele>378.6666666666667</ele><time>2026-03-22T16:08:23.851Z</time></trkpt><trkpt lat="42.5678843497923" lon="11.860418273954693"><ele>377.3333333333333</ele><time>2026-03-22T16:08:24.851Z</time></trkpt><trkpt lat="42.567875610902114" lon="11.860691064092356"><ele>376.0</ele><time>2026-03-22T16:08:25.851Z</time></trkpt><trkpt lat="42.5678613925221" lon="11.860973729976706"><ele>376.0</ele><time>2026-03-22T16:08:26.851Z</time></trkpt><trkpt lat="42.56784869774223" lon="11.86126509782336"><ele>376.0</ele><time>2026-03-22T16:08:27.851Z</time></trkpt><trkpt lat="42.56783442964166" lon="11.861546869893791"><ele>376.0</ele><time>2026-03-22T16:08:28.851Z</time></trkpt><trkpt lat="42.5678123594964" lon="11.861837574430549"><ele>373.0</ele><time>2026-03-22T16:08:29.851Z</time></trkpt><trkpt lat="42.56778990448458" lon="11.862135945936249"><ele>370.0</ele><time>2026-03-22T16:08:30.851Z</time></trkpt><trkpt lat="42.56775289969132" lon="11.862418028786491"><ele>367.0</ele><time>2026-03-22T16:08:31.851Z</time></trkpt><trkpt lat="42.56773305176295" lon="11.862708516480087"><ele>364.0</ele><time>2026-03-22T16:08:32.851Z</time></trkpt><trkpt lat="42.5677110644752" lon="11.862997477730252"><ele>361.0</ele><time>2026-03-22T16:08:33.851Z</time></trkpt><trkpt lat="42.56769444409026" lon="11.863287778479503"><ele>358.0</ele><time>2026-03-22T16:08:34.851Z</time></trkpt><trkpt lat="42.56767510718084" lon="11.863579887123219"><ele>357.0</ele><time>2026-03-22T16:08:35.851Z</time></trkpt><trkpt lat="42.56765471025884" lon="11.863871725186193"><ele>356.0</ele><time>2026-03-22T16:08:36.851Z</time></trkpt><trkpt lat="42.56763537016777" lon="11.864159902913212"><ele>355.0</ele><time>2026-03-22T16:08:37.851Z</time></trkpt><trkpt lat="42.567625296721225" lon="11.864440482412906"><ele>354.3333333333333</ele><time>2026-03-22T16:08:38.85Z</time></trkpt><trkpt lat="42.56761711474264" lon="11.864721775850416"><ele>353.6666666666667</ele><time>2026-03-22T16:08:39.85Z</time></trkpt><trkpt lat="42.56760905544247" lon="11.865009410995969"><ele>353.0</ele><time>2026-03-22T16:08:40.85Z</time></trkpt><trkpt lat="42.56762251092785" lon="11.865301967825875"><ele>352.33333333333337</ele><time>2026-03-22T16:08:41.85Z</time></trkpt><trkpt lat="42.567643945865655" lon="11.865599700773876"><ele>351.6666666666667</ele><time>2026-03-22T16:08:42.85Z</time></trkpt><trkpt lat="42.56766950382885" lon="11.865895965332692"><ele>351.0</ele><time>2026-03-22T16:08:43.85Z</time></trkpt><trkpt lat="42.567700730396204" lon="11.866186575061024"><ele>350.0</ele><time>2026-03-22T16:08:44.85Z</time></trkpt><trkpt lat="42.56773159597448" lon="11.866481350743674"><ele>349.0</ele><time>2026-03-22T16:08:45.85Z</time></trkpt><trkpt lat="42.56775774934179" lon="11.86675981854764"><ele>348.0</ele><time>2026-03-22T16:08:46.85Z</time></trkpt><trkpt lat="42.5677678348579" lon="11.867052523394422"><ele>346.6666666666667</ele><time>2026-03-22T16:08:47.85Z</time></trkpt><trkpt lat="42.567764748636456" lon="11.867344553335267"><ele>345.33333333333337</ele><time>2026-03-22T16:08:48.85Z</time></trkpt><trkpt lat="42.56774608009555" lon="11.867645852273588"><ele>344.0</ele><time>2026-03-22T16:08:49.85Z</time></trkpt><trkpt lat="42.567717663875634" lon="11.86794279067699"><ele>342.6666666666667</ele><time>2026-03-22T16:08:50.85Z</time></trkpt><trkpt lat="42.56768856833705" lon="11.868241776608166"><ele>341.3333333333333</ele><time>2026-03-22T16:08:51.85Z</time></trkpt><trkpt lat="42.5676626458099" lon="11.868548022192593"><ele>340.0</ele><time>2026-03-22T16:08:52.85Z</time></trkpt><trkpt lat="42.567629882051804" lon="11.86884660597681"><ele>339.0</ele><time>2026-03-22T16:08:53.85Z</time></trkpt><trkpt lat="42.56760000936117" lon="11.869148753396576"><ele>338.0</ele><time>2026-03-22T16:08:54.85Z</time></trkpt><trkpt lat="42.56756975660791" lon="11.869449046294076"><ele>337.0</ele><time>2026-03-22T16:08:55.85Z</time></trkpt><trkpt lat="42.56754654129312" lon="11.869753478565594"><ele>336.3333333333333</ele><time>2026-03-22T16:08:56.85Z</time></trkpt><trkpt lat="42.56752379378037" lon="11.870053590613882"><ele>335.6666666666667</ele><time>2026-03-22T16:08:57.85Z</time></trkpt><trkpt lat="42.5674977016633" lon="11.870349714006379"><ele>335.0</ele><time>2026-03-22T16:08:58.85Z</time></trkpt><trkpt lat="42.5674535994776" lon="11.8706403582418"><ele>335.0</ele><time>2026-03-22T16:08:59.85Z</time></trkpt><trkpt lat="42.5674378897487" lon="11.870935460183041"><ele>335.0</ele><time>2026-03-22T16:09:00.85Z</time></trkpt><trkpt lat="42.567407436276625" lon="11.871220837502378"><ele>335.0</ele><time>2026-03-22T16:09:01.85Z</time></trkpt><trkpt lat="42.56736949506208" lon="11.871501257395199"><ele>334.6666666666667</ele><time>2026-03-22T16:09:02.85Z</time></trkpt><trkpt lat="42.5673336880931" lon="11.871773593262848"><ele>334.3333333333333</ele><time>2026-03-22T16:09:03.85Z</time></trkpt><trkpt lat="42.56730159119161" lon="11.8720456543334"><ele>334.0</ele><time>2026-03-22T16:09:04.85Z</time></trkpt><trkpt lat="42.56726621992225" lon="11.872315932659617"><ele>333.3333333333333</ele><time>2026-03-22T16:09:05.85Z</time></trkpt><trkpt lat="42.56723323431004" lon="11.872579571728101"><ele>332.6666666666667</ele><time>2026-03-22T16:09:06.85Z</time></trkpt><trkpt lat="42.567199610460165" lon="11.872843323048661"><ele>332.0</ele><time>2026-03-22T16:09:07.85Z</time></trkpt><trkpt lat="42.56716230216614" lon="11.87310616260306"><ele>331.6666666666667</ele><time>2026-03-22T16:09:08.85Z</time></trkpt><trkpt lat="42.5671099482689" lon="11.873357045568966"><ele>331.3333333333333</ele><time>2026-03-22T16:09:09.85Z</time></trkpt><trkpt lat="42.56704383354548" lon="11.873604394467716"><ele>331.0</ele><time>2026-03-22T16:09:10.85Z</time></trkpt><trkpt lat="42.566955391009955" lon="11.873845627716786"><ele>331.0</ele><time>2026-03-22T16:09:11.85Z</time></trkpt><trkpt lat="42.56685317289494" lon="11.874073992311327"><ele>331.0</ele><time>2026-03-22T16:09:12.85Z</time></trkpt><trkpt lat="42.56673469111327" lon="11.874290389046037"><ele>331.0</ele><time>2026-03-22T16:09:13.85Z</time></trkpt><trkpt lat="42.56661655013624" lon="11.87450922058549"><ele>330.3333333333333</ele><time>2026-03-22T16:09:14.85Z</time></trkpt><trkpt lat="42.56650354525168" lon="11.874731824312253"><ele>329.6666666666667</ele><time>2026-03-22T16:09:15.849Z</time></trkpt><trkpt lat="42.56639034619817" lon="11.874954839374814"><ele>329.0</ele><time>2026-03-22T16:09:16.849Z</time></trkpt><trkpt lat="42.566273180181454" lon="11.875180639721865"><ele>329.6666666666667</ele><time>2026-03-22T16:09:17.849Z</time></trkpt><trkpt lat="42.566155593552274" lon="11.87540603970401"><ele>330.3333333333333</ele><time>2026-03-22T16:09:18.849Z</time></trkpt><trkpt lat="42.56603689458781" lon="11.875634545820246"><ele>331.0</ele><time>2026-03-22T16:09:19.849Z</time></trkpt><trkpt lat="42.565916911684724" lon="11.875859963724713"><ele>331.3333333333333</ele><time>2026-03-22T16:09:20.849Z</time></trkpt><trkpt lat="42.56579515577616" lon="11.876086607181508"><ele>331.6666666666667</ele><time>2026-03-22T16:09:21.849Z</time></trkpt><trkpt lat="42.56567292675739" lon="11.876315700903396"><ele>332.0</ele><time>2026-03-22T16:09:22.849Z</time></trkpt><trkpt lat="42.56555395984161" lon="11.876546561539659"><ele>332.0</ele><time>2026-03-22T16:09:23.849Z</time></trkpt><trkpt lat="42.56543584183251" lon="11.87678060079001"><ele>332.0</ele><time>2026-03-22T16:09:24.849Z</time></trkpt><trkpt lat="42.56531570218689" lon="11.877012247958868"><ele>332.0</ele><time>2026-03-22T16:09:25.849Z</time></trkpt><trkpt lat="42.565197100435" lon="11.877234384313642"><ele>331.6666666666667</ele><time>2026-03-22T16:09:26.849Z</time></trkpt><trkpt lat="42.56507843647551" lon="11.877467597961186"><ele>331.3333333333333</ele><time>2026-03-22T16:09:27.849Z</time></trkpt><trkpt lat="42.564954585921676" lon="11.877703414608717"><ele>331.0</ele><time>2026-03-22T16:09:28.849Z</time></trkpt><trkpt lat="42.56482410296959" lon="11.877921053367169"><ele>330.3333333333333</ele><time>2026-03-22T16:09:29.849Z</time></trkpt><trkpt lat="42.56467399505714" lon="11.878141229749321"><ele>329.6666666666667</ele><time>2026-03-22T16:09:30.849Z</time></trkpt><trkpt lat="42.564507736605535" lon="11.878348884610306"><ele>329.0</ele><time>2026-03-22T16:09:31.849Z</time></trkpt><trkpt lat="42.56432619194377" lon="11.878547018382646"><ele>328.33333333333337</ele><time>2026-03-22T16:09:32.849Z</time></trkpt><trkpt lat="42.56413168909012" lon="11.878700348110481"><ele>327.6666666666667</ele><time>2026-03-22T16:09:33.849Z</time></trkpt><trkpt lat="42.5639549487818" lon="11.8788853738022"><ele>327.0</ele><time>2026-03-22T16:09:34.849Z</time></trkpt><trkpt lat="42.563772014761206" lon="11.879039672433576"><ele>325.0</ele><time>2026-03-22T16:09:35.849Z</time></trkpt><trkpt lat="42.563595798832814" lon="11.879204558005714"><ele>323.0</ele><time>2026-03-22T16:09:36.849Z</time></trkpt><trkpt lat="42.56341902434723" lon="11.879369014638852"><ele>321.0</ele><time>2026-03-22T16:09:37.849Z</time></trkpt><trkpt lat="42.563241887036696" lon="11.879529765823722"><ele>321.0</ele><time>2026-03-22T16:09:38.849Z</time></trkpt><trkpt lat="42.563062527419916" lon="11.87969696727712"><ele>321.0</ele><time>2026-03-22T16:09:39.849Z</time></trkpt><trkpt lat="42.56288655576535" lon="11.8798595928412"><ele>321.0</ele><time>2026-03-22T16:09:40.849Z</time></trkpt><trkpt lat="42.56271049410337" lon="11.880021782539549"><ele>319.6666666666667</ele><time>2026-03-22T16:09:41.849Z</time></trkpt><trkpt lat="42.562540225298285" lon="11.880181510065393"><ele>318.33333333333337</ele><time>2026-03-22T16:09:42.849Z</time></trkpt><trkpt lat="42.56237356905651" lon="11.88033524753694"><ele>317.0</ele><time>2026-03-22T16:09:43.849Z</time></trkpt><trkpt lat="42.56219740941789" lon="11.880489411874146"><ele>317.0</ele><time>2026-03-22T16:09:44.849Z</time></trkpt><trkpt lat="42.562033946526746" lon="11.880641105462258"><ele>317.0</ele><time>2026-03-22T16:09:45.849Z</time></trkpt><trkpt lat="42.56187378574656" lon="11.88078962535297"><ele>317.0</ele><time>2026-03-22T16:09:46.849Z</time></trkpt><trkpt lat="42.56171327403125" lon="11.880936602823022"><ele>315.0</ele><time>2026-03-22T16:09:47.852Z</time></trkpt><trkpt lat="42.561554327490484" lon="11.881081717573156"><ele>313.0</ele><time>2026-03-22T16:09:48.851Z</time></trkpt><trkpt lat="42.56140076122178" lon="11.881223300977494"><ele>311.0</ele><time>2026-03-22T16:09:49.851Z</time></trkpt><trkpt lat="42.561250625681886" lon="11.881365895201576"><ele>311.0</ele><time>2026-03-22T16:09:50.851Z</time></trkpt><trkpt lat="42.561096154223115" lon="11.881508247440376"><ele>311.0</ele><time>2026-03-22T16:09:51.851Z</time></trkpt><trkpt lat="42.56094511585294" lon="11.881648506542202"><ele>311.0</ele><time>2026-03-22T16:09:52.851Z</time></trkpt><trkpt lat="42.5607916140602" lon="11.881787990137152"><ele>311.0</ele><time>2026-03-22T16:09:53.851Z</time></trkpt><trkpt lat="42.56064314389369" lon="11.88192743258397"><ele>311.0</ele><time>2026-03-22T16:09:54.852Z</time></trkpt><trkpt lat="42.5604973574948" lon="11.88206137720107"><ele>311.0</ele><time>2026-03-22T16:09:55.852Z</time></trkpt><trkpt lat="42.560350515670095" lon="11.882194171805333"><ele>311.0</ele><time>2026-03-22T16:09:56.852Z</time></trkpt><trkpt lat="42.56020741986096" lon="11.882323365976783"><ele>311.0</ele><time>2026-03-22T16:09:57.851Z</time></trkpt><trkpt lat="42.5600697742252" lon="11.882450899381416"><ele>311.0</ele><time>2026-03-22T16:09:58.851Z</time></trkpt><trkpt lat="42.55993723455734" lon="11.882575632235586"><ele>310.6666666666667</ele><time>2026-03-22T16:09:59.851Z</time></trkpt><trkpt lat="42.559804239878034" lon="11.882700641098706"><ele>310.3333333333333</ele><time>2026-03-22T16:10:00.851Z</time></trkpt><trkpt lat="42.55966672959438" lon="11.882831794323762"><ele>310.0</ele><time>2026-03-22T16:10:01.851Z</time></trkpt><trkpt lat="42.559524140264166" lon="11.882962827616959"><ele>310.0</ele><time>2026-03-22T16:10:02.851Z</time></trkpt><trkpt lat="42.55938025694716" lon="11.883096333644527"><ele>310.0</ele><time>2026-03-22T16:10:03.851Z</time></trkpt><trkpt lat="42.559226736932224" lon="11.883231916730185"><ele>310.0</ele><time>2026-03-22T16:10:04.851Z</time></trkpt><trkpt lat="42.559078071371424" lon="11.883373928104465"><ele>309.66666666666663</ele><time>2026-03-22T16:10:05.851Z</time></trkpt><trkpt lat="42.5589324531409" lon="11.883519337400863"><ele>309.3333333333333</ele><time>2026-03-22T16:10:06.851Z</time></trkpt><trkpt lat="42.558789274662026" lon="11.88366169673653"><ele>309.0</ele><time>2026-03-22T16:10:07.851Z</time></trkpt><trkpt lat="42.55864845090989" lon="11.883794963549926"><ele>309.0</ele><time>2026-03-22T16:10:08.851Z</time></trkpt><trkpt lat="42.558513165155325" lon="11.883923740207875"><ele>309.0</ele><time>2026-03-22T16:10:09.851Z</time></trkpt><trkpt lat="42.5583791862615" lon="11.884051898103056"><ele>309.0</ele><time>2026-03-22T16:10:10.851Z</time></trkpt><trkpt lat="42.558244030555684" lon="11.88418370900088"><ele>308.6666666666667</ele><time>2026-03-22T16:10:11.851Z</time></trkpt><trkpt lat="42.55810986909672" lon="11.884317523645326"><ele>308.33333333333337</ele><time>2026-03-22T16:10:12.85Z</time></trkpt><trkpt lat="42.55797584560888" lon="11.884449542870772"><ele>308.0</ele><time>2026-03-22T16:10:13.85Z</time></trkpt><trkpt lat="42.55783883108368" lon="11.884589097993157"><ele>308.6666666666667</ele><time>2026-03-22T16:10:14.85Z</time></trkpt><trkpt lat="42.55771178219287" lon="11.884730269577595"><ele>309.3333333333333</ele><time>2026-03-22T16:10:15.85Z</time></trkpt><trkpt lat="42.55759024213114" lon="11.884872308622827"><ele>310.0</ele><time>2026-03-22T16:10:16.85Z</time></trkpt><trkpt lat="42.55746958479302" lon="11.885018032458044"><ele>309.3333333333333</ele><time>2026-03-22T16:10:17.85Z</time></trkpt><trkpt lat="42.55735069139424" lon="11.885170121334374"><ele>308.6666666666667</ele><time>2026-03-22T16:10:18.85Z</time></trkpt><trkpt lat="42.557233126284416" lon="11.88533159912582"><ele>308.0</ele><time>2026-03-22T16:10:19.85Z</time></trkpt><trkpt lat="42.55711616512987" lon="11.885502728373172"><ele>309.33333333333337</ele><time>2026-03-22T16:10:20.85Z</time></trkpt><trkpt lat="42.55701127570549" lon="11.885672930253644"><ele>310.6666666666667</ele><time>2026-03-22T16:10:21.85Z</time></trkpt><trkpt lat="42.5569047146448" lon="11.88585553996529"><ele>312.0</ele><time>2026-03-22T16:10:22.85Z</time></trkpt><trkpt lat="42.55678506666293" lon="11.886030199798933"><ele>312.0</ele><time>2026-03-22T16:10:23.85Z</time></trkpt><trkpt lat="42.5566463162414" lon="11.886193147166612"><ele>312.0</ele><time>2026-03-22T16:10:24.85Z</time></trkpt><trkpt lat="42.556497317061456" lon="11.886347758376857"><ele>312.0</ele><time>2026-03-22T16:10:25.85Z</time></trkpt><trkpt lat="42.55634452674534" lon="11.886496916356602"><ele>312.0</ele><time>2026-03-22T16:10:26.85Z</time></trkpt><trkpt lat="42.55618490301389" lon="11.886634990401094"><ele>312.0</ele><time>2026-03-22T16:10:27.85Z</time></trkpt><trkpt lat="42.55602240013709" lon="11.886766140338459"><ele>312.0</ele><time>2026-03-22T16:10:28.85Z</time></trkpt><trkpt lat="42.55585069930657" lon="11.886889169001607"><ele>312.0</ele><time>2026-03-22T16:10:29.85Z</time></trkpt><trkpt lat="42.555680254138075" lon="11.88701094498651"><ele>312.0</ele><time>2026-03-22T16:10:30.85Z</time></trkpt><trkpt lat="42.55550147911201" lon="11.887123686598592"><ele>312.0</ele><time>2026-03-22T16:10:31.85Z</time></trkpt><trkpt lat="42.55532594698901" lon="11.887237121365043"><ele>313.0</ele><time>2026-03-22T16:10:32.85Z</time></trkpt><trkpt lat="42.555150491468176" lon="11.887352215961062"><ele>314.0</ele><time>2026-03-22T16:10:33.85Z</time></trkpt><trkpt lat="42.55497821893074" lon="11.887469915463775"><ele>315.0</ele><time>2026-03-22T16:10:34.85Z</time></trkpt><trkpt lat="42.554799469178" lon="11.88758251067706"><ele>314.3333333333333</ele><time>2026-03-22T16:10:35.85Z</time></trkpt><trkpt lat="42.554617756155956" lon="11.887692572489387"><ele>313.66666666666663</ele><time>2026-03-22T16:10:36.85Z</time></trkpt><trkpt lat="42.554432544319134" lon="11.88778916344326"><ele>313.0</ele><time>2026-03-22T16:10:37.85Z</time></trkpt><trkpt lat="42.55424348905479" lon="11.887862036569423"><ele>313.0</ele><time>2026-03-22T16:10:38.85Z</time></trkpt><trkpt lat="42.554051210297914" lon="11.887928901580034"><ele>313.0</ele><time>2026-03-22T16:10:39.85Z</time></trkpt><trkpt lat="42.55386027384642" lon="11.887982680764505"><ele>313.0</ele><time>2026-03-22T16:10:40.85Z</time></trkpt><trkpt lat="42.55367072320425" lon="11.888030585937381"><ele>313.3333333333333</ele><time>2026-03-22T16:10:41.85Z</time></trkpt><trkpt lat="42.55348315262035" lon="11.888084838562838"><ele>313.6666666666667</ele><time>2026-03-22T16:10:42.85Z</time></trkpt><trkpt lat="42.55330512454682" lon="11.888147039097003"><ele>314.0</ele><time>2026-03-22T16:10:43.85Z</time></trkpt><trkpt lat="42.55313401644168" lon="11.888218613959976"><ele>314.0</ele><time>2026-03-22T16:10:44.85Z</time></trkpt><trkpt lat="42.552973343969235" lon="11.888301368531835"><ele>314.0</ele><time>2026-03-22T16:10:45.85Z</time></trkpt><trkpt lat="42.552822806815335" lon="11.88839271305525"><ele>314.0</ele><time>2026-03-22T16:10:46.85Z</time></trkpt><trkpt lat="42.5526793560778" lon="11.88849273044027"><ele>314.33333333333337</ele><time>2026-03-22T16:10:47.851Z</time></trkpt><trkpt lat="42.55254012919667" lon="11.888596017604874"><ele>314.6666666666667</ele><time>2026-03-22T16:10:48.852Z</time></trkpt><trkpt lat="42.552404693756976" lon="11.888711050215734"><ele>315.0</ele><time>2026-03-22T16:10:49.853Z</time></trkpt><trkpt lat="42.55227601144628" lon="11.888837196997255"><ele>315.0</ele><time>2026-03-22T16:10:50.854Z</time></trkpt><trkpt lat="42.55215372497356" lon="11.888972225245428"><ele>315.0</ele><time>2026-03-22T16:10:51.855Z</time></trkpt><trkpt lat="42.55203670660675" lon="11.88911977076008"><ele>315.0</ele><time>2026-03-22T16:10:52.856Z</time></trkpt><trkpt lat="42.551917993667516" lon="11.889270526584953"><ele>315.3333333333333</ele><time>2026-03-22T16:10:53.857Z</time></trkpt><trkpt lat="42.55179845245359" lon="11.889426881706372"><ele>315.66666666666663</ele><time>2026-03-22T16:10:54.858Z</time></trkpt><trkpt lat="42.55168234899404" lon="11.889600160808905"><ele>316.0</ele><time>2026-03-22T16:10:55.858Z</time></trkpt><trkpt lat="42.55157752413382" lon="11.889794785779781"><ele>316.0</ele><time>2026-03-22T16:10:56.859Z</time></trkpt><trkpt lat="42.551471116906086" lon="11.890002846084524"><ele>316.0</ele><time>2026-03-22T16:10:57.86Z</time></trkpt><trkpt lat="42.551366766485465" lon="11.890219305391799"><ele>316.0</ele><time>2026-03-22T16:10:58.86Z</time></trkpt><trkpt lat="42.55126998473491" lon="11.89044026086823"><ele>316.0</ele><time>2026-03-22T16:10:59.861Z</time></trkpt><trkpt lat="42.55117647975847" lon="11.890667050218784"><ele>316.0</ele><time>2026-03-22T16:11:00.861Z</time></trkpt><trkpt lat="42.55108064526591" lon="11.890897112177791"><ele>316.0</ele><time>2026-03-22T16:11:01.862Z</time></trkpt><trkpt lat="42.55098562871734" lon="11.891126923786263"><ele>315.66666666666663</ele><time>2026-03-22T16:11:02.862Z</time></trkpt><trkpt lat="42.55089025162118" lon="11.89135750326362"><ele>315.3333333333333</ele><time>2026-03-22T16:11:03.863Z</time></trkpt><trkpt lat="42.550795054391784" lon="11.891593171791786"><ele>315.0</ele><time>2026-03-22T16:11:04.863Z</time></trkpt><trkpt lat="42.550697959317894" lon="11.891825178785101"><ele>314.3333333333333</ele><time>2026-03-22T16:11:05.863Z</time></trkpt><trkpt lat="42.550597463154574" lon="11.89205454463033"><ele>313.66666666666663</ele><time>2026-03-22T16:11:06.864Z</time></trkpt><trkpt lat="42.550495607073145" lon="11.892280845105693"><ele>313.0</ele><time>2026-03-22T16:11:07.864Z</time></trkpt><trkpt lat="42.550394199897845" lon="11.8925067204041"><ele>314.0</ele><time>2026-03-22T16:11:08.864Z</time></trkpt><trkpt lat="42.55027836393329" lon="11.89272358777335"><ele>315.0</ele><time>2026-03-22T16:11:09.864Z</time></trkpt><trkpt lat="42.55016780019828" lon="11.892968821075483"><ele>316.0</ele><time>2026-03-22T16:11:10.865Z</time></trkpt><trkpt lat="42.550053161997866" lon="11.893223572654136"><ele>316.66666666666663</ele><time>2026-03-22T16:11:11.865Z</time></trkpt><trkpt lat="42.549937684957996" lon="11.89347851581675"><ele>317.3333333333333</ele><time>2026-03-22T16:11:12.865Z</time></trkpt><trkpt lat="42.54982373757972" lon="11.89372693502034"><ele>318.0</ele><time>2026-03-22T16:11:13.865Z</time></trkpt><trkpt lat="42.549714927571976" lon="11.893964154113077"><ele>318.0</ele><time>2026-03-22T16:11:14.866Z</time></trkpt><trkpt lat="42.5496143315141" lon="11.894187092839845"><ele>318.0</ele><time>2026-03-22T16:11:15.866Z</time></trkpt><trkpt lat="42.54951191311629" lon="11.89441405996251"><ele>318.0</ele><time>2026-03-22T16:11:16.866Z</time></trkpt><trkpt lat="42.549413205889614" lon="11.894631613126943"><ele>318.6666666666667</ele><time>2026-03-22T16:11:17.866Z</time></trkpt><trkpt lat="42.5493140430604" lon="11.894849354985125"><ele>319.33333333333337</ele><time>2026-03-22T16:11:18.866Z</time></trkpt><trkpt lat="42.54922143249702" lon="11.895051477603522"><ele>320.0</ele><time>2026-03-22T16:11:19.866Z</time></trkpt><trkpt lat="42.5491233646273" lon="11.895265510720304"><ele>320.0</ele><time>2026-03-22T16:11:20.866Z</time></trkpt><trkpt lat="42.54902350775206" lon="11.895483448269177"><ele>320.0</ele><time>2026-03-22T16:11:21.867Z</time></trkpt><trkpt lat="42.54893188934981" lon="11.89568340543391"><ele>320.0</ele><time>2026-03-22T16:11:22.867Z</time></trkpt><trkpt lat="42.548819350492934" lon="11.895929021458128"><ele>320.6666666666667</ele><time>2026-03-22T16:11:23.867Z</time></trkpt><trkpt lat="42.548711761505714" lon="11.896163834425113"><ele>321.3333333333333</ele><time>2026-03-22T16:11:24.867Z</time></trkpt><trkpt lat="42.54860312800385" lon="11.896400926988434"><ele>322.0</ele><time>2026-03-22T16:11:25.867Z</time></trkpt><trkpt lat="42.548506007877215" lon="11.896613751067463"><ele>322.0</ele><time>2026-03-22T16:11:26.867Z</time></trkpt><trkpt lat="42.548413281120986" lon="11.896817230764693"><ele>322.0</ele><time>2026-03-22T16:11:27.867Z</time></trkpt><trkpt lat="42.54832140685356" lon="11.897018795028048"><ele>322.0</ele><time>2026-03-22T16:11:28.867Z</time></trkpt><trkpt lat="42.548233420401885" lon="11.897211298305704"><ele>322.0</ele><time>2026-03-22T16:11:29.867Z</time></trkpt><trkpt lat="42.548160775784666" lon="11.897409619587094"><ele>322.0</ele><time>2026-03-22T16:11:30.867Z</time></trkpt><trkpt lat="42.54807447786879" lon="11.89759585223639"><ele>322.0</ele><time>2026-03-22T16:11:31.867Z</time></trkpt><trkpt lat="42.54799346728057" lon="11.897777457480608"><ele>322.0</ele><time>2026-03-22T16:11:32.867Z</time></trkpt><trkpt lat="42.54790036154109" lon="11.897939432374976"><ele>322.0</ele><time>2026-03-22T16:11:33.867Z</time></trkpt><trkpt lat="42.5478382031859" lon="11.89812430624324"><ele>322.0</ele><time>2026-03-22T16:11:34.867Z</time></trkpt><trkpt lat="42.54776763804469" lon="11.89828752408558"><ele>322.0</ele><time>2026-03-22T16:11:35.868Z</time></trkpt><trkpt lat="42.54770253256824" lon="11.898444898928679"><ele>320.8</ele><time>2026-03-22T16:11:36.868Z</time></trkpt><trkpt lat="42.547646020894696" lon="11.89858639214812"><ele>319.6</ele><time>2026-03-22T16:11:37.868Z</time></trkpt><trkpt lat="42.5475882575213" lon="11.89871239690735"><ele>318.40000000000003</ele><time>2026-03-22T16:11:38.868Z</time></trkpt><trkpt lat="42.54754183358641" lon="11.898837482491974"><ele>317.20000000000005</ele><time>2026-03-22T16:11:39.868Z</time></trkpt><trkpt lat="42.54749549049549" lon="11.898944778794103"><ele>316.0</ele><time>2026-03-22T16:11:40.868Z</time></trkpt><trkpt lat="42.54745564626176" lon="11.899033326444163"><ele>316.00000000000006</ele><time>2026-03-22T16:11:41.868Z</time></trkpt><trkpt lat="42.54741350620941" lon="11.89911586218983"><ele>316.0</ele><time>2026-03-22T16:11:42.868Z</time></trkpt><trkpt lat="42.54736932101647" lon="11.899196037535171"><ele>316.0</ele><time>2026-03-22T16:11:43.868Z</time></trkpt><trkpt lat="42.547318771179455" lon="11.899265811779701"><ele>316.0</ele><time>2026-03-22T16:11:44.868Z</time></trkpt><trkpt lat="42.547275340528806" lon="11.899344816707693"><ele>316.0</ele><time>2026-03-22T16:11:45.868Z</time></trkpt><trkpt lat="42.54724838912455" lon="11.899436632075151"><ele>316.00000000000006</ele><time>2026-03-22T16:11:46.868Z</time></trkpt><trkpt lat="42.54723789996496" lon="11.899547152180107"><ele>316.0</ele><time>2026-03-22T16:11:47.868Z</time></trkpt><trkpt lat="42.54722108995334" lon="11.8996840484957"><ele>315.75</ele><time>2026-03-22T16:11:48.868Z</time></trkpt><trkpt lat="42.54718983241087" lon="11.899827008609636"><ele>315.5</ele><time>2026-03-22T16:11:49.868Z</time></trkpt><trkpt lat="42.547145634457465" lon="11.899976798256194"><ele>315.25</ele><time>2026-03-22T16:11:50.868Z</time></trkpt><trkpt lat="42.54709410484012" lon="11.900139596694967"><ele>315.0</ele><time>2026-03-22T16:11:51.868Z</time></trkpt><trkpt lat="42.54704239738238" lon="11.900318188491593"><ele>314.3333333333333</ele><time>2026-03-22T16:11:52.868Z</time></trkpt><trkpt lat="42.54698648822601" lon="11.900503563127732"><ele>313.66666666666663</ele><time>2026-03-22T16:11:53.871Z</time></trkpt><trkpt lat="42.54692492303817" lon="11.900702283175981"><ele>313.0</ele><time>2026-03-22T16:11:54.87Z</time></trkpt><trkpt lat="42.546861681008686" lon="11.900905080734937"><ele>313.0</ele><time>2026-03-22T16:11:55.87Z</time></trkpt><trkpt lat="42.546796403377115" lon="11.901111705108187"><ele>313.0</ele><time>2026-03-22T16:11:56.87Z</time></trkpt><trkpt lat="42.546726456839124" lon="11.901325657616626"><ele>313.0</ele><time>2026-03-22T16:11:57.87Z</time></trkpt><trkpt lat="42.54665542832211" lon="11.901551626347755"><ele>313.3333333333333</ele><time>2026-03-22T16:11:58.87Z</time></trkpt><trkpt lat="42.54658387874401" lon="11.901791111162767"><ele>313.6666666666667</ele><time>2026-03-22T16:11:59.87Z</time></trkpt><trkpt lat="42.54649221290958" lon="11.902037271642536"><ele>314.0</ele><time>2026-03-22T16:12:00.871Z</time></trkpt><trkpt lat="42.54640306955722" lon="11.902315453428628"><ele>313.5</ele><time>2026-03-22T16:12:01.871Z</time></trkpt><trkpt lat="42.54630598349372" lon="11.90261823697299"><ele>313.0</ele><time>2026-03-22T16:12:02.871Z</time></trkpt><trkpt lat="42.546227240285916" lon="11.902961691621456"><ele>314.0</ele><time>2026-03-22T16:12:03.87Z</time></trkpt><trkpt lat="42.54612299641915" lon="11.903292374866215"><ele>315.0</ele><time>2026-03-22T16:12:04.87Z</time></trkpt><trkpt lat="42.54601930316634" lon="11.903615554299092"><ele>315.0</ele><time>2026-03-22T16:12:05.87Z</time></trkpt><trkpt lat="42.54591701249128" lon="11.90393433248536"><ele>315.0</ele><time>2026-03-22T16:12:06.871Z</time></trkpt><trkpt lat="42.54578990577392" lon="11.90422741241816"><ele>314.5</ele><time>2026-03-22T16:12:07.871Z</time></trkpt><trkpt lat="42.54569601282531" lon="11.904524756561644"><ele>314.0</ele><time>2026-03-22T16:12:08.871Z</time></trkpt><trkpt lat="42.54560482592591" lon="11.90481139437833"><ele>314.0</ele><time>2026-03-22T16:12:09.871Z</time></trkpt><trkpt lat="42.545515011053276" lon="11.905089168584672"><ele>314.0</ele><time>2026-03-22T16:12:10.871Z</time></trkpt><trkpt lat="42.545443512899205" lon="11.905358220607848"><ele>314.0</ele><time>2026-03-22T16:12:11.871Z</time></trkpt><trkpt lat="42.54534218899157" lon="11.905604791013515"><ele>315.0</ele><time>2026-03-22T16:12:12.87Z</time></trkpt><trkpt lat="42.54525975317033" lon="11.90585363422375"><ele>316.0</ele><time>2026-03-22T16:12:13.87Z</time></trkpt><trkpt lat="42.54517577128783" lon="11.906092899707247"><ele>317.0</ele><time>2026-03-22T16:12:14.87Z</time></trkpt><trkpt lat="42.54508147619125" lon="11.906318067273952"><ele>317.0</ele><time>2026-03-22T16:12:15.87Z</time></trkpt><trkpt lat="42.54497889472043" lon="11.90652892587341"><ele>317.0</ele><time>2026-03-22T16:12:16.87Z</time></trkpt><trkpt lat="42.54487461869075" lon="11.906738110009755"><ele>317.0</ele><time>2026-03-22T16:12:17.87Z</time></trkpt><trkpt lat="42.544767220036505" lon="11.906941917111494"><ele>317.6666666666667</ele><time>2026-03-22T16:12:18.87Z</time></trkpt><trkpt lat="42.544651154935515" lon="11.907135062949232"><ele>318.3333333333333</ele><time>2026-03-22T16:12:19.87Z</time></trkpt><trkpt lat="42.544530052006166" lon="11.907324021026565"><ele>319.0</ele><time>2026-03-22T16:12:20.87Z</time></trkpt><trkpt lat="42.54439987181359" lon="11.907500445163576"><ele>321.0</ele><time>2026-03-22T16:12:21.87Z</time></trkpt><trkpt lat="42.54425979989919" lon="11.90766797303237"><ele>323.0</ele><time>2026-03-22T16:12:22.87Z</time></trkpt><trkpt lat="42.544116251806145" lon="11.90783211167023"><ele>325.0</ele><time>2026-03-22T16:12:23.87Z</time></trkpt><trkpt lat="42.543973148848124" lon="11.907996578706111"><ele>325.0</ele><time>2026-03-22T16:12:24.87Z</time></trkpt><trkpt lat="42.54382868279731" lon="11.908154484464038"><ele>325.0</ele><time>2026-03-22T16:12:25.87Z</time></trkpt><trkpt lat="42.54367871108236" lon="11.908302842190434"><ele>325.0</ele><time>2026-03-22T16:12:26.87Z</time></trkpt><trkpt lat="42.54352313759818" lon="11.90843875727169"><ele>326.0</ele><time>2026-03-22T16:12:27.87Z</time></trkpt><trkpt lat="42.54336215890646" lon="11.908563656237359"><ele>327.0</ele><time>2026-03-22T16:12:28.87Z</time></trkpt><trkpt lat="42.5431982088055" lon="11.908676135965644"><ele>328.0</ele><time>2026-03-22T16:12:29.87Z</time></trkpt><trkpt lat="42.5430279955798" lon="11.908781026819451"><ele>329.0</ele><time>2026-03-22T16:12:30.87Z</time></trkpt><trkpt lat="42.54285649839713" lon="11.908881453921758"><ele>330.0</ele><time>2026-03-22T16:12:31.87Z</time></trkpt><trkpt lat="42.542682526410104" lon="11.90899076625386"><ele>331.0</ele><time>2026-03-22T16:12:32.87Z</time></trkpt><trkpt lat="42.54250784686106" lon="11.909093798139903"><ele>331.0</ele><time>2026-03-22T16:12:33.87Z</time></trkpt><trkpt lat="42.54233021065384" lon="11.909189461138489"><ele>331.0</ele><time>2026-03-22T16:12:34.87Z</time></trkpt><trkpt lat="42.54215329046366" lon="11.909286437001887"><ele>331.0</ele><time>2026-03-22T16:12:35.87Z</time></trkpt><trkpt lat="42.54197873326495" lon="11.909385704746324"><ele>331.66666666666663</ele><time>2026-03-22T16:12:36.87Z</time></trkpt><trkpt lat="42.541805414776206" lon="11.909485555303693"><ele>332.3333333333333</ele><time>2026-03-22T16:12:37.87Z</time></trkpt><trkpt lat="42.54163192652072" lon="11.90958843952892"><ele>333.0</ele><time>2026-03-22T16:12:38.87Z</time></trkpt><trkpt lat="42.54145430311018" lon="11.909696478898958"><ele>333.0</ele><time>2026-03-22T16:12:39.87Z</time></trkpt><trkpt lat="42.541267439931744" lon="11.90980916601473"><ele>333.0</ele><time>2026-03-22T16:12:40.87Z</time></trkpt><trkpt lat="42.541070983748554" lon="11.909918959444607"><ele>333.0</ele><time>2026-03-22T16:12:41.87Z</time></trkpt><trkpt lat="42.54087215837375" lon="11.910018613880135"><ele>334.3333333333333</ele><time>2026-03-22T16:12:42.87Z</time></trkpt><trkpt lat="42.54067096083846" lon="11.9101200443235"><ele>335.66666666666663</ele><time>2026-03-22T16:12:43.87Z</time></trkpt><trkpt lat="42.54048139443422" lon="11.910232762583513"><ele>337.0</ele><time>2026-03-22T16:12:44.87Z</time></trkpt><trkpt lat="42.540302751961164" lon="11.910364745231325"><ele>337.0</ele><time>2026-03-22T16:12:45.87Z</time></trkpt><trkpt lat="42.540138527395655" lon="11.910513496885276"><ele>337.0</ele><time>2026-03-22T16:12:46.87Z</time></trkpt><trkpt lat="42.53999067702869" lon="11.91068791539253"><ele>337.0</ele><time>2026-03-22T16:12:47.87Z</time></trkpt><trkpt lat="42.53985668955582" lon="11.910875794846838"><ele>337.66666666666663</ele><time>2026-03-22T16:12:48.87Z</time></trkpt><trkpt lat="42.53972756883963" lon="11.911077191947317"><ele>338.3333333333333</ele><time>2026-03-22T16:12:49.87Z</time></trkpt><trkpt lat="42.53960405777969" lon="11.911293368581077"><ele>339.0</ele><time>2026-03-22T16:12:50.87Z</time></trkpt><trkpt lat="42.53947972601719" lon="11.911515672778242"><ele>339.0</ele><time>2026-03-22T16:12:51.87Z</time></trkpt><trkpt lat="42.539354420009886" lon="11.911739358827964"><ele>339.0</ele><time>2026-03-22T16:12:52.87Z</time></trkpt><trkpt lat="42.539229384506136" lon="11.91196996824772"><ele>339.0</ele><time>2026-03-22T16:12:53.87Z</time></trkpt><trkpt lat="42.539116971682" lon="11.912205811091308"><ele>338.3333333333333</ele><time>2026-03-22T16:12:54.87Z</time></trkpt><trkpt lat="42.53901858898124" lon="11.912446595275714"><ele>337.66666666666663</ele><time>2026-03-22T16:12:55.87Z</time></trkpt><trkpt lat="42.53889948379204" lon="11.912651665317597"><ele>337.0</ele><time>2026-03-22T16:12:56.87Z</time></trkpt><trkpt lat="42.538787849044446" lon="11.912861924995918"><ele>337.25</ele><time>2026-03-22T16:12:57.87Z</time></trkpt><trkpt lat="42.53869409519151" lon="11.913042016716425"><ele>337.5</ele><time>2026-03-22T16:12:58.87Z</time></trkpt><trkpt lat="42.53861139465792" lon="11.913205567861661"><ele>337.75</ele><time>2026-03-22T16:12:59.869Z</time></trkpt><trkpt lat="42.53853900128831" lon="11.913348735229043"><ele>338.0</ele><time>2026-03-22T16:13:00.869Z</time></trkpt><trkpt lat="42.538477813774676" lon="11.913466881359717"><ele>340.0</ele><time>2026-03-22T16:13:01.869Z</time></trkpt><trkpt lat="42.53816062554516" lon="11.914078521357723"><ele>342.3333333333333</ele><time>2026-03-22T16:13:02.869Z</time></trkpt><trkpt lat="42.538045989319436" lon="11.914293376244954"><ele>344.6666666666667</ele><time>2026-03-22T16:13:03.869Z</time></trkpt><trkpt lat="42.53792777016741" lon="11.91449866409395"><ele>347.0</ele><time>2026-03-22T16:13:04.869Z</time></trkpt><trkpt lat="42.53780712330671" lon="11.914695243377855"><ele>350.0</ele><time>2026-03-22T16:13:05.869Z</time></trkpt><trkpt lat="42.53768016590705" lon="11.914883935525955"><ele>353.0</ele><time>2026-03-22T16:13:06.869Z</time></trkpt><trkpt lat="42.53755398792178" lon="11.915073859996145"><ele>356.0</ele><time>2026-03-22T16:13:07.869Z</time></trkpt><trkpt lat="42.53740840254551" lon="11.915239564512396"><ele>357.0</ele><time>2026-03-22T16:13:08.869Z</time></trkpt><trkpt lat="42.53727064419919" lon="11.91541388337824"><ele>358.0</ele><time>2026-03-22T16:13:09.869Z</time></trkpt><trkpt lat="42.537125614757294" lon="11.915592055984344"><ele>359.0</ele><time>2026-03-22T16:13:10.869Z</time></trkpt><trkpt lat="42.53697979733361" lon="11.91576684873876"><ele>360.33333333333337</ele><time>2026-03-22T16:13:11.869Z</time></trkpt><trkpt lat="42.536830675860514" lon="11.915943192112172"><ele>361.6666666666667</ele><time>2026-03-22T16:13:12.869Z</time></trkpt><trkpt lat="42.536679533899445" lon="11.916118222931397"><ele>363.0</ele><time>2026-03-22T16:13:13.869Z</time></trkpt><trkpt lat="42.53652465855557" lon="11.916295377712501"><ele>363.0</ele><time>2026-03-22T16:13:14.869Z</time></trkpt><trkpt lat="42.5363687624617" lon="11.91647355866622"><ele>363.0</ele><time>2026-03-22T16:13:15.869Z</time></trkpt><trkpt lat="42.53621911225895" lon="11.916668864816232"><ele>363.0</ele><time>2026-03-22T16:13:16.869Z</time></trkpt><trkpt lat="42.53605603021056" lon="11.916853810600443"><ele>356.0</ele><time>2026-03-22T16:13:17.869Z</time></trkpt><trkpt lat="42.535893308977315" lon="11.917039780497946"><ele>349.0</ele><time>2026-03-22T16:13:18.869Z</time></trkpt><trkpt lat="42.535729416195615" lon="11.917231147925465"><ele>342.0</ele><time>2026-03-22T16:13:19.869Z</time></trkpt><trkpt lat="42.535554397935634" lon="11.917408202912885"><ele>341.6666666666667</ele><time>2026-03-22T16:13:20.869Z</time></trkpt><trkpt lat="42.53538721883328" lon="11.917600601054819"><ele>341.33333333333337</ele><time>2026-03-22T16:13:21.869Z</time></trkpt><trkpt lat="42.535217606236984" lon="11.91779471475258"><ele>341.0</ele><time>2026-03-22T16:13:22.869Z</time></trkpt><trkpt lat="42.53504628884892" lon="11.917990779555938"><ele>341.0</ele><time>2026-03-22T16:13:23.869Z</time></trkpt><trkpt lat="42.53487401025327" lon="11.918187364647315"><ele>341.0</ele><time>2026-03-22T16:13:24.869Z</time></trkpt><trkpt lat="42.53469882377491" lon="11.918389788410561"><ele>340.5</ele><time>2026-03-22T16:13:25.869Z</time></trkpt><trkpt lat="42.53452999102751" lon="11.918591727893556"><ele>340.0</ele><time>2026-03-22T16:13:26.869Z</time></trkpt><trkpt lat="42.53435005792317" lon="11.918785099517134"><ele>340.0</ele><time>2026-03-22T16:13:27.869Z</time></trkpt><trkpt lat="42.53417804755024" lon="11.918978942205694"><ele>340.0</ele><time>2026-03-22T16:13:28.869Z</time></trkpt><trkpt lat="42.53400285537711" lon="11.919172734650118"><ele>336.0</ele><time>2026-03-22T16:13:29.869Z</time></trkpt><trkpt lat="42.53382520197407" lon="11.919367194304519"><ele>332.0</ele><time>2026-03-22T16:13:30.869Z</time></trkpt><trkpt lat="42.53364574952062" lon="11.919561120797283"><ele>332.0</ele><time>2026-03-22T16:13:31.869Z</time></trkpt><trkpt lat="42.533465474277975" lon="11.91975468203892"><ele>332.0</ele><time>2026-03-22T16:13:32.869Z</time></trkpt><trkpt lat="42.53328402292437" lon="11.9199436595944"><ele>328.0</ele><time>2026-03-22T16:13:33.869Z</time></trkpt><trkpt lat="42.533096345138105" lon="11.920113014931943"><ele>324.0</ele><time>2026-03-22T16:13:34.869Z</time></trkpt><trkpt lat="42.53289259508112" lon="11.920240435628449"><ele>325.5</ele><time>2026-03-22T16:13:35.869Z</time></trkpt><trkpt lat="42.53268736548911" lon="11.920364392178266"><ele>327.0</ele><time>2026-03-22T16:13:36.869Z</time></trkpt><trkpt lat="42.53247954532507" lon="11.920485948128864"><ele>327.0</ele><time>2026-03-22T16:13:37.869Z</time></trkpt><trkpt lat="42.53225609162066" lon="11.920566347510398"><ele>327.0</ele><time>2026-03-22T16:13:38.869Z</time></trkpt><trkpt lat="42.532043529490544" lon="11.920657911911222"><ele>326.6666666666667</ele><time>2026-03-22T16:13:39.869Z</time></trkpt><trkpt lat="42.53183106335679" lon="11.920743072166763"><ele>326.33333333333337</ele><time>2026-03-22T16:13:40.869Z</time></trkpt><trkpt lat="42.531619417277604" lon="11.920845475146987"><ele>326.0</ele><time>2026-03-22T16:13:41.869Z</time></trkpt><trkpt lat="42.53142452261141" lon="11.920945113013186"><ele>322.6666666666667</ele><time>2026-03-22T16:13:42.869Z</time></trkpt><trkpt lat="42.53124080767922" lon="11.921053412934"><ele>319.3333333333333</ele><time>2026-03-22T16:13:43.868Z</time></trkpt><trkpt lat="42.531062017039645" lon="11.9211941849911"><ele>316.0</ele><time>2026-03-22T16:13:44.868Z</time></trkpt><trkpt lat="42.53089499001301" lon="11.921356546257595"><ele>315.66666666666663</ele><time>2026-03-22T16:13:45.868Z</time></trkpt><trkpt lat="42.53074615973943" lon="11.921539178964437"><ele>315.3333333333333</ele><time>2026-03-22T16:13:46.868Z</time></trkpt><trkpt lat="42.530610045012956" lon="11.921739862870192"><ele>315.0</ele><time>2026-03-22T16:13:47.868Z</time></trkpt><trkpt lat="42.53049032361704" lon="11.92194662654525"><ele>314.6666666666667</ele><time>2026-03-22T16:13:48.868Z</time></trkpt><trkpt lat="42.530407120234955" lon="11.922177860837865"><ele>314.33333333333337</ele><time>2026-03-22T16:13:49.868Z</time></trkpt><trkpt lat="42.53034027067648" lon="11.922429449835366"><ele>314.0</ele><time>2026-03-22T16:13:50.868Z</time></trkpt><trkpt lat="42.5302768661142" lon="11.922677672591698"><ele>314.0</ele><time>2026-03-22T16:13:51.868Z</time></trkpt><trkpt lat="42.53021843861091" lon="11.92291074290381"><ele>314.0</ele><time>2026-03-22T16:13:52.868Z</time></trkpt><trkpt lat="42.53015705143601" lon="11.923134591411129"><ele>314.0</ele><time>2026-03-22T16:13:53.868Z</time></trkpt><trkpt lat="42.53010311208592" lon="11.923374969497933"><ele>315.0</ele><time>2026-03-22T16:13:54.868Z</time></trkpt><trkpt lat="42.53003052931451" lon="11.923629924084391"><ele>316.0</ele><time>2026-03-22T16:13:55.868Z</time></trkpt><trkpt lat="42.52997853798168" lon="11.92388764545632"><ele>317.0</ele><time>2026-03-22T16:13:56.868Z</time></trkpt><trkpt lat="42.52991806577817" lon="11.924139951291098"><ele>318.0</ele><time>2026-03-22T16:13:57.868Z</time></trkpt><trkpt lat="42.52985941341288" lon="11.924390543825384"><ele>319.0</ele><time>2026-03-22T16:13:58.868Z</time></trkpt><trkpt lat="42.5297967046353" lon="11.924649748790323"><ele>320.0</ele><time>2026-03-22T16:13:59.87Z</time></trkpt><trkpt lat="42.529732891948846" lon="11.924912506812353"><ele>320.6666666666667</ele><time>2026-03-22T16:14:00.87Z</time></trkpt><trkpt lat="42.52967531185943" lon="11.925169788118017"><ele>321.3333333333333</ele><time>2026-03-22T16:14:01.87Z</time></trkpt><trkpt lat="42.52962205008213" lon="11.925432416834061"><ele>322.0</ele><time>2026-03-22T16:14:02.87Z</time></trkpt><trkpt lat="42.529561942361184" lon="11.925691967136672"><ele>321.0</ele><time>2026-03-22T16:14:03.87Z</time></trkpt><trkpt lat="42.52950438424348" lon="11.925958778339464"><ele>320.0</ele><time>2026-03-22T16:14:04.87Z</time></trkpt><trkpt lat="42.52944803775795" lon="11.926221915338026"><ele>319.0</ele><time>2026-03-22T16:14:05.87Z</time></trkpt><trkpt lat="42.52939006965756" lon="11.926482111697455"><ele>316.3333333333333</ele><time>2026-03-22T16:14:06.87Z</time></trkpt><trkpt lat="42.52931601276325" lon="11.92673342431961"><ele>313.6666666666667</ele><time>2026-03-22T16:14:07.87Z</time></trkpt><trkpt lat="42.52924749490443" lon="11.926992655642023"><ele>311.0</ele><time>2026-03-22T16:14:08.87Z</time></trkpt><trkpt lat="42.52918364034302" lon="11.927250796204001"><ele>311.0</ele><time>2026-03-22T16:14:09.87Z</time></trkpt><trkpt lat="42.52911848479297" lon="11.927520544210553"><ele>311.0</ele><time>2026-03-22T16:14:10.87Z</time></trkpt><trkpt lat="42.529059648277716" lon="11.92779566836266"><ele>311.0</ele><time>2026-03-22T16:14:11.87Z</time></trkpt><trkpt lat="42.52899326014139" lon="11.928068599775864"><ele>312.0</ele><time>2026-03-22T16:14:12.87Z</time></trkpt><trkpt lat="42.52892995215562" lon="11.928344109791121"><ele>313.0</ele><time>2026-03-22T16:14:13.87Z</time></trkpt><trkpt lat="42.52886997731717" lon="11.928599370821809"><ele>314.0</ele><time>2026-03-22T16:14:14.87Z</time></trkpt><trkpt lat="42.5288089208699" lon="11.928840188180875"><ele>316.6666666666667</ele><time>2026-03-22T16:14:15.87Z</time></trkpt><trkpt lat="42.52875721149042" lon="11.92907581352369"><ele>319.3333333333333</ele><time>2026-03-22T16:14:16.87Z</time></trkpt><trkpt lat="42.5287024863792" lon="11.929311296257342"><ele>322.0</ele><time>2026-03-22T16:14:17.87Z</time></trkpt><trkpt lat="42.528645276923214" lon="11.929549558483775"><ele>324.3333333333333</ele><time>2026-03-22T16:14:18.87Z</time></trkpt><trkpt lat="42.52858953897733" lon="11.929789649232866"><ele>326.6666666666667</ele><time>2026-03-22T16:14:19.87Z</time></trkpt><trkpt lat="42.52853347085208" lon="11.93002969450657"><ele>329.0</ele><time>2026-03-22T16:14:20.87Z</time></trkpt><trkpt lat="42.5284788378425" lon="11.930283165806523"><ele>329.0</ele><time>2026-03-22T16:14:21.87Z</time></trkpt><trkpt lat="42.52841511963803" lon="11.930532226584939"><ele>329.0</ele><time>2026-03-22T16:14:22.87Z</time></trkpt><trkpt lat="42.528352823965264" lon="11.930782053699053"><ele>329.0</ele><time>2026-03-22T16:14:23.87Z</time></trkpt><trkpt lat="42.528292162526455" lon="11.931034135280782"><ele>329.6666666666667</ele><time>2026-03-22T16:14:24.87Z</time></trkpt><trkpt lat="42.52823053794526" lon="11.93128472589787"><ele>330.3333333333333</ele><time>2026-03-22T16:14:25.87Z</time></trkpt><trkpt lat="42.52817236741595" lon="11.93153764776958"><ele>331.0</ele><time>2026-03-22T16:14:26.87Z</time></trkpt><trkpt lat="42.5281186919006" lon="11.931792883922123"><ele>331.3333333333333</ele><time>2026-03-22T16:14:27.87Z</time></trkpt><trkpt lat="42.528071240033455" lon="11.932046602170642"><ele>331.6666666666667</ele><time>2026-03-22T16:14:28.87Z</time></trkpt><trkpt lat="42.52803974629071" lon="11.932300351895357"><ele>332.0</ele><time>2026-03-22T16:14:29.87Z</time></trkpt><trkpt lat="42.528021110721966" lon="11.932554290401496"><ele>331.6666666666667</ele><time>2026-03-22T16:14:30.87Z</time></trkpt><trkpt lat="42.52801137217545" lon="11.93279943233009"><ele>331.3333333333333</ele><time>2026-03-22T16:14:31.87Z</time></trkpt><trkpt lat="42.52801151330601" lon="11.933035266426346"><ele>331.0</ele><time>2026-03-22T16:14:32.87Z</time></trkpt><trkpt lat="42.528014035178394" lon="11.933257911747615"><ele>331.0</ele><time>2026-03-22T16:14:33.87Z</time></trkpt><trkpt lat="42.528021182249276" lon="11.933466530841521"><ele>331.0</ele><time>2026-03-22T16:14:34.87Z</time></trkpt><trkpt lat="42.5280410436119" lon="11.933640331274985"><ele>331.0</ele><time>2026-03-22T16:14:35.87Z</time></trkpt><trkpt lat="42.528065069994625" lon="11.933800400249433"><ele>331.0</ele><time>2026-03-22T16:14:36.87Z</time></trkpt><trkpt lat="42.528084637822964" lon="11.933953768302343"><ele>331.0</ele><time>2026-03-22T16:14:37.87Z</time></trkpt><trkpt lat="42.528097558730394" lon="11.934098916764977"><ele>331.0</ele><time>2026-03-22T16:14:38.87Z</time></trkpt><trkpt lat="42.52811017442784" lon="11.934237974948626"><ele>331.0</ele><time>2026-03-22T16:14:39.87Z</time></trkpt><trkpt lat="42.52812615897066" lon="11.934382294863441"><ele>331.0</ele><time>2026-03-22T16:14:40.87Z</time></trkpt><trkpt lat="42.528141059732775" lon="11.934531908771213"><ele>331.0</ele><time>2026-03-22T16:14:41.87Z</time></trkpt><trkpt lat="42.528156615547495" lon="11.934685424218557"><ele>331.75</ele><time>2026-03-22T16:14:42.87Z</time></trkpt><trkpt lat="42.52817383242837" lon="11.934844387879664"><ele>332.5</ele><time>2026-03-22T16:14:43.87Z</time></trkpt><trkpt lat="42.52819518553925" lon="11.93501210006405"><ele>333.25</ele><time>2026-03-22T16:14:44.87Z</time></trkpt><trkpt lat="42.52822057911273" lon="11.9352067404373"><ele>334.0</ele><time>2026-03-22T16:14:45.87Z</time></trkpt><trkpt lat="42.52823976431232" lon="11.935409711179574"><ele>334.3333333333333</ele><time>2026-03-22T16:14:46.87Z</time></trkpt><trkpt lat="42.52824442239456" lon="11.935656487081154"><ele>334.6666666666667</ele><time>2026-03-22T16:14:47.869Z</time></trkpt><trkpt lat="42.5282667582608" lon="11.935910896612276"><ele>335.0</ele><time>2026-03-22T16:14:48.869Z</time></trkpt><trkpt lat="42.52829844827578" lon="11.936188809281477"><ele>335.0</ele><time>2026-03-22T16:14:49.869Z</time></trkpt><trkpt lat="42.5283299446105" lon="11.93647380074087"><ele>335.0</ele><time>2026-03-22T16:14:50.869Z</time></trkpt><trkpt lat="42.528358314858465" lon="11.936753708251153"><ele>335.0</ele><time>2026-03-22T16:14:51.869Z</time></trkpt><trkpt lat="42.528388364195884" lon="11.937041225186116"><ele>335.0</ele><time>2026-03-22T16:14:52.869Z</time></trkpt><trkpt lat="42.52842154665015" lon="11.937332656137864"><ele>335.0</ele><time>2026-03-22T16:14:53.869Z</time></trkpt><trkpt lat="42.52845313790492" lon="11.937619197696886"><ele>335.0</ele><time>2026-03-22T16:14:54.869Z</time></trkpt><trkpt lat="42.52848432352304" lon="11.937910129302248"><ele>335.33333333333337</ele><time>2026-03-22T16:14:55.869Z</time></trkpt><trkpt lat="42.52850920751817" lon="11.938201401955066"><ele>335.6666666666667</ele><time>2026-03-22T16:14:56.869Z</time></trkpt><trkpt lat="42.528530815773294" lon="11.938478157041729"><ele>336.0</ele><time>2026-03-22T16:14:57.869Z</time></trkpt><trkpt lat="42.52855391180803" lon="11.938746332706787"><ele>336.6666666666667</ele><time>2026-03-22T16:14:58.869Z</time></trkpt><trkpt lat="42.528571858101664" lon="11.939011587655836"><ele>337.33333333333337</ele><time>2026-03-22T16:14:59.869Z</time></trkpt><trkpt lat="42.52857713764096" lon="11.939276503274039"><ele>338.0</ele><time>2026-03-22T16:15:00.869Z</time></trkpt><trkpt lat="42.52857566809525" lon="11.939545459366398"><ele>339.33333333333337</ele><time>2026-03-22T16:15:01.869Z</time></trkpt><trkpt lat="42.52855857988248" lon="11.93981192373577"><ele>340.6666666666667</ele><time>2026-03-22T16:15:02.869Z</time></trkpt><trkpt lat="42.5285163053128" lon="11.94007588018491"><ele>342.0</ele><time>2026-03-22T16:15:03.869Z</time></trkpt><trkpt lat="42.52848187786848" lon="11.940338377903743"><ele>342.6666666666667</ele><time>2026-03-22T16:15:04.869Z</time></trkpt><trkpt lat="42.52842292610826" lon="11.940601623565179"><ele>343.33333333333337</ele><time>2026-03-22T16:15:05.869Z</time></trkpt><trkpt lat="42.52834335640741" lon="11.94085356504714"><ele>344.0</ele><time>2026-03-22T16:15:06.869Z</time></trkpt><trkpt lat="42.52825411725495" lon="11.94110312626666"><ele>344.0</ele><time>2026-03-22T16:15:07.869Z</time></trkpt><trkpt lat="42.52816401490892" lon="11.941344402996837"><ele>344.0</ele><time>2026-03-22T16:15:08.869Z</time></trkpt><trkpt lat="42.528064463103355" lon="11.941589657617111"><ele>344.0</ele><time>2026-03-22T16:15:09.869Z</time></trkpt><trkpt lat="42.52796082364725" lon="11.941838800368519"><ele>345.6666666666667</ele><time>2026-03-22T16:15:10.869Z</time></trkpt><trkpt lat="42.527853369618015" lon="11.942082025114749"><ele>347.3333333333333</ele><time>2026-03-22T16:15:11.869Z</time></trkpt><trkpt lat="42.52774626023348" lon="11.942326043037895"><ele>349.0</ele><time>2026-03-22T16:15:12.869Z</time></trkpt><trkpt lat="42.527636684917866" lon="11.942576994941087"><ele>349.3333333333333</ele><time>2026-03-22T16:15:13.869Z</time></trkpt><trkpt lat="42.52753431290265" lon="11.942838712730635"><ele>349.6666666666667</ele><time>2026-03-22T16:15:14.869Z</time></trkpt><trkpt lat="42.52742824389769" lon="11.94306265590094"><ele>350.0</ele><time>2026-03-22T16:15:15.869Z</time></trkpt><trkpt lat="42.527328622141205" lon="11.943290624778271"><ele>350.6666666666667</ele><time>2026-03-22T16:15:16.869Z</time></trkpt><trkpt lat="42.52723140381304" lon="11.94350985019439"><ele>351.3333333333333</ele><time>2026-03-22T16:15:17.869Z</time></trkpt><trkpt lat="42.52711492743608" lon="11.943729028971292"><ele>352.0</ele><time>2026-03-22T16:15:18.869Z</time></trkpt><trkpt lat="42.527009427187686" lon="11.94395155125226"><ele>352.66666666666663</ele><time>2026-03-22T16:15:19.869Z</time></trkpt><trkpt lat="42.52690312969979" lon="11.944170182727428"><ele>353.3333333333333</ele><time>2026-03-22T16:15:20.869Z</time></trkpt><trkpt lat="42.526799266819296" lon="11.944381263139315"><ele>354.0</ele><time>2026-03-22T16:15:21.869Z</time></trkpt><trkpt lat="42.52669491439055" lon="11.944588519140515"><ele>354.3333333333333</ele><time>2026-03-22T16:15:22.869Z</time></trkpt><trkpt lat="42.52659402166562" lon="11.944788903767403"><ele>354.66666666666663</ele><time>2026-03-22T16:15:23.869Z</time></trkpt><trkpt lat="42.526490072098724" lon="11.94499536050241"><ele>355.0</ele><time>2026-03-22T16:15:24.869Z</time></trkpt><trkpt lat="42.526382205172595" lon="11.945211077255498"><ele>355.0</ele><time>2026-03-22T16:15:25.869Z</time></trkpt><trkpt lat="42.52627231203454" lon="11.945441138904497"><ele>355.0</ele><time>2026-03-22T16:15:26.869Z</time></trkpt><trkpt lat="42.52616663646118" lon="11.945655251090793"><ele>355.0</ele><time>2026-03-22T16:15:27.869Z</time></trkpt><trkpt lat="42.52606342804567" lon="11.945853377383301"><ele>355.3333333333333</ele><time>2026-03-22T16:15:28.869Z</time></trkpt><trkpt lat="42.525961841585364" lon="11.94605780382238"><ele>355.6666666666667</ele><time>2026-03-22T16:15:29.869Z</time></trkpt><trkpt lat="42.525859224871134" lon="11.946269727253602"><ele>356.0</ele><time>2026-03-22T16:15:30.869Z</time></trkpt><trkpt lat="42.52575711540993" lon="11.94648553242666"><ele>356.0</ele><time>2026-03-22T16:15:31.868Z</time></trkpt><trkpt lat="42.52565512431863" lon="11.946706549127045"><ele>356.0</ele><time>2026-03-22T16:15:32.868Z</time></trkpt><trkpt lat="42.52555528935999" lon="11.946927019491861"><ele>356.0</ele><time>2026-03-22T16:15:33.868Z</time></trkpt><trkpt lat="42.52545385775795" lon="11.947154074547047"><ele>356.33333333333337</ele><time>2026-03-22T16:15:34.868Z</time></trkpt><trkpt lat="42.525360142485376" lon="11.94738754448501"><ele>356.6666666666667</ele><time>2026-03-22T16:15:35.868Z</time></trkpt><trkpt lat="42.525265943972386" lon="11.94762587354488"><ele>357.0</ele><time>2026-03-22T16:15:36.868Z</time></trkpt><trkpt lat="42.52518552641416" lon="11.947861335293933"><ele>358.3333333333333</ele><time>2026-03-22T16:15:37.868Z</time></trkpt><trkpt lat="42.52510241824278" lon="11.948112918612539"><ele>359.66666666666663</ele><time>2026-03-22T16:15:38.868Z</time></trkpt><trkpt lat="42.52501832658536" lon="11.948369198863235"><ele>361.0</ele><time>2026-03-22T16:15:39.868Z</time></trkpt><trkpt lat="42.524928182877645" lon="11.948632566081274"><ele>361.0</ele><time>2026-03-22T16:15:40.868Z</time></trkpt><trkpt lat="42.52484354371623" lon="11.948888302622317"><ele>361.0</ele><time>2026-03-22T16:15:41.868Z</time></trkpt><trkpt lat="42.52475683646562" lon="11.949146567762982"><ele>361.0</ele><time>2026-03-22T16:15:42.868Z</time></trkpt><trkpt lat="42.5246787342305" lon="11.94939632343669"><ele>361.66666666666663</ele><time>2026-03-22T16:15:43.868Z</time></trkpt><trkpt lat="42.52459917905877" lon="11.949645746102181"><ele>362.3333333333333</ele><time>2026-03-22T16:15:44.868Z</time></trkpt><trkpt lat="42.52452425334528" lon="11.949899802485385"><ele>363.0</ele><time>2026-03-22T16:15:45.868Z</time></trkpt><trkpt lat="42.52444794943915" lon="11.950149811009899"><ele>364.3333333333333</ele><time>2026-03-22T16:15:46.868Z</time></trkpt><trkpt lat="42.52438030548386" lon="11.950404234349651"><ele>365.66666666666663</ele><time>2026-03-22T16:15:47.868Z</time></trkpt><trkpt lat="42.52432391121302" lon="11.950661346839706"><ele>367.0</ele><time>2026-03-22T16:15:48.868Z</time></trkpt><trkpt lat="42.52427169272302" lon="11.950938982554884"><ele>367.0</ele><time>2026-03-22T16:15:49.868Z</time></trkpt><trkpt lat="42.524224316419904" lon="11.951208106444296"><ele>367.0</ele><time>2026-03-22T16:15:50.868Z</time></trkpt><trkpt lat="42.524180470524186" lon="11.95148143670175"><ele>367.0</ele><time>2026-03-22T16:15:51.868Z</time></trkpt><trkpt lat="42.52413308668573" lon="11.951764306285249"><ele>367.66666666666663</ele><time>2026-03-22T16:15:52.868Z</time></trkpt><trkpt lat="42.52409449337439" lon="11.95204594499556"><ele>368.3333333333333</ele><time>2026-03-22T16:15:53.868Z</time></trkpt><trkpt lat="42.5240668952066" lon="11.95233455026715"><ele>369.0</ele><time>2026-03-22T16:15:54.868Z</time></trkpt><trkpt lat="42.52404868688061" lon="11.952623283016633"><ele>369.3333333333333</ele><time>2026-03-22T16:15:55.868Z</time></trkpt><trkpt lat="42.524027229918026" lon="11.952906300908102"><ele>369.66666666666663</ele><time>2026-03-22T16:15:56.868Z</time></trkpt><trkpt lat="42.52405963775543" lon="11.953199560740027"><ele>370.0</ele><time>2026-03-22T16:15:57.868Z</time></trkpt><trkpt lat="42.52408581352299" lon="11.953491315132647"><ele>371.0</ele><time>2026-03-22T16:15:58.868Z</time></trkpt><trkpt lat="42.524122135005726" lon="11.953780651413656"><ele>372.0</ele><time>2026-03-22T16:15:59.868Z</time></trkpt><trkpt lat="42.52416208132602" lon="11.954062973186241"><ele>373.0</ele><time>2026-03-22T16:16:00.868Z</time></trkpt><trkpt lat="42.52418984024952" lon="11.954345885209397"><ele>374.66666666666663</ele><time>2026-03-22T16:16:01.868Z</time></trkpt><trkpt lat="42.52419910092018" lon="11.95464171192497"><ele>376.3333333333333</ele><time>2026-03-22T16:16:02.868Z</time></trkpt><trkpt lat="42.52418165983805" lon="11.954925597076274"><ele>378.0</ele><time>2026-03-22T16:16:03.868Z</time></trkpt><trkpt lat="42.52415801557035" lon="11.95519831680509"><ele>379.0</ele><time>2026-03-22T16:16:04.868Z</time></trkpt><trkpt lat="42.524113678087396" lon="11.955479215690207"><ele>380.0</ele><time>2026-03-22T16:16:05.87Z</time></trkpt><trkpt lat="42.52405752193015" lon="11.955766486360197"><ele>381.0</ele><time>2026-03-22T16:16:06.87Z</time></trkpt><trkpt lat="42.52401243262199" lon="11.956056507664359"><ele>381.3333333333333</ele><time>2026-03-22T16:16:07.87Z</time></trkpt><trkpt lat="42.52396337465366" lon="11.956350870478156"><ele>381.66666666666663</ele><time>2026-03-22T16:16:08.87Z</time></trkpt><trkpt lat="42.52391672748678" lon="11.956646079552497"><ele>382.0</ele><time>2026-03-22T16:16:09.87Z</time></trkpt><trkpt lat="42.52387592853429" lon="11.956951188781305"><ele>381.0</ele><time>2026-03-22T16:16:10.87Z</time></trkpt><trkpt lat="42.523855408393885" lon="11.957262145099845"><ele>380.0</ele><time>2026-03-22T16:16:11.87Z</time></trkpt><trkpt lat="42.52385734224624" lon="11.957573034259207"><ele>379.0</ele><time>2026-03-22T16:16:12.869Z</time></trkpt><trkpt lat="42.523874810465756" lon="11.95788241120956"><ele>378.0</ele><time>2026-03-22T16:16:13.869Z</time></trkpt><trkpt lat="42.523901021525376" lon="11.958192079090631"><ele>376.6666666666667</ele><time>2026-03-22T16:16:14.87Z</time></trkpt><trkpt lat="42.523933782073456" lon="11.958497050283443"><ele>375.33333333333337</ele><time>2026-03-22T16:16:15.869Z</time></trkpt><trkpt lat="42.523961554077275" lon="11.958790693962609"><ele>374.0</ele><time>2026-03-22T16:16:16.869Z</time></trkpt><trkpt lat="42.52398670721049" lon="11.95908585520004"><ele>374.6666666666667</ele><time>2026-03-22T16:16:17.869Z</time></trkpt><trkpt lat="42.5240133302398" lon="11.95937872073258"><ele>375.3333333333333</ele><time>2026-03-22T16:16:18.87Z</time></trkpt><trkpt lat="42.52403872292919" lon="11.959668844827492"><ele>376.0</ele><time>2026-03-22T16:16:19.87Z</time></trkpt><trkpt lat="42.52406541891405" lon="11.95995746838387"><ele>376.66666666666663</ele><time>2026-03-22T16:16:20.87Z</time></trkpt><trkpt lat="42.524077249494106" lon="11.960248911543113"><ele>377.3333333333333</ele><time>2026-03-22T16:16:21.87Z</time></trkpt><trkpt lat="42.52410619441886" lon="11.960536119890198"><ele>378.0</ele><time>2026-03-22T16:16:22.87Z</time></trkpt><trkpt lat="42.52413803637143" lon="11.960825637828652"><ele>377.6666666666667</ele><time>2026-03-22T16:16:23.87Z</time></trkpt><trkpt lat="42.52417827403169" lon="11.961119563284832"><ele>377.33333333333337</ele><time>2026-03-22T16:16:24.87Z</time></trkpt><trkpt lat="42.52422284533007" lon="11.96141556656162"><ele>377.0</ele><time>2026-03-22T16:16:25.87Z</time></trkpt><trkpt lat="42.52426976552485" lon="11.961715087394857"><ele>376.0</ele><time>2026-03-22T16:16:26.87Z</time></trkpt><trkpt lat="42.52431683513089" lon="11.96201536147018"><ele>375.0</ele><time>2026-03-22T16:16:27.87Z</time></trkpt><trkpt lat="42.52436212388372" lon="11.962305764404649"><ele>374.0</ele><time>2026-03-22T16:16:28.87Z</time></trkpt><trkpt lat="42.524404635643336" lon="11.96258746807371"><ele>373.6666666666667</ele><time>2026-03-22T16:16:29.87Z</time></trkpt><trkpt lat="42.52446053917688" lon="11.962864420154805"><ele>373.3333333333333</ele><time>2026-03-22T16:16:30.87Z</time></trkpt><trkpt lat="42.524492381042265" lon="11.963147517720786"><ele>373.0</ele><time>2026-03-22T16:16:31.87Z</time></trkpt><trkpt lat="42.52452640430937" lon="11.963423896947003"><ele>373.0</ele><time>2026-03-22T16:16:32.87Z</time></trkpt><trkpt lat="42.52455516912088" lon="11.963693714617204"><ele>373.0</ele><time>2026-03-22T16:16:33.869Z</time></trkpt><trkpt lat="42.5245702149437" lon="11.963959402389598"><ele>373.0</ele><time>2026-03-22T16:16:34.869Z</time></trkpt><trkpt lat="42.52456388094054" lon="11.96422404276978"><ele>372.66666666666663</ele><time>2026-03-22T16:16:35.869Z</time></trkpt><trkpt lat="42.52453835546382" lon="11.964485119223193"><ele>372.3333333333333</ele><time>2026-03-22T16:16:36.869Z</time></trkpt><trkpt lat="42.524520189222564" lon="11.964737166131243"><ele>372.0</ele><time>2026-03-22T16:16:37.869Z</time></trkpt><trkpt lat="42.52445916025995" lon="11.964970167623358"><ele>373.6666666666667</ele><time>2026-03-22T16:16:38.869Z</time></trkpt><trkpt lat="42.52443064323294" lon="11.965203486912424"><ele>375.33333333333337</ele><time>2026-03-22T16:16:39.869Z</time></trkpt><trkpt lat="42.524394757833676" lon="11.965427424714937"><ele>377.0</ele><time>2026-03-22T16:16:40.869Z</time></trkpt><trkpt lat="42.52434334457749" lon="11.965631920943233"><ele>377.0</ele><time>2026-03-22T16:16:41.869Z</time></trkpt><trkpt lat="42.52429636465409" lon="11.9658299648064"><ele>377.0</ele><time>2026-03-22T16:16:42.869Z</time></trkpt><trkpt lat="42.52424548434895" lon="11.966019841077271"><ele>377.0</ele><time>2026-03-22T16:16:43.869Z</time></trkpt><trkpt lat="42.5241978578427" lon="11.966201937613025"><ele>377.0</ele><time>2026-03-22T16:16:44.869Z</time></trkpt><trkpt lat="42.52415361943024" lon="11.966371934319575"><ele>377.6</ele><time>2026-03-22T16:16:45.869Z</time></trkpt><trkpt lat="42.52410680328259" lon="11.966519599966205"><ele>378.20000000000005</ele><time>2026-03-22T16:16:46.869Z</time></trkpt><trkpt lat="42.524056749075775" lon="11.96665666237076"><ele>378.8</ele><time>2026-03-22T16:16:47.869Z</time></trkpt><trkpt lat="42.52400868348648" lon="11.966784754610146"><ele>379.4</ele><time>2026-03-22T16:16:48.869Z</time></trkpt><trkpt lat="42.52397475307944" lon="11.966919491546792"><ele>380.0</ele><time>2026-03-22T16:16:49.869Z</time></trkpt><trkpt lat="42.523967498113386" lon="11.967068273162111"><ele>381.0</ele><time>2026-03-22T16:16:50.869Z</time></trkpt><trkpt lat="42.523980392872446" lon="11.96722380198709"><ele>382.0</ele><time>2026-03-22T16:16:51.869Z</time></trkpt><trkpt lat="42.52398440736246" lon="11.967388633962406"><ele>383.0</ele><time>2026-03-22T16:16:52.869Z</time></trkpt><trkpt lat="42.5239551649539" lon="11.967555184976126"><ele>384.0</ele><time>2026-03-22T16:16:53.869Z</time></trkpt><trkpt lat="42.52391998966782" lon="11.96772968928728"><ele>384.33333333333337</ele><time>2026-03-22T16:16:54.869Z</time></trkpt><trkpt lat="42.52387123305531" lon="11.96791046400795"><ele>384.6666666666667</ele><time>2026-03-22T16:16:55.869Z</time></trkpt><trkpt lat="42.52379968809099" lon="11.968097309340655"><ele>385.0</ele><time>2026-03-22T16:16:56.869Z</time></trkpt><trkpt lat="42.52371291816939" lon="11.968276383575459"><ele>388.0</ele><time>2026-03-22T16:16:57.869Z</time></trkpt><trkpt lat="42.52361395880859" lon="11.968439473760421"><ele>391.0</ele><time>2026-03-22T16:16:58.869Z</time></trkpt><trkpt lat="42.523507224670595" lon="11.968604904246043"><ele>394.0</ele><time>2026-03-22T16:16:59.869Z</time></trkpt><trkpt lat="42.523405087437375" lon="11.96877304493486"><ele>394.0</ele><time>2026-03-22T16:17:00.869Z</time></trkpt><trkpt lat="42.52329302775976" lon="11.96893999505278"><ele>394.0</ele><time>2026-03-22T16:17:01.869Z</time></trkpt><trkpt lat="42.52318405753727" lon="11.969116599555838"><ele>394.0</ele><time>2026-03-22T16:17:02.869Z</time></trkpt><trkpt lat="42.52307743743554" lon="11.969296101766757"><ele>393.6666666666667</ele><time>2026-03-22T16:17:03.869Z</time></trkpt><trkpt lat="42.52297618204948" lon="11.969484868466825"><ele>393.33333333333337</ele><time>2026-03-22T16:17:04.869Z</time></trkpt><trkpt lat="42.52288736570424" lon="11.969686183815076"><ele>393.0</ele><time>2026-03-22T16:17:05.869Z</time></trkpt><trkpt lat="42.52281125813855" lon="11.969900594275224"><ele>394.0</ele><time>2026-03-22T16:17:06.869Z</time></trkpt><trkpt lat="42.52274654074927" lon="11.970123988226298"><ele>395.0</ele><time>2026-03-22T16:17:07.869Z</time></trkpt><trkpt lat="42.52269577555441" lon="11.970354111776363"><ele>396.0</ele><time>2026-03-22T16:17:08.869Z</time></trkpt><trkpt lat="42.52266267810443" lon="11.970594011287343"><ele>396.0</ele><time>2026-03-22T16:17:09.869Z</time></trkpt><trkpt lat="42.522645964571296" lon="11.970832932600084"><ele>396.0</ele><time>2026-03-22T16:17:10.869Z</time></trkpt><trkpt lat="42.52263564711295" lon="11.971073643520999"><ele>396.0</ele><time>2026-03-22T16:17:11.869Z</time></trkpt><trkpt lat="42.52261893558798" lon="11.971315234581553"><ele>396.66666666666663</ele><time>2026-03-22T16:17:12.869Z</time></trkpt><trkpt lat="42.52260302751987" lon="11.971562437101447"><ele>397.3333333333333</ele><time>2026-03-22T16:17:13.869Z</time></trkpt><trkpt lat="42.522591169647725" lon="11.971805988400748"><ele>398.0</ele><time>2026-03-22T16:17:14.869Z</time></trkpt><trkpt lat="42.522578775781575" lon="11.97205735002643"><ele>400.0</ele><time>2026-03-22T16:17:15.869Z</time></trkpt><trkpt lat="42.522563149570054" lon="11.972303333417576"><ele>402.0</ele><time>2026-03-22T16:17:16.869Z</time></trkpt><trkpt lat="42.52254457127131" lon="11.972550630905754"><ele>404.0</ele><time>2026-03-22T16:17:17.868Z</time></trkpt><trkpt lat="42.52251606322041" lon="11.972794050224376"><ele>405.0</ele><time>2026-03-22T16:17:18.868Z</time></trkpt><trkpt lat="42.52246832269169" lon="11.973035583532834"><ele>406.0</ele><time>2026-03-22T16:17:19.868Z</time></trkpt><trkpt lat="42.5224109177136" lon="11.973276234822963"><ele>407.0</ele><time>2026-03-22T16:17:20.868Z</time></trkpt><trkpt lat="42.52234199921169" lon="11.973511383763883"><ele>408.3333333333333</ele><time>2026-03-22T16:17:21.868Z</time></trkpt><trkpt lat="42.522264220783576" lon="11.973740689797312"><ele>409.66666666666663</ele><time>2026-03-22T16:17:22.868Z</time></trkpt><trkpt lat="42.52217702790871" lon="11.973953697685472"><ele>411.0</ele><time>2026-03-22T16:17:23.868Z</time></trkpt><trkpt lat="42.52209209901833" lon="11.974159070439475"><ele>410.33333333333337</ele><time>2026-03-22T16:17:24.868Z</time></trkpt><trkpt lat="42.52201075241864" lon="11.974358311431844"><ele>409.6666666666667</ele><time>2026-03-22T16:17:25.868Z</time></trkpt><trkpt lat="42.52192986554615" lon="11.974556121848401"><ele>409.0</ele><time>2026-03-22T16:17:26.868Z</time></trkpt><trkpt lat="42.52186684764699" lon="11.974760532342845"><ele>409.0</ele><time>2026-03-22T16:17:27.868Z</time></trkpt><trkpt lat="42.52183191483201" lon="11.97497938710177"><ele>409.0</ele><time>2026-03-22T16:17:28.868Z</time></trkpt><trkpt lat="42.521831209616565" lon="11.975196347026454"><ele>409.0</ele><time>2026-03-22T16:17:29.868Z</time></trkpt><trkpt lat="42.521861095565676" lon="11.97540780359608"><ele>409.33333333333337</ele><time>2026-03-22T16:17:30.868Z</time></trkpt><trkpt lat="42.52192498380427" lon="11.975603467458646"><ele>409.66666666666663</ele><time>2026-03-22T16:17:31.868Z</time></trkpt><trkpt lat="42.52201958775449" lon="11.975768430241413"><ele>410.0</ele><time>2026-03-22T16:17:32.868Z</time></trkpt><trkpt lat="42.522135760303364" lon="11.97590992956927"><ele>410.0</ele><time>2026-03-22T16:17:33.868Z</time></trkpt><trkpt lat="42.52226878650502" lon="11.976028016399034"><ele>410.0</ele><time>2026-03-22T16:17:34.868Z</time></trkpt><trkpt lat="42.52241786370018" lon="11.976129807319948"><ele>410.0</ele><time>2026-03-22T16:17:35.868Z</time></trkpt><trkpt lat="42.52257020577427" lon="11.976235123373392"><ele>410.0</ele><time>2026-03-22T16:17:36.868Z</time></trkpt><trkpt lat="42.52273102456994" lon="11.976340189717792"><ele>410.0</ele><time>2026-03-22T16:17:37.868Z</time></trkpt><trkpt lat="42.522897780585126" lon="11.976446575458457"><ele>410.0</ele><time>2026-03-22T16:17:38.868Z</time></trkpt><trkpt lat="42.52306404252993" lon="11.976549898240314"><ele>413.0</ele><time>2026-03-22T16:17:39.868Z</time></trkpt><trkpt lat="42.52322594844416" lon="11.976652282479675"><ele>416.0</ele><time>2026-03-22T16:17:40.868Z</time></trkpt><trkpt lat="42.523383564593956" lon="11.976757380800228"><ele>419.0</ele><time>2026-03-22T16:17:41.868Z</time></trkpt><trkpt lat="42.523535526005205" lon="11.976880622570066"><ele>419.0</ele><time>2026-03-22T16:17:42.868Z</time></trkpt><trkpt lat="42.52367557744727" lon="11.977025078413599"><ele>419.0</ele><time>2026-03-22T16:17:43.868Z</time></trkpt><trkpt lat="42.5238003938858" lon="11.977194413648851"><ele>419.0</ele><time>2026-03-22T16:17:44.868Z</time></trkpt><trkpt lat="42.523892421375464" lon="11.977397492404949"><ele>422.0</ele><time>2026-03-22T16:17:45.868Z</time></trkpt><trkpt lat="42.52398640070441" lon="11.977603325106337"><ele>425.0</ele><time>2026-03-22T16:17:46.868Z</time></trkpt><trkpt lat="42.524075899871804" lon="11.977805010559136"><ele>428.0</ele><time>2026-03-22T16:17:47.868Z</time></trkpt><trkpt lat="42.524161206078574" lon="11.977995085137048"><ele>428.0</ele><time>2026-03-22T16:17:48.868Z</time></trkpt><trkpt lat="42.524239630680675" lon="11.978167752400068"><ele>428.0</ele><time>2026-03-22T16:17:49.868Z</time></trkpt><trkpt lat="42.524313559427746" lon="11.978330492072873"><ele>428.0</ele><time>2026-03-22T16:17:50.868Z</time></trkpt><trkpt lat="42.5243829428169" lon="11.978486540642987"><ele>428.0</ele><time>2026-03-22T16:17:51.868Z</time></trkpt><trkpt lat="42.52445224125958" lon="11.978641803767198"><ele>427.59999999999997</ele><time>2026-03-22T16:17:52.868Z</time></trkpt><trkpt lat="42.52453140410251" lon="11.97877468489433"><ele>427.19999999999993</ele><time>2026-03-22T16:17:53.868Z</time></trkpt><trkpt lat="42.52457471772516" lon="11.978914283168656"><ele>426.8</ele><time>2026-03-22T16:17:54.868Z</time></trkpt><trkpt lat="42.52462551768108" lon="11.979035411423222"><ele>426.4</ele><time>2026-03-22T16:17:55.868Z</time></trkpt><trkpt lat="42.52467679821632" lon="11.979148678014184"><ele>426.0</ele><time>2026-03-22T16:17:56.868Z</time></trkpt><trkpt lat="42.524738172108634" lon="11.979263817331779"><ele>428.20000000000005</ele><time>2026-03-22T16:17:57.868Z</time></trkpt><trkpt lat="42.52479901306018" lon="11.979379696614295"><ele>430.40000000000003</ele><time>2026-03-22T16:17:58.868Z</time></trkpt><trkpt lat="42.524840681279976" lon="11.979494418000183"><ele>432.6</ele><time>2026-03-22T16:17:59.868Z</time></trkpt><trkpt lat="42.524907313001286" lon="11.979601923392941"><ele>434.8</ele><time>2026-03-22T16:18:00.868Z</time></trkpt><trkpt lat="42.52497961054324" lon="11.97970764042638"><ele>437.0</ele><time>2026-03-22T16:18:01.867Z</time></trkpt><trkpt lat="42.525055100436184" lon="11.97981192004314"><ele>437.0</ele><time>2026-03-22T16:18:02.867Z</time></trkpt><trkpt lat="42.52513462626645" lon="11.979916823922443"><ele>437.0</ele><time>2026-03-22T16:18:03.867Z</time></trkpt><trkpt lat="42.525204021867076" lon="11.98003944410287"><ele>437.0</ele><time>2026-03-22T16:18:04.867Z</time></trkpt><trkpt lat="42.52528660969438" lon="11.980159561023589"><ele>437.0</ele><time>2026-03-22T16:18:05.867Z</time></trkpt><trkpt lat="42.52536909152523" lon="11.980283881646642"><ele>439.25</ele><time>2026-03-22T16:18:06.867Z</time></trkpt><trkpt lat="42.52545314967119" lon="11.980408142065533"><ele>441.5</ele><time>2026-03-22T16:18:07.867Z</time></trkpt><trkpt lat="42.52553685148959" lon="11.980532224578875"><ele>443.75</ele><time>2026-03-22T16:18:08.867Z</time></trkpt><trkpt lat="42.525621348825446" lon="11.980652909856808"><ele>446.0</ele><time>2026-03-22T16:18:09.867Z</time></trkpt><trkpt lat="42.5257028058429" lon="11.980772887193048"><ele>448.5</ele><time>2026-03-22T16:18:10.867Z</time></trkpt><trkpt lat="42.525773042173384" lon="11.980898897786636"><ele>451.0</ele><time>2026-03-22T16:18:11.869Z</time></trkpt><trkpt lat="42.52584460358794" lon="11.981022968922403"><ele>453.5</ele><time>2026-03-22T16:18:12.869Z</time></trkpt><trkpt lat="42.52592596291007" lon="11.981137054879513"><ele>456.0</ele><time>2026-03-22T16:18:13.869Z</time></trkpt><trkpt lat="42.52600967900952" lon="11.981248988318415"><ele>456.0</ele><time>2026-03-22T16:18:14.869Z</time></trkpt><trkpt lat="42.526088781570145" lon="11.981367016099394"><ele>456.0</ele><time>2026-03-22T16:18:15.869Z</time></trkpt><trkpt lat="42.52616359824805" lon="11.981499092389532"><ele>456.0</ele><time>2026-03-22T16:18:16.869Z</time></trkpt><trkpt lat="42.52623209295285" lon="11.98164181872973"><ele>456.0</ele><time>2026-03-22T16:18:17.869Z</time></trkpt><trkpt lat="42.52628952480959" lon="11.981800655655142"><ele>454.25</ele><time>2026-03-22T16:18:18.869Z</time></trkpt><trkpt lat="42.52634128540141" lon="11.981963027448096"><ele>452.5</ele><time>2026-03-22T16:18:19.869Z</time></trkpt><trkpt lat="42.52638671401843" lon="11.98213042499691"><ele>450.75</ele><time>2026-03-22T16:18:20.869Z</time></trkpt><trkpt lat="42.52642994811085" lon="11.982302357749457"><ele>449.0</ele><time>2026-03-22T16:18:21.869Z</time></trkpt><trkpt lat="42.52647371871801" lon="11.982476802798185"><ele>449.0</ele><time>2026-03-22T16:18:22.869Z</time></trkpt><trkpt lat="42.52651873953469" lon="11.982657509498567"><ele>449.0</ele><time>2026-03-22T16:18:23.869Z</time></trkpt><trkpt lat="42.52656413844249" lon="11.98283401784207"><ele>449.0</ele><time>2026-03-22T16:18:24.869Z</time></trkpt><trkpt lat="42.52660704849222" lon="11.983011439390557"><ele>449.0</ele><time>2026-03-22T16:18:25.869Z</time></trkpt><trkpt lat="42.52665503044827" lon="11.98319210421074"><ele>447.75</ele><time>2026-03-22T16:18:26.869Z</time></trkpt><trkpt lat="42.526701750984564" lon="11.983374858542701"><ele>446.5</ele><time>2026-03-22T16:18:27.869Z</time></trkpt><trkpt lat="42.526758806173625" lon="11.983543730722127"><ele>445.25</ele><time>2026-03-22T16:18:28.869Z</time></trkpt><trkpt lat="42.52683302738929" lon="11.9837021945158"><ele>444.0</ele><time>2026-03-22T16:18:29.869Z</time></trkpt><trkpt lat="42.52692511500061" lon="11.983853957934825"><ele>444.0</ele><time>2026-03-22T16:18:30.869Z</time></trkpt><trkpt lat="42.52703033108373" lon="11.983993477933081"><ele>444.0</ele><time>2026-03-22T16:18:31.869Z</time></trkpt><trkpt lat="42.527138754928394" lon="11.984139911469045"><ele>444.0</ele><time>2026-03-22T16:18:32.869Z</time></trkpt><trkpt lat="42.527244984791174" lon="11.98429819793812"><ele>444.66666666666663</ele><time>2026-03-22T16:18:33.869Z</time></trkpt><trkpt lat="42.527347622728705" lon="11.984471698665153"><ele>445.3333333333333</ele><time>2026-03-22T16:18:34.869Z</time></trkpt><trkpt lat="42.527437481511924" lon="11.984661304462964"><ele>446.0</ele><time>2026-03-22T16:18:35.869Z</time></trkpt><trkpt lat="42.527514226045106" lon="11.984868057768189"><ele>446.0</ele><time>2026-03-22T16:18:36.869Z</time></trkpt><trkpt lat="42.527568511232474" lon="11.985093283436886"><ele>446.0</ele><time>2026-03-22T16:18:37.869Z</time></trkpt><trkpt lat="42.52760351356671" lon="11.985331331577191"><ele>446.0</ele><time>2026-03-22T16:18:38.869Z</time></trkpt><trkpt lat="42.52761703512363" lon="11.985570395710798"><ele>446.0</ele><time>2026-03-22T16:18:39.869Z</time></trkpt><trkpt lat="42.52762479092613" lon="11.985812822948713"><ele>446.0</ele><time>2026-03-22T16:18:40.869Z</time></trkpt><trkpt lat="42.52763344124477" lon="11.986067462456008"><ele>446.0</ele><time>2026-03-22T16:18:41.869Z</time></trkpt><trkpt lat="42.52764057271386" lon="11.986318236771899"><ele>447.0</ele><time>2026-03-22T16:18:42.868Z</time></trkpt><trkpt lat="42.52764536681872" lon="11.986559048513774"><ele>448.0</ele><time>2026-03-22T16:18:43.868Z</time></trkpt><trkpt lat="42.52765003209194" lon="11.986798722539898"><ele>449.0</ele><time>2026-03-22T16:18:44.868Z</time></trkpt><trkpt lat="42.527657585746226" lon="11.987040677770299"><ele>449.3333333333333</ele><time>2026-03-22T16:18:45.868Z</time></trkpt><trkpt lat="42.52766588757069" lon="11.987288242377728"><ele>449.66666666666663</ele><time>2026-03-22T16:18:46.868Z</time></trkpt><trkpt lat="42.527674496777486" lon="11.987535207072712"><ele>450.0</ele><time>2026-03-22T16:18:47.868Z</time></trkpt><trkpt lat="42.52768244437749" lon="11.98778609890375"><ele>450.66666666666663</ele><time>2026-03-22T16:18:48.868Z</time></trkpt><trkpt lat="42.52769692057332" lon="11.988038774348768"><ele>451.3333333333333</ele><time>2026-03-22T16:18:49.868Z</time></trkpt><trkpt lat="42.52770123217137" lon="11.988289313444701"><ele>452.0</ele><time>2026-03-22T16:18:50.868Z</time></trkpt><trkpt lat="42.52771228744293" lon="11.988546159415561"><ele>453.0</ele><time>2026-03-22T16:18:51.868Z</time></trkpt><trkpt lat="42.52772134818586" lon="11.988799560236329"><ele>454.0</ele><time>2026-03-22T16:18:52.868Z</time></trkpt><trkpt lat="42.52773158297214" lon="11.989048886334475"><ele>455.0</ele><time>2026-03-22T16:18:53.868Z</time></trkpt><trkpt lat="42.5277389241281" lon="11.989291235640525"><ele>455.66666666666663</ele><time>2026-03-22T16:18:54.868Z</time></trkpt><trkpt lat="42.527745700093135" lon="11.989534289899549"><ele>456.33333333333337</ele><time>2026-03-22T16:18:55.868Z</time></trkpt><trkpt lat="42.52775481229007" lon="11.989783081254705"><ele>457.0</ele><time>2026-03-22T16:18:56.868Z</time></trkpt><trkpt lat="42.52776641894484" lon="11.990026699434992"><ele>457.0</ele><time>2026-03-22T16:18:57.868Z</time></trkpt><trkpt lat="42.52777976102895" lon="11.990274822596636"><ele>457.0</ele><time>2026-03-22T16:18:58.868Z</time></trkpt><trkpt lat="42.52779304780388" lon="11.990528018468398"><ele>457.0</ele><time>2026-03-22T16:18:59.868Z</time></trkpt><trkpt lat="42.52780557981321" lon="11.99078236832055"><ele>458.0</ele><time>2026-03-22T16:19:00.868Z</time></trkpt><trkpt lat="42.52781060210365" lon="11.99103125205956"><ele>459.0</ele><time>2026-03-22T16:19:01.868Z</time></trkpt><trkpt lat="42.52780155504244" lon="11.991273205088902"><ele>460.0</ele><time>2026-03-22T16:19:02.868Z</time></trkpt><trkpt lat="42.52777108848941" lon="11.991508211025389"><ele>461.33333333333337</ele><time>2026-03-22T16:19:03.868Z</time></trkpt><trkpt lat="42.52771418137512" lon="11.991727744666266"><ele>462.66666666666663</ele><time>2026-03-22T16:19:04.868Z</time></trkpt><trkpt lat="42.527623248779136" lon="11.99192676274179"><ele>464.0</ele><time>2026-03-22T16:19:05.868Z</time></trkpt><trkpt lat="42.52751474134719" lon="11.992098180970238"><ele>464.0</ele><time>2026-03-22T16:19:06.868Z</time></trkpt><trkpt lat="42.527398247062074" lon="11.992268360029227"><ele>464.0</ele><time>2026-03-22T16:19:07.868Z</time></trkpt><trkpt lat="42.52728059873597" lon="11.992454335469436"><ele>464.0</ele><time>2026-03-22T16:19:08.868Z</time></trkpt><trkpt lat="42.52715398070314" lon="11.9926332633584"><ele>466.66666666666663</ele><time>2026-03-22T16:19:09.868Z</time></trkpt><trkpt lat="42.5270299489745" lon="11.992817384911396"><ele>469.33333333333337</ele><time>2026-03-22T16:19:10.868Z</time></trkpt><trkpt lat="42.52690580272511" lon="11.992997485190823"><ele>472.0</ele><time>2026-03-22T16:19:11.868Z</time></trkpt><trkpt lat="42.52677152796474" lon="11.993159320474913"><ele>472.0</ele><time>2026-03-22T16:19:12.868Z</time></trkpt><trkpt lat="42.5266475465916" lon="11.993336265495943"><ele>472.0</ele><time>2026-03-22T16:19:13.868Z</time></trkpt><trkpt lat="42.526532797656856" lon="11.993524086297263"><ele>472.0</ele><time>2026-03-22T16:19:14.868Z</time></trkpt><trkpt lat="42.526438174188556" lon="11.993731551449454"><ele>473.6666666666667</ele><time>2026-03-22T16:19:15.868Z</time></trkpt><trkpt lat="42.52636795697665" lon="11.99395582948364"><ele>475.33333333333337</ele><time>2026-03-22T16:19:16.868Z</time></trkpt><trkpt lat="42.52631847661117" lon="11.994188707398589"><ele>477.0</ele><time>2026-03-22T16:19:17.868Z</time></trkpt><trkpt lat="42.52629221009573" lon="11.994435115187919"><ele>477.33333333333337</ele><time>2026-03-22T16:19:18.868Z</time></trkpt><trkpt lat="42.5262806602943" lon="11.994685041314165"><ele>477.6666666666667</ele><time>2026-03-22T16:19:19.868Z</time></trkpt><trkpt lat="42.5262730552776" lon="11.994942801406644"><ele>478.0</ele><time>2026-03-22T16:19:20.868Z</time></trkpt><trkpt lat="42.526263604265104" lon="11.995189113126022"><ele>478.0</ele><time>2026-03-22T16:19:21.868Z</time></trkpt><trkpt lat="42.526255751395325" lon="11.995440680210436"><ele>478.0</ele><time>2026-03-22T16:19:22.868Z</time></trkpt><trkpt lat="42.52624631624331" lon="11.995687065732705"><ele>478.0</ele><time>2026-03-22T16:19:23.868Z</time></trkpt><trkpt lat="42.52623509074655" lon="11.995934406471369"><ele>478.6666666666667</ele><time>2026-03-22T16:19:24.868Z</time></trkpt><trkpt lat="42.52622324377522" lon="11.996185659293578"><ele>479.33333333333337</ele><time>2026-03-22T16:19:25.868Z</time></trkpt><trkpt lat="42.52619862043418" lon="11.996438003334191"><ele>480.0</ele><time>2026-03-22T16:19:26.867Z</time></trkpt><trkpt lat="42.526190541592044" lon="11.996694326582483"><ele>480.33333333333337</ele><time>2026-03-22T16:19:27.867Z</time></trkpt><trkpt lat="42.526191504050246" lon="11.996956369163621"><ele>480.6666666666667</ele><time>2026-03-22T16:19:28.867Z</time></trkpt><trkpt lat="42.526204965494436" lon="11.997211716220715"><ele>481.0</ele><time>2026-03-22T16:19:29.867Z</time></trkpt><trkpt lat="42.526240502596536" lon="11.997473111746444"><ele>481.6666666666667</ele><time>2026-03-22T16:19:30.867Z</time></trkpt><trkpt lat="42.52628917787812" lon="11.997731876589345"><ele>482.33333333333337</ele><time>2026-03-22T16:19:31.867Z</time></trkpt><trkpt lat="42.52634058111265" lon="11.997985543709209"><ele>483.0</ele><time>2026-03-22T16:19:32.867Z</time></trkpt><trkpt lat="42.52638493624281" lon="11.998242363481985"><ele>484.0</ele><time>2026-03-22T16:19:33.867Z</time></trkpt><trkpt lat="42.52642667699188" lon="11.998491390832687"><ele>485.0</ele><time>2026-03-22T16:19:34.867Z</time></trkpt><trkpt lat="42.52645690314913" lon="11.998725516623603"><ele>486.0</ele><time>2026-03-22T16:19:35.867Z</time></trkpt><trkpt lat="42.52647615271666" lon="11.998968115826624"><ele>487.33333333333337</ele><time>2026-03-22T16:19:36.867Z</time></trkpt><trkpt lat="42.52647707129922" lon="11.99921482226181"><ele>488.6666666666667</ele><time>2026-03-22T16:19:37.867Z</time></trkpt><trkpt lat="42.526467237377894" lon="11.999462070428422"><ele>490.0</ele><time>2026-03-22T16:19:38.867Z</time></trkpt><trkpt lat="42.52645374940685" lon="11.99970718748586"><ele>490.0</ele><time>2026-03-22T16:19:39.867Z</time></trkpt><trkpt lat="42.526439251664215" lon="11.99995404968048"><ele>490.0</ele><time>2026-03-22T16:19:40.867Z</time></trkpt><trkpt lat="42.52640485415249" lon="12.000199096202282"><ele>490.0</ele><time>2026-03-22T16:19:41.867Z</time></trkpt><trkpt lat="42.526387452092514" lon="12.00043969300984"><ele>490.0</ele><time>2026-03-22T16:19:42.867Z</time></trkpt><trkpt lat="42.526387273714235" lon="12.000693254607832"><ele>490.0</ele><time>2026-03-22T16:19:43.867Z</time></trkpt><trkpt lat="42.5263791169036" lon="12.000944941711753"><ele>490.0</ele><time>2026-03-22T16:19:44.867Z</time></trkpt><trkpt lat="42.52638864759946" lon="12.001201796625853"><ele>491.6666666666667</ele><time>2026-03-22T16:19:45.867Z</time></trkpt><trkpt lat="42.52640554306009" lon="12.001453320012736"><ele>493.33333333333337</ele><time>2026-03-22T16:19:46.867Z</time></trkpt><trkpt lat="42.52643725128847" lon="12.001701831161729"><ele>495.0</ele><time>2026-03-22T16:19:47.867Z</time></trkpt><trkpt lat="42.52647118226844" lon="12.001947185023825"><ele>497.0</ele><time>2026-03-22T16:19:48.867Z</time></trkpt><trkpt lat="42.526502654935705" lon="12.002197866782977"><ele>499.0</ele><time>2026-03-22T16:19:49.867Z</time></trkpt><trkpt lat="42.52653065923138" lon="12.002447907563129"><ele>501.0</ele><time>2026-03-22T16:19:50.867Z</time></trkpt><trkpt lat="42.526554180042105" lon="12.002697558869416"><ele>502.0</ele><time>2026-03-22T16:19:51.867Z</time></trkpt><trkpt lat="42.52658738297122" lon="12.002941794313312"><ele>503.0</ele><time>2026-03-22T16:19:52.867Z</time></trkpt><trkpt lat="42.52661636345187" lon="12.003191293782262"><ele>504.0</ele><time>2026-03-22T16:19:53.867Z</time></trkpt><trkpt lat="42.52664676970475" lon="12.003436515153373"><ele>504.33333333333337</ele><time>2026-03-22T16:19:54.867Z</time></trkpt><trkpt lat="42.52666203313077" lon="12.00368597219483"><ele>504.6666666666667</ele><time>2026-03-22T16:19:55.867Z</time></trkpt><trkpt lat="42.526706075849106" lon="12.003923473340512"><ele>505.0</ele><time>2026-03-22T16:19:56.867Z</time></trkpt><trkpt lat="42.52673274027951" lon="12.004157285940813"><ele>505.6666666666667</ele><time>2026-03-22T16:19:57.867Z</time></trkpt><trkpt lat="42.52676522730275" lon="12.004387167653437"><ele>506.33333333333337</ele><time>2026-03-22T16:19:58.867Z</time></trkpt><trkpt lat="42.52680288164607" lon="12.004604280201306"><ele>507.0</ele><time>2026-03-22T16:19:59.867Z</time></trkpt><trkpt lat="42.526842700469736" lon="12.004815418753955"><ele>508.75</ele><time>2026-03-22T16:20:00.867Z</time></trkpt><trkpt lat="42.5268820046853" lon="12.005002369392455"><ele>510.5</ele><time>2026-03-22T16:20:01.867Z</time></trkpt><trkpt lat="42.526923041818215" lon="12.005188373693496"><ele>512.25</ele><time>2026-03-22T16:20:02.867Z</time></trkpt><trkpt lat="42.52696634858985" lon="12.005362357560227"><ele>514.0</ele><time>2026-03-22T16:20:03.867Z</time></trkpt><trkpt lat="42.527013303894506" lon="12.005526044064206"><ele>515.2</ele><time>2026-03-22T16:20:04.867Z</time></trkpt><trkpt lat="42.52706703121969" lon="12.0056723346037"><ele>516.4</ele><time>2026-03-22T16:20:05.867Z</time></trkpt><trkpt lat="42.52712441546365" lon="12.00580813044866"><ele>517.6</ele><time>2026-03-22T16:20:06.867Z</time></trkpt><trkpt lat="42.52718219092511" lon="12.005928935724246"><ele>518.8</ele><time>2026-03-22T16:20:07.867Z</time></trkpt><trkpt lat="42.52723801180437" lon="12.006052292223037"><ele>520.0</ele><time>2026-03-22T16:20:08.867Z</time></trkpt><trkpt lat="42.527292182502165" lon="12.006176021970873"><ele>520.0</ele><time>2026-03-22T16:20:09.867Z</time></trkpt><trkpt lat="42.527344046128306" lon="12.0062993114474"><ele>520.0</ele><time>2026-03-22T16:20:10.866Z</time></trkpt><trkpt lat="42.52739452117534" lon="12.006418331718052"><ele>520.0</ele><time>2026-03-22T16:20:11.866Z</time></trkpt><trkpt lat="42.52744283589949" lon="12.006542891005688"><ele>520.0</ele><time>2026-03-22T16:20:12.866Z</time></trkpt><trkpt lat="42.52748341080906" lon="12.00667730218027"><ele>520.0</ele><time>2026-03-22T16:20:13.866Z</time></trkpt><trkpt lat="42.52750816895464" lon="12.006815671293399"><ele>519.6</ele><time>2026-03-22T16:20:14.866Z</time></trkpt><trkpt lat="42.52752041815751" lon="12.006959245159946"><ele>519.2</ele><time>2026-03-22T16:20:15.866Z</time></trkpt><trkpt lat="42.52751926614045" lon="12.007104681697761"><ele>518.8</ele><time>2026-03-22T16:20:16.866Z</time></trkpt><trkpt lat="42.527498607486656" lon="12.007257154625504"><ele>518.4</ele><time>2026-03-22T16:20:17.868Z</time></trkpt><trkpt lat="42.52746766535088" lon="12.007404696168695"><ele>518.0</ele><time>2026-03-22T16:20:18.869Z</time></trkpt><trkpt lat="42.52743196559295" lon="12.007555554490658"><ele>517.25</ele><time>2026-03-22T16:20:19.869Z</time></trkpt><trkpt lat="42.527392307377475" lon="12.007706611961366"><ele>516.5</ele><time>2026-03-22T16:20:20.869Z</time></trkpt><trkpt lat="42.52734337951916" lon="12.007856053892343"><ele>515.75</ele><time>2026-03-22T16:20:21.869Z</time></trkpt><trkpt lat="42.52730038599413" lon="12.00801414394552"><ele>515.0</ele><time>2026-03-22T16:20:22.869Z</time></trkpt><trkpt lat="42.527259940415234" lon="12.008180377120349"><ele>512.25</ele><time>2026-03-22T16:20:23.868Z</time></trkpt><trkpt lat="42.52721301903996" lon="12.00834363276252"><ele>509.5</ele><time>2026-03-22T16:20:24.868Z</time></trkpt><trkpt lat="42.5271753945395" lon="12.008512899858639"><ele>506.75</ele><time>2026-03-22T16:20:25.868Z</time></trkpt><trkpt lat="42.52714987748302" lon="12.008693696617135"><ele>504.0</ele><time>2026-03-22T16:20:26.868Z</time></trkpt><trkpt lat="42.52714438678877" lon="12.008877472881924"><ele>504.0</ele><time>2026-03-22T16:20:27.867Z</time></trkpt><trkpt lat="42.52715922777662" lon="12.009057392914503"><ele>504.0</ele><time>2026-03-22T16:20:28.867Z</time></trkpt><trkpt lat="42.527192218827224" lon="12.009226269633485"><ele>504.0</ele><time>2026-03-22T16:20:29.868Z</time></trkpt><trkpt lat="42.527234837917305" lon="12.009397303618313"><ele>504.0</ele><time>2026-03-22T16:20:30.868Z</time></trkpt><trkpt lat="42.52727418175206" lon="12.009565566589728"><ele>503.5</ele><time>2026-03-22T16:20:31.868Z</time></trkpt><trkpt lat="42.52731495546104" lon="12.009733045900628"><ele>503.0</ele><time>2026-03-22T16:20:32.868Z</time></trkpt><trkpt lat="42.527351157964944" lon="12.009902444681906"><ele>502.5</ele><time>2026-03-22T16:20:33.868Z</time></trkpt><trkpt lat="42.527385592346526" lon="12.010071407331068"><ele>502.0</ele><time>2026-03-22T16:20:34.868Z</time></trkpt><trkpt lat="42.527418565212834" lon="12.01023589334202"><ele>503.75</ele><time>2026-03-22T16:20:35.868Z</time></trkpt><trkpt lat="42.52745098211667" lon="12.010401966073648"><ele>505.5</ele><time>2026-03-22T16:20:36.868Z</time></trkpt><trkpt lat="42.527484018070986" lon="12.010564757590704"><ele>507.25</ele><time>2026-03-22T16:20:37.868Z</time></trkpt><trkpt lat="42.52751840427894" lon="12.01072366311168"><ele>509.0</ele><time>2026-03-22T16:20:38.868Z</time></trkpt><trkpt lat="42.52755351449699" lon="12.010880505047824"><ele>511.25</ele><time>2026-03-22T16:20:39.868Z</time></trkpt><trkpt lat="42.52758721042189" lon="12.011038450800912"><ele>513.5</ele><time>2026-03-22T16:20:40.868Z</time></trkpt><trkpt lat="42.5276208888991" lon="12.011189495279503"><ele>515.75</ele><time>2026-03-22T16:20:41.868Z</time></trkpt><trkpt lat="42.527648234432576" lon="12.011347796253785"><ele>518.0</ele><time>2026-03-22T16:20:42.867Z</time></trkpt><trkpt lat="42.52767837979762" lon="12.011508347075168"><ele>519.75</ele><time>2026-03-22T16:20:43.867Z</time></trkpt><trkpt lat="42.52770900708352" lon="12.011665481935363"><ele>521.5</ele><time>2026-03-22T16:20:44.867Z</time></trkpt><trkpt lat="42.52774235478803" lon="12.01182630641996"><ele>523.25</ele><time>2026-03-22T16:20:45.867Z</time></trkpt><trkpt lat="42.52777556657651" lon="12.011984816671113"><ele>525.0</ele><time>2026-03-22T16:20:46.867Z</time></trkpt><trkpt lat="42.52780971302334" lon="12.012141950888324"><ele>525.0</ele><time>2026-03-22T16:20:47.867Z</time></trkpt><trkpt lat="42.52784140254723" lon="12.012304013715331"><ele>525.0</ele><time>2026-03-22T16:20:48.867Z</time></trkpt><trkpt lat="42.52787164316522" lon="12.012462549086491"><ele>525.0</ele><time>2026-03-22T16:20:49.867Z</time></trkpt><trkpt lat="42.52790145958289" lon="12.012617509398035"><ele>525.0</ele><time>2026-03-22T16:20:50.867Z</time></trkpt><trkpt lat="42.52793488067389" lon="12.01277264165125"><ele>524.0</ele><time>2026-03-22T16:20:51.867Z</time></trkpt><trkpt lat="42.52796928651139" lon="12.012923710762616"><ele>523.0</ele><time>2026-03-22T16:20:52.867Z</time></trkpt><trkpt lat="42.52800399648424" lon="12.013076187877335"><ele>522.0</ele><time>2026-03-22T16:20:53.867Z</time></trkpt><trkpt lat="42.52803787172307" lon="12.01323081444848"><ele>521.0</ele><time>2026-03-22T16:20:54.867Z</time></trkpt><trkpt lat="42.5280666610375" lon="12.013382575796966"><ele>523.0</ele><time>2026-03-22T16:20:55.867Z</time></trkpt><trkpt lat="42.52809819642622" lon="12.013529309149172"><ele>525.0</ele><time>2026-03-22T16:20:56.867Z</time></trkpt><trkpt lat="42.52812639349493" lon="12.01367451969651"><ele>527.0</ele><time>2026-03-22T16:20:57.867Z</time></trkpt><trkpt lat="42.52815894687388" lon="12.013813401721938"><ele>529.0</ele><time>2026-03-22T16:20:58.867Z</time></trkpt><trkpt lat="42.528191830061274" lon="12.013958545445986"><ele>531.0</ele><time>2026-03-22T16:20:59.867Z</time></trkpt><trkpt lat="42.52821918017736" lon="12.01409311735427"><ele>531.0</ele><time>2026-03-22T16:21:00.867Z</time></trkpt><trkpt lat="42.52824407243229" lon="12.014223412926592"><ele>531.0</ele><time>2026-03-22T16:21:01.867Z</time></trkpt><trkpt lat="42.52827237599237" lon="12.014350835844784"><ele>531.0</ele><time>2026-03-22T16:21:02.867Z</time></trkpt><trkpt lat="42.528296547011415" lon="12.014472126210917"><ele>531.0</ele><time>2026-03-22T16:21:03.867Z</time></trkpt><trkpt lat="42.5283244550044" lon="12.014595980387213"><ele>531.0</ele><time>2026-03-22T16:21:04.867Z</time></trkpt><trkpt lat="42.5283505397558" lon="12.014712700726278"><ele>531.0</ele><time>2026-03-22T16:21:05.867Z</time></trkpt><trkpt lat="42.52837501480972" lon="12.014829476363586"><ele>531.0</ele><time>2026-03-22T16:21:06.867Z</time></trkpt><trkpt lat="42.528398852367815" lon="12.014950931376918"><ele>531.0</ele><time>2026-03-22T16:21:07.867Z</time></trkpt><trkpt lat="42.528406838102356" lon="12.015073417110603"><ele>531.0</ele><time>2026-03-22T16:21:08.867Z</time></trkpt><trkpt lat="42.52843084474572" lon="12.01518893124231"><ele>531.0</ele><time>2026-03-22T16:21:09.867Z</time></trkpt><trkpt lat="42.528453280837155" lon="12.015302425710974"><ele>531.0</ele><time>2026-03-22T16:21:10.867Z</time></trkpt><trkpt lat="42.52847573543736" lon="12.015414737811982"><ele>531.0</ele><time>2026-03-22T16:21:11.867Z</time></trkpt><trkpt lat="42.52849793940179" lon="12.015525349538015"><ele>531.0</ele><time>2026-03-22T16:21:12.867Z</time></trkpt><trkpt lat="42.52851828766279" lon="12.015641880571588"><ele>531.0</ele><time>2026-03-22T16:21:13.867Z</time></trkpt><trkpt lat="42.528545172395155" lon="12.01575512047134"><ele>531.0</ele><time>2026-03-22T16:21:14.867Z</time></trkpt><trkpt lat="42.52856506385898" lon="12.015870700768556"><ele>531.0</ele><time>2026-03-22T16:21:15.867Z</time></trkpt><trkpt lat="42.52858080766877" lon="12.01598668543058"><ele>531.0</ele><time>2026-03-22T16:21:16.867Z</time></trkpt><trkpt lat="42.52860481361893" lon="12.016102822056148"><ele>531.0</ele><time>2026-03-22T16:21:17.867Z</time></trkpt><trkpt lat="42.52863118118825" lon="12.01621439044366"><ele>531.0</ele><time>2026-03-22T16:21:18.867Z</time></trkpt><trkpt lat="42.5286564442794" lon="12.016320558929076"><ele>531.0</ele><time>2026-03-22T16:21:19.867Z</time></trkpt><trkpt lat="42.52867855471888" lon="12.016429966613257"><ele>531.0</ele><time>2026-03-22T16:21:20.867Z</time></trkpt><trkpt lat="42.528703779160395" lon="12.016537876191382"><ele>531.0</ele><time>2026-03-22T16:21:21.867Z</time></trkpt><trkpt lat="42.528728746947" lon="12.016639870100391"><ele>531.0</ele><time>2026-03-22T16:21:22.867Z</time></trkpt><trkpt lat="42.52874988638709" lon="12.016742692793855"><ele>532.8333333333334</ele><time>2026-03-22T16:21:23.867Z</time></trkpt><trkpt lat="42.52876784636154" lon="12.016841679719075"><ele>534.6666666666666</ele><time>2026-03-22T16:21:24.867Z</time></trkpt><trkpt lat="42.52878845768813" lon="12.01693842180664"><ele>536.5</ele><time>2026-03-22T16:21:25.867Z</time></trkpt><trkpt lat="42.52879908938015" lon="12.017048662240212"><ele>538.3333333333333</ele><time>2026-03-22T16:21:26.866Z</time></trkpt><trkpt lat="42.52883244094576" lon="12.017143536156599"><ele>540.1666666666666</ele><time>2026-03-22T16:21:27.866Z</time></trkpt><trkpt lat="42.528850488470745" lon="12.017249045301131"><ele>542.0</ele><time>2026-03-22T16:21:28.866Z</time></trkpt><trkpt lat="42.52887604173213" lon="12.017349610736277"><ele>542.0</ele><time>2026-03-22T16:21:29.866Z</time></trkpt><trkpt lat="42.52890309289474" lon="12.017456239910867"><ele>542.0</ele><time>2026-03-22T16:21:30.866Z</time></trkpt><trkpt lat="42.52893815165821" lon="12.017561347131288"><ele>542.0</ele><time>2026-03-22T16:21:31.866Z</time></trkpt><trkpt lat="42.528972657172915" lon="12.017672689022639"><ele>542.0</ele><time>2026-03-22T16:21:32.866Z</time></trkpt><trkpt lat="42.529005943251406" lon="12.017790407308526"><ele>542.0</ele><time>2026-03-22T16:21:33.866Z</time></trkpt><trkpt lat="42.52904553503838" lon="12.017904246520581"><ele>542.0</ele><time>2026-03-22T16:21:34.866Z</time></trkpt><trkpt lat="42.529093629917064" lon="12.01801710925544"><ele>542.2</ele><time>2026-03-22T16:21:35.866Z</time></trkpt><trkpt lat="42.52914173438559" lon="12.018126924127879"><ele>542.4000000000001</ele><time>2026-03-22T16:21:36.866Z</time></trkpt><trkpt lat="42.52919768529129" lon="12.01823195514502"><ele>542.5999999999999</ele><time>2026-03-22T16:21:37.866Z</time></trkpt><trkpt lat="42.52925118659667" lon="12.018340042994113"><ele>542.8</ele><time>2026-03-22T16:21:38.866Z</time></trkpt><trkpt lat="42.52930611358937" lon="12.01844525411691"><ele>543.0</ele><time>2026-03-22T16:21:39.866Z</time></trkpt><trkpt lat="42.52936360122043" lon="12.018549540502347"><ele>543.0</ele><time>2026-03-22T16:21:40.866Z</time></trkpt><trkpt lat="42.529417342765896" lon="12.018657126244484"><ele>543.0</ele><time>2026-03-22T16:21:41.866Z</time></trkpt><trkpt lat="42.52947529431478" lon="12.018766518004664"><ele>543.0</ele><time>2026-03-22T16:21:42.866Z</time></trkpt><trkpt lat="42.52953222547899" lon="12.018879717968405"><ele>543.0</ele><time>2026-03-22T16:21:43.866Z</time></trkpt><trkpt lat="42.52959486169637" lon="12.018989887532372"><ele>543.0</ele><time>2026-03-22T16:21:44.866Z</time></trkpt><trkpt lat="42.52965800893601" lon="12.019100593785176"><ele>543.0</ele><time>2026-03-22T16:21:45.866Z</time></trkpt><trkpt lat="42.52972221029322" lon="12.019212275842468"><ele>543.0</ele><time>2026-03-22T16:21:46.866Z</time></trkpt><trkpt lat="42.52978232801482" lon="12.019329744942164"><ele>543.0</ele><time>2026-03-22T16:21:47.866Z</time></trkpt><trkpt lat="42.52984449820742" lon="12.019452441849317"><ele>543.0</ele><time>2026-03-22T16:21:48.866Z</time></trkpt><trkpt lat="42.52989001440728" lon="12.01958175387678"><ele>543.0</ele><time>2026-03-22T16:21:49.866Z</time></trkpt><trkpt lat="42.52992863600747" lon="12.01971838054473"><ele>543.0</ele><time>2026-03-22T16:21:50.866Z</time></trkpt><trkpt lat="42.52994577046802" lon="12.019854456383252"><ele>543.0</ele><time>2026-03-22T16:21:51.866Z</time></trkpt><trkpt lat="42.52992498075121" lon="12.019987283392569"><ele>543.0</ele><time>2026-03-22T16:21:52.866Z</time></trkpt><trkpt lat="42.52990012030315" lon="12.020126975343333"><ele>543.0</ele><time>2026-03-22T16:21:53.866Z</time></trkpt><trkpt lat="42.529859532471455" lon="12.020269294656849"><ele>543.0</ele><time>2026-03-22T16:21:54.866Z</time></trkpt><trkpt lat="42.52980951687496" lon="12.020412450324482"><ele>542.5</ele><time>2026-03-22T16:21:55.866Z</time></trkpt><trkpt lat="42.529757312478175" lon="12.020569905166864"><ele>542.0</ele><time>2026-03-22T16:21:56.866Z</time></trkpt><trkpt lat="42.52971110906438" lon="12.020732430523173"><ele>541.5</ele><time>2026-03-22T16:21:57.866Z</time></trkpt><trkpt lat="42.52967676076854" lon="12.020906039737993"><ele>541.0</ele><time>2026-03-22T16:21:58.866Z</time></trkpt><trkpt lat="42.52966729736029" lon="12.021067306279155"><ele>542.0</ele><time>2026-03-22T16:21:59.866Z</time></trkpt><trkpt lat="42.529704383332756" lon="12.021217885854261"><ele>543.0</ele><time>2026-03-22T16:22:00.866Z</time></trkpt><trkpt lat="42.5297429933719" lon="12.021363458327098"><ele>544.0</ele><time>2026-03-22T16:22:01.866Z</time></trkpt><trkpt lat="42.529795312674054" lon="12.021499403709809"><ele>545.0</ele><time>2026-03-22T16:22:02.866Z</time></trkpt><trkpt lat="42.52986747330849" lon="12.021631448426163"><ele>546.5</ele><time>2026-03-22T16:22:03.866Z</time></trkpt><trkpt lat="42.52994913302642" lon="12.02175622838074"><ele>548.0</ele><time>2026-03-22T16:22:04.866Z</time></trkpt><trkpt lat="42.53003287890369" lon="12.021881259881852"><ele>549.5</ele><time>2026-03-22T16:22:05.866Z</time></trkpt><trkpt lat="42.53012178996251" lon="12.02200565125601"><ele>551.0</ele><time>2026-03-22T16:22:06.866Z</time></trkpt><trkpt lat="42.53020722864163" lon="12.02213358029611"><ele>551.0</ele><time>2026-03-22T16:22:07.866Z</time></trkpt><trkpt lat="42.530292410139594" lon="12.022264005875007"><ele>551.0</ele><time>2026-03-22T16:22:08.866Z</time></trkpt><trkpt lat="42.530377643358094" lon="12.022396354314072"><ele>551.0</ele><time>2026-03-22T16:22:09.866Z</time></trkpt><trkpt lat="42.530466603989645" lon="12.02253049080751"><ele>551.0</ele><time>2026-03-22T16:22:10.865Z</time></trkpt><trkpt lat="42.530558679300036" lon="12.022664411704419"><ele>552.5</ele><time>2026-03-22T16:22:11.865Z</time></trkpt><trkpt lat="42.53065124921559" lon="12.022805574298848"><ele>554.0</ele><time>2026-03-22T16:22:12.865Z</time></trkpt><trkpt lat="42.530749065272644" lon="12.022942198616365"><ele>555.5</ele><time>2026-03-22T16:22:13.865Z</time></trkpt><trkpt lat="42.53084630373414" lon="12.023079098610731"><ele>557.0</ele><time>2026-03-22T16:22:14.865Z</time></trkpt><trkpt lat="42.53094146984574" lon="12.02322108985867"><ele>556.25</ele><time>2026-03-22T16:22:15.865Z</time></trkpt><trkpt lat="42.531035606525535" lon="12.023357927567915"><ele>555.5</ele><time>2026-03-22T16:22:16.865Z</time></trkpt><trkpt lat="42.53113078157257" lon="12.023501271223017"><ele>554.75</ele><time>2026-03-22T16:22:17.865Z</time></trkpt><trkpt lat="42.53122771631265" lon="12.023640382102466"><ele>554.0</ele><time>2026-03-22T16:22:18.865Z</time></trkpt><trkpt lat="42.53132965453332" lon="12.02377856300333"><ele>554.0</ele><time>2026-03-22T16:22:19.865Z</time></trkpt><trkpt lat="42.53143498178905" lon="12.023906612561275"><ele>554.0</ele><time>2026-03-22T16:22:20.865Z</time></trkpt><trkpt lat="42.531558606876565" lon="12.024019371426393"><ele>554.0</ele><time>2026-03-22T16:22:21.865Z</time></trkpt><trkpt lat="42.53168241790242" lon="12.024120617113509"><ele>554.0</ele><time>2026-03-22T16:22:22.865Z</time></trkpt><trkpt lat="42.53181865542605" lon="12.024205474091497"><ele>555.75</ele><time>2026-03-22T16:22:23.868Z</time></trkpt><trkpt lat="42.531955242519125" lon="12.024279605843088"><ele>557.5</ele><time>2026-03-22T16:22:24.867Z</time></trkpt><trkpt lat="42.5320965018917" lon="12.024354019307468"><ele>559.25</ele><time>2026-03-22T16:22:25.867Z</time></trkpt><trkpt lat="42.53223361474301" lon="12.024432323261996"><ele>561.0</ele><time>2026-03-22T16:22:26.867Z</time></trkpt><trkpt lat="42.53236344635012" lon="12.024519761008596"><ele>561.0</ele><time>2026-03-22T16:22:27.868Z</time></trkpt><trkpt lat="42.53249091961508" lon="12.024614203784497"><ele>561.0</ele><time>2026-03-22T16:22:28.868Z</time></trkpt><trkpt lat="42.53261516496589" lon="12.024715999237802"><ele>561.0</ele><time>2026-03-22T16:22:29.867Z</time></trkpt><trkpt lat="42.53273593715517" lon="12.024823325630226"><ele>561.0</ele><time>2026-03-22T16:22:30.867Z</time></trkpt><trkpt lat="42.53284989041902" lon="12.024944947513259"><ele>562.75</ele><time>2026-03-22T16:22:31.867Z</time></trkpt><trkpt lat="42.53296831070844" lon="12.025066333981584"><ele>564.5</ele><time>2026-03-22T16:22:32.867Z</time></trkpt><trkpt lat="42.533098785240256" lon="12.02517800770306"><ele>566.25</ele><time>2026-03-22T16:22:33.867Z</time></trkpt><trkpt lat="42.53321907247457" lon="12.025273436911819"><ele>568.0</ele><time>2026-03-22T16:22:34.867Z</time></trkpt><trkpt lat="42.53333893575149" lon="12.025356670376638"><ele>568.0</ele><time>2026-03-22T16:22:35.868Z</time></trkpt><trkpt lat="42.53345202372994" lon="12.025432186482666"><ele>568.0</ele><time>2026-03-22T16:22:36.867Z</time></trkpt><trkpt lat="42.53356668041776" lon="12.025491078747857"><ele>568.0</ele><time>2026-03-22T16:22:37.867Z</time></trkpt><trkpt lat="42.533669886582885" lon="12.025551111503667"><ele>568.0</ele><time>2026-03-22T16:22:38.867Z</time></trkpt><trkpt lat="42.53377037074512" lon="12.025609454769015"><ele>567.8</ele><time>2026-03-22T16:22:39.867Z</time></trkpt><trkpt lat="42.533852335349486" lon="12.025683645245316"><ele>567.5999999999999</ele><time>2026-03-22T16:22:40.867Z</time></trkpt><trkpt lat="42.53392644145354" lon="12.025764676848441"><ele>567.4000000000001</ele><time>2026-03-22T16:22:41.867Z</time></trkpt><trkpt lat="42.53399196364237" lon="12.025858966492507"><ele>567.2</ele><time>2026-03-22T16:22:42.867Z</time></trkpt><trkpt lat="42.534052823296726" lon="12.025960364018925"><ele>567.0</ele><time>2026-03-22T16:22:43.867Z</time></trkpt><trkpt lat="42.534107425354726" lon="12.026078966519936"><ele>569.6</ele><time>2026-03-22T16:22:44.867Z</time></trkpt><trkpt lat="42.534160979150016" lon="12.02620011392046"><ele>572.2</ele><time>2026-03-22T16:22:45.867Z</time></trkpt><trkpt lat="42.53420223116793" lon="12.026333238534782"><ele>574.8</ele><time>2026-03-22T16:22:46.867Z</time></trkpt><trkpt lat="42.53425411390097" lon="12.026456800469681"><ele>577.4</ele><time>2026-03-22T16:22:47.867Z</time></trkpt><trkpt lat="42.534303174225194" lon="12.026573905450716"><ele>580.0</ele><time>2026-03-22T16:22:48.867Z</time></trkpt><trkpt lat="42.53435161496067" lon="12.026689531503994"><ele>580.0</ele><time>2026-03-22T16:22:49.867Z</time></trkpt><trkpt lat="42.534400422720516" lon="12.02680576654062"><ele>580.0</ele><time>2026-03-22T16:22:50.867Z</time></trkpt><trkpt lat="42.53446214640696" lon="12.026921885382455"><ele>580.0</ele><time>2026-03-22T16:22:51.867Z</time></trkpt><trkpt lat="42.53450361429236" lon="12.027068917771853"><ele>580.0</ele><time>2026-03-22T16:22:52.867Z</time></trkpt><trkpt lat="42.534554438164776" lon="12.027209354235858"><ele>580.0</ele><time>2026-03-22T16:22:53.867Z</time></trkpt><trkpt lat="42.53460867614687" lon="12.027351509456981"><ele>582.5</ele><time>2026-03-22T16:22:54.867Z</time></trkpt><trkpt lat="42.53467143769711" lon="12.027488970366772"><ele>585.0</ele><time>2026-03-22T16:22:55.867Z</time></trkpt><trkpt lat="42.534730432522565" lon="12.027633722933999"><ele>587.5</ele><time>2026-03-22T16:22:56.867Z</time></trkpt><trkpt lat="42.534796707882975" lon="12.027780860716213"><ele>590.0</ele><time>2026-03-22T16:22:57.867Z</time></trkpt><trkpt lat="42.53486618737812" lon="12.027927286267909"><ele>590.0</ele><time>2026-03-22T16:22:58.867Z</time></trkpt><trkpt lat="42.53493280230411" lon="12.028074399106826"><ele>590.0</ele><time>2026-03-22T16:22:59.867Z</time></trkpt><trkpt lat="42.53500339121104" lon="12.028223813098569"><ele>590.0</ele><time>2026-03-22T16:23:00.867Z</time></trkpt><trkpt lat="42.53507138055269" lon="12.028380126028669"><ele>590.0</ele><time>2026-03-22T16:23:01.867Z</time></trkpt><trkpt lat="42.53511547009367" lon="12.02855223564096"><ele>589.25</ele><time>2026-03-22T16:23:02.867Z</time></trkpt><trkpt lat="42.535164597090365" lon="12.028716478219945"><ele>588.5</ele><time>2026-03-22T16:23:03.867Z</time></trkpt><trkpt lat="42.535202437565644" lon="12.028877597854148"><ele>587.75</ele><time>2026-03-22T16:23:04.867Z</time></trkpt><trkpt lat="42.535239224330624" lon="12.029038187592128"><ele>587.0</ele><time>2026-03-22T16:23:05.867Z</time></trkpt><trkpt lat="42.5352720999329" lon="12.029199659873349"><ele>586.5</ele><time>2026-03-22T16:23:06.867Z</time></trkpt><trkpt lat="42.53530471418185" lon="12.029359950931154"><ele>586.0</ele><time>2026-03-22T16:23:07.867Z</time></trkpt><trkpt lat="42.535347447772594" lon="12.02952324743383"><ele>585.5</ele><time>2026-03-22T16:23:08.867Z</time></trkpt><trkpt lat="42.535371935193766" lon="12.029699148918441"><ele>585.0</ele><time>2026-03-22T16:23:09.867Z</time></trkpt><trkpt lat="42.53537642275156" lon="12.029884662062063"><ele>589.75</ele><time>2026-03-22T16:23:10.866Z</time></trkpt><trkpt lat="42.5354007762212" lon="12.030063514678247"><ele>594.5</ele><time>2026-03-22T16:23:11.866Z</time></trkpt><trkpt lat="42.5354388136961" lon="12.030230515754239"><ele>599.25</ele><time>2026-03-22T16:23:12.866Z</time></trkpt><trkpt lat="42.535494814567485" lon="12.03037682349566"><ele>604.0</ele><time>2026-03-22T16:23:13.866Z</time></trkpt><trkpt lat="42.53558548149421" lon="12.030484156675225"><ele>604.0</ele><time>2026-03-22T16:23:14.866Z</time></trkpt><trkpt lat="42.53567927886158" lon="12.030580992191691"><ele>604.0</ele><time>2026-03-22T16:23:15.866Z</time></trkpt><trkpt lat="42.535777971621485" lon="12.030659871045785"><ele>604.0</ele><time>2026-03-22T16:23:16.866Z</time></trkpt><trkpt lat="42.53588838517711" lon="12.030730830771228"><ele>604.0</ele><time>2026-03-22T16:23:17.866Z</time></trkpt><trkpt lat="42.53599135924894" lon="12.030806980395516"><ele>604.2</ele><time>2026-03-22T16:23:18.866Z</time></trkpt><trkpt lat="42.53608384599365" lon="12.03088052823644"><ele>604.4</ele><time>2026-03-22T16:23:19.866Z</time></trkpt><trkpt lat="42.536176928786915" lon="12.030949885373973"><ele>604.6</ele><time>2026-03-22T16:23:20.866Z</time></trkpt><trkpt lat="42.53627862781126" lon="12.031009681669952"><ele>604.8</ele><time>2026-03-22T16:23:21.866Z</time></trkpt><trkpt lat="42.53638942152775" lon="12.031050088742978"><ele>605.0</ele><time>2026-03-22T16:23:22.866Z</time></trkpt><trkpt lat="42.53650423274456" lon="12.031074335452132"><ele>605.0</ele><time>2026-03-22T16:23:23.866Z</time></trkpt><trkpt lat="42.53661920564924" lon="12.031090901291886"><ele>605.0</ele><time>2026-03-22T16:23:24.866Z</time></trkpt><trkpt lat="42.53673544557926" lon="12.031114414770473"><ele>605.0</ele><time>2026-03-22T16:23:25.866Z</time></trkpt><trkpt lat="42.53684556441441" lon="12.031136659130423"><ele>605.0</ele><time>2026-03-22T16:23:26.866Z</time></trkpt><trkpt lat="42.53696180823827" lon="12.031147017038279"><ele>604.25</ele><time>2026-03-22T16:23:27.866Z</time></trkpt><trkpt lat="42.53709216650653" lon="12.031166679909187"><ele>603.5</ele><time>2026-03-22T16:23:28.866Z</time></trkpt><trkpt lat="42.53719785604904" lon="12.031238850437427"><ele>602.75</ele><time>2026-03-22T16:23:29.866Z</time></trkpt><trkpt lat="42.5372809748109" lon="12.031378037657227"><ele>602.0</ele><time>2026-03-22T16:23:30.866Z</time></trkpt><trkpt lat="42.53735156051514" lon="12.031497353446504"><ele>602.0</ele><time>2026-03-22T16:23:31.866Z</time></trkpt><trkpt lat="42.537424182301386" lon="12.03161754843136"><ele>602.0</ele><time>2026-03-22T16:23:32.866Z</time></trkpt><trkpt lat="42.53749507331641" lon="12.031742606101334"><ele>602.0</ele><time>2026-03-22T16:23:33.866Z</time></trkpt><trkpt lat="42.53755763061704" lon="12.031887385556072"><ele>602.0</ele><time>2026-03-22T16:23:34.866Z</time></trkpt><trkpt lat="42.53760223602897" lon="12.032028681548693"><ele>599.0</ele><time>2026-03-22T16:23:35.866Z</time></trkpt><trkpt lat="42.5376332255296" lon="12.03216880153511"><ele>596.0</ele><time>2026-03-22T16:23:36.866Z</time></trkpt><trkpt lat="42.537660983041015" lon="12.032307825404587"><ele>593.0</ele><time>2026-03-22T16:23:37.866Z</time></trkpt><trkpt lat="42.53768602835689" lon="12.032449692655273"><ele>590.0</ele><time>2026-03-22T16:23:38.866Z</time></trkpt><trkpt lat="42.537728699569406" lon="12.032588313784427"><ele>587.0</ele><time>2026-03-22T16:23:39.866Z</time></trkpt><trkpt lat="42.53779687258339" lon="12.032706091572804"><ele>587.75</ele><time>2026-03-22T16:23:40.866Z</time></trkpt><trkpt lat="42.53787388348208" lon="12.032811560291922"><ele>588.5</ele><time>2026-03-22T16:23:41.866Z</time></trkpt><trkpt lat="42.53796079358305" lon="12.032911888389728"><ele>589.25</ele><time>2026-03-22T16:23:42.866Z</time></trkpt><trkpt lat="42.5380538687683" lon="12.032999424282876"><ele>590.0</ele><time>2026-03-22T16:23:43.866Z</time></trkpt><trkpt lat="42.53813929269737" lon="12.033105317717771"><ele>590.0</ele><time>2026-03-22T16:23:44.866Z</time></trkpt><trkpt lat="42.53823999083772" lon="12.033195625638706"><ele>590.0</ele><time>2026-03-22T16:23:45.866Z</time></trkpt><trkpt lat="42.53835177412784" lon="12.033254395376243"><ele>590.0</ele><time>2026-03-22T16:23:46.866Z</time></trkpt><trkpt lat="42.53844996670229" lon="12.033349851524395"><ele>590.0</ele><time>2026-03-22T16:23:47.866Z</time></trkpt><trkpt lat="42.53855546600989" lon="12.033421553243853"><ele>588.6</ele><time>2026-03-22T16:23:48.866Z</time></trkpt><trkpt lat="42.53865545668055" lon="12.033489672126212"><ele>587.2</ele><time>2026-03-22T16:23:49.866Z</time></trkpt><trkpt lat="42.538754782854966" lon="12.033550138749469"><ele>585.8</ele><time>2026-03-22T16:23:50.866Z</time></trkpt><trkpt lat="42.53885212956238" lon="12.033605022915395"><ele>584.4</ele><time>2026-03-22T16:23:51.866Z</time></trkpt><trkpt lat="42.53894385167405" lon="12.033634062334984"><ele>583.0</ele><time>2026-03-22T16:23:52.866Z</time></trkpt><trkpt lat="42.53901791771343" lon="12.033645183137523"><ele>583.0</ele><time>2026-03-22T16:23:53.866Z</time></trkpt><trkpt lat="42.539120989645966" lon="12.033679121908445"><ele>583.0</ele><time>2026-03-22T16:23:55.865Z</time></trkpt><trkpt lat="42.53921238310261" lon="12.033717959684525"><ele>583.0</ele><time>2026-03-22T16:23:57.865Z</time></trkpt><trkpt lat="42.539308446548624" lon="12.033747792203867"><ele>583.0</ele><time>2026-03-22T16:23:59.865Z</time></trkpt><trkpt lat="42.53939684422285" lon="12.033783618770228"><ele>583.0</ele><time>2026-03-22T16:24:01.865Z</time></trkpt><trkpt lat="42.53946781307607" lon="12.033804624787146"><ele>583.0</ele><time>2026-03-22T16:24:03.865Z</time></trkpt><trkpt lat="42.53953011924136" lon="12.033843715356376"><ele>583.0</ele><time>2026-03-22T16:24:05.865Z</time></trkpt><trkpt lat="42.539605627917425" lon="12.033883450401463"><ele>583.0</ele><time>2026-03-22T16:24:07.865Z</time></trkpt><trkpt lat="42.53972732183108" lon="12.033861395765253"><ele>583.0</ele><time>2026-03-22T16:24:09.865Z</time></trkpt><trkpt lat="42.53983338220365" lon="12.033838467890535"><ele>583.0</ele><time>2026-03-22T16:24:11.865Z</time></trkpt><trkpt lat="42.539899430935286" lon="12.033815494104923"><ele>583.0</ele><time>2026-03-22T16:24:13.865Z</time></trkpt><trkpt lat="42.5399738861009" lon="12.033827105448829"><ele>578.0</ele><time>2026-03-22T16:24:15.865Z</time></trkpt><trkpt lat="42.54005814544564" lon="12.033818488861675"><ele>578.0</ele><time>2026-03-22T16:24:18.865Z</time></trkpt></trkseg></trk></gpx>